<?xml version="1.0" encoding="UTF-8" standalone="no" ?>
<gpx xmlns="http://www.topografix.com/GPX/1/1" xmlns:xsi="http://www.w3.org/2001/XMLSchema-instance" xsi:schemaLocation="http://www.topografix.com/GPX/1/1 http://www.topografix.com/GPX/1/1/gpx.xsd" version="1.1" creator="VisuGPX - https://www.visugpx.com">
  <metadata>
    <name>2018-06-16 Bike ride-Chatillon-Limas 39k</name>
    <desc><![CDATA[2018-06-16 Bike ride-Chatillon-Limas 39k]]></desc>
  </metadata>
  <wpt lat="45.92456" lon="4.73728">
    <ele>174</ele>
    <name><![CDATA[2018-06-16 10:31 (Start)]]></name>
  </wpt>
  <wpt lat="45.92458" lon="4.73712">
    <ele>174</ele>
    <name><![CDATA[2018-06-16 10:31 (End)]]></name>
  </wpt>
  <trk>
    <name><![CDATA[2018-06-16 10:31]]></name>
    <trkseg>
      <trkpt lat="45.92456" lon="4.73728">
        <ele>174</ele>
        <time>2018-06-16T08:31:39.027Z</time>
      </trkpt>
      <trkpt lat="45.92457" lon="4.73719">
        <ele>174</ele>
        <time>2018-06-16T08:31:45Z</time>
      </trkpt>
      <trkpt lat="45.92458" lon="4.73718">
        <ele>174</ele>
        <time>2018-06-16T08:31:46Z</time>
      </trkpt>
      <trkpt lat="45.92461" lon="4.73716">
        <ele>174</ele>
        <time>2018-06-16T08:31:56Z</time>
      </trkpt>
      <trkpt lat="45.92461" lon="4.73716">
        <ele>174</ele>
        <time>2018-06-16T08:31:57Z</time>
      </trkpt>
      <trkpt lat="45.92464" lon="4.73704">
        <ele>174</ele>
        <time>2018-06-16T08:32:12Z</time>
      </trkpt>
      <trkpt lat="45.92464" lon="4.73701">
        <ele>174</ele>
        <time>2018-06-16T08:32:13Z</time>
      </trkpt>
      <trkpt lat="45.92466" lon="4.7369">
        <ele>174</ele>
        <time>2018-06-16T08:32:16Z</time>
      </trkpt>
      <trkpt lat="45.92467" lon="4.73686">
        <ele>174</ele>
        <time>2018-06-16T08:32:17Z</time>
      </trkpt>
      <trkpt lat="45.92468" lon="4.73675">
        <ele>174</ele>
        <time>2018-06-16T08:32:19Z</time>
      </trkpt>
      <trkpt lat="45.92469" lon="4.7367">
        <ele>174</ele>
        <time>2018-06-16T08:32:20Z</time>
      </trkpt>
      <trkpt lat="45.9247" lon="4.7366">
        <ele>174</ele>
        <time>2018-06-16T08:32:22Z</time>
      </trkpt>
      <trkpt lat="45.92472" lon="4.73647">
        <ele>174</ele>
        <time>2018-06-16T08:32:23Z</time>
      </trkpt>
      <trkpt lat="45.92472" lon="4.73636">
        <ele>174</ele>
        <time>2018-06-16T08:32:25Z</time>
      </trkpt>
      <trkpt lat="45.92471" lon="4.7363">
        <ele>174</ele>
        <time>2018-06-16T08:32:26Z</time>
      </trkpt>
      <trkpt lat="45.9247" lon="4.73617">
        <ele>174</ele>
        <time>2018-06-16T08:32:28Z</time>
      </trkpt>
      <trkpt lat="45.92469" lon="4.73611">
        <ele>174</ele>
        <time>2018-06-16T08:32:29Z</time>
      </trkpt>
      <trkpt lat="45.92469" lon="4.73598">
        <ele>174</ele>
        <time>2018-06-16T08:32:31Z</time>
      </trkpt>
      <trkpt lat="45.92468" lon="4.73592">
        <ele>174</ele>
        <time>2018-06-16T08:32:32Z</time>
      </trkpt>
      <trkpt lat="45.92468" lon="4.7358">
        <ele>173</ele>
        <time>2018-06-16T08:32:34Z</time>
      </trkpt>
      <trkpt lat="45.92468" lon="4.73574">
        <ele>173</ele>
        <time>2018-06-16T08:32:35Z</time>
      </trkpt>
      <trkpt lat="45.92467" lon="4.73561">
        <ele>173</ele>
        <time>2018-06-16T08:32:38Z</time>
      </trkpt>
      <trkpt lat="45.92466" lon="4.73557">
        <ele>173</ele>
        <time>2018-06-16T08:32:39Z</time>
      </trkpt>
      <trkpt lat="45.92462" lon="4.73548">
        <ele>173</ele>
        <time>2018-06-16T08:32:42Z</time>
      </trkpt>
      <trkpt lat="45.92454" lon="4.73545">
        <ele>174</ele>
        <time>2018-06-16T08:32:43Z</time>
      </trkpt>
      <trkpt lat="45.92446" lon="4.73549">
        <ele>174</ele>
        <time>2018-06-16T08:32:45Z</time>
      </trkpt>
      <trkpt lat="45.92442" lon="4.73552">
        <ele>174</ele>
        <time>2018-06-16T08:32:46Z</time>
      </trkpt>
      <trkpt lat="45.92437" lon="4.73558">
        <ele>174</ele>
        <time>2018-06-16T08:32:47Z</time>
      </trkpt>
      <trkpt lat="45.92432" lon="4.73559">
        <ele>174</ele>
        <time>2018-06-16T08:32:48Z</time>
      </trkpt>
      <trkpt lat="45.92427" lon="4.73561">
        <ele>174</ele>
        <time>2018-06-16T08:32:49Z</time>
      </trkpt>
      <trkpt lat="45.92423" lon="4.73563">
        <ele>174</ele>
        <time>2018-06-16T08:32:50Z</time>
      </trkpt>
      <trkpt lat="45.92418" lon="4.73565">
        <ele>174</ele>
        <time>2018-06-16T08:32:51Z</time>
      </trkpt>
      <trkpt lat="45.92413" lon="4.73567">
        <ele>173</ele>
        <time>2018-06-16T08:32:52Z</time>
      </trkpt>
      <trkpt lat="45.92404" lon="4.73571">
        <ele>173</ele>
        <time>2018-06-16T08:32:54Z</time>
      </trkpt>
      <trkpt lat="45.924" lon="4.73573">
        <ele>173</ele>
        <time>2018-06-16T08:32:55Z</time>
      </trkpt>
      <trkpt lat="45.92393" lon="4.73575">
        <ele>173</ele>
        <time>2018-06-16T08:32:56Z</time>
      </trkpt>
      <trkpt lat="45.92388" lon="4.73579">
        <ele>173</ele>
        <time>2018-06-16T08:32:57Z</time>
      </trkpt>
      <trkpt lat="45.92383" lon="4.73582">
        <ele>173</ele>
        <time>2018-06-16T08:32:58Z</time>
      </trkpt>
      <trkpt lat="45.92378" lon="4.73585">
        <ele>173</ele>
        <time>2018-06-16T08:32:59Z</time>
      </trkpt>
      <trkpt lat="45.92373" lon="4.73587">
        <ele>173</ele>
        <time>2018-06-16T08:33:00Z</time>
      </trkpt>
      <trkpt lat="45.92368" lon="4.7359">
        <ele>173</ele>
        <time>2018-06-16T08:33:01Z</time>
      </trkpt>
      <trkpt lat="45.92363" lon="4.73593">
        <ele>173</ele>
        <time>2018-06-16T08:33:02Z</time>
      </trkpt>
      <trkpt lat="45.92358" lon="4.73595">
        <ele>173</ele>
        <time>2018-06-16T08:33:03Z</time>
      </trkpt>
      <trkpt lat="45.92353" lon="4.73599">
        <ele>173</ele>
        <time>2018-06-16T08:33:04Z</time>
      </trkpt>
      <trkpt lat="45.92347" lon="4.73602">
        <ele>173</ele>
        <time>2018-06-16T08:33:05Z</time>
      </trkpt>
      <trkpt lat="45.92342" lon="4.73605">
        <ele>173</ele>
        <time>2018-06-16T08:33:06Z</time>
      </trkpt>
      <trkpt lat="45.92337" lon="4.73608">
        <ele>173</ele>
        <time>2018-06-16T08:33:07Z</time>
      </trkpt>
      <trkpt lat="45.92332" lon="4.73612">
        <ele>172</ele>
        <time>2018-06-16T08:33:08Z</time>
      </trkpt>
      <trkpt lat="45.92327" lon="4.73615">
        <ele>172</ele>
        <time>2018-06-16T08:33:09Z</time>
      </trkpt>
      <trkpt lat="45.92322" lon="4.73617">
        <ele>172</ele>
        <time>2018-06-16T08:33:10Z</time>
      </trkpt>
      <trkpt lat="45.92318" lon="4.7362">
        <ele>172</ele>
        <time>2018-06-16T08:33:11Z</time>
      </trkpt>
      <trkpt lat="45.92313" lon="4.73623">
        <ele>172</ele>
        <time>2018-06-16T08:33:12Z</time>
      </trkpt>
      <trkpt lat="45.92309" lon="4.73627">
        <ele>172</ele>
        <time>2018-06-16T08:33:13Z</time>
      </trkpt>
      <trkpt lat="45.923" lon="4.73632">
        <ele>172</ele>
        <time>2018-06-16T08:33:15Z</time>
      </trkpt>
      <trkpt lat="45.92296" lon="4.73634">
        <ele>172</ele>
        <time>2018-06-16T08:33:16Z</time>
      </trkpt>
      <trkpt lat="45.92291" lon="4.73636">
        <ele>172</ele>
        <time>2018-06-16T08:33:17Z</time>
      </trkpt>
      <trkpt lat="45.92286" lon="4.73639">
        <ele>172</ele>
        <time>2018-06-16T08:33:18Z</time>
      </trkpt>
      <trkpt lat="45.92277" lon="4.73644">
        <ele>172</ele>
        <time>2018-06-16T08:33:20Z</time>
      </trkpt>
      <trkpt lat="45.92272" lon="4.73647">
        <ele>172</ele>
        <time>2018-06-16T08:33:21Z</time>
      </trkpt>
      <trkpt lat="45.92267" lon="4.7365">
        <ele>171</ele>
        <time>2018-06-16T08:33:22Z</time>
      </trkpt>
      <trkpt lat="45.92263" lon="4.73652">
        <ele>171</ele>
        <time>2018-06-16T08:33:23Z</time>
      </trkpt>
      <trkpt lat="45.92258" lon="4.73655">
        <ele>171</ele>
        <time>2018-06-16T08:33:24Z</time>
      </trkpt>
      <trkpt lat="45.92253" lon="4.73658">
        <ele>171</ele>
        <time>2018-06-16T08:33:25Z</time>
      </trkpt>
      <trkpt lat="45.92248" lon="4.73661">
        <ele>171</ele>
        <time>2018-06-16T08:33:26Z</time>
      </trkpt>
      <trkpt lat="45.92242" lon="4.73663">
        <ele>171</ele>
        <time>2018-06-16T08:33:27Z</time>
      </trkpt>
      <trkpt lat="45.92236" lon="4.73666">
        <ele>171</ele>
        <time>2018-06-16T08:33:28Z</time>
      </trkpt>
      <trkpt lat="45.92231" lon="4.73669">
        <ele>171</ele>
        <time>2018-06-16T08:33:29Z</time>
      </trkpt>
      <trkpt lat="45.92225" lon="4.73671">
        <ele>171</ele>
        <time>2018-06-16T08:33:30Z</time>
      </trkpt>
      <trkpt lat="45.92219" lon="4.73673">
        <ele>171</ele>
        <time>2018-06-16T08:33:31Z</time>
      </trkpt>
      <trkpt lat="45.92214" lon="4.73676">
        <ele>171</ele>
        <time>2018-06-16T08:33:32Z</time>
      </trkpt>
      <trkpt lat="45.92209" lon="4.73679">
        <ele>171</ele>
        <time>2018-06-16T08:33:33Z</time>
      </trkpt>
      <trkpt lat="45.92204" lon="4.73682">
        <ele>171</ele>
        <time>2018-06-16T08:33:34Z</time>
      </trkpt>
      <trkpt lat="45.92199" lon="4.73687">
        <ele>171</ele>
        <time>2018-06-16T08:33:35Z</time>
      </trkpt>
      <trkpt lat="45.92195" lon="4.73689">
        <ele>171</ele>
        <time>2018-06-16T08:33:36Z</time>
      </trkpt>
      <trkpt lat="45.9219" lon="4.73691">
        <ele>171</ele>
        <time>2018-06-16T08:33:37Z</time>
      </trkpt>
      <trkpt lat="45.92185" lon="4.73694">
        <ele>171</ele>
        <time>2018-06-16T08:33:38Z</time>
      </trkpt>
      <trkpt lat="45.9218" lon="4.73696">
        <ele>171</ele>
        <time>2018-06-16T08:33:39Z</time>
      </trkpt>
      <trkpt lat="45.92175" lon="4.73699">
        <ele>171</ele>
        <time>2018-06-16T08:33:40Z</time>
      </trkpt>
      <trkpt lat="45.9217" lon="4.737">
        <ele>171</ele>
        <time>2018-06-16T08:33:41Z</time>
      </trkpt>
      <trkpt lat="45.92166" lon="4.73703">
        <ele>171</ele>
        <time>2018-06-16T08:33:42Z</time>
      </trkpt>
      <trkpt lat="45.9216" lon="4.73704">
        <ele>171</ele>
        <time>2018-06-16T08:33:43Z</time>
      </trkpt>
      <trkpt lat="45.92154" lon="4.73708">
        <ele>171</ele>
        <time>2018-06-16T08:33:44Z</time>
      </trkpt>
      <trkpt lat="45.92149" lon="4.7371">
        <ele>171</ele>
        <time>2018-06-16T08:33:45Z</time>
      </trkpt>
      <trkpt lat="45.92144" lon="4.73712">
        <ele>171</ele>
        <time>2018-06-16T08:33:46Z</time>
      </trkpt>
      <trkpt lat="45.92139" lon="4.73714">
        <ele>171</ele>
        <time>2018-06-16T08:33:47Z</time>
      </trkpt>
      <trkpt lat="45.92133" lon="4.73716">
        <ele>171</ele>
        <time>2018-06-16T08:33:48Z</time>
      </trkpt>
      <trkpt lat="45.92128" lon="4.73718">
        <ele>171</ele>
        <time>2018-06-16T08:33:49Z</time>
      </trkpt>
      <trkpt lat="45.92123" lon="4.73719">
        <ele>171</ele>
        <time>2018-06-16T08:33:50Z</time>
      </trkpt>
      <trkpt lat="45.92117" lon="4.73722">
        <ele>171</ele>
        <time>2018-06-16T08:33:51Z</time>
      </trkpt>
      <trkpt lat="45.92111" lon="4.73723">
        <ele>171</ele>
        <time>2018-06-16T08:33:52Z</time>
      </trkpt>
      <trkpt lat="45.92106" lon="4.73724">
        <ele>171</ele>
        <time>2018-06-16T08:33:53Z</time>
      </trkpt>
      <trkpt lat="45.921" lon="4.73725">
        <ele>171</ele>
        <time>2018-06-16T08:33:54Z</time>
      </trkpt>
      <trkpt lat="45.92092" lon="4.73728">
        <ele>171</ele>
        <time>2018-06-16T08:33:55Z</time>
      </trkpt>
      <trkpt lat="45.92086" lon="4.7373">
        <ele>171</ele>
        <time>2018-06-16T08:33:56Z</time>
      </trkpt>
      <trkpt lat="45.9208" lon="4.73732">
        <ele>171</ele>
        <time>2018-06-16T08:33:57Z</time>
      </trkpt>
      <trkpt lat="45.92075" lon="4.73731">
        <ele>171</ele>
        <time>2018-06-16T08:33:58Z</time>
      </trkpt>
      <trkpt lat="45.9207" lon="4.73733">
        <ele>171</ele>
        <time>2018-06-16T08:33:59Z</time>
      </trkpt>
      <trkpt lat="45.92064" lon="4.73733">
        <ele>171</ele>
        <time>2018-06-16T08:34:00Z</time>
      </trkpt>
      <trkpt lat="45.92059" lon="4.73732">
        <ele>171</ele>
        <time>2018-06-16T08:34:01Z</time>
      </trkpt>
      <trkpt lat="45.92055" lon="4.73732">
        <ele>171</ele>
        <time>2018-06-16T08:34:02Z</time>
      </trkpt>
      <trkpt lat="45.92049" lon="4.73732">
        <ele>171</ele>
        <time>2018-06-16T08:34:03Z</time>
      </trkpt>
      <trkpt lat="45.92045" lon="4.73732">
        <ele>171</ele>
        <time>2018-06-16T08:34:04Z</time>
      </trkpt>
      <trkpt lat="45.92039" lon="4.73732">
        <ele>171</ele>
        <time>2018-06-16T08:34:05Z</time>
      </trkpt>
      <trkpt lat="45.92033" lon="4.73731">
        <ele>171</ele>
        <time>2018-06-16T08:34:06Z</time>
      </trkpt>
      <trkpt lat="45.92027" lon="4.73732">
        <ele>171</ele>
        <time>2018-06-16T08:34:07Z</time>
      </trkpt>
      <trkpt lat="45.92019" lon="4.7373">
        <ele>171</ele>
        <time>2018-06-16T08:34:08Z</time>
      </trkpt>
      <trkpt lat="45.92013" lon="4.7373">
        <ele>171</ele>
        <time>2018-06-16T08:34:09Z</time>
      </trkpt>
      <trkpt lat="45.92008" lon="4.7373">
        <ele>171</ele>
        <time>2018-06-16T08:34:10Z</time>
      </trkpt>
      <trkpt lat="45.92003" lon="4.7373">
        <ele>171</ele>
        <time>2018-06-16T08:34:11Z</time>
      </trkpt>
      <trkpt lat="45.91997" lon="4.73731">
        <ele>171</ele>
        <time>2018-06-16T08:34:12Z</time>
      </trkpt>
      <trkpt lat="45.91993" lon="4.73733">
        <ele>171</ele>
        <time>2018-06-16T08:34:13Z</time>
      </trkpt>
      <trkpt lat="45.91987" lon="4.73736">
        <ele>171</ele>
        <time>2018-06-16T08:34:14Z</time>
      </trkpt>
      <trkpt lat="45.91982" lon="4.73735">
        <ele>171</ele>
        <time>2018-06-16T08:34:15Z</time>
      </trkpt>
      <trkpt lat="45.91977" lon="4.73734">
        <ele>171</ele>
        <time>2018-06-16T08:34:16Z</time>
      </trkpt>
      <trkpt lat="45.91972" lon="4.73735">
        <ele>171</ele>
        <time>2018-06-16T08:34:17Z</time>
      </trkpt>
      <trkpt lat="45.91966" lon="4.73736">
        <ele>171</ele>
        <time>2018-06-16T08:34:18Z</time>
      </trkpt>
      <trkpt lat="45.91961" lon="4.73737">
        <ele>171</ele>
        <time>2018-06-16T08:34:19Z</time>
      </trkpt>
      <trkpt lat="45.91956" lon="4.73736">
        <ele>170</ele>
        <time>2018-06-16T08:34:20Z</time>
      </trkpt>
      <trkpt lat="45.9195" lon="4.73736">
        <ele>170</ele>
        <time>2018-06-16T08:34:21Z</time>
      </trkpt>
      <trkpt lat="45.91945" lon="4.73736">
        <ele>170</ele>
        <time>2018-06-16T08:34:22Z</time>
      </trkpt>
      <trkpt lat="45.91939" lon="4.73735">
        <ele>170</ele>
        <time>2018-06-16T08:34:23Z</time>
      </trkpt>
      <trkpt lat="45.91934" lon="4.73735">
        <ele>170</ele>
        <time>2018-06-16T08:34:24Z</time>
      </trkpt>
      <trkpt lat="45.91927" lon="4.73736">
        <ele>170</ele>
        <time>2018-06-16T08:34:25Z</time>
      </trkpt>
      <trkpt lat="45.91921" lon="4.73736">
        <ele>170</ele>
        <time>2018-06-16T08:34:26Z</time>
      </trkpt>
      <trkpt lat="45.91916" lon="4.73736">
        <ele>171</ele>
        <time>2018-06-16T08:34:27Z</time>
      </trkpt>
      <trkpt lat="45.9191" lon="4.73737">
        <ele>171</ele>
        <time>2018-06-16T08:34:28Z</time>
      </trkpt>
      <trkpt lat="45.91905" lon="4.73737">
        <ele>171</ele>
        <time>2018-06-16T08:34:29Z</time>
      </trkpt>
      <trkpt lat="45.91899" lon="4.73739">
        <ele>171</ele>
        <time>2018-06-16T08:34:30Z</time>
      </trkpt>
      <trkpt lat="45.91894" lon="4.73739">
        <ele>171</ele>
        <time>2018-06-16T08:34:31Z</time>
      </trkpt>
      <trkpt lat="45.91889" lon="4.7374">
        <ele>171</ele>
        <time>2018-06-16T08:34:32Z</time>
      </trkpt>
      <trkpt lat="45.91883" lon="4.73739">
        <ele>171</ele>
        <time>2018-06-16T08:34:33Z</time>
      </trkpt>
      <trkpt lat="45.91878" lon="4.73739">
        <ele>171</ele>
        <time>2018-06-16T08:34:34Z</time>
      </trkpt>
      <trkpt lat="45.91873" lon="4.73739">
        <ele>171</ele>
        <time>2018-06-16T08:34:35Z</time>
      </trkpt>
      <trkpt lat="45.91867" lon="4.7374">
        <ele>171</ele>
        <time>2018-06-16T08:34:36Z</time>
      </trkpt>
      <trkpt lat="45.91861" lon="4.73739">
        <ele>171</ele>
        <time>2018-06-16T08:34:37Z</time>
      </trkpt>
      <trkpt lat="45.91856" lon="4.73739">
        <ele>171</ele>
        <time>2018-06-16T08:34:38Z</time>
      </trkpt>
      <trkpt lat="45.91848" lon="4.73739">
        <ele>172</ele>
        <time>2018-06-16T08:34:39Z</time>
      </trkpt>
      <trkpt lat="45.91843" lon="4.73739">
        <ele>172</ele>
        <time>2018-06-16T08:34:40Z</time>
      </trkpt>
      <trkpt lat="45.91837" lon="4.73739">
        <ele>172</ele>
        <time>2018-06-16T08:34:41Z</time>
      </trkpt>
      <trkpt lat="45.91832" lon="4.73735">
        <ele>172</ele>
        <time>2018-06-16T08:34:42Z</time>
      </trkpt>
      <trkpt lat="45.91827" lon="4.73734">
        <ele>172</ele>
        <time>2018-06-16T08:34:43Z</time>
      </trkpt>
      <trkpt lat="45.91821" lon="4.73733">
        <ele>172</ele>
        <time>2018-06-16T08:34:44Z</time>
      </trkpt>
      <trkpt lat="45.91816" lon="4.73732">
        <ele>172</ele>
        <time>2018-06-16T08:34:45Z</time>
      </trkpt>
      <trkpt lat="45.9181" lon="4.7373">
        <ele>172</ele>
        <time>2018-06-16T08:34:46Z</time>
      </trkpt>
      <trkpt lat="45.91805" lon="4.7373">
        <ele>172</ele>
        <time>2018-06-16T08:34:47Z</time>
      </trkpt>
      <trkpt lat="45.918" lon="4.73732">
        <ele>172</ele>
        <time>2018-06-16T08:34:48Z</time>
      </trkpt>
      <trkpt lat="45.91794" lon="4.73731">
        <ele>172</ele>
        <time>2018-06-16T08:34:49Z</time>
      </trkpt>
      <trkpt lat="45.91788" lon="4.73732">
        <ele>173</ele>
        <time>2018-06-16T08:34:50Z</time>
      </trkpt>
      <trkpt lat="45.91782" lon="4.73733">
        <ele>173</ele>
        <time>2018-06-16T08:34:51Z</time>
      </trkpt>
      <trkpt lat="45.91778" lon="4.73734">
        <ele>173</ele>
        <time>2018-06-16T08:34:52Z</time>
      </trkpt>
      <trkpt lat="45.91772" lon="4.73735">
        <ele>173</ele>
        <time>2018-06-16T08:34:53Z</time>
      </trkpt>
      <trkpt lat="45.91766" lon="4.73735">
        <ele>173</ele>
        <time>2018-06-16T08:34:54Z</time>
      </trkpt>
      <trkpt lat="45.9176" lon="4.73735">
        <ele>173</ele>
        <time>2018-06-16T08:34:55Z</time>
      </trkpt>
      <trkpt lat="45.91752" lon="4.73739">
        <ele>173</ele>
        <time>2018-06-16T08:34:57Z</time>
      </trkpt>
      <trkpt lat="45.91746" lon="4.73741">
        <ele>173</ele>
        <time>2018-06-16T08:34:58Z</time>
      </trkpt>
      <trkpt lat="45.91741" lon="4.73741">
        <ele>173</ele>
        <time>2018-06-16T08:34:59Z</time>
      </trkpt>
      <trkpt lat="45.91735" lon="4.73741">
        <ele>173</ele>
        <time>2018-06-16T08:35:00Z</time>
      </trkpt>
      <trkpt lat="45.91728" lon="4.73741">
        <ele>173</ele>
        <time>2018-06-16T08:35:01Z</time>
      </trkpt>
      <trkpt lat="45.91722" lon="4.7374">
        <ele>173</ele>
        <time>2018-06-16T08:35:02Z</time>
      </trkpt>
      <trkpt lat="45.91716" lon="4.73741">
        <ele>173</ele>
        <time>2018-06-16T08:35:03Z</time>
      </trkpt>
      <trkpt lat="45.9171" lon="4.73744">
        <ele>173</ele>
        <time>2018-06-16T08:35:04Z</time>
      </trkpt>
      <trkpt lat="45.91701" lon="4.73748">
        <ele>172</ele>
        <time>2018-06-16T08:35:05Z</time>
      </trkpt>
      <trkpt lat="45.91696" lon="4.73748">
        <ele>172</ele>
        <time>2018-06-16T08:35:06Z</time>
      </trkpt>
      <trkpt lat="45.91692" lon="4.73751">
        <ele>172</ele>
        <time>2018-06-16T08:35:07Z</time>
      </trkpt>
      <trkpt lat="45.91688" lon="4.7375">
        <ele>172</ele>
        <time>2018-06-16T08:35:08Z</time>
      </trkpt>
      <trkpt lat="45.91683" lon="4.73749">
        <ele>172</ele>
        <time>2018-06-16T08:35:09Z</time>
      </trkpt>
      <trkpt lat="45.91674" lon="4.7375">
        <ele>172</ele>
        <time>2018-06-16T08:35:11Z</time>
      </trkpt>
      <trkpt lat="45.91669" lon="4.73749">
        <ele>172</ele>
        <time>2018-06-16T08:35:12Z</time>
      </trkpt>
      <trkpt lat="45.91664" lon="4.73748">
        <ele>172</ele>
        <time>2018-06-16T08:35:13Z</time>
      </trkpt>
      <trkpt lat="45.91658" lon="4.73748">
        <ele>172</ele>
        <time>2018-06-16T08:35:14Z</time>
      </trkpt>
      <trkpt lat="45.91653" lon="4.73748">
        <ele>172</ele>
        <time>2018-06-16T08:35:15Z</time>
      </trkpt>
      <trkpt lat="45.91646" lon="4.73747">
        <ele>172</ele>
        <time>2018-06-16T08:35:16Z</time>
      </trkpt>
      <trkpt lat="45.9164" lon="4.73747">
        <ele>172</ele>
        <time>2018-06-16T08:35:17Z</time>
      </trkpt>
      <trkpt lat="45.91634" lon="4.73746">
        <ele>172</ele>
        <time>2018-06-16T08:35:18Z</time>
      </trkpt>
      <trkpt lat="45.91629" lon="4.73746">
        <ele>172</ele>
        <time>2018-06-16T08:35:19Z</time>
      </trkpt>
      <trkpt lat="45.91623" lon="4.73746">
        <ele>173</ele>
        <time>2018-06-16T08:35:20Z</time>
      </trkpt>
      <trkpt lat="45.91616" lon="4.73745">
        <ele>173</ele>
        <time>2018-06-16T08:35:21Z</time>
      </trkpt>
      <trkpt lat="45.91612" lon="4.73744">
        <ele>173</ele>
        <time>2018-06-16T08:35:22Z</time>
      </trkpt>
      <trkpt lat="45.91606" lon="4.73745">
        <ele>173</ele>
        <time>2018-06-16T08:35:23Z</time>
      </trkpt>
      <trkpt lat="45.916" lon="4.73746">
        <ele>173</ele>
        <time>2018-06-16T08:35:24Z</time>
      </trkpt>
      <trkpt lat="45.91594" lon="4.73746">
        <ele>173</ele>
        <time>2018-06-16T08:35:25Z</time>
      </trkpt>
      <trkpt lat="45.91586" lon="4.73746">
        <ele>173</ele>
        <time>2018-06-16T08:35:26Z</time>
      </trkpt>
      <trkpt lat="45.9158" lon="4.73745">
        <ele>173</ele>
        <time>2018-06-16T08:35:27Z</time>
      </trkpt>
      <trkpt lat="45.91575" lon="4.73746">
        <ele>173</ele>
        <time>2018-06-16T08:35:28Z</time>
      </trkpt>
      <trkpt lat="45.91568" lon="4.73747">
        <ele>173</ele>
        <time>2018-06-16T08:35:29Z</time>
      </trkpt>
      <trkpt lat="45.91562" lon="4.73748">
        <ele>173</ele>
        <time>2018-06-16T08:35:30Z</time>
      </trkpt>
      <trkpt lat="45.91556" lon="4.73747">
        <ele>174</ele>
        <time>2018-06-16T08:35:31Z</time>
      </trkpt>
      <trkpt lat="45.91551" lon="4.73746">
        <ele>174</ele>
        <time>2018-06-16T08:35:32Z</time>
      </trkpt>
      <trkpt lat="45.91546" lon="4.73745">
        <ele>174</ele>
        <time>2018-06-16T08:35:33Z</time>
      </trkpt>
      <trkpt lat="45.9154" lon="4.73744">
        <ele>174</ele>
        <time>2018-06-16T08:35:34Z</time>
      </trkpt>
      <trkpt lat="45.91535" lon="4.73743">
        <ele>174</ele>
        <time>2018-06-16T08:35:35Z</time>
      </trkpt>
      <trkpt lat="45.91529" lon="4.73743">
        <ele>174</ele>
        <time>2018-06-16T08:35:36Z</time>
      </trkpt>
      <trkpt lat="45.91523" lon="4.73743">
        <ele>174</ele>
        <time>2018-06-16T08:35:37Z</time>
      </trkpt>
      <trkpt lat="45.91518" lon="4.73743">
        <ele>174</ele>
        <time>2018-06-16T08:35:38Z</time>
      </trkpt>
      <trkpt lat="45.91511" lon="4.73746">
        <ele>174</ele>
        <time>2018-06-16T08:35:39Z</time>
      </trkpt>
      <trkpt lat="45.91504" lon="4.73745">
        <ele>174</ele>
        <time>2018-06-16T08:35:40Z</time>
      </trkpt>
      <trkpt lat="45.91498" lon="4.73745">
        <ele>174</ele>
        <time>2018-06-16T08:35:41Z</time>
      </trkpt>
      <trkpt lat="45.91493" lon="4.73745">
        <ele>174</ele>
        <time>2018-06-16T08:35:42Z</time>
      </trkpt>
      <trkpt lat="45.91487" lon="4.73743">
        <ele>174</ele>
        <time>2018-06-16T08:35:43Z</time>
      </trkpt>
      <trkpt lat="45.91481" lon="4.73743">
        <ele>174</ele>
        <time>2018-06-16T08:35:44Z</time>
      </trkpt>
      <trkpt lat="45.91473" lon="4.73743">
        <ele>174</ele>
        <time>2018-06-16T08:35:45Z</time>
      </trkpt>
      <trkpt lat="45.91469" lon="4.73743">
        <ele>174</ele>
        <time>2018-06-16T08:35:46Z</time>
      </trkpt>
      <trkpt lat="45.91463" lon="4.73744">
        <ele>174</ele>
        <time>2018-06-16T08:35:47Z</time>
      </trkpt>
      <trkpt lat="45.91458" lon="4.73745">
        <ele>173</ele>
        <time>2018-06-16T08:35:48Z</time>
      </trkpt>
      <trkpt lat="45.91453" lon="4.73745">
        <ele>173</ele>
        <time>2018-06-16T08:35:49Z</time>
      </trkpt>
      <trkpt lat="45.91446" lon="4.73744">
        <ele>173</ele>
        <time>2018-06-16T08:35:50Z</time>
      </trkpt>
      <trkpt lat="45.91441" lon="4.73744">
        <ele>173</ele>
        <time>2018-06-16T08:35:51Z</time>
      </trkpt>
      <trkpt lat="45.91435" lon="4.73744">
        <ele>173</ele>
        <time>2018-06-16T08:35:52Z</time>
      </trkpt>
      <trkpt lat="45.91429" lon="4.73743">
        <ele>173</ele>
        <time>2018-06-16T08:35:53Z</time>
      </trkpt>
      <trkpt lat="45.91423" lon="4.73744">
        <ele>173</ele>
        <time>2018-06-16T08:35:54Z</time>
      </trkpt>
      <trkpt lat="45.91417" lon="4.73743">
        <ele>172</ele>
        <time>2018-06-16T08:35:55Z</time>
      </trkpt>
      <trkpt lat="45.91411" lon="4.73743">
        <ele>172</ele>
        <time>2018-06-16T08:35:56Z</time>
      </trkpt>
      <trkpt lat="45.91406" lon="4.73745">
        <ele>172</ele>
        <time>2018-06-16T08:35:57Z</time>
      </trkpt>
      <trkpt lat="45.914" lon="4.73745">
        <ele>173</ele>
        <time>2018-06-16T08:35:58Z</time>
      </trkpt>
      <trkpt lat="45.91394" lon="4.73745">
        <ele>173</ele>
        <time>2018-06-16T08:35:59Z</time>
      </trkpt>
      <trkpt lat="45.91389" lon="4.73745">
        <ele>173</ele>
        <time>2018-06-16T08:36:00Z</time>
      </trkpt>
      <trkpt lat="45.91382" lon="4.73743">
        <ele>173</ele>
        <time>2018-06-16T08:36:01Z</time>
      </trkpt>
      <trkpt lat="45.91378" lon="4.73744">
        <ele>173</ele>
        <time>2018-06-16T08:36:02Z</time>
      </trkpt>
      <trkpt lat="45.91373" lon="4.73743">
        <ele>173</ele>
        <time>2018-06-16T08:36:03Z</time>
      </trkpt>
      <trkpt lat="45.91368" lon="4.73742">
        <ele>173</ele>
        <time>2018-06-16T08:36:04Z</time>
      </trkpt>
      <trkpt lat="45.91363" lon="4.73742">
        <ele>173</ele>
        <time>2018-06-16T08:36:05Z</time>
      </trkpt>
      <trkpt lat="45.91357" lon="4.73742">
        <ele>173</ele>
        <time>2018-06-16T08:36:06Z</time>
      </trkpt>
      <trkpt lat="45.91352" lon="4.73741">
        <ele>173</ele>
        <time>2018-06-16T08:36:07Z</time>
      </trkpt>
      <trkpt lat="45.91347" lon="4.73742">
        <ele>173</ele>
        <time>2018-06-16T08:36:08Z</time>
      </trkpt>
      <trkpt lat="45.91342" lon="4.73741">
        <ele>173</ele>
        <time>2018-06-16T08:36:09Z</time>
      </trkpt>
      <trkpt lat="45.91336" lon="4.73741">
        <ele>173</ele>
        <time>2018-06-16T08:36:10Z</time>
      </trkpt>
      <trkpt lat="45.91331" lon="4.73742">
        <ele>173</ele>
        <time>2018-06-16T08:36:11Z</time>
      </trkpt>
      <trkpt lat="45.91325" lon="4.73742">
        <ele>173</ele>
        <time>2018-06-16T08:36:12Z</time>
      </trkpt>
      <trkpt lat="45.91319" lon="4.73741">
        <ele>174</ele>
        <time>2018-06-16T08:36:13Z</time>
      </trkpt>
      <trkpt lat="45.91313" lon="4.73741">
        <ele>174</ele>
        <time>2018-06-16T08:36:14Z</time>
      </trkpt>
      <trkpt lat="45.91308" lon="4.73741">
        <ele>174</ele>
        <time>2018-06-16T08:36:15Z</time>
      </trkpt>
      <trkpt lat="45.91302" lon="4.7374">
        <ele>174</ele>
        <time>2018-06-16T08:36:16Z</time>
      </trkpt>
      <trkpt lat="45.91297" lon="4.7374">
        <ele>174</ele>
        <time>2018-06-16T08:36:17Z</time>
      </trkpt>
      <trkpt lat="45.91291" lon="4.7374">
        <ele>174</ele>
        <time>2018-06-16T08:36:18Z</time>
      </trkpt>
      <trkpt lat="45.91284" lon="4.73739">
        <ele>174</ele>
        <time>2018-06-16T08:36:19Z</time>
      </trkpt>
      <trkpt lat="45.91279" lon="4.73739">
        <ele>174</ele>
        <time>2018-06-16T08:36:20Z</time>
      </trkpt>
      <trkpt lat="45.91274" lon="4.73739">
        <ele>174</ele>
        <time>2018-06-16T08:36:21Z</time>
      </trkpt>
      <trkpt lat="45.91269" lon="4.73739">
        <ele>174</ele>
        <time>2018-06-16T08:36:22Z</time>
      </trkpt>
      <trkpt lat="45.91262" lon="4.73738">
        <ele>174</ele>
        <time>2018-06-16T08:36:23Z</time>
      </trkpt>
      <trkpt lat="45.91256" lon="4.73738">
        <ele>175</ele>
        <time>2018-06-16T08:36:24Z</time>
      </trkpt>
      <trkpt lat="45.91251" lon="4.73743">
        <ele>175</ele>
        <time>2018-06-16T08:36:25Z</time>
      </trkpt>
      <trkpt lat="45.91245" lon="4.73745">
        <ele>175</ele>
        <time>2018-06-16T08:36:26Z</time>
      </trkpt>
      <trkpt lat="45.91239" lon="4.73745">
        <ele>175</ele>
        <time>2018-06-16T08:36:27Z</time>
      </trkpt>
      <trkpt lat="45.91234" lon="4.73745">
        <ele>175</ele>
        <time>2018-06-16T08:36:28Z</time>
      </trkpt>
      <trkpt lat="45.91228" lon="4.73745">
        <ele>175</ele>
        <time>2018-06-16T08:36:29Z</time>
      </trkpt>
      <trkpt lat="45.91223" lon="4.73746">
        <ele>175</ele>
        <time>2018-06-16T08:36:30Z</time>
      </trkpt>
      <trkpt lat="45.91218" lon="4.73747">
        <ele>175</ele>
        <time>2018-06-16T08:36:31Z</time>
      </trkpt>
      <trkpt lat="45.91212" lon="4.73747">
        <ele>175</ele>
        <time>2018-06-16T08:36:32Z</time>
      </trkpt>
      <trkpt lat="45.91204" lon="4.73748">
        <ele>175</ele>
        <time>2018-06-16T08:36:34Z</time>
      </trkpt>
      <trkpt lat="45.91198" lon="4.7375">
        <ele>175</ele>
        <time>2018-06-16T08:36:35Z</time>
      </trkpt>
      <trkpt lat="45.91193" lon="4.73748">
        <ele>175</ele>
        <time>2018-06-16T08:36:36Z</time>
      </trkpt>
      <trkpt lat="45.91186" lon="4.73747">
        <ele>175</ele>
        <time>2018-06-16T08:36:37Z</time>
      </trkpt>
      <trkpt lat="45.91181" lon="4.73745">
        <ele>175</ele>
        <time>2018-06-16T08:36:38Z</time>
      </trkpt>
      <trkpt lat="45.91175" lon="4.73743">
        <ele>175</ele>
        <time>2018-06-16T08:36:39Z</time>
      </trkpt>
      <trkpt lat="45.9117" lon="4.73742">
        <ele>175</ele>
        <time>2018-06-16T08:36:40Z</time>
      </trkpt>
      <trkpt lat="45.91165" lon="4.73741">
        <ele>175</ele>
        <time>2018-06-16T08:36:41Z</time>
      </trkpt>
      <trkpt lat="45.9116" lon="4.73738">
        <ele>175</ele>
        <time>2018-06-16T08:36:42Z</time>
      </trkpt>
      <trkpt lat="45.91156" lon="4.73734">
        <ele>175</ele>
        <time>2018-06-16T08:36:43Z</time>
      </trkpt>
      <trkpt lat="45.91148" lon="4.73727">
        <ele>175</ele>
        <time>2018-06-16T08:36:45Z</time>
      </trkpt>
      <trkpt lat="45.91144" lon="4.73721">
        <ele>174</ele>
        <time>2018-06-16T08:36:46Z</time>
      </trkpt>
      <trkpt lat="45.91141" lon="4.73714">
        <ele>174</ele>
        <time>2018-06-16T08:36:47Z</time>
      </trkpt>
      <trkpt lat="45.91138" lon="4.73707">
        <ele>174</ele>
        <time>2018-06-16T08:36:48Z</time>
      </trkpt>
      <trkpt lat="45.91134" lon="4.73699">
        <ele>174</ele>
        <time>2018-06-16T08:36:49Z</time>
      </trkpt>
      <trkpt lat="45.91131" lon="4.73692">
        <ele>174</ele>
        <time>2018-06-16T08:36:50Z</time>
      </trkpt>
      <trkpt lat="45.91128" lon="4.73685">
        <ele>174</ele>
        <time>2018-06-16T08:36:51Z</time>
      </trkpt>
      <trkpt lat="45.91125" lon="4.73679">
        <ele>174</ele>
        <time>2018-06-16T08:36:52Z</time>
      </trkpt>
      <trkpt lat="45.91122" lon="4.73672">
        <ele>174</ele>
        <time>2018-06-16T08:36:53Z</time>
      </trkpt>
      <trkpt lat="45.9112" lon="4.73664">
        <ele>174</ele>
        <time>2018-06-16T08:36:54Z</time>
      </trkpt>
      <trkpt lat="45.91117" lon="4.73658">
        <ele>174</ele>
        <time>2018-06-16T08:36:55Z</time>
      </trkpt>
      <trkpt lat="45.91114" lon="4.73651">
        <ele>174</ele>
        <time>2018-06-16T08:36:56Z</time>
      </trkpt>
      <trkpt lat="45.91113" lon="4.73645">
        <ele>174</ele>
        <time>2018-06-16T08:36:57Z</time>
      </trkpt>
      <trkpt lat="45.9111" lon="4.73639">
        <ele>174</ele>
        <time>2018-06-16T08:36:58Z</time>
      </trkpt>
      <trkpt lat="45.91106" lon="4.73632">
        <ele>174</ele>
        <time>2018-06-16T08:36:59Z</time>
      </trkpt>
      <trkpt lat="45.91103" lon="4.73625">
        <ele>174</ele>
        <time>2018-06-16T08:37:00Z</time>
      </trkpt>
      <trkpt lat="45.91101" lon="4.73618">
        <ele>174</ele>
        <time>2018-06-16T08:37:01Z</time>
      </trkpt>
      <trkpt lat="45.91097" lon="4.73612">
        <ele>174</ele>
        <time>2018-06-16T08:37:02Z</time>
      </trkpt>
      <trkpt lat="45.91094" lon="4.73605">
        <ele>174</ele>
        <time>2018-06-16T08:37:03Z</time>
      </trkpt>
      <trkpt lat="45.91091" lon="4.73598">
        <ele>174</ele>
        <time>2018-06-16T08:37:04Z</time>
      </trkpt>
      <trkpt lat="45.91088" lon="4.73591">
        <ele>174</ele>
        <time>2018-06-16T08:37:05Z</time>
      </trkpt>
      <trkpt lat="45.91085" lon="4.73583">
        <ele>174</ele>
        <time>2018-06-16T08:37:06Z</time>
      </trkpt>
      <trkpt lat="45.91082" lon="4.73575">
        <ele>174</ele>
        <time>2018-06-16T08:37:07Z</time>
      </trkpt>
      <trkpt lat="45.91079" lon="4.73567">
        <ele>174</ele>
        <time>2018-06-16T08:37:08Z</time>
      </trkpt>
      <trkpt lat="45.91074" lon="4.73558">
        <ele>174</ele>
        <time>2018-06-16T08:37:09Z</time>
      </trkpt>
      <trkpt lat="45.9107" lon="4.73551">
        <ele>174</ele>
        <time>2018-06-16T08:37:10Z</time>
      </trkpt>
      <trkpt lat="45.91067" lon="4.73544">
        <ele>174</ele>
        <time>2018-06-16T08:37:11Z</time>
      </trkpt>
      <trkpt lat="45.91064" lon="4.73536">
        <ele>175</ele>
        <time>2018-06-16T08:37:12Z</time>
      </trkpt>
      <trkpt lat="45.9106" lon="4.73529">
        <ele>175</ele>
        <time>2018-06-16T08:37:13Z</time>
      </trkpt>
      <trkpt lat="45.91055" lon="4.73523">
        <ele>175</ele>
        <time>2018-06-16T08:37:14Z</time>
      </trkpt>
      <trkpt lat="45.91052" lon="4.73515">
        <ele>175</ele>
        <time>2018-06-16T08:37:15Z</time>
      </trkpt>
      <trkpt lat="45.91049" lon="4.73508">
        <ele>175</ele>
        <time>2018-06-16T08:37:16Z</time>
      </trkpt>
      <trkpt lat="45.91047" lon="4.73501">
        <ele>175</ele>
        <time>2018-06-16T08:37:17Z</time>
      </trkpt>
      <trkpt lat="45.91044" lon="4.73495">
        <ele>175</ele>
        <time>2018-06-16T08:37:18Z</time>
      </trkpt>
      <trkpt lat="45.91041" lon="4.73488">
        <ele>175</ele>
        <time>2018-06-16T08:37:19Z</time>
      </trkpt>
      <trkpt lat="45.91039" lon="4.73481">
        <ele>175</ele>
        <time>2018-06-16T08:37:20Z</time>
      </trkpt>
      <trkpt lat="45.91036" lon="4.7347">
        <ele>175</ele>
        <time>2018-06-16T08:37:22Z</time>
      </trkpt>
      <trkpt lat="45.91034" lon="4.73462">
        <ele>175</ele>
        <time>2018-06-16T08:37:23Z</time>
      </trkpt>
      <trkpt lat="45.91034" lon="4.73454">
        <ele>175</ele>
        <time>2018-06-16T08:37:24Z</time>
      </trkpt>
      <trkpt lat="45.91033" lon="4.73448">
        <ele>175</ele>
        <time>2018-06-16T08:37:25Z</time>
      </trkpt>
      <trkpt lat="45.91033" lon="4.73441">
        <ele>175</ele>
        <time>2018-06-16T08:37:26Z</time>
      </trkpt>
      <trkpt lat="45.91033" lon="4.73434">
        <ele>175</ele>
        <time>2018-06-16T08:37:27Z</time>
      </trkpt>
      <trkpt lat="45.9103" lon="4.73428">
        <ele>175</ele>
        <time>2018-06-16T08:37:28Z</time>
      </trkpt>
      <trkpt lat="45.91025" lon="4.73422">
        <ele>175</ele>
        <time>2018-06-16T08:37:29Z</time>
      </trkpt>
      <trkpt lat="45.91019" lon="4.73419">
        <ele>175</ele>
        <time>2018-06-16T08:37:30Z</time>
      </trkpt>
      <trkpt lat="45.91014" lon="4.7342">
        <ele>175</ele>
        <time>2018-06-16T08:37:31Z</time>
      </trkpt>
      <trkpt lat="45.91009" lon="4.73423">
        <ele>175</ele>
        <time>2018-06-16T08:37:32Z</time>
      </trkpt>
      <trkpt lat="45.91004" lon="4.73429">
        <ele>175</ele>
        <time>2018-06-16T08:37:33Z</time>
      </trkpt>
      <trkpt lat="45.91001" lon="4.73434">
        <ele>175</ele>
        <time>2018-06-16T08:37:34Z</time>
      </trkpt>
      <trkpt lat="45.90995" lon="4.73439">
        <ele>175</ele>
        <time>2018-06-16T08:37:35Z</time>
      </trkpt>
      <trkpt lat="45.90991" lon="4.73442">
        <ele>175</ele>
        <time>2018-06-16T08:37:36Z</time>
      </trkpt>
      <trkpt lat="45.90985" lon="4.73446">
        <ele>175</ele>
        <time>2018-06-16T08:37:37Z</time>
      </trkpt>
      <trkpt lat="45.90978" lon="4.73449">
        <ele>175</ele>
        <time>2018-06-16T08:37:38Z</time>
      </trkpt>
      <trkpt lat="45.90972" lon="4.73452">
        <ele>175</ele>
        <time>2018-06-16T08:37:39Z</time>
      </trkpt>
      <trkpt lat="45.90967" lon="4.73456">
        <ele>175</ele>
        <time>2018-06-16T08:37:40Z</time>
      </trkpt>
      <trkpt lat="45.90962" lon="4.73457">
        <ele>175</ele>
        <time>2018-06-16T08:37:41Z</time>
      </trkpt>
      <trkpt lat="45.90957" lon="4.7346">
        <ele>175</ele>
        <time>2018-06-16T08:37:42Z</time>
      </trkpt>
      <trkpt lat="45.9095" lon="4.73463">
        <ele>175</ele>
        <time>2018-06-16T08:37:43Z</time>
      </trkpt>
      <trkpt lat="45.90945" lon="4.73465">
        <ele>175</ele>
        <time>2018-06-16T08:37:44Z</time>
      </trkpt>
      <trkpt lat="45.90938" lon="4.73468">
        <ele>175</ele>
        <time>2018-06-16T08:37:45Z</time>
      </trkpt>
      <trkpt lat="45.90933" lon="4.7347">
        <ele>175</ele>
        <time>2018-06-16T08:37:46Z</time>
      </trkpt>
      <trkpt lat="45.90927" lon="4.73472">
        <ele>175</ele>
        <time>2018-06-16T08:37:47Z</time>
      </trkpt>
      <trkpt lat="45.9092" lon="4.73476">
        <ele>175</ele>
        <time>2018-06-16T08:37:48Z</time>
      </trkpt>
      <trkpt lat="45.90914" lon="4.73478">
        <ele>175</ele>
        <time>2018-06-16T08:37:49Z</time>
      </trkpt>
      <trkpt lat="45.90907" lon="4.7348">
        <ele>175</ele>
        <time>2018-06-16T08:37:50Z</time>
      </trkpt>
      <trkpt lat="45.90901" lon="4.73481">
        <ele>175</ele>
        <time>2018-06-16T08:37:51Z</time>
      </trkpt>
      <trkpt lat="45.90895" lon="4.73485">
        <ele>175</ele>
        <time>2018-06-16T08:37:52Z</time>
      </trkpt>
      <trkpt lat="45.90889" lon="4.73487">
        <ele>175</ele>
        <time>2018-06-16T08:37:53Z</time>
      </trkpt>
      <trkpt lat="45.90882" lon="4.73488">
        <ele>175</ele>
        <time>2018-06-16T08:37:54Z</time>
      </trkpt>
      <trkpt lat="45.90876" lon="4.7349">
        <ele>175</ele>
        <time>2018-06-16T08:37:55Z</time>
      </trkpt>
      <trkpt lat="45.90871" lon="4.73496">
        <ele>175</ele>
        <time>2018-06-16T08:37:56Z</time>
      </trkpt>
      <trkpt lat="45.90865" lon="4.73495">
        <ele>175</ele>
        <time>2018-06-16T08:37:57Z</time>
      </trkpt>
      <trkpt lat="45.90861" lon="4.73499">
        <ele>175</ele>
        <time>2018-06-16T08:37:58Z</time>
      </trkpt>
      <trkpt lat="45.90856" lon="4.73503">
        <ele>174</ele>
        <time>2018-06-16T08:37:59Z</time>
      </trkpt>
      <trkpt lat="45.90849" lon="4.73505">
        <ele>174</ele>
        <time>2018-06-16T08:38:00Z</time>
      </trkpt>
      <trkpt lat="45.90844" lon="4.73508">
        <ele>174</ele>
        <time>2018-06-16T08:38:01Z</time>
      </trkpt>
      <trkpt lat="45.9084" lon="4.73512">
        <ele>174</ele>
        <time>2018-06-16T08:38:02Z</time>
      </trkpt>
      <trkpt lat="45.90834" lon="4.73513">
        <ele>174</ele>
        <time>2018-06-16T08:38:03Z</time>
      </trkpt>
      <trkpt lat="45.90829" lon="4.73517">
        <ele>175</ele>
        <time>2018-06-16T08:38:04Z</time>
      </trkpt>
      <trkpt lat="45.90823" lon="4.73522">
        <ele>175</ele>
        <time>2018-06-16T08:38:05Z</time>
      </trkpt>
      <trkpt lat="45.90817" lon="4.73524">
        <ele>175</ele>
        <time>2018-06-16T08:38:06Z</time>
      </trkpt>
      <trkpt lat="45.9081" lon="4.73526">
        <ele>175</ele>
        <time>2018-06-16T08:38:07Z</time>
      </trkpt>
      <trkpt lat="45.90805" lon="4.73528">
        <ele>175</ele>
        <time>2018-06-16T08:38:08Z</time>
      </trkpt>
      <trkpt lat="45.90798" lon="4.7353">
        <ele>175</ele>
        <time>2018-06-16T08:38:09Z</time>
      </trkpt>
      <trkpt lat="45.90792" lon="4.73532">
        <ele>176</ele>
        <time>2018-06-16T08:38:10Z</time>
      </trkpt>
      <trkpt lat="45.90786" lon="4.73533">
        <ele>176</ele>
        <time>2018-06-16T08:38:11Z</time>
      </trkpt>
      <trkpt lat="45.9078" lon="4.73535">
        <ele>176</ele>
        <time>2018-06-16T08:38:12Z</time>
      </trkpt>
      <trkpt lat="45.90775" lon="4.73543">
        <ele>176</ele>
        <time>2018-06-16T08:38:13Z</time>
      </trkpt>
      <trkpt lat="45.90769" lon="4.73545">
        <ele>176</ele>
        <time>2018-06-16T08:38:14Z</time>
      </trkpt>
      <trkpt lat="45.90763" lon="4.73548">
        <ele>176</ele>
        <time>2018-06-16T08:38:15Z</time>
      </trkpt>
      <trkpt lat="45.90757" lon="4.73553">
        <ele>177</ele>
        <time>2018-06-16T08:38:16Z</time>
      </trkpt>
      <trkpt lat="45.90751" lon="4.73555">
        <ele>177</ele>
        <time>2018-06-16T08:38:17Z</time>
      </trkpt>
      <trkpt lat="45.90746" lon="4.73558">
        <ele>178</ele>
        <time>2018-06-16T08:38:18Z</time>
      </trkpt>
      <trkpt lat="45.9074" lon="4.7356">
        <ele>178</ele>
        <time>2018-06-16T08:38:19Z</time>
      </trkpt>
      <trkpt lat="45.90735" lon="4.73562">
        <ele>178</ele>
        <time>2018-06-16T08:38:20Z</time>
      </trkpt>
      <trkpt lat="45.90729" lon="4.73564">
        <ele>178</ele>
        <time>2018-06-16T08:38:21Z</time>
      </trkpt>
      <trkpt lat="45.90722" lon="4.73566">
        <ele>178</ele>
        <time>2018-06-16T08:38:22Z</time>
      </trkpt>
      <trkpt lat="45.90716" lon="4.73568">
        <ele>178</ele>
        <time>2018-06-16T08:38:23Z</time>
      </trkpt>
      <trkpt lat="45.9071" lon="4.73568">
        <ele>178</ele>
        <time>2018-06-16T08:38:24Z</time>
      </trkpt>
      <trkpt lat="45.90704" lon="4.73569">
        <ele>178</ele>
        <time>2018-06-16T08:38:25Z</time>
      </trkpt>
      <trkpt lat="45.90698" lon="4.73571">
        <ele>178</ele>
        <time>2018-06-16T08:38:26Z</time>
      </trkpt>
      <trkpt lat="45.90693" lon="4.73573">
        <ele>178</ele>
        <time>2018-06-16T08:38:27Z</time>
      </trkpt>
      <trkpt lat="45.90689" lon="4.73574">
        <ele>179</ele>
        <time>2018-06-16T08:38:28Z</time>
      </trkpt>
      <trkpt lat="45.90683" lon="4.73579">
        <ele>179</ele>
        <time>2018-06-16T08:38:29Z</time>
      </trkpt>
      <trkpt lat="45.90678" lon="4.73578">
        <ele>179</ele>
        <time>2018-06-16T08:38:30Z</time>
      </trkpt>
      <trkpt lat="45.90672" lon="4.73581">
        <ele>179</ele>
        <time>2018-06-16T08:38:31Z</time>
      </trkpt>
      <trkpt lat="45.90667" lon="4.73583">
        <ele>180</ele>
        <time>2018-06-16T08:38:32Z</time>
      </trkpt>
      <trkpt lat="45.90661" lon="4.73585">
        <ele>180</ele>
        <time>2018-06-16T08:38:33Z</time>
      </trkpt>
      <trkpt lat="45.90655" lon="4.73588">
        <ele>180</ele>
        <time>2018-06-16T08:38:34Z</time>
      </trkpt>
      <trkpt lat="45.9065" lon="4.7359">
        <ele>181</ele>
        <time>2018-06-16T08:38:35Z</time>
      </trkpt>
      <trkpt lat="45.90644" lon="4.73592">
        <ele>181</ele>
        <time>2018-06-16T08:38:36Z</time>
      </trkpt>
      <trkpt lat="45.90639" lon="4.73595">
        <ele>181</ele>
        <time>2018-06-16T08:38:37Z</time>
      </trkpt>
      <trkpt lat="45.90634" lon="4.73597">
        <ele>181</ele>
        <time>2018-06-16T08:38:38Z</time>
      </trkpt>
      <trkpt lat="45.90628" lon="4.73599">
        <ele>181</ele>
        <time>2018-06-16T08:38:39Z</time>
      </trkpt>
      <trkpt lat="45.90623" lon="4.73601">
        <ele>181</ele>
        <time>2018-06-16T08:38:40Z</time>
      </trkpt>
      <trkpt lat="45.90618" lon="4.73603">
        <ele>181</ele>
        <time>2018-06-16T08:38:41Z</time>
      </trkpt>
      <trkpt lat="45.90613" lon="4.73605">
        <ele>180</ele>
        <time>2018-06-16T08:38:42Z</time>
      </trkpt>
      <trkpt lat="45.90608" lon="4.73609">
        <ele>180</ele>
        <time>2018-06-16T08:38:43Z</time>
      </trkpt>
      <trkpt lat="45.90603" lon="4.73611">
        <ele>180</ele>
        <time>2018-06-16T08:38:44Z</time>
      </trkpt>
      <trkpt lat="45.90598" lon="4.73614">
        <ele>180</ele>
        <time>2018-06-16T08:38:45Z</time>
      </trkpt>
      <trkpt lat="45.90593" lon="4.73616">
        <ele>180</ele>
        <time>2018-06-16T08:38:46Z</time>
      </trkpt>
      <trkpt lat="45.90589" lon="4.73617">
        <ele>180</ele>
        <time>2018-06-16T08:38:47Z</time>
      </trkpt>
      <trkpt lat="45.90583" lon="4.73618">
        <ele>179</ele>
        <time>2018-06-16T08:38:48Z</time>
      </trkpt>
      <trkpt lat="45.90579" lon="4.73619">
        <ele>179</ele>
        <time>2018-06-16T08:38:49Z</time>
      </trkpt>
      <trkpt lat="45.90573" lon="4.73621">
        <ele>179</ele>
        <time>2018-06-16T08:38:50Z</time>
      </trkpt>
      <trkpt lat="45.90569" lon="4.73623">
        <ele>179</ele>
        <time>2018-06-16T08:38:51Z</time>
      </trkpt>
      <trkpt lat="45.90564" lon="4.73624">
        <ele>179</ele>
        <time>2018-06-16T08:38:52Z</time>
      </trkpt>
      <trkpt lat="45.90559" lon="4.73626">
        <ele>179</ele>
        <time>2018-06-16T08:38:53Z</time>
      </trkpt>
      <trkpt lat="45.90555" lon="4.7363">
        <ele>179</ele>
        <time>2018-06-16T08:38:54Z</time>
      </trkpt>
      <trkpt lat="45.9055" lon="4.73633">
        <ele>178</ele>
        <time>2018-06-16T08:38:55Z</time>
      </trkpt>
      <trkpt lat="45.90542" lon="4.73638">
        <ele>178</ele>
        <time>2018-06-16T08:38:57Z</time>
      </trkpt>
      <trkpt lat="45.90537" lon="4.73639">
        <ele>178</ele>
        <time>2018-06-16T08:38:58Z</time>
      </trkpt>
      <trkpt lat="45.90532" lon="4.73641">
        <ele>178</ele>
        <time>2018-06-16T08:38:59Z</time>
      </trkpt>
      <trkpt lat="45.90527" lon="4.73642">
        <ele>178</ele>
        <time>2018-06-16T08:39:00Z</time>
      </trkpt>
      <trkpt lat="45.90523" lon="4.73644">
        <ele>178</ele>
        <time>2018-06-16T08:39:01Z</time>
      </trkpt>
      <trkpt lat="45.90518" lon="4.73648">
        <ele>178</ele>
        <time>2018-06-16T08:39:02Z</time>
      </trkpt>
      <trkpt lat="45.90514" lon="4.73649">
        <ele>178</ele>
        <time>2018-06-16T08:39:03Z</time>
      </trkpt>
      <trkpt lat="45.90509" lon="4.73648">
        <ele>178</ele>
        <time>2018-06-16T08:39:04Z</time>
      </trkpt>
      <trkpt lat="45.90504" lon="4.7365">
        <ele>178</ele>
        <time>2018-06-16T08:39:05Z</time>
      </trkpt>
      <trkpt lat="45.90498" lon="4.73651">
        <ele>177</ele>
        <time>2018-06-16T08:39:06Z</time>
      </trkpt>
      <trkpt lat="45.90493" lon="4.73654">
        <ele>177</ele>
        <time>2018-06-16T08:39:07Z</time>
      </trkpt>
      <trkpt lat="45.90488" lon="4.73656">
        <ele>177</ele>
        <time>2018-06-16T08:39:08Z</time>
      </trkpt>
      <trkpt lat="45.90484" lon="4.73659">
        <ele>177</ele>
        <time>2018-06-16T08:39:09Z</time>
      </trkpt>
      <trkpt lat="45.90479" lon="4.73663">
        <ele>177</ele>
        <time>2018-06-16T08:39:10Z</time>
      </trkpt>
      <trkpt lat="45.90473" lon="4.73665">
        <ele>177</ele>
        <time>2018-06-16T08:39:11Z</time>
      </trkpt>
      <trkpt lat="45.90468" lon="4.73665">
        <ele>177</ele>
        <time>2018-06-16T08:39:12Z</time>
      </trkpt>
      <trkpt lat="45.90462" lon="4.7367">
        <ele>176</ele>
        <time>2018-06-16T08:39:13Z</time>
      </trkpt>
      <trkpt lat="45.90457" lon="4.73672">
        <ele>176</ele>
        <time>2018-06-16T08:39:14Z</time>
      </trkpt>
      <trkpt lat="45.90451" lon="4.73675">
        <ele>176</ele>
        <time>2018-06-16T08:39:15Z</time>
      </trkpt>
      <trkpt lat="45.90445" lon="4.73678">
        <ele>176</ele>
        <time>2018-06-16T08:39:16Z</time>
      </trkpt>
      <trkpt lat="45.90441" lon="4.73681">
        <ele>176</ele>
        <time>2018-06-16T08:39:17Z</time>
      </trkpt>
      <trkpt lat="45.90436" lon="4.73682">
        <ele>176</ele>
        <time>2018-06-16T08:39:18Z</time>
      </trkpt>
      <trkpt lat="45.90428" lon="4.73687">
        <ele>176</ele>
        <time>2018-06-16T08:39:19Z</time>
      </trkpt>
      <trkpt lat="45.90423" lon="4.73691">
        <ele>176</ele>
        <time>2018-06-16T08:39:20Z</time>
      </trkpt>
      <trkpt lat="45.90416" lon="4.73693">
        <ele>177</ele>
        <time>2018-06-16T08:39:21Z</time>
      </trkpt>
      <trkpt lat="45.9041" lon="4.73696">
        <ele>177</ele>
        <time>2018-06-16T08:39:22Z</time>
      </trkpt>
      <trkpt lat="45.90404" lon="4.737">
        <ele>177</ele>
        <time>2018-06-16T08:39:23Z</time>
      </trkpt>
      <trkpt lat="45.90398" lon="4.73703">
        <ele>177</ele>
        <time>2018-06-16T08:39:24Z</time>
      </trkpt>
      <trkpt lat="45.90391" lon="4.73705">
        <ele>177</ele>
        <time>2018-06-16T08:39:25Z</time>
      </trkpt>
      <trkpt lat="45.90384" lon="4.73707">
        <ele>177</ele>
        <time>2018-06-16T08:39:26Z</time>
      </trkpt>
      <trkpt lat="45.90377" lon="4.73711">
        <ele>177</ele>
        <time>2018-06-16T08:39:27Z</time>
      </trkpt>
      <trkpt lat="45.90369" lon="4.73714">
        <ele>177</ele>
        <time>2018-06-16T08:39:28Z</time>
      </trkpt>
      <trkpt lat="45.90361" lon="4.73716">
        <ele>177</ele>
        <time>2018-06-16T08:39:29Z</time>
      </trkpt>
      <trkpt lat="45.90353" lon="4.73719">
        <ele>177</ele>
        <time>2018-06-16T08:39:30Z</time>
      </trkpt>
      <trkpt lat="45.90346" lon="4.73721">
        <ele>177</ele>
        <time>2018-06-16T08:39:31Z</time>
      </trkpt>
      <trkpt lat="45.90338" lon="4.73723">
        <ele>177</ele>
        <time>2018-06-16T08:39:32Z</time>
      </trkpt>
      <trkpt lat="45.90331" lon="4.73725">
        <ele>177</ele>
        <time>2018-06-16T08:39:33Z</time>
      </trkpt>
      <trkpt lat="45.90323" lon="4.73728">
        <ele>177</ele>
        <time>2018-06-16T08:39:34Z</time>
      </trkpt>
      <trkpt lat="45.90315" lon="4.73731">
        <ele>177</ele>
        <time>2018-06-16T08:39:35Z</time>
      </trkpt>
      <trkpt lat="45.90306" lon="4.73734">
        <ele>177</ele>
        <time>2018-06-16T08:39:36Z</time>
      </trkpt>
      <trkpt lat="45.90299" lon="4.73737">
        <ele>177</ele>
        <time>2018-06-16T08:39:37Z</time>
      </trkpt>
      <trkpt lat="45.90291" lon="4.73741">
        <ele>177</ele>
        <time>2018-06-16T08:39:38Z</time>
      </trkpt>
      <trkpt lat="45.90283" lon="4.73745">
        <ele>177</ele>
        <time>2018-06-16T08:39:39Z</time>
      </trkpt>
      <trkpt lat="45.90276" lon="4.73747">
        <ele>177</ele>
        <time>2018-06-16T08:39:40Z</time>
      </trkpt>
      <trkpt lat="45.90269" lon="4.73751">
        <ele>177</ele>
        <time>2018-06-16T08:39:41Z</time>
      </trkpt>
      <trkpt lat="45.90262" lon="4.73753">
        <ele>178</ele>
        <time>2018-06-16T08:39:42Z</time>
      </trkpt>
      <trkpt lat="45.90256" lon="4.73756">
        <ele>178</ele>
        <time>2018-06-16T08:39:43Z</time>
      </trkpt>
      <trkpt lat="45.90249" lon="4.7376">
        <ele>178</ele>
        <time>2018-06-16T08:39:44Z</time>
      </trkpt>
      <trkpt lat="45.90242" lon="4.73763">
        <ele>178</ele>
        <time>2018-06-16T08:39:45Z</time>
      </trkpt>
      <trkpt lat="45.90236" lon="4.73767">
        <ele>177</ele>
        <time>2018-06-16T08:39:46Z</time>
      </trkpt>
      <trkpt lat="45.9023" lon="4.7377">
        <ele>177</ele>
        <time>2018-06-16T08:39:47Z</time>
      </trkpt>
      <trkpt lat="45.90223" lon="4.73773">
        <ele>177</ele>
        <time>2018-06-16T08:39:48Z</time>
      </trkpt>
      <trkpt lat="45.90217" lon="4.73776">
        <ele>177</ele>
        <time>2018-06-16T08:39:49Z</time>
      </trkpt>
      <trkpt lat="45.9021" lon="4.73779">
        <ele>177</ele>
        <time>2018-06-16T08:39:50Z</time>
      </trkpt>
      <trkpt lat="45.90204" lon="4.73781">
        <ele>177</ele>
        <time>2018-06-16T08:39:51Z</time>
      </trkpt>
      <trkpt lat="45.90197" lon="4.73784">
        <ele>177</ele>
        <time>2018-06-16T08:39:52Z</time>
      </trkpt>
      <trkpt lat="45.90191" lon="4.73786">
        <ele>177</ele>
        <time>2018-06-16T08:39:53Z</time>
      </trkpt>
      <trkpt lat="45.90185" lon="4.73789">
        <ele>177</ele>
        <time>2018-06-16T08:39:54Z</time>
      </trkpt>
      <trkpt lat="45.90178" lon="4.73791">
        <ele>177</ele>
        <time>2018-06-16T08:39:55Z</time>
      </trkpt>
      <trkpt lat="45.90173" lon="4.73797">
        <ele>177</ele>
        <time>2018-06-16T08:39:56Z</time>
      </trkpt>
      <trkpt lat="45.90167" lon="4.738">
        <ele>177</ele>
        <time>2018-06-16T08:39:57Z</time>
      </trkpt>
      <trkpt lat="45.90161" lon="4.73805">
        <ele>176</ele>
        <time>2018-06-16T08:39:58Z</time>
      </trkpt>
      <trkpt lat="45.90155" lon="4.73806">
        <ele>176</ele>
        <time>2018-06-16T08:39:59Z</time>
      </trkpt>
      <trkpt lat="45.90149" lon="4.73809">
        <ele>177</ele>
        <time>2018-06-16T08:40:00Z</time>
      </trkpt>
      <trkpt lat="45.90145" lon="4.73813">
        <ele>177</ele>
        <time>2018-06-16T08:40:01Z</time>
      </trkpt>
      <trkpt lat="45.9014" lon="4.73816">
        <ele>177</ele>
        <time>2018-06-16T08:40:02Z</time>
      </trkpt>
      <trkpt lat="45.90134" lon="4.73819">
        <ele>177</ele>
        <time>2018-06-16T08:40:03Z</time>
      </trkpt>
      <trkpt lat="45.90128" lon="4.73819">
        <ele>177</ele>
        <time>2018-06-16T08:40:04Z</time>
      </trkpt>
      <trkpt lat="45.90122" lon="4.7382">
        <ele>177</ele>
        <time>2018-06-16T08:40:05Z</time>
      </trkpt>
      <trkpt lat="45.90116" lon="4.73823">
        <ele>177</ele>
        <time>2018-06-16T08:40:06Z</time>
      </trkpt>
      <trkpt lat="45.90109" lon="4.73825">
        <ele>177</ele>
        <time>2018-06-16T08:40:07Z</time>
      </trkpt>
      <trkpt lat="45.90103" lon="4.73827">
        <ele>177</ele>
        <time>2018-06-16T08:40:08Z</time>
      </trkpt>
      <trkpt lat="45.90097" lon="4.73831">
        <ele>177</ele>
        <time>2018-06-16T08:40:09Z</time>
      </trkpt>
      <trkpt lat="45.90091" lon="4.73834">
        <ele>178</ele>
        <time>2018-06-16T08:40:10Z</time>
      </trkpt>
      <trkpt lat="45.90086" lon="4.73837">
        <ele>178</ele>
        <time>2018-06-16T08:40:11Z</time>
      </trkpt>
      <trkpt lat="45.90079" lon="4.7384">
        <ele>178</ele>
        <time>2018-06-16T08:40:12Z</time>
      </trkpt>
      <trkpt lat="45.90072" lon="4.73839">
        <ele>178</ele>
        <time>2018-06-16T08:40:13Z</time>
      </trkpt>
      <trkpt lat="45.90066" lon="4.7384">
        <ele>178</ele>
        <time>2018-06-16T08:40:14Z</time>
      </trkpt>
      <trkpt lat="45.9006" lon="4.73842">
        <ele>178</ele>
        <time>2018-06-16T08:40:15Z</time>
      </trkpt>
      <trkpt lat="45.90055" lon="4.73843">
        <ele>178</ele>
        <time>2018-06-16T08:40:16Z</time>
      </trkpt>
      <trkpt lat="45.90049" lon="4.73845">
        <ele>178</ele>
        <time>2018-06-16T08:40:17Z</time>
      </trkpt>
      <trkpt lat="45.90045" lon="4.73854">
        <ele>178</ele>
        <time>2018-06-16T08:40:18Z</time>
      </trkpt>
      <trkpt lat="45.90039" lon="4.73856">
        <ele>178</ele>
        <time>2018-06-16T08:40:19Z</time>
      </trkpt>
      <trkpt lat="45.90033" lon="4.73856">
        <ele>178</ele>
        <time>2018-06-16T08:40:20Z</time>
      </trkpt>
      <trkpt lat="45.90026" lon="4.73856">
        <ele>178</ele>
        <time>2018-06-16T08:40:21Z</time>
      </trkpt>
      <trkpt lat="45.90018" lon="4.73857">
        <ele>178</ele>
        <time>2018-06-16T08:40:22Z</time>
      </trkpt>
      <trkpt lat="45.90012" lon="4.73858">
        <ele>178</ele>
        <time>2018-06-16T08:40:23Z</time>
      </trkpt>
      <trkpt lat="45.90006" lon="4.7386">
        <ele>178</ele>
        <time>2018-06-16T08:40:24Z</time>
      </trkpt>
      <trkpt lat="45.89999" lon="4.73862">
        <ele>178</ele>
        <time>2018-06-16T08:40:25Z</time>
      </trkpt>
      <trkpt lat="45.89995" lon="4.73866">
        <ele>178</ele>
        <time>2018-06-16T08:40:26Z</time>
      </trkpt>
      <trkpt lat="45.89989" lon="4.73868">
        <ele>178</ele>
        <time>2018-06-16T08:40:27Z</time>
      </trkpt>
      <trkpt lat="45.89983" lon="4.7387">
        <ele>178</ele>
        <time>2018-06-16T08:40:28Z</time>
      </trkpt>
      <trkpt lat="45.89978" lon="4.73872">
        <ele>178</ele>
        <time>2018-06-16T08:40:29Z</time>
      </trkpt>
      <trkpt lat="45.89972" lon="4.73875">
        <ele>178</ele>
        <time>2018-06-16T08:40:30Z</time>
      </trkpt>
      <trkpt lat="45.89967" lon="4.73877">
        <ele>178</ele>
        <time>2018-06-16T08:40:31Z</time>
      </trkpt>
      <trkpt lat="45.89961" lon="4.73879">
        <ele>178</ele>
        <time>2018-06-16T08:40:32Z</time>
      </trkpt>
      <trkpt lat="45.89955" lon="4.73882">
        <ele>178</ele>
        <time>2018-06-16T08:40:33Z</time>
      </trkpt>
      <trkpt lat="45.89949" lon="4.73885">
        <ele>178</ele>
        <time>2018-06-16T08:40:34Z</time>
      </trkpt>
      <trkpt lat="45.89944" lon="4.73887">
        <ele>178</ele>
        <time>2018-06-16T08:40:35Z</time>
      </trkpt>
      <trkpt lat="45.89939" lon="4.73891">
        <ele>178</ele>
        <time>2018-06-16T08:40:36Z</time>
      </trkpt>
      <trkpt lat="45.89933" lon="4.73894">
        <ele>178</ele>
        <time>2018-06-16T08:40:37Z</time>
      </trkpt>
      <trkpt lat="45.89928" lon="4.73899">
        <ele>178</ele>
        <time>2018-06-16T08:40:38Z</time>
      </trkpt>
      <trkpt lat="45.89921" lon="4.73903">
        <ele>178</ele>
        <time>2018-06-16T08:40:39Z</time>
      </trkpt>
      <trkpt lat="45.89915" lon="4.73905">
        <ele>178</ele>
        <time>2018-06-16T08:40:40Z</time>
      </trkpt>
      <trkpt lat="45.89909" lon="4.73907">
        <ele>178</ele>
        <time>2018-06-16T08:40:41Z</time>
      </trkpt>
      <trkpt lat="45.89903" lon="4.73909">
        <ele>178</ele>
        <time>2018-06-16T08:40:42Z</time>
      </trkpt>
      <trkpt lat="45.89898" lon="4.73911">
        <ele>178</ele>
        <time>2018-06-16T08:40:43Z</time>
      </trkpt>
      <trkpt lat="45.89893" lon="4.73915">
        <ele>179</ele>
        <time>2018-06-16T08:40:44Z</time>
      </trkpt>
      <trkpt lat="45.89887" lon="4.73917">
        <ele>178</ele>
        <time>2018-06-16T08:40:45Z</time>
      </trkpt>
      <trkpt lat="45.89882" lon="4.73916">
        <ele>179</ele>
        <time>2018-06-16T08:40:46Z</time>
      </trkpt>
      <trkpt lat="45.89876" lon="4.73918">
        <ele>179</ele>
        <time>2018-06-16T08:40:47Z</time>
      </trkpt>
      <trkpt lat="45.89869" lon="4.7392">
        <ele>179</ele>
        <time>2018-06-16T08:40:48Z</time>
      </trkpt>
      <trkpt lat="45.89863" lon="4.73923">
        <ele>179</ele>
        <time>2018-06-16T08:40:49Z</time>
      </trkpt>
      <trkpt lat="45.89856" lon="4.73925">
        <ele>179</ele>
        <time>2018-06-16T08:40:50Z</time>
      </trkpt>
      <trkpt lat="45.89851" lon="4.73928">
        <ele>179</ele>
        <time>2018-06-16T08:40:51Z</time>
      </trkpt>
      <trkpt lat="45.89845" lon="4.7393">
        <ele>179</ele>
        <time>2018-06-16T08:40:52Z</time>
      </trkpt>
      <trkpt lat="45.89838" lon="4.73933">
        <ele>179</ele>
        <time>2018-06-16T08:40:53Z</time>
      </trkpt>
      <trkpt lat="45.89831" lon="4.73937">
        <ele>179</ele>
        <time>2018-06-16T08:40:54Z</time>
      </trkpt>
      <trkpt lat="45.89825" lon="4.73937">
        <ele>179</ele>
        <time>2018-06-16T08:40:55Z</time>
      </trkpt>
      <trkpt lat="45.8982" lon="4.73937">
        <ele>179</ele>
        <time>2018-06-16T08:40:56Z</time>
      </trkpt>
      <trkpt lat="45.89815" lon="4.7394">
        <ele>179</ele>
        <time>2018-06-16T08:40:57Z</time>
      </trkpt>
      <trkpt lat="45.8981" lon="4.73944">
        <ele>179</ele>
        <time>2018-06-16T08:40:58Z</time>
      </trkpt>
      <trkpt lat="45.89804" lon="4.73946">
        <ele>179</ele>
        <time>2018-06-16T08:40:59Z</time>
      </trkpt>
      <trkpt lat="45.89798" lon="4.73948">
        <ele>179</ele>
        <time>2018-06-16T08:41:00Z</time>
      </trkpt>
      <trkpt lat="45.89793" lon="4.73949">
        <ele>179</ele>
        <time>2018-06-16T08:41:01Z</time>
      </trkpt>
      <trkpt lat="45.89788" lon="4.73952">
        <ele>179</ele>
        <time>2018-06-16T08:41:02Z</time>
      </trkpt>
      <trkpt lat="45.89783" lon="4.73954">
        <ele>179</ele>
        <time>2018-06-16T08:41:03Z</time>
      </trkpt>
      <trkpt lat="45.89778" lon="4.73956">
        <ele>179</ele>
        <time>2018-06-16T08:41:04Z</time>
      </trkpt>
      <trkpt lat="45.89772" lon="4.73959">
        <ele>179</ele>
        <time>2018-06-16T08:41:05Z</time>
      </trkpt>
      <trkpt lat="45.89766" lon="4.73962">
        <ele>179</ele>
        <time>2018-06-16T08:41:06Z</time>
      </trkpt>
      <trkpt lat="45.8976" lon="4.73963">
        <ele>178</ele>
        <time>2018-06-16T08:41:07Z</time>
      </trkpt>
      <trkpt lat="45.89754" lon="4.73965">
        <ele>178</ele>
        <time>2018-06-16T08:41:08Z</time>
      </trkpt>
      <trkpt lat="45.89749" lon="4.7397">
        <ele>178</ele>
        <time>2018-06-16T08:41:09Z</time>
      </trkpt>
      <trkpt lat="45.89743" lon="4.73973">
        <ele>178</ele>
        <time>2018-06-16T08:41:10Z</time>
      </trkpt>
      <trkpt lat="45.89737" lon="4.73975">
        <ele>178</ele>
        <time>2018-06-16T08:41:11Z</time>
      </trkpt>
      <trkpt lat="45.89732" lon="4.73982">
        <ele>178</ele>
        <time>2018-06-16T08:41:12Z</time>
      </trkpt>
      <trkpt lat="45.89726" lon="4.73987">
        <ele>178</ele>
        <time>2018-06-16T08:41:13Z</time>
      </trkpt>
      <trkpt lat="45.89721" lon="4.73989">
        <ele>178</ele>
        <time>2018-06-16T08:41:14Z</time>
      </trkpt>
      <trkpt lat="45.89712" lon="4.73991">
        <ele>178</ele>
        <time>2018-06-16T08:41:15Z</time>
      </trkpt>
      <trkpt lat="45.89707" lon="4.73992">
        <ele>178</ele>
        <time>2018-06-16T08:41:16Z</time>
      </trkpt>
      <trkpt lat="45.897" lon="4.73994">
        <ele>178</ele>
        <time>2018-06-16T08:41:17Z</time>
      </trkpt>
      <trkpt lat="45.89694" lon="4.73996">
        <ele>178</ele>
        <time>2018-06-16T08:41:18Z</time>
      </trkpt>
      <trkpt lat="45.89687" lon="4.73999">
        <ele>179</ele>
        <time>2018-06-16T08:41:19Z</time>
      </trkpt>
      <trkpt lat="45.89681" lon="4.74002">
        <ele>179</ele>
        <time>2018-06-16T08:41:20Z</time>
      </trkpt>
      <trkpt lat="45.89676" lon="4.74005">
        <ele>179</ele>
        <time>2018-06-16T08:41:21Z</time>
      </trkpt>
      <trkpt lat="45.8967" lon="4.74008">
        <ele>179</ele>
        <time>2018-06-16T08:41:22Z</time>
      </trkpt>
      <trkpt lat="45.89666" lon="4.74012">
        <ele>179</ele>
        <time>2018-06-16T08:41:23Z</time>
      </trkpt>
      <trkpt lat="45.8966" lon="4.74014">
        <ele>179</ele>
        <time>2018-06-16T08:41:24Z</time>
      </trkpt>
      <trkpt lat="45.89655" lon="4.74016">
        <ele>180</ele>
        <time>2018-06-16T08:41:25Z</time>
      </trkpt>
      <trkpt lat="45.89649" lon="4.74017">
        <ele>180</ele>
        <time>2018-06-16T08:41:26Z</time>
      </trkpt>
      <trkpt lat="45.89643" lon="4.74019">
        <ele>180</ele>
        <time>2018-06-16T08:41:27Z</time>
      </trkpt>
      <trkpt lat="45.89638" lon="4.7402">
        <ele>180</ele>
        <time>2018-06-16T08:41:28Z</time>
      </trkpt>
      <trkpt lat="45.89633" lon="4.74022">
        <ele>180</ele>
        <time>2018-06-16T08:41:29Z</time>
      </trkpt>
      <trkpt lat="45.89626" lon="4.74021">
        <ele>180</ele>
        <time>2018-06-16T08:41:30Z</time>
      </trkpt>
      <trkpt lat="45.89621" lon="4.74021">
        <ele>180</ele>
        <time>2018-06-16T08:41:31Z</time>
      </trkpt>
      <trkpt lat="45.89614" lon="4.74023">
        <ele>180</ele>
        <time>2018-06-16T08:41:32Z</time>
      </trkpt>
      <trkpt lat="45.89609" lon="4.74025">
        <ele>180</ele>
        <time>2018-06-16T08:41:33Z</time>
      </trkpt>
      <trkpt lat="45.89603" lon="4.74029">
        <ele>180</ele>
        <time>2018-06-16T08:41:34Z</time>
      </trkpt>
      <trkpt lat="45.89596" lon="4.74031">
        <ele>180</ele>
        <time>2018-06-16T08:41:35Z</time>
      </trkpt>
      <trkpt lat="45.8959" lon="4.74034">
        <ele>180</ele>
        <time>2018-06-16T08:41:36Z</time>
      </trkpt>
      <trkpt lat="45.89584" lon="4.74036">
        <ele>180</ele>
        <time>2018-06-16T08:41:37Z</time>
      </trkpt>
      <trkpt lat="45.89578" lon="4.7404">
        <ele>181</ele>
        <time>2018-06-16T08:41:38Z</time>
      </trkpt>
      <trkpt lat="45.89572" lon="4.74042">
        <ele>181</ele>
        <time>2018-06-16T08:41:39Z</time>
      </trkpt>
      <trkpt lat="45.89566" lon="4.74045">
        <ele>181</ele>
        <time>2018-06-16T08:41:40Z</time>
      </trkpt>
      <trkpt lat="45.89561" lon="4.74048">
        <ele>181</ele>
        <time>2018-06-16T08:41:41Z</time>
      </trkpt>
      <trkpt lat="45.89555" lon="4.74051">
        <ele>181</ele>
        <time>2018-06-16T08:41:42Z</time>
      </trkpt>
      <trkpt lat="45.8955" lon="4.74054">
        <ele>181</ele>
        <time>2018-06-16T08:41:43Z</time>
      </trkpt>
      <trkpt lat="45.89544" lon="4.74056">
        <ele>181</ele>
        <time>2018-06-16T08:41:44Z</time>
      </trkpt>
      <trkpt lat="45.89538" lon="4.74059">
        <ele>181</ele>
        <time>2018-06-16T08:41:45Z</time>
      </trkpt>
      <trkpt lat="45.89531" lon="4.7406">
        <ele>181</ele>
        <time>2018-06-16T08:41:46Z</time>
      </trkpt>
      <trkpt lat="45.89525" lon="4.74063">
        <ele>181</ele>
        <time>2018-06-16T08:41:47Z</time>
      </trkpt>
      <trkpt lat="45.89518" lon="4.74065">
        <ele>181</ele>
        <time>2018-06-16T08:41:48Z</time>
      </trkpt>
      <trkpt lat="45.89513" lon="4.74067">
        <ele>181</ele>
        <time>2018-06-16T08:41:49Z</time>
      </trkpt>
      <trkpt lat="45.89506" lon="4.74069">
        <ele>181</ele>
        <time>2018-06-16T08:41:50Z</time>
      </trkpt>
      <trkpt lat="45.895" lon="4.74073">
        <ele>181</ele>
        <time>2018-06-16T08:41:51Z</time>
      </trkpt>
      <trkpt lat="45.89494" lon="4.74075">
        <ele>181</ele>
        <time>2018-06-16T08:41:52Z</time>
      </trkpt>
      <trkpt lat="45.89488" lon="4.74077">
        <ele>181</ele>
        <time>2018-06-16T08:41:53Z</time>
      </trkpt>
      <trkpt lat="45.89482" lon="4.74079">
        <ele>181</ele>
        <time>2018-06-16T08:41:54Z</time>
      </trkpt>
      <trkpt lat="45.89475" lon="4.74078">
        <ele>181</ele>
        <time>2018-06-16T08:41:55Z</time>
      </trkpt>
      <trkpt lat="45.89471" lon="4.74084">
        <ele>182</ele>
        <time>2018-06-16T08:41:56Z</time>
      </trkpt>
      <trkpt lat="45.89466" lon="4.74088">
        <ele>182</ele>
        <time>2018-06-16T08:41:57Z</time>
      </trkpt>
      <trkpt lat="45.8946" lon="4.7409">
        <ele>182</ele>
        <time>2018-06-16T08:41:58Z</time>
      </trkpt>
      <trkpt lat="45.89455" lon="4.74092">
        <ele>182</ele>
        <time>2018-06-16T08:41:59Z</time>
      </trkpt>
      <trkpt lat="45.8945" lon="4.74093">
        <ele>182</ele>
        <time>2018-06-16T08:42:00Z</time>
      </trkpt>
      <trkpt lat="45.89444" lon="4.74096">
        <ele>182</ele>
        <time>2018-06-16T08:42:01Z</time>
      </trkpt>
      <trkpt lat="45.89439" lon="4.74098">
        <ele>182</ele>
        <time>2018-06-16T08:42:02Z</time>
      </trkpt>
      <trkpt lat="45.89433" lon="4.74101">
        <ele>182</ele>
        <time>2018-06-16T08:42:03Z</time>
      </trkpt>
      <trkpt lat="45.89428" lon="4.74105">
        <ele>182</ele>
        <time>2018-06-16T08:42:04Z</time>
      </trkpt>
      <trkpt lat="45.89423" lon="4.74105">
        <ele>182</ele>
        <time>2018-06-16T08:42:05Z</time>
      </trkpt>
      <trkpt lat="45.89417" lon="4.74108">
        <ele>183</ele>
        <time>2018-06-16T08:42:06Z</time>
      </trkpt>
      <trkpt lat="45.89411" lon="4.74111">
        <ele>183</ele>
        <time>2018-06-16T08:42:07Z</time>
      </trkpt>
      <trkpt lat="45.89404" lon="4.74112">
        <ele>183</ele>
        <time>2018-06-16T08:42:08Z</time>
      </trkpt>
      <trkpt lat="45.89398" lon="4.74115">
        <ele>184</ele>
        <time>2018-06-16T08:42:09Z</time>
      </trkpt>
      <trkpt lat="45.89392" lon="4.74117">
        <ele>184</ele>
        <time>2018-06-16T08:42:10Z</time>
      </trkpt>
      <trkpt lat="45.89386" lon="4.74121">
        <ele>184</ele>
        <time>2018-06-16T08:42:11Z</time>
      </trkpt>
      <trkpt lat="45.89379" lon="4.74124">
        <ele>184</ele>
        <time>2018-06-16T08:42:12Z</time>
      </trkpt>
      <trkpt lat="45.89373" lon="4.74127">
        <ele>184</ele>
        <time>2018-06-16T08:42:13Z</time>
      </trkpt>
      <trkpt lat="45.89367" lon="4.74129">
        <ele>184</ele>
        <time>2018-06-16T08:42:14Z</time>
      </trkpt>
      <trkpt lat="45.89362" lon="4.74133">
        <ele>184</ele>
        <time>2018-06-16T08:42:15Z</time>
      </trkpt>
      <trkpt lat="45.89357" lon="4.74135">
        <ele>184</ele>
        <time>2018-06-16T08:42:16Z</time>
      </trkpt>
      <trkpt lat="45.89351" lon="4.74137">
        <ele>184</ele>
        <time>2018-06-16T08:42:17Z</time>
      </trkpt>
      <trkpt lat="45.89344" lon="4.74139">
        <ele>185</ele>
        <time>2018-06-16T08:42:18Z</time>
      </trkpt>
      <trkpt lat="45.89338" lon="4.7414">
        <ele>185</ele>
        <time>2018-06-16T08:42:19Z</time>
      </trkpt>
      <trkpt lat="45.89332" lon="4.74142">
        <ele>185</ele>
        <time>2018-06-16T08:42:20Z</time>
      </trkpt>
      <trkpt lat="45.89325" lon="4.74144">
        <ele>185</ele>
        <time>2018-06-16T08:42:21Z</time>
      </trkpt>
      <trkpt lat="45.8932" lon="4.74147">
        <ele>185</ele>
        <time>2018-06-16T08:42:22Z</time>
      </trkpt>
      <trkpt lat="45.89315" lon="4.74148">
        <ele>185</ele>
        <time>2018-06-16T08:42:23Z</time>
      </trkpt>
      <trkpt lat="45.89309" lon="4.7415">
        <ele>185</ele>
        <time>2018-06-16T08:42:24Z</time>
      </trkpt>
      <trkpt lat="45.89304" lon="4.74151">
        <ele>185</ele>
        <time>2018-06-16T08:42:25Z</time>
      </trkpt>
      <trkpt lat="45.89299" lon="4.74153">
        <ele>185</ele>
        <time>2018-06-16T08:42:26Z</time>
      </trkpt>
      <trkpt lat="45.89292" lon="4.74158">
        <ele>185</ele>
        <time>2018-06-16T08:42:27Z</time>
      </trkpt>
      <trkpt lat="45.89286" lon="4.74159">
        <ele>185</ele>
        <time>2018-06-16T08:42:28Z</time>
      </trkpt>
      <trkpt lat="45.8928" lon="4.74163">
        <ele>185</ele>
        <time>2018-06-16T08:42:29Z</time>
      </trkpt>
      <trkpt lat="45.89274" lon="4.74165">
        <ele>185</ele>
        <time>2018-06-16T08:42:30Z</time>
      </trkpt>
      <trkpt lat="45.89268" lon="4.74168">
        <ele>186</ele>
        <time>2018-06-16T08:42:31Z</time>
      </trkpt>
      <trkpt lat="45.89264" lon="4.74171">
        <ele>185</ele>
        <time>2018-06-16T08:42:32Z</time>
      </trkpt>
      <trkpt lat="45.89257" lon="4.74176">
        <ele>185</ele>
        <time>2018-06-16T08:42:33Z</time>
      </trkpt>
      <trkpt lat="45.89251" lon="4.74179">
        <ele>185</ele>
        <time>2018-06-16T08:42:34Z</time>
      </trkpt>
      <trkpt lat="45.89245" lon="4.74181">
        <ele>185</ele>
        <time>2018-06-16T08:42:35Z</time>
      </trkpt>
      <trkpt lat="45.89241" lon="4.74185">
        <ele>186</ele>
        <time>2018-06-16T08:42:36Z</time>
      </trkpt>
      <trkpt lat="45.89235" lon="4.74188">
        <ele>186</ele>
        <time>2018-06-16T08:42:37Z</time>
      </trkpt>
      <trkpt lat="45.89228" lon="4.74191">
        <ele>186</ele>
        <time>2018-06-16T08:42:38Z</time>
      </trkpt>
      <trkpt lat="45.89223" lon="4.74194">
        <ele>186</ele>
        <time>2018-06-16T08:42:39Z</time>
      </trkpt>
      <trkpt lat="45.89216" lon="4.74197">
        <ele>186</ele>
        <time>2018-06-16T08:42:40Z</time>
      </trkpt>
      <trkpt lat="45.8921" lon="4.74199">
        <ele>186</ele>
        <time>2018-06-16T08:42:41Z</time>
      </trkpt>
      <trkpt lat="45.89203" lon="4.74202">
        <ele>186</ele>
        <time>2018-06-16T08:42:42Z</time>
      </trkpt>
      <trkpt lat="45.89195" lon="4.74204">
        <ele>186</ele>
        <time>2018-06-16T08:42:44Z</time>
      </trkpt>
      <trkpt lat="45.8919" lon="4.74206">
        <ele>186</ele>
        <time>2018-06-16T08:42:45Z</time>
      </trkpt>
      <trkpt lat="45.89184" lon="4.74208">
        <ele>186</ele>
        <time>2018-06-16T08:42:46Z</time>
      </trkpt>
      <trkpt lat="45.89178" lon="4.7421">
        <ele>186</ele>
        <time>2018-06-16T08:42:47Z</time>
      </trkpt>
      <trkpt lat="45.8917" lon="4.74214">
        <ele>186</ele>
        <time>2018-06-16T08:42:49Z</time>
      </trkpt>
      <trkpt lat="45.89165" lon="4.74218">
        <ele>186</ele>
        <time>2018-06-16T08:42:50Z</time>
      </trkpt>
      <trkpt lat="45.8916" lon="4.74221">
        <ele>186</ele>
        <time>2018-06-16T08:42:51Z</time>
      </trkpt>
      <trkpt lat="45.89154" lon="4.74224">
        <ele>186</ele>
        <time>2018-06-16T08:42:52Z</time>
      </trkpt>
      <trkpt lat="45.89147" lon="4.74225">
        <ele>186</ele>
        <time>2018-06-16T08:42:53Z</time>
      </trkpt>
      <trkpt lat="45.89142" lon="4.74228">
        <ele>186</ele>
        <time>2018-06-16T08:42:54Z</time>
      </trkpt>
      <trkpt lat="45.89136" lon="4.74229">
        <ele>186</ele>
        <time>2018-06-16T08:42:55Z</time>
      </trkpt>
      <trkpt lat="45.8913" lon="4.74231">
        <ele>186</ele>
        <time>2018-06-16T08:42:56Z</time>
      </trkpt>
      <trkpt lat="45.89127" lon="4.74232">
        <ele>186</ele>
        <time>2018-06-16T08:42:57Z</time>
      </trkpt>
      <trkpt lat="45.8912" lon="4.74235">
        <ele>186</ele>
        <time>2018-06-16T08:42:58Z</time>
      </trkpt>
      <trkpt lat="45.89114" lon="4.74237">
        <ele>186</ele>
        <time>2018-06-16T08:42:59Z</time>
      </trkpt>
      <trkpt lat="45.89108" lon="4.74241">
        <ele>186</ele>
        <time>2018-06-16T08:43:00Z</time>
      </trkpt>
      <trkpt lat="45.89102" lon="4.74242">
        <ele>186</ele>
        <time>2018-06-16T08:43:01Z</time>
      </trkpt>
      <trkpt lat="45.89096" lon="4.74244">
        <ele>186</ele>
        <time>2018-06-16T08:43:02Z</time>
      </trkpt>
      <trkpt lat="45.89089" lon="4.74246">
        <ele>186</ele>
        <time>2018-06-16T08:43:03Z</time>
      </trkpt>
      <trkpt lat="45.89083" lon="4.74249">
        <ele>186</ele>
        <time>2018-06-16T08:43:04Z</time>
      </trkpt>
      <trkpt lat="45.89078" lon="4.74252">
        <ele>186</ele>
        <time>2018-06-16T08:43:05Z</time>
      </trkpt>
      <trkpt lat="45.89072" lon="4.74254">
        <ele>186</ele>
        <time>2018-06-16T08:43:06Z</time>
      </trkpt>
      <trkpt lat="45.89067" lon="4.74255">
        <ele>186</ele>
        <time>2018-06-16T08:43:07Z</time>
      </trkpt>
      <trkpt lat="45.8906" lon="4.74257">
        <ele>186</ele>
        <time>2018-06-16T08:43:08Z</time>
      </trkpt>
      <trkpt lat="45.89054" lon="4.74259">
        <ele>187</ele>
        <time>2018-06-16T08:43:09Z</time>
      </trkpt>
      <trkpt lat="45.89049" lon="4.74261">
        <ele>187</ele>
        <time>2018-06-16T08:43:10Z</time>
      </trkpt>
      <trkpt lat="45.89043" lon="4.74263">
        <ele>187</ele>
        <time>2018-06-16T08:43:11Z</time>
      </trkpt>
      <trkpt lat="45.89037" lon="4.74265">
        <ele>187</ele>
        <time>2018-06-16T08:43:12Z</time>
      </trkpt>
      <trkpt lat="45.89033" lon="4.74266">
        <ele>187</ele>
        <time>2018-06-16T08:43:13Z</time>
      </trkpt>
      <trkpt lat="45.89028" lon="4.74269">
        <ele>187</ele>
        <time>2018-06-16T08:43:14Z</time>
      </trkpt>
      <trkpt lat="45.89023" lon="4.74271">
        <ele>187</ele>
        <time>2018-06-16T08:43:15Z</time>
      </trkpt>
      <trkpt lat="45.89017" lon="4.7427">
        <ele>187</ele>
        <time>2018-06-16T08:43:16Z</time>
      </trkpt>
      <trkpt lat="45.89011" lon="4.74272">
        <ele>187</ele>
        <time>2018-06-16T08:43:17Z</time>
      </trkpt>
      <trkpt lat="45.89007" lon="4.74273">
        <ele>187</ele>
        <time>2018-06-16T08:43:18Z</time>
      </trkpt>
      <trkpt lat="45.88999" lon="4.74276">
        <ele>187</ele>
        <time>2018-06-16T08:43:19Z</time>
      </trkpt>
      <trkpt lat="45.88994" lon="4.74276">
        <ele>187</ele>
        <time>2018-06-16T08:43:20Z</time>
      </trkpt>
      <trkpt lat="45.88988" lon="4.74275">
        <ele>187</ele>
        <time>2018-06-16T08:43:21Z</time>
      </trkpt>
      <trkpt lat="45.88983" lon="4.74277">
        <ele>187</ele>
        <time>2018-06-16T08:43:22Z</time>
      </trkpt>
      <trkpt lat="45.88978" lon="4.74279">
        <ele>187</ele>
        <time>2018-06-16T08:43:23Z</time>
      </trkpt>
      <trkpt lat="45.88974" lon="4.74278">
        <ele>187</ele>
        <time>2018-06-16T08:43:24Z</time>
      </trkpt>
      <trkpt lat="45.88965" lon="4.74276">
        <ele>187</ele>
        <time>2018-06-16T08:43:26Z</time>
      </trkpt>
      <trkpt lat="45.88962" lon="4.74275">
        <ele>187</ele>
        <time>2018-06-16T08:43:27Z</time>
      </trkpt>
      <trkpt lat="45.88955" lon="4.74272">
        <ele>187</ele>
        <time>2018-06-16T08:43:29Z</time>
      </trkpt>
      <trkpt lat="45.88951" lon="4.7427">
        <ele>187</ele>
        <time>2018-06-16T08:43:30Z</time>
      </trkpt>
      <trkpt lat="45.88946" lon="4.74272">
        <ele>187</ele>
        <time>2018-06-16T08:43:31Z</time>
      </trkpt>
      <trkpt lat="45.8894" lon="4.74271">
        <ele>187</ele>
        <time>2018-06-16T08:43:32Z</time>
      </trkpt>
      <trkpt lat="45.88932" lon="4.74268">
        <ele>187</ele>
        <time>2018-06-16T08:43:34Z</time>
      </trkpt>
      <trkpt lat="45.88928" lon="4.74265">
        <ele>187</ele>
        <time>2018-06-16T08:43:35Z</time>
      </trkpt>
      <trkpt lat="45.88921" lon="4.74259">
        <ele>187</ele>
        <time>2018-06-16T08:43:37Z</time>
      </trkpt>
      <trkpt lat="45.88919" lon="4.74252">
        <ele>187</ele>
        <time>2018-06-16T08:43:38Z</time>
      </trkpt>
      <trkpt lat="45.88912" lon="4.74248">
        <ele>187</ele>
        <time>2018-06-16T08:43:39Z</time>
      </trkpt>
      <trkpt lat="45.88908" lon="4.74248">
        <ele>187</ele>
        <time>2018-06-16T08:43:40Z</time>
      </trkpt>
      <trkpt lat="45.88903" lon="4.74245">
        <ele>187</ele>
        <time>2018-06-16T08:43:41Z</time>
      </trkpt>
      <trkpt lat="45.88898" lon="4.74241">
        <ele>187</ele>
        <time>2018-06-16T08:43:42Z</time>
      </trkpt>
      <trkpt lat="45.88891" lon="4.7424">
        <ele>187</ele>
        <time>2018-06-16T08:43:43Z</time>
      </trkpt>
      <trkpt lat="45.88888" lon="4.74237">
        <ele>187</ele>
        <time>2018-06-16T08:43:44Z</time>
      </trkpt>
      <trkpt lat="45.88883" lon="4.74234">
        <ele>187</ele>
        <time>2018-06-16T08:43:45Z</time>
      </trkpt>
      <trkpt lat="45.88878" lon="4.74231">
        <ele>187</ele>
        <time>2018-06-16T08:43:46Z</time>
      </trkpt>
      <trkpt lat="45.8887" lon="4.74225">
        <ele>187</ele>
        <time>2018-06-16T08:43:48Z</time>
      </trkpt>
      <trkpt lat="45.88866" lon="4.74222">
        <ele>187</ele>
        <time>2018-06-16T08:43:49Z</time>
      </trkpt>
      <trkpt lat="45.88861" lon="4.74218">
        <ele>187</ele>
        <time>2018-06-16T08:43:50Z</time>
      </trkpt>
      <trkpt lat="45.88857" lon="4.74215">
        <ele>187</ele>
        <time>2018-06-16T08:43:51Z</time>
      </trkpt>
      <trkpt lat="45.88851" lon="4.74212">
        <ele>187</ele>
        <time>2018-06-16T08:43:52Z</time>
      </trkpt>
      <trkpt lat="45.88847" lon="4.74208">
        <ele>187</ele>
        <time>2018-06-16T08:43:53Z</time>
      </trkpt>
      <trkpt lat="45.88842" lon="4.74207">
        <ele>187</ele>
        <time>2018-06-16T08:43:54Z</time>
      </trkpt>
      <trkpt lat="45.88838" lon="4.74204">
        <ele>187</ele>
        <time>2018-06-16T08:43:55Z</time>
      </trkpt>
      <trkpt lat="45.88833" lon="4.74201">
        <ele>187</ele>
        <time>2018-06-16T08:43:56Z</time>
      </trkpt>
      <trkpt lat="45.88828" lon="4.74198">
        <ele>187</ele>
        <time>2018-06-16T08:43:57Z</time>
      </trkpt>
      <trkpt lat="45.88823" lon="4.74195">
        <ele>187</ele>
        <time>2018-06-16T08:43:58Z</time>
      </trkpt>
      <trkpt lat="45.88818" lon="4.74192">
        <ele>187</ele>
        <time>2018-06-16T08:43:59Z</time>
      </trkpt>
      <trkpt lat="45.88812" lon="4.7419">
        <ele>187</ele>
        <time>2018-06-16T08:44:00Z</time>
      </trkpt>
      <trkpt lat="45.88807" lon="4.74187">
        <ele>187</ele>
        <time>2018-06-16T08:44:01Z</time>
      </trkpt>
      <trkpt lat="45.88802" lon="4.74184">
        <ele>187</ele>
        <time>2018-06-16T08:44:02Z</time>
      </trkpt>
      <trkpt lat="45.88797" lon="4.74181">
        <ele>187</ele>
        <time>2018-06-16T08:44:03Z</time>
      </trkpt>
      <trkpt lat="45.88792" lon="4.74178">
        <ele>188</ele>
        <time>2018-06-16T08:44:04Z</time>
      </trkpt>
      <trkpt lat="45.88787" lon="4.74175">
        <ele>188</ele>
        <time>2018-06-16T08:44:05Z</time>
      </trkpt>
      <trkpt lat="45.88782" lon="4.74172">
        <ele>188</ele>
        <time>2018-06-16T08:44:06Z</time>
      </trkpt>
      <trkpt lat="45.88777" lon="4.74169">
        <ele>188</ele>
        <time>2018-06-16T08:44:07Z</time>
      </trkpt>
      <trkpt lat="45.88773" lon="4.74166">
        <ele>187</ele>
        <time>2018-06-16T08:44:08Z</time>
      </trkpt>
      <trkpt lat="45.88769" lon="4.74163">
        <ele>187</ele>
        <time>2018-06-16T08:44:09Z</time>
      </trkpt>
      <trkpt lat="45.88764" lon="4.7416">
        <ele>187</ele>
        <time>2018-06-16T08:44:10Z</time>
      </trkpt>
      <trkpt lat="45.8876" lon="4.74157">
        <ele>187</ele>
        <time>2018-06-16T08:44:11Z</time>
      </trkpt>
      <trkpt lat="45.88755" lon="4.74154">
        <ele>187</ele>
        <time>2018-06-16T08:44:12Z</time>
      </trkpt>
      <trkpt lat="45.88751" lon="4.74151">
        <ele>187</ele>
        <time>2018-06-16T08:44:13Z</time>
      </trkpt>
      <trkpt lat="45.88746" lon="4.74149">
        <ele>188</ele>
        <time>2018-06-16T08:44:14Z</time>
      </trkpt>
      <trkpt lat="45.88741" lon="4.74146">
        <ele>188</ele>
        <time>2018-06-16T08:44:15Z</time>
      </trkpt>
      <trkpt lat="45.88737" lon="4.74142">
        <ele>188</ele>
        <time>2018-06-16T08:44:16Z</time>
      </trkpt>
      <trkpt lat="45.88732" lon="4.74137">
        <ele>188</ele>
        <time>2018-06-16T08:44:17Z</time>
      </trkpt>
      <trkpt lat="45.88728" lon="4.74133">
        <ele>188</ele>
        <time>2018-06-16T08:44:18Z</time>
      </trkpt>
      <trkpt lat="45.88724" lon="4.74129">
        <ele>188</ele>
        <time>2018-06-16T08:44:19Z</time>
      </trkpt>
      <trkpt lat="45.88719" lon="4.74125">
        <ele>188</ele>
        <time>2018-06-16T08:44:20Z</time>
      </trkpt>
      <trkpt lat="45.88716" lon="4.74121">
        <ele>188</ele>
        <time>2018-06-16T08:44:21Z</time>
      </trkpt>
      <trkpt lat="45.88712" lon="4.74117">
        <ele>188</ele>
        <time>2018-06-16T08:44:22Z</time>
      </trkpt>
      <trkpt lat="45.88706" lon="4.74114">
        <ele>188</ele>
        <time>2018-06-16T08:44:23Z</time>
      </trkpt>
      <trkpt lat="45.88701" lon="4.7411">
        <ele>188</ele>
        <time>2018-06-16T08:44:24Z</time>
      </trkpt>
      <trkpt lat="45.88696" lon="4.74107">
        <ele>188</ele>
        <time>2018-06-16T08:44:25Z</time>
      </trkpt>
      <trkpt lat="45.88687" lon="4.74107">
        <ele>188</ele>
        <time>2018-06-16T08:44:27Z</time>
      </trkpt>
      <trkpt lat="45.88685" lon="4.74107">
        <ele>188</ele>
        <time>2018-06-16T08:44:28Z</time>
      </trkpt>
      <trkpt lat="45.88678" lon="4.74102">
        <ele>188</ele>
        <time>2018-06-16T08:44:30Z</time>
      </trkpt>
      <trkpt lat="45.88676" lon="4.74098">
        <ele>188</ele>
        <time>2018-06-16T08:44:31Z</time>
      </trkpt>
      <trkpt lat="45.88672" lon="4.74086">
        <ele>188</ele>
        <time>2018-06-16T08:44:33Z</time>
      </trkpt>
      <trkpt lat="45.8867" lon="4.7408">
        <ele>188</ele>
        <time>2018-06-16T08:44:34Z</time>
      </trkpt>
      <trkpt lat="45.88669" lon="4.74074">
        <ele>188</ele>
        <time>2018-06-16T08:44:35Z</time>
      </trkpt>
      <trkpt lat="45.88668" lon="4.74067">
        <ele>187</ele>
        <time>2018-06-16T08:44:36Z</time>
      </trkpt>
      <trkpt lat="45.88667" lon="4.7406">
        <ele>187</ele>
        <time>2018-06-16T08:44:37Z</time>
      </trkpt>
      <trkpt lat="45.88664" lon="4.74052">
        <ele>187</ele>
        <time>2018-06-16T08:44:38Z</time>
      </trkpt>
      <trkpt lat="45.88661" lon="4.74046">
        <ele>187</ele>
        <time>2018-06-16T08:44:39Z</time>
      </trkpt>
      <trkpt lat="45.8866" lon="4.7404">
        <ele>187</ele>
        <time>2018-06-16T08:44:40Z</time>
      </trkpt>
      <trkpt lat="45.88658" lon="4.74033">
        <ele>187</ele>
        <time>2018-06-16T08:44:41Z</time>
      </trkpt>
      <trkpt lat="45.88658" lon="4.74026">
        <ele>187</ele>
        <time>2018-06-16T08:44:42Z</time>
      </trkpt>
      <trkpt lat="45.88656" lon="4.7402">
        <ele>187</ele>
        <time>2018-06-16T08:44:43Z</time>
      </trkpt>
      <trkpt lat="45.88655" lon="4.74013">
        <ele>187</ele>
        <time>2018-06-16T08:44:44Z</time>
      </trkpt>
      <trkpt lat="45.88655" lon="4.74005">
        <ele>187</ele>
        <time>2018-06-16T08:44:45Z</time>
      </trkpt>
      <trkpt lat="45.88654" lon="4.73998">
        <ele>186</ele>
        <time>2018-06-16T08:44:46Z</time>
      </trkpt>
      <trkpt lat="45.88652" lon="4.73989">
        <ele>186</ele>
        <time>2018-06-16T08:44:47Z</time>
      </trkpt>
      <trkpt lat="45.8865" lon="4.73982">
        <ele>187</ele>
        <time>2018-06-16T08:44:48Z</time>
      </trkpt>
      <trkpt lat="45.8865" lon="4.73974">
        <ele>187</ele>
        <time>2018-06-16T08:44:49Z</time>
      </trkpt>
      <trkpt lat="45.88648" lon="4.73965">
        <ele>187</ele>
        <time>2018-06-16T08:44:50Z</time>
      </trkpt>
      <trkpt lat="45.88648" lon="4.73958">
        <ele>187</ele>
        <time>2018-06-16T08:44:51Z</time>
      </trkpt>
      <trkpt lat="45.88647" lon="4.73951">
        <ele>187</ele>
        <time>2018-06-16T08:44:52Z</time>
      </trkpt>
      <trkpt lat="45.88647" lon="4.73943">
        <ele>187</ele>
        <time>2018-06-16T08:44:53Z</time>
      </trkpt>
      <trkpt lat="45.88646" lon="4.73935">
        <ele>187</ele>
        <time>2018-06-16T08:44:54Z</time>
      </trkpt>
      <trkpt lat="45.88645" lon="4.73926">
        <ele>187</ele>
        <time>2018-06-16T08:44:55Z</time>
      </trkpt>
      <trkpt lat="45.88645" lon="4.73917">
        <ele>187</ele>
        <time>2018-06-16T08:44:56Z</time>
      </trkpt>
      <trkpt lat="45.88645" lon="4.7391">
        <ele>187</ele>
        <time>2018-06-16T08:44:57Z</time>
      </trkpt>
      <trkpt lat="45.88645" lon="4.73902">
        <ele>187</ele>
        <time>2018-06-16T08:44:58Z</time>
      </trkpt>
      <trkpt lat="45.88644" lon="4.73894">
        <ele>187</ele>
        <time>2018-06-16T08:44:59Z</time>
      </trkpt>
      <trkpt lat="45.88644" lon="4.73887">
        <ele>187</ele>
        <time>2018-06-16T08:45:00Z</time>
      </trkpt>
      <trkpt lat="45.88644" lon="4.73879">
        <ele>187</ele>
        <time>2018-06-16T08:45:01Z</time>
      </trkpt>
      <trkpt lat="45.88644" lon="4.73872">
        <ele>187</ele>
        <time>2018-06-16T08:45:02Z</time>
      </trkpt>
      <trkpt lat="45.88645" lon="4.73866">
        <ele>187</ele>
        <time>2018-06-16T08:45:03Z</time>
      </trkpt>
      <trkpt lat="45.88646" lon="4.73857">
        <ele>187</ele>
        <time>2018-06-16T08:45:04Z</time>
      </trkpt>
      <trkpt lat="45.88646" lon="4.7385">
        <ele>187</ele>
        <time>2018-06-16T08:45:05Z</time>
      </trkpt>
      <trkpt lat="45.88647" lon="4.73841">
        <ele>187</ele>
        <time>2018-06-16T08:45:06Z</time>
      </trkpt>
      <trkpt lat="45.88647" lon="4.73832">
        <ele>187</ele>
        <time>2018-06-16T08:45:07Z</time>
      </trkpt>
      <trkpt lat="45.88647" lon="4.73825">
        <ele>187</ele>
        <time>2018-06-16T08:45:08Z</time>
      </trkpt>
      <trkpt lat="45.88647" lon="4.73817">
        <ele>187</ele>
        <time>2018-06-16T08:45:09Z</time>
      </trkpt>
      <trkpt lat="45.88648" lon="4.73808">
        <ele>187</ele>
        <time>2018-06-16T08:45:10Z</time>
      </trkpt>
      <trkpt lat="45.88647" lon="4.738">
        <ele>187</ele>
        <time>2018-06-16T08:45:11Z</time>
      </trkpt>
      <trkpt lat="45.88648" lon="4.73793">
        <ele>187</ele>
        <time>2018-06-16T08:45:12Z</time>
      </trkpt>
      <trkpt lat="45.88648" lon="4.73786">
        <ele>187</ele>
        <time>2018-06-16T08:45:13Z</time>
      </trkpt>
      <trkpt lat="45.8865" lon="4.73779">
        <ele>187</ele>
        <time>2018-06-16T08:45:14Z</time>
      </trkpt>
      <trkpt lat="45.8865" lon="4.73767">
        <ele>187</ele>
        <time>2018-06-16T08:45:16Z</time>
      </trkpt>
      <trkpt lat="45.88652" lon="4.73759">
        <ele>187</ele>
        <time>2018-06-16T08:45:17Z</time>
      </trkpt>
      <trkpt lat="45.88651" lon="4.73749">
        <ele>187</ele>
        <time>2018-06-16T08:45:19Z</time>
      </trkpt>
      <trkpt lat="45.88651" lon="4.73743">
        <ele>187</ele>
        <time>2018-06-16T08:45:20Z</time>
      </trkpt>
      <trkpt lat="45.88651" lon="4.73732">
        <ele>187</ele>
        <time>2018-06-16T08:45:22Z</time>
      </trkpt>
      <trkpt lat="45.88651" lon="4.73727">
        <ele>186</ele>
        <time>2018-06-16T08:45:23Z</time>
      </trkpt>
      <trkpt lat="45.88651" lon="4.73715">
        <ele>186</ele>
        <time>2018-06-16T08:45:25Z</time>
      </trkpt>
      <trkpt lat="45.88651" lon="4.73711">
        <ele>186</ele>
        <time>2018-06-16T08:45:26Z</time>
      </trkpt>
      <trkpt lat="45.8865" lon="4.737">
        <ele>186</ele>
        <time>2018-06-16T08:45:28Z</time>
      </trkpt>
      <trkpt lat="45.8865" lon="4.73694">
        <ele>186</ele>
        <time>2018-06-16T08:45:29Z</time>
      </trkpt>
      <trkpt lat="45.8865" lon="4.73687">
        <ele>186</ele>
        <time>2018-06-16T08:45:30Z</time>
      </trkpt>
      <trkpt lat="45.8865" lon="4.7368">
        <ele>186</ele>
        <time>2018-06-16T08:45:31Z</time>
      </trkpt>
      <trkpt lat="45.88648" lon="4.73672">
        <ele>186</ele>
        <time>2018-06-16T08:45:32Z</time>
      </trkpt>
      <trkpt lat="45.88648" lon="4.73664">
        <ele>186</ele>
        <time>2018-06-16T08:45:33Z</time>
      </trkpt>
      <trkpt lat="45.88648" lon="4.73658">
        <ele>186</ele>
        <time>2018-06-16T08:45:34Z</time>
      </trkpt>
      <trkpt lat="45.88649" lon="4.7365">
        <ele>186</ele>
        <time>2018-06-16T08:45:35Z</time>
      </trkpt>
      <trkpt lat="45.88648" lon="4.73642">
        <ele>186</ele>
        <time>2018-06-16T08:45:36Z</time>
      </trkpt>
      <trkpt lat="45.88648" lon="4.73635">
        <ele>186</ele>
        <time>2018-06-16T08:45:37Z</time>
      </trkpt>
      <trkpt lat="45.88648" lon="4.73627">
        <ele>186</ele>
        <time>2018-06-16T08:45:38Z</time>
      </trkpt>
      <trkpt lat="45.88648" lon="4.7362">
        <ele>186</ele>
        <time>2018-06-16T08:45:39Z</time>
      </trkpt>
      <trkpt lat="45.88648" lon="4.73611">
        <ele>186</ele>
        <time>2018-06-16T08:45:40Z</time>
      </trkpt>
      <trkpt lat="45.88649" lon="4.73603">
        <ele>186</ele>
        <time>2018-06-16T08:45:41Z</time>
      </trkpt>
      <trkpt lat="45.88649" lon="4.73594">
        <ele>185</ele>
        <time>2018-06-16T08:45:42Z</time>
      </trkpt>
      <trkpt lat="45.88649" lon="4.73586">
        <ele>185</ele>
        <time>2018-06-16T08:45:43Z</time>
      </trkpt>
      <trkpt lat="45.88649" lon="4.73576">
        <ele>185</ele>
        <time>2018-06-16T08:45:44Z</time>
      </trkpt>
      <trkpt lat="45.88648" lon="4.73566">
        <ele>185</ele>
        <time>2018-06-16T08:45:45Z</time>
      </trkpt>
      <trkpt lat="45.88649" lon="4.73555">
        <ele>185</ele>
        <time>2018-06-16T08:45:46Z</time>
      </trkpt>
      <trkpt lat="45.88648" lon="4.73546">
        <ele>185</ele>
        <time>2018-06-16T08:45:47Z</time>
      </trkpt>
      <trkpt lat="45.88648" lon="4.73536">
        <ele>185</ele>
        <time>2018-06-16T08:45:48Z</time>
      </trkpt>
      <trkpt lat="45.88648" lon="4.73527">
        <ele>185</ele>
        <time>2018-06-16T08:45:49Z</time>
      </trkpt>
      <trkpt lat="45.88651" lon="4.7352">
        <ele>185</ele>
        <time>2018-06-16T08:45:50Z</time>
      </trkpt>
      <trkpt lat="45.88651" lon="4.73513">
        <ele>185</ele>
        <time>2018-06-16T08:45:51Z</time>
      </trkpt>
      <trkpt lat="45.88652" lon="4.73505">
        <ele>184</ele>
        <time>2018-06-16T08:45:52Z</time>
      </trkpt>
      <trkpt lat="45.88654" lon="4.73498">
        <ele>184</ele>
        <time>2018-06-16T08:45:53Z</time>
      </trkpt>
      <trkpt lat="45.88653" lon="4.7349">
        <ele>184</ele>
        <time>2018-06-16T08:45:54Z</time>
      </trkpt>
      <trkpt lat="45.88652" lon="4.73482">
        <ele>184</ele>
        <time>2018-06-16T08:45:55Z</time>
      </trkpt>
      <trkpt lat="45.88649" lon="4.73477">
        <ele>184</ele>
        <time>2018-06-16T08:45:56Z</time>
      </trkpt>
      <trkpt lat="45.88644" lon="4.73474">
        <ele>184</ele>
        <time>2018-06-16T08:45:57Z</time>
      </trkpt>
      <trkpt lat="45.88638" lon="4.73465">
        <ele>184</ele>
        <time>2018-06-16T08:45:59Z</time>
      </trkpt>
      <trkpt lat="45.88635" lon="4.73459">
        <ele>184</ele>
        <time>2018-06-16T08:46:00Z</time>
      </trkpt>
      <trkpt lat="45.88634" lon="4.73452">
        <ele>184</ele>
        <time>2018-06-16T08:46:01Z</time>
      </trkpt>
      <trkpt lat="45.88633" lon="4.73445">
        <ele>184</ele>
        <time>2018-06-16T08:46:02Z</time>
      </trkpt>
      <trkpt lat="45.88634" lon="4.73439">
        <ele>184</ele>
        <time>2018-06-16T08:46:03Z</time>
      </trkpt>
      <trkpt lat="45.88637" lon="4.73432">
        <ele>184</ele>
        <time>2018-06-16T08:46:04Z</time>
      </trkpt>
      <trkpt lat="45.88638" lon="4.73424">
        <ele>184</ele>
        <time>2018-06-16T08:46:05Z</time>
      </trkpt>
      <trkpt lat="45.88638" lon="4.73416">
        <ele>184</ele>
        <time>2018-06-16T08:46:06Z</time>
      </trkpt>
      <trkpt lat="45.88637" lon="4.73408">
        <ele>184</ele>
        <time>2018-06-16T08:46:07Z</time>
      </trkpt>
      <trkpt lat="45.88633" lon="4.73401">
        <ele>183</ele>
        <time>2018-06-16T08:46:08Z</time>
      </trkpt>
      <trkpt lat="45.8863" lon="4.73394">
        <ele>183</ele>
        <time>2018-06-16T08:46:09Z</time>
      </trkpt>
      <trkpt lat="45.88626" lon="4.7339">
        <ele>183</ele>
        <time>2018-06-16T08:46:10Z</time>
      </trkpt>
      <trkpt lat="45.88621" lon="4.73386">
        <ele>183</ele>
        <time>2018-06-16T08:46:11Z</time>
      </trkpt>
      <trkpt lat="45.88615" lon="4.73385">
        <ele>183</ele>
        <time>2018-06-16T08:46:12Z</time>
      </trkpt>
      <trkpt lat="45.8861" lon="4.73384">
        <ele>183</ele>
        <time>2018-06-16T08:46:13Z</time>
      </trkpt>
      <trkpt lat="45.88605" lon="4.73383">
        <ele>183</ele>
        <time>2018-06-16T08:46:14Z</time>
      </trkpt>
      <trkpt lat="45.88601" lon="4.73385">
        <ele>183</ele>
        <time>2018-06-16T08:46:15Z</time>
      </trkpt>
      <trkpt lat="45.88595" lon="4.73387">
        <ele>183</ele>
        <time>2018-06-16T08:46:16Z</time>
      </trkpt>
      <trkpt lat="45.8859" lon="4.73392">
        <ele>183</ele>
        <time>2018-06-16T08:46:17Z</time>
      </trkpt>
      <trkpt lat="45.88584" lon="4.73395">
        <ele>183</ele>
        <time>2018-06-16T08:46:18Z</time>
      </trkpt>
      <trkpt lat="45.88578" lon="4.73398">
        <ele>183</ele>
        <time>2018-06-16T08:46:19Z</time>
      </trkpt>
      <trkpt lat="45.88572" lon="4.734">
        <ele>183</ele>
        <time>2018-06-16T08:46:20Z</time>
      </trkpt>
      <trkpt lat="45.88567" lon="4.73402">
        <ele>183</ele>
        <time>2018-06-16T08:46:21Z</time>
      </trkpt>
      <trkpt lat="45.88561" lon="4.73402">
        <ele>183</ele>
        <time>2018-06-16T08:46:22Z</time>
      </trkpt>
      <trkpt lat="45.88554" lon="4.73403">
        <ele>183</ele>
        <time>2018-06-16T08:46:23Z</time>
      </trkpt>
      <trkpt lat="45.88549" lon="4.73404">
        <ele>183</ele>
        <time>2018-06-16T08:46:24Z</time>
      </trkpt>
      <trkpt lat="45.88544" lon="4.73407">
        <ele>183</ele>
        <time>2018-06-16T08:46:25Z</time>
      </trkpt>
      <trkpt lat="45.88539" lon="4.73408">
        <ele>183</ele>
        <time>2018-06-16T08:46:26Z</time>
      </trkpt>
      <trkpt lat="45.88534" lon="4.73409">
        <ele>183</ele>
        <time>2018-06-16T08:46:27Z</time>
      </trkpt>
      <trkpt lat="45.88528" lon="4.7341">
        <ele>183</ele>
        <time>2018-06-16T08:46:28Z</time>
      </trkpt>
      <trkpt lat="45.88523" lon="4.73412">
        <ele>183</ele>
        <time>2018-06-16T08:46:29Z</time>
      </trkpt>
      <trkpt lat="45.88518" lon="4.73413">
        <ele>184</ele>
        <time>2018-06-16T08:46:30Z</time>
      </trkpt>
      <trkpt lat="45.88513" lon="4.73414">
        <ele>184</ele>
        <time>2018-06-16T08:46:31Z</time>
      </trkpt>
      <trkpt lat="45.88508" lon="4.73414">
        <ele>184</ele>
        <time>2018-06-16T08:46:32Z</time>
      </trkpt>
      <trkpt lat="45.88503" lon="4.73417">
        <ele>184</ele>
        <time>2018-06-16T08:46:33Z</time>
      </trkpt>
      <trkpt lat="45.88498" lon="4.73418">
        <ele>184</ele>
        <time>2018-06-16T08:46:34Z</time>
      </trkpt>
      <trkpt lat="45.88492" lon="4.73419">
        <ele>184</ele>
        <time>2018-06-16T08:46:35Z</time>
      </trkpt>
      <trkpt lat="45.88488" lon="4.73419">
        <ele>184</ele>
        <time>2018-06-16T08:46:36Z</time>
      </trkpt>
      <trkpt lat="45.88483" lon="4.73421">
        <ele>184</ele>
        <time>2018-06-16T08:46:37Z</time>
      </trkpt>
      <trkpt lat="45.88479" lon="4.73423">
        <ele>184</ele>
        <time>2018-06-16T08:46:38Z</time>
      </trkpt>
      <trkpt lat="45.88473" lon="4.73423">
        <ele>184</ele>
        <time>2018-06-16T08:46:39Z</time>
      </trkpt>
      <trkpt lat="45.88469" lon="4.73424">
        <ele>184</ele>
        <time>2018-06-16T08:46:40Z</time>
      </trkpt>
      <trkpt lat="45.88464" lon="4.73427">
        <ele>184</ele>
        <time>2018-06-16T08:46:41Z</time>
      </trkpt>
      <trkpt lat="45.88458" lon="4.73427">
        <ele>184</ele>
        <time>2018-06-16T08:46:42Z</time>
      </trkpt>
      <trkpt lat="45.88453" lon="4.73427">
        <ele>184</ele>
        <time>2018-06-16T08:46:43Z</time>
      </trkpt>
      <trkpt lat="45.88448" lon="4.7343">
        <ele>184</ele>
        <time>2018-06-16T08:46:44Z</time>
      </trkpt>
      <trkpt lat="45.88442" lon="4.7343">
        <ele>184</ele>
        <time>2018-06-16T08:46:45Z</time>
      </trkpt>
      <trkpt lat="45.88437" lon="4.73431">
        <ele>184</ele>
        <time>2018-06-16T08:46:46Z</time>
      </trkpt>
      <trkpt lat="45.88435" lon="4.73432">
        <ele>184</ele>
        <time>2018-06-16T08:46:47Z</time>
      </trkpt>
      <trkpt lat="45.88427" lon="4.73433">
        <ele>184</ele>
        <time>2018-06-16T08:46:48Z</time>
      </trkpt>
      <trkpt lat="45.88422" lon="4.73435">
        <ele>184</ele>
        <time>2018-06-16T08:46:49Z</time>
      </trkpt>
      <trkpt lat="45.88416" lon="4.73435">
        <ele>184</ele>
        <time>2018-06-16T08:46:50Z</time>
      </trkpt>
      <trkpt lat="45.88411" lon="4.73437">
        <ele>184</ele>
        <time>2018-06-16T08:46:51Z</time>
      </trkpt>
      <trkpt lat="45.88404" lon="4.73438">
        <ele>184</ele>
        <time>2018-06-16T08:46:52Z</time>
      </trkpt>
      <trkpt lat="45.88399" lon="4.7344">
        <ele>184</ele>
        <time>2018-06-16T08:46:53Z</time>
      </trkpt>
      <trkpt lat="45.88394" lon="4.73442">
        <ele>184</ele>
        <time>2018-06-16T08:46:54Z</time>
      </trkpt>
      <trkpt lat="45.88389" lon="4.73444">
        <ele>184</ele>
        <time>2018-06-16T08:46:55Z</time>
      </trkpt>
      <trkpt lat="45.88384" lon="4.73445">
        <ele>184</ele>
        <time>2018-06-16T08:46:56Z</time>
      </trkpt>
      <trkpt lat="45.88379" lon="4.73448">
        <ele>184</ele>
        <time>2018-06-16T08:46:57Z</time>
      </trkpt>
      <trkpt lat="45.88375" lon="4.73448">
        <ele>184</ele>
        <time>2018-06-16T08:46:58Z</time>
      </trkpt>
      <trkpt lat="45.8837" lon="4.73451">
        <ele>184</ele>
        <time>2018-06-16T08:46:59Z</time>
      </trkpt>
      <trkpt lat="45.88363" lon="4.73444">
        <ele>184</ele>
        <time>2018-06-16T08:47:00Z</time>
      </trkpt>
      <trkpt lat="45.88357" lon="4.73443">
        <ele>184</ele>
        <time>2018-06-16T08:47:01Z</time>
      </trkpt>
      <trkpt lat="45.88352" lon="4.73443">
        <ele>184</ele>
        <time>2018-06-16T08:47:02Z</time>
      </trkpt>
      <trkpt lat="45.88347" lon="4.73444">
        <ele>184</ele>
        <time>2018-06-16T08:47:03Z</time>
      </trkpt>
      <trkpt lat="45.88343" lon="4.73448">
        <ele>184</ele>
        <time>2018-06-16T08:47:04Z</time>
      </trkpt>
      <trkpt lat="45.88338" lon="4.73449">
        <ele>184</ele>
        <time>2018-06-16T08:47:05Z</time>
      </trkpt>
      <trkpt lat="45.88338" lon="4.73463">
        <ele>184</ele>
        <time>2018-06-16T08:47:06Z</time>
      </trkpt>
      <trkpt lat="45.88333" lon="4.73465">
        <ele>184</ele>
        <time>2018-06-16T08:47:07Z</time>
      </trkpt>
      <trkpt lat="45.88328" lon="4.73467">
        <ele>184</ele>
        <time>2018-06-16T08:47:08Z</time>
      </trkpt>
      <trkpt lat="45.88323" lon="4.73468">
        <ele>184</ele>
        <time>2018-06-16T08:47:09Z</time>
      </trkpt>
      <trkpt lat="45.88318" lon="4.7347">
        <ele>184</ele>
        <time>2018-06-16T08:47:10Z</time>
      </trkpt>
      <trkpt lat="45.88313" lon="4.73471">
        <ele>184</ele>
        <time>2018-06-16T08:47:11Z</time>
      </trkpt>
      <trkpt lat="45.88308" lon="4.73473">
        <ele>184</ele>
        <time>2018-06-16T08:47:12Z</time>
      </trkpt>
      <trkpt lat="45.88303" lon="4.73475">
        <ele>184</ele>
        <time>2018-06-16T08:47:13Z</time>
      </trkpt>
      <trkpt lat="45.88297" lon="4.73475">
        <ele>184</ele>
        <time>2018-06-16T08:47:14Z</time>
      </trkpt>
      <trkpt lat="45.88292" lon="4.73477">
        <ele>184</ele>
        <time>2018-06-16T08:47:15Z</time>
      </trkpt>
      <trkpt lat="45.88287" lon="4.73487">
        <ele>184</ele>
        <time>2018-06-16T08:47:16Z</time>
      </trkpt>
      <trkpt lat="45.88282" lon="4.7349">
        <ele>184</ele>
        <time>2018-06-16T08:47:17Z</time>
      </trkpt>
      <trkpt lat="45.88278" lon="4.73493">
        <ele>184</ele>
        <time>2018-06-16T08:47:18Z</time>
      </trkpt>
      <trkpt lat="45.88273" lon="4.73496">
        <ele>184</ele>
        <time>2018-06-16T08:47:19Z</time>
      </trkpt>
      <trkpt lat="45.88268" lon="4.73499">
        <ele>184</ele>
        <time>2018-06-16T08:47:20Z</time>
      </trkpt>
      <trkpt lat="45.88263" lon="4.73505">
        <ele>185</ele>
        <time>2018-06-16T08:47:21Z</time>
      </trkpt>
      <trkpt lat="45.88258" lon="4.73506">
        <ele>185</ele>
        <time>2018-06-16T08:47:22Z</time>
      </trkpt>
      <trkpt lat="45.88252" lon="4.7351">
        <ele>185</ele>
        <time>2018-06-16T08:47:23Z</time>
      </trkpt>
      <trkpt lat="45.88247" lon="4.73512">
        <ele>185</ele>
        <time>2018-06-16T08:47:24Z</time>
      </trkpt>
      <trkpt lat="45.88241" lon="4.73516">
        <ele>185</ele>
        <time>2018-06-16T08:47:25Z</time>
      </trkpt>
      <trkpt lat="45.88236" lon="4.73518">
        <ele>185</ele>
        <time>2018-06-16T08:47:26Z</time>
      </trkpt>
      <trkpt lat="45.88232" lon="4.73518">
        <ele>185</ele>
        <time>2018-06-16T08:47:27Z</time>
      </trkpt>
      <trkpt lat="45.88227" lon="4.7352">
        <ele>185</ele>
        <time>2018-06-16T08:47:28Z</time>
      </trkpt>
      <trkpt lat="45.88222" lon="4.73524">
        <ele>185</ele>
        <time>2018-06-16T08:47:29Z</time>
      </trkpt>
      <trkpt lat="45.88218" lon="4.73527">
        <ele>185</ele>
        <time>2018-06-16T08:47:30Z</time>
      </trkpt>
      <trkpt lat="45.88214" lon="4.73534">
        <ele>185</ele>
        <time>2018-06-16T08:47:31Z</time>
      </trkpt>
      <trkpt lat="45.88209" lon="4.73537">
        <ele>185</ele>
        <time>2018-06-16T08:47:32Z</time>
      </trkpt>
      <trkpt lat="45.88205" lon="4.73541">
        <ele>186</ele>
        <time>2018-06-16T08:47:33Z</time>
      </trkpt>
      <trkpt lat="45.882" lon="4.73545">
        <ele>186</ele>
        <time>2018-06-16T08:47:34Z</time>
      </trkpt>
      <trkpt lat="45.88196" lon="4.73548">
        <ele>186</ele>
        <time>2018-06-16T08:47:35Z</time>
      </trkpt>
      <trkpt lat="45.88191" lon="4.7355">
        <ele>186</ele>
        <time>2018-06-16T08:47:36Z</time>
      </trkpt>
      <trkpt lat="45.88182" lon="4.73554">
        <ele>186</ele>
        <time>2018-06-16T08:47:38Z</time>
      </trkpt>
      <trkpt lat="45.88178" lon="4.73556">
        <ele>186</ele>
        <time>2018-06-16T08:47:39Z</time>
      </trkpt>
      <trkpt lat="45.88173" lon="4.7356">
        <ele>186</ele>
        <time>2018-06-16T08:47:40Z</time>
      </trkpt>
      <trkpt lat="45.88169" lon="4.73564">
        <ele>186</ele>
        <time>2018-06-16T08:47:41Z</time>
      </trkpt>
      <trkpt lat="45.88164" lon="4.73568">
        <ele>186</ele>
        <time>2018-06-16T08:47:42Z</time>
      </trkpt>
      <trkpt lat="45.8816" lon="4.73571">
        <ele>186</ele>
        <time>2018-06-16T08:47:43Z</time>
      </trkpt>
      <trkpt lat="45.88155" lon="4.73574">
        <ele>186</ele>
        <time>2018-06-16T08:47:44Z</time>
      </trkpt>
      <trkpt lat="45.8815" lon="4.73575">
        <ele>186</ele>
        <time>2018-06-16T08:47:45Z</time>
      </trkpt>
      <trkpt lat="45.88145" lon="4.7358">
        <ele>186</ele>
        <time>2018-06-16T08:47:46Z</time>
      </trkpt>
      <trkpt lat="45.88139" lon="4.73583">
        <ele>186</ele>
        <time>2018-06-16T08:47:47Z</time>
      </trkpt>
      <trkpt lat="45.88135" lon="4.73587">
        <ele>187</ele>
        <time>2018-06-16T08:47:48Z</time>
      </trkpt>
      <trkpt lat="45.8813" lon="4.73586">
        <ele>187</ele>
        <time>2018-06-16T08:47:49Z</time>
      </trkpt>
      <trkpt lat="45.88126" lon="4.73594">
        <ele>187</ele>
        <time>2018-06-16T08:47:50Z</time>
      </trkpt>
      <trkpt lat="45.88122" lon="4.73597">
        <ele>187</ele>
        <time>2018-06-16T08:47:51Z</time>
      </trkpt>
      <trkpt lat="45.88119" lon="4.73598">
        <ele>187</ele>
        <time>2018-06-16T08:47:52Z</time>
      </trkpt>
      <trkpt lat="45.88112" lon="4.73602">
        <ele>188</ele>
        <time>2018-06-16T08:47:53Z</time>
      </trkpt>
      <trkpt lat="45.88108" lon="4.73604">
        <ele>188</ele>
        <time>2018-06-16T08:47:54Z</time>
      </trkpt>
      <trkpt lat="45.88104" lon="4.73605">
        <ele>188</ele>
        <time>2018-06-16T08:47:55Z</time>
      </trkpt>
      <trkpt lat="45.88099" lon="4.73608">
        <ele>188</ele>
        <time>2018-06-16T08:47:56Z</time>
      </trkpt>
      <trkpt lat="45.88095" lon="4.73611">
        <ele>188</ele>
        <time>2018-06-16T08:47:57Z</time>
      </trkpt>
      <trkpt lat="45.88092" lon="4.73617">
        <ele>188</ele>
        <time>2018-06-16T08:47:58Z</time>
      </trkpt>
      <trkpt lat="45.88087" lon="4.73618">
        <ele>188</ele>
        <time>2018-06-16T08:47:59Z</time>
      </trkpt>
      <trkpt lat="45.88083" lon="4.73621">
        <ele>189</ele>
        <time>2018-06-16T08:48:00Z</time>
      </trkpt>
      <trkpt lat="45.88078" lon="4.73624">
        <ele>189</ele>
        <time>2018-06-16T08:48:01Z</time>
      </trkpt>
      <trkpt lat="45.88074" lon="4.73626">
        <ele>189</ele>
        <time>2018-06-16T08:48:02Z</time>
      </trkpt>
      <trkpt lat="45.88069" lon="4.73629">
        <ele>189</ele>
        <time>2018-06-16T08:48:03Z</time>
      </trkpt>
      <trkpt lat="45.88065" lon="4.73633">
        <ele>189</ele>
        <time>2018-06-16T08:48:04Z</time>
      </trkpt>
      <trkpt lat="45.88061" lon="4.73636">
        <ele>189</ele>
        <time>2018-06-16T08:48:05Z</time>
      </trkpt>
      <trkpt lat="45.88056" lon="4.73638">
        <ele>189</ele>
        <time>2018-06-16T08:48:06Z</time>
      </trkpt>
      <trkpt lat="45.88052" lon="4.73639">
        <ele>189</ele>
        <time>2018-06-16T08:48:07Z</time>
      </trkpt>
      <trkpt lat="45.88048" lon="4.73642">
        <ele>189</ele>
        <time>2018-06-16T08:48:08Z</time>
      </trkpt>
      <trkpt lat="45.88043" lon="4.73643">
        <ele>189</ele>
        <time>2018-06-16T08:48:09Z</time>
      </trkpt>
      <trkpt lat="45.88038" lon="4.73646">
        <ele>189</ele>
        <time>2018-06-16T08:48:10Z</time>
      </trkpt>
      <trkpt lat="45.88032" lon="4.73645">
        <ele>189</ele>
        <time>2018-06-16T08:48:11Z</time>
      </trkpt>
      <trkpt lat="45.88028" lon="4.73646">
        <ele>189</ele>
        <time>2018-06-16T08:48:12Z</time>
      </trkpt>
      <trkpt lat="45.88023" lon="4.73648">
        <ele>189</ele>
        <time>2018-06-16T08:48:13Z</time>
      </trkpt>
      <trkpt lat="45.88014" lon="4.73648">
        <ele>189</ele>
        <time>2018-06-16T08:48:15Z</time>
      </trkpt>
      <trkpt lat="45.8801" lon="4.73648">
        <ele>189</ele>
        <time>2018-06-16T08:48:16Z</time>
      </trkpt>
      <trkpt lat="45.88005" lon="4.73646">
        <ele>189</ele>
        <time>2018-06-16T08:48:17Z</time>
      </trkpt>
      <trkpt lat="45.88" lon="4.73644">
        <ele>190</ele>
        <time>2018-06-16T08:48:18Z</time>
      </trkpt>
      <trkpt lat="45.87995" lon="4.73642">
        <ele>189</ele>
        <time>2018-06-16T08:48:19Z</time>
      </trkpt>
      <trkpt lat="45.8799" lon="4.73642">
        <ele>189</ele>
        <time>2018-06-16T08:48:20Z</time>
      </trkpt>
      <trkpt lat="45.87984" lon="4.7364">
        <ele>189</ele>
        <time>2018-06-16T08:48:21Z</time>
      </trkpt>
      <trkpt lat="45.87979" lon="4.73638">
        <ele>189</ele>
        <time>2018-06-16T08:48:22Z</time>
      </trkpt>
      <trkpt lat="45.87972" lon="4.73636">
        <ele>189</ele>
        <time>2018-06-16T08:48:23Z</time>
      </trkpt>
      <trkpt lat="45.87966" lon="4.73633">
        <ele>189</ele>
        <time>2018-06-16T08:48:24Z</time>
      </trkpt>
      <trkpt lat="45.8796" lon="4.7363">
        <ele>189</ele>
        <time>2018-06-16T08:48:25Z</time>
      </trkpt>
      <trkpt lat="45.87954" lon="4.73629">
        <ele>189</ele>
        <time>2018-06-16T08:48:26Z</time>
      </trkpt>
      <trkpt lat="45.87949" lon="4.73627">
        <ele>189</ele>
        <time>2018-06-16T08:48:27Z</time>
      </trkpt>
      <trkpt lat="45.87943" lon="4.7363">
        <ele>189</ele>
        <time>2018-06-16T08:48:28Z</time>
      </trkpt>
      <trkpt lat="45.87937" lon="4.7363">
        <ele>189</ele>
        <time>2018-06-16T08:48:29Z</time>
      </trkpt>
      <trkpt lat="45.87932" lon="4.73628">
        <ele>189</ele>
        <time>2018-06-16T08:48:30Z</time>
      </trkpt>
      <trkpt lat="45.87927" lon="4.7363">
        <ele>189</ele>
        <time>2018-06-16T08:48:31Z</time>
      </trkpt>
      <trkpt lat="45.87921" lon="4.73628">
        <ele>189</ele>
        <time>2018-06-16T08:48:32Z</time>
      </trkpt>
      <trkpt lat="45.87915" lon="4.73626">
        <ele>190</ele>
        <time>2018-06-16T08:48:33Z</time>
      </trkpt>
      <trkpt lat="45.8791" lon="4.73624">
        <ele>190</ele>
        <time>2018-06-16T08:48:34Z</time>
      </trkpt>
      <trkpt lat="45.87904" lon="4.73621">
        <ele>190</ele>
        <time>2018-06-16T08:48:35Z</time>
      </trkpt>
      <trkpt lat="45.87898" lon="4.7362">
        <ele>190</ele>
        <time>2018-06-16T08:48:36Z</time>
      </trkpt>
      <trkpt lat="45.87893" lon="4.73618">
        <ele>190</ele>
        <time>2018-06-16T08:48:37Z</time>
      </trkpt>
      <trkpt lat="45.87886" lon="4.73618">
        <ele>190</ele>
        <time>2018-06-16T08:48:38Z</time>
      </trkpt>
      <trkpt lat="45.87881" lon="4.73616">
        <ele>190</ele>
        <time>2018-06-16T08:48:39Z</time>
      </trkpt>
      <trkpt lat="45.87877" lon="4.73616">
        <ele>190</ele>
        <time>2018-06-16T08:48:40Z</time>
      </trkpt>
      <trkpt lat="45.8787" lon="4.73619">
        <ele>190</ele>
        <time>2018-06-16T08:48:41Z</time>
      </trkpt>
      <trkpt lat="45.87866" lon="4.7362">
        <ele>190</ele>
        <time>2018-06-16T08:48:42Z</time>
      </trkpt>
      <trkpt lat="45.87861" lon="4.73622">
        <ele>190</ele>
        <time>2018-06-16T08:48:43Z</time>
      </trkpt>
      <trkpt lat="45.87857" lon="4.73624">
        <ele>190</ele>
        <time>2018-06-16T08:48:44Z</time>
      </trkpt>
      <trkpt lat="45.87846" lon="4.73638">
        <ele>191</ele>
        <time>2018-06-16T08:48:47Z</time>
      </trkpt>
      <trkpt lat="45.87839" lon="4.73634">
        <ele>191</ele>
        <time>2018-06-16T08:48:49Z</time>
      </trkpt>
      <trkpt lat="45.87837" lon="4.73632">
        <ele>191</ele>
        <time>2018-06-16T08:48:50Z</time>
      </trkpt>
      <trkpt lat="45.87834" lon="4.73627">
        <ele>191</ele>
        <time>2018-06-16T08:48:51Z</time>
      </trkpt>
      <trkpt lat="45.87832" lon="4.7362">
        <ele>190</ele>
        <time>2018-06-16T08:48:52Z</time>
      </trkpt>
      <trkpt lat="45.87828" lon="4.73613">
        <ele>190</ele>
        <time>2018-06-16T08:48:53Z</time>
      </trkpt>
      <trkpt lat="45.87827" lon="4.73609">
        <ele>190</ele>
        <time>2018-06-16T08:48:54Z</time>
      </trkpt>
      <trkpt lat="45.87825" lon="4.73602">
        <ele>190</ele>
        <time>2018-06-16T08:48:55Z</time>
      </trkpt>
      <trkpt lat="45.87821" lon="4.73597">
        <ele>190</ele>
        <time>2018-06-16T08:48:56Z</time>
      </trkpt>
      <trkpt lat="45.87818" lon="4.7359">
        <ele>190</ele>
        <time>2018-06-16T08:48:57Z</time>
      </trkpt>
      <trkpt lat="45.87815" lon="4.73583">
        <ele>189</ele>
        <time>2018-06-16T08:48:58Z</time>
      </trkpt>
      <trkpt lat="45.87812" lon="4.73576">
        <ele>189</ele>
        <time>2018-06-16T08:48:59Z</time>
      </trkpt>
      <trkpt lat="45.87808" lon="4.73571">
        <ele>189</ele>
        <time>2018-06-16T08:49:00Z</time>
      </trkpt>
      <trkpt lat="45.87805" lon="4.73563">
        <ele>189</ele>
        <time>2018-06-16T08:49:01Z</time>
      </trkpt>
      <trkpt lat="45.87801" lon="4.73557">
        <ele>189</ele>
        <time>2018-06-16T08:49:02Z</time>
      </trkpt>
      <trkpt lat="45.87797" lon="4.73552">
        <ele>189</ele>
        <time>2018-06-16T08:49:03Z</time>
      </trkpt>
      <trkpt lat="45.87793" lon="4.73544">
        <ele>189</ele>
        <time>2018-06-16T08:49:04Z</time>
      </trkpt>
      <trkpt lat="45.8779" lon="4.73538">
        <ele>189</ele>
        <time>2018-06-16T08:49:05Z</time>
      </trkpt>
      <trkpt lat="45.87787" lon="4.7353">
        <ele>189</ele>
        <time>2018-06-16T08:49:06Z</time>
      </trkpt>
      <trkpt lat="45.87783" lon="4.73523">
        <ele>189</ele>
        <time>2018-06-16T08:49:07Z</time>
      </trkpt>
      <trkpt lat="45.8778" lon="4.73517">
        <ele>189</ele>
        <time>2018-06-16T08:49:08Z</time>
      </trkpt>
      <trkpt lat="45.87777" lon="4.73511">
        <ele>189</ele>
        <time>2018-06-16T08:49:09Z</time>
      </trkpt>
      <trkpt lat="45.87775" lon="4.73503">
        <ele>189</ele>
        <time>2018-06-16T08:49:10Z</time>
      </trkpt>
      <trkpt lat="45.87772" lon="4.73496">
        <ele>189</ele>
        <time>2018-06-16T08:49:11Z</time>
      </trkpt>
      <trkpt lat="45.8777" lon="4.7349">
        <ele>189</ele>
        <time>2018-06-16T08:49:12Z</time>
      </trkpt>
      <trkpt lat="45.87767" lon="4.73484">
        <ele>188</ele>
        <time>2018-06-16T08:49:13Z</time>
      </trkpt>
      <trkpt lat="45.87764" lon="4.73477">
        <ele>188</ele>
        <time>2018-06-16T08:49:14Z</time>
      </trkpt>
      <trkpt lat="45.87762" lon="4.73471">
        <ele>188</ele>
        <time>2018-06-16T08:49:15Z</time>
      </trkpt>
      <trkpt lat="45.8776" lon="4.73465">
        <ele>188</ele>
        <time>2018-06-16T08:49:16Z</time>
      </trkpt>
      <trkpt lat="45.87756" lon="4.73459">
        <ele>188</ele>
        <time>2018-06-16T08:49:17Z</time>
      </trkpt>
      <trkpt lat="45.87753" lon="4.73452">
        <ele>188</ele>
        <time>2018-06-16T08:49:18Z</time>
      </trkpt>
      <trkpt lat="45.8775" lon="4.73445">
        <ele>189</ele>
        <time>2018-06-16T08:49:19Z</time>
      </trkpt>
      <trkpt lat="45.87747" lon="4.73438">
        <ele>188</ele>
        <time>2018-06-16T08:49:20Z</time>
      </trkpt>
      <trkpt lat="45.87745" lon="4.73431">
        <ele>188</ele>
        <time>2018-06-16T08:49:21Z</time>
      </trkpt>
      <trkpt lat="45.87742" lon="4.73423">
        <ele>188</ele>
        <time>2018-06-16T08:49:22Z</time>
      </trkpt>
      <trkpt lat="45.87738" lon="4.73416">
        <ele>188</ele>
        <time>2018-06-16T08:49:23Z</time>
      </trkpt>
      <trkpt lat="45.87735" lon="4.73409">
        <ele>188</ele>
        <time>2018-06-16T08:49:24Z</time>
      </trkpt>
      <trkpt lat="45.8773" lon="4.73402">
        <ele>188</ele>
        <time>2018-06-16T08:49:25Z</time>
      </trkpt>
      <trkpt lat="45.87727" lon="4.73396">
        <ele>188</ele>
        <time>2018-06-16T08:49:26Z</time>
      </trkpt>
      <trkpt lat="45.87724" lon="4.73389">
        <ele>188</ele>
        <time>2018-06-16T08:49:27Z</time>
      </trkpt>
      <trkpt lat="45.8772" lon="4.73382">
        <ele>187</ele>
        <time>2018-06-16T08:49:28Z</time>
      </trkpt>
      <trkpt lat="45.87714" lon="4.73377">
        <ele>187</ele>
        <time>2018-06-16T08:49:29Z</time>
      </trkpt>
      <trkpt lat="45.8771" lon="4.7337">
        <ele>187</ele>
        <time>2018-06-16T08:49:30Z</time>
      </trkpt>
      <trkpt lat="45.87708" lon="4.73364">
        <ele>187</ele>
        <time>2018-06-16T08:49:31Z</time>
      </trkpt>
      <trkpt lat="45.87705" lon="4.73357">
        <ele>187</ele>
        <time>2018-06-16T08:49:32Z</time>
      </trkpt>
      <trkpt lat="45.87703" lon="4.73351">
        <ele>187</ele>
        <time>2018-06-16T08:49:33Z</time>
      </trkpt>
      <trkpt lat="45.877" lon="4.73346">
        <ele>187</ele>
        <time>2018-06-16T08:49:34Z</time>
      </trkpt>
      <trkpt lat="45.87697" lon="4.73339">
        <ele>187</ele>
        <time>2018-06-16T08:49:35Z</time>
      </trkpt>
      <trkpt lat="45.87694" lon="4.73332">
        <ele>188</ele>
        <time>2018-06-16T08:49:36Z</time>
      </trkpt>
      <trkpt lat="45.87691" lon="4.73326">
        <ele>188</ele>
        <time>2018-06-16T08:49:37Z</time>
      </trkpt>
      <trkpt lat="45.87688" lon="4.73319">
        <ele>188</ele>
        <time>2018-06-16T08:49:38Z</time>
      </trkpt>
      <trkpt lat="45.87686" lon="4.73313">
        <ele>188</ele>
        <time>2018-06-16T08:49:39Z</time>
      </trkpt>
      <trkpt lat="45.87684" lon="4.73306">
        <ele>188</ele>
        <time>2018-06-16T08:49:40Z</time>
      </trkpt>
      <trkpt lat="45.8768" lon="4.733">
        <ele>188</ele>
        <time>2018-06-16T08:49:41Z</time>
      </trkpt>
      <trkpt lat="45.87678" lon="4.73293">
        <ele>188</ele>
        <time>2018-06-16T08:49:42Z</time>
      </trkpt>
      <trkpt lat="45.87675" lon="4.73285">
        <ele>188</ele>
        <time>2018-06-16T08:49:43Z</time>
      </trkpt>
      <trkpt lat="45.87671" lon="4.73278">
        <ele>188</ele>
        <time>2018-06-16T08:49:44Z</time>
      </trkpt>
      <trkpt lat="45.87668" lon="4.73271">
        <ele>188</ele>
        <time>2018-06-16T08:49:45Z</time>
      </trkpt>
      <trkpt lat="45.87666" lon="4.73266">
        <ele>189</ele>
        <time>2018-06-16T08:49:46Z</time>
      </trkpt>
      <trkpt lat="45.87662" lon="4.7326">
        <ele>189</ele>
        <time>2018-06-16T08:49:47Z</time>
      </trkpt>
      <trkpt lat="45.87657" lon="4.73252">
        <ele>189</ele>
        <time>2018-06-16T08:49:48Z</time>
      </trkpt>
      <trkpt lat="45.87654" lon="4.73244">
        <ele>188</ele>
        <time>2018-06-16T08:49:49Z</time>
      </trkpt>
      <trkpt lat="45.87651" lon="4.73238">
        <ele>188</ele>
        <time>2018-06-16T08:49:50Z</time>
      </trkpt>
      <trkpt lat="45.87647" lon="4.73232">
        <ele>188</ele>
        <time>2018-06-16T08:49:51Z</time>
      </trkpt>
      <trkpt lat="45.87643" lon="4.73225">
        <ele>188</ele>
        <time>2018-06-16T08:49:52Z</time>
      </trkpt>
      <trkpt lat="45.87639" lon="4.73218">
        <ele>188</ele>
        <time>2018-06-16T08:49:53Z</time>
      </trkpt>
      <trkpt lat="45.87635" lon="4.73211">
        <ele>188</ele>
        <time>2018-06-16T08:49:54Z</time>
      </trkpt>
      <trkpt lat="45.87632" lon="4.73205">
        <ele>188</ele>
        <time>2018-06-16T08:49:55Z</time>
      </trkpt>
      <trkpt lat="45.87628" lon="4.73199">
        <ele>188</ele>
        <time>2018-06-16T08:49:56Z</time>
      </trkpt>
      <trkpt lat="45.87625" lon="4.73192">
        <ele>188</ele>
        <time>2018-06-16T08:49:57Z</time>
      </trkpt>
      <trkpt lat="45.87621" lon="4.73185">
        <ele>188</ele>
        <time>2018-06-16T08:49:58Z</time>
      </trkpt>
      <trkpt lat="45.87618" lon="4.73178">
        <ele>187</ele>
        <time>2018-06-16T08:49:59Z</time>
      </trkpt>
      <trkpt lat="45.87613" lon="4.73171">
        <ele>187</ele>
        <time>2018-06-16T08:50:00Z</time>
      </trkpt>
      <trkpt lat="45.8761" lon="4.73165">
        <ele>187</ele>
        <time>2018-06-16T08:50:01Z</time>
      </trkpt>
      <trkpt lat="45.87606" lon="4.73158">
        <ele>187</ele>
        <time>2018-06-16T08:50:02Z</time>
      </trkpt>
      <trkpt lat="45.87602" lon="4.73151">
        <ele>187</ele>
        <time>2018-06-16T08:50:03Z</time>
      </trkpt>
      <trkpt lat="45.87599" lon="4.73144">
        <ele>187</ele>
        <time>2018-06-16T08:50:04Z</time>
      </trkpt>
      <trkpt lat="45.87596" lon="4.73136">
        <ele>187</ele>
        <time>2018-06-16T08:50:05Z</time>
      </trkpt>
      <trkpt lat="45.87592" lon="4.73129">
        <ele>187</ele>
        <time>2018-06-16T08:50:06Z</time>
      </trkpt>
      <trkpt lat="45.87588" lon="4.7312">
        <ele>188</ele>
        <time>2018-06-16T08:50:07Z</time>
      </trkpt>
      <trkpt lat="45.87586" lon="4.73114">
        <ele>188</ele>
        <time>2018-06-16T08:50:08Z</time>
      </trkpt>
      <trkpt lat="45.87582" lon="4.73106">
        <ele>188</ele>
        <time>2018-06-16T08:50:09Z</time>
      </trkpt>
      <trkpt lat="45.87579" lon="4.73098">
        <ele>188</ele>
        <time>2018-06-16T08:50:10Z</time>
      </trkpt>
      <trkpt lat="45.87577" lon="4.73089">
        <ele>188</ele>
        <time>2018-06-16T08:50:11Z</time>
      </trkpt>
      <trkpt lat="45.87572" lon="4.73081">
        <ele>188</ele>
        <time>2018-06-16T08:50:12Z</time>
      </trkpt>
      <trkpt lat="45.87569" lon="4.73074">
        <ele>188</ele>
        <time>2018-06-16T08:50:13Z</time>
      </trkpt>
      <trkpt lat="45.87565" lon="4.73067">
        <ele>188</ele>
        <time>2018-06-16T08:50:14Z</time>
      </trkpt>
      <trkpt lat="45.87562" lon="4.73058">
        <ele>188</ele>
        <time>2018-06-16T08:50:15Z</time>
      </trkpt>
      <trkpt lat="45.87559" lon="4.73051">
        <ele>188</ele>
        <time>2018-06-16T08:50:16Z</time>
      </trkpt>
      <trkpt lat="45.87554" lon="4.73045">
        <ele>188</ele>
        <time>2018-06-16T08:50:17Z</time>
      </trkpt>
      <trkpt lat="45.87551" lon="4.73038">
        <ele>188</ele>
        <time>2018-06-16T08:50:18Z</time>
      </trkpt>
      <trkpt lat="45.87548" lon="4.73032">
        <ele>188</ele>
        <time>2018-06-16T08:50:19Z</time>
      </trkpt>
      <trkpt lat="45.87545" lon="4.73026">
        <ele>188</ele>
        <time>2018-06-16T08:50:20Z</time>
      </trkpt>
      <trkpt lat="45.87543" lon="4.73018">
        <ele>188</ele>
        <time>2018-06-16T08:50:21Z</time>
      </trkpt>
      <trkpt lat="45.87537" lon="4.73011">
        <ele>187</ele>
        <time>2018-06-16T08:50:22Z</time>
      </trkpt>
      <trkpt lat="45.87535" lon="4.73004">
        <ele>187</ele>
        <time>2018-06-16T08:50:23Z</time>
      </trkpt>
      <trkpt lat="45.87529" lon="4.72998">
        <ele>187</ele>
        <time>2018-06-16T08:50:24Z</time>
      </trkpt>
      <trkpt lat="45.87525" lon="4.72991">
        <ele>187</ele>
        <time>2018-06-16T08:50:25Z</time>
      </trkpt>
      <trkpt lat="45.87522" lon="4.72984">
        <ele>187</ele>
        <time>2018-06-16T08:50:26Z</time>
      </trkpt>
      <trkpt lat="45.87518" lon="4.72976">
        <ele>187</ele>
        <time>2018-06-16T08:50:27Z</time>
      </trkpt>
      <trkpt lat="45.87515" lon="4.7297">
        <ele>187</ele>
        <time>2018-06-16T08:50:28Z</time>
      </trkpt>
      <trkpt lat="45.87512" lon="4.72964">
        <ele>187</ele>
        <time>2018-06-16T08:50:29Z</time>
      </trkpt>
      <trkpt lat="45.87511" lon="4.72956">
        <ele>187</ele>
        <time>2018-06-16T08:50:30Z</time>
      </trkpt>
      <trkpt lat="45.87508" lon="4.7295">
        <ele>187</ele>
        <time>2018-06-16T08:50:31Z</time>
      </trkpt>
      <trkpt lat="45.87505" lon="4.72945">
        <ele>187</ele>
        <time>2018-06-16T08:50:32Z</time>
      </trkpt>
      <trkpt lat="45.875" lon="4.7294">
        <ele>188</ele>
        <time>2018-06-16T08:50:33Z</time>
      </trkpt>
      <trkpt lat="45.87495" lon="4.72937">
        <ele>188</ele>
        <time>2018-06-16T08:50:34Z</time>
      </trkpt>
      <trkpt lat="45.87489" lon="4.72933">
        <ele>188</ele>
        <time>2018-06-16T08:50:35Z</time>
      </trkpt>
      <trkpt lat="45.87484" lon="4.7293">
        <ele>188</ele>
        <time>2018-06-16T08:50:36Z</time>
      </trkpt>
      <trkpt lat="45.87477" lon="4.72924">
        <ele>188</ele>
        <time>2018-06-16T08:50:38Z</time>
      </trkpt>
      <trkpt lat="45.87473" lon="4.72919">
        <ele>188</ele>
        <time>2018-06-16T08:50:39Z</time>
      </trkpt>
      <trkpt lat="45.87466" lon="4.72911">
        <ele>188</ele>
        <time>2018-06-16T08:50:41Z</time>
      </trkpt>
      <trkpt lat="45.87465" lon="4.72906">
        <ele>188</ele>
        <time>2018-06-16T08:50:42Z</time>
      </trkpt>
      <trkpt lat="45.87462" lon="4.72894">
        <ele>188</ele>
        <time>2018-06-16T08:50:44Z</time>
      </trkpt>
      <trkpt lat="45.8746" lon="4.72889">
        <ele>188</ele>
        <time>2018-06-16T08:50:45Z</time>
      </trkpt>
      <trkpt lat="45.87458" lon="4.72879">
        <ele>188</ele>
        <time>2018-06-16T08:50:47Z</time>
      </trkpt>
      <trkpt lat="45.87456" lon="4.72872">
        <ele>188</ele>
        <time>2018-06-16T08:50:48Z</time>
      </trkpt>
      <trkpt lat="45.87454" lon="4.72866">
        <ele>188</ele>
        <time>2018-06-16T08:50:49Z</time>
      </trkpt>
      <trkpt lat="45.87452" lon="4.7286">
        <ele>188</ele>
        <time>2018-06-16T08:50:50Z</time>
      </trkpt>
      <trkpt lat="45.87447" lon="4.72853">
        <ele>188</ele>
        <time>2018-06-16T08:50:51Z</time>
      </trkpt>
      <trkpt lat="45.87444" lon="4.72846">
        <ele>188</ele>
        <time>2018-06-16T08:50:52Z</time>
      </trkpt>
      <trkpt lat="45.87441" lon="4.72838">
        <ele>188</ele>
        <time>2018-06-16T08:50:53Z</time>
      </trkpt>
      <trkpt lat="45.87438" lon="4.72831">
        <ele>189</ele>
        <time>2018-06-16T08:50:54Z</time>
      </trkpt>
      <trkpt lat="45.87435" lon="4.72825">
        <ele>189</ele>
        <time>2018-06-16T08:50:55Z</time>
      </trkpt>
      <trkpt lat="45.87432" lon="4.72817">
        <ele>189</ele>
        <time>2018-06-16T08:50:56Z</time>
      </trkpt>
      <trkpt lat="45.87428" lon="4.7281">
        <ele>189</ele>
        <time>2018-06-16T08:50:57Z</time>
      </trkpt>
      <trkpt lat="45.87425" lon="4.72803">
        <ele>189</ele>
        <time>2018-06-16T08:50:58Z</time>
      </trkpt>
      <trkpt lat="45.87422" lon="4.72794">
        <ele>189</ele>
        <time>2018-06-16T08:50:59Z</time>
      </trkpt>
      <trkpt lat="45.8742" lon="4.72787">
        <ele>189</ele>
        <time>2018-06-16T08:51:00Z</time>
      </trkpt>
      <trkpt lat="45.87418" lon="4.72782">
        <ele>189</ele>
        <time>2018-06-16T08:51:01Z</time>
      </trkpt>
      <trkpt lat="45.87415" lon="4.72776">
        <ele>189</ele>
        <time>2018-06-16T08:51:02Z</time>
      </trkpt>
      <trkpt lat="45.8741" lon="4.72771">
        <ele>189</ele>
        <time>2018-06-16T08:51:03Z</time>
      </trkpt>
      <trkpt lat="45.87408" lon="4.72765">
        <ele>189</ele>
        <time>2018-06-16T08:51:04Z</time>
      </trkpt>
      <trkpt lat="45.87406" lon="4.72759">
        <ele>189</ele>
        <time>2018-06-16T08:51:05Z</time>
      </trkpt>
      <trkpt lat="45.874" lon="4.72754">
        <ele>189</ele>
        <time>2018-06-16T08:51:06Z</time>
      </trkpt>
      <trkpt lat="45.87396" lon="4.72743">
        <ele>189</ele>
        <time>2018-06-16T08:51:08Z</time>
      </trkpt>
      <trkpt lat="45.87393" lon="4.72738">
        <ele>190</ele>
        <time>2018-06-16T08:51:09Z</time>
      </trkpt>
      <trkpt lat="45.87389" lon="4.72734">
        <ele>190</ele>
        <time>2018-06-16T08:51:10Z</time>
      </trkpt>
      <trkpt lat="45.87385" lon="4.72729">
        <ele>190</ele>
        <time>2018-06-16T08:51:11Z</time>
      </trkpt>
      <trkpt lat="45.87382" lon="4.72725">
        <ele>190</ele>
        <time>2018-06-16T08:51:12Z</time>
      </trkpt>
      <trkpt lat="45.87379" lon="4.72718">
        <ele>190</ele>
        <time>2018-06-16T08:51:13Z</time>
      </trkpt>
      <trkpt lat="45.87378" lon="4.72713">
        <ele>190</ele>
        <time>2018-06-16T08:51:14Z</time>
      </trkpt>
      <trkpt lat="45.87375" lon="4.72706">
        <ele>190</ele>
        <time>2018-06-16T08:51:15Z</time>
      </trkpt>
      <trkpt lat="45.87372" lon="4.727">
        <ele>190</ele>
        <time>2018-06-16T08:51:16Z</time>
      </trkpt>
      <trkpt lat="45.8737" lon="4.72694">
        <ele>190</ele>
        <time>2018-06-16T08:51:17Z</time>
      </trkpt>
      <trkpt lat="45.87367" lon="4.72688">
        <ele>190</ele>
        <time>2018-06-16T08:51:18Z</time>
      </trkpt>
      <trkpt lat="45.87362" lon="4.72682">
        <ele>190</ele>
        <time>2018-06-16T08:51:19Z</time>
      </trkpt>
      <trkpt lat="45.87358" lon="4.72677">
        <ele>190</ele>
        <time>2018-06-16T08:51:20Z</time>
      </trkpt>
      <trkpt lat="45.87354" lon="4.72672">
        <ele>190</ele>
        <time>2018-06-16T08:51:21Z</time>
      </trkpt>
      <trkpt lat="45.87351" lon="4.72666">
        <ele>190</ele>
        <time>2018-06-16T08:51:22Z</time>
      </trkpt>
      <trkpt lat="45.87347" lon="4.72661">
        <ele>190</ele>
        <time>2018-06-16T08:51:23Z</time>
      </trkpt>
      <trkpt lat="45.87341" lon="4.72659">
        <ele>190</ele>
        <time>2018-06-16T08:51:24Z</time>
      </trkpt>
      <trkpt lat="45.87337" lon="4.72654">
        <ele>190</ele>
        <time>2018-06-16T08:51:25Z</time>
      </trkpt>
      <trkpt lat="45.87333" lon="4.7265">
        <ele>192</ele>
        <time>2018-06-16T08:51:26Z</time>
      </trkpt>
      <trkpt lat="45.87329" lon="4.72645">
        <ele>192</ele>
        <time>2018-06-16T08:51:27Z</time>
      </trkpt>
      <trkpt lat="45.87322" lon="4.72642">
        <ele>192</ele>
        <time>2018-06-16T08:51:28Z</time>
      </trkpt>
      <trkpt lat="45.87319" lon="4.7264">
        <ele>193</ele>
        <time>2018-06-16T08:51:29Z</time>
      </trkpt>
      <trkpt lat="45.87315" lon="4.72635">
        <ele>193</ele>
        <time>2018-06-16T08:51:30Z</time>
      </trkpt>
      <trkpt lat="45.87311" lon="4.72631">
        <ele>193</ele>
        <time>2018-06-16T08:51:31Z</time>
      </trkpt>
      <trkpt lat="45.87304" lon="4.72622">
        <ele>193</ele>
        <time>2018-06-16T08:51:33Z</time>
      </trkpt>
      <trkpt lat="45.87301" lon="4.72617">
        <ele>194</ele>
        <time>2018-06-16T08:51:34Z</time>
      </trkpt>
      <trkpt lat="45.87298" lon="4.72611">
        <ele>194</ele>
        <time>2018-06-16T08:51:35Z</time>
      </trkpt>
      <trkpt lat="45.87293" lon="4.72607">
        <ele>194</ele>
        <time>2018-06-16T08:51:36Z</time>
      </trkpt>
      <trkpt lat="45.8729" lon="4.72602">
        <ele>194</ele>
        <time>2018-06-16T08:51:37Z</time>
      </trkpt>
      <trkpt lat="45.87287" lon="4.72597">
        <ele>194</ele>
        <time>2018-06-16T08:51:38Z</time>
      </trkpt>
      <trkpt lat="45.87284" lon="4.72591">
        <ele>194</ele>
        <time>2018-06-16T08:51:39Z</time>
      </trkpt>
      <trkpt lat="45.87281" lon="4.72586">
        <ele>195</ele>
        <time>2018-06-16T08:51:40Z</time>
      </trkpt>
      <trkpt lat="45.87278" lon="4.72581">
        <ele>194</ele>
        <time>2018-06-16T08:51:41Z</time>
      </trkpt>
      <trkpt lat="45.87274" lon="4.72577">
        <ele>194</ele>
        <time>2018-06-16T08:51:42Z</time>
      </trkpt>
      <trkpt lat="45.87267" lon="4.7257">
        <ele>195</ele>
        <time>2018-06-16T08:51:44Z</time>
      </trkpt>
      <trkpt lat="45.87265" lon="4.72566">
        <ele>195</ele>
        <time>2018-06-16T08:51:45Z</time>
      </trkpt>
      <trkpt lat="45.87258" lon="4.72558">
        <ele>194</ele>
        <time>2018-06-16T08:51:47Z</time>
      </trkpt>
      <trkpt lat="45.87257" lon="4.72555">
        <ele>194</ele>
        <time>2018-06-16T08:51:48Z</time>
      </trkpt>
      <trkpt lat="45.87255" lon="4.72548">
        <ele>194</ele>
        <time>2018-06-16T08:51:49Z</time>
      </trkpt>
      <trkpt lat="45.87252" lon="4.72544">
        <ele>194</ele>
        <time>2018-06-16T08:51:50Z</time>
      </trkpt>
      <trkpt lat="45.87252" lon="4.72532">
        <ele>193</ele>
        <time>2018-06-16T08:51:55Z</time>
      </trkpt>
      <trkpt lat="45.87249" lon="4.72521">
        <ele>196</ele>
        <time>2018-06-16T08:51:56Z</time>
      </trkpt>
      <trkpt lat="45.87245" lon="4.72517">
        <ele>196</ele>
        <time>2018-06-16T08:51:57Z</time>
      </trkpt>
      <trkpt lat="45.87242" lon="4.72512">
        <ele>195</ele>
        <time>2018-06-16T08:51:58Z</time>
      </trkpt>
      <trkpt lat="45.8724" lon="4.72506">
        <ele>195</ele>
        <time>2018-06-16T08:51:59Z</time>
      </trkpt>
      <trkpt lat="45.87238" lon="4.72499">
        <ele>194</ele>
        <time>2018-06-16T08:52:00Z</time>
      </trkpt>
      <trkpt lat="45.87233" lon="4.72493">
        <ele>194</ele>
        <time>2018-06-16T08:52:01Z</time>
      </trkpt>
      <trkpt lat="45.87229" lon="4.72487">
        <ele>194</ele>
        <time>2018-06-16T08:52:02Z</time>
      </trkpt>
      <trkpt lat="45.87225" lon="4.72485">
        <ele>194</ele>
        <time>2018-06-16T08:52:03Z</time>
      </trkpt>
      <trkpt lat="45.87221" lon="4.72479">
        <ele>194</ele>
        <time>2018-06-16T08:52:04Z</time>
      </trkpt>
      <trkpt lat="45.87218" lon="4.72474">
        <ele>194</ele>
        <time>2018-06-16T08:52:05Z</time>
      </trkpt>
      <trkpt lat="45.87216" lon="4.72468">
        <ele>194</ele>
        <time>2018-06-16T08:52:06Z</time>
      </trkpt>
      <trkpt lat="45.87211" lon="4.72457">
        <ele>194</ele>
        <time>2018-06-16T08:52:08Z</time>
      </trkpt>
      <trkpt lat="45.87207" lon="4.72452">
        <ele>194</ele>
        <time>2018-06-16T08:52:09Z</time>
      </trkpt>
      <trkpt lat="45.87201" lon="4.72444">
        <ele>194</ele>
        <time>2018-06-16T08:52:11Z</time>
      </trkpt>
      <trkpt lat="45.87197" lon="4.72439">
        <ele>194</ele>
        <time>2018-06-16T08:52:12Z</time>
      </trkpt>
      <trkpt lat="45.87189" lon="4.72433">
        <ele>194</ele>
        <time>2018-06-16T08:52:14Z</time>
      </trkpt>
      <trkpt lat="45.87185" lon="4.72429">
        <ele>194</ele>
        <time>2018-06-16T08:52:15Z</time>
      </trkpt>
      <trkpt lat="45.87179" lon="4.72423">
        <ele>194</ele>
        <time>2018-06-16T08:52:17Z</time>
      </trkpt>
      <trkpt lat="45.87176" lon="4.72419">
        <ele>194</ele>
        <time>2018-06-16T08:52:18Z</time>
      </trkpt>
      <trkpt lat="45.87171" lon="4.72409">
        <ele>193</ele>
        <time>2018-06-16T08:52:20Z</time>
      </trkpt>
      <trkpt lat="45.87167" lon="4.72403">
        <ele>192</ele>
        <time>2018-06-16T08:52:21Z</time>
      </trkpt>
      <trkpt lat="45.87166" lon="4.72396">
        <ele>196</ele>
        <time>2018-06-16T08:52:22Z</time>
      </trkpt>
      <trkpt lat="45.87163" lon="4.72389">
        <ele>197</ele>
        <time>2018-06-16T08:52:23Z</time>
      </trkpt>
      <trkpt lat="45.87159" lon="4.72383">
        <ele>197</ele>
        <time>2018-06-16T08:52:24Z</time>
      </trkpt>
      <trkpt lat="45.87155" lon="4.72377">
        <ele>197</ele>
        <time>2018-06-16T08:52:25Z</time>
      </trkpt>
      <trkpt lat="45.87152" lon="4.7237">
        <ele>197</ele>
        <time>2018-06-16T08:52:26Z</time>
      </trkpt>
      <trkpt lat="45.87149" lon="4.72363">
        <ele>197</ele>
        <time>2018-06-16T08:52:27Z</time>
      </trkpt>
      <trkpt lat="45.87147" lon="4.72355">
        <ele>196</ele>
        <time>2018-06-16T08:52:28Z</time>
      </trkpt>
      <trkpt lat="45.87144" lon="4.7235">
        <ele>196</ele>
        <time>2018-06-16T08:52:29Z</time>
      </trkpt>
      <trkpt lat="45.87141" lon="4.72344">
        <ele>196</ele>
        <time>2018-06-16T08:52:30Z</time>
      </trkpt>
      <trkpt lat="45.87139" lon="4.72337">
        <ele>197</ele>
        <time>2018-06-16T08:52:31Z</time>
      </trkpt>
      <trkpt lat="45.87135" lon="4.7233">
        <ele>195</ele>
        <time>2018-06-16T08:52:32Z</time>
      </trkpt>
      <trkpt lat="45.87133" lon="4.72323">
        <ele>196</ele>
        <time>2018-06-16T08:52:33Z</time>
      </trkpt>
      <trkpt lat="45.8713" lon="4.72317">
        <ele>196</ele>
        <time>2018-06-16T08:52:34Z</time>
      </trkpt>
      <trkpt lat="45.87126" lon="4.7231">
        <ele>196</ele>
        <time>2018-06-16T08:52:35Z</time>
      </trkpt>
      <trkpt lat="45.87124" lon="4.72303">
        <ele>196</ele>
        <time>2018-06-16T08:52:36Z</time>
      </trkpt>
      <trkpt lat="45.87121" lon="4.72298">
        <ele>197</ele>
        <time>2018-06-16T08:52:37Z</time>
      </trkpt>
      <trkpt lat="45.87117" lon="4.72292">
        <ele>197</ele>
        <time>2018-06-16T08:52:38Z</time>
      </trkpt>
      <trkpt lat="45.87114" lon="4.72286">
        <ele>197</ele>
        <time>2018-06-16T08:52:39Z</time>
      </trkpt>
      <trkpt lat="45.8711" lon="4.7228">
        <ele>197</ele>
        <time>2018-06-16T08:52:40Z</time>
      </trkpt>
      <trkpt lat="45.87105" lon="4.72273">
        <ele>197</ele>
        <time>2018-06-16T08:52:41Z</time>
      </trkpt>
      <trkpt lat="45.87099" lon="4.72267">
        <ele>197</ele>
        <time>2018-06-16T08:52:42Z</time>
      </trkpt>
      <trkpt lat="45.87095" lon="4.72262">
        <ele>198</ele>
        <time>2018-06-16T08:52:43Z</time>
      </trkpt>
      <trkpt lat="45.87091" lon="4.72257">
        <ele>198</ele>
        <time>2018-06-16T08:52:44Z</time>
      </trkpt>
      <trkpt lat="45.87086" lon="4.72252">
        <ele>199</ele>
        <time>2018-06-16T08:52:45Z</time>
      </trkpt>
      <trkpt lat="45.87082" lon="4.72246">
        <ele>199</ele>
        <time>2018-06-16T08:52:46Z</time>
      </trkpt>
      <trkpt lat="45.87077" lon="4.7224">
        <ele>200</ele>
        <time>2018-06-16T08:52:47Z</time>
      </trkpt>
      <trkpt lat="45.87071" lon="4.72234">
        <ele>200</ele>
        <time>2018-06-16T08:52:48Z</time>
      </trkpt>
      <trkpt lat="45.87068" lon="4.7223">
        <ele>200</ele>
        <time>2018-06-16T08:52:49Z</time>
      </trkpt>
      <trkpt lat="45.87062" lon="4.72225">
        <ele>200</ele>
        <time>2018-06-16T08:52:50Z</time>
      </trkpt>
      <trkpt lat="45.87058" lon="4.7222">
        <ele>200</ele>
        <time>2018-06-16T08:52:51Z</time>
      </trkpt>
      <trkpt lat="45.87054" lon="4.72217">
        <ele>200</ele>
        <time>2018-06-16T08:52:52Z</time>
      </trkpt>
      <trkpt lat="45.87049" lon="4.72213">
        <ele>200</ele>
        <time>2018-06-16T08:52:53Z</time>
      </trkpt>
      <trkpt lat="45.87042" lon="4.72208">
        <ele>201</ele>
        <time>2018-06-16T08:52:54Z</time>
      </trkpt>
      <trkpt lat="45.87036" lon="4.72205">
        <ele>201</ele>
        <time>2018-06-16T08:52:55Z</time>
      </trkpt>
      <trkpt lat="45.87031" lon="4.72201">
        <ele>201</ele>
        <time>2018-06-16T08:52:56Z</time>
      </trkpt>
      <trkpt lat="45.87026" lon="4.72198">
        <ele>201</ele>
        <time>2018-06-16T08:52:57Z</time>
      </trkpt>
      <trkpt lat="45.87021" lon="4.72195">
        <ele>201</ele>
        <time>2018-06-16T08:52:58Z</time>
      </trkpt>
      <trkpt lat="45.87015" lon="4.72191">
        <ele>201</ele>
        <time>2018-06-16T08:52:59Z</time>
      </trkpt>
      <trkpt lat="45.8701" lon="4.72186">
        <ele>201</ele>
        <time>2018-06-16T08:53:00Z</time>
      </trkpt>
      <trkpt lat="45.87005" lon="4.72182">
        <ele>201</ele>
        <time>2018-06-16T08:53:01Z</time>
      </trkpt>
      <trkpt lat="45.87" lon="4.72179">
        <ele>205</ele>
        <time>2018-06-16T08:53:02Z</time>
      </trkpt>
      <trkpt lat="45.86995" lon="4.72175">
        <ele>205</ele>
        <time>2018-06-16T08:53:03Z</time>
      </trkpt>
      <trkpt lat="45.86988" lon="4.72177">
        <ele>207</ele>
        <time>2018-06-16T08:53:04Z</time>
      </trkpt>
      <trkpt lat="45.86983" lon="4.72174">
        <ele>207</ele>
        <time>2018-06-16T08:53:05Z</time>
      </trkpt>
      <trkpt lat="45.86978" lon="4.72171">
        <ele>208</ele>
        <time>2018-06-16T08:53:06Z</time>
      </trkpt>
      <trkpt lat="45.86972" lon="4.72167">
        <ele>209</ele>
        <time>2018-06-16T08:53:07Z</time>
      </trkpt>
      <trkpt lat="45.86968" lon="4.72164">
        <ele>201</ele>
        <time>2018-06-16T08:53:08Z</time>
      </trkpt>
      <trkpt lat="45.86962" lon="4.7216">
        <ele>201</ele>
        <time>2018-06-16T08:53:09Z</time>
      </trkpt>
      <trkpt lat="45.86955" lon="4.72155">
        <ele>202</ele>
        <time>2018-06-16T08:53:10Z</time>
      </trkpt>
      <trkpt lat="45.86949" lon="4.72152">
        <ele>202</ele>
        <time>2018-06-16T08:53:11Z</time>
      </trkpt>
      <trkpt lat="45.86944" lon="4.72148">
        <ele>202</ele>
        <time>2018-06-16T08:53:12Z</time>
      </trkpt>
      <trkpt lat="45.86939" lon="4.72144">
        <ele>202</ele>
        <time>2018-06-16T08:53:13Z</time>
      </trkpt>
      <trkpt lat="45.86933" lon="4.72141">
        <ele>202</ele>
        <time>2018-06-16T08:53:14Z</time>
      </trkpt>
      <trkpt lat="45.86928" lon="4.72138">
        <ele>202</ele>
        <time>2018-06-16T08:53:15Z</time>
      </trkpt>
      <trkpt lat="45.86923" lon="4.72134">
        <ele>202</ele>
        <time>2018-06-16T08:53:16Z</time>
      </trkpt>
      <trkpt lat="45.86916" lon="4.72133">
        <ele>204</ele>
        <time>2018-06-16T08:53:17Z</time>
      </trkpt>
      <trkpt lat="45.8691" lon="4.72131">
        <ele>203</ele>
        <time>2018-06-16T08:53:18Z</time>
      </trkpt>
      <trkpt lat="45.86905" lon="4.72129">
        <ele>203</ele>
        <time>2018-06-16T08:53:19Z</time>
      </trkpt>
      <trkpt lat="45.869" lon="4.72127">
        <ele>203</ele>
        <time>2018-06-16T08:53:20Z</time>
      </trkpt>
      <trkpt lat="45.86895" lon="4.72125">
        <ele>202</ele>
        <time>2018-06-16T08:53:21Z</time>
      </trkpt>
      <trkpt lat="45.8689" lon="4.72122">
        <ele>202</ele>
        <time>2018-06-16T08:53:22Z</time>
      </trkpt>
      <trkpt lat="45.86885" lon="4.7212">
        <ele>202</ele>
        <time>2018-06-16T08:53:23Z</time>
      </trkpt>
      <trkpt lat="45.86879" lon="4.72116">
        <ele>202</ele>
        <time>2018-06-16T08:53:24Z</time>
      </trkpt>
      <trkpt lat="45.86873" lon="4.72114">
        <ele>201</ele>
        <time>2018-06-16T08:53:25Z</time>
      </trkpt>
      <trkpt lat="45.86869" lon="4.72112">
        <ele>201</ele>
        <time>2018-06-16T08:53:26Z</time>
      </trkpt>
      <trkpt lat="45.86862" lon="4.72112">
        <ele>201</ele>
        <time>2018-06-16T08:53:27Z</time>
      </trkpt>
      <trkpt lat="45.86857" lon="4.72109">
        <ele>201</ele>
        <time>2018-06-16T08:53:28Z</time>
      </trkpt>
      <trkpt lat="45.86852" lon="4.72104">
        <ele>200</ele>
        <time>2018-06-16T08:53:29Z</time>
      </trkpt>
      <trkpt lat="45.86846" lon="4.721">
        <ele>199</ele>
        <time>2018-06-16T08:53:30Z</time>
      </trkpt>
      <trkpt lat="45.86841" lon="4.72096">
        <ele>197</ele>
        <time>2018-06-16T08:53:31Z</time>
      </trkpt>
      <trkpt lat="45.86834" lon="4.72094">
        <ele>197</ele>
        <time>2018-06-16T08:53:32Z</time>
      </trkpt>
      <trkpt lat="45.86828" lon="4.72091">
        <ele>197</ele>
        <time>2018-06-16T08:53:33Z</time>
      </trkpt>
      <trkpt lat="45.86822" lon="4.72088">
        <ele>198</ele>
        <time>2018-06-16T08:53:34Z</time>
      </trkpt>
      <trkpt lat="45.86816" lon="4.72086">
        <ele>199</ele>
        <time>2018-06-16T08:53:35Z</time>
      </trkpt>
      <trkpt lat="45.8681" lon="4.72081">
        <ele>194</ele>
        <time>2018-06-16T08:53:36Z</time>
      </trkpt>
      <trkpt lat="45.86804" lon="4.72078">
        <ele>194</ele>
        <time>2018-06-16T08:53:37Z</time>
      </trkpt>
      <trkpt lat="45.86798" lon="4.72075">
        <ele>194</ele>
        <time>2018-06-16T08:53:38Z</time>
      </trkpt>
      <trkpt lat="45.86791" lon="4.72072">
        <ele>194</ele>
        <time>2018-06-16T08:53:39Z</time>
      </trkpt>
      <trkpt lat="45.86784" lon="4.72069">
        <ele>194</ele>
        <time>2018-06-16T08:53:40Z</time>
      </trkpt>
      <trkpt lat="45.86777" lon="4.72066">
        <ele>194</ele>
        <time>2018-06-16T08:53:41Z</time>
      </trkpt>
      <trkpt lat="45.8677" lon="4.72063">
        <ele>195</ele>
        <time>2018-06-16T08:53:42Z</time>
      </trkpt>
      <trkpt lat="45.86763" lon="4.72061">
        <ele>195</ele>
        <time>2018-06-16T08:53:43Z</time>
      </trkpt>
      <trkpt lat="45.86758" lon="4.72058">
        <ele>195</ele>
        <time>2018-06-16T08:53:44Z</time>
      </trkpt>
      <trkpt lat="45.86753" lon="4.72054">
        <ele>195</ele>
        <time>2018-06-16T08:53:45Z</time>
      </trkpt>
      <trkpt lat="45.86747" lon="4.7205">
        <ele>197</ele>
        <time>2018-06-16T08:53:46Z</time>
      </trkpt>
      <trkpt lat="45.86741" lon="4.72047">
        <ele>197</ele>
        <time>2018-06-16T08:53:47Z</time>
      </trkpt>
      <trkpt lat="45.86737" lon="4.72044">
        <ele>197</ele>
        <time>2018-06-16T08:53:48Z</time>
      </trkpt>
      <trkpt lat="45.86731" lon="4.72041">
        <ele>197</ele>
        <time>2018-06-16T08:53:49Z</time>
      </trkpt>
      <trkpt lat="45.86724" lon="4.72045">
        <ele>197</ele>
        <time>2018-06-16T08:53:50Z</time>
      </trkpt>
      <trkpt lat="45.86719" lon="4.72042">
        <ele>197</ele>
        <time>2018-06-16T08:53:51Z</time>
      </trkpt>
      <trkpt lat="45.86716" lon="4.72037">
        <ele>197</ele>
        <time>2018-06-16T08:53:52Z</time>
      </trkpt>
      <trkpt lat="45.86709" lon="4.72033">
        <ele>197</ele>
        <time>2018-06-16T08:53:53Z</time>
      </trkpt>
      <trkpt lat="45.86703" lon="4.72029">
        <ele>197</ele>
        <time>2018-06-16T08:53:54Z</time>
      </trkpt>
      <trkpt lat="45.86698" lon="4.72025">
        <ele>197</ele>
        <time>2018-06-16T08:53:55Z</time>
      </trkpt>
      <trkpt lat="45.86689" lon="4.72025">
        <ele>197</ele>
        <time>2018-06-16T08:53:56Z</time>
      </trkpt>
      <trkpt lat="45.86684" lon="4.72021">
        <ele>197</ele>
        <time>2018-06-16T08:53:57Z</time>
      </trkpt>
      <trkpt lat="45.86679" lon="4.72016">
        <ele>196</ele>
        <time>2018-06-16T08:53:58Z</time>
      </trkpt>
      <trkpt lat="45.86674" lon="4.72011">
        <ele>196</ele>
        <time>2018-06-16T08:53:59Z</time>
      </trkpt>
      <trkpt lat="45.86668" lon="4.72006">
        <ele>196</ele>
        <time>2018-06-16T08:54:00Z</time>
      </trkpt>
      <trkpt lat="45.86662" lon="4.72002">
        <ele>196</ele>
        <time>2018-06-16T08:54:01Z</time>
      </trkpt>
      <trkpt lat="45.86658" lon="4.71997">
        <ele>195</ele>
        <time>2018-06-16T08:54:02Z</time>
      </trkpt>
      <trkpt lat="45.86653" lon="4.71992">
        <ele>195</ele>
        <time>2018-06-16T08:54:03Z</time>
      </trkpt>
      <trkpt lat="45.86649" lon="4.71988">
        <ele>195</ele>
        <time>2018-06-16T08:54:04Z</time>
      </trkpt>
      <trkpt lat="45.86644" lon="4.71984">
        <ele>195</ele>
        <time>2018-06-16T08:54:05Z</time>
      </trkpt>
      <trkpt lat="45.86639" lon="4.71979">
        <ele>195</ele>
        <time>2018-06-16T08:54:06Z</time>
      </trkpt>
      <trkpt lat="45.86634" lon="4.71975">
        <ele>195</ele>
        <time>2018-06-16T08:54:07Z</time>
      </trkpt>
      <trkpt lat="45.86629" lon="4.71969">
        <ele>195</ele>
        <time>2018-06-16T08:54:08Z</time>
      </trkpt>
      <trkpt lat="45.86624" lon="4.71964">
        <ele>195</ele>
        <time>2018-06-16T08:54:09Z</time>
      </trkpt>
      <trkpt lat="45.86615" lon="4.71961">
        <ele>195</ele>
        <time>2018-06-16T08:54:10Z</time>
      </trkpt>
      <trkpt lat="45.86609" lon="4.71957">
        <ele>194</ele>
        <time>2018-06-16T08:54:11Z</time>
      </trkpt>
      <trkpt lat="45.86603" lon="4.71953">
        <ele>194</ele>
        <time>2018-06-16T08:54:12Z</time>
      </trkpt>
      <trkpt lat="45.86597" lon="4.71951">
        <ele>194</ele>
        <time>2018-06-16T08:54:13Z</time>
      </trkpt>
      <trkpt lat="45.86592" lon="4.71946">
        <ele>194</ele>
        <time>2018-06-16T08:54:14Z</time>
      </trkpt>
      <trkpt lat="45.86587" lon="4.71942">
        <ele>194</ele>
        <time>2018-06-16T08:54:15Z</time>
      </trkpt>
      <trkpt lat="45.86582" lon="4.71936">
        <ele>195</ele>
        <time>2018-06-16T08:54:16Z</time>
      </trkpt>
      <trkpt lat="45.86575" lon="4.71933">
        <ele>195</ele>
        <time>2018-06-16T08:54:17Z</time>
      </trkpt>
      <trkpt lat="45.86571" lon="4.71928">
        <ele>195</ele>
        <time>2018-06-16T08:54:18Z</time>
      </trkpt>
      <trkpt lat="45.86566" lon="4.71924">
        <ele>195</ele>
        <time>2018-06-16T08:54:19Z</time>
      </trkpt>
      <trkpt lat="45.86559" lon="4.7192">
        <ele>196</ele>
        <time>2018-06-16T08:54:20Z</time>
      </trkpt>
      <trkpt lat="45.86553" lon="4.71915">
        <ele>195</ele>
        <time>2018-06-16T08:54:21Z</time>
      </trkpt>
      <trkpt lat="45.86548" lon="4.7191">
        <ele>195</ele>
        <time>2018-06-16T08:54:22Z</time>
      </trkpt>
      <trkpt lat="45.86542" lon="4.71906">
        <ele>195</ele>
        <time>2018-06-16T08:54:23Z</time>
      </trkpt>
      <trkpt lat="45.86536" lon="4.71901">
        <ele>195</ele>
        <time>2018-06-16T08:54:24Z</time>
      </trkpt>
      <trkpt lat="45.8653" lon="4.71896">
        <ele>195</ele>
        <time>2018-06-16T08:54:25Z</time>
      </trkpt>
      <trkpt lat="45.86524" lon="4.71892">
        <ele>195</ele>
        <time>2018-06-16T08:54:26Z</time>
      </trkpt>
      <trkpt lat="45.86518" lon="4.71887">
        <ele>195</ele>
        <time>2018-06-16T08:54:27Z</time>
      </trkpt>
      <trkpt lat="45.86512" lon="4.71883">
        <ele>195</ele>
        <time>2018-06-16T08:54:28Z</time>
      </trkpt>
      <trkpt lat="45.86507" lon="4.71877">
        <ele>195</ele>
        <time>2018-06-16T08:54:29Z</time>
      </trkpt>
      <trkpt lat="45.86501" lon="4.71872">
        <ele>195</ele>
        <time>2018-06-16T08:54:30Z</time>
      </trkpt>
      <trkpt lat="45.86495" lon="4.71867">
        <ele>198</ele>
        <time>2018-06-16T08:54:31Z</time>
      </trkpt>
      <trkpt lat="45.86489" lon="4.71863">
        <ele>198</ele>
        <time>2018-06-16T08:54:32Z</time>
      </trkpt>
      <trkpt lat="45.86483" lon="4.71859">
        <ele>198</ele>
        <time>2018-06-16T08:54:33Z</time>
      </trkpt>
      <trkpt lat="45.86479" lon="4.71855">
        <ele>199</ele>
        <time>2018-06-16T08:54:34Z</time>
      </trkpt>
      <trkpt lat="45.86472" lon="4.71849">
        <ele>199</ele>
        <time>2018-06-16T08:54:36Z</time>
      </trkpt>
      <trkpt lat="45.86469" lon="4.71844">
        <ele>199</ele>
        <time>2018-06-16T08:54:37Z</time>
      </trkpt>
      <trkpt lat="45.86465" lon="4.7184">
        <ele>199</ele>
        <time>2018-06-16T08:54:38Z</time>
      </trkpt>
      <trkpt lat="45.86459" lon="4.71836">
        <ele>200</ele>
        <time>2018-06-16T08:54:39Z</time>
      </trkpt>
      <trkpt lat="45.86454" lon="4.71831">
        <ele>197</ele>
        <time>2018-06-16T08:54:40Z</time>
      </trkpt>
      <trkpt lat="45.86448" lon="4.71827">
        <ele>197</ele>
        <time>2018-06-16T08:54:41Z</time>
      </trkpt>
      <trkpt lat="45.86443" lon="4.71824">
        <ele>197</ele>
        <time>2018-06-16T08:54:42Z</time>
      </trkpt>
      <trkpt lat="45.86437" lon="4.7182">
        <ele>198</ele>
        <time>2018-06-16T08:54:43Z</time>
      </trkpt>
      <trkpt lat="45.86432" lon="4.71816">
        <ele>198</ele>
        <time>2018-06-16T08:54:44Z</time>
      </trkpt>
      <trkpt lat="45.86426" lon="4.71813">
        <ele>198</ele>
        <time>2018-06-16T08:54:45Z</time>
      </trkpt>
      <trkpt lat="45.86421" lon="4.71809">
        <ele>198</ele>
        <time>2018-06-16T08:54:46Z</time>
      </trkpt>
      <trkpt lat="45.86416" lon="4.71804">
        <ele>199</ele>
        <time>2018-06-16T08:54:47Z</time>
      </trkpt>
      <trkpt lat="45.86411" lon="4.71801">
        <ele>199</ele>
        <time>2018-06-16T08:54:48Z</time>
      </trkpt>
      <trkpt lat="45.86407" lon="4.71796">
        <ele>199</ele>
        <time>2018-06-16T08:54:49Z</time>
      </trkpt>
      <trkpt lat="45.86402" lon="4.71793">
        <ele>199</ele>
        <time>2018-06-16T08:54:50Z</time>
      </trkpt>
      <trkpt lat="45.86396" lon="4.71788">
        <ele>198</ele>
        <time>2018-06-16T08:54:51Z</time>
      </trkpt>
      <trkpt lat="45.8639" lon="4.71784">
        <ele>198</ele>
        <time>2018-06-16T08:54:52Z</time>
      </trkpt>
      <trkpt lat="45.86385" lon="4.7178">
        <ele>198</ele>
        <time>2018-06-16T08:54:53Z</time>
      </trkpt>
      <trkpt lat="45.86381" lon="4.71774">
        <ele>198</ele>
        <time>2018-06-16T08:54:54Z</time>
      </trkpt>
      <trkpt lat="45.86376" lon="4.7177">
        <ele>198</ele>
        <time>2018-06-16T08:54:55Z</time>
      </trkpt>
      <trkpt lat="45.86371" lon="4.71766">
        <ele>198</ele>
        <time>2018-06-16T08:54:56Z</time>
      </trkpt>
      <trkpt lat="45.86365" lon="4.71761">
        <ele>198</ele>
        <time>2018-06-16T08:54:57Z</time>
      </trkpt>
      <trkpt lat="45.86359" lon="4.71756">
        <ele>198</ele>
        <time>2018-06-16T08:54:58Z</time>
      </trkpt>
      <trkpt lat="45.86353" lon="4.71752">
        <ele>197</ele>
        <time>2018-06-16T08:54:59Z</time>
      </trkpt>
      <trkpt lat="45.86349" lon="4.71748">
        <ele>195</ele>
        <time>2018-06-16T08:55:00Z</time>
      </trkpt>
      <trkpt lat="45.86345" lon="4.71745">
        <ele>195</ele>
        <time>2018-06-16T08:55:01Z</time>
      </trkpt>
      <trkpt lat="45.86341" lon="4.71743">
        <ele>195</ele>
        <time>2018-06-16T08:55:02Z</time>
      </trkpt>
      <trkpt lat="45.86336" lon="4.71741">
        <ele>195</ele>
        <time>2018-06-16T08:55:03Z</time>
      </trkpt>
      <trkpt lat="45.8633" lon="4.71736">
        <ele>196</ele>
        <time>2018-06-16T08:55:04Z</time>
      </trkpt>
      <trkpt lat="45.86325" lon="4.71733">
        <ele>196</ele>
        <time>2018-06-16T08:55:05Z</time>
      </trkpt>
      <trkpt lat="45.86322" lon="4.71725">
        <ele>196</ele>
        <time>2018-06-16T08:55:06Z</time>
      </trkpt>
      <trkpt lat="45.86317" lon="4.7172">
        <ele>196</ele>
        <time>2018-06-16T08:55:07Z</time>
      </trkpt>
      <trkpt lat="45.86312" lon="4.71717">
        <ele>195</ele>
        <time>2018-06-16T08:55:08Z</time>
      </trkpt>
      <trkpt lat="45.86306" lon="4.71712">
        <ele>195</ele>
        <time>2018-06-16T08:55:09Z</time>
      </trkpt>
      <trkpt lat="45.863" lon="4.7171">
        <ele>195</ele>
        <time>2018-06-16T08:55:10Z</time>
      </trkpt>
      <trkpt lat="45.86295" lon="4.71707">
        <ele>195</ele>
        <time>2018-06-16T08:55:11Z</time>
      </trkpt>
      <trkpt lat="45.86289" lon="4.71704">
        <ele>195</ele>
        <time>2018-06-16T08:55:12Z</time>
      </trkpt>
      <trkpt lat="45.86285" lon="4.71698">
        <ele>195</ele>
        <time>2018-06-16T08:55:13Z</time>
      </trkpt>
      <trkpt lat="45.86278" lon="4.71696">
        <ele>195</ele>
        <time>2018-06-16T08:55:14Z</time>
      </trkpt>
      <trkpt lat="45.86274" lon="4.71692">
        <ele>195</ele>
        <time>2018-06-16T08:55:15Z</time>
      </trkpt>
      <trkpt lat="45.86269" lon="4.71689">
        <ele>195</ele>
        <time>2018-06-16T08:55:16Z</time>
      </trkpt>
      <trkpt lat="45.86264" lon="4.71685">
        <ele>195</ele>
        <time>2018-06-16T08:55:17Z</time>
      </trkpt>
      <trkpt lat="45.86259" lon="4.71679">
        <ele>195</ele>
        <time>2018-06-16T08:55:18Z</time>
      </trkpt>
      <trkpt lat="45.86254" lon="4.71675">
        <ele>195</ele>
        <time>2018-06-16T08:55:19Z</time>
      </trkpt>
      <trkpt lat="45.86249" lon="4.71671">
        <ele>195</ele>
        <time>2018-06-16T08:55:20Z</time>
      </trkpt>
      <trkpt lat="45.86245" lon="4.71667">
        <ele>195</ele>
        <time>2018-06-16T08:55:21Z</time>
      </trkpt>
      <trkpt lat="45.86241" lon="4.71663">
        <ele>195</ele>
        <time>2018-06-16T08:55:22Z</time>
      </trkpt>
      <trkpt lat="45.86238" lon="4.71659">
        <ele>195</ele>
        <time>2018-06-16T08:55:23Z</time>
      </trkpt>
      <trkpt lat="45.86234" lon="4.71657">
        <ele>195</ele>
        <time>2018-06-16T08:55:24Z</time>
      </trkpt>
      <trkpt lat="45.86229" lon="4.71654">
        <ele>195</ele>
        <time>2018-06-16T08:55:25Z</time>
      </trkpt>
      <trkpt lat="45.86224" lon="4.7165">
        <ele>195</ele>
        <time>2018-06-16T08:55:26Z</time>
      </trkpt>
      <trkpt lat="45.8622" lon="4.71646">
        <ele>195</ele>
        <time>2018-06-16T08:55:27Z</time>
      </trkpt>
      <trkpt lat="45.86216" lon="4.71642">
        <ele>195</ele>
        <time>2018-06-16T08:55:28Z</time>
      </trkpt>
      <trkpt lat="45.86214" lon="4.71634">
        <ele>195</ele>
        <time>2018-06-16T08:55:29Z</time>
      </trkpt>
      <trkpt lat="45.86212" lon="4.71626">
        <ele>195</ele>
        <time>2018-06-16T08:55:30Z</time>
      </trkpt>
      <trkpt lat="45.86211" lon="4.7162">
        <ele>195</ele>
        <time>2018-06-16T08:55:31Z</time>
      </trkpt>
      <trkpt lat="45.86208" lon="4.71614">
        <ele>195</ele>
        <time>2018-06-16T08:55:32Z</time>
      </trkpt>
      <trkpt lat="45.86206" lon="4.71607">
        <ele>195</ele>
        <time>2018-06-16T08:55:33Z</time>
      </trkpt>
      <trkpt lat="45.86202" lon="4.71602">
        <ele>195</ele>
        <time>2018-06-16T08:55:34Z</time>
      </trkpt>
      <trkpt lat="45.86199" lon="4.71597">
        <ele>195</ele>
        <time>2018-06-16T08:55:35Z</time>
      </trkpt>
      <trkpt lat="45.86195" lon="4.71592">
        <ele>195</ele>
        <time>2018-06-16T08:55:36Z</time>
      </trkpt>
      <trkpt lat="45.86191" lon="4.71587">
        <ele>195</ele>
        <time>2018-06-16T08:55:37Z</time>
      </trkpt>
      <trkpt lat="45.8619" lon="4.71581">
        <ele>195</ele>
        <time>2018-06-16T08:55:38Z</time>
      </trkpt>
      <trkpt lat="45.86186" lon="4.71576">
        <ele>195</ele>
        <time>2018-06-16T08:55:39Z</time>
      </trkpt>
      <trkpt lat="45.86183" lon="4.71571">
        <ele>195</ele>
        <time>2018-06-16T08:55:40Z</time>
      </trkpt>
      <trkpt lat="45.86179" lon="4.71566">
        <ele>195</ele>
        <time>2018-06-16T08:55:41Z</time>
      </trkpt>
      <trkpt lat="45.86176" lon="4.71558">
        <ele>195</ele>
        <time>2018-06-16T08:55:42Z</time>
      </trkpt>
      <trkpt lat="45.86174" lon="4.71552">
        <ele>195</ele>
        <time>2018-06-16T08:55:43Z</time>
      </trkpt>
      <trkpt lat="45.86167" lon="4.71543">
        <ele>195</ele>
        <time>2018-06-16T08:55:45Z</time>
      </trkpt>
      <trkpt lat="45.86165" lon="4.71538">
        <ele>195</ele>
        <time>2018-06-16T08:55:46Z</time>
      </trkpt>
      <trkpt lat="45.86162" lon="4.71533">
        <ele>195</ele>
        <time>2018-06-16T08:55:47Z</time>
      </trkpt>
      <trkpt lat="45.86156" lon="4.71532">
        <ele>195</ele>
        <time>2018-06-16T08:55:48Z</time>
      </trkpt>
      <trkpt lat="45.86153" lon="4.71521">
        <ele>195</ele>
        <time>2018-06-16T08:55:50Z</time>
      </trkpt>
      <trkpt lat="45.8615" lon="4.71514">
        <ele>195</ele>
        <time>2018-06-16T08:55:51Z</time>
      </trkpt>
      <trkpt lat="45.86148" lon="4.71509">
        <ele>195</ele>
        <time>2018-06-16T08:55:52Z</time>
      </trkpt>
      <trkpt lat="45.86146" lon="4.71502">
        <ele>195</ele>
        <time>2018-06-16T08:55:53Z</time>
      </trkpt>
      <trkpt lat="45.86141" lon="4.71497">
        <ele>195</ele>
        <time>2018-06-16T08:55:54Z</time>
      </trkpt>
      <trkpt lat="45.86137" lon="4.71491">
        <ele>195</ele>
        <time>2018-06-16T08:55:55Z</time>
      </trkpt>
      <trkpt lat="45.86134" lon="4.71485">
        <ele>195</ele>
        <time>2018-06-16T08:55:56Z</time>
      </trkpt>
      <trkpt lat="45.86135" lon="4.71477">
        <ele>195</ele>
        <time>2018-06-16T08:55:57Z</time>
      </trkpt>
      <trkpt lat="45.86132" lon="4.7147">
        <ele>195</ele>
        <time>2018-06-16T08:55:58Z</time>
      </trkpt>
      <trkpt lat="45.86131" lon="4.71464">
        <ele>195</ele>
        <time>2018-06-16T08:55:59Z</time>
      </trkpt>
      <trkpt lat="45.86131" lon="4.71457">
        <ele>195</ele>
        <time>2018-06-16T08:56:00Z</time>
      </trkpt>
      <trkpt lat="45.86129" lon="4.71451">
        <ele>195</ele>
        <time>2018-06-16T08:56:01Z</time>
      </trkpt>
      <trkpt lat="45.86126" lon="4.71444">
        <ele>195</ele>
        <time>2018-06-16T08:56:02Z</time>
      </trkpt>
      <trkpt lat="45.86125" lon="4.71438">
        <ele>195</ele>
        <time>2018-06-16T08:56:03Z</time>
      </trkpt>
      <trkpt lat="45.86125" lon="4.71429">
        <ele>195</ele>
        <time>2018-06-16T08:56:04Z</time>
      </trkpt>
      <trkpt lat="45.86121" lon="4.71422">
        <ele>195</ele>
        <time>2018-06-16T08:56:05Z</time>
      </trkpt>
      <trkpt lat="45.86121" lon="4.71414">
        <ele>196</ele>
        <time>2018-06-16T08:56:06Z</time>
      </trkpt>
      <trkpt lat="45.86121" lon="4.71407">
        <ele>196</ele>
        <time>2018-06-16T08:56:07Z</time>
      </trkpt>
      <trkpt lat="45.86121" lon="4.71398">
        <ele>196</ele>
        <time>2018-06-16T08:56:08Z</time>
      </trkpt>
      <trkpt lat="45.86119" lon="4.71393">
        <ele>196</ele>
        <time>2018-06-16T08:56:09Z</time>
      </trkpt>
      <trkpt lat="45.86118" lon="4.71386">
        <ele>196</ele>
        <time>2018-06-16T08:56:10Z</time>
      </trkpt>
      <trkpt lat="45.86117" lon="4.71379">
        <ele>196</ele>
        <time>2018-06-16T08:56:11Z</time>
      </trkpt>
      <trkpt lat="45.86116" lon="4.71367">
        <ele>196</ele>
        <time>2018-06-16T08:56:13Z</time>
      </trkpt>
      <trkpt lat="45.86116" lon="4.71361">
        <ele>196</ele>
        <time>2018-06-16T08:56:14Z</time>
      </trkpt>
      <trkpt lat="45.86115" lon="4.71354">
        <ele>196</ele>
        <time>2018-06-16T08:56:15Z</time>
      </trkpt>
      <trkpt lat="45.86114" lon="4.71347">
        <ele>196</ele>
        <time>2018-06-16T08:56:16Z</time>
      </trkpt>
      <trkpt lat="45.86113" lon="4.71335">
        <ele>196</ele>
        <time>2018-06-16T08:56:18Z</time>
      </trkpt>
      <trkpt lat="45.86111" lon="4.71327">
        <ele>196</ele>
        <time>2018-06-16T08:56:19Z</time>
      </trkpt>
      <trkpt lat="45.86109" lon="4.7132">
        <ele>196</ele>
        <time>2018-06-16T08:56:20Z</time>
      </trkpt>
      <trkpt lat="45.86107" lon="4.71313">
        <ele>196</ele>
        <time>2018-06-16T08:56:21Z</time>
      </trkpt>
      <trkpt lat="45.86106" lon="4.71306">
        <ele>196</ele>
        <time>2018-06-16T08:56:22Z</time>
      </trkpt>
      <trkpt lat="45.86105" lon="4.71299">
        <ele>197</ele>
        <time>2018-06-16T08:56:23Z</time>
      </trkpt>
      <trkpt lat="45.86104" lon="4.71292">
        <ele>197</ele>
        <time>2018-06-16T08:56:24Z</time>
      </trkpt>
      <trkpt lat="45.86101" lon="4.71285">
        <ele>197</ele>
        <time>2018-06-16T08:56:25Z</time>
      </trkpt>
      <trkpt lat="45.861" lon="4.71279">
        <ele>197</ele>
        <time>2018-06-16T08:56:26Z</time>
      </trkpt>
      <trkpt lat="45.86098" lon="4.71273">
        <ele>197</ele>
        <time>2018-06-16T08:56:27Z</time>
      </trkpt>
      <trkpt lat="45.86093" lon="4.71262">
        <ele>197</ele>
        <time>2018-06-16T08:56:29Z</time>
      </trkpt>
      <trkpt lat="45.8609" lon="4.71258">
        <ele>197</ele>
        <time>2018-06-16T08:56:30Z</time>
      </trkpt>
      <trkpt lat="45.86085" lon="4.71249">
        <ele>198</ele>
        <time>2018-06-16T08:56:32Z</time>
      </trkpt>
      <trkpt lat="45.86085" lon="4.71241">
        <ele>198</ele>
        <time>2018-06-16T08:56:33Z</time>
      </trkpt>
      <trkpt lat="45.86086" lon="4.71236">
        <ele>197</ele>
        <time>2018-06-16T08:56:34Z</time>
      </trkpt>
      <trkpt lat="45.86087" lon="4.71227">
        <ele>197</ele>
        <time>2018-06-16T08:56:35Z</time>
      </trkpt>
      <trkpt lat="45.86088" lon="4.7122">
        <ele>197</ele>
        <time>2018-06-16T08:56:36Z</time>
      </trkpt>
      <trkpt lat="45.86089" lon="4.71214">
        <ele>197</ele>
        <time>2018-06-16T08:56:37Z</time>
      </trkpt>
      <trkpt lat="45.86092" lon="4.71208">
        <ele>197</ele>
        <time>2018-06-16T08:56:38Z</time>
      </trkpt>
      <trkpt lat="45.86093" lon="4.71202">
        <ele>197</ele>
        <time>2018-06-16T08:56:39Z</time>
      </trkpt>
      <trkpt lat="45.86095" lon="4.7119">
        <ele>197</ele>
        <time>2018-06-16T08:56:41Z</time>
      </trkpt>
      <trkpt lat="45.86097" lon="4.71184">
        <ele>197</ele>
        <time>2018-06-16T08:56:42Z</time>
      </trkpt>
      <trkpt lat="45.86097" lon="4.71177">
        <ele>197</ele>
        <time>2018-06-16T08:56:43Z</time>
      </trkpt>
      <trkpt lat="45.86095" lon="4.7117">
        <ele>197</ele>
        <time>2018-06-16T08:56:44Z</time>
      </trkpt>
      <trkpt lat="45.86094" lon="4.71164">
        <ele>197</ele>
        <time>2018-06-16T08:56:45Z</time>
      </trkpt>
      <trkpt lat="45.86096" lon="4.71156">
        <ele>197</ele>
        <time>2018-06-16T08:56:46Z</time>
      </trkpt>
      <trkpt lat="45.86094" lon="4.71148">
        <ele>197</ele>
        <time>2018-06-16T08:56:47Z</time>
      </trkpt>
      <trkpt lat="45.86092" lon="4.71142">
        <ele>197</ele>
        <time>2018-06-16T08:56:48Z</time>
      </trkpt>
      <trkpt lat="45.86087" lon="4.71138">
        <ele>197</ele>
        <time>2018-06-16T08:56:49Z</time>
      </trkpt>
      <trkpt lat="45.86083" lon="4.71134">
        <ele>197</ele>
        <time>2018-06-16T08:56:50Z</time>
      </trkpt>
      <trkpt lat="45.86078" lon="4.71131">
        <ele>197</ele>
        <time>2018-06-16T08:56:51Z</time>
      </trkpt>
      <trkpt lat="45.86074" lon="4.71127">
        <ele>197</ele>
        <time>2018-06-16T08:56:52Z</time>
      </trkpt>
      <trkpt lat="45.8607" lon="4.71123">
        <ele>197</ele>
        <time>2018-06-16T08:56:53Z</time>
      </trkpt>
      <trkpt lat="45.86064" lon="4.71117">
        <ele>197</ele>
        <time>2018-06-16T08:56:54Z</time>
      </trkpt>
      <trkpt lat="45.8606" lon="4.71111">
        <ele>197</ele>
        <time>2018-06-16T08:56:55Z</time>
      </trkpt>
      <trkpt lat="45.86055" lon="4.71108">
        <ele>197</ele>
        <time>2018-06-16T08:56:56Z</time>
      </trkpt>
      <trkpt lat="45.86051" lon="4.71102">
        <ele>197</ele>
        <time>2018-06-16T08:56:57Z</time>
      </trkpt>
      <trkpt lat="45.86048" lon="4.71097">
        <ele>197</ele>
        <time>2018-06-16T08:56:58Z</time>
      </trkpt>
      <trkpt lat="45.86045" lon="4.71091">
        <ele>197</ele>
        <time>2018-06-16T08:56:59Z</time>
      </trkpt>
      <trkpt lat="45.86042" lon="4.71085">
        <ele>197</ele>
        <time>2018-06-16T08:57:00Z</time>
      </trkpt>
      <trkpt lat="45.8604" lon="4.71076">
        <ele>197</ele>
        <time>2018-06-16T08:57:01Z</time>
      </trkpt>
      <trkpt lat="45.86038" lon="4.71071">
        <ele>197</ele>
        <time>2018-06-16T08:57:02Z</time>
      </trkpt>
      <trkpt lat="45.86039" lon="4.71063">
        <ele>197</ele>
        <time>2018-06-16T08:57:03Z</time>
      </trkpt>
      <trkpt lat="45.86038" lon="4.71056">
        <ele>197</ele>
        <time>2018-06-16T08:57:04Z</time>
      </trkpt>
      <trkpt lat="45.86035" lon="4.71048">
        <ele>197</ele>
        <time>2018-06-16T08:57:05Z</time>
      </trkpt>
      <trkpt lat="45.86035" lon="4.71042">
        <ele>197</ele>
        <time>2018-06-16T08:57:06Z</time>
      </trkpt>
      <trkpt lat="45.86032" lon="4.71035">
        <ele>197</ele>
        <time>2018-06-16T08:57:07Z</time>
      </trkpt>
      <trkpt lat="45.8603" lon="4.71028">
        <ele>197</ele>
        <time>2018-06-16T08:57:08Z</time>
      </trkpt>
      <trkpt lat="45.86027" lon="4.71017">
        <ele>197</ele>
        <time>2018-06-16T08:57:10Z</time>
      </trkpt>
      <trkpt lat="45.86024" lon="4.71011">
        <ele>197</ele>
        <time>2018-06-16T08:57:11Z</time>
      </trkpt>
      <trkpt lat="45.8602" lon="4.71006">
        <ele>197</ele>
        <time>2018-06-16T08:57:12Z</time>
      </trkpt>
      <trkpt lat="45.86016" lon="4.71001">
        <ele>197</ele>
        <time>2018-06-16T08:57:13Z</time>
      </trkpt>
      <trkpt lat="45.86009" lon="4.70997">
        <ele>197</ele>
        <time>2018-06-16T08:57:14Z</time>
      </trkpt>
      <trkpt lat="45.86004" lon="4.70992">
        <ele>197</ele>
        <time>2018-06-16T08:57:15Z</time>
      </trkpt>
      <trkpt lat="45.85999" lon="4.70987">
        <ele>197</ele>
        <time>2018-06-16T08:57:16Z</time>
      </trkpt>
      <trkpt lat="45.85994" lon="4.70985">
        <ele>197</ele>
        <time>2018-06-16T08:57:17Z</time>
      </trkpt>
      <trkpt lat="45.85989" lon="4.70982">
        <ele>197</ele>
        <time>2018-06-16T08:57:18Z</time>
      </trkpt>
      <trkpt lat="45.85985" lon="4.70978">
        <ele>197</ele>
        <time>2018-06-16T08:57:19Z</time>
      </trkpt>
      <trkpt lat="45.85979" lon="4.70974">
        <ele>197</ele>
        <time>2018-06-16T08:57:20Z</time>
      </trkpt>
      <trkpt lat="45.85975" lon="4.70971">
        <ele>197</ele>
        <time>2018-06-16T08:57:21Z</time>
      </trkpt>
      <trkpt lat="45.85966" lon="4.70971">
        <ele>197</ele>
        <time>2018-06-16T08:57:23Z</time>
      </trkpt>
      <trkpt lat="45.85962" lon="4.70969">
        <ele>197</ele>
        <time>2018-06-16T08:57:24Z</time>
      </trkpt>
      <trkpt lat="45.85954" lon="4.70969">
        <ele>197</ele>
        <time>2018-06-16T08:57:26Z</time>
      </trkpt>
      <trkpt lat="45.85952" lon="4.70968">
        <ele>197</ele>
        <time>2018-06-16T08:57:27Z</time>
      </trkpt>
      <trkpt lat="45.85944" lon="4.70963">
        <ele>197</ele>
        <time>2018-06-16T08:57:31Z</time>
      </trkpt>
      <trkpt lat="45.85943" lon="4.7096">
        <ele>197</ele>
        <time>2018-06-16T08:57:32Z</time>
      </trkpt>
      <trkpt lat="45.85941" lon="4.70954">
        <ele>197</ele>
        <time>2018-06-16T08:57:34Z</time>
      </trkpt>
      <trkpt lat="45.8594" lon="4.70943">
        <ele>197</ele>
        <time>2018-06-16T08:57:35Z</time>
      </trkpt>
      <trkpt lat="45.85941" lon="4.70933">
        <ele>197</ele>
        <time>2018-06-16T08:57:37Z</time>
      </trkpt>
      <trkpt lat="45.85943" lon="4.70927">
        <ele>197</ele>
        <time>2018-06-16T08:57:38Z</time>
      </trkpt>
      <trkpt lat="45.85946" lon="4.70916">
        <ele>197</ele>
        <time>2018-06-16T08:57:40Z</time>
      </trkpt>
      <trkpt lat="45.85947" lon="4.70909">
        <ele>197</ele>
        <time>2018-06-16T08:57:41Z</time>
      </trkpt>
      <trkpt lat="45.85948" lon="4.70903">
        <ele>197</ele>
        <time>2018-06-16T08:57:42Z</time>
      </trkpt>
      <trkpt lat="45.85949" lon="4.70896">
        <ele>197</ele>
        <time>2018-06-16T08:57:43Z</time>
      </trkpt>
      <trkpt lat="45.85951" lon="4.70887">
        <ele>197</ele>
        <time>2018-06-16T08:57:44Z</time>
      </trkpt>
      <trkpt lat="45.85951" lon="4.7088">
        <ele>197</ele>
        <time>2018-06-16T08:57:45Z</time>
      </trkpt>
      <trkpt lat="45.85953" lon="4.70872">
        <ele>196</ele>
        <time>2018-06-16T08:57:46Z</time>
      </trkpt>
      <trkpt lat="45.85954" lon="4.70864">
        <ele>196</ele>
        <time>2018-06-16T08:57:47Z</time>
      </trkpt>
      <trkpt lat="45.85955" lon="4.70856">
        <ele>196</ele>
        <time>2018-06-16T08:57:48Z</time>
      </trkpt>
      <trkpt lat="45.85954" lon="4.7085">
        <ele>196</ele>
        <time>2018-06-16T08:57:49Z</time>
      </trkpt>
      <trkpt lat="45.85955" lon="4.70843">
        <ele>196</ele>
        <time>2018-06-16T08:57:50Z</time>
      </trkpt>
      <trkpt lat="45.85955" lon="4.70835">
        <ele>196</ele>
        <time>2018-06-16T08:57:51Z</time>
      </trkpt>
      <trkpt lat="45.85955" lon="4.70829">
        <ele>196</ele>
        <time>2018-06-16T08:57:52Z</time>
      </trkpt>
      <trkpt lat="45.85955" lon="4.70822">
        <ele>195</ele>
        <time>2018-06-16T08:57:53Z</time>
      </trkpt>
      <trkpt lat="45.85952" lon="4.70809">
        <ele>195</ele>
        <time>2018-06-16T08:57:55Z</time>
      </trkpt>
      <trkpt lat="45.85951" lon="4.70803">
        <ele>195</ele>
        <time>2018-06-16T08:57:56Z</time>
      </trkpt>
      <trkpt lat="45.8595" lon="4.70797">
        <ele>195</ele>
        <time>2018-06-16T08:57:57Z</time>
      </trkpt>
      <trkpt lat="45.85952" lon="4.70791">
        <ele>195</ele>
        <time>2018-06-16T08:57:58Z</time>
      </trkpt>
      <trkpt lat="45.85953" lon="4.70783">
        <ele>195</ele>
        <time>2018-06-16T08:57:59Z</time>
      </trkpt>
      <trkpt lat="45.85953" lon="4.70775">
        <ele>195</ele>
        <time>2018-06-16T08:58:00Z</time>
      </trkpt>
      <trkpt lat="45.85954" lon="4.70767">
        <ele>195</ele>
        <time>2018-06-16T08:58:01Z</time>
      </trkpt>
      <trkpt lat="45.85954" lon="4.7076">
        <ele>195</ele>
        <time>2018-06-16T08:58:02Z</time>
      </trkpt>
      <trkpt lat="45.85954" lon="4.70754">
        <ele>195</ele>
        <time>2018-06-16T08:58:03Z</time>
      </trkpt>
      <trkpt lat="45.85955" lon="4.70745">
        <ele>194</ele>
        <time>2018-06-16T08:58:04Z</time>
      </trkpt>
      <trkpt lat="45.85956" lon="4.70738">
        <ele>194</ele>
        <time>2018-06-16T08:58:05Z</time>
      </trkpt>
      <trkpt lat="45.85957" lon="4.7073">
        <ele>194</ele>
        <time>2018-06-16T08:58:06Z</time>
      </trkpt>
      <trkpt lat="45.85957" lon="4.70722">
        <ele>194</ele>
        <time>2018-06-16T08:58:07Z</time>
      </trkpt>
      <trkpt lat="45.85956" lon="4.70715">
        <ele>194</ele>
        <time>2018-06-16T08:58:08Z</time>
      </trkpt>
      <trkpt lat="45.85957" lon="4.70707">
        <ele>194</ele>
        <time>2018-06-16T08:58:09Z</time>
      </trkpt>
      <trkpt lat="45.85957" lon="4.70702">
        <ele>194</ele>
        <time>2018-06-16T08:58:10Z</time>
      </trkpt>
      <trkpt lat="45.85958" lon="4.70694">
        <ele>194</ele>
        <time>2018-06-16T08:58:11Z</time>
      </trkpt>
      <trkpt lat="45.85958" lon="4.70686">
        <ele>194</ele>
        <time>2018-06-16T08:58:12Z</time>
      </trkpt>
      <trkpt lat="45.85955" lon="4.70679">
        <ele>194</ele>
        <time>2018-06-16T08:58:13Z</time>
      </trkpt>
      <trkpt lat="45.85953" lon="4.70673">
        <ele>194</ele>
        <time>2018-06-16T08:58:14Z</time>
      </trkpt>
      <trkpt lat="45.8595" lon="4.70666">
        <ele>194</ele>
        <time>2018-06-16T08:58:15Z</time>
      </trkpt>
      <trkpt lat="45.85947" lon="4.70662">
        <ele>194</ele>
        <time>2018-06-16T08:58:16Z</time>
      </trkpt>
      <trkpt lat="45.85944" lon="4.70656">
        <ele>194</ele>
        <time>2018-06-16T08:58:17Z</time>
      </trkpt>
      <trkpt lat="45.85941" lon="4.70651">
        <ele>194</ele>
        <time>2018-06-16T08:58:18Z</time>
      </trkpt>
      <trkpt lat="45.85938" lon="4.70645">
        <ele>194</ele>
        <time>2018-06-16T08:58:19Z</time>
      </trkpt>
      <trkpt lat="45.85935" lon="4.7064">
        <ele>194</ele>
        <time>2018-06-16T08:58:20Z</time>
      </trkpt>
      <trkpt lat="45.85932" lon="4.70635">
        <ele>194</ele>
        <time>2018-06-16T08:58:21Z</time>
      </trkpt>
      <trkpt lat="45.85929" lon="4.7063">
        <ele>194</ele>
        <time>2018-06-16T08:58:22Z</time>
      </trkpt>
      <trkpt lat="45.85926" lon="4.70624">
        <ele>194</ele>
        <time>2018-06-16T08:58:23Z</time>
      </trkpt>
      <trkpt lat="45.85923" lon="4.70619">
        <ele>194</ele>
        <time>2018-06-16T08:58:24Z</time>
      </trkpt>
      <trkpt lat="45.8592" lon="4.70613">
        <ele>194</ele>
        <time>2018-06-16T08:58:25Z</time>
      </trkpt>
      <trkpt lat="45.85917" lon="4.70608">
        <ele>194</ele>
        <time>2018-06-16T08:58:26Z</time>
      </trkpt>
      <trkpt lat="45.85913" lon="4.70603">
        <ele>195</ele>
        <time>2018-06-16T08:58:27Z</time>
      </trkpt>
      <trkpt lat="45.85909" lon="4.70598">
        <ele>195</ele>
        <time>2018-06-16T08:58:28Z</time>
      </trkpt>
      <trkpt lat="45.85906" lon="4.70593">
        <ele>195</ele>
        <time>2018-06-16T08:58:29Z</time>
      </trkpt>
      <trkpt lat="45.85903" lon="4.70587">
        <ele>195</ele>
        <time>2018-06-16T08:58:30Z</time>
      </trkpt>
      <trkpt lat="45.85898" lon="4.70584">
        <ele>195</ele>
        <time>2018-06-16T08:58:31Z</time>
      </trkpt>
      <trkpt lat="45.85892" lon="4.70581">
        <ele>195</ele>
        <time>2018-06-16T08:58:32Z</time>
      </trkpt>
      <trkpt lat="45.85885" lon="4.70582">
        <ele>195</ele>
        <time>2018-06-16T08:58:34Z</time>
      </trkpt>
      <trkpt lat="45.8588" lon="4.70579">
        <ele>195</ele>
        <time>2018-06-16T08:58:35Z</time>
      </trkpt>
      <trkpt lat="45.85874" lon="4.70577">
        <ele>195</ele>
        <time>2018-06-16T08:58:36Z</time>
      </trkpt>
      <trkpt lat="45.85868" lon="4.70576">
        <ele>195</ele>
        <time>2018-06-16T08:58:37Z</time>
      </trkpt>
      <trkpt lat="45.85863" lon="4.70573">
        <ele>195</ele>
        <time>2018-06-16T08:58:38Z</time>
      </trkpt>
      <trkpt lat="45.85859" lon="4.70571">
        <ele>195</ele>
        <time>2018-06-16T08:58:39Z</time>
      </trkpt>
      <trkpt lat="45.85852" lon="4.70568">
        <ele>195</ele>
        <time>2018-06-16T08:58:40Z</time>
      </trkpt>
      <trkpt lat="45.85847" lon="4.70566">
        <ele>195</ele>
        <time>2018-06-16T08:58:41Z</time>
      </trkpt>
      <trkpt lat="45.85839" lon="4.70563">
        <ele>195</ele>
        <time>2018-06-16T08:58:43Z</time>
      </trkpt>
      <trkpt lat="45.85833" lon="4.70561">
        <ele>195</ele>
        <time>2018-06-16T08:58:44Z</time>
      </trkpt>
      <trkpt lat="45.85828" lon="4.70559">
        <ele>195</ele>
        <time>2018-06-16T08:58:45Z</time>
      </trkpt>
      <trkpt lat="45.85822" lon="4.70556">
        <ele>195</ele>
        <time>2018-06-16T08:58:46Z</time>
      </trkpt>
      <trkpt lat="45.85817" lon="4.70554">
        <ele>195</ele>
        <time>2018-06-16T08:58:47Z</time>
      </trkpt>
      <trkpt lat="45.85814" lon="4.7055">
        <ele>195</ele>
        <time>2018-06-16T08:58:48Z</time>
      </trkpt>
      <trkpt lat="45.8581" lon="4.70548">
        <ele>195</ele>
        <time>2018-06-16T08:58:49Z</time>
      </trkpt>
      <trkpt lat="45.85804" lon="4.7055">
        <ele>195</ele>
        <time>2018-06-16T08:58:50Z</time>
      </trkpt>
      <trkpt lat="45.858" lon="4.70548">
        <ele>195</ele>
        <time>2018-06-16T08:58:51Z</time>
      </trkpt>
      <trkpt lat="45.85792" lon="4.70543">
        <ele>195</ele>
        <time>2018-06-16T08:58:52Z</time>
      </trkpt>
      <trkpt lat="45.85788" lon="4.7054">
        <ele>196</ele>
        <time>2018-06-16T08:58:53Z</time>
      </trkpt>
      <trkpt lat="45.85783" lon="4.70536">
        <ele>196</ele>
        <time>2018-06-16T08:58:54Z</time>
      </trkpt>
      <trkpt lat="45.85778" lon="4.70533">
        <ele>196</ele>
        <time>2018-06-16T08:58:55Z</time>
      </trkpt>
      <trkpt lat="45.85772" lon="4.70531">
        <ele>196</ele>
        <time>2018-06-16T08:58:56Z</time>
      </trkpt>
      <trkpt lat="45.85768" lon="4.70527">
        <ele>196</ele>
        <time>2018-06-16T08:58:57Z</time>
      </trkpt>
      <trkpt lat="45.85763" lon="4.70522">
        <ele>196</ele>
        <time>2018-06-16T08:58:58Z</time>
      </trkpt>
      <trkpt lat="45.85757" lon="4.70517">
        <ele>196</ele>
        <time>2018-06-16T08:58:59Z</time>
      </trkpt>
      <trkpt lat="45.85752" lon="4.70514">
        <ele>196</ele>
        <time>2018-06-16T08:59:00Z</time>
      </trkpt>
      <trkpt lat="45.85748" lon="4.70511">
        <ele>196</ele>
        <time>2018-06-16T08:59:01Z</time>
      </trkpt>
      <trkpt lat="45.85743" lon="4.70507">
        <ele>196</ele>
        <time>2018-06-16T08:59:02Z</time>
      </trkpt>
      <trkpt lat="45.85738" lon="4.70499">
        <ele>196</ele>
        <time>2018-06-16T08:59:04Z</time>
      </trkpt>
      <trkpt lat="45.85733" lon="4.70495">
        <ele>196</ele>
        <time>2018-06-16T08:59:05Z</time>
      </trkpt>
      <trkpt lat="45.85729" lon="4.70484">
        <ele>196</ele>
        <time>2018-06-16T08:59:07Z</time>
      </trkpt>
      <trkpt lat="45.85725" lon="4.70481">
        <ele>196</ele>
        <time>2018-06-16T08:59:08Z</time>
      </trkpt>
      <trkpt lat="45.85724" lon="4.70474">
        <ele>196</ele>
        <time>2018-06-16T08:59:09Z</time>
      </trkpt>
      <trkpt lat="45.85723" lon="4.70466">
        <ele>196</ele>
        <time>2018-06-16T08:59:10Z</time>
      </trkpt>
      <trkpt lat="45.85724" lon="4.7046">
        <ele>196</ele>
        <time>2018-06-16T08:59:11Z</time>
      </trkpt>
      <trkpt lat="45.85721" lon="4.70453">
        <ele>196</ele>
        <time>2018-06-16T08:59:12Z</time>
      </trkpt>
      <trkpt lat="45.85721" lon="4.70445">
        <ele>196</ele>
        <time>2018-06-16T08:59:13Z</time>
      </trkpt>
      <trkpt lat="45.85718" lon="4.70438">
        <ele>196</ele>
        <time>2018-06-16T08:59:14Z</time>
      </trkpt>
      <trkpt lat="45.85717" lon="4.70433">
        <ele>196</ele>
        <time>2018-06-16T08:59:15Z</time>
      </trkpt>
      <trkpt lat="45.85716" lon="4.70425">
        <ele>196</ele>
        <time>2018-06-16T08:59:16Z</time>
      </trkpt>
      <trkpt lat="45.85715" lon="4.70417">
        <ele>196</ele>
        <time>2018-06-16T08:59:17Z</time>
      </trkpt>
      <trkpt lat="45.85714" lon="4.70409">
        <ele>196</ele>
        <time>2018-06-16T08:59:18Z</time>
      </trkpt>
      <trkpt lat="45.85713" lon="4.70401">
        <ele>196</ele>
        <time>2018-06-16T08:59:19Z</time>
      </trkpt>
      <trkpt lat="45.85712" lon="4.70393">
        <ele>196</ele>
        <time>2018-06-16T08:59:20Z</time>
      </trkpt>
      <trkpt lat="45.8571" lon="4.70384">
        <ele>196</ele>
        <time>2018-06-16T08:59:21Z</time>
      </trkpt>
      <trkpt lat="45.85709" lon="4.70376">
        <ele>196</ele>
        <time>2018-06-16T08:59:22Z</time>
      </trkpt>
      <trkpt lat="45.85709" lon="4.70367">
        <ele>196</ele>
        <time>2018-06-16T08:59:23Z</time>
      </trkpt>
      <trkpt lat="45.85708" lon="4.70359">
        <ele>196</ele>
        <time>2018-06-16T08:59:24Z</time>
      </trkpt>
      <trkpt lat="45.85707" lon="4.7035">
        <ele>196</ele>
        <time>2018-06-16T08:59:25Z</time>
      </trkpt>
      <trkpt lat="45.85707" lon="4.70341">
        <ele>196</ele>
        <time>2018-06-16T08:59:26Z</time>
      </trkpt>
      <trkpt lat="45.85706" lon="4.70332">
        <ele>197</ele>
        <time>2018-06-16T08:59:27Z</time>
      </trkpt>
      <trkpt lat="45.85705" lon="4.70323">
        <ele>197</ele>
        <time>2018-06-16T08:59:28Z</time>
      </trkpt>
      <trkpt lat="45.85705" lon="4.70313">
        <ele>197</ele>
        <time>2018-06-16T08:59:29Z</time>
      </trkpt>
      <trkpt lat="45.85704" lon="4.70304">
        <ele>197</ele>
        <time>2018-06-16T08:59:30Z</time>
      </trkpt>
      <trkpt lat="45.85703" lon="4.70294">
        <ele>197</ele>
        <time>2018-06-16T08:59:31Z</time>
      </trkpt>
      <trkpt lat="45.85702" lon="4.70285">
        <ele>197</ele>
        <time>2018-06-16T08:59:32Z</time>
      </trkpt>
      <trkpt lat="45.85701" lon="4.70276">
        <ele>197</ele>
        <time>2018-06-16T08:59:33Z</time>
      </trkpt>
      <trkpt lat="45.85699" lon="4.70267">
        <ele>197</ele>
        <time>2018-06-16T08:59:34Z</time>
      </trkpt>
      <trkpt lat="45.85699" lon="4.70258">
        <ele>197</ele>
        <time>2018-06-16T08:59:35Z</time>
      </trkpt>
      <trkpt lat="45.85698" lon="4.70249">
        <ele>197</ele>
        <time>2018-06-16T08:59:36Z</time>
      </trkpt>
      <trkpt lat="45.85697" lon="4.7024">
        <ele>197</ele>
        <time>2018-06-16T08:59:37Z</time>
      </trkpt>
      <trkpt lat="45.85696" lon="4.70231">
        <ele>197</ele>
        <time>2018-06-16T08:59:38Z</time>
      </trkpt>
      <trkpt lat="45.85695" lon="4.70222">
        <ele>197</ele>
        <time>2018-06-16T08:59:39Z</time>
      </trkpt>
      <trkpt lat="45.85695" lon="4.70213">
        <ele>197</ele>
        <time>2018-06-16T08:59:40Z</time>
      </trkpt>
      <trkpt lat="45.85694" lon="4.70204">
        <ele>197</ele>
        <time>2018-06-16T08:59:41Z</time>
      </trkpt>
      <trkpt lat="45.85693" lon="4.70195">
        <ele>197</ele>
        <time>2018-06-16T08:59:42Z</time>
      </trkpt>
      <trkpt lat="45.85691" lon="4.70187">
        <ele>197</ele>
        <time>2018-06-16T08:59:43Z</time>
      </trkpt>
      <trkpt lat="45.85689" lon="4.70176">
        <ele>197</ele>
        <time>2018-06-16T08:59:44Z</time>
      </trkpt>
      <trkpt lat="45.85688" lon="4.70168">
        <ele>197</ele>
        <time>2018-06-16T08:59:45Z</time>
      </trkpt>
      <trkpt lat="45.85685" lon="4.70159">
        <ele>197</ele>
        <time>2018-06-16T08:59:46Z</time>
      </trkpt>
      <trkpt lat="45.85683" lon="4.70153">
        <ele>197</ele>
        <time>2018-06-16T08:59:47Z</time>
      </trkpt>
      <trkpt lat="45.85681" lon="4.70144">
        <ele>197</ele>
        <time>2018-06-16T08:59:48Z</time>
      </trkpt>
      <trkpt lat="45.85679" lon="4.70135">
        <ele>197</ele>
        <time>2018-06-16T08:59:49Z</time>
      </trkpt>
      <trkpt lat="45.85678" lon="4.70127">
        <ele>197</ele>
        <time>2018-06-16T08:59:50Z</time>
      </trkpt>
      <trkpt lat="45.85678" lon="4.70118">
        <ele>197</ele>
        <time>2018-06-16T08:59:51Z</time>
      </trkpt>
      <trkpt lat="45.85678" lon="4.70108">
        <ele>196</ele>
        <time>2018-06-16T08:59:52Z</time>
      </trkpt>
      <trkpt lat="45.85679" lon="4.70101">
        <ele>196</ele>
        <time>2018-06-16T08:59:53Z</time>
      </trkpt>
      <trkpt lat="45.85681" lon="4.70092">
        <ele>196</ele>
        <time>2018-06-16T08:59:54Z</time>
      </trkpt>
      <trkpt lat="45.85682" lon="4.70085">
        <ele>196</ele>
        <time>2018-06-16T08:59:55Z</time>
      </trkpt>
      <trkpt lat="45.85683" lon="4.70076">
        <ele>196</ele>
        <time>2018-06-16T08:59:56Z</time>
      </trkpt>
      <trkpt lat="45.85684" lon="4.70069">
        <ele>196</ele>
        <time>2018-06-16T08:59:57Z</time>
      </trkpt>
      <trkpt lat="45.85687" lon="4.70058">
        <ele>195</ele>
        <time>2018-06-16T08:59:58Z</time>
      </trkpt>
      <trkpt lat="45.85689" lon="4.70047">
        <ele>195</ele>
        <time>2018-06-16T09:00:00Z</time>
      </trkpt>
      <trkpt lat="45.8569" lon="4.7004">
        <ele>195</ele>
        <time>2018-06-16T09:00:01Z</time>
      </trkpt>
      <trkpt lat="45.85692" lon="4.70032">
        <ele>195</ele>
        <time>2018-06-16T09:00:02Z</time>
      </trkpt>
      <trkpt lat="45.85693" lon="4.70025">
        <ele>195</ele>
        <time>2018-06-16T09:00:03Z</time>
      </trkpt>
      <trkpt lat="45.85693" lon="4.70017">
        <ele>195</ele>
        <time>2018-06-16T09:00:04Z</time>
      </trkpt>
      <trkpt lat="45.85694" lon="4.70009">
        <ele>195</ele>
        <time>2018-06-16T09:00:05Z</time>
      </trkpt>
      <trkpt lat="45.85694" lon="4.70002">
        <ele>195</ele>
        <time>2018-06-16T09:00:06Z</time>
      </trkpt>
      <trkpt lat="45.85694" lon="4.69994">
        <ele>195</ele>
        <time>2018-06-16T09:00:07Z</time>
      </trkpt>
      <trkpt lat="45.85693" lon="4.69985">
        <ele>195</ele>
        <time>2018-06-16T09:00:08Z</time>
      </trkpt>
      <trkpt lat="45.85693" lon="4.69975">
        <ele>195</ele>
        <time>2018-06-16T09:00:09Z</time>
      </trkpt>
      <trkpt lat="45.85691" lon="4.69966">
        <ele>195</ele>
        <time>2018-06-16T09:00:10Z</time>
      </trkpt>
      <trkpt lat="45.85688" lon="4.69957">
        <ele>195</ele>
        <time>2018-06-16T09:00:11Z</time>
      </trkpt>
      <trkpt lat="45.85684" lon="4.69949">
        <ele>195</ele>
        <time>2018-06-16T09:00:12Z</time>
      </trkpt>
      <trkpt lat="45.85681" lon="4.69941">
        <ele>195</ele>
        <time>2018-06-16T09:00:13Z</time>
      </trkpt>
      <trkpt lat="45.85679" lon="4.69934">
        <ele>195</ele>
        <time>2018-06-16T09:00:14Z</time>
      </trkpt>
      <trkpt lat="45.85676" lon="4.69926">
        <ele>195</ele>
        <time>2018-06-16T09:00:15Z</time>
      </trkpt>
      <trkpt lat="45.85676" lon="4.69916">
        <ele>195</ele>
        <time>2018-06-16T09:00:16Z</time>
      </trkpt>
      <trkpt lat="45.85674" lon="4.69908">
        <ele>195</ele>
        <time>2018-06-16T09:00:17Z</time>
      </trkpt>
      <trkpt lat="45.85672" lon="4.699">
        <ele>195</ele>
        <time>2018-06-16T09:00:18Z</time>
      </trkpt>
      <trkpt lat="45.85671" lon="4.69891">
        <ele>195</ele>
        <time>2018-06-16T09:00:19Z</time>
      </trkpt>
      <trkpt lat="45.8567" lon="4.69882">
        <ele>195</ele>
        <time>2018-06-16T09:00:20Z</time>
      </trkpt>
      <trkpt lat="45.85668" lon="4.69874">
        <ele>195</ele>
        <time>2018-06-16T09:00:21Z</time>
      </trkpt>
      <trkpt lat="45.85667" lon="4.69868">
        <ele>195</ele>
        <time>2018-06-16T09:00:22Z</time>
      </trkpt>
      <trkpt lat="45.85666" lon="4.6986">
        <ele>195</ele>
        <time>2018-06-16T09:00:23Z</time>
      </trkpt>
      <trkpt lat="45.85664" lon="4.6985">
        <ele>195</ele>
        <time>2018-06-16T09:00:24Z</time>
      </trkpt>
      <trkpt lat="45.85664" lon="4.69842">
        <ele>195</ele>
        <time>2018-06-16T09:00:25Z</time>
      </trkpt>
      <trkpt lat="45.85662" lon="4.69834">
        <ele>195</ele>
        <time>2018-06-16T09:00:26Z</time>
      </trkpt>
      <trkpt lat="45.85661" lon="4.69825">
        <ele>195</ele>
        <time>2018-06-16T09:00:27Z</time>
      </trkpt>
      <trkpt lat="45.85659" lon="4.69817">
        <ele>195</ele>
        <time>2018-06-16T09:00:28Z</time>
      </trkpt>
      <trkpt lat="45.85659" lon="4.69808">
        <ele>195</ele>
        <time>2018-06-16T09:00:29Z</time>
      </trkpt>
      <trkpt lat="45.85659" lon="4.69801">
        <ele>195</ele>
        <time>2018-06-16T09:00:30Z</time>
      </trkpt>
      <trkpt lat="45.85658" lon="4.69792">
        <ele>195</ele>
        <time>2018-06-16T09:00:31Z</time>
      </trkpt>
      <trkpt lat="45.85657" lon="4.69784">
        <ele>195</ele>
        <time>2018-06-16T09:00:32Z</time>
      </trkpt>
      <trkpt lat="45.85656" lon="4.69776">
        <ele>195</ele>
        <time>2018-06-16T09:00:33Z</time>
      </trkpt>
      <trkpt lat="45.85656" lon="4.69769">
        <ele>195</ele>
        <time>2018-06-16T09:00:34Z</time>
      </trkpt>
      <trkpt lat="45.85655" lon="4.69761">
        <ele>195</ele>
        <time>2018-06-16T09:00:35Z</time>
      </trkpt>
      <trkpt lat="45.85653" lon="4.69752">
        <ele>195</ele>
        <time>2018-06-16T09:00:36Z</time>
      </trkpt>
      <trkpt lat="45.85652" lon="4.69745">
        <ele>195</ele>
        <time>2018-06-16T09:00:37Z</time>
      </trkpt>
      <trkpt lat="45.85652" lon="4.69738">
        <ele>195</ele>
        <time>2018-06-16T09:00:38Z</time>
      </trkpt>
      <trkpt lat="45.85649" lon="4.69731">
        <ele>195</ele>
        <time>2018-06-16T09:00:39Z</time>
      </trkpt>
      <trkpt lat="45.85648" lon="4.69724">
        <ele>196</ele>
        <time>2018-06-16T09:00:40Z</time>
      </trkpt>
      <trkpt lat="45.85648" lon="4.69716">
        <ele>196</ele>
        <time>2018-06-16T09:00:41Z</time>
      </trkpt>
      <trkpt lat="45.85646" lon="4.69708">
        <ele>196</ele>
        <time>2018-06-16T09:00:42Z</time>
      </trkpt>
      <trkpt lat="45.85646" lon="4.697">
        <ele>196</ele>
        <time>2018-06-16T09:00:43Z</time>
      </trkpt>
      <trkpt lat="45.85644" lon="4.69693">
        <ele>196</ele>
        <time>2018-06-16T09:00:44Z</time>
      </trkpt>
      <trkpt lat="45.85643" lon="4.69684">
        <ele>196</ele>
        <time>2018-06-16T09:00:45Z</time>
      </trkpt>
      <trkpt lat="45.85642" lon="4.69674">
        <ele>196</ele>
        <time>2018-06-16T09:00:46Z</time>
      </trkpt>
      <trkpt lat="45.85641" lon="4.69667">
        <ele>196</ele>
        <time>2018-06-16T09:00:47Z</time>
      </trkpt>
      <trkpt lat="45.8564" lon="4.69658">
        <ele>197</ele>
        <time>2018-06-16T09:00:48Z</time>
      </trkpt>
      <trkpt lat="45.85639" lon="4.6965">
        <ele>197</ele>
        <time>2018-06-16T09:00:49Z</time>
      </trkpt>
      <trkpt lat="45.85639" lon="4.69642">
        <ele>197</ele>
        <time>2018-06-16T09:00:50Z</time>
      </trkpt>
      <trkpt lat="45.85638" lon="4.69634">
        <ele>197</ele>
        <time>2018-06-16T09:00:51Z</time>
      </trkpt>
      <trkpt lat="45.85637" lon="4.69627">
        <ele>197</ele>
        <time>2018-06-16T09:00:52Z</time>
      </trkpt>
      <trkpt lat="45.85636" lon="4.6962">
        <ele>197</ele>
        <time>2018-06-16T09:00:53Z</time>
      </trkpt>
      <trkpt lat="45.85635" lon="4.69613">
        <ele>197</ele>
        <time>2018-06-16T09:00:54Z</time>
      </trkpt>
      <trkpt lat="45.85635" lon="4.69606">
        <ele>197</ele>
        <time>2018-06-16T09:00:55Z</time>
      </trkpt>
      <trkpt lat="45.85635" lon="4.696">
        <ele>197</ele>
        <time>2018-06-16T09:00:56Z</time>
      </trkpt>
      <trkpt lat="45.85634" lon="4.69592">
        <ele>197</ele>
        <time>2018-06-16T09:00:57Z</time>
      </trkpt>
      <trkpt lat="45.85634" lon="4.69584">
        <ele>197</ele>
        <time>2018-06-16T09:00:58Z</time>
      </trkpt>
      <trkpt lat="45.85635" lon="4.69576">
        <ele>198</ele>
        <time>2018-06-16T09:00:59Z</time>
      </trkpt>
      <trkpt lat="45.85634" lon="4.69569">
        <ele>198</ele>
        <time>2018-06-16T09:01:00Z</time>
      </trkpt>
      <trkpt lat="45.85633" lon="4.6956">
        <ele>198</ele>
        <time>2018-06-16T09:01:01Z</time>
      </trkpt>
      <trkpt lat="45.85632" lon="4.69553">
        <ele>198</ele>
        <time>2018-06-16T09:01:02Z</time>
      </trkpt>
      <trkpt lat="45.85632" lon="4.69544">
        <ele>198</ele>
        <time>2018-06-16T09:01:03Z</time>
      </trkpt>
      <trkpt lat="45.85631" lon="4.69537">
        <ele>198</ele>
        <time>2018-06-16T09:01:04Z</time>
      </trkpt>
      <trkpt lat="45.8563" lon="4.6953">
        <ele>198</ele>
        <time>2018-06-16T09:01:05Z</time>
      </trkpt>
      <trkpt lat="45.85629" lon="4.69522">
        <ele>198</ele>
        <time>2018-06-16T09:01:06Z</time>
      </trkpt>
      <trkpt lat="45.85628" lon="4.69513">
        <ele>198</ele>
        <time>2018-06-16T09:01:07Z</time>
      </trkpt>
      <trkpt lat="45.85628" lon="4.69507">
        <ele>198</ele>
        <time>2018-06-16T09:01:08Z</time>
      </trkpt>
      <trkpt lat="45.85628" lon="4.695">
        <ele>198</ele>
        <time>2018-06-16T09:01:09Z</time>
      </trkpt>
      <trkpt lat="45.85627" lon="4.69491">
        <ele>198</ele>
        <time>2018-06-16T09:01:10Z</time>
      </trkpt>
      <trkpt lat="45.85626" lon="4.69483">
        <ele>198</ele>
        <time>2018-06-16T09:01:11Z</time>
      </trkpt>
      <trkpt lat="45.85625" lon="4.69477">
        <ele>198</ele>
        <time>2018-06-16T09:01:12Z</time>
      </trkpt>
      <trkpt lat="45.85623" lon="4.69469">
        <ele>198</ele>
        <time>2018-06-16T09:01:13Z</time>
      </trkpt>
      <trkpt lat="45.85623" lon="4.6946">
        <ele>198</ele>
        <time>2018-06-16T09:01:14Z</time>
      </trkpt>
      <trkpt lat="45.85622" lon="4.69454">
        <ele>198</ele>
        <time>2018-06-16T09:01:15Z</time>
      </trkpt>
      <trkpt lat="45.85621" lon="4.69447">
        <ele>198</ele>
        <time>2018-06-16T09:01:16Z</time>
      </trkpt>
      <trkpt lat="45.85622" lon="4.69439">
        <ele>198</ele>
        <time>2018-06-16T09:01:17Z</time>
      </trkpt>
      <trkpt lat="45.85621" lon="4.69432">
        <ele>198</ele>
        <time>2018-06-16T09:01:18Z</time>
      </trkpt>
      <trkpt lat="45.8562" lon="4.69424">
        <ele>198</ele>
        <time>2018-06-16T09:01:19Z</time>
      </trkpt>
      <trkpt lat="45.8562" lon="4.69416">
        <ele>198</ele>
        <time>2018-06-16T09:01:20Z</time>
      </trkpt>
      <trkpt lat="45.85619" lon="4.69408">
        <ele>198</ele>
        <time>2018-06-16T09:01:21Z</time>
      </trkpt>
      <trkpt lat="45.85618" lon="4.69399">
        <ele>198</ele>
        <time>2018-06-16T09:01:22Z</time>
      </trkpt>
      <trkpt lat="45.85616" lon="4.6939">
        <ele>198</ele>
        <time>2018-06-16T09:01:23Z</time>
      </trkpt>
      <trkpt lat="45.85616" lon="4.69381">
        <ele>198</ele>
        <time>2018-06-16T09:01:24Z</time>
      </trkpt>
      <trkpt lat="45.85613" lon="4.69373">
        <ele>198</ele>
        <time>2018-06-16T09:01:25Z</time>
      </trkpt>
      <trkpt lat="45.85612" lon="4.69365">
        <ele>198</ele>
        <time>2018-06-16T09:01:26Z</time>
      </trkpt>
      <trkpt lat="45.85611" lon="4.69358">
        <ele>198</ele>
        <time>2018-06-16T09:01:27Z</time>
      </trkpt>
      <trkpt lat="45.85611" lon="4.6935">
        <ele>198</ele>
        <time>2018-06-16T09:01:28Z</time>
      </trkpt>
      <trkpt lat="45.85611" lon="4.69344">
        <ele>198</ele>
        <time>2018-06-16T09:01:29Z</time>
      </trkpt>
      <trkpt lat="45.8561" lon="4.69336">
        <ele>198</ele>
        <time>2018-06-16T09:01:30Z</time>
      </trkpt>
      <trkpt lat="45.85611" lon="4.69327">
        <ele>198</ele>
        <time>2018-06-16T09:01:31Z</time>
      </trkpt>
      <trkpt lat="45.85611" lon="4.69321">
        <ele>198</ele>
        <time>2018-06-16T09:01:32Z</time>
      </trkpt>
      <trkpt lat="45.8561" lon="4.69314">
        <ele>198</ele>
        <time>2018-06-16T09:01:33Z</time>
      </trkpt>
      <trkpt lat="45.85609" lon="4.69305">
        <ele>198</ele>
        <time>2018-06-16T09:01:34Z</time>
      </trkpt>
      <trkpt lat="45.85608" lon="4.69298">
        <ele>198</ele>
        <time>2018-06-16T09:01:35Z</time>
      </trkpt>
      <trkpt lat="45.85609" lon="4.69291">
        <ele>198</ele>
        <time>2018-06-16T09:01:36Z</time>
      </trkpt>
      <trkpt lat="45.85609" lon="4.69284">
        <ele>198</ele>
        <time>2018-06-16T09:01:37Z</time>
      </trkpt>
      <trkpt lat="45.8561" lon="4.69276">
        <ele>198</ele>
        <time>2018-06-16T09:01:38Z</time>
      </trkpt>
      <trkpt lat="45.85611" lon="4.69268">
        <ele>198</ele>
        <time>2018-06-16T09:01:39Z</time>
      </trkpt>
      <trkpt lat="45.85611" lon="4.69259">
        <ele>198</ele>
        <time>2018-06-16T09:01:40Z</time>
      </trkpt>
      <trkpt lat="45.8561" lon="4.69251">
        <ele>198</ele>
        <time>2018-06-16T09:01:41Z</time>
      </trkpt>
      <trkpt lat="45.85607" lon="4.69245">
        <ele>199</ele>
        <time>2018-06-16T09:01:42Z</time>
      </trkpt>
      <trkpt lat="45.85605" lon="4.69238">
        <ele>199</ele>
        <time>2018-06-16T09:01:43Z</time>
      </trkpt>
      <trkpt lat="45.85602" lon="4.69231">
        <ele>199</ele>
        <time>2018-06-16T09:01:44Z</time>
      </trkpt>
      <trkpt lat="45.85601" lon="4.69223">
        <ele>199</ele>
        <time>2018-06-16T09:01:45Z</time>
      </trkpt>
      <trkpt lat="45.856" lon="4.69215">
        <ele>199</ele>
        <time>2018-06-16T09:01:46Z</time>
      </trkpt>
      <trkpt lat="45.856" lon="4.69206">
        <ele>199</ele>
        <time>2018-06-16T09:01:47Z</time>
      </trkpt>
      <trkpt lat="45.85599" lon="4.69199">
        <ele>199</ele>
        <time>2018-06-16T09:01:48Z</time>
      </trkpt>
      <trkpt lat="45.85597" lon="4.69189">
        <ele>199</ele>
        <time>2018-06-16T09:01:49Z</time>
      </trkpt>
      <trkpt lat="45.85596" lon="4.69182">
        <ele>199</ele>
        <time>2018-06-16T09:01:50Z</time>
      </trkpt>
      <trkpt lat="45.85595" lon="4.69172">
        <ele>199</ele>
        <time>2018-06-16T09:01:51Z</time>
      </trkpt>
      <trkpt lat="45.85594" lon="4.69163">
        <ele>199</ele>
        <time>2018-06-16T09:01:52Z</time>
      </trkpt>
      <trkpt lat="45.85593" lon="4.69154">
        <ele>199</ele>
        <time>2018-06-16T09:01:53Z</time>
      </trkpt>
      <trkpt lat="45.85593" lon="4.69146">
        <ele>199</ele>
        <time>2018-06-16T09:01:54Z</time>
      </trkpt>
      <trkpt lat="45.85592" lon="4.69138">
        <ele>199</ele>
        <time>2018-06-16T09:01:55Z</time>
      </trkpt>
      <trkpt lat="45.85591" lon="4.6913">
        <ele>199</ele>
        <time>2018-06-16T09:01:56Z</time>
      </trkpt>
      <trkpt lat="45.8559" lon="4.69122">
        <ele>199</ele>
        <time>2018-06-16T09:01:57Z</time>
      </trkpt>
      <trkpt lat="45.85589" lon="4.69112">
        <ele>199</ele>
        <time>2018-06-16T09:01:58Z</time>
      </trkpt>
      <trkpt lat="45.85589" lon="4.69104">
        <ele>199</ele>
        <time>2018-06-16T09:01:59Z</time>
      </trkpt>
      <trkpt lat="45.85588" lon="4.69095">
        <ele>199</ele>
        <time>2018-06-16T09:02:00Z</time>
      </trkpt>
      <trkpt lat="45.85587" lon="4.69087">
        <ele>199</ele>
        <time>2018-06-16T09:02:01Z</time>
      </trkpt>
      <trkpt lat="45.85587" lon="4.69079">
        <ele>199</ele>
        <time>2018-06-16T09:02:02Z</time>
      </trkpt>
      <trkpt lat="45.85586" lon="4.69071">
        <ele>199</ele>
        <time>2018-06-16T09:02:03Z</time>
      </trkpt>
      <trkpt lat="45.85585" lon="4.69064">
        <ele>199</ele>
        <time>2018-06-16T09:02:04Z</time>
      </trkpt>
      <trkpt lat="45.85585" lon="4.69057">
        <ele>199</ele>
        <time>2018-06-16T09:02:05Z</time>
      </trkpt>
      <trkpt lat="45.85584" lon="4.69051">
        <ele>199</ele>
        <time>2018-06-16T09:02:06Z</time>
      </trkpt>
      <trkpt lat="45.85581" lon="4.69044">
        <ele>199</ele>
        <time>2018-06-16T09:02:07Z</time>
      </trkpt>
      <trkpt lat="45.85581" lon="4.69036">
        <ele>200</ele>
        <time>2018-06-16T09:02:08Z</time>
      </trkpt>
      <trkpt lat="45.85579" lon="4.69028">
        <ele>200</ele>
        <time>2018-06-16T09:02:09Z</time>
      </trkpt>
      <trkpt lat="45.85578" lon="4.69021">
        <ele>200</ele>
        <time>2018-06-16T09:02:10Z</time>
      </trkpt>
      <trkpt lat="45.85578" lon="4.69013">
        <ele>200</ele>
        <time>2018-06-16T09:02:11Z</time>
      </trkpt>
      <trkpt lat="45.85577" lon="4.69003">
        <ele>200</ele>
        <time>2018-06-16T09:02:12Z</time>
      </trkpt>
      <trkpt lat="45.85576" lon="4.68993">
        <ele>200</ele>
        <time>2018-06-16T09:02:13Z</time>
      </trkpt>
      <trkpt lat="45.85575" lon="4.68984">
        <ele>200</ele>
        <time>2018-06-16T09:02:14Z</time>
      </trkpt>
      <trkpt lat="45.85575" lon="4.68976">
        <ele>200</ele>
        <time>2018-06-16T09:02:15Z</time>
      </trkpt>
      <trkpt lat="45.85573" lon="4.68969">
        <ele>200</ele>
        <time>2018-06-16T09:02:16Z</time>
      </trkpt>
      <trkpt lat="45.85573" lon="4.68961">
        <ele>200</ele>
        <time>2018-06-16T09:02:17Z</time>
      </trkpt>
      <trkpt lat="45.85572" lon="4.68951">
        <ele>200</ele>
        <time>2018-06-16T09:02:18Z</time>
      </trkpt>
      <trkpt lat="45.85572" lon="4.68943">
        <ele>200</ele>
        <time>2018-06-16T09:02:19Z</time>
      </trkpt>
      <trkpt lat="45.85571" lon="4.68935">
        <ele>200</ele>
        <time>2018-06-16T09:02:20Z</time>
      </trkpt>
      <trkpt lat="45.85571" lon="4.68925">
        <ele>200</ele>
        <time>2018-06-16T09:02:21Z</time>
      </trkpt>
      <trkpt lat="45.8557" lon="4.68916">
        <ele>200</ele>
        <time>2018-06-16T09:02:22Z</time>
      </trkpt>
      <trkpt lat="45.85569" lon="4.68908">
        <ele>200</ele>
        <time>2018-06-16T09:02:23Z</time>
      </trkpt>
      <trkpt lat="45.85568" lon="4.68898">
        <ele>200</ele>
        <time>2018-06-16T09:02:24Z</time>
      </trkpt>
      <trkpt lat="45.85567" lon="4.68889">
        <ele>200</ele>
        <time>2018-06-16T09:02:25Z</time>
      </trkpt>
      <trkpt lat="45.85567" lon="4.68881">
        <ele>200</ele>
        <time>2018-06-16T09:02:26Z</time>
      </trkpt>
      <trkpt lat="45.85565" lon="4.68873">
        <ele>200</ele>
        <time>2018-06-16T09:02:27Z</time>
      </trkpt>
      <trkpt lat="45.85564" lon="4.68864">
        <ele>200</ele>
        <time>2018-06-16T09:02:28Z</time>
      </trkpt>
      <trkpt lat="45.85563" lon="4.68855">
        <ele>200</ele>
        <time>2018-06-16T09:02:29Z</time>
      </trkpt>
      <trkpt lat="45.85564" lon="4.68846">
        <ele>200</ele>
        <time>2018-06-16T09:02:30Z</time>
      </trkpt>
      <trkpt lat="45.85564" lon="4.68837">
        <ele>200</ele>
        <time>2018-06-16T09:02:31Z</time>
      </trkpt>
      <trkpt lat="45.85563" lon="4.68826">
        <ele>200</ele>
        <time>2018-06-16T09:02:32Z</time>
      </trkpt>
      <trkpt lat="45.85561" lon="4.68817">
        <ele>200</ele>
        <time>2018-06-16T09:02:33Z</time>
      </trkpt>
      <trkpt lat="45.85559" lon="4.68808">
        <ele>200</ele>
        <time>2018-06-16T09:02:34Z</time>
      </trkpt>
      <trkpt lat="45.85561" lon="4.68797">
        <ele>200</ele>
        <time>2018-06-16T09:02:35Z</time>
      </trkpt>
      <trkpt lat="45.8556" lon="4.68789">
        <ele>200</ele>
        <time>2018-06-16T09:02:36Z</time>
      </trkpt>
      <trkpt lat="45.8556" lon="4.68779">
        <ele>200</ele>
        <time>2018-06-16T09:02:37Z</time>
      </trkpt>
      <trkpt lat="45.85559" lon="4.6877">
        <ele>200</ele>
        <time>2018-06-16T09:02:38Z</time>
      </trkpt>
      <trkpt lat="45.85558" lon="4.68763">
        <ele>200</ele>
        <time>2018-06-16T09:02:39Z</time>
      </trkpt>
      <trkpt lat="45.85558" lon="4.68755">
        <ele>200</ele>
        <time>2018-06-16T09:02:40Z</time>
      </trkpt>
      <trkpt lat="45.85557" lon="4.68746">
        <ele>200</ele>
        <time>2018-06-16T09:02:41Z</time>
      </trkpt>
      <trkpt lat="45.85556" lon="4.68738">
        <ele>200</ele>
        <time>2018-06-16T09:02:42Z</time>
      </trkpt>
      <trkpt lat="45.85556" lon="4.6873">
        <ele>200</ele>
        <time>2018-06-16T09:02:43Z</time>
      </trkpt>
      <trkpt lat="45.85555" lon="4.68722">
        <ele>200</ele>
        <time>2018-06-16T09:02:44Z</time>
      </trkpt>
      <trkpt lat="45.85554" lon="4.68714">
        <ele>200</ele>
        <time>2018-06-16T09:02:45Z</time>
      </trkpt>
      <trkpt lat="45.85554" lon="4.68706">
        <ele>200</ele>
        <time>2018-06-16T09:02:46Z</time>
      </trkpt>
      <trkpt lat="45.85553" lon="4.68698">
        <ele>200</ele>
        <time>2018-06-16T09:02:47Z</time>
      </trkpt>
      <trkpt lat="45.85552" lon="4.68688">
        <ele>200</ele>
        <time>2018-06-16T09:02:48Z</time>
      </trkpt>
      <trkpt lat="45.85551" lon="4.6868">
        <ele>200</ele>
        <time>2018-06-16T09:02:49Z</time>
      </trkpt>
      <trkpt lat="45.85551" lon="4.68671">
        <ele>200</ele>
        <time>2018-06-16T09:02:50Z</time>
      </trkpt>
      <trkpt lat="45.8555" lon="4.68662">
        <ele>200</ele>
        <time>2018-06-16T09:02:51Z</time>
      </trkpt>
      <trkpt lat="45.8555" lon="4.68654">
        <ele>201</ele>
        <time>2018-06-16T09:02:52Z</time>
      </trkpt>
      <trkpt lat="45.85551" lon="4.68649">
        <ele>201</ele>
        <time>2018-06-16T09:02:53Z</time>
      </trkpt>
      <trkpt lat="45.85549" lon="4.68641">
        <ele>201</ele>
        <time>2018-06-16T09:02:54Z</time>
      </trkpt>
      <trkpt lat="45.85549" lon="4.68631">
        <ele>201</ele>
        <time>2018-06-16T09:02:55Z</time>
      </trkpt>
      <trkpt lat="45.85549" lon="4.68625">
        <ele>201</ele>
        <time>2018-06-16T09:02:56Z</time>
      </trkpt>
      <trkpt lat="45.85547" lon="4.68617">
        <ele>201</ele>
        <time>2018-06-16T09:02:57Z</time>
      </trkpt>
      <trkpt lat="45.85546" lon="4.68611">
        <ele>201</ele>
        <time>2018-06-16T09:02:58Z</time>
      </trkpt>
      <trkpt lat="45.85547" lon="4.68604">
        <ele>201</ele>
        <time>2018-06-16T09:02:59Z</time>
      </trkpt>
      <trkpt lat="45.85547" lon="4.68593">
        <ele>201</ele>
        <time>2018-06-16T09:03:00Z</time>
      </trkpt>
      <trkpt lat="45.85547" lon="4.68585">
        <ele>201</ele>
        <time>2018-06-16T09:03:01Z</time>
      </trkpt>
      <trkpt lat="45.85548" lon="4.68578">
        <ele>201</ele>
        <time>2018-06-16T09:03:02Z</time>
      </trkpt>
      <trkpt lat="45.85547" lon="4.6857">
        <ele>201</ele>
        <time>2018-06-16T09:03:03Z</time>
      </trkpt>
      <trkpt lat="45.85548" lon="4.68563">
        <ele>201</ele>
        <time>2018-06-16T09:03:04Z</time>
      </trkpt>
      <trkpt lat="45.85547" lon="4.68554">
        <ele>201</ele>
        <time>2018-06-16T09:03:05Z</time>
      </trkpt>
      <trkpt lat="45.85545" lon="4.68546">
        <ele>201</ele>
        <time>2018-06-16T09:03:06Z</time>
      </trkpt>
      <trkpt lat="45.85546" lon="4.6854">
        <ele>201</ele>
        <time>2018-06-16T09:03:07Z</time>
      </trkpt>
      <trkpt lat="45.85547" lon="4.68533">
        <ele>201</ele>
        <time>2018-06-16T09:03:08Z</time>
      </trkpt>
      <trkpt lat="45.85545" lon="4.68525">
        <ele>201</ele>
        <time>2018-06-16T09:03:09Z</time>
      </trkpt>
      <trkpt lat="45.85544" lon="4.68518">
        <ele>201</ele>
        <time>2018-06-16T09:03:10Z</time>
      </trkpt>
      <trkpt lat="45.85544" lon="4.6851">
        <ele>201</ele>
        <time>2018-06-16T09:03:11Z</time>
      </trkpt>
      <trkpt lat="45.85542" lon="4.68501">
        <ele>201</ele>
        <time>2018-06-16T09:03:12Z</time>
      </trkpt>
      <trkpt lat="45.85541" lon="4.68492">
        <ele>200</ele>
        <time>2018-06-16T09:03:13Z</time>
      </trkpt>
      <trkpt lat="45.85539" lon="4.68484">
        <ele>200</ele>
        <time>2018-06-16T09:03:14Z</time>
      </trkpt>
      <trkpt lat="45.85539" lon="4.68476">
        <ele>200</ele>
        <time>2018-06-16T09:03:15Z</time>
      </trkpt>
      <trkpt lat="45.85538" lon="4.68468">
        <ele>200</ele>
        <time>2018-06-16T09:03:16Z</time>
      </trkpt>
      <trkpt lat="45.85537" lon="4.6846">
        <ele>200</ele>
        <time>2018-06-16T09:03:17Z</time>
      </trkpt>
      <trkpt lat="45.85537" lon="4.68451">
        <ele>200</ele>
        <time>2018-06-16T09:03:18Z</time>
      </trkpt>
      <trkpt lat="45.85536" lon="4.68443">
        <ele>200</ele>
        <time>2018-06-16T09:03:19Z</time>
      </trkpt>
      <trkpt lat="45.85535" lon="4.68434">
        <ele>200</ele>
        <time>2018-06-16T09:03:20Z</time>
      </trkpt>
      <trkpt lat="45.85534" lon="4.68425">
        <ele>200</ele>
        <time>2018-06-16T09:03:21Z</time>
      </trkpt>
      <trkpt lat="45.85533" lon="4.68416">
        <ele>200</ele>
        <time>2018-06-16T09:03:22Z</time>
      </trkpt>
      <trkpt lat="45.85532" lon="4.68407">
        <ele>200</ele>
        <time>2018-06-16T09:03:23Z</time>
      </trkpt>
      <trkpt lat="45.85531" lon="4.68398">
        <ele>200</ele>
        <time>2018-06-16T09:03:24Z</time>
      </trkpt>
      <trkpt lat="45.85531" lon="4.6839">
        <ele>200</ele>
        <time>2018-06-16T09:03:25Z</time>
      </trkpt>
      <trkpt lat="45.8553" lon="4.68381">
        <ele>200</ele>
        <time>2018-06-16T09:03:26Z</time>
      </trkpt>
      <trkpt lat="45.8553" lon="4.68373">
        <ele>201</ele>
        <time>2018-06-16T09:03:27Z</time>
      </trkpt>
      <trkpt lat="45.8553" lon="4.68365">
        <ele>201</ele>
        <time>2018-06-16T09:03:28Z</time>
      </trkpt>
      <trkpt lat="45.85529" lon="4.68358">
        <ele>201</ele>
        <time>2018-06-16T09:03:29Z</time>
      </trkpt>
      <trkpt lat="45.85528" lon="4.6835">
        <ele>201</ele>
        <time>2018-06-16T09:03:30Z</time>
      </trkpt>
      <trkpt lat="45.85527" lon="4.68343">
        <ele>201</ele>
        <time>2018-06-16T09:03:31Z</time>
      </trkpt>
      <trkpt lat="45.85527" lon="4.68333">
        <ele>202</ele>
        <time>2018-06-16T09:03:32Z</time>
      </trkpt>
      <trkpt lat="45.85526" lon="4.68324">
        <ele>202</ele>
        <time>2018-06-16T09:03:33Z</time>
      </trkpt>
      <trkpt lat="45.85526" lon="4.68317">
        <ele>202</ele>
        <time>2018-06-16T09:03:34Z</time>
      </trkpt>
      <trkpt lat="45.85525" lon="4.68308">
        <ele>202</ele>
        <time>2018-06-16T09:03:35Z</time>
      </trkpt>
      <trkpt lat="45.85524" lon="4.68298">
        <ele>202</ele>
        <time>2018-06-16T09:03:36Z</time>
      </trkpt>
      <trkpt lat="45.85522" lon="4.68291">
        <ele>202</ele>
        <time>2018-06-16T09:03:37Z</time>
      </trkpt>
      <trkpt lat="45.85521" lon="4.68283">
        <ele>202</ele>
        <time>2018-06-16T09:03:38Z</time>
      </trkpt>
      <trkpt lat="45.85522" lon="4.68276">
        <ele>202</ele>
        <time>2018-06-16T09:03:39Z</time>
      </trkpt>
      <trkpt lat="45.8552" lon="4.68269">
        <ele>202</ele>
        <time>2018-06-16T09:03:40Z</time>
      </trkpt>
      <trkpt lat="45.85519" lon="4.6826">
        <ele>202</ele>
        <time>2018-06-16T09:03:41Z</time>
      </trkpt>
      <trkpt lat="45.85519" lon="4.68252">
        <ele>202</ele>
        <time>2018-06-16T09:03:42Z</time>
      </trkpt>
      <trkpt lat="45.85518" lon="4.68243">
        <ele>203</ele>
        <time>2018-06-16T09:03:43Z</time>
      </trkpt>
      <trkpt lat="45.85514" lon="4.68237">
        <ele>203</ele>
        <time>2018-06-16T09:03:44Z</time>
      </trkpt>
      <trkpt lat="45.85513" lon="4.68231">
        <ele>203</ele>
        <time>2018-06-16T09:03:45Z</time>
      </trkpt>
      <trkpt lat="45.85513" lon="4.68223">
        <ele>203</ele>
        <time>2018-06-16T09:03:46Z</time>
      </trkpt>
      <trkpt lat="45.85513" lon="4.68215">
        <ele>203</ele>
        <time>2018-06-16T09:03:47Z</time>
      </trkpt>
      <trkpt lat="45.85512" lon="4.68208">
        <ele>203</ele>
        <time>2018-06-16T09:03:48Z</time>
      </trkpt>
      <trkpt lat="45.85512" lon="4.68201">
        <ele>203</ele>
        <time>2018-06-16T09:03:49Z</time>
      </trkpt>
      <trkpt lat="45.85512" lon="4.68194">
        <ele>203</ele>
        <time>2018-06-16T09:03:50Z</time>
      </trkpt>
      <trkpt lat="45.85511" lon="4.68186">
        <ele>203</ele>
        <time>2018-06-16T09:03:51Z</time>
      </trkpt>
      <trkpt lat="45.8551" lon="4.68177">
        <ele>204</ele>
        <time>2018-06-16T09:03:52Z</time>
      </trkpt>
      <trkpt lat="45.8551" lon="4.6817">
        <ele>204</ele>
        <time>2018-06-16T09:03:53Z</time>
      </trkpt>
      <trkpt lat="45.8551" lon="4.68162">
        <ele>204</ele>
        <time>2018-06-16T09:03:54Z</time>
      </trkpt>
      <trkpt lat="45.85508" lon="4.68155">
        <ele>203</ele>
        <time>2018-06-16T09:03:55Z</time>
      </trkpt>
      <trkpt lat="45.85507" lon="4.68147">
        <ele>203</ele>
        <time>2018-06-16T09:03:56Z</time>
      </trkpt>
      <trkpt lat="45.85506" lon="4.6814">
        <ele>203</ele>
        <time>2018-06-16T09:03:57Z</time>
      </trkpt>
      <trkpt lat="45.85506" lon="4.68132">
        <ele>203</ele>
        <time>2018-06-16T09:03:58Z</time>
      </trkpt>
      <trkpt lat="45.85505" lon="4.68126">
        <ele>203</ele>
        <time>2018-06-16T09:03:59Z</time>
      </trkpt>
      <trkpt lat="45.85505" lon="4.68118">
        <ele>203</ele>
        <time>2018-06-16T09:04:00Z</time>
      </trkpt>
      <trkpt lat="45.85502" lon="4.68112">
        <ele>203</ele>
        <time>2018-06-16T09:04:01Z</time>
      </trkpt>
      <trkpt lat="45.85502" lon="4.68104">
        <ele>203</ele>
        <time>2018-06-16T09:04:02Z</time>
      </trkpt>
      <trkpt lat="45.85501" lon="4.68096">
        <ele>203</ele>
        <time>2018-06-16T09:04:03Z</time>
      </trkpt>
      <trkpt lat="45.855" lon="4.68089">
        <ele>204</ele>
        <time>2018-06-16T09:04:04Z</time>
      </trkpt>
      <trkpt lat="45.855" lon="4.68082">
        <ele>204</ele>
        <time>2018-06-16T09:04:05Z</time>
      </trkpt>
      <trkpt lat="45.855" lon="4.68076">
        <ele>205</ele>
        <time>2018-06-16T09:04:06Z</time>
      </trkpt>
      <trkpt lat="45.85499" lon="4.68069">
        <ele>205</ele>
        <time>2018-06-16T09:04:07Z</time>
      </trkpt>
      <trkpt lat="45.85498" lon="4.68057">
        <ele>206</ele>
        <time>2018-06-16T09:04:09Z</time>
      </trkpt>
      <trkpt lat="45.85498" lon="4.68051">
        <ele>206</ele>
        <time>2018-06-16T09:04:10Z</time>
      </trkpt>
      <trkpt lat="45.85498" lon="4.68043">
        <ele>206</ele>
        <time>2018-06-16T09:04:12Z</time>
      </trkpt>
      <trkpt lat="45.85499" lon="4.68036">
        <ele>206</ele>
        <time>2018-06-16T09:04:13Z</time>
      </trkpt>
      <trkpt lat="45.85498" lon="4.68025">
        <ele>207</ele>
        <time>2018-06-16T09:04:15Z</time>
      </trkpt>
      <trkpt lat="45.85498" lon="4.68018">
        <ele>207</ele>
        <time>2018-06-16T09:04:16Z</time>
      </trkpt>
      <trkpt lat="45.855" lon="4.68006">
        <ele>205</ele>
        <time>2018-06-16T09:04:18Z</time>
      </trkpt>
      <trkpt lat="45.85503" lon="4.68001">
        <ele>206</ele>
        <time>2018-06-16T09:04:19Z</time>
      </trkpt>
      <trkpt lat="45.85507" lon="4.67995">
        <ele>206</ele>
        <time>2018-06-16T09:04:20Z</time>
      </trkpt>
      <trkpt lat="45.85512" lon="4.67989">
        <ele>206</ele>
        <time>2018-06-16T09:04:21Z</time>
      </trkpt>
      <trkpt lat="45.85519" lon="4.67983">
        <ele>206</ele>
        <time>2018-06-16T09:04:23Z</time>
      </trkpt>
      <trkpt lat="45.85521" lon="4.67982">
        <ele>205</ele>
        <time>2018-06-16T09:04:24Z</time>
      </trkpt>
      <trkpt lat="45.85529" lon="4.67977">
        <ele>205</ele>
        <time>2018-06-16T09:04:26Z</time>
      </trkpt>
      <trkpt lat="45.85533" lon="4.67975">
        <ele>205</ele>
        <time>2018-06-16T09:04:27Z</time>
      </trkpt>
      <trkpt lat="45.85535" lon="4.67971">
        <ele>205</ele>
        <time>2018-06-16T09:04:29Z</time>
      </trkpt>
      <trkpt lat="45.8554" lon="4.67964">
        <ele>205</ele>
        <time>2018-06-16T09:04:30Z</time>
      </trkpt>
      <trkpt lat="45.85544" lon="4.67957">
        <ele>205</ele>
        <time>2018-06-16T09:04:33Z</time>
      </trkpt>
      <trkpt lat="45.85546" lon="4.67955">
        <ele>205</ele>
        <time>2018-06-16T09:04:34Z</time>
      </trkpt>
      <trkpt lat="45.85553" lon="4.67948">
        <ele>205</ele>
        <time>2018-06-16T09:04:40Z</time>
      </trkpt>
      <trkpt lat="45.85554" lon="4.67947">
        <ele>205</ele>
        <time>2018-06-16T09:04:41Z</time>
      </trkpt>
      <trkpt lat="45.85561" lon="4.67941">
        <ele>205</ele>
        <time>2018-06-16T09:04:45Z</time>
      </trkpt>
      <trkpt lat="45.85569" lon="4.67937">
        <ele>205</ele>
        <time>2018-06-16T09:04:46Z</time>
      </trkpt>
      <trkpt lat="45.85574" lon="4.67926">
        <ele>205</ele>
        <time>2018-06-16T09:04:48Z</time>
      </trkpt>
      <trkpt lat="45.85572" lon="4.6792">
        <ele>205</ele>
        <time>2018-06-16T09:04:49Z</time>
      </trkpt>
      <trkpt lat="45.85571" lon="4.67912">
        <ele>205</ele>
        <time>2018-06-16T09:04:50Z</time>
      </trkpt>
      <trkpt lat="45.85571" lon="4.67905">
        <ele>206</ele>
        <time>2018-06-16T09:04:51Z</time>
      </trkpt>
      <trkpt lat="45.85571" lon="4.67897">
        <ele>206</ele>
        <time>2018-06-16T09:04:52Z</time>
      </trkpt>
      <trkpt lat="45.8557" lon="4.67891">
        <ele>206</ele>
        <time>2018-06-16T09:04:53Z</time>
      </trkpt>
      <trkpt lat="45.8557" lon="4.67885">
        <ele>206</ele>
        <time>2018-06-16T09:04:54Z</time>
      </trkpt>
      <trkpt lat="45.85568" lon="4.67874">
        <ele>207</ele>
        <time>2018-06-16T09:04:55Z</time>
      </trkpt>
      <trkpt lat="45.85571" lon="4.67866">
        <ele>207</ele>
        <time>2018-06-16T09:04:56Z</time>
      </trkpt>
      <trkpt lat="45.85571" lon="4.67857">
        <ele>207</ele>
        <time>2018-06-16T09:04:57Z</time>
      </trkpt>
      <trkpt lat="45.85571" lon="4.6785">
        <ele>206</ele>
        <time>2018-06-16T09:04:58Z</time>
      </trkpt>
      <trkpt lat="45.85574" lon="4.67842">
        <ele>206</ele>
        <time>2018-06-16T09:04:59Z</time>
      </trkpt>
      <trkpt lat="45.85576" lon="4.67833">
        <ele>206</ele>
        <time>2018-06-16T09:05:00Z</time>
      </trkpt>
      <trkpt lat="45.85576" lon="4.67826">
        <ele>206</ele>
        <time>2018-06-16T09:05:01Z</time>
      </trkpt>
      <trkpt lat="45.85578" lon="4.67814">
        <ele>206</ele>
        <time>2018-06-16T09:05:02Z</time>
      </trkpt>
      <trkpt lat="45.85579" lon="4.67805">
        <ele>206</ele>
        <time>2018-06-16T09:05:03Z</time>
      </trkpt>
      <trkpt lat="45.85583" lon="4.678">
        <ele>206</ele>
        <time>2018-06-16T09:05:04Z</time>
      </trkpt>
      <trkpt lat="45.85585" lon="4.67793">
        <ele>209</ele>
        <time>2018-06-16T09:05:05Z</time>
      </trkpt>
      <trkpt lat="45.85589" lon="4.67785">
        <ele>209</ele>
        <time>2018-06-16T09:05:06Z</time>
      </trkpt>
      <trkpt lat="45.85593" lon="4.67777">
        <ele>209</ele>
        <time>2018-06-16T09:05:07Z</time>
      </trkpt>
      <trkpt lat="45.85596" lon="4.6777">
        <ele>209</ele>
        <time>2018-06-16T09:05:08Z</time>
      </trkpt>
      <trkpt lat="45.856" lon="4.67763">
        <ele>209</ele>
        <time>2018-06-16T09:05:09Z</time>
      </trkpt>
      <trkpt lat="45.85603" lon="4.67757">
        <ele>209</ele>
        <time>2018-06-16T09:05:10Z</time>
      </trkpt>
      <trkpt lat="45.85607" lon="4.67749">
        <ele>207</ele>
        <time>2018-06-16T09:05:11Z</time>
      </trkpt>
      <trkpt lat="45.8561" lon="4.67743">
        <ele>208</ele>
        <time>2018-06-16T09:05:12Z</time>
      </trkpt>
      <trkpt lat="45.85614" lon="4.67737">
        <ele>209</ele>
        <time>2018-06-16T09:05:13Z</time>
      </trkpt>
      <trkpt lat="45.85618" lon="4.67732">
        <ele>209</ele>
        <time>2018-06-16T09:05:14Z</time>
      </trkpt>
      <trkpt lat="45.85622" lon="4.67726">
        <ele>209</ele>
        <time>2018-06-16T09:05:15Z</time>
      </trkpt>
      <trkpt lat="45.85625" lon="4.67722">
        <ele>209</ele>
        <time>2018-06-16T09:05:16Z</time>
      </trkpt>
      <trkpt lat="45.85629" lon="4.67716">
        <ele>210</ele>
        <time>2018-06-16T09:05:17Z</time>
      </trkpt>
      <trkpt lat="45.85632" lon="4.67712">
        <ele>210</ele>
        <time>2018-06-16T09:05:18Z</time>
      </trkpt>
      <trkpt lat="45.85636" lon="4.67706">
        <ele>210</ele>
        <time>2018-06-16T09:05:19Z</time>
      </trkpt>
      <trkpt lat="45.8564" lon="4.67701">
        <ele>210</ele>
        <time>2018-06-16T09:05:20Z</time>
      </trkpt>
      <trkpt lat="45.85645" lon="4.67696">
        <ele>210</ele>
        <time>2018-06-16T09:05:21Z</time>
      </trkpt>
      <trkpt lat="45.85649" lon="4.67691">
        <ele>210</ele>
        <time>2018-06-16T09:05:22Z</time>
      </trkpt>
      <trkpt lat="45.85654" lon="4.67686">
        <ele>209</ele>
        <time>2018-06-16T09:05:23Z</time>
      </trkpt>
      <trkpt lat="45.85658" lon="4.67682">
        <ele>209</ele>
        <time>2018-06-16T09:05:24Z</time>
      </trkpt>
      <trkpt lat="45.85663" lon="4.67677">
        <ele>209</ele>
        <time>2018-06-16T09:05:25Z</time>
      </trkpt>
      <trkpt lat="45.85669" lon="4.67674">
        <ele>213</ele>
        <time>2018-06-16T09:05:26Z</time>
      </trkpt>
      <trkpt lat="45.85674" lon="4.67672">
        <ele>213</ele>
        <time>2018-06-16T09:05:27Z</time>
      </trkpt>
      <trkpt lat="45.85679" lon="4.67669">
        <ele>214</ele>
        <time>2018-06-16T09:05:28Z</time>
      </trkpt>
      <trkpt lat="45.85684" lon="4.67666">
        <ele>210</ele>
        <time>2018-06-16T09:05:29Z</time>
      </trkpt>
      <trkpt lat="45.8569" lon="4.67663">
        <ele>211</ele>
        <time>2018-06-16T09:05:30Z</time>
      </trkpt>
      <trkpt lat="45.85695" lon="4.67658">
        <ele>211</ele>
        <time>2018-06-16T09:05:31Z</time>
      </trkpt>
      <trkpt lat="45.857" lon="4.67654">
        <ele>211</ele>
        <time>2018-06-16T09:05:32Z</time>
      </trkpt>
      <trkpt lat="45.85704" lon="4.67652">
        <ele>212</ele>
        <time>2018-06-16T09:05:33Z</time>
      </trkpt>
      <trkpt lat="45.85708" lon="4.6765">
        <ele>212</ele>
        <time>2018-06-16T09:05:34Z</time>
      </trkpt>
      <trkpt lat="45.85715" lon="4.67643">
        <ele>212</ele>
        <time>2018-06-16T09:05:35Z</time>
      </trkpt>
      <trkpt lat="45.85723" lon="4.67639">
        <ele>212</ele>
        <time>2018-06-16T09:05:37Z</time>
      </trkpt>
      <trkpt lat="45.85729" lon="4.67636">
        <ele>212</ele>
        <time>2018-06-16T09:05:38Z</time>
      </trkpt>
      <trkpt lat="45.85733" lon="4.67633">
        <ele>212</ele>
        <time>2018-06-16T09:05:39Z</time>
      </trkpt>
      <trkpt lat="45.85738" lon="4.6763">
        <ele>212</ele>
        <time>2018-06-16T09:05:40Z</time>
      </trkpt>
      <trkpt lat="45.85743" lon="4.67626">
        <ele>212</ele>
        <time>2018-06-16T09:05:41Z</time>
      </trkpt>
      <trkpt lat="45.85749" lon="4.67623">
        <ele>212</ele>
        <time>2018-06-16T09:05:42Z</time>
      </trkpt>
      <trkpt lat="45.85755" lon="4.6762">
        <ele>219</ele>
        <time>2018-06-16T09:05:43Z</time>
      </trkpt>
      <trkpt lat="45.85762" lon="4.67617">
        <ele>219</ele>
        <time>2018-06-16T09:05:44Z</time>
      </trkpt>
      <trkpt lat="45.85767" lon="4.67614">
        <ele>219</ele>
        <time>2018-06-16T09:05:45Z</time>
      </trkpt>
      <trkpt lat="45.85774" lon="4.67609">
        <ele>219</ele>
        <time>2018-06-16T09:05:46Z</time>
      </trkpt>
      <trkpt lat="45.85778" lon="4.67607">
        <ele>219</ele>
        <time>2018-06-16T09:05:47Z</time>
      </trkpt>
      <trkpt lat="45.85783" lon="4.67599">
        <ele>219</ele>
        <time>2018-06-16T09:05:48Z</time>
      </trkpt>
      <trkpt lat="45.85788" lon="4.67596">
        <ele>219</ele>
        <time>2018-06-16T09:05:49Z</time>
      </trkpt>
      <trkpt lat="45.85791" lon="4.67591">
        <ele>219</ele>
        <time>2018-06-16T09:05:50Z</time>
      </trkpt>
      <trkpt lat="45.85799" lon="4.67583">
        <ele>220</ele>
        <time>2018-06-16T09:05:52Z</time>
      </trkpt>
      <trkpt lat="45.85804" lon="4.6758">
        <ele>213</ele>
        <time>2018-06-16T09:05:53Z</time>
      </trkpt>
      <trkpt lat="45.85808" lon="4.67574">
        <ele>213</ele>
        <time>2018-06-16T09:05:54Z</time>
      </trkpt>
      <trkpt lat="45.85813" lon="4.67567">
        <ele>213</ele>
        <time>2018-06-16T09:05:55Z</time>
      </trkpt>
      <trkpt lat="45.85818" lon="4.67561">
        <ele>213</ele>
        <time>2018-06-16T09:05:56Z</time>
      </trkpt>
      <trkpt lat="45.85822" lon="4.67558">
        <ele>213</ele>
        <time>2018-06-16T09:05:57Z</time>
      </trkpt>
      <trkpt lat="45.85824" lon="4.67554">
        <ele>213</ele>
        <time>2018-06-16T09:05:58Z</time>
      </trkpt>
      <trkpt lat="45.85829" lon="4.67547">
        <ele>212</ele>
        <time>2018-06-16T09:05:59Z</time>
      </trkpt>
      <trkpt lat="45.85833" lon="4.67541">
        <ele>211</ele>
        <time>2018-06-16T09:06:00Z</time>
      </trkpt>
      <trkpt lat="45.85836" lon="4.67535">
        <ele>221</ele>
        <time>2018-06-16T09:06:01Z</time>
      </trkpt>
      <trkpt lat="45.8584" lon="4.67529">
        <ele>220</ele>
        <time>2018-06-16T09:06:02Z</time>
      </trkpt>
      <trkpt lat="45.85845" lon="4.67522">
        <ele>219</ele>
        <time>2018-06-16T09:06:03Z</time>
      </trkpt>
      <trkpt lat="45.85848" lon="4.67513">
        <ele>217</ele>
        <time>2018-06-16T09:06:04Z</time>
      </trkpt>
      <trkpt lat="45.85852" lon="4.67508">
        <ele>217</ele>
        <time>2018-06-16T09:06:05Z</time>
      </trkpt>
      <trkpt lat="45.85855" lon="4.67501">
        <ele>218</ele>
        <time>2018-06-16T09:06:06Z</time>
      </trkpt>
      <trkpt lat="45.85857" lon="4.67494">
        <ele>213</ele>
        <time>2018-06-16T09:06:07Z</time>
      </trkpt>
      <trkpt lat="45.8586" lon="4.67484">
        <ele>213</ele>
        <time>2018-06-16T09:06:08Z</time>
      </trkpt>
      <trkpt lat="45.85861" lon="4.67475">
        <ele>214</ele>
        <time>2018-06-16T09:06:09Z</time>
      </trkpt>
      <trkpt lat="45.85862" lon="4.67466">
        <ele>214</ele>
        <time>2018-06-16T09:06:10Z</time>
      </trkpt>
      <trkpt lat="45.85864" lon="4.67457">
        <ele>214</ele>
        <time>2018-06-16T09:06:11Z</time>
      </trkpt>
      <trkpt lat="45.85864" lon="4.67449">
        <ele>213</ele>
        <time>2018-06-16T09:06:12Z</time>
      </trkpt>
      <trkpt lat="45.85866" lon="4.67441">
        <ele>213</ele>
        <time>2018-06-16T09:06:13Z</time>
      </trkpt>
      <trkpt lat="45.85868" lon="4.67433">
        <ele>213</ele>
        <time>2018-06-16T09:06:14Z</time>
      </trkpt>
      <trkpt lat="45.85869" lon="4.67424">
        <ele>213</ele>
        <time>2018-06-16T09:06:15Z</time>
      </trkpt>
      <trkpt lat="45.85871" lon="4.67417">
        <ele>213</ele>
        <time>2018-06-16T09:06:16Z</time>
      </trkpt>
      <trkpt lat="45.85872" lon="4.67407">
        <ele>210</ele>
        <time>2018-06-16T09:06:17Z</time>
      </trkpt>
      <trkpt lat="45.85874" lon="4.67399">
        <ele>210</ele>
        <time>2018-06-16T09:06:18Z</time>
      </trkpt>
      <trkpt lat="45.85876" lon="4.67391">
        <ele>210</ele>
        <time>2018-06-16T09:06:19Z</time>
      </trkpt>
      <trkpt lat="45.85876" lon="4.67383">
        <ele>210</ele>
        <time>2018-06-16T09:06:20Z</time>
      </trkpt>
      <trkpt lat="45.85876" lon="4.67374">
        <ele>209</ele>
        <time>2018-06-16T09:06:21Z</time>
      </trkpt>
      <trkpt lat="45.85876" lon="4.67365">
        <ele>209</ele>
        <time>2018-06-16T09:06:22Z</time>
      </trkpt>
      <trkpt lat="45.85877" lon="4.67357">
        <ele>209</ele>
        <time>2018-06-16T09:06:23Z</time>
      </trkpt>
      <trkpt lat="45.85877" lon="4.67349">
        <ele>209</ele>
        <time>2018-06-16T09:06:24Z</time>
      </trkpt>
      <trkpt lat="45.85879" lon="4.67341">
        <ele>209</ele>
        <time>2018-06-16T09:06:25Z</time>
      </trkpt>
      <trkpt lat="45.8588" lon="4.67332">
        <ele>206</ele>
        <time>2018-06-16T09:06:26Z</time>
      </trkpt>
      <trkpt lat="45.85881" lon="4.67323">
        <ele>206</ele>
        <time>2018-06-16T09:06:27Z</time>
      </trkpt>
      <trkpt lat="45.85881" lon="4.67315">
        <ele>206</ele>
        <time>2018-06-16T09:06:28Z</time>
      </trkpt>
      <trkpt lat="45.85882" lon="4.67307">
        <ele>206</ele>
        <time>2018-06-16T09:06:29Z</time>
      </trkpt>
      <trkpt lat="45.85882" lon="4.67299">
        <ele>206</ele>
        <time>2018-06-16T09:06:30Z</time>
      </trkpt>
      <trkpt lat="45.85883" lon="4.67292">
        <ele>206</ele>
        <time>2018-06-16T09:06:31Z</time>
      </trkpt>
      <trkpt lat="45.85883" lon="4.67284">
        <ele>205</ele>
        <time>2018-06-16T09:06:32Z</time>
      </trkpt>
      <trkpt lat="45.85884" lon="4.67276">
        <ele>205</ele>
        <time>2018-06-16T09:06:33Z</time>
      </trkpt>
      <trkpt lat="45.85885" lon="4.67268">
        <ele>205</ele>
        <time>2018-06-16T09:06:34Z</time>
      </trkpt>
      <trkpt lat="45.85885" lon="4.67259">
        <ele>205</ele>
        <time>2018-06-16T09:06:35Z</time>
      </trkpt>
      <trkpt lat="45.85886" lon="4.67251">
        <ele>205</ele>
        <time>2018-06-16T09:06:36Z</time>
      </trkpt>
      <trkpt lat="45.85886" lon="4.67243">
        <ele>205</ele>
        <time>2018-06-16T09:06:37Z</time>
      </trkpt>
      <trkpt lat="45.85887" lon="4.67235">
        <ele>205</ele>
        <time>2018-06-16T09:06:38Z</time>
      </trkpt>
      <trkpt lat="45.85888" lon="4.67227">
        <ele>204</ele>
        <time>2018-06-16T09:06:39Z</time>
      </trkpt>
      <trkpt lat="45.85888" lon="4.67219">
        <ele>204</ele>
        <time>2018-06-16T09:06:40Z</time>
      </trkpt>
      <trkpt lat="45.85888" lon="4.67212">
        <ele>204</ele>
        <time>2018-06-16T09:06:41Z</time>
      </trkpt>
      <trkpt lat="45.85889" lon="4.67205">
        <ele>204</ele>
        <time>2018-06-16T09:06:42Z</time>
      </trkpt>
      <trkpt lat="45.8589" lon="4.67197">
        <ele>204</ele>
        <time>2018-06-16T09:06:43Z</time>
      </trkpt>
      <trkpt lat="45.8589" lon="4.67189">
        <ele>204</ele>
        <time>2018-06-16T09:06:44Z</time>
      </trkpt>
      <trkpt lat="45.85891" lon="4.67182">
        <ele>205</ele>
        <time>2018-06-16T09:06:45Z</time>
      </trkpt>
      <trkpt lat="45.85891" lon="4.67175">
        <ele>205</ele>
        <time>2018-06-16T09:06:46Z</time>
      </trkpt>
      <trkpt lat="45.85892" lon="4.67168">
        <ele>205</ele>
        <time>2018-06-16T09:06:47Z</time>
      </trkpt>
      <trkpt lat="45.85893" lon="4.6716">
        <ele>205</ele>
        <time>2018-06-16T09:06:48Z</time>
      </trkpt>
      <trkpt lat="45.85893" lon="4.67152">
        <ele>204</ele>
        <time>2018-06-16T09:06:49Z</time>
      </trkpt>
      <trkpt lat="45.85894" lon="4.67143">
        <ele>204</ele>
        <time>2018-06-16T09:06:50Z</time>
      </trkpt>
      <trkpt lat="45.85894" lon="4.67135">
        <ele>204</ele>
        <time>2018-06-16T09:06:51Z</time>
      </trkpt>
      <trkpt lat="45.85895" lon="4.67127">
        <ele>204</ele>
        <time>2018-06-16T09:06:52Z</time>
      </trkpt>
      <trkpt lat="45.85896" lon="4.67119">
        <ele>204</ele>
        <time>2018-06-16T09:06:53Z</time>
      </trkpt>
      <trkpt lat="45.85897" lon="4.67111">
        <ele>204</ele>
        <time>2018-06-16T09:06:54Z</time>
      </trkpt>
      <trkpt lat="45.85898" lon="4.67103">
        <ele>204</ele>
        <time>2018-06-16T09:06:55Z</time>
      </trkpt>
      <trkpt lat="45.85898" lon="4.67095">
        <ele>204</ele>
        <time>2018-06-16T09:06:56Z</time>
      </trkpt>
      <trkpt lat="45.85899" lon="4.67088">
        <ele>204</ele>
        <time>2018-06-16T09:06:57Z</time>
      </trkpt>
      <trkpt lat="45.859" lon="4.67081">
        <ele>204</ele>
        <time>2018-06-16T09:06:58Z</time>
      </trkpt>
      <trkpt lat="45.85901" lon="4.67073">
        <ele>205</ele>
        <time>2018-06-16T09:06:59Z</time>
      </trkpt>
      <trkpt lat="45.85902" lon="4.67065">
        <ele>205</ele>
        <time>2018-06-16T09:07:00Z</time>
      </trkpt>
      <trkpt lat="45.85903" lon="4.67057">
        <ele>205</ele>
        <time>2018-06-16T09:07:01Z</time>
      </trkpt>
      <trkpt lat="45.85905" lon="4.67049">
        <ele>205</ele>
        <time>2018-06-16T09:07:02Z</time>
      </trkpt>
      <trkpt lat="45.85906" lon="4.67041">
        <ele>205</ele>
        <time>2018-06-16T09:07:03Z</time>
      </trkpt>
      <trkpt lat="45.85906" lon="4.67034">
        <ele>205</ele>
        <time>2018-06-16T09:07:04Z</time>
      </trkpt>
      <trkpt lat="45.85908" lon="4.67027">
        <ele>205</ele>
        <time>2018-06-16T09:07:05Z</time>
      </trkpt>
      <trkpt lat="45.85908" lon="4.67021">
        <ele>205</ele>
        <time>2018-06-16T09:07:06Z</time>
      </trkpt>
      <trkpt lat="45.8591" lon="4.67013">
        <ele>206</ele>
        <time>2018-06-16T09:07:07Z</time>
      </trkpt>
      <trkpt lat="45.85912" lon="4.67007">
        <ele>206</ele>
        <time>2018-06-16T09:07:08Z</time>
      </trkpt>
      <trkpt lat="45.85914" lon="4.67001">
        <ele>206</ele>
        <time>2018-06-16T09:07:09Z</time>
      </trkpt>
      <trkpt lat="45.85918" lon="4.66996">
        <ele>207</ele>
        <time>2018-06-16T09:07:10Z</time>
      </trkpt>
      <trkpt lat="45.85921" lon="4.66992">
        <ele>207</ele>
        <time>2018-06-16T09:07:11Z</time>
      </trkpt>
      <trkpt lat="45.85923" lon="4.66985">
        <ele>208</ele>
        <time>2018-06-16T09:07:12Z</time>
      </trkpt>
      <trkpt lat="45.85925" lon="4.66978">
        <ele>208</ele>
        <time>2018-06-16T09:07:13Z</time>
      </trkpt>
      <trkpt lat="45.85925" lon="4.66969">
        <ele>208</ele>
        <time>2018-06-16T09:07:14Z</time>
      </trkpt>
      <trkpt lat="45.85923" lon="4.6696">
        <ele>209</ele>
        <time>2018-06-16T09:07:15Z</time>
      </trkpt>
      <trkpt lat="45.85921" lon="4.66951">
        <ele>209</ele>
        <time>2018-06-16T09:07:16Z</time>
      </trkpt>
      <trkpt lat="45.8592" lon="4.66941">
        <ele>208</ele>
        <time>2018-06-16T09:07:17Z</time>
      </trkpt>
      <trkpt lat="45.85921" lon="4.66932">
        <ele>208</ele>
        <time>2018-06-16T09:07:18Z</time>
      </trkpt>
      <trkpt lat="45.85921" lon="4.66923">
        <ele>208</ele>
        <time>2018-06-16T09:07:19Z</time>
      </trkpt>
      <trkpt lat="45.85923" lon="4.66915">
        <ele>208</ele>
        <time>2018-06-16T09:07:20Z</time>
      </trkpt>
      <trkpt lat="45.85924" lon="4.66907">
        <ele>208</ele>
        <time>2018-06-16T09:07:21Z</time>
      </trkpt>
      <trkpt lat="45.85926" lon="4.66898">
        <ele>209</ele>
        <time>2018-06-16T09:07:22Z</time>
      </trkpt>
      <trkpt lat="45.85928" lon="4.66888">
        <ele>210</ele>
        <time>2018-06-16T09:07:23Z</time>
      </trkpt>
      <trkpt lat="45.85929" lon="4.6688">
        <ele>210</ele>
        <time>2018-06-16T09:07:24Z</time>
      </trkpt>
      <trkpt lat="45.85932" lon="4.66871">
        <ele>210</ele>
        <time>2018-06-16T09:07:25Z</time>
      </trkpt>
      <trkpt lat="45.85933" lon="4.66863">
        <ele>210</ele>
        <time>2018-06-16T09:07:26Z</time>
      </trkpt>
      <trkpt lat="45.85936" lon="4.66856">
        <ele>210</ele>
        <time>2018-06-16T09:07:27Z</time>
      </trkpt>
      <trkpt lat="45.85937" lon="4.66849">
        <ele>210</ele>
        <time>2018-06-16T09:07:28Z</time>
      </trkpt>
      <trkpt lat="45.85939" lon="4.66841">
        <ele>210</ele>
        <time>2018-06-16T09:07:29Z</time>
      </trkpt>
      <trkpt lat="45.85942" lon="4.66833">
        <ele>212</ele>
        <time>2018-06-16T09:07:30Z</time>
      </trkpt>
      <trkpt lat="45.85944" lon="4.66826">
        <ele>212</ele>
        <time>2018-06-16T09:07:31Z</time>
      </trkpt>
      <trkpt lat="45.85946" lon="4.66819">
        <ele>212</ele>
        <time>2018-06-16T09:07:32Z</time>
      </trkpt>
      <trkpt lat="45.85947" lon="4.66813">
        <ele>212</ele>
        <time>2018-06-16T09:07:33Z</time>
      </trkpt>
      <trkpt lat="45.8595" lon="4.66807">
        <ele>213</ele>
        <time>2018-06-16T09:07:34Z</time>
      </trkpt>
      <trkpt lat="45.85952" lon="4.66801">
        <ele>213</ele>
        <time>2018-06-16T09:07:35Z</time>
      </trkpt>
      <trkpt lat="45.85955" lon="4.66794">
        <ele>213</ele>
        <time>2018-06-16T09:07:36Z</time>
      </trkpt>
      <trkpt lat="45.85956" lon="4.66787">
        <ele>213</ele>
        <time>2018-06-16T09:07:37Z</time>
      </trkpt>
      <trkpt lat="45.85959" lon="4.6678">
        <ele>214</ele>
        <time>2018-06-16T09:07:38Z</time>
      </trkpt>
      <trkpt lat="45.85962" lon="4.66773">
        <ele>214</ele>
        <time>2018-06-16T09:07:39Z</time>
      </trkpt>
      <trkpt lat="45.85965" lon="4.66766">
        <ele>214</ele>
        <time>2018-06-16T09:07:40Z</time>
      </trkpt>
      <trkpt lat="45.85969" lon="4.66758">
        <ele>214</ele>
        <time>2018-06-16T09:07:41Z</time>
      </trkpt>
      <trkpt lat="45.85971" lon="4.66751">
        <ele>214</ele>
        <time>2018-06-16T09:07:42Z</time>
      </trkpt>
      <trkpt lat="45.85974" lon="4.66744">
        <ele>216</ele>
        <time>2018-06-16T09:07:43Z</time>
      </trkpt>
      <trkpt lat="45.85978" lon="4.66738">
        <ele>216</ele>
        <time>2018-06-16T09:07:44Z</time>
      </trkpt>
      <trkpt lat="45.85981" lon="4.66731">
        <ele>216</ele>
        <time>2018-06-16T09:07:45Z</time>
      </trkpt>
      <trkpt lat="45.85984" lon="4.66725">
        <ele>216</ele>
        <time>2018-06-16T09:07:46Z</time>
      </trkpt>
      <trkpt lat="45.85987" lon="4.66718">
        <ele>215</ele>
        <time>2018-06-16T09:07:47Z</time>
      </trkpt>
      <trkpt lat="45.8599" lon="4.66713">
        <ele>215</ele>
        <time>2018-06-16T09:07:48Z</time>
      </trkpt>
      <trkpt lat="45.85993" lon="4.66707">
        <ele>215</ele>
        <time>2018-06-16T09:07:49Z</time>
      </trkpt>
      <trkpt lat="45.85997" lon="4.66701">
        <ele>215</ele>
        <time>2018-06-16T09:07:50Z</time>
      </trkpt>
      <trkpt lat="45.86002" lon="4.66695">
        <ele>218</ele>
        <time>2018-06-16T09:07:51Z</time>
      </trkpt>
      <trkpt lat="45.86006" lon="4.6669">
        <ele>218</ele>
        <time>2018-06-16T09:07:52Z</time>
      </trkpt>
      <trkpt lat="45.8601" lon="4.66686">
        <ele>217</ele>
        <time>2018-06-16T09:07:53Z</time>
      </trkpt>
      <trkpt lat="45.86015" lon="4.6668">
        <ele>217</ele>
        <time>2018-06-16T09:07:54Z</time>
      </trkpt>
      <trkpt lat="45.86021" lon="4.66675">
        <ele>218</ele>
        <time>2018-06-16T09:07:55Z</time>
      </trkpt>
      <trkpt lat="45.86025" lon="4.66669">
        <ele>218</ele>
        <time>2018-06-16T09:07:56Z</time>
      </trkpt>
      <trkpt lat="45.86029" lon="4.66665">
        <ele>214</ele>
        <time>2018-06-16T09:07:57Z</time>
      </trkpt>
      <trkpt lat="45.86033" lon="4.66663">
        <ele>214</ele>
        <time>2018-06-16T09:07:58Z</time>
      </trkpt>
      <trkpt lat="45.86039" lon="4.66659">
        <ele>214</ele>
        <time>2018-06-16T09:07:59Z</time>
      </trkpt>
      <trkpt lat="45.86043" lon="4.66656">
        <ele>215</ele>
        <time>2018-06-16T09:08:00Z</time>
      </trkpt>
      <trkpt lat="45.86048" lon="4.66651">
        <ele>215</ele>
        <time>2018-06-16T09:08:01Z</time>
      </trkpt>
      <trkpt lat="45.86052" lon="4.66647">
        <ele>215</ele>
        <time>2018-06-16T09:08:02Z</time>
      </trkpt>
      <trkpt lat="45.86055" lon="4.66643">
        <ele>215</ele>
        <time>2018-06-16T09:08:03Z</time>
      </trkpt>
      <trkpt lat="45.86059" lon="4.66638">
        <ele>215</ele>
        <time>2018-06-16T09:08:04Z</time>
      </trkpt>
      <trkpt lat="45.86065" lon="4.66632">
        <ele>215</ele>
        <time>2018-06-16T09:08:05Z</time>
      </trkpt>
      <trkpt lat="45.86069" lon="4.66628">
        <ele>215</ele>
        <time>2018-06-16T09:08:06Z</time>
      </trkpt>
      <trkpt lat="45.86074" lon="4.66624">
        <ele>214</ele>
        <time>2018-06-16T09:08:07Z</time>
      </trkpt>
      <trkpt lat="45.8608" lon="4.66618">
        <ele>214</ele>
        <time>2018-06-16T09:08:08Z</time>
      </trkpt>
      <trkpt lat="45.86085" lon="4.66614">
        <ele>220</ele>
        <time>2018-06-16T09:08:09Z</time>
      </trkpt>
      <trkpt lat="45.8609" lon="4.66609">
        <ele>219</ele>
        <time>2018-06-16T09:08:10Z</time>
      </trkpt>
      <trkpt lat="45.86095" lon="4.66606">
        <ele>219</ele>
        <time>2018-06-16T09:08:11Z</time>
      </trkpt>
      <trkpt lat="45.86101" lon="4.66604">
        <ele>219</ele>
        <time>2018-06-16T09:08:12Z</time>
      </trkpt>
      <trkpt lat="45.86106" lon="4.66602">
        <ele>220</ele>
        <time>2018-06-16T09:08:13Z</time>
      </trkpt>
      <trkpt lat="45.86112" lon="4.66599">
        <ele>220</ele>
        <time>2018-06-16T09:08:14Z</time>
      </trkpt>
      <trkpt lat="45.86118" lon="4.66596">
        <ele>221</ele>
        <time>2018-06-16T09:08:15Z</time>
      </trkpt>
      <trkpt lat="45.86122" lon="4.66593">
        <ele>221</ele>
        <time>2018-06-16T09:08:16Z</time>
      </trkpt>
      <trkpt lat="45.86127" lon="4.6659">
        <ele>222</ele>
        <time>2018-06-16T09:08:17Z</time>
      </trkpt>
      <trkpt lat="45.86131" lon="4.66586">
        <ele>222</ele>
        <time>2018-06-16T09:08:18Z</time>
      </trkpt>
      <trkpt lat="45.86137" lon="4.66582">
        <ele>215</ele>
        <time>2018-06-16T09:08:19Z</time>
      </trkpt>
      <trkpt lat="45.86141" lon="4.66578">
        <ele>216</ele>
        <time>2018-06-16T09:08:20Z</time>
      </trkpt>
      <trkpt lat="45.86148" lon="4.66573">
        <ele>217</ele>
        <time>2018-06-16T09:08:21Z</time>
      </trkpt>
      <trkpt lat="45.86152" lon="4.66567">
        <ele>216</ele>
        <time>2018-06-16T09:08:22Z</time>
      </trkpt>
      <trkpt lat="45.86155" lon="4.66562">
        <ele>216</ele>
        <time>2018-06-16T09:08:23Z</time>
      </trkpt>
      <trkpt lat="45.8616" lon="4.66555">
        <ele>215</ele>
        <time>2018-06-16T09:08:24Z</time>
      </trkpt>
      <trkpt lat="45.86165" lon="4.66548">
        <ele>215</ele>
        <time>2018-06-16T09:08:25Z</time>
      </trkpt>
      <trkpt lat="45.86169" lon="4.66543">
        <ele>220</ele>
        <time>2018-06-16T09:08:26Z</time>
      </trkpt>
      <trkpt lat="45.86173" lon="4.66536">
        <ele>219</ele>
        <time>2018-06-16T09:08:27Z</time>
      </trkpt>
      <trkpt lat="45.86179" lon="4.66529">
        <ele>218</ele>
        <time>2018-06-16T09:08:28Z</time>
      </trkpt>
      <trkpt lat="45.86182" lon="4.66523">
        <ele>218</ele>
        <time>2018-06-16T09:08:29Z</time>
      </trkpt>
      <trkpt lat="45.86185" lon="4.66516">
        <ele>217</ele>
        <time>2018-06-16T09:08:30Z</time>
      </trkpt>
      <trkpt lat="45.86188" lon="4.66509">
        <ele>217</ele>
        <time>2018-06-16T09:08:31Z</time>
      </trkpt>
      <trkpt lat="45.86194" lon="4.66502">
        <ele>217</ele>
        <time>2018-06-16T09:08:32Z</time>
      </trkpt>
      <trkpt lat="45.86197" lon="4.66494">
        <ele>213</ele>
        <time>2018-06-16T09:08:33Z</time>
      </trkpt>
      <trkpt lat="45.86201" lon="4.66487">
        <ele>213</ele>
        <time>2018-06-16T09:08:34Z</time>
      </trkpt>
      <trkpt lat="45.86204" lon="4.66481">
        <ele>213</ele>
        <time>2018-06-16T09:08:35Z</time>
      </trkpt>
      <trkpt lat="45.86209" lon="4.66472">
        <ele>213</ele>
        <time>2018-06-16T09:08:36Z</time>
      </trkpt>
      <trkpt lat="45.86213" lon="4.66464">
        <ele>214</ele>
        <time>2018-06-16T09:08:37Z</time>
      </trkpt>
      <trkpt lat="45.86217" lon="4.66458">
        <ele>214</ele>
        <time>2018-06-16T09:08:38Z</time>
      </trkpt>
      <trkpt lat="45.86221" lon="4.66449">
        <ele>214</ele>
        <time>2018-06-16T09:08:39Z</time>
      </trkpt>
      <trkpt lat="45.86223" lon="4.66444">
        <ele>214</ele>
        <time>2018-06-16T09:08:40Z</time>
      </trkpt>
      <trkpt lat="45.86227" lon="4.66437">
        <ele>214</ele>
        <time>2018-06-16T09:08:41Z</time>
      </trkpt>
      <trkpt lat="45.86232" lon="4.66432">
        <ele>214</ele>
        <time>2018-06-16T09:08:42Z</time>
      </trkpt>
      <trkpt lat="45.86235" lon="4.66426">
        <ele>214</ele>
        <time>2018-06-16T09:08:43Z</time>
      </trkpt>
      <trkpt lat="45.8624" lon="4.66419">
        <ele>214</ele>
        <time>2018-06-16T09:08:44Z</time>
      </trkpt>
      <trkpt lat="45.86243" lon="4.66415">
        <ele>213</ele>
        <time>2018-06-16T09:08:45Z</time>
      </trkpt>
      <trkpt lat="45.86247" lon="4.66409">
        <ele>213</ele>
        <time>2018-06-16T09:08:46Z</time>
      </trkpt>
      <trkpt lat="45.86248" lon="4.66404">
        <ele>213</ele>
        <time>2018-06-16T09:08:47Z</time>
      </trkpt>
      <trkpt lat="45.8625" lon="4.66398">
        <ele>216</ele>
        <time>2018-06-16T09:08:48Z</time>
      </trkpt>
      <trkpt lat="45.86253" lon="4.66391">
        <ele>216</ele>
        <time>2018-06-16T09:08:49Z</time>
      </trkpt>
      <trkpt lat="45.86258" lon="4.66385">
        <ele>216</ele>
        <time>2018-06-16T09:08:50Z</time>
      </trkpt>
      <trkpt lat="45.8626" lon="4.6638">
        <ele>216</ele>
        <time>2018-06-16T09:08:51Z</time>
      </trkpt>
      <trkpt lat="45.86264" lon="4.66371">
        <ele>216</ele>
        <time>2018-06-16T09:08:52Z</time>
      </trkpt>
      <trkpt lat="45.86268" lon="4.66365">
        <ele>216</ele>
        <time>2018-06-16T09:08:53Z</time>
      </trkpt>
      <trkpt lat="45.86272" lon="4.66359">
        <ele>216</ele>
        <time>2018-06-16T09:08:54Z</time>
      </trkpt>
      <trkpt lat="45.86277" lon="4.66351">
        <ele>216</ele>
        <time>2018-06-16T09:08:55Z</time>
      </trkpt>
      <trkpt lat="45.86282" lon="4.66346">
        <ele>217</ele>
        <time>2018-06-16T09:08:56Z</time>
      </trkpt>
      <trkpt lat="45.86286" lon="4.66339">
        <ele>217</ele>
        <time>2018-06-16T09:08:57Z</time>
      </trkpt>
      <trkpt lat="45.86289" lon="4.66334">
        <ele>217</ele>
        <time>2018-06-16T09:08:58Z</time>
      </trkpt>
      <trkpt lat="45.86294" lon="4.66327">
        <ele>215</ele>
        <time>2018-06-16T09:08:59Z</time>
      </trkpt>
      <trkpt lat="45.86298" lon="4.66322">
        <ele>215</ele>
        <time>2018-06-16T09:09:00Z</time>
      </trkpt>
      <trkpt lat="45.86302" lon="4.66315">
        <ele>215</ele>
        <time>2018-06-16T09:09:01Z</time>
      </trkpt>
      <trkpt lat="45.86307" lon="4.66309">
        <ele>215</ele>
        <time>2018-06-16T09:09:02Z</time>
      </trkpt>
      <trkpt lat="45.86311" lon="4.66304">
        <ele>215</ele>
        <time>2018-06-16T09:09:03Z</time>
      </trkpt>
      <trkpt lat="45.86314" lon="4.663">
        <ele>215</ele>
        <time>2018-06-16T09:09:04Z</time>
      </trkpt>
      <trkpt lat="45.86318" lon="4.66294">
        <ele>215</ele>
        <time>2018-06-16T09:09:05Z</time>
      </trkpt>
      <trkpt lat="45.86322" lon="4.6629">
        <ele>215</ele>
        <time>2018-06-16T09:09:06Z</time>
      </trkpt>
      <trkpt lat="45.86325" lon="4.66285">
        <ele>214</ele>
        <time>2018-06-16T09:09:07Z</time>
      </trkpt>
      <trkpt lat="45.86332" lon="4.66278">
        <ele>214</ele>
        <time>2018-06-16T09:09:09Z</time>
      </trkpt>
      <trkpt lat="45.86337" lon="4.66274">
        <ele>218</ele>
        <time>2018-06-16T09:09:10Z</time>
      </trkpt>
      <trkpt lat="45.86341" lon="4.66271">
        <ele>218</ele>
        <time>2018-06-16T09:09:11Z</time>
      </trkpt>
      <trkpt lat="45.86346" lon="4.66266">
        <ele>217</ele>
        <time>2018-06-16T09:09:12Z</time>
      </trkpt>
      <trkpt lat="45.8635" lon="4.66264">
        <ele>217</ele>
        <time>2018-06-16T09:09:13Z</time>
      </trkpt>
      <trkpt lat="45.86355" lon="4.6626">
        <ele>218</ele>
        <time>2018-06-16T09:09:14Z</time>
      </trkpt>
      <trkpt lat="45.8636" lon="4.66257">
        <ele>218</ele>
        <time>2018-06-16T09:09:15Z</time>
      </trkpt>
      <trkpt lat="45.86365" lon="4.66255">
        <ele>218</ele>
        <time>2018-06-16T09:09:16Z</time>
      </trkpt>
      <trkpt lat="45.86369" lon="4.66252">
        <ele>219</ele>
        <time>2018-06-16T09:09:17Z</time>
      </trkpt>
      <trkpt lat="45.86374" lon="4.66248">
        <ele>214</ele>
        <time>2018-06-16T09:09:18Z</time>
      </trkpt>
      <trkpt lat="45.86379" lon="4.66245">
        <ele>214</ele>
        <time>2018-06-16T09:09:19Z</time>
      </trkpt>
      <trkpt lat="45.86385" lon="4.66242">
        <ele>214</ele>
        <time>2018-06-16T09:09:20Z</time>
      </trkpt>
      <trkpt lat="45.8639" lon="4.6624">
        <ele>215</ele>
        <time>2018-06-16T09:09:21Z</time>
      </trkpt>
      <trkpt lat="45.86397" lon="4.66237">
        <ele>215</ele>
        <time>2018-06-16T09:09:22Z</time>
      </trkpt>
      <trkpt lat="45.86401" lon="4.66233">
        <ele>215</ele>
        <time>2018-06-16T09:09:23Z</time>
      </trkpt>
      <trkpt lat="45.86406" lon="4.66231">
        <ele>216</ele>
        <time>2018-06-16T09:09:24Z</time>
      </trkpt>
      <trkpt lat="45.8641" lon="4.66229">
        <ele>216</ele>
        <time>2018-06-16T09:09:25Z</time>
      </trkpt>
      <trkpt lat="45.86415" lon="4.66227">
        <ele>215</ele>
        <time>2018-06-16T09:09:26Z</time>
      </trkpt>
      <trkpt lat="45.8642" lon="4.66225">
        <ele>218</ele>
        <time>2018-06-16T09:09:27Z</time>
      </trkpt>
      <trkpt lat="45.86426" lon="4.66224">
        <ele>218</ele>
        <time>2018-06-16T09:09:28Z</time>
      </trkpt>
      <trkpt lat="45.86431" lon="4.66222">
        <ele>218</ele>
        <time>2018-06-16T09:09:29Z</time>
      </trkpt>
      <trkpt lat="45.86436" lon="4.66219">
        <ele>218</ele>
        <time>2018-06-16T09:09:30Z</time>
      </trkpt>
      <trkpt lat="45.86443" lon="4.66217">
        <ele>218</ele>
        <time>2018-06-16T09:09:31Z</time>
      </trkpt>
      <trkpt lat="45.86448" lon="4.66216">
        <ele>218</ele>
        <time>2018-06-16T09:09:32Z</time>
      </trkpt>
      <trkpt lat="45.86452" lon="4.66214">
        <ele>218</ele>
        <time>2018-06-16T09:09:33Z</time>
      </trkpt>
      <trkpt lat="45.86458" lon="4.66212">
        <ele>218</ele>
        <time>2018-06-16T09:09:34Z</time>
      </trkpt>
      <trkpt lat="45.86465" lon="4.6621">
        <ele>218</ele>
        <time>2018-06-16T09:09:35Z</time>
      </trkpt>
      <trkpt lat="45.8647" lon="4.66208">
        <ele>218</ele>
        <time>2018-06-16T09:09:36Z</time>
      </trkpt>
      <trkpt lat="45.86475" lon="4.66209">
        <ele>218</ele>
        <time>2018-06-16T09:09:37Z</time>
      </trkpt>
      <trkpt lat="45.86479" lon="4.66207">
        <ele>218</ele>
        <time>2018-06-16T09:09:38Z</time>
      </trkpt>
      <trkpt lat="45.86483" lon="4.66203">
        <ele>218</ele>
        <time>2018-06-16T09:09:39Z</time>
      </trkpt>
      <trkpt lat="45.86488" lon="4.66202">
        <ele>218</ele>
        <time>2018-06-16T09:09:40Z</time>
      </trkpt>
      <trkpt lat="45.86496" lon="4.66204">
        <ele>218</ele>
        <time>2018-06-16T09:09:42Z</time>
      </trkpt>
      <trkpt lat="45.86502" lon="4.66203">
        <ele>224</ele>
        <time>2018-06-16T09:09:43Z</time>
      </trkpt>
      <trkpt lat="45.86507" lon="4.66203">
        <ele>224</ele>
        <time>2018-06-16T09:09:44Z</time>
      </trkpt>
      <trkpt lat="45.86511" lon="4.662">
        <ele>224</ele>
        <time>2018-06-16T09:09:45Z</time>
      </trkpt>
      <trkpt lat="45.86518" lon="4.66197">
        <ele>224</ele>
        <time>2018-06-16T09:09:47Z</time>
      </trkpt>
      <trkpt lat="45.86524" lon="4.66193">
        <ele>224</ele>
        <time>2018-06-16T09:09:48Z</time>
      </trkpt>
      <trkpt lat="45.86529" lon="4.66191">
        <ele>225</ele>
        <time>2018-06-16T09:09:49Z</time>
      </trkpt>
      <trkpt lat="45.86533" lon="4.66189">
        <ele>225</ele>
        <time>2018-06-16T09:09:50Z</time>
      </trkpt>
      <trkpt lat="45.8654" lon="4.66184">
        <ele>225</ele>
        <time>2018-06-16T09:09:51Z</time>
      </trkpt>
      <trkpt lat="45.86546" lon="4.66177">
        <ele>226</ele>
        <time>2018-06-16T09:09:52Z</time>
      </trkpt>
      <trkpt lat="45.8655" lon="4.66171">
        <ele>226</ele>
        <time>2018-06-16T09:09:53Z</time>
      </trkpt>
      <trkpt lat="45.86555" lon="4.66166">
        <ele>219</ele>
        <time>2018-06-16T09:09:54Z</time>
      </trkpt>
      <trkpt lat="45.86562" lon="4.66161">
        <ele>220</ele>
        <time>2018-06-16T09:09:55Z</time>
      </trkpt>
      <trkpt lat="45.86567" lon="4.66159">
        <ele>221</ele>
        <time>2018-06-16T09:09:56Z</time>
      </trkpt>
      <trkpt lat="45.86572" lon="4.66156">
        <ele>222</ele>
        <time>2018-06-16T09:09:57Z</time>
      </trkpt>
      <trkpt lat="45.86577" lon="4.6615">
        <ele>221</ele>
        <time>2018-06-16T09:09:58Z</time>
      </trkpt>
      <trkpt lat="45.86582" lon="4.66145">
        <ele>220</ele>
        <time>2018-06-16T09:09:59Z</time>
      </trkpt>
      <trkpt lat="45.86587" lon="4.6614">
        <ele>226</ele>
        <time>2018-06-16T09:10:00Z</time>
      </trkpt>
      <trkpt lat="45.86591" lon="4.66137">
        <ele>225</ele>
        <time>2018-06-16T09:10:01Z</time>
      </trkpt>
      <trkpt lat="45.86596" lon="4.66131">
        <ele>225</ele>
        <time>2018-06-16T09:10:02Z</time>
      </trkpt>
      <trkpt lat="45.86603" lon="4.66124">
        <ele>224</ele>
        <time>2018-06-16T09:10:03Z</time>
      </trkpt>
      <trkpt lat="45.86608" lon="4.66121">
        <ele>224</ele>
        <time>2018-06-16T09:10:04Z</time>
      </trkpt>
      <trkpt lat="45.86614" lon="4.66117">
        <ele>224</ele>
        <time>2018-06-16T09:10:05Z</time>
      </trkpt>
      <trkpt lat="45.86621" lon="4.66114">
        <ele>224</ele>
        <time>2018-06-16T09:10:06Z</time>
      </trkpt>
      <trkpt lat="45.86627" lon="4.6611">
        <ele>224</ele>
        <time>2018-06-16T09:10:07Z</time>
      </trkpt>
      <trkpt lat="45.86633" lon="4.66106">
        <ele>224</ele>
        <time>2018-06-16T09:10:08Z</time>
      </trkpt>
      <trkpt lat="45.86639" lon="4.66103">
        <ele>224</ele>
        <time>2018-06-16T09:10:09Z</time>
      </trkpt>
      <trkpt lat="45.86644" lon="4.661">
        <ele>224</ele>
        <time>2018-06-16T09:10:10Z</time>
      </trkpt>
      <trkpt lat="45.86651" lon="4.66097">
        <ele>223</ele>
        <time>2018-06-16T09:10:11Z</time>
      </trkpt>
      <trkpt lat="45.86657" lon="4.66094">
        <ele>222</ele>
        <time>2018-06-16T09:10:12Z</time>
      </trkpt>
      <trkpt lat="45.86661" lon="4.66092">
        <ele>222</ele>
        <time>2018-06-16T09:10:13Z</time>
      </trkpt>
      <trkpt lat="45.86667" lon="4.66088">
        <ele>223</ele>
        <time>2018-06-16T09:10:14Z</time>
      </trkpt>
      <trkpt lat="45.86672" lon="4.66083">
        <ele>220</ele>
        <time>2018-06-16T09:10:15Z</time>
      </trkpt>
      <trkpt lat="45.86676" lon="4.66082">
        <ele>220</ele>
        <time>2018-06-16T09:10:16Z</time>
      </trkpt>
      <trkpt lat="45.86684" lon="4.66079">
        <ele>221</ele>
        <time>2018-06-16T09:10:18Z</time>
      </trkpt>
      <trkpt lat="45.86689" lon="4.66078">
        <ele>221</ele>
        <time>2018-06-16T09:10:19Z</time>
      </trkpt>
      <trkpt lat="45.86693" lon="4.66076">
        <ele>222</ele>
        <time>2018-06-16T09:10:20Z</time>
      </trkpt>
      <trkpt lat="45.86699" lon="4.66072">
        <ele>222</ele>
        <time>2018-06-16T09:10:21Z</time>
      </trkpt>
      <trkpt lat="45.86705" lon="4.6607">
        <ele>223</ele>
        <time>2018-06-16T09:10:22Z</time>
      </trkpt>
      <trkpt lat="45.8671" lon="4.66067">
        <ele>224</ele>
        <time>2018-06-16T09:10:23Z</time>
      </trkpt>
      <trkpt lat="45.86716" lon="4.66063">
        <ele>224</ele>
        <time>2018-06-16T09:10:24Z</time>
      </trkpt>
      <trkpt lat="45.8672" lon="4.66062">
        <ele>225</ele>
        <time>2018-06-16T09:10:25Z</time>
      </trkpt>
      <trkpt lat="45.86724" lon="4.66059">
        <ele>225</ele>
        <time>2018-06-16T09:10:26Z</time>
      </trkpt>
      <trkpt lat="45.86728" lon="4.66057">
        <ele>225</ele>
        <time>2018-06-16T09:10:27Z</time>
      </trkpt>
      <trkpt lat="45.86734" lon="4.66054">
        <ele>225</ele>
        <time>2018-06-16T09:10:28Z</time>
      </trkpt>
      <trkpt lat="45.86739" lon="4.6605">
        <ele>225</ele>
        <time>2018-06-16T09:10:29Z</time>
      </trkpt>
      <trkpt lat="45.86745" lon="4.66045">
        <ele>224</ele>
        <time>2018-06-16T09:10:30Z</time>
      </trkpt>
      <trkpt lat="45.8675" lon="4.66042">
        <ele>224</ele>
        <time>2018-06-16T09:10:31Z</time>
      </trkpt>
      <trkpt lat="45.86755" lon="4.66037">
        <ele>233</ele>
        <time>2018-06-16T09:10:32Z</time>
      </trkpt>
      <trkpt lat="45.86759" lon="4.66033">
        <ele>232</ele>
        <time>2018-06-16T09:10:33Z</time>
      </trkpt>
      <trkpt lat="45.86762" lon="4.66029">
        <ele>232</ele>
        <time>2018-06-16T09:10:34Z</time>
      </trkpt>
      <trkpt lat="45.86768" lon="4.66022">
        <ele>231</ele>
        <time>2018-06-16T09:10:35Z</time>
      </trkpt>
      <trkpt lat="45.86775" lon="4.66015">
        <ele>231</ele>
        <time>2018-06-16T09:10:37Z</time>
      </trkpt>
      <trkpt lat="45.86779" lon="4.66011">
        <ele>231</ele>
        <time>2018-06-16T09:10:38Z</time>
      </trkpt>
      <trkpt lat="45.86782" lon="4.66009">
        <ele>232</ele>
        <time>2018-06-16T09:10:39Z</time>
      </trkpt>
      <trkpt lat="45.86789" lon="4.66002">
        <ele>233</ele>
        <time>2018-06-16T09:10:40Z</time>
      </trkpt>
      <trkpt lat="45.86791" lon="4.65999">
        <ele>223</ele>
        <time>2018-06-16T09:10:41Z</time>
      </trkpt>
      <trkpt lat="45.86795" lon="4.65993">
        <ele>223</ele>
        <time>2018-06-16T09:10:42Z</time>
      </trkpt>
      <trkpt lat="45.868" lon="4.65986">
        <ele>224</ele>
        <time>2018-06-16T09:10:44Z</time>
      </trkpt>
      <trkpt lat="45.86803" lon="4.6598">
        <ele>224</ele>
        <time>2018-06-16T09:10:45Z</time>
      </trkpt>
      <trkpt lat="45.86807" lon="4.65975">
        <ele>224</ele>
        <time>2018-06-16T09:10:46Z</time>
      </trkpt>
      <trkpt lat="45.8681" lon="4.65969">
        <ele>224</ele>
        <time>2018-06-16T09:10:47Z</time>
      </trkpt>
      <trkpt lat="45.86813" lon="4.65964">
        <ele>224</ele>
        <time>2018-06-16T09:10:48Z</time>
      </trkpt>
      <trkpt lat="45.86816" lon="4.65959">
        <ele>223</ele>
        <time>2018-06-16T09:10:49Z</time>
      </trkpt>
      <trkpt lat="45.8682" lon="4.65954">
        <ele>223</ele>
        <time>2018-06-16T09:10:50Z</time>
      </trkpt>
      <trkpt lat="45.86822" lon="4.65948">
        <ele>223</ele>
        <time>2018-06-16T09:10:51Z</time>
      </trkpt>
      <trkpt lat="45.86826" lon="4.65942">
        <ele>222</ele>
        <time>2018-06-16T09:10:52Z</time>
      </trkpt>
      <trkpt lat="45.86829" lon="4.65937">
        <ele>222</ele>
        <time>2018-06-16T09:10:53Z</time>
      </trkpt>
      <trkpt lat="45.86831" lon="4.65932">
        <ele>222</ele>
        <time>2018-06-16T09:10:54Z</time>
      </trkpt>
      <trkpt lat="45.86835" lon="4.65925">
        <ele>228</ele>
        <time>2018-06-16T09:10:55Z</time>
      </trkpt>
      <trkpt lat="45.86838" lon="4.65919">
        <ele>225</ele>
        <time>2018-06-16T09:10:56Z</time>
      </trkpt>
      <trkpt lat="45.86842" lon="4.65911">
        <ele>224</ele>
        <time>2018-06-16T09:10:57Z</time>
      </trkpt>
      <trkpt lat="45.86845" lon="4.65906">
        <ele>225</ele>
        <time>2018-06-16T09:10:58Z</time>
      </trkpt>
      <trkpt lat="45.86851" lon="4.65899">
        <ele>226</ele>
        <time>2018-06-16T09:10:59Z</time>
      </trkpt>
      <trkpt lat="45.86854" lon="4.65893">
        <ele>227</ele>
        <time>2018-06-16T09:11:00Z</time>
      </trkpt>
      <trkpt lat="45.86855" lon="4.65886">
        <ele>227</ele>
        <time>2018-06-16T09:11:01Z</time>
      </trkpt>
      <trkpt lat="45.86855" lon="4.65881">
        <ele>227</ele>
        <time>2018-06-16T09:11:02Z</time>
      </trkpt>
      <trkpt lat="45.8686" lon="4.65872">
        <ele>227</ele>
        <time>2018-06-16T09:11:03Z</time>
      </trkpt>
      <trkpt lat="45.86863" lon="4.65866">
        <ele>227</ele>
        <time>2018-06-16T09:11:04Z</time>
      </trkpt>
      <trkpt lat="45.86865" lon="4.6586">
        <ele>227</ele>
        <time>2018-06-16T09:11:05Z</time>
      </trkpt>
      <trkpt lat="45.86868" lon="4.65853">
        <ele>227</ele>
        <time>2018-06-16T09:11:06Z</time>
      </trkpt>
      <trkpt lat="45.8687" lon="4.65848">
        <ele>227</ele>
        <time>2018-06-16T09:11:07Z</time>
      </trkpt>
      <trkpt lat="45.86872" lon="4.65842">
        <ele>227</ele>
        <time>2018-06-16T09:11:08Z</time>
      </trkpt>
      <trkpt lat="45.86875" lon="4.65835">
        <ele>227</ele>
        <time>2018-06-16T09:11:09Z</time>
      </trkpt>
      <trkpt lat="45.86877" lon="4.65827">
        <ele>223</ele>
        <time>2018-06-16T09:11:10Z</time>
      </trkpt>
      <trkpt lat="45.8688" lon="4.65819">
        <ele>223</ele>
        <time>2018-06-16T09:11:11Z</time>
      </trkpt>
      <trkpt lat="45.86884" lon="4.65812">
        <ele>224</ele>
        <time>2018-06-16T09:11:12Z</time>
      </trkpt>
      <trkpt lat="45.86885" lon="4.65806">
        <ele>224</ele>
        <time>2018-06-16T09:11:13Z</time>
      </trkpt>
      <trkpt lat="45.86885" lon="4.65798">
        <ele>223</ele>
        <time>2018-06-16T09:11:14Z</time>
      </trkpt>
      <trkpt lat="45.86888" lon="4.6579">
        <ele>224</ele>
        <time>2018-06-16T09:11:15Z</time>
      </trkpt>
      <trkpt lat="45.8689" lon="4.65781">
        <ele>224</ele>
        <time>2018-06-16T09:11:16Z</time>
      </trkpt>
      <trkpt lat="45.86891" lon="4.65774">
        <ele>224</ele>
        <time>2018-06-16T09:11:17Z</time>
      </trkpt>
      <trkpt lat="45.86891" lon="4.65769">
        <ele>224</ele>
        <time>2018-06-16T09:11:18Z</time>
      </trkpt>
      <trkpt lat="45.86892" lon="4.65761">
        <ele>224</ele>
        <time>2018-06-16T09:11:19Z</time>
      </trkpt>
      <trkpt lat="45.86892" lon="4.65755">
        <ele>224</ele>
        <time>2018-06-16T09:11:20Z</time>
      </trkpt>
      <trkpt lat="45.86891" lon="4.65746">
        <ele>224</ele>
        <time>2018-06-16T09:11:21Z</time>
      </trkpt>
      <trkpt lat="45.86893" lon="4.6574">
        <ele>224</ele>
        <time>2018-06-16T09:11:22Z</time>
      </trkpt>
      <trkpt lat="45.86896" lon="4.65734">
        <ele>224</ele>
        <time>2018-06-16T09:11:23Z</time>
      </trkpt>
      <trkpt lat="45.86895" lon="4.65724">
        <ele>223</ele>
        <time>2018-06-16T09:11:24Z</time>
      </trkpt>
      <trkpt lat="45.86894" lon="4.65714">
        <ele>223</ele>
        <time>2018-06-16T09:11:25Z</time>
      </trkpt>
      <trkpt lat="45.86896" lon="4.65707">
        <ele>223</ele>
        <time>2018-06-16T09:11:26Z</time>
      </trkpt>
      <trkpt lat="45.86896" lon="4.65696">
        <ele>224</ele>
        <time>2018-06-16T09:11:27Z</time>
      </trkpt>
      <trkpt lat="45.86898" lon="4.65686">
        <ele>224</ele>
        <time>2018-06-16T09:11:28Z</time>
      </trkpt>
      <trkpt lat="45.86898" lon="4.65676">
        <ele>225</ele>
        <time>2018-06-16T09:11:29Z</time>
      </trkpt>
      <trkpt lat="45.86897" lon="4.65667">
        <ele>225</ele>
        <time>2018-06-16T09:11:30Z</time>
      </trkpt>
      <trkpt lat="45.86897" lon="4.65657">
        <ele>225</ele>
        <time>2018-06-16T09:11:31Z</time>
      </trkpt>
      <trkpt lat="45.86896" lon="4.65649">
        <ele>224</ele>
        <time>2018-06-16T09:11:32Z</time>
      </trkpt>
      <trkpt lat="45.86894" lon="4.6564">
        <ele>223</ele>
        <time>2018-06-16T09:11:33Z</time>
      </trkpt>
      <trkpt lat="45.86898" lon="4.65631">
        <ele>223</ele>
        <time>2018-06-16T09:11:34Z</time>
      </trkpt>
      <trkpt lat="45.869" lon="4.65621">
        <ele>223</ele>
        <time>2018-06-16T09:11:35Z</time>
      </trkpt>
      <trkpt lat="45.869" lon="4.65611">
        <ele>223</ele>
        <time>2018-06-16T09:11:36Z</time>
      </trkpt>
      <trkpt lat="45.86903" lon="4.65601">
        <ele>223</ele>
        <time>2018-06-16T09:11:37Z</time>
      </trkpt>
      <trkpt lat="45.86903" lon="4.65592">
        <ele>224</ele>
        <time>2018-06-16T09:11:38Z</time>
      </trkpt>
      <trkpt lat="45.86906" lon="4.65582">
        <ele>223</ele>
        <time>2018-06-16T09:11:39Z</time>
      </trkpt>
      <trkpt lat="45.86909" lon="4.65573">
        <ele>222</ele>
        <time>2018-06-16T09:11:40Z</time>
      </trkpt>
      <trkpt lat="45.86915" lon="4.65564">
        <ele>221</ele>
        <time>2018-06-16T09:11:41Z</time>
      </trkpt>
      <trkpt lat="45.86919" lon="4.65555">
        <ele>230</ele>
        <time>2018-06-16T09:11:42Z</time>
      </trkpt>
      <trkpt lat="45.86924" lon="4.65545">
        <ele>230</ele>
        <time>2018-06-16T09:11:43Z</time>
      </trkpt>
      <trkpt lat="45.86926" lon="4.65538">
        <ele>230</ele>
        <time>2018-06-16T09:11:44Z</time>
      </trkpt>
      <trkpt lat="45.86929" lon="4.65527">
        <ele>229</ele>
        <time>2018-06-16T09:11:45Z</time>
      </trkpt>
      <trkpt lat="45.8693" lon="4.6552">
        <ele>228</ele>
        <time>2018-06-16T09:11:46Z</time>
      </trkpt>
      <trkpt lat="45.86935" lon="4.65512">
        <ele>227</ele>
        <time>2018-06-16T09:11:47Z</time>
      </trkpt>
      <trkpt lat="45.86939" lon="4.65505">
        <ele>227</ele>
        <time>2018-06-16T09:11:48Z</time>
      </trkpt>
      <trkpt lat="45.86943" lon="4.65498">
        <ele>222</ele>
        <time>2018-06-16T09:11:49Z</time>
      </trkpt>
      <trkpt lat="45.86945" lon="4.65491">
        <ele>222</ele>
        <time>2018-06-16T09:11:50Z</time>
      </trkpt>
      <trkpt lat="45.8695" lon="4.65482">
        <ele>222</ele>
        <time>2018-06-16T09:11:51Z</time>
      </trkpt>
      <trkpt lat="45.86954" lon="4.65476">
        <ele>223</ele>
        <time>2018-06-16T09:11:52Z</time>
      </trkpt>
      <trkpt lat="45.86962" lon="4.65468">
        <ele>223</ele>
        <time>2018-06-16T09:11:53Z</time>
      </trkpt>
      <trkpt lat="45.86968" lon="4.65461">
        <ele>223</ele>
        <time>2018-06-16T09:11:54Z</time>
      </trkpt>
      <trkpt lat="45.86975" lon="4.65454">
        <ele>223</ele>
        <time>2018-06-16T09:11:55Z</time>
      </trkpt>
      <trkpt lat="45.86976" lon="4.65449">
        <ele>223</ele>
        <time>2018-06-16T09:11:56Z</time>
      </trkpt>
      <trkpt lat="45.86981" lon="4.65444">
        <ele>222</ele>
        <time>2018-06-16T09:11:57Z</time>
      </trkpt>
      <trkpt lat="45.86985" lon="4.65439">
        <ele>222</ele>
        <time>2018-06-16T09:11:58Z</time>
      </trkpt>
      <trkpt lat="45.86991" lon="4.65433">
        <ele>222</ele>
        <time>2018-06-16T09:11:59Z</time>
      </trkpt>
      <trkpt lat="45.86997" lon="4.65426">
        <ele>222</ele>
        <time>2018-06-16T09:12:00Z</time>
      </trkpt>
      <trkpt lat="45.87002" lon="4.65418">
        <ele>223</ele>
        <time>2018-06-16T09:12:01Z</time>
      </trkpt>
      <trkpt lat="45.87006" lon="4.65411">
        <ele>222</ele>
        <time>2018-06-16T09:12:02Z</time>
      </trkpt>
      <trkpt lat="45.87012" lon="4.65405">
        <ele>223</ele>
        <time>2018-06-16T09:12:03Z</time>
      </trkpt>
      <trkpt lat="45.87016" lon="4.65403">
        <ele>223</ele>
        <time>2018-06-16T09:12:04Z</time>
      </trkpt>
      <trkpt lat="45.87022" lon="4.65397">
        <ele>224</ele>
        <time>2018-06-16T09:12:05Z</time>
      </trkpt>
      <trkpt lat="45.87025" lon="4.65391">
        <ele>224</ele>
        <time>2018-06-16T09:12:06Z</time>
      </trkpt>
      <trkpt lat="45.8703" lon="4.65384">
        <ele>224</ele>
        <time>2018-06-16T09:12:07Z</time>
      </trkpt>
      <trkpt lat="45.87035" lon="4.65377">
        <ele>224</ele>
        <time>2018-06-16T09:12:08Z</time>
      </trkpt>
      <trkpt lat="45.87039" lon="4.65374">
        <ele>224</ele>
        <time>2018-06-16T09:12:09Z</time>
      </trkpt>
      <trkpt lat="45.87044" lon="4.65367">
        <ele>224</ele>
        <time>2018-06-16T09:12:10Z</time>
      </trkpt>
      <trkpt lat="45.87046" lon="4.65363">
        <ele>224</ele>
        <time>2018-06-16T09:12:11Z</time>
      </trkpt>
      <trkpt lat="45.87049" lon="4.65356">
        <ele>224</ele>
        <time>2018-06-16T09:12:12Z</time>
      </trkpt>
      <trkpt lat="45.87052" lon="4.6535">
        <ele>224</ele>
        <time>2018-06-16T09:12:13Z</time>
      </trkpt>
      <trkpt lat="45.87057" lon="4.65343">
        <ele>224</ele>
        <time>2018-06-16T09:12:14Z</time>
      </trkpt>
      <trkpt lat="45.87061" lon="4.65336">
        <ele>224</ele>
        <time>2018-06-16T09:12:15Z</time>
      </trkpt>
      <trkpt lat="45.87063" lon="4.6533">
        <ele>219</ele>
        <time>2018-06-16T09:12:16Z</time>
      </trkpt>
      <trkpt lat="45.87066" lon="4.65324">
        <ele>219</ele>
        <time>2018-06-16T09:12:17Z</time>
      </trkpt>
      <trkpt lat="45.8707" lon="4.65318">
        <ele>219</ele>
        <time>2018-06-16T09:12:18Z</time>
      </trkpt>
      <trkpt lat="45.87072" lon="4.6531">
        <ele>218</ele>
        <time>2018-06-16T09:12:19Z</time>
      </trkpt>
      <trkpt lat="45.87076" lon="4.65303">
        <ele>217</ele>
        <time>2018-06-16T09:12:20Z</time>
      </trkpt>
      <trkpt lat="45.87079" lon="4.65296">
        <ele>217</ele>
        <time>2018-06-16T09:12:21Z</time>
      </trkpt>
      <trkpt lat="45.87081" lon="4.6529">
        <ele>216</ele>
        <time>2018-06-16T09:12:22Z</time>
      </trkpt>
      <trkpt lat="45.87085" lon="4.65282">
        <ele>226</ele>
        <time>2018-06-16T09:12:23Z</time>
      </trkpt>
      <trkpt lat="45.87087" lon="4.65277">
        <ele>225</ele>
        <time>2018-06-16T09:12:24Z</time>
      </trkpt>
      <trkpt lat="45.87091" lon="4.6527">
        <ele>224</ele>
        <time>2018-06-16T09:12:25Z</time>
      </trkpt>
      <trkpt lat="45.87092" lon="4.65262">
        <ele>222</ele>
        <time>2018-06-16T09:12:26Z</time>
      </trkpt>
      <trkpt lat="45.87095" lon="4.65257">
        <ele>221</ele>
        <time>2018-06-16T09:12:27Z</time>
      </trkpt>
      <trkpt lat="45.87097" lon="4.65251">
        <ele>221</ele>
        <time>2018-06-16T09:12:28Z</time>
      </trkpt>
      <trkpt lat="45.87102" lon="4.65247">
        <ele>218</ele>
        <time>2018-06-16T09:12:29Z</time>
      </trkpt>
      <trkpt lat="45.87107" lon="4.65241">
        <ele>219</ele>
        <time>2018-06-16T09:12:30Z</time>
      </trkpt>
      <trkpt lat="45.8711" lon="4.65233">
        <ele>219</ele>
        <time>2018-06-16T09:12:31Z</time>
      </trkpt>
      <trkpt lat="45.87115" lon="4.65227">
        <ele>220</ele>
        <time>2018-06-16T09:12:32Z</time>
      </trkpt>
      <trkpt lat="45.8712" lon="4.6522">
        <ele>220</ele>
        <time>2018-06-16T09:12:33Z</time>
      </trkpt>
      <trkpt lat="45.87125" lon="4.65214">
        <ele>221</ele>
        <time>2018-06-16T09:12:34Z</time>
      </trkpt>
      <trkpt lat="45.8713" lon="4.65208">
        <ele>221</ele>
        <time>2018-06-16T09:12:35Z</time>
      </trkpt>
      <trkpt lat="45.87136" lon="4.65203">
        <ele>221</ele>
        <time>2018-06-16T09:12:36Z</time>
      </trkpt>
      <trkpt lat="45.8714" lon="4.65197">
        <ele>221</ele>
        <time>2018-06-16T09:12:37Z</time>
      </trkpt>
      <trkpt lat="45.87144" lon="4.65192">
        <ele>221</ele>
        <time>2018-06-16T09:12:38Z</time>
      </trkpt>
      <trkpt lat="45.87148" lon="4.65188">
        <ele>221</ele>
        <time>2018-06-16T09:12:39Z</time>
      </trkpt>
      <trkpt lat="45.87152" lon="4.65183">
        <ele>221</ele>
        <time>2018-06-16T09:12:40Z</time>
      </trkpt>
      <trkpt lat="45.87156" lon="4.65178">
        <ele>220</ele>
        <time>2018-06-16T09:12:41Z</time>
      </trkpt>
      <trkpt lat="45.8716" lon="4.65172">
        <ele>220</ele>
        <time>2018-06-16T09:12:42Z</time>
      </trkpt>
      <trkpt lat="45.87165" lon="4.65168">
        <ele>220</ele>
        <time>2018-06-16T09:12:43Z</time>
      </trkpt>
      <trkpt lat="45.8717" lon="4.65162">
        <ele>220</ele>
        <time>2018-06-16T09:12:45Z</time>
      </trkpt>
      <trkpt lat="45.87175" lon="4.65158">
        <ele>221</ele>
        <time>2018-06-16T09:12:46Z</time>
      </trkpt>
      <trkpt lat="45.8718" lon="4.65155">
        <ele>221</ele>
        <time>2018-06-16T09:12:47Z</time>
      </trkpt>
      <trkpt lat="45.87183" lon="4.65152">
        <ele>222</ele>
        <time>2018-06-16T09:12:48Z</time>
      </trkpt>
      <trkpt lat="45.87187" lon="4.65146">
        <ele>222</ele>
        <time>2018-06-16T09:12:49Z</time>
      </trkpt>
      <trkpt lat="45.87192" lon="4.65142">
        <ele>222</ele>
        <time>2018-06-16T09:12:50Z</time>
      </trkpt>
      <trkpt lat="45.87198" lon="4.65137">
        <ele>222</ele>
        <time>2018-06-16T09:12:51Z</time>
      </trkpt>
      <trkpt lat="45.87205" lon="4.65131">
        <ele>222</ele>
        <time>2018-06-16T09:12:52Z</time>
      </trkpt>
      <trkpt lat="45.8721" lon="4.65127">
        <ele>222</ele>
        <time>2018-06-16T09:12:53Z</time>
      </trkpt>
      <trkpt lat="45.87215" lon="4.65122">
        <ele>222</ele>
        <time>2018-06-16T09:12:54Z</time>
      </trkpt>
      <trkpt lat="45.87219" lon="4.65118">
        <ele>222</ele>
        <time>2018-06-16T09:12:55Z</time>
      </trkpt>
      <trkpt lat="45.87223" lon="4.65116">
        <ele>222</ele>
        <time>2018-06-16T09:12:56Z</time>
      </trkpt>
      <trkpt lat="45.87227" lon="4.65113">
        <ele>222</ele>
        <time>2018-06-16T09:12:57Z</time>
      </trkpt>
      <trkpt lat="45.87232" lon="4.6511">
        <ele>222</ele>
        <time>2018-06-16T09:12:58Z</time>
      </trkpt>
      <trkpt lat="45.87237" lon="4.65108">
        <ele>222</ele>
        <time>2018-06-16T09:12:59Z</time>
      </trkpt>
      <trkpt lat="45.87244" lon="4.651">
        <ele>221</ele>
        <time>2018-06-16T09:13:00Z</time>
      </trkpt>
      <trkpt lat="45.87251" lon="4.65093">
        <ele>224</ele>
        <time>2018-06-16T09:13:02Z</time>
      </trkpt>
      <trkpt lat="45.87256" lon="4.65089">
        <ele>223</ele>
        <time>2018-06-16T09:13:03Z</time>
      </trkpt>
      <trkpt lat="45.8726" lon="4.65082">
        <ele>219</ele>
        <time>2018-06-16T09:13:04Z</time>
      </trkpt>
      <trkpt lat="45.87265" lon="4.65076">
        <ele>219</ele>
        <time>2018-06-16T09:13:05Z</time>
      </trkpt>
      <trkpt lat="45.87271" lon="4.65071">
        <ele>220</ele>
        <time>2018-06-16T09:13:06Z</time>
      </trkpt>
      <trkpt lat="45.87275" lon="4.65066">
        <ele>220</ele>
        <time>2018-06-16T09:13:07Z</time>
      </trkpt>
      <trkpt lat="45.87279" lon="4.65062">
        <ele>220</ele>
        <time>2018-06-16T09:13:08Z</time>
      </trkpt>
      <trkpt lat="45.87282" lon="4.65058">
        <ele>220</ele>
        <time>2018-06-16T09:13:09Z</time>
      </trkpt>
      <trkpt lat="45.87286" lon="4.65054">
        <ele>220</ele>
        <time>2018-06-16T09:13:10Z</time>
      </trkpt>
      <trkpt lat="45.87289" lon="4.65049">
        <ele>220</ele>
        <time>2018-06-16T09:13:11Z</time>
      </trkpt>
      <trkpt lat="45.87293" lon="4.65043">
        <ele>220</ele>
        <time>2018-06-16T09:13:12Z</time>
      </trkpt>
      <trkpt lat="45.87299" lon="4.65037">
        <ele>220</ele>
        <time>2018-06-16T09:13:13Z</time>
      </trkpt>
      <trkpt lat="45.87302" lon="4.65033">
        <ele>220</ele>
        <time>2018-06-16T09:13:14Z</time>
      </trkpt>
      <trkpt lat="45.87306" lon="4.65027">
        <ele>220</ele>
        <time>2018-06-16T09:13:15Z</time>
      </trkpt>
      <trkpt lat="45.87309" lon="4.65023">
        <ele>219</ele>
        <time>2018-06-16T09:13:16Z</time>
      </trkpt>
      <trkpt lat="45.87312" lon="4.65017">
        <ele>219</ele>
        <time>2018-06-16T09:13:17Z</time>
      </trkpt>
      <trkpt lat="45.87316" lon="4.65012">
        <ele>219</ele>
        <time>2018-06-16T09:13:18Z</time>
      </trkpt>
      <trkpt lat="45.87318" lon="4.65006">
        <ele>219</ele>
        <time>2018-06-16T09:13:19Z</time>
      </trkpt>
      <trkpt lat="45.87322" lon="4.65">
        <ele>219</ele>
        <time>2018-06-16T09:13:20Z</time>
      </trkpt>
      <trkpt lat="45.87325" lon="4.64994">
        <ele>216</ele>
        <time>2018-06-16T09:13:21Z</time>
      </trkpt>
      <trkpt lat="45.87328" lon="4.64987">
        <ele>216</ele>
        <time>2018-06-16T09:13:22Z</time>
      </trkpt>
      <trkpt lat="45.87331" lon="4.64981">
        <ele>215</ele>
        <time>2018-06-16T09:13:23Z</time>
      </trkpt>
      <trkpt lat="45.87334" lon="4.64976">
        <ele>219</ele>
        <time>2018-06-16T09:13:24Z</time>
      </trkpt>
      <trkpt lat="45.87337" lon="4.6497">
        <ele>219</ele>
        <time>2018-06-16T09:13:25Z</time>
      </trkpt>
      <trkpt lat="45.87339" lon="4.64963">
        <ele>219</ele>
        <time>2018-06-16T09:13:26Z</time>
      </trkpt>
      <trkpt lat="45.87343" lon="4.64958">
        <ele>219</ele>
        <time>2018-06-16T09:13:27Z</time>
      </trkpt>
      <trkpt lat="45.87346" lon="4.64952">
        <ele>218</ele>
        <time>2018-06-16T09:13:28Z</time>
      </trkpt>
      <trkpt lat="45.8735" lon="4.64947">
        <ele>218</ele>
        <time>2018-06-16T09:13:29Z</time>
      </trkpt>
      <trkpt lat="45.87355" lon="4.64942">
        <ele>218</ele>
        <time>2018-06-16T09:13:30Z</time>
      </trkpt>
      <trkpt lat="45.87358" lon="4.64936">
        <ele>218</ele>
        <time>2018-06-16T09:13:31Z</time>
      </trkpt>
      <trkpt lat="45.87362" lon="4.64929">
        <ele>218</ele>
        <time>2018-06-16T09:13:32Z</time>
      </trkpt>
      <trkpt lat="45.87366" lon="4.64922">
        <ele>218</ele>
        <time>2018-06-16T09:13:33Z</time>
      </trkpt>
      <trkpt lat="45.87373" lon="4.64915">
        <ele>215</ele>
        <time>2018-06-16T09:13:35Z</time>
      </trkpt>
      <trkpt lat="45.87376" lon="4.6491">
        <ele>215</ele>
        <time>2018-06-16T09:13:36Z</time>
      </trkpt>
      <trkpt lat="45.87382" lon="4.64901">
        <ele>215</ele>
        <time>2018-06-16T09:13:38Z</time>
      </trkpt>
      <trkpt lat="45.87385" lon="4.64897">
        <ele>216</ele>
        <time>2018-06-16T09:13:39Z</time>
      </trkpt>
      <trkpt lat="45.87389" lon="4.64893">
        <ele>216</ele>
        <time>2018-06-16T09:13:40Z</time>
      </trkpt>
      <trkpt lat="45.87393" lon="4.64887">
        <ele>216</ele>
        <time>2018-06-16T09:13:41Z</time>
      </trkpt>
      <trkpt lat="45.87398" lon="4.64883">
        <ele>216</ele>
        <time>2018-06-16T09:13:42Z</time>
      </trkpt>
      <trkpt lat="45.87401" lon="4.64881">
        <ele>216</ele>
        <time>2018-06-16T09:13:43Z</time>
      </trkpt>
      <trkpt lat="45.87407" lon="4.64874">
        <ele>216</ele>
        <time>2018-06-16T09:13:44Z</time>
      </trkpt>
      <trkpt lat="45.87409" lon="4.64871">
        <ele>216</ele>
        <time>2018-06-16T09:13:45Z</time>
      </trkpt>
      <trkpt lat="45.8741" lon="4.64864">
        <ele>215</ele>
        <time>2018-06-16T09:13:46Z</time>
      </trkpt>
      <trkpt lat="45.87415" lon="4.64859">
        <ele>215</ele>
        <time>2018-06-16T09:13:47Z</time>
      </trkpt>
      <trkpt lat="45.8742" lon="4.64852">
        <ele>218</ele>
        <time>2018-06-16T09:13:48Z</time>
      </trkpt>
      <trkpt lat="45.87425" lon="4.64847">
        <ele>218</ele>
        <time>2018-06-16T09:13:49Z</time>
      </trkpt>
      <trkpt lat="45.87431" lon="4.64842">
        <ele>218</ele>
        <time>2018-06-16T09:13:50Z</time>
      </trkpt>
      <trkpt lat="45.87435" lon="4.64838">
        <ele>218</ele>
        <time>2018-06-16T09:13:51Z</time>
      </trkpt>
      <trkpt lat="45.87442" lon="4.64834">
        <ele>219</ele>
        <time>2018-06-16T09:13:53Z</time>
      </trkpt>
      <trkpt lat="45.87448" lon="4.64825">
        <ele>215</ele>
        <time>2018-06-16T09:13:54Z</time>
      </trkpt>
      <trkpt lat="45.87451" lon="4.64821">
        <ele>215</ele>
        <time>2018-06-16T09:13:55Z</time>
      </trkpt>
      <trkpt lat="45.87454" lon="4.64814">
        <ele>215</ele>
        <time>2018-06-16T09:13:56Z</time>
      </trkpt>
      <trkpt lat="45.87459" lon="4.64805">
        <ele>215</ele>
        <time>2018-06-16T09:13:58Z</time>
      </trkpt>
      <trkpt lat="45.87464" lon="4.648">
        <ele>215</ele>
        <time>2018-06-16T09:13:59Z</time>
      </trkpt>
      <trkpt lat="45.87466" lon="4.64795">
        <ele>214</ele>
        <time>2018-06-16T09:14:00Z</time>
      </trkpt>
      <trkpt lat="45.87469" lon="4.64788">
        <ele>214</ele>
        <time>2018-06-16T09:14:01Z</time>
      </trkpt>
      <trkpt lat="45.87472" lon="4.64783">
        <ele>214</ele>
        <time>2018-06-16T09:14:02Z</time>
      </trkpt>
      <trkpt lat="45.87476" lon="4.64778">
        <ele>214</ele>
        <time>2018-06-16T09:14:03Z</time>
      </trkpt>
      <trkpt lat="45.8748" lon="4.64774">
        <ele>214</ele>
        <time>2018-06-16T09:14:04Z</time>
      </trkpt>
      <trkpt lat="45.87484" lon="4.64768">
        <ele>214</ele>
        <time>2018-06-16T09:14:05Z</time>
      </trkpt>
      <trkpt lat="45.8749" lon="4.6476">
        <ele>214</ele>
        <time>2018-06-16T09:14:07Z</time>
      </trkpt>
      <trkpt lat="45.87495" lon="4.64756">
        <ele>213</ele>
        <time>2018-06-16T09:14:08Z</time>
      </trkpt>
      <trkpt lat="45.87498" lon="4.64748">
        <ele>213</ele>
        <time>2018-06-16T09:14:09Z</time>
      </trkpt>
      <trkpt lat="45.87502" lon="4.64744">
        <ele>213</ele>
        <time>2018-06-16T09:14:10Z</time>
      </trkpt>
      <trkpt lat="45.87508" lon="4.64734">
        <ele>213</ele>
        <time>2018-06-16T09:14:12Z</time>
      </trkpt>
      <trkpt lat="45.87511" lon="4.6473">
        <ele>213</ele>
        <time>2018-06-16T09:14:13Z</time>
      </trkpt>
      <trkpt lat="45.87516" lon="4.6472">
        <ele>212</ele>
        <time>2018-06-16T09:14:15Z</time>
      </trkpt>
      <trkpt lat="45.8752" lon="4.64716">
        <ele>212</ele>
        <time>2018-06-16T09:14:16Z</time>
      </trkpt>
      <trkpt lat="45.87525" lon="4.64708">
        <ele>212</ele>
        <time>2018-06-16T09:14:18Z</time>
      </trkpt>
      <trkpt lat="45.87528" lon="4.64704">
        <ele>212</ele>
        <time>2018-06-16T09:14:19Z</time>
      </trkpt>
      <trkpt lat="45.87534" lon="4.64698">
        <ele>212</ele>
        <time>2018-06-16T09:14:21Z</time>
      </trkpt>
      <trkpt lat="45.87538" lon="4.64695">
        <ele>212</ele>
        <time>2018-06-16T09:14:22Z</time>
      </trkpt>
      <trkpt lat="45.87543" lon="4.64687">
        <ele>212</ele>
        <time>2018-06-16T09:14:24Z</time>
      </trkpt>
      <trkpt lat="45.87545" lon="4.64685">
        <ele>212</ele>
        <time>2018-06-16T09:14:25Z</time>
      </trkpt>
      <trkpt lat="45.87549" lon="4.64679">
        <ele>212</ele>
        <time>2018-06-16T09:14:26Z</time>
      </trkpt>
      <trkpt lat="45.87552" lon="4.64675">
        <ele>212</ele>
        <time>2018-06-16T09:14:27Z</time>
      </trkpt>
      <trkpt lat="45.87557" lon="4.64665">
        <ele>212</ele>
        <time>2018-06-16T09:14:29Z</time>
      </trkpt>
      <trkpt lat="45.8756" lon="4.6466">
        <ele>212</ele>
        <time>2018-06-16T09:14:30Z</time>
      </trkpt>
      <trkpt lat="45.87563" lon="4.64655">
        <ele>212</ele>
        <time>2018-06-16T09:14:31Z</time>
      </trkpt>
      <trkpt lat="45.87567" lon="4.64648">
        <ele>212</ele>
        <time>2018-06-16T09:14:32Z</time>
      </trkpt>
      <trkpt lat="45.87573" lon="4.64639">
        <ele>212</ele>
        <time>2018-06-16T09:14:34Z</time>
      </trkpt>
      <trkpt lat="45.87577" lon="4.64636">
        <ele>212</ele>
        <time>2018-06-16T09:14:35Z</time>
      </trkpt>
      <trkpt lat="45.87579" lon="4.64631">
        <ele>212</ele>
        <time>2018-06-16T09:14:37Z</time>
      </trkpt>
      <trkpt lat="45.87584" lon="4.64623">
        <ele>212</ele>
        <time>2018-06-16T09:14:38Z</time>
      </trkpt>
      <trkpt lat="45.8759" lon="4.64615">
        <ele>212</ele>
        <time>2018-06-16T09:14:40Z</time>
      </trkpt>
      <trkpt lat="45.87593" lon="4.64611">
        <ele>212</ele>
        <time>2018-06-16T09:14:41Z</time>
      </trkpt>
      <trkpt lat="45.876" lon="4.64604">
        <ele>212</ele>
        <time>2018-06-16T09:14:43Z</time>
      </trkpt>
      <trkpt lat="45.87603" lon="4.646">
        <ele>212</ele>
        <time>2018-06-16T09:14:44Z</time>
      </trkpt>
      <trkpt lat="45.87607" lon="4.64596">
        <ele>212</ele>
        <time>2018-06-16T09:14:45Z</time>
      </trkpt>
      <trkpt lat="45.87612" lon="4.64592">
        <ele>212</ele>
        <time>2018-06-16T09:14:46Z</time>
      </trkpt>
      <trkpt lat="45.87617" lon="4.64583">
        <ele>212</ele>
        <time>2018-06-16T09:14:48Z</time>
      </trkpt>
      <trkpt lat="45.87621" lon="4.64579">
        <ele>212</ele>
        <time>2018-06-16T09:14:49Z</time>
      </trkpt>
      <trkpt lat="45.87625" lon="4.64574">
        <ele>212</ele>
        <time>2018-06-16T09:14:50Z</time>
      </trkpt>
      <trkpt lat="45.87629" lon="4.64568">
        <ele>212</ele>
        <time>2018-06-16T09:14:51Z</time>
      </trkpt>
      <trkpt lat="45.87635" lon="4.64559">
        <ele>212</ele>
        <time>2018-06-16T09:14:53Z</time>
      </trkpt>
      <trkpt lat="45.87638" lon="4.64555">
        <ele>212</ele>
        <time>2018-06-16T09:14:54Z</time>
      </trkpt>
      <trkpt lat="45.87645" lon="4.64546">
        <ele>213</ele>
        <time>2018-06-16T09:14:56Z</time>
      </trkpt>
      <trkpt lat="45.87648" lon="4.64542">
        <ele>213</ele>
        <time>2018-06-16T09:14:57Z</time>
      </trkpt>
      <trkpt lat="45.87653" lon="4.64537">
        <ele>213</ele>
        <time>2018-06-16T09:14:58Z</time>
      </trkpt>
      <trkpt lat="45.87656" lon="4.64533">
        <ele>213</ele>
        <time>2018-06-16T09:14:59Z</time>
      </trkpt>
      <trkpt lat="45.87663" lon="4.64526">
        <ele>213</ele>
        <time>2018-06-16T09:15:01Z</time>
      </trkpt>
      <trkpt lat="45.87666" lon="4.64522">
        <ele>213</ele>
        <time>2018-06-16T09:15:02Z</time>
      </trkpt>
      <trkpt lat="45.8767" lon="4.64517">
        <ele>215</ele>
        <time>2018-06-16T09:15:03Z</time>
      </trkpt>
      <trkpt lat="45.87673" lon="4.64512">
        <ele>215</ele>
        <time>2018-06-16T09:15:04Z</time>
      </trkpt>
      <trkpt lat="45.87677" lon="4.64507">
        <ele>215</ele>
        <time>2018-06-16T09:15:06Z</time>
      </trkpt>
      <trkpt lat="45.87681" lon="4.64501">
        <ele>215</ele>
        <time>2018-06-16T09:15:07Z</time>
      </trkpt>
      <trkpt lat="45.87688" lon="4.64495">
        <ele>214</ele>
        <time>2018-06-16T09:15:11Z</time>
      </trkpt>
      <trkpt lat="45.8769" lon="4.64494">
        <ele>214</ele>
        <time>2018-06-16T09:15:12Z</time>
      </trkpt>
      <trkpt lat="45.87697" lon="4.64497">
        <ele>215</ele>
        <time>2018-06-16T09:15:15Z</time>
      </trkpt>
      <trkpt lat="45.877" lon="4.64501">
        <ele>215</ele>
        <time>2018-06-16T09:15:16Z</time>
      </trkpt>
      <trkpt lat="45.87705" lon="4.64512">
        <ele>215</ele>
        <time>2018-06-16T09:15:17Z</time>
      </trkpt>
      <trkpt lat="45.87708" lon="4.6452">
        <ele>216</ele>
        <time>2018-06-16T09:15:19Z</time>
      </trkpt>
      <trkpt lat="45.87711" lon="4.64527">
        <ele>216</ele>
        <time>2018-06-16T09:15:20Z</time>
      </trkpt>
      <trkpt lat="45.87716" lon="4.64538">
        <ele>216</ele>
        <time>2018-06-16T09:15:22Z</time>
      </trkpt>
      <trkpt lat="45.87717" lon="4.64541">
        <ele>216</ele>
        <time>2018-06-16T09:15:23Z</time>
      </trkpt>
      <trkpt lat="45.8772" lon="4.64551">
        <ele>216</ele>
        <time>2018-06-16T09:15:24Z</time>
      </trkpt>
      <trkpt lat="45.87722" lon="4.64556">
        <ele>216</ele>
        <time>2018-06-16T09:15:25Z</time>
      </trkpt>
      <trkpt lat="45.87724" lon="4.64568">
        <ele>217</ele>
        <time>2018-06-16T09:15:27Z</time>
      </trkpt>
      <trkpt lat="45.87723" lon="4.64573">
        <ele>217</ele>
        <time>2018-06-16T09:15:28Z</time>
      </trkpt>
      <trkpt lat="45.87723" lon="4.6458">
        <ele>217</ele>
        <time>2018-06-16T09:15:29Z</time>
      </trkpt>
      <trkpt lat="45.87724" lon="4.64586">
        <ele>217</ele>
        <time>2018-06-16T09:15:30Z</time>
      </trkpt>
      <trkpt lat="45.87725" lon="4.64596">
        <ele>217</ele>
        <time>2018-06-16T09:15:33Z</time>
      </trkpt>
      <trkpt lat="45.87723" lon="4.64609">
        <ele>217</ele>
        <time>2018-06-16T09:15:34Z</time>
      </trkpt>
      <trkpt lat="45.87724" lon="4.64616">
        <ele>217</ele>
        <time>2018-06-16T09:15:35Z</time>
      </trkpt>
      <trkpt lat="45.87728" lon="4.64622">
        <ele>217</ele>
        <time>2018-06-16T09:15:36Z</time>
      </trkpt>
      <trkpt lat="45.8773" lon="4.64629">
        <ele>217</ele>
        <time>2018-06-16T09:15:37Z</time>
      </trkpt>
      <trkpt lat="45.8773" lon="4.64637">
        <ele>217</ele>
        <time>2018-06-16T09:15:38Z</time>
      </trkpt>
      <trkpt lat="45.87732" lon="4.64646">
        <ele>217</ele>
        <time>2018-06-16T09:15:40Z</time>
      </trkpt>
      <trkpt lat="45.87732" lon="4.64653">
        <ele>217</ele>
        <time>2018-06-16T09:15:41Z</time>
      </trkpt>
      <trkpt lat="45.8773" lon="4.64665">
        <ele>217</ele>
        <time>2018-06-16T09:15:43Z</time>
      </trkpt>
      <trkpt lat="45.87727" lon="4.64671">
        <ele>216</ele>
        <time>2018-06-16T09:15:44Z</time>
      </trkpt>
      <trkpt lat="45.87726" lon="4.64683">
        <ele>216</ele>
        <time>2018-06-16T09:15:46Z</time>
      </trkpt>
      <trkpt lat="45.87726" lon="4.6469">
        <ele>216</ele>
        <time>2018-06-16T09:15:47Z</time>
      </trkpt>
      <trkpt lat="45.87725" lon="4.64696">
        <ele>215</ele>
        <time>2018-06-16T09:15:48Z</time>
      </trkpt>
      <trkpt lat="45.87725" lon="4.64704">
        <ele>215</ele>
        <time>2018-06-16T09:15:49Z</time>
      </trkpt>
      <trkpt lat="45.87726" lon="4.64711">
        <ele>215</ele>
        <time>2018-06-16T09:15:50Z</time>
      </trkpt>
      <trkpt lat="45.87727" lon="4.64719">
        <ele>215</ele>
        <time>2018-06-16T09:15:51Z</time>
      </trkpt>
      <trkpt lat="45.87728" lon="4.64727">
        <ele>215</ele>
        <time>2018-06-16T09:15:52Z</time>
      </trkpt>
      <trkpt lat="45.87731" lon="4.64732">
        <ele>214</ele>
        <time>2018-06-16T09:15:53Z</time>
      </trkpt>
      <trkpt lat="45.87732" lon="4.64739">
        <ele>214</ele>
        <time>2018-06-16T09:15:54Z</time>
      </trkpt>
      <trkpt lat="45.87733" lon="4.64745">
        <ele>214</ele>
        <time>2018-06-16T09:15:55Z</time>
      </trkpt>
      <trkpt lat="45.87734" lon="4.64752">
        <ele>213</ele>
        <time>2018-06-16T09:15:56Z</time>
      </trkpt>
      <trkpt lat="45.87735" lon="4.64758">
        <ele>213</ele>
        <time>2018-06-16T09:15:57Z</time>
      </trkpt>
      <trkpt lat="45.87736" lon="4.64765">
        <ele>213</ele>
        <time>2018-06-16T09:15:58Z</time>
      </trkpt>
      <trkpt lat="45.87737" lon="4.64771">
        <ele>213</ele>
        <time>2018-06-16T09:15:59Z</time>
      </trkpt>
      <trkpt lat="45.8774" lon="4.64783">
        <ele>213</ele>
        <time>2018-06-16T09:16:01Z</time>
      </trkpt>
      <trkpt lat="45.87742" lon="4.64789">
        <ele>213</ele>
        <time>2018-06-16T09:16:02Z</time>
      </trkpt>
      <trkpt lat="45.87746" lon="4.64799">
        <ele>214</ele>
        <time>2018-06-16T09:16:04Z</time>
      </trkpt>
      <trkpt lat="45.87749" lon="4.64803">
        <ele>214</ele>
        <time>2018-06-16T09:16:05Z</time>
      </trkpt>
      <trkpt lat="45.87754" lon="4.64812">
        <ele>214</ele>
        <time>2018-06-16T09:16:07Z</time>
      </trkpt>
      <trkpt lat="45.87756" lon="4.64816">
        <ele>214</ele>
        <time>2018-06-16T09:16:08Z</time>
      </trkpt>
      <trkpt lat="45.87759" lon="4.6482">
        <ele>214</ele>
        <time>2018-06-16T09:16:10Z</time>
      </trkpt>
      <trkpt lat="45.87763" lon="4.64827">
        <ele>214</ele>
        <time>2018-06-16T09:16:11Z</time>
      </trkpt>
      <trkpt lat="45.87768" lon="4.64833">
        <ele>214</ele>
        <time>2018-06-16T09:16:14Z</time>
      </trkpt>
      <trkpt lat="45.8777" lon="4.64835">
        <ele>216</ele>
        <time>2018-06-16T09:16:15Z</time>
      </trkpt>
      <trkpt lat="45.87774" lon="4.64841">
        <ele>217</ele>
        <time>2018-06-16T09:16:17Z</time>
      </trkpt>
      <trkpt lat="45.8778" lon="4.64849">
        <ele>217</ele>
        <time>2018-06-16T09:16:18Z</time>
      </trkpt>
      <trkpt lat="45.87785" lon="4.64858">
        <ele>218</ele>
        <time>2018-06-16T09:16:22Z</time>
      </trkpt>
      <trkpt lat="45.87787" lon="4.64861">
        <ele>218</ele>
        <time>2018-06-16T09:16:23Z</time>
      </trkpt>
      <trkpt lat="45.87791" lon="4.64868">
        <ele>218</ele>
        <time>2018-06-16T09:16:26Z</time>
      </trkpt>
      <trkpt lat="45.87793" lon="4.64871">
        <ele>218</ele>
        <time>2018-06-16T09:16:27Z</time>
      </trkpt>
      <trkpt lat="45.87796" lon="4.64881">
        <ele>219</ele>
        <time>2018-06-16T09:16:30Z</time>
      </trkpt>
      <trkpt lat="45.87797" lon="4.64884">
        <ele>219</ele>
        <time>2018-06-16T09:16:31Z</time>
      </trkpt>
      <trkpt lat="45.87802" lon="4.64893">
        <ele>219</ele>
        <time>2018-06-16T09:16:34Z</time>
      </trkpt>
      <trkpt lat="45.87803" lon="4.64896">
        <ele>219</ele>
        <time>2018-06-16T09:16:35Z</time>
      </trkpt>
      <trkpt lat="45.87808" lon="4.64905">
        <ele>220</ele>
        <time>2018-06-16T09:16:38Z</time>
      </trkpt>
      <trkpt lat="45.87809" lon="4.64909">
        <ele>220</ele>
        <time>2018-06-16T09:16:39Z</time>
      </trkpt>
      <trkpt lat="45.87813" lon="4.64917">
        <ele>224</ele>
        <time>2018-06-16T09:16:42Z</time>
      </trkpt>
      <trkpt lat="45.87815" lon="4.6492">
        <ele>224</ele>
        <time>2018-06-16T09:16:43Z</time>
      </trkpt>
      <trkpt lat="45.87819" lon="4.6493">
        <ele>224</ele>
        <time>2018-06-16T09:16:47Z</time>
      </trkpt>
      <trkpt lat="45.87821" lon="4.64933">
        <ele>224</ele>
        <time>2018-06-16T09:16:48Z</time>
      </trkpt>
      <trkpt lat="45.87826" lon="4.64942">
        <ele>225</ele>
        <time>2018-06-16T09:16:52Z</time>
      </trkpt>
      <trkpt lat="45.87828" lon="4.64944">
        <ele>225</ele>
        <time>2018-06-16T09:16:53Z</time>
      </trkpt>
      <trkpt lat="45.87834" lon="4.6495">
        <ele>227</ele>
        <time>2018-06-16T09:16:57Z</time>
      </trkpt>
      <trkpt lat="45.87836" lon="4.64952">
        <ele>227</ele>
        <time>2018-06-16T09:16:58Z</time>
      </trkpt>
      <trkpt lat="45.87842" lon="4.64958">
        <ele>228</ele>
        <time>2018-06-16T09:17:02Z</time>
      </trkpt>
      <trkpt lat="45.87844" lon="4.64959">
        <ele>228</ele>
        <time>2018-06-16T09:17:03Z</time>
      </trkpt>
      <trkpt lat="45.8785" lon="4.64965">
        <ele>229</ele>
        <time>2018-06-16T09:17:07Z</time>
      </trkpt>
      <trkpt lat="45.87851" lon="4.64966">
        <ele>229</ele>
        <time>2018-06-16T09:17:08Z</time>
      </trkpt>
      <trkpt lat="45.87858" lon="4.64972">
        <ele>229</ele>
        <time>2018-06-16T09:17:12Z</time>
      </trkpt>
      <trkpt lat="45.8786" lon="4.64972">
        <ele>229</ele>
        <time>2018-06-16T09:17:13Z</time>
      </trkpt>
      <trkpt lat="45.87867" lon="4.64975">
        <ele>230</ele>
        <time>2018-06-16T09:17:17Z</time>
      </trkpt>
      <trkpt lat="45.87869" lon="4.64976">
        <ele>230</ele>
        <time>2018-06-16T09:17:18Z</time>
      </trkpt>
      <trkpt lat="45.87876" lon="4.64979">
        <ele>230</ele>
        <time>2018-06-16T09:17:22Z</time>
      </trkpt>
      <trkpt lat="45.87878" lon="4.6498">
        <ele>230</ele>
        <time>2018-06-16T09:17:23Z</time>
      </trkpt>
      <trkpt lat="45.87885" lon="4.64983">
        <ele>231</ele>
        <time>2018-06-16T09:17:27Z</time>
      </trkpt>
      <trkpt lat="45.87887" lon="4.64983">
        <ele>231</ele>
        <time>2018-06-16T09:17:28Z</time>
      </trkpt>
      <trkpt lat="45.87894" lon="4.64984">
        <ele>232</ele>
        <time>2018-06-16T09:17:31Z</time>
      </trkpt>
      <trkpt lat="45.87896" lon="4.64984">
        <ele>232</ele>
        <time>2018-06-16T09:17:32Z</time>
      </trkpt>
      <trkpt lat="45.87904" lon="4.64984">
        <ele>232</ele>
        <time>2018-06-16T09:17:35Z</time>
      </trkpt>
      <trkpt lat="45.87906" lon="4.64984">
        <ele>233</ele>
        <time>2018-06-16T09:17:36Z</time>
      </trkpt>
      <trkpt lat="45.87913" lon="4.64985">
        <ele>233</ele>
        <time>2018-06-16T09:17:39Z</time>
      </trkpt>
      <trkpt lat="45.87915" lon="4.64985">
        <ele>233</ele>
        <time>2018-06-16T09:17:40Z</time>
      </trkpt>
      <trkpt lat="45.87922" lon="4.64983">
        <ele>237</ele>
        <time>2018-06-16T09:17:43Z</time>
      </trkpt>
      <trkpt lat="45.87925" lon="4.64983">
        <ele>237</ele>
        <time>2018-06-16T09:17:44Z</time>
      </trkpt>
      <trkpt lat="45.87932" lon="4.6498">
        <ele>237</ele>
        <time>2018-06-16T09:17:47Z</time>
      </trkpt>
      <trkpt lat="45.87934" lon="4.6498">
        <ele>237</ele>
        <time>2018-06-16T09:17:48Z</time>
      </trkpt>
      <trkpt lat="45.87942" lon="4.64978">
        <ele>237</ele>
        <time>2018-06-16T09:17:52Z</time>
      </trkpt>
      <trkpt lat="45.87944" lon="4.64977">
        <ele>237</ele>
        <time>2018-06-16T09:17:53Z</time>
      </trkpt>
      <trkpt lat="45.8795" lon="4.64973">
        <ele>237</ele>
        <time>2018-06-16T09:17:57Z</time>
      </trkpt>
      <trkpt lat="45.87952" lon="4.64972">
        <ele>238</ele>
        <time>2018-06-16T09:17:58Z</time>
      </trkpt>
      <trkpt lat="45.8796" lon="4.64966">
        <ele>238</ele>
        <time>2018-06-16T09:18:02Z</time>
      </trkpt>
      <trkpt lat="45.87962" lon="4.64965">
        <ele>238</ele>
        <time>2018-06-16T09:18:03Z</time>
      </trkpt>
      <trkpt lat="45.87969" lon="4.64959">
        <ele>238</ele>
        <time>2018-06-16T09:18:07Z</time>
      </trkpt>
      <trkpt lat="45.87971" lon="4.64958">
        <ele>238</ele>
        <time>2018-06-16T09:18:08Z</time>
      </trkpt>
      <trkpt lat="45.87979" lon="4.64953">
        <ele>238</ele>
        <time>2018-06-16T09:18:12Z</time>
      </trkpt>
      <trkpt lat="45.87981" lon="4.64952">
        <ele>238</ele>
        <time>2018-06-16T09:18:13Z</time>
      </trkpt>
      <trkpt lat="45.87989" lon="4.64946">
        <ele>237</ele>
        <time>2018-06-16T09:18:17Z</time>
      </trkpt>
      <trkpt lat="45.8799" lon="4.64944">
        <ele>237</ele>
        <time>2018-06-16T09:18:18Z</time>
      </trkpt>
      <trkpt lat="45.87996" lon="4.64939">
        <ele>237</ele>
        <time>2018-06-16T09:18:21Z</time>
      </trkpt>
      <trkpt lat="45.87998" lon="4.64938">
        <ele>237</ele>
        <time>2018-06-16T09:18:22Z</time>
      </trkpt>
      <trkpt lat="45.88005" lon="4.64933">
        <ele>243</ele>
        <time>2018-06-16T09:18:26Z</time>
      </trkpt>
      <trkpt lat="45.88007" lon="4.64931">
        <ele>243</ele>
        <time>2018-06-16T09:18:27Z</time>
      </trkpt>
      <trkpt lat="45.88015" lon="4.64925">
        <ele>243</ele>
        <time>2018-06-16T09:18:31Z</time>
      </trkpt>
      <trkpt lat="45.88017" lon="4.64924">
        <ele>244</ele>
        <time>2018-06-16T09:18:32Z</time>
      </trkpt>
      <trkpt lat="45.88023" lon="4.64919">
        <ele>245</ele>
        <time>2018-06-16T09:18:35Z</time>
      </trkpt>
      <trkpt lat="45.88025" lon="4.64917">
        <ele>246</ele>
        <time>2018-06-16T09:18:36Z</time>
      </trkpt>
      <trkpt lat="45.88031" lon="4.6491">
        <ele>239</ele>
        <time>2018-06-16T09:18:40Z</time>
      </trkpt>
      <trkpt lat="45.88033" lon="4.64908">
        <ele>239</ele>
        <time>2018-06-16T09:18:41Z</time>
      </trkpt>
      <trkpt lat="45.8804" lon="4.64902">
        <ele>239</ele>
        <time>2018-06-16T09:18:45Z</time>
      </trkpt>
      <trkpt lat="45.88041" lon="4.649">
        <ele>239</ele>
        <time>2018-06-16T09:18:46Z</time>
      </trkpt>
      <trkpt lat="45.88048" lon="4.64894">
        <ele>240</ele>
        <time>2018-06-16T09:18:50Z</time>
      </trkpt>
      <trkpt lat="45.8805" lon="4.64892">
        <ele>240</ele>
        <time>2018-06-16T09:18:51Z</time>
      </trkpt>
      <trkpt lat="45.88058" lon="4.64885">
        <ele>240</ele>
        <time>2018-06-16T09:18:55Z</time>
      </trkpt>
      <trkpt lat="45.88059" lon="4.64883">
        <ele>240</ele>
        <time>2018-06-16T09:18:56Z</time>
      </trkpt>
      <trkpt lat="45.88066" lon="4.64876">
        <ele>240</ele>
        <time>2018-06-16T09:19:00Z</time>
      </trkpt>
      <trkpt lat="45.88068" lon="4.64875">
        <ele>240</ele>
        <time>2018-06-16T09:19:01Z</time>
      </trkpt>
      <trkpt lat="45.88075" lon="4.64869">
        <ele>239</ele>
        <time>2018-06-16T09:19:05Z</time>
      </trkpt>
      <trkpt lat="45.88077" lon="4.64868">
        <ele>239</ele>
        <time>2018-06-16T09:19:06Z</time>
      </trkpt>
      <trkpt lat="45.88083" lon="4.64864">
        <ele>246</ele>
        <time>2018-06-16T09:19:09Z</time>
      </trkpt>
      <trkpt lat="45.88086" lon="4.64863">
        <ele>246</ele>
        <time>2018-06-16T09:19:10Z</time>
      </trkpt>
      <trkpt lat="45.88093" lon="4.64862">
        <ele>246</ele>
        <time>2018-06-16T09:19:13Z</time>
      </trkpt>
      <trkpt lat="45.88095" lon="4.64861">
        <ele>246</ele>
        <time>2018-06-16T09:19:14Z</time>
      </trkpt>
      <trkpt lat="45.88102" lon="4.64858">
        <ele>246</ele>
        <time>2018-06-16T09:19:17Z</time>
      </trkpt>
      <trkpt lat="45.88104" lon="4.64857">
        <ele>246</ele>
        <time>2018-06-16T09:19:18Z</time>
      </trkpt>
      <trkpt lat="45.88112" lon="4.64854">
        <ele>246</ele>
        <time>2018-06-16T09:19:22Z</time>
      </trkpt>
      <trkpt lat="45.88113" lon="4.64853">
        <ele>246</ele>
        <time>2018-06-16T09:19:23Z</time>
      </trkpt>
      <trkpt lat="45.88122" lon="4.64853">
        <ele>247</ele>
        <time>2018-06-16T09:19:28Z</time>
      </trkpt>
      <trkpt lat="45.88124" lon="4.64854">
        <ele>247</ele>
        <time>2018-06-16T09:19:29Z</time>
      </trkpt>
      <trkpt lat="45.88132" lon="4.64853">
        <ele>248</ele>
        <time>2018-06-16T09:19:32Z</time>
      </trkpt>
      <trkpt lat="45.88134" lon="4.64853">
        <ele>248</ele>
        <time>2018-06-16T09:19:33Z</time>
      </trkpt>
      <trkpt lat="45.88141" lon="4.64851">
        <ele>248</ele>
        <time>2018-06-16T09:19:36Z</time>
      </trkpt>
      <trkpt lat="45.88144" lon="4.6485">
        <ele>248</ele>
        <time>2018-06-16T09:19:37Z</time>
      </trkpt>
      <trkpt lat="45.88152" lon="4.64847">
        <ele>247</ele>
        <time>2018-06-16T09:19:41Z</time>
      </trkpt>
      <trkpt lat="45.88154" lon="4.64846">
        <ele>247</ele>
        <time>2018-06-16T09:19:42Z</time>
      </trkpt>
      <trkpt lat="45.88162" lon="4.64844">
        <ele>247</ele>
        <time>2018-06-16T09:19:47Z</time>
      </trkpt>
      <trkpt lat="45.88164" lon="4.64843">
        <ele>247</ele>
        <time>2018-06-16T09:19:48Z</time>
      </trkpt>
      <trkpt lat="45.88171" lon="4.6484">
        <ele>249</ele>
        <time>2018-06-16T09:19:51Z</time>
      </trkpt>
      <trkpt lat="45.88174" lon="4.6484">
        <ele>249</ele>
        <time>2018-06-16T09:19:52Z</time>
      </trkpt>
      <trkpt lat="45.88181" lon="4.64839">
        <ele>251</ele>
        <time>2018-06-16T09:19:56Z</time>
      </trkpt>
      <trkpt lat="45.88183" lon="4.64838">
        <ele>252</ele>
        <time>2018-06-16T09:19:57Z</time>
      </trkpt>
      <trkpt lat="45.88191" lon="4.64838">
        <ele>253</ele>
        <time>2018-06-16T09:20:01Z</time>
      </trkpt>
      <trkpt lat="45.88193" lon="4.64838">
        <ele>254</ele>
        <time>2018-06-16T09:20:02Z</time>
      </trkpt>
      <trkpt lat="45.88201" lon="4.64838">
        <ele>255</ele>
        <time>2018-06-16T09:20:06Z</time>
      </trkpt>
      <trkpt lat="45.88204" lon="4.64837">
        <ele>255</ele>
        <time>2018-06-16T09:20:07Z</time>
      </trkpt>
      <trkpt lat="45.8821" lon="4.64835">
        <ele>256</ele>
        <time>2018-06-16T09:20:10Z</time>
      </trkpt>
      <trkpt lat="45.88213" lon="4.64834">
        <ele>256</ele>
        <time>2018-06-16T09:20:11Z</time>
      </trkpt>
      <trkpt lat="45.88221" lon="4.64832">
        <ele>248</ele>
        <time>2018-06-16T09:20:15Z</time>
      </trkpt>
      <trkpt lat="45.88222" lon="4.64832">
        <ele>248</ele>
        <time>2018-06-16T09:20:16Z</time>
      </trkpt>
      <trkpt lat="45.88231" lon="4.64831">
        <ele>250</ele>
        <time>2018-06-16T09:20:21Z</time>
      </trkpt>
      <trkpt lat="45.88233" lon="4.64831">
        <ele>250</ele>
        <time>2018-06-16T09:20:22Z</time>
      </trkpt>
      <trkpt lat="45.88241" lon="4.64827">
        <ele>252</ele>
        <time>2018-06-16T09:20:27Z</time>
      </trkpt>
      <trkpt lat="45.88243" lon="4.64826">
        <ele>252</ele>
        <time>2018-06-16T09:20:28Z</time>
      </trkpt>
      <trkpt lat="45.88251" lon="4.64822">
        <ele>257</ele>
        <time>2018-06-16T09:20:33Z</time>
      </trkpt>
      <trkpt lat="45.88252" lon="4.64822">
        <ele>257</ele>
        <time>2018-06-16T09:20:34Z</time>
      </trkpt>
      <trkpt lat="45.8826" lon="4.64819">
        <ele>257</ele>
        <time>2018-06-16T09:20:38Z</time>
      </trkpt>
      <trkpt lat="45.88262" lon="4.64818">
        <ele>257</ele>
        <time>2018-06-16T09:20:39Z</time>
      </trkpt>
      <trkpt lat="45.8827" lon="4.64815">
        <ele>257</ele>
        <time>2018-06-16T09:20:44Z</time>
      </trkpt>
      <trkpt lat="45.88272" lon="4.64815">
        <ele>257</ele>
        <time>2018-06-16T09:20:45Z</time>
      </trkpt>
      <trkpt lat="45.88279" lon="4.64813">
        <ele>258</ele>
        <time>2018-06-16T09:20:50Z</time>
      </trkpt>
      <trkpt lat="45.8828" lon="4.64812">
        <ele>258</ele>
        <time>2018-06-16T09:20:51Z</time>
      </trkpt>
      <trkpt lat="45.88289" lon="4.64809">
        <ele>258</ele>
        <time>2018-06-16T09:20:56Z</time>
      </trkpt>
      <trkpt lat="45.8829" lon="4.64808">
        <ele>259</ele>
        <time>2018-06-16T09:20:57Z</time>
      </trkpt>
      <trkpt lat="45.88299" lon="4.64808">
        <ele>260</ele>
        <time>2018-06-16T09:21:02Z</time>
      </trkpt>
      <trkpt lat="45.883" lon="4.64808">
        <ele>260</ele>
        <time>2018-06-16T09:21:03Z</time>
      </trkpt>
      <trkpt lat="45.88308" lon="4.64806">
        <ele>260</ele>
        <time>2018-06-16T09:21:08Z</time>
      </trkpt>
      <trkpt lat="45.8831" lon="4.64805">
        <ele>260</ele>
        <time>2018-06-16T09:21:09Z</time>
      </trkpt>
      <trkpt lat="45.88317" lon="4.64804">
        <ele>261</ele>
        <time>2018-06-16T09:21:13Z</time>
      </trkpt>
      <trkpt lat="45.8832" lon="4.64804">
        <ele>261</ele>
        <time>2018-06-16T09:21:14Z</time>
      </trkpt>
      <trkpt lat="45.88327" lon="4.64802">
        <ele>261</ele>
        <time>2018-06-16T09:21:17Z</time>
      </trkpt>
      <trkpt lat="45.88329" lon="4.64801">
        <ele>261</ele>
        <time>2018-06-16T09:21:18Z</time>
      </trkpt>
      <trkpt lat="45.88336" lon="4.64799">
        <ele>267</ele>
        <time>2018-06-16T09:21:22Z</time>
      </trkpt>
      <trkpt lat="45.88338" lon="4.64798">
        <ele>267</ele>
        <time>2018-06-16T09:21:23Z</time>
      </trkpt>
      <trkpt lat="45.88346" lon="4.64796">
        <ele>267</ele>
        <time>2018-06-16T09:21:27Z</time>
      </trkpt>
      <trkpt lat="45.88348" lon="4.64796">
        <ele>267</ele>
        <time>2018-06-16T09:21:28Z</time>
      </trkpt>
      <trkpt lat="45.88356" lon="4.64793">
        <ele>267</ele>
        <time>2018-06-16T09:21:31Z</time>
      </trkpt>
      <trkpt lat="45.88358" lon="4.64792">
        <ele>267</ele>
        <time>2018-06-16T09:21:32Z</time>
      </trkpt>
      <trkpt lat="45.88366" lon="4.6479">
        <ele>267</ele>
        <time>2018-06-16T09:21:36Z</time>
      </trkpt>
      <trkpt lat="45.88368" lon="4.6479">
        <ele>267</ele>
        <time>2018-06-16T09:21:37Z</time>
      </trkpt>
      <trkpt lat="45.88377" lon="4.64791">
        <ele>268</ele>
        <time>2018-06-16T09:21:42Z</time>
      </trkpt>
      <trkpt lat="45.88378" lon="4.64791">
        <ele>268</ele>
        <time>2018-06-16T09:21:43Z</time>
      </trkpt>
      <trkpt lat="45.88386" lon="4.64789">
        <ele>268</ele>
        <time>2018-06-16T09:21:48Z</time>
      </trkpt>
      <trkpt lat="45.88388" lon="4.64788">
        <ele>268</ele>
        <time>2018-06-16T09:21:49Z</time>
      </trkpt>
      <trkpt lat="45.88396" lon="4.64786">
        <ele>268</ele>
        <time>2018-06-16T09:21:53Z</time>
      </trkpt>
      <trkpt lat="45.88398" lon="4.64785">
        <ele>268</ele>
        <time>2018-06-16T09:21:54Z</time>
      </trkpt>
      <trkpt lat="45.88407" lon="4.64785">
        <ele>268</ele>
        <time>2018-06-16T09:21:59Z</time>
      </trkpt>
      <trkpt lat="45.88408" lon="4.64785">
        <ele>268</ele>
        <time>2018-06-16T09:22:00Z</time>
      </trkpt>
      <trkpt lat="45.88416" lon="4.64785">
        <ele>268</ele>
        <time>2018-06-16T09:22:04Z</time>
      </trkpt>
      <trkpt lat="45.88418" lon="4.64785">
        <ele>271</ele>
        <time>2018-06-16T09:22:05Z</time>
      </trkpt>
      <trkpt lat="45.88425" lon="4.64783">
        <ele>271</ele>
        <time>2018-06-16T09:22:09Z</time>
      </trkpt>
      <trkpt lat="45.88427" lon="4.64783">
        <ele>270</ele>
        <time>2018-06-16T09:22:10Z</time>
      </trkpt>
      <trkpt lat="45.88435" lon="4.64779">
        <ele>270</ele>
        <time>2018-06-16T09:22:14Z</time>
      </trkpt>
      <trkpt lat="45.88437" lon="4.64779">
        <ele>270</ele>
        <time>2018-06-16T09:22:15Z</time>
      </trkpt>
      <trkpt lat="45.88444" lon="4.64778">
        <ele>271</ele>
        <time>2018-06-16T09:22:19Z</time>
      </trkpt>
      <trkpt lat="45.88446" lon="4.64778">
        <ele>271</ele>
        <time>2018-06-16T09:22:20Z</time>
      </trkpt>
      <trkpt lat="45.88454" lon="4.64778">
        <ele>271</ele>
        <time>2018-06-16T09:22:24Z</time>
      </trkpt>
      <trkpt lat="45.88456" lon="4.64777">
        <ele>271</ele>
        <time>2018-06-16T09:22:25Z</time>
      </trkpt>
      <trkpt lat="45.88465" lon="4.64776">
        <ele>271</ele>
        <time>2018-06-16T09:22:29Z</time>
      </trkpt>
      <trkpt lat="45.88467" lon="4.64776">
        <ele>271</ele>
        <time>2018-06-16T09:22:30Z</time>
      </trkpt>
      <trkpt lat="45.88475" lon="4.64773">
        <ele>271</ele>
        <time>2018-06-16T09:22:35Z</time>
      </trkpt>
      <trkpt lat="45.88477" lon="4.64773">
        <ele>271</ele>
        <time>2018-06-16T09:22:36Z</time>
      </trkpt>
      <trkpt lat="45.88484" lon="4.64771">
        <ele>271</ele>
        <time>2018-06-16T09:22:40Z</time>
      </trkpt>
      <trkpt lat="45.88487" lon="4.6477">
        <ele>270</ele>
        <time>2018-06-16T09:22:41Z</time>
      </trkpt>
      <trkpt lat="45.88495" lon="4.6477">
        <ele>270</ele>
        <time>2018-06-16T09:22:45Z</time>
      </trkpt>
      <trkpt lat="45.88497" lon="4.64771">
        <ele>270</ele>
        <time>2018-06-16T09:22:46Z</time>
      </trkpt>
      <trkpt lat="45.88504" lon="4.64772">
        <ele>270</ele>
        <time>2018-06-16T09:22:49Z</time>
      </trkpt>
      <trkpt lat="45.88508" lon="4.64772">
        <ele>270</ele>
        <time>2018-06-16T09:22:50Z</time>
      </trkpt>
      <trkpt lat="45.88515" lon="4.64772">
        <ele>271</ele>
        <time>2018-06-16T09:22:53Z</time>
      </trkpt>
      <trkpt lat="45.88517" lon="4.64773">
        <ele>271</ele>
        <time>2018-06-16T09:22:54Z</time>
      </trkpt>
      <trkpt lat="45.88525" lon="4.64774">
        <ele>271</ele>
        <time>2018-06-16T09:22:58Z</time>
      </trkpt>
      <trkpt lat="45.88527" lon="4.64775">
        <ele>271</ele>
        <time>2018-06-16T09:22:59Z</time>
      </trkpt>
      <trkpt lat="45.88535" lon="4.6478">
        <ele>271</ele>
        <time>2018-06-16T09:23:03Z</time>
      </trkpt>
      <trkpt lat="45.88537" lon="4.64782">
        <ele>271</ele>
        <time>2018-06-16T09:23:04Z</time>
      </trkpt>
      <trkpt lat="45.88543" lon="4.6479">
        <ele>272</ele>
        <time>2018-06-16T09:23:08Z</time>
      </trkpt>
      <trkpt lat="45.88544" lon="4.64793">
        <ele>272</ele>
        <time>2018-06-16T09:23:09Z</time>
      </trkpt>
      <trkpt lat="45.88548" lon="4.64801">
        <ele>272</ele>
        <time>2018-06-16T09:23:13Z</time>
      </trkpt>
      <trkpt lat="45.88549" lon="4.64804">
        <ele>272</ele>
        <time>2018-06-16T09:23:14Z</time>
      </trkpt>
      <trkpt lat="45.88552" lon="4.64813">
        <ele>272</ele>
        <time>2018-06-16T09:23:18Z</time>
      </trkpt>
      <trkpt lat="45.88553" lon="4.64815">
        <ele>272</ele>
        <time>2018-06-16T09:23:19Z</time>
      </trkpt>
      <trkpt lat="45.88554" lon="4.64828">
        <ele>273</ele>
        <time>2018-06-16T09:23:24Z</time>
      </trkpt>
      <trkpt lat="45.88554" lon="4.6483">
        <ele>273</ele>
        <time>2018-06-16T09:23:25Z</time>
      </trkpt>
      <trkpt lat="45.88553" lon="4.64841">
        <ele>276</ele>
        <time>2018-06-16T09:23:29Z</time>
      </trkpt>
      <trkpt lat="45.88553" lon="4.64844">
        <ele>276</ele>
        <time>2018-06-16T09:23:30Z</time>
      </trkpt>
      <trkpt lat="45.8855" lon="4.64854">
        <ele>276</ele>
        <time>2018-06-16T09:23:34Z</time>
      </trkpt>
      <trkpt lat="45.88549" lon="4.64857">
        <ele>277</ele>
        <time>2018-06-16T09:23:35Z</time>
      </trkpt>
      <trkpt lat="45.88547" lon="4.64868">
        <ele>277</ele>
        <time>2018-06-16T09:23:39Z</time>
      </trkpt>
      <trkpt lat="45.88546" lon="4.64871">
        <ele>277</ele>
        <time>2018-06-16T09:23:40Z</time>
      </trkpt>
      <trkpt lat="45.88545" lon="4.64882">
        <ele>277</ele>
        <time>2018-06-16T09:23:44Z</time>
      </trkpt>
      <trkpt lat="45.88545" lon="4.64885">
        <ele>277</ele>
        <time>2018-06-16T09:23:45Z</time>
      </trkpt>
      <trkpt lat="45.88545" lon="4.64896">
        <ele>277</ele>
        <time>2018-06-16T09:23:49Z</time>
      </trkpt>
      <trkpt lat="45.88545" lon="4.64899">
        <ele>277</ele>
        <time>2018-06-16T09:23:50Z</time>
      </trkpt>
      <trkpt lat="45.88542" lon="4.6491">
        <ele>277</ele>
        <time>2018-06-16T09:23:54Z</time>
      </trkpt>
      <trkpt lat="45.88542" lon="4.64913">
        <ele>277</ele>
        <time>2018-06-16T09:23:55Z</time>
      </trkpt>
      <trkpt lat="45.88541" lon="4.64923">
        <ele>280</ele>
        <time>2018-06-16T09:23:59Z</time>
      </trkpt>
      <trkpt lat="45.88541" lon="4.64926">
        <ele>280</ele>
        <time>2018-06-16T09:24:00Z</time>
      </trkpt>
      <trkpt lat="45.88539" lon="4.64936">
        <ele>280</ele>
        <time>2018-06-16T09:24:04Z</time>
      </trkpt>
      <trkpt lat="45.88538" lon="4.64938">
        <ele>280</ele>
        <time>2018-06-16T09:24:05Z</time>
      </trkpt>
      <trkpt lat="45.88536" lon="4.6495">
        <ele>281</ele>
        <time>2018-06-16T09:24:09Z</time>
      </trkpt>
      <trkpt lat="45.88536" lon="4.64952">
        <ele>281</ele>
        <time>2018-06-16T09:24:10Z</time>
      </trkpt>
      <trkpt lat="45.88534" lon="4.64963">
        <ele>281</ele>
        <time>2018-06-16T09:24:14Z</time>
      </trkpt>
      <trkpt lat="45.88534" lon="4.64966">
        <ele>281</ele>
        <time>2018-06-16T09:24:15Z</time>
      </trkpt>
      <trkpt lat="45.88532" lon="4.64977">
        <ele>282</ele>
        <time>2018-06-16T09:24:19Z</time>
      </trkpt>
      <trkpt lat="45.88532" lon="4.64979">
        <ele>282</ele>
        <time>2018-06-16T09:24:20Z</time>
      </trkpt>
      <trkpt lat="45.88532" lon="4.6499">
        <ele>282</ele>
        <time>2018-06-16T09:24:24Z</time>
      </trkpt>
      <trkpt lat="45.88532" lon="4.64992">
        <ele>282</ele>
        <time>2018-06-16T09:24:25Z</time>
      </trkpt>
      <trkpt lat="45.88531" lon="4.65003">
        <ele>285</ele>
        <time>2018-06-16T09:24:30Z</time>
      </trkpt>
      <trkpt lat="45.8853" lon="4.65006">
        <ele>285</ele>
        <time>2018-06-16T09:24:31Z</time>
      </trkpt>
      <trkpt lat="45.88528" lon="4.65017">
        <ele>285</ele>
        <time>2018-06-16T09:24:35Z</time>
      </trkpt>
      <trkpt lat="45.88527" lon="4.6502">
        <ele>285</ele>
        <time>2018-06-16T09:24:36Z</time>
      </trkpt>
      <trkpt lat="45.88525" lon="4.65032">
        <ele>285</ele>
        <time>2018-06-16T09:24:40Z</time>
      </trkpt>
      <trkpt lat="45.88524" lon="4.65034">
        <ele>285</ele>
        <time>2018-06-16T09:24:41Z</time>
      </trkpt>
      <trkpt lat="45.88521" lon="4.65046">
        <ele>285</ele>
        <time>2018-06-16T09:24:45Z</time>
      </trkpt>
      <trkpt lat="45.8852" lon="4.65048">
        <ele>285</ele>
        <time>2018-06-16T09:24:46Z</time>
      </trkpt>
      <trkpt lat="45.88516" lon="4.65057">
        <ele>286</ele>
        <time>2018-06-16T09:24:50Z</time>
      </trkpt>
      <trkpt lat="45.88515" lon="4.6506">
        <ele>286</ele>
        <time>2018-06-16T09:24:51Z</time>
      </trkpt>
      <trkpt lat="45.88509" lon="4.65069">
        <ele>287</ele>
        <time>2018-06-16T09:24:55Z</time>
      </trkpt>
      <trkpt lat="45.88508" lon="4.65071">
        <ele>287</ele>
        <time>2018-06-16T09:24:56Z</time>
      </trkpt>
      <trkpt lat="45.88503" lon="4.6508">
        <ele>289</ele>
        <time>2018-06-16T09:25:00Z</time>
      </trkpt>
      <trkpt lat="45.88501" lon="4.65082">
        <ele>290</ele>
        <time>2018-06-16T09:25:01Z</time>
      </trkpt>
      <trkpt lat="45.88496" lon="4.6509">
        <ele>291</ele>
        <time>2018-06-16T09:25:04Z</time>
      </trkpt>
      <trkpt lat="45.88494" lon="4.65091">
        <ele>291</ele>
        <time>2018-06-16T09:25:05Z</time>
      </trkpt>
      <trkpt lat="45.88488" lon="4.651">
        <ele>292</ele>
        <time>2018-06-16T09:25:10Z</time>
      </trkpt>
      <trkpt lat="45.88487" lon="4.65102">
        <ele>292</ele>
        <time>2018-06-16T09:25:11Z</time>
      </trkpt>
      <trkpt lat="45.88482" lon="4.6511">
        <ele>293</ele>
        <time>2018-06-16T09:25:15Z</time>
      </trkpt>
      <trkpt lat="45.88481" lon="4.65113">
        <ele>293</ele>
        <time>2018-06-16T09:25:16Z</time>
      </trkpt>
      <trkpt lat="45.88476" lon="4.65123">
        <ele>293</ele>
        <time>2018-06-16T09:25:20Z</time>
      </trkpt>
      <trkpt lat="45.88475" lon="4.65125">
        <ele>294</ele>
        <time>2018-06-16T09:25:21Z</time>
      </trkpt>
      <trkpt lat="45.8847" lon="4.65132">
        <ele>294</ele>
        <time>2018-06-16T09:25:25Z</time>
      </trkpt>
      <trkpt lat="45.88468" lon="4.65134">
        <ele>294</ele>
        <time>2018-06-16T09:25:26Z</time>
      </trkpt>
      <trkpt lat="45.88462" lon="4.65142">
        <ele>294</ele>
        <time>2018-06-16T09:25:30Z</time>
      </trkpt>
      <trkpt lat="45.88461" lon="4.65144">
        <ele>294</ele>
        <time>2018-06-16T09:25:31Z</time>
      </trkpt>
      <trkpt lat="45.88455" lon="4.65152">
        <ele>295</ele>
        <time>2018-06-16T09:25:35Z</time>
      </trkpt>
      <trkpt lat="45.88453" lon="4.65155">
        <ele>295</ele>
        <time>2018-06-16T09:25:36Z</time>
      </trkpt>
      <trkpt lat="45.88447" lon="4.6516">
        <ele>295</ele>
        <time>2018-06-16T09:25:39Z</time>
      </trkpt>
      <trkpt lat="45.88445" lon="4.65162">
        <ele>296</ele>
        <time>2018-06-16T09:25:40Z</time>
      </trkpt>
      <trkpt lat="45.88439" lon="4.65168">
        <ele>297</ele>
        <time>2018-06-16T09:25:44Z</time>
      </trkpt>
      <trkpt lat="45.88437" lon="4.6517">
        <ele>297</ele>
        <time>2018-06-16T09:25:45Z</time>
      </trkpt>
      <trkpt lat="45.88431" lon="4.65176">
        <ele>298</ele>
        <time>2018-06-16T09:25:49Z</time>
      </trkpt>
      <trkpt lat="45.88429" lon="4.65178">
        <ele>298</ele>
        <time>2018-06-16T09:25:50Z</time>
      </trkpt>
      <trkpt lat="45.88422" lon="4.65184">
        <ele>298</ele>
        <time>2018-06-16T09:25:54Z</time>
      </trkpt>
      <trkpt lat="45.88421" lon="4.65185">
        <ele>298</ele>
        <time>2018-06-16T09:25:55Z</time>
      </trkpt>
      <trkpt lat="45.88414" lon="4.65193">
        <ele>299</ele>
        <time>2018-06-16T09:26:00Z</time>
      </trkpt>
      <trkpt lat="45.88413" lon="4.65195">
        <ele>299</ele>
        <time>2018-06-16T09:26:01Z</time>
      </trkpt>
      <trkpt lat="45.88406" lon="4.65202">
        <ele>299</ele>
        <time>2018-06-16T09:26:05Z</time>
      </trkpt>
      <trkpt lat="45.88404" lon="4.65203">
        <ele>300</ele>
        <time>2018-06-16T09:26:06Z</time>
      </trkpt>
      <trkpt lat="45.88397" lon="4.6521">
        <ele>300</ele>
        <time>2018-06-16T09:26:10Z</time>
      </trkpt>
      <trkpt lat="45.88395" lon="4.65211">
        <ele>300</ele>
        <time>2018-06-16T09:26:11Z</time>
      </trkpt>
      <trkpt lat="45.88389" lon="4.65217">
        <ele>300</ele>
        <time>2018-06-16T09:26:14Z</time>
      </trkpt>
      <trkpt lat="45.88387" lon="4.65219">
        <ele>300</ele>
        <time>2018-06-16T09:26:15Z</time>
      </trkpt>
      <trkpt lat="45.88381" lon="4.65224">
        <ele>300</ele>
        <time>2018-06-16T09:26:18Z</time>
      </trkpt>
      <trkpt lat="45.88379" lon="4.65226">
        <ele>300</ele>
        <time>2018-06-16T09:26:19Z</time>
      </trkpt>
      <trkpt lat="45.88372" lon="4.65233">
        <ele>300</ele>
        <time>2018-06-16T09:26:23Z</time>
      </trkpt>
      <trkpt lat="45.8837" lon="4.65235">
        <ele>300</ele>
        <time>2018-06-16T09:26:24Z</time>
      </trkpt>
      <trkpt lat="45.88364" lon="4.65241">
        <ele>300</ele>
        <time>2018-06-16T09:26:27Z</time>
      </trkpt>
      <trkpt lat="45.88363" lon="4.65244">
        <ele>300</ele>
        <time>2018-06-16T09:26:28Z</time>
      </trkpt>
      <trkpt lat="45.88358" lon="4.6525">
        <ele>301</ele>
        <time>2018-06-16T09:26:31Z</time>
      </trkpt>
      <trkpt lat="45.88356" lon="4.65253">
        <ele>301</ele>
        <time>2018-06-16T09:26:32Z</time>
      </trkpt>
      <trkpt lat="45.88349" lon="4.65261">
        <ele>301</ele>
        <time>2018-06-16T09:26:36Z</time>
      </trkpt>
      <trkpt lat="45.88348" lon="4.65263">
        <ele>301</ele>
        <time>2018-06-16T09:26:37Z</time>
      </trkpt>
      <trkpt lat="45.8834" lon="4.6527">
        <ele>301</ele>
        <time>2018-06-16T09:26:41Z</time>
      </trkpt>
      <trkpt lat="45.88339" lon="4.65272">
        <ele>301</ele>
        <time>2018-06-16T09:26:42Z</time>
      </trkpt>
      <trkpt lat="45.88332" lon="4.65279">
        <ele>304</ele>
        <time>2018-06-16T09:26:46Z</time>
      </trkpt>
      <trkpt lat="45.88331" lon="4.6528">
        <ele>304</ele>
        <time>2018-06-16T09:26:47Z</time>
      </trkpt>
      <trkpt lat="45.88325" lon="4.65289">
        <ele>304</ele>
        <time>2018-06-16T09:26:51Z</time>
      </trkpt>
      <trkpt lat="45.88323" lon="4.65291">
        <ele>304</ele>
        <time>2018-06-16T09:26:52Z</time>
      </trkpt>
      <trkpt lat="45.88318" lon="4.65298">
        <ele>304</ele>
        <time>2018-06-16T09:26:56Z</time>
      </trkpt>
      <trkpt lat="45.88316" lon="4.653">
        <ele>304</ele>
        <time>2018-06-16T09:26:57Z</time>
      </trkpt>
      <trkpt lat="45.8831" lon="4.65308">
        <ele>305</ele>
        <time>2018-06-16T09:27:01Z</time>
      </trkpt>
      <trkpt lat="45.88309" lon="4.6531">
        <ele>305</ele>
        <time>2018-06-16T09:27:02Z</time>
      </trkpt>
      <trkpt lat="45.88305" lon="4.6532">
        <ele>305</ele>
        <time>2018-06-16T09:27:06Z</time>
      </trkpt>
      <trkpt lat="45.88304" lon="4.65322">
        <ele>305</ele>
        <time>2018-06-16T09:27:07Z</time>
      </trkpt>
      <trkpt lat="45.88301" lon="4.65334">
        <ele>307</ele>
        <time>2018-06-16T09:27:11Z</time>
      </trkpt>
      <trkpt lat="45.883" lon="4.65336">
        <ele>307</ele>
        <time>2018-06-16T09:27:12Z</time>
      </trkpt>
      <trkpt lat="45.88297" lon="4.65347">
        <ele>307</ele>
        <time>2018-06-16T09:27:16Z</time>
      </trkpt>
      <trkpt lat="45.88296" lon="4.65349">
        <ele>307</ele>
        <time>2018-06-16T09:27:17Z</time>
      </trkpt>
      <trkpt lat="45.88291" lon="4.65359">
        <ele>308</ele>
        <time>2018-06-16T09:27:21Z</time>
      </trkpt>
      <trkpt lat="45.88291" lon="4.65361">
        <ele>308</ele>
        <time>2018-06-16T09:27:22Z</time>
      </trkpt>
      <trkpt lat="45.88287" lon="4.65371">
        <ele>308</ele>
        <time>2018-06-16T09:27:26Z</time>
      </trkpt>
      <trkpt lat="45.88286" lon="4.65374">
        <ele>308</ele>
        <time>2018-06-16T09:27:27Z</time>
      </trkpt>
      <trkpt lat="45.88282" lon="4.65382">
        <ele>308</ele>
        <time>2018-06-16T09:27:31Z</time>
      </trkpt>
      <trkpt lat="45.88281" lon="4.65385">
        <ele>308</ele>
        <time>2018-06-16T09:27:32Z</time>
      </trkpt>
      <trkpt lat="45.88278" lon="4.65396">
        <ele>308</ele>
        <time>2018-06-16T09:27:36Z</time>
      </trkpt>
      <trkpt lat="45.88277" lon="4.65398">
        <ele>309</ele>
        <time>2018-06-16T09:27:37Z</time>
      </trkpt>
      <trkpt lat="45.88274" lon="4.6541">
        <ele>309</ele>
        <time>2018-06-16T09:27:41Z</time>
      </trkpt>
      <trkpt lat="45.88273" lon="4.65413">
        <ele>309</ele>
        <time>2018-06-16T09:27:42Z</time>
      </trkpt>
      <trkpt lat="45.8827" lon="4.65424">
        <ele>311</ele>
        <time>2018-06-16T09:27:46Z</time>
      </trkpt>
      <trkpt lat="45.88269" lon="4.65426">
        <ele>311</ele>
        <time>2018-06-16T09:27:47Z</time>
      </trkpt>
      <trkpt lat="45.88265" lon="4.65436">
        <ele>311</ele>
        <time>2018-06-16T09:27:51Z</time>
      </trkpt>
      <trkpt lat="45.88264" lon="4.65439">
        <ele>311</ele>
        <time>2018-06-16T09:27:52Z</time>
      </trkpt>
      <trkpt lat="45.88261" lon="4.65449">
        <ele>311</ele>
        <time>2018-06-16T09:27:56Z</time>
      </trkpt>
      <trkpt lat="45.8826" lon="4.65451">
        <ele>311</ele>
        <time>2018-06-16T09:27:57Z</time>
      </trkpt>
      <trkpt lat="45.88257" lon="4.65461">
        <ele>311</ele>
        <time>2018-06-16T09:28:01Z</time>
      </trkpt>
      <trkpt lat="45.88256" lon="4.65463">
        <ele>311</ele>
        <time>2018-06-16T09:28:02Z</time>
      </trkpt>
      <trkpt lat="45.88253" lon="4.65473">
        <ele>312</ele>
        <time>2018-06-16T09:28:06Z</time>
      </trkpt>
      <trkpt lat="45.88252" lon="4.65475">
        <ele>312</ele>
        <time>2018-06-16T09:28:07Z</time>
      </trkpt>
      <trkpt lat="45.88249" lon="4.65486">
        <ele>316</ele>
        <time>2018-06-16T09:28:11Z</time>
      </trkpt>
      <trkpt lat="45.88249" lon="4.65488">
        <ele>316</ele>
        <time>2018-06-16T09:28:12Z</time>
      </trkpt>
      <trkpt lat="45.88245" lon="4.65498">
        <ele>315</ele>
        <time>2018-06-16T09:28:16Z</time>
      </trkpt>
      <trkpt lat="45.88244" lon="4.65501">
        <ele>316</ele>
        <time>2018-06-16T09:28:17Z</time>
      </trkpt>
      <trkpt lat="45.88241" lon="4.65511">
        <ele>318</ele>
        <time>2018-06-16T09:28:21Z</time>
      </trkpt>
      <trkpt lat="45.8824" lon="4.65513">
        <ele>318</ele>
        <time>2018-06-16T09:28:22Z</time>
      </trkpt>
      <trkpt lat="45.88236" lon="4.65524">
        <ele>319</ele>
        <time>2018-06-16T09:28:26Z</time>
      </trkpt>
      <trkpt lat="45.88235" lon="4.65527">
        <ele>319</ele>
        <time>2018-06-16T09:28:27Z</time>
      </trkpt>
      <trkpt lat="45.88232" lon="4.65536">
        <ele>320</ele>
        <time>2018-06-16T09:28:31Z</time>
      </trkpt>
      <trkpt lat="45.88231" lon="4.65539">
        <ele>320</ele>
        <time>2018-06-16T09:28:32Z</time>
      </trkpt>
      <trkpt lat="45.88228" lon="4.6555">
        <ele>320</ele>
        <time>2018-06-16T09:28:36Z</time>
      </trkpt>
      <trkpt lat="45.88228" lon="4.65552">
        <ele>320</ele>
        <time>2018-06-16T09:28:37Z</time>
      </trkpt>
      <trkpt lat="45.88225" lon="4.65562">
        <ele>320</ele>
        <time>2018-06-16T09:28:41Z</time>
      </trkpt>
      <trkpt lat="45.88224" lon="4.65564">
        <ele>320</ele>
        <time>2018-06-16T09:28:42Z</time>
      </trkpt>
      <trkpt lat="45.88221" lon="4.65574">
        <ele>320</ele>
        <time>2018-06-16T09:28:46Z</time>
      </trkpt>
      <trkpt lat="45.8822" lon="4.65576">
        <ele>320</ele>
        <time>2018-06-16T09:28:47Z</time>
      </trkpt>
      <trkpt lat="45.88215" lon="4.65586">
        <ele>321</ele>
        <time>2018-06-16T09:28:52Z</time>
      </trkpt>
      <trkpt lat="45.88214" lon="4.65588">
        <ele>321</ele>
        <time>2018-06-16T09:28:53Z</time>
      </trkpt>
      <trkpt lat="45.88209" lon="4.65599">
        <ele>321</ele>
        <time>2018-06-16T09:28:58Z</time>
      </trkpt>
      <trkpt lat="45.88208" lon="4.65601">
        <ele>321</ele>
        <time>2018-06-16T09:28:59Z</time>
      </trkpt>
      <trkpt lat="45.88205" lon="4.65612">
        <ele>321</ele>
        <time>2018-06-16T09:29:04Z</time>
      </trkpt>
      <trkpt lat="45.88204" lon="4.65614">
        <ele>321</ele>
        <time>2018-06-16T09:29:05Z</time>
      </trkpt>
      <trkpt lat="45.88201" lon="4.65625">
        <ele>321</ele>
        <time>2018-06-16T09:29:09Z</time>
      </trkpt>
      <trkpt lat="45.882" lon="4.65628">
        <ele>321</ele>
        <time>2018-06-16T09:29:10Z</time>
      </trkpt>
      <trkpt lat="45.88197" lon="4.65638">
        <ele>322</ele>
        <time>2018-06-16T09:29:14Z</time>
      </trkpt>
      <trkpt lat="45.88196" lon="4.6564">
        <ele>322</ele>
        <time>2018-06-16T09:29:15Z</time>
      </trkpt>
      <trkpt lat="45.88192" lon="4.65649">
        <ele>322</ele>
        <time>2018-06-16T09:29:19Z</time>
      </trkpt>
      <trkpt lat="45.8819" lon="4.65651">
        <ele>322</ele>
        <time>2018-06-16T09:29:20Z</time>
      </trkpt>
      <trkpt lat="45.88184" lon="4.6566">
        <ele>323</ele>
        <time>2018-06-16T09:29:25Z</time>
      </trkpt>
      <trkpt lat="45.88183" lon="4.65662">
        <ele>323</ele>
        <time>2018-06-16T09:29:26Z</time>
      </trkpt>
      <trkpt lat="45.88179" lon="4.65672">
        <ele>323</ele>
        <time>2018-06-16T09:29:30Z</time>
      </trkpt>
      <trkpt lat="45.88178" lon="4.65675">
        <ele>323</ele>
        <time>2018-06-16T09:29:31Z</time>
      </trkpt>
      <trkpt lat="45.88173" lon="4.65685">
        <ele>322</ele>
        <time>2018-06-16T09:29:35Z</time>
      </trkpt>
      <trkpt lat="45.88172" lon="4.65687">
        <ele>322</ele>
        <time>2018-06-16T09:29:36Z</time>
      </trkpt>
      <trkpt lat="45.88168" lon="4.65696">
        <ele>322</ele>
        <time>2018-06-16T09:29:40Z</time>
      </trkpt>
      <trkpt lat="45.88166" lon="4.65698">
        <ele>330</ele>
        <time>2018-06-16T09:29:41Z</time>
      </trkpt>
      <trkpt lat="45.8816" lon="4.65705">
        <ele>331</ele>
        <time>2018-06-16T09:29:45Z</time>
      </trkpt>
      <trkpt lat="45.88159" lon="4.65707">
        <ele>331</ele>
        <time>2018-06-16T09:29:46Z</time>
      </trkpt>
      <trkpt lat="45.88153" lon="4.65715">
        <ele>331</ele>
        <time>2018-06-16T09:29:51Z</time>
      </trkpt>
      <trkpt lat="45.88151" lon="4.65717">
        <ele>331</ele>
        <time>2018-06-16T09:29:52Z</time>
      </trkpt>
      <trkpt lat="45.88146" lon="4.65725">
        <ele>332</ele>
        <time>2018-06-16T09:29:56Z</time>
      </trkpt>
      <trkpt lat="45.88144" lon="4.65727">
        <ele>332</ele>
        <time>2018-06-16T09:29:57Z</time>
      </trkpt>
      <trkpt lat="45.88139" lon="4.65734">
        <ele>332</ele>
        <time>2018-06-16T09:30:00Z</time>
      </trkpt>
      <trkpt lat="45.88138" lon="4.65737">
        <ele>332</ele>
        <time>2018-06-16T09:30:01Z</time>
      </trkpt>
      <trkpt lat="45.88133" lon="4.65745">
        <ele>333</ele>
        <time>2018-06-16T09:30:04Z</time>
      </trkpt>
      <trkpt lat="45.88132" lon="4.65747">
        <ele>333</ele>
        <time>2018-06-16T09:30:05Z</time>
      </trkpt>
      <trkpt lat="45.88125" lon="4.65755">
        <ele>333</ele>
        <time>2018-06-16T09:30:09Z</time>
      </trkpt>
      <trkpt lat="45.88124" lon="4.65757">
        <ele>333</ele>
        <time>2018-06-16T09:30:10Z</time>
      </trkpt>
      <trkpt lat="45.8812" lon="4.65766">
        <ele>333</ele>
        <time>2018-06-16T09:30:14Z</time>
      </trkpt>
      <trkpt lat="45.88119" lon="4.65768">
        <ele>334</ele>
        <time>2018-06-16T09:30:15Z</time>
      </trkpt>
      <trkpt lat="45.88113" lon="4.65774">
        <ele>334</ele>
        <time>2018-06-16T09:30:19Z</time>
      </trkpt>
      <trkpt lat="45.88111" lon="4.65776">
        <ele>334</ele>
        <time>2018-06-16T09:30:20Z</time>
      </trkpt>
      <trkpt lat="45.88104" lon="4.65783">
        <ele>334</ele>
        <time>2018-06-16T09:30:23Z</time>
      </trkpt>
      <trkpt lat="45.88102" lon="4.65785">
        <ele>334</ele>
        <time>2018-06-16T09:30:24Z</time>
      </trkpt>
      <trkpt lat="45.88096" lon="4.65791">
        <ele>334</ele>
        <time>2018-06-16T09:30:27Z</time>
      </trkpt>
      <trkpt lat="45.88093" lon="4.65793">
        <ele>334</ele>
        <time>2018-06-16T09:30:28Z</time>
      </trkpt>
      <trkpt lat="45.88087" lon="4.65798">
        <ele>334</ele>
        <time>2018-06-16T09:30:31Z</time>
      </trkpt>
      <trkpt lat="45.88085" lon="4.658">
        <ele>334</ele>
        <time>2018-06-16T09:30:32Z</time>
      </trkpt>
      <trkpt lat="45.88078" lon="4.65804">
        <ele>341</ele>
        <time>2018-06-16T09:30:36Z</time>
      </trkpt>
      <trkpt lat="45.88077" lon="4.65806">
        <ele>341</ele>
        <time>2018-06-16T09:30:37Z</time>
      </trkpt>
      <trkpt lat="45.88071" lon="4.65812">
        <ele>341</ele>
        <time>2018-06-16T09:30:43Z</time>
      </trkpt>
      <trkpt lat="45.88069" lon="4.65813">
        <ele>340</ele>
        <time>2018-06-16T09:30:44Z</time>
      </trkpt>
      <trkpt lat="45.88062" lon="4.65818">
        <ele>341</ele>
        <time>2018-06-16T09:30:48Z</time>
      </trkpt>
      <trkpt lat="45.88059" lon="4.65819">
        <ele>341</ele>
        <time>2018-06-16T09:30:49Z</time>
      </trkpt>
      <trkpt lat="45.88051" lon="4.65823">
        <ele>342</ele>
        <time>2018-06-16T09:30:52Z</time>
      </trkpt>
      <trkpt lat="45.88049" lon="4.65824">
        <ele>342</ele>
        <time>2018-06-16T09:30:53Z</time>
      </trkpt>
      <trkpt lat="45.88043" lon="4.65827">
        <ele>342</ele>
        <time>2018-06-16T09:30:55Z</time>
      </trkpt>
      <trkpt lat="45.8804" lon="4.65828">
        <ele>343</ele>
        <time>2018-06-16T09:30:56Z</time>
      </trkpt>
      <trkpt lat="45.88035" lon="4.65832">
        <ele>343</ele>
        <time>2018-06-16T09:30:58Z</time>
      </trkpt>
      <trkpt lat="45.88032" lon="4.65834">
        <ele>338</ele>
        <time>2018-06-16T09:30:59Z</time>
      </trkpt>
      <trkpt lat="45.88026" lon="4.65838">
        <ele>339</ele>
        <time>2018-06-16T09:31:01Z</time>
      </trkpt>
      <trkpt lat="45.88023" lon="4.65839">
        <ele>339</ele>
        <time>2018-06-16T09:31:02Z</time>
      </trkpt>
      <trkpt lat="45.88016" lon="4.65844">
        <ele>340</ele>
        <time>2018-06-16T09:31:05Z</time>
      </trkpt>
      <trkpt lat="45.88014" lon="4.65845">
        <ele>340</ele>
        <time>2018-06-16T09:31:06Z</time>
      </trkpt>
      <trkpt lat="45.88006" lon="4.65851">
        <ele>340</ele>
        <time>2018-06-16T09:31:09Z</time>
      </trkpt>
      <trkpt lat="45.88003" lon="4.65854">
        <ele>340</ele>
        <time>2018-06-16T09:31:10Z</time>
      </trkpt>
      <trkpt lat="45.87998" lon="4.65858">
        <ele>344</ele>
        <time>2018-06-16T09:31:12Z</time>
      </trkpt>
      <trkpt lat="45.87995" lon="4.6586">
        <ele>344</ele>
        <time>2018-06-16T09:31:13Z</time>
      </trkpt>
      <trkpt lat="45.87989" lon="4.65866">
        <ele>344</ele>
        <time>2018-06-16T09:31:15Z</time>
      </trkpt>
      <trkpt lat="45.87987" lon="4.65869">
        <ele>343</ele>
        <time>2018-06-16T09:31:16Z</time>
      </trkpt>
      <trkpt lat="45.87981" lon="4.65876">
        <ele>343</ele>
        <time>2018-06-16T09:31:18Z</time>
      </trkpt>
      <trkpt lat="45.87979" lon="4.65879">
        <ele>343</ele>
        <time>2018-06-16T09:31:19Z</time>
      </trkpt>
      <trkpt lat="45.87973" lon="4.65886">
        <ele>343</ele>
        <time>2018-06-16T09:31:21Z</time>
      </trkpt>
      <trkpt lat="45.87971" lon="4.65889">
        <ele>343</ele>
        <time>2018-06-16T09:31:22Z</time>
      </trkpt>
      <trkpt lat="45.87964" lon="4.65896">
        <ele>343</ele>
        <time>2018-06-16T09:31:25Z</time>
      </trkpt>
      <trkpt lat="45.87962" lon="4.65898">
        <ele>343</ele>
        <time>2018-06-16T09:31:26Z</time>
      </trkpt>
      <trkpt lat="45.87956" lon="4.65907">
        <ele>343</ele>
        <time>2018-06-16T09:31:29Z</time>
      </trkpt>
      <trkpt lat="45.87954" lon="4.6591">
        <ele>343</ele>
        <time>2018-06-16T09:31:30Z</time>
      </trkpt>
      <trkpt lat="45.87948" lon="4.65919">
        <ele>341</ele>
        <time>2018-06-16T09:31:33Z</time>
      </trkpt>
      <trkpt lat="45.87946" lon="4.65922">
        <ele>341</ele>
        <time>2018-06-16T09:31:34Z</time>
      </trkpt>
      <trkpt lat="45.87942" lon="4.65929">
        <ele>341</ele>
        <time>2018-06-16T09:31:36Z</time>
      </trkpt>
      <trkpt lat="45.8794" lon="4.65932">
        <ele>341</ele>
        <time>2018-06-16T09:31:37Z</time>
      </trkpt>
      <trkpt lat="45.87934" lon="4.65945">
        <ele>341</ele>
        <time>2018-06-16T09:31:38Z</time>
      </trkpt>
      <trkpt lat="45.8793" lon="4.65955">
        <ele>341</ele>
        <time>2018-06-16T09:31:43Z</time>
      </trkpt>
      <trkpt lat="45.8793" lon="4.65957">
        <ele>341</ele>
        <time>2018-06-16T09:31:44Z</time>
      </trkpt>
      <trkpt lat="45.87926" lon="4.65969">
        <ele>341</ele>
        <time>2018-06-16T09:31:48Z</time>
      </trkpt>
      <trkpt lat="45.87926" lon="4.65973">
        <ele>341</ele>
        <time>2018-06-16T09:31:49Z</time>
      </trkpt>
      <trkpt lat="45.87924" lon="4.65984">
        <ele>342</ele>
        <time>2018-06-16T09:31:52Z</time>
      </trkpt>
      <trkpt lat="45.87924" lon="4.65988">
        <ele>342</ele>
        <time>2018-06-16T09:31:53Z</time>
      </trkpt>
      <trkpt lat="45.87924" lon="4.65999">
        <ele>342</ele>
        <time>2018-06-16T09:31:56Z</time>
      </trkpt>
      <trkpt lat="45.87924" lon="4.66002">
        <ele>342</ele>
        <time>2018-06-16T09:31:57Z</time>
      </trkpt>
      <trkpt lat="45.87925" lon="4.66015">
        <ele>342</ele>
        <time>2018-06-16T09:32:01Z</time>
      </trkpt>
      <trkpt lat="45.87925" lon="4.66018">
        <ele>342</ele>
        <time>2018-06-16T09:32:02Z</time>
      </trkpt>
      <trkpt lat="45.87924" lon="4.6603">
        <ele>342</ele>
        <time>2018-06-16T09:32:06Z</time>
      </trkpt>
      <trkpt lat="45.87924" lon="4.66033">
        <ele>342</ele>
        <time>2018-06-16T09:32:07Z</time>
      </trkpt>
      <trkpt lat="45.87923" lon="4.66044">
        <ele>342</ele>
        <time>2018-06-16T09:32:11Z</time>
      </trkpt>
      <trkpt lat="45.87923" lon="4.66047">
        <ele>342</ele>
        <time>2018-06-16T09:32:12Z</time>
      </trkpt>
      <trkpt lat="45.87924" lon="4.66059">
        <ele>342</ele>
        <time>2018-06-16T09:32:16Z</time>
      </trkpt>
      <trkpt lat="45.87924" lon="4.66061">
        <ele>342</ele>
        <time>2018-06-16T09:32:17Z</time>
      </trkpt>
      <trkpt lat="45.87926" lon="4.66073">
        <ele>343</ele>
        <time>2018-06-16T09:32:21Z</time>
      </trkpt>
      <trkpt lat="45.87926" lon="4.66076">
        <ele>343</ele>
        <time>2018-06-16T09:32:22Z</time>
      </trkpt>
      <trkpt lat="45.87926" lon="4.66088">
        <ele>345</ele>
        <time>2018-06-16T09:32:26Z</time>
      </trkpt>
      <trkpt lat="45.87926" lon="4.66091">
        <ele>345</ele>
        <time>2018-06-16T09:32:27Z</time>
      </trkpt>
      <trkpt lat="45.87927" lon="4.66104">
        <ele>346</ele>
        <time>2018-06-16T09:32:31Z</time>
      </trkpt>
      <trkpt lat="45.87927" lon="4.66107">
        <ele>346</ele>
        <time>2018-06-16T09:32:32Z</time>
      </trkpt>
      <trkpt lat="45.87926" lon="4.66118">
        <ele>347</ele>
        <time>2018-06-16T09:32:36Z</time>
      </trkpt>
      <trkpt lat="45.87926" lon="4.66121">
        <ele>348</ele>
        <time>2018-06-16T09:32:37Z</time>
      </trkpt>
      <trkpt lat="45.8793" lon="4.66131">
        <ele>348</ele>
        <time>2018-06-16T09:32:41Z</time>
      </trkpt>
      <trkpt lat="45.87932" lon="4.66132">
        <ele>348</ele>
        <time>2018-06-16T09:32:42Z</time>
      </trkpt>
      <trkpt lat="45.87939" lon="4.66136">
        <ele>348</ele>
        <time>2018-06-16T09:32:45Z</time>
      </trkpt>
      <trkpt lat="45.87942" lon="4.66136">
        <ele>348</ele>
        <time>2018-06-16T09:32:46Z</time>
      </trkpt>
      <trkpt lat="45.8795" lon="4.66138">
        <ele>348</ele>
        <time>2018-06-16T09:32:49Z</time>
      </trkpt>
      <trkpt lat="45.87953" lon="4.66139">
        <ele>348</ele>
        <time>2018-06-16T09:32:50Z</time>
      </trkpt>
      <trkpt lat="45.87962" lon="4.6614">
        <ele>348</ele>
        <time>2018-06-16T09:32:53Z</time>
      </trkpt>
      <trkpt lat="45.87965" lon="4.6614">
        <ele>348</ele>
        <time>2018-06-16T09:32:54Z</time>
      </trkpt>
      <trkpt lat="45.87973" lon="4.66141">
        <ele>348</ele>
        <time>2018-06-16T09:32:56Z</time>
      </trkpt>
      <trkpt lat="45.87976" lon="4.66142">
        <ele>348</ele>
        <time>2018-06-16T09:32:57Z</time>
      </trkpt>
      <trkpt lat="45.87982" lon="4.66142">
        <ele>348</ele>
        <time>2018-06-16T09:32:59Z</time>
      </trkpt>
      <trkpt lat="45.87985" lon="4.66142">
        <ele>348</ele>
        <time>2018-06-16T09:33:00Z</time>
      </trkpt>
      <trkpt lat="45.87991" lon="4.66142">
        <ele>348</ele>
        <time>2018-06-16T09:33:02Z</time>
      </trkpt>
      <trkpt lat="45.87994" lon="4.66142">
        <ele>348</ele>
        <time>2018-06-16T09:33:03Z</time>
      </trkpt>
      <trkpt lat="45.88002" lon="4.66142">
        <ele>348</ele>
        <time>2018-06-16T09:33:06Z</time>
      </trkpt>
      <trkpt lat="45.88005" lon="4.66142">
        <ele>348</ele>
        <time>2018-06-16T09:33:07Z</time>
      </trkpt>
      <trkpt lat="45.88013" lon="4.66141">
        <ele>348</ele>
        <time>2018-06-16T09:33:10Z</time>
      </trkpt>
      <trkpt lat="45.88016" lon="4.66141">
        <ele>348</ele>
        <time>2018-06-16T09:33:11Z</time>
      </trkpt>
      <trkpt lat="45.88022" lon="4.6614">
        <ele>348</ele>
        <time>2018-06-16T09:33:13Z</time>
      </trkpt>
      <trkpt lat="45.88026" lon="4.6614">
        <ele>348</ele>
        <time>2018-06-16T09:33:14Z</time>
      </trkpt>
      <trkpt lat="45.88032" lon="4.6614">
        <ele>348</ele>
        <time>2018-06-16T09:33:16Z</time>
      </trkpt>
      <trkpt lat="45.88036" lon="4.6614">
        <ele>348</ele>
        <time>2018-06-16T09:33:17Z</time>
      </trkpt>
      <trkpt lat="45.88039" lon="4.66139">
        <ele>348</ele>
        <time>2018-06-16T09:33:18Z</time>
      </trkpt>
      <trkpt lat="45.8805" lon="4.66139">
        <ele>348</ele>
        <time>2018-06-16T09:33:19Z</time>
      </trkpt>
      <trkpt lat="45.88057" lon="4.66136">
        <ele>348</ele>
        <time>2018-06-16T09:33:21Z</time>
      </trkpt>
      <trkpt lat="45.88059" lon="4.66136">
        <ele>348</ele>
        <time>2018-06-16T09:33:22Z</time>
      </trkpt>
      <trkpt lat="45.88066" lon="4.66135">
        <ele>348</ele>
        <time>2018-06-16T09:33:25Z</time>
      </trkpt>
      <trkpt lat="45.88068" lon="4.66135">
        <ele>348</ele>
        <time>2018-06-16T09:33:26Z</time>
      </trkpt>
      <trkpt lat="45.88077" lon="4.66135">
        <ele>348</ele>
        <time>2018-06-16T09:33:30Z</time>
      </trkpt>
      <trkpt lat="45.88086" lon="4.66135">
        <ele>349</ele>
        <time>2018-06-16T09:33:31Z</time>
      </trkpt>
      <trkpt lat="45.88095" lon="4.66134">
        <ele>349</ele>
        <time>2018-06-16T09:33:34Z</time>
      </trkpt>
      <trkpt lat="45.88097" lon="4.66134">
        <ele>349</ele>
        <time>2018-06-16T09:33:35Z</time>
      </trkpt>
      <trkpt lat="45.88106" lon="4.66133">
        <ele>349</ele>
        <time>2018-06-16T09:33:36Z</time>
      </trkpt>
      <trkpt lat="45.8811" lon="4.66132">
        <ele>349</ele>
        <time>2018-06-16T09:33:37Z</time>
      </trkpt>
      <trkpt lat="45.88116" lon="4.66131">
        <ele>349</ele>
        <time>2018-06-16T09:33:40Z</time>
      </trkpt>
      <trkpt lat="45.88119" lon="4.66131">
        <ele>349</ele>
        <time>2018-06-16T09:33:41Z</time>
      </trkpt>
      <trkpt lat="45.88126" lon="4.6613">
        <ele>349</ele>
        <time>2018-06-16T09:33:43Z</time>
      </trkpt>
      <trkpt lat="45.88129" lon="4.66129">
        <ele>349</ele>
        <time>2018-06-16T09:33:44Z</time>
      </trkpt>
      <trkpt lat="45.88137" lon="4.66127">
        <ele>349</ele>
        <time>2018-06-16T09:33:46Z</time>
      </trkpt>
      <trkpt lat="45.88148" lon="4.66126">
        <ele>349</ele>
        <time>2018-06-16T09:33:47Z</time>
      </trkpt>
      <trkpt lat="45.88152" lon="4.66125">
        <ele>349</ele>
        <time>2018-06-16T09:33:49Z</time>
      </trkpt>
      <trkpt lat="45.8816" lon="4.66124">
        <ele>349</ele>
        <time>2018-06-16T09:33:50Z</time>
      </trkpt>
      <trkpt lat="45.88168" lon="4.66122">
        <ele>349</ele>
        <time>2018-06-16T09:33:52Z</time>
      </trkpt>
      <trkpt lat="45.88172" lon="4.66122">
        <ele>349</ele>
        <time>2018-06-16T09:33:53Z</time>
      </trkpt>
      <trkpt lat="45.8818" lon="4.66122">
        <ele>349</ele>
        <time>2018-06-16T09:33:57Z</time>
      </trkpt>
      <trkpt lat="45.88183" lon="4.66122">
        <ele>349</ele>
        <time>2018-06-16T09:33:58Z</time>
      </trkpt>
      <trkpt lat="45.88192" lon="4.66123">
        <ele>349</ele>
        <time>2018-06-16T09:34:01Z</time>
      </trkpt>
      <trkpt lat="45.88195" lon="4.66123">
        <ele>349</ele>
        <time>2018-06-16T09:34:02Z</time>
      </trkpt>
      <trkpt lat="45.88203" lon="4.66124">
        <ele>349</ele>
        <time>2018-06-16T09:34:05Z</time>
      </trkpt>
      <trkpt lat="45.88206" lon="4.66124">
        <ele>349</ele>
        <time>2018-06-16T09:34:06Z</time>
      </trkpt>
      <trkpt lat="45.88214" lon="4.66125">
        <ele>349</ele>
        <time>2018-06-16T09:34:09Z</time>
      </trkpt>
      <trkpt lat="45.88217" lon="4.66125">
        <ele>349</ele>
        <time>2018-06-16T09:34:10Z</time>
      </trkpt>
      <trkpt lat="45.88225" lon="4.66126">
        <ele>349</ele>
        <time>2018-06-16T09:34:13Z</time>
      </trkpt>
      <trkpt lat="45.88228" lon="4.66126">
        <ele>349</ele>
        <time>2018-06-16T09:34:14Z</time>
      </trkpt>
      <trkpt lat="45.88234" lon="4.66127">
        <ele>349</ele>
        <time>2018-06-16T09:34:16Z</time>
      </trkpt>
      <trkpt lat="45.88237" lon="4.66127">
        <ele>349</ele>
        <time>2018-06-16T09:34:17Z</time>
      </trkpt>
      <trkpt lat="45.88245" lon="4.66129">
        <ele>350</ele>
        <time>2018-06-16T09:34:20Z</time>
      </trkpt>
      <trkpt lat="45.88248" lon="4.66129">
        <ele>350</ele>
        <time>2018-06-16T09:34:21Z</time>
      </trkpt>
      <trkpt lat="45.88256" lon="4.66131">
        <ele>351</ele>
        <time>2018-06-16T09:34:24Z</time>
      </trkpt>
      <trkpt lat="45.88259" lon="4.66132">
        <ele>351</ele>
        <time>2018-06-16T09:34:25Z</time>
      </trkpt>
      <trkpt lat="45.88267" lon="4.66134">
        <ele>352</ele>
        <time>2018-06-16T09:34:28Z</time>
      </trkpt>
      <trkpt lat="45.8827" lon="4.66134">
        <ele>352</ele>
        <time>2018-06-16T09:34:29Z</time>
      </trkpt>
      <trkpt lat="45.88277" lon="4.66134">
        <ele>352</ele>
        <time>2018-06-16T09:34:32Z</time>
      </trkpt>
      <trkpt lat="45.8828" lon="4.66135">
        <ele>352</ele>
        <time>2018-06-16T09:34:33Z</time>
      </trkpt>
      <trkpt lat="45.88289" lon="4.66136">
        <ele>352</ele>
        <time>2018-06-16T09:34:36Z</time>
      </trkpt>
      <trkpt lat="45.88292" lon="4.66136">
        <ele>352</ele>
        <time>2018-06-16T09:34:37Z</time>
      </trkpt>
      <trkpt lat="45.883" lon="4.66136">
        <ele>353</ele>
        <time>2018-06-16T09:34:40Z</time>
      </trkpt>
      <trkpt lat="45.88303" lon="4.66136">
        <ele>353</ele>
        <time>2018-06-16T09:34:41Z</time>
      </trkpt>
      <trkpt lat="45.88311" lon="4.66136">
        <ele>353</ele>
        <time>2018-06-16T09:34:44Z</time>
      </trkpt>
      <trkpt lat="45.88315" lon="4.66136">
        <ele>353</ele>
        <time>2018-06-16T09:34:45Z</time>
      </trkpt>
      <trkpt lat="45.88323" lon="4.66136">
        <ele>354</ele>
        <time>2018-06-16T09:34:48Z</time>
      </trkpt>
      <trkpt lat="45.88326" lon="4.66136">
        <ele>354</ele>
        <time>2018-06-16T09:34:49Z</time>
      </trkpt>
      <trkpt lat="45.88334" lon="4.66137">
        <ele>356</ele>
        <time>2018-06-16T09:34:52Z</time>
      </trkpt>
      <trkpt lat="45.88337" lon="4.66138">
        <ele>356</ele>
        <time>2018-06-16T09:34:53Z</time>
      </trkpt>
      <trkpt lat="45.88345" lon="4.66139">
        <ele>357</ele>
        <time>2018-06-16T09:34:56Z</time>
      </trkpt>
      <trkpt lat="45.88347" lon="4.66139">
        <ele>357</ele>
        <time>2018-06-16T09:34:57Z</time>
      </trkpt>
      <trkpt lat="45.88355" lon="4.6614">
        <ele>357</ele>
        <time>2018-06-16T09:35:00Z</time>
      </trkpt>
      <trkpt lat="45.88357" lon="4.6614">
        <ele>357</ele>
        <time>2018-06-16T09:35:01Z</time>
      </trkpt>
      <trkpt lat="45.88364" lon="4.6614">
        <ele>357</ele>
        <time>2018-06-16T09:35:04Z</time>
      </trkpt>
      <trkpt lat="45.88367" lon="4.6614">
        <ele>357</ele>
        <time>2018-06-16T09:35:05Z</time>
      </trkpt>
      <trkpt lat="45.88374" lon="4.66141">
        <ele>357</ele>
        <time>2018-06-16T09:35:08Z</time>
      </trkpt>
      <trkpt lat="45.88376" lon="4.66141">
        <ele>357</ele>
        <time>2018-06-16T09:35:09Z</time>
      </trkpt>
      <trkpt lat="45.88385" lon="4.66143">
        <ele>357</ele>
        <time>2018-06-16T09:35:13Z</time>
      </trkpt>
      <trkpt lat="45.88387" lon="4.66143">
        <ele>357</ele>
        <time>2018-06-16T09:35:14Z</time>
      </trkpt>
      <trkpt lat="45.88396" lon="4.66144">
        <ele>358</ele>
        <time>2018-06-16T09:35:18Z</time>
      </trkpt>
      <trkpt lat="45.88398" lon="4.66144">
        <ele>358</ele>
        <time>2018-06-16T09:35:19Z</time>
      </trkpt>
      <trkpt lat="45.88407" lon="4.66144">
        <ele>359</ele>
        <time>2018-06-16T09:35:24Z</time>
      </trkpt>
      <trkpt lat="45.88408" lon="4.66144">
        <ele>359</ele>
        <time>2018-06-16T09:35:25Z</time>
      </trkpt>
      <trkpt lat="45.88416" lon="4.66145">
        <ele>359</ele>
        <time>2018-06-16T09:35:29Z</time>
      </trkpt>
      <trkpt lat="45.88418" lon="4.66145">
        <ele>361</ele>
        <time>2018-06-16T09:35:30Z</time>
      </trkpt>
      <trkpt lat="45.88426" lon="4.66146">
        <ele>361</ele>
        <time>2018-06-16T09:35:35Z</time>
      </trkpt>
      <trkpt lat="45.88428" lon="4.66146">
        <ele>361</ele>
        <time>2018-06-16T09:35:36Z</time>
      </trkpt>
      <trkpt lat="45.88435" lon="4.66146">
        <ele>361</ele>
        <time>2018-06-16T09:35:40Z</time>
      </trkpt>
      <trkpt lat="45.88437" lon="4.66146">
        <ele>361</ele>
        <time>2018-06-16T09:35:41Z</time>
      </trkpt>
      <trkpt lat="45.88445" lon="4.66146">
        <ele>361</ele>
        <time>2018-06-16T09:35:45Z</time>
      </trkpt>
      <trkpt lat="45.88447" lon="4.66146">
        <ele>361</ele>
        <time>2018-06-16T09:35:46Z</time>
      </trkpt>
      <trkpt lat="45.88455" lon="4.66146">
        <ele>361</ele>
        <time>2018-06-16T09:35:51Z</time>
      </trkpt>
      <trkpt lat="45.88457" lon="4.66147">
        <ele>361</ele>
        <time>2018-06-16T09:35:52Z</time>
      </trkpt>
      <trkpt lat="45.88466" lon="4.66148">
        <ele>361</ele>
        <time>2018-06-16T09:35:57Z</time>
      </trkpt>
      <trkpt lat="45.88468" lon="4.66148">
        <ele>362</ele>
        <time>2018-06-16T09:35:58Z</time>
      </trkpt>
      <trkpt lat="45.88475" lon="4.6615">
        <ele>362</ele>
        <time>2018-06-16T09:36:02Z</time>
      </trkpt>
      <trkpt lat="45.88477" lon="4.66151">
        <ele>362</ele>
        <time>2018-06-16T09:36:03Z</time>
      </trkpt>
      <trkpt lat="45.88485" lon="4.66155">
        <ele>363</ele>
        <time>2018-06-16T09:36:08Z</time>
      </trkpt>
      <trkpt lat="45.88487" lon="4.66156">
        <ele>363</ele>
        <time>2018-06-16T09:36:09Z</time>
      </trkpt>
      <trkpt lat="45.88494" lon="4.66162">
        <ele>365</ele>
        <time>2018-06-16T09:36:14Z</time>
      </trkpt>
      <trkpt lat="45.88496" lon="4.66163">
        <ele>366</ele>
        <time>2018-06-16T09:36:15Z</time>
      </trkpt>
      <trkpt lat="45.88501" lon="4.66171">
        <ele>367</ele>
        <time>2018-06-16T09:36:20Z</time>
      </trkpt>
      <trkpt lat="45.88502" lon="4.66172">
        <ele>368</ele>
        <time>2018-06-16T09:36:21Z</time>
      </trkpt>
      <trkpt lat="45.8851" lon="4.66178">
        <ele>368</ele>
        <time>2018-06-16T09:36:26Z</time>
      </trkpt>
      <trkpt lat="45.88511" lon="4.6618">
        <ele>369</ele>
        <time>2018-06-16T09:36:27Z</time>
      </trkpt>
      <trkpt lat="45.88518" lon="4.66186">
        <ele>369</ele>
        <time>2018-06-16T09:36:33Z</time>
      </trkpt>
      <trkpt lat="45.88519" lon="4.66187">
        <ele>369</ele>
        <time>2018-06-16T09:36:34Z</time>
      </trkpt>
      <trkpt lat="45.88527" lon="4.66193">
        <ele>369</ele>
        <time>2018-06-16T09:36:38Z</time>
      </trkpt>
      <trkpt lat="45.88528" lon="4.66194">
        <ele>370</ele>
        <time>2018-06-16T09:36:39Z</time>
      </trkpt>
      <trkpt lat="45.88535" lon="4.662">
        <ele>370</ele>
        <time>2018-06-16T09:36:43Z</time>
      </trkpt>
      <trkpt lat="45.88536" lon="4.66202">
        <ele>370</ele>
        <time>2018-06-16T09:36:44Z</time>
      </trkpt>
      <trkpt lat="45.88542" lon="4.66208">
        <ele>370</ele>
        <time>2018-06-16T09:36:48Z</time>
      </trkpt>
      <trkpt lat="45.88544" lon="4.6621">
        <ele>370</ele>
        <time>2018-06-16T09:36:49Z</time>
      </trkpt>
      <trkpt lat="45.8855" lon="4.66216">
        <ele>370</ele>
        <time>2018-06-16T09:36:53Z</time>
      </trkpt>
      <trkpt lat="45.88551" lon="4.66218">
        <ele>370</ele>
        <time>2018-06-16T09:36:54Z</time>
      </trkpt>
      <trkpt lat="45.88558" lon="4.66225">
        <ele>370</ele>
        <time>2018-06-16T09:36:58Z</time>
      </trkpt>
      <trkpt lat="45.8856" lon="4.66227">
        <ele>370</ele>
        <time>2018-06-16T09:36:59Z</time>
      </trkpt>
      <trkpt lat="45.88567" lon="4.66234">
        <ele>371</ele>
        <time>2018-06-16T09:37:03Z</time>
      </trkpt>
      <trkpt lat="45.88569" lon="4.66236">
        <ele>371</ele>
        <time>2018-06-16T09:37:04Z</time>
      </trkpt>
      <trkpt lat="45.88574" lon="4.66242">
        <ele>371</ele>
        <time>2018-06-16T09:37:07Z</time>
      </trkpt>
      <trkpt lat="45.88576" lon="4.66244">
        <ele>371</ele>
        <time>2018-06-16T09:37:08Z</time>
      </trkpt>
      <trkpt lat="45.88581" lon="4.6625">
        <ele>371</ele>
        <time>2018-06-16T09:37:11Z</time>
      </trkpt>
      <trkpt lat="45.88583" lon="4.66252">
        <ele>372</ele>
        <time>2018-06-16T09:37:12Z</time>
      </trkpt>
      <trkpt lat="45.88589" lon="4.66258">
        <ele>371</ele>
        <time>2018-06-16T09:37:15Z</time>
      </trkpt>
      <trkpt lat="45.88591" lon="4.6626">
        <ele>371</ele>
        <time>2018-06-16T09:37:16Z</time>
      </trkpt>
      <trkpt lat="45.88596" lon="4.66267">
        <ele>372</ele>
        <time>2018-06-16T09:37:19Z</time>
      </trkpt>
      <trkpt lat="45.88598" lon="4.6627">
        <ele>372</ele>
        <time>2018-06-16T09:37:20Z</time>
      </trkpt>
      <trkpt lat="45.88603" lon="4.66277">
        <ele>372</ele>
        <time>2018-06-16T09:37:23Z</time>
      </trkpt>
      <trkpt lat="45.88604" lon="4.6628">
        <ele>372</ele>
        <time>2018-06-16T09:37:24Z</time>
      </trkpt>
      <trkpt lat="45.88608" lon="4.66288">
        <ele>373</ele>
        <time>2018-06-16T09:37:27Z</time>
      </trkpt>
      <trkpt lat="45.88609" lon="4.66291">
        <ele>373</ele>
        <time>2018-06-16T09:37:28Z</time>
      </trkpt>
      <trkpt lat="45.88614" lon="4.66299">
        <ele>373</ele>
        <time>2018-06-16T09:37:31Z</time>
      </trkpt>
      <trkpt lat="45.88615" lon="4.66302">
        <ele>373</ele>
        <time>2018-06-16T09:37:32Z</time>
      </trkpt>
      <trkpt lat="45.88619" lon="4.66309">
        <ele>373</ele>
        <time>2018-06-16T09:37:35Z</time>
      </trkpt>
      <trkpt lat="45.88621" lon="4.66312">
        <ele>373</ele>
        <time>2018-06-16T09:37:36Z</time>
      </trkpt>
      <trkpt lat="45.88626" lon="4.66321">
        <ele>373</ele>
        <time>2018-06-16T09:37:39Z</time>
      </trkpt>
      <trkpt lat="45.88627" lon="4.66323">
        <ele>373</ele>
        <time>2018-06-16T09:37:40Z</time>
      </trkpt>
      <trkpt lat="45.88633" lon="4.66332">
        <ele>373</ele>
        <time>2018-06-16T09:37:43Z</time>
      </trkpt>
      <trkpt lat="45.88635" lon="4.66335">
        <ele>379</ele>
        <time>2018-06-16T09:37:44Z</time>
      </trkpt>
      <trkpt lat="45.8864" lon="4.66344">
        <ele>379</ele>
        <time>2018-06-16T09:37:47Z</time>
      </trkpt>
      <trkpt lat="45.88642" lon="4.66347">
        <ele>379</ele>
        <time>2018-06-16T09:37:48Z</time>
      </trkpt>
      <trkpt lat="45.88647" lon="4.66356">
        <ele>379</ele>
        <time>2018-06-16T09:37:51Z</time>
      </trkpt>
      <trkpt lat="45.88649" lon="4.66359">
        <ele>379</ele>
        <time>2018-06-16T09:37:52Z</time>
      </trkpt>
      <trkpt lat="45.88654" lon="4.66367">
        <ele>380</ele>
        <time>2018-06-16T09:37:55Z</time>
      </trkpt>
      <trkpt lat="45.88656" lon="4.66369">
        <ele>380</ele>
        <time>2018-06-16T09:37:56Z</time>
      </trkpt>
      <trkpt lat="45.88662" lon="4.66377">
        <ele>381</ele>
        <time>2018-06-16T09:37:59Z</time>
      </trkpt>
      <trkpt lat="45.88664" lon="4.66379">
        <ele>381</ele>
        <time>2018-06-16T09:38:00Z</time>
      </trkpt>
      <trkpt lat="45.88671" lon="4.66386">
        <ele>377</ele>
        <time>2018-06-16T09:38:03Z</time>
      </trkpt>
      <trkpt lat="45.88673" lon="4.66389">
        <ele>378</ele>
        <time>2018-06-16T09:38:04Z</time>
      </trkpt>
      <trkpt lat="45.88681" lon="4.66395">
        <ele>378</ele>
        <time>2018-06-16T09:38:07Z</time>
      </trkpt>
      <trkpt lat="45.88683" lon="4.66396">
        <ele>378</ele>
        <time>2018-06-16T09:38:08Z</time>
      </trkpt>
      <trkpt lat="45.8869" lon="4.66402">
        <ele>378</ele>
        <time>2018-06-16T09:38:11Z</time>
      </trkpt>
      <trkpt lat="45.88692" lon="4.66403">
        <ele>378</ele>
        <time>2018-06-16T09:38:12Z</time>
      </trkpt>
      <trkpt lat="45.88698" lon="4.66408">
        <ele>378</ele>
        <time>2018-06-16T09:38:15Z</time>
      </trkpt>
      <trkpt lat="45.887" lon="4.6641">
        <ele>378</ele>
        <time>2018-06-16T09:38:16Z</time>
      </trkpt>
      <trkpt lat="45.88706" lon="4.66415">
        <ele>377</ele>
        <time>2018-06-16T09:38:19Z</time>
      </trkpt>
      <trkpt lat="45.88708" lon="4.66417">
        <ele>383</ele>
        <time>2018-06-16T09:38:20Z</time>
      </trkpt>
      <trkpt lat="45.88715" lon="4.66423">
        <ele>383</ele>
        <time>2018-06-16T09:38:23Z</time>
      </trkpt>
      <trkpt lat="45.88717" lon="4.66426">
        <ele>383</ele>
        <time>2018-06-16T09:38:24Z</time>
      </trkpt>
      <trkpt lat="45.88722" lon="4.66432">
        <ele>383</ele>
        <time>2018-06-16T09:38:27Z</time>
      </trkpt>
      <trkpt lat="45.88724" lon="4.66434">
        <ele>383</ele>
        <time>2018-06-16T09:38:28Z</time>
      </trkpt>
      <trkpt lat="45.8873" lon="4.66441">
        <ele>383</ele>
        <time>2018-06-16T09:38:31Z</time>
      </trkpt>
      <trkpt lat="45.88731" lon="4.66443">
        <ele>383</ele>
        <time>2018-06-16T09:38:32Z</time>
      </trkpt>
      <trkpt lat="45.88737" lon="4.66449">
        <ele>383</ele>
        <time>2018-06-16T09:38:35Z</time>
      </trkpt>
      <trkpt lat="45.88738" lon="4.66451">
        <ele>384</ele>
        <time>2018-06-16T09:38:36Z</time>
      </trkpt>
      <trkpt lat="45.88744" lon="4.6646">
        <ele>384</ele>
        <time>2018-06-16T09:38:40Z</time>
      </trkpt>
      <trkpt lat="45.88746" lon="4.66462">
        <ele>384</ele>
        <time>2018-06-16T09:38:41Z</time>
      </trkpt>
      <trkpt lat="45.88752" lon="4.6647">
        <ele>383</ele>
        <time>2018-06-16T09:38:45Z</time>
      </trkpt>
      <trkpt lat="45.88754" lon="4.66471">
        <ele>383</ele>
        <time>2018-06-16T09:38:46Z</time>
      </trkpt>
      <trkpt lat="45.8876" lon="4.66477">
        <ele>383</ele>
        <time>2018-06-16T09:38:50Z</time>
      </trkpt>
      <trkpt lat="45.88761" lon="4.66479">
        <ele>383</ele>
        <time>2018-06-16T09:38:51Z</time>
      </trkpt>
      <trkpt lat="45.88767" lon="4.66487">
        <ele>384</ele>
        <time>2018-06-16T09:38:56Z</time>
      </trkpt>
      <trkpt lat="45.88768" lon="4.66489">
        <ele>384</ele>
        <time>2018-06-16T09:38:57Z</time>
      </trkpt>
      <trkpt lat="45.88773" lon="4.66497">
        <ele>384</ele>
        <time>2018-06-16T09:39:01Z</time>
      </trkpt>
      <trkpt lat="45.88774" lon="4.66499">
        <ele>383</ele>
        <time>2018-06-16T09:39:02Z</time>
      </trkpt>
      <trkpt lat="45.8878" lon="4.66507">
        <ele>390</ele>
        <time>2018-06-16T09:39:06Z</time>
      </trkpt>
      <trkpt lat="45.88781" lon="4.66509">
        <ele>390</ele>
        <time>2018-06-16T09:39:07Z</time>
      </trkpt>
      <trkpt lat="45.88788" lon="4.66518">
        <ele>390</ele>
        <time>2018-06-16T09:39:12Z</time>
      </trkpt>
      <trkpt lat="45.88789" lon="4.66519">
        <ele>390</ele>
        <time>2018-06-16T09:39:13Z</time>
      </trkpt>
      <trkpt lat="45.88796" lon="4.66528">
        <ele>391</ele>
        <time>2018-06-16T09:39:18Z</time>
      </trkpt>
      <trkpt lat="45.88797" lon="4.66529">
        <ele>391</ele>
        <time>2018-06-16T09:39:19Z</time>
      </trkpt>
      <trkpt lat="45.88803" lon="4.66536">
        <ele>391</ele>
        <time>2018-06-16T09:39:24Z</time>
      </trkpt>
      <trkpt lat="45.88805" lon="4.66537">
        <ele>391</ele>
        <time>2018-06-16T09:39:25Z</time>
      </trkpt>
      <trkpt lat="45.88812" lon="4.6654">
        <ele>391</ele>
        <time>2018-06-16T09:39:29Z</time>
      </trkpt>
      <trkpt lat="45.88814" lon="4.6654">
        <ele>391</ele>
        <time>2018-06-16T09:39:30Z</time>
      </trkpt>
      <trkpt lat="45.88821" lon="4.66544">
        <ele>391</ele>
        <time>2018-06-16T09:39:34Z</time>
      </trkpt>
      <trkpt lat="45.88822" lon="4.66544">
        <ele>392</ele>
        <time>2018-06-16T09:39:35Z</time>
      </trkpt>
      <trkpt lat="45.8883" lon="4.6655">
        <ele>392</ele>
        <time>2018-06-16T09:39:40Z</time>
      </trkpt>
      <trkpt lat="45.88832" lon="4.66551">
        <ele>392</ele>
        <time>2018-06-16T09:39:41Z</time>
      </trkpt>
      <trkpt lat="45.88839" lon="4.66557">
        <ele>391</ele>
        <time>2018-06-16T09:39:46Z</time>
      </trkpt>
      <trkpt lat="45.88841" lon="4.66558">
        <ele>391</ele>
        <time>2018-06-16T09:39:47Z</time>
      </trkpt>
      <trkpt lat="45.88847" lon="4.66563">
        <ele>392</ele>
        <time>2018-06-16T09:39:52Z</time>
      </trkpt>
      <trkpt lat="45.88848" lon="4.66565">
        <ele>392</ele>
        <time>2018-06-16T09:39:53Z</time>
      </trkpt>
      <trkpt lat="45.88855" lon="4.66572">
        <ele>392</ele>
        <time>2018-06-16T09:39:58Z</time>
      </trkpt>
      <trkpt lat="45.88856" lon="4.66573">
        <ele>392</ele>
        <time>2018-06-16T09:39:59Z</time>
      </trkpt>
      <trkpt lat="45.88863" lon="4.66579">
        <ele>392</ele>
        <time>2018-06-16T09:40:03Z</time>
      </trkpt>
      <trkpt lat="45.88864" lon="4.66581">
        <ele>392</ele>
        <time>2018-06-16T09:40:04Z</time>
      </trkpt>
      <trkpt lat="45.88871" lon="4.66587">
        <ele>399</ele>
        <time>2018-06-16T09:40:08Z</time>
      </trkpt>
      <trkpt lat="45.88872" lon="4.66589">
        <ele>399</ele>
        <time>2018-06-16T09:40:09Z</time>
      </trkpt>
      <trkpt lat="45.88878" lon="4.66598">
        <ele>400</ele>
        <time>2018-06-16T09:40:14Z</time>
      </trkpt>
      <trkpt lat="45.88878" lon="4.666">
        <ele>400</ele>
        <time>2018-06-16T09:40:15Z</time>
      </trkpt>
      <trkpt lat="45.88884" lon="4.66608">
        <ele>400</ele>
        <time>2018-06-16T09:40:20Z</time>
      </trkpt>
      <trkpt lat="45.88885" lon="4.6661">
        <ele>400</ele>
        <time>2018-06-16T09:40:21Z</time>
      </trkpt>
      <trkpt lat="45.8889" lon="4.6662">
        <ele>401</ele>
        <time>2018-06-16T09:40:26Z</time>
      </trkpt>
      <trkpt lat="45.88891" lon="4.66622">
        <ele>401</ele>
        <time>2018-06-16T09:40:27Z</time>
      </trkpt>
      <trkpt lat="45.88895" lon="4.66632">
        <ele>401</ele>
        <time>2018-06-16T09:40:32Z</time>
      </trkpt>
      <trkpt lat="45.88897" lon="4.66634">
        <ele>402</ele>
        <time>2018-06-16T09:40:33Z</time>
      </trkpt>
      <trkpt lat="45.88903" lon="4.66642">
        <ele>402</ele>
        <time>2018-06-16T09:40:38Z</time>
      </trkpt>
      <trkpt lat="45.88905" lon="4.66644">
        <ele>403</ele>
        <time>2018-06-16T09:40:39Z</time>
      </trkpt>
      <trkpt lat="45.8891" lon="4.66653">
        <ele>404</ele>
        <time>2018-06-16T09:40:43Z</time>
      </trkpt>
      <trkpt lat="45.88912" lon="4.66655">
        <ele>404</ele>
        <time>2018-06-16T09:40:44Z</time>
      </trkpt>
      <trkpt lat="45.88919" lon="4.66662">
        <ele>405</ele>
        <time>2018-06-16T09:40:48Z</time>
      </trkpt>
      <trkpt lat="45.88921" lon="4.66664">
        <ele>405</ele>
        <time>2018-06-16T09:40:49Z</time>
      </trkpt>
      <trkpt lat="45.88928" lon="4.66669">
        <ele>407</ele>
        <time>2018-06-16T09:40:53Z</time>
      </trkpt>
      <trkpt lat="45.8893" lon="4.6667">
        <ele>407</ele>
        <time>2018-06-16T09:40:54Z</time>
      </trkpt>
      <trkpt lat="45.88937" lon="4.66676">
        <ele>408</ele>
        <time>2018-06-16T09:40:58Z</time>
      </trkpt>
      <trkpt lat="45.88939" lon="4.66677">
        <ele>408</ele>
        <time>2018-06-16T09:40:59Z</time>
      </trkpt>
      <trkpt lat="45.88947" lon="4.66683">
        <ele>408</ele>
        <time>2018-06-16T09:41:03Z</time>
      </trkpt>
      <trkpt lat="45.88948" lon="4.66685">
        <ele>408</ele>
        <time>2018-06-16T09:41:04Z</time>
      </trkpt>
      <trkpt lat="45.88956" lon="4.66689">
        <ele>409</ele>
        <time>2018-06-16T09:41:08Z</time>
      </trkpt>
      <trkpt lat="45.88958" lon="4.66691">
        <ele>409</ele>
        <time>2018-06-16T09:41:09Z</time>
      </trkpt>
      <trkpt lat="45.88964" lon="4.66695">
        <ele>409</ele>
        <time>2018-06-16T09:41:12Z</time>
      </trkpt>
      <trkpt lat="45.88966" lon="4.66697">
        <ele>409</ele>
        <time>2018-06-16T09:41:13Z</time>
      </trkpt>
      <trkpt lat="45.88973" lon="4.66701">
        <ele>409</ele>
        <time>2018-06-16T09:41:16Z</time>
      </trkpt>
      <trkpt lat="45.88975" lon="4.66702">
        <ele>409</ele>
        <time>2018-06-16T09:41:17Z</time>
      </trkpt>
      <trkpt lat="45.88982" lon="4.66705">
        <ele>409</ele>
        <time>2018-06-16T09:41:20Z</time>
      </trkpt>
      <trkpt lat="45.88984" lon="4.66707">
        <ele>409</ele>
        <time>2018-06-16T09:41:21Z</time>
      </trkpt>
      <trkpt lat="45.88991" lon="4.66711">
        <ele>410</ele>
        <time>2018-06-16T09:41:24Z</time>
      </trkpt>
      <trkpt lat="45.88994" lon="4.66712">
        <ele>410</ele>
        <time>2018-06-16T09:41:25Z</time>
      </trkpt>
      <trkpt lat="45.89002" lon="4.66715">
        <ele>407</ele>
        <time>2018-06-16T09:41:28Z</time>
      </trkpt>
      <trkpt lat="45.89005" lon="4.66716">
        <ele>407</ele>
        <time>2018-06-16T09:41:29Z</time>
      </trkpt>
      <trkpt lat="45.89013" lon="4.66717">
        <ele>407</ele>
        <time>2018-06-16T09:41:32Z</time>
      </trkpt>
      <trkpt lat="45.89015" lon="4.66718">
        <ele>407</ele>
        <time>2018-06-16T09:41:33Z</time>
      </trkpt>
      <trkpt lat="45.89026" lon="4.66732">
        <ele>408</ele>
        <time>2018-06-16T09:41:34Z</time>
      </trkpt>
      <trkpt lat="45.89034" lon="4.66731">
        <ele>407</ele>
        <time>2018-06-16T09:41:36Z</time>
      </trkpt>
      <trkpt lat="45.89039" lon="4.66735">
        <ele>407</ele>
        <time>2018-06-16T09:41:37Z</time>
      </trkpt>
      <trkpt lat="45.89046" lon="4.66741">
        <ele>407</ele>
        <time>2018-06-16T09:41:41Z</time>
      </trkpt>
      <trkpt lat="45.89047" lon="4.66742">
        <ele>407</ele>
        <time>2018-06-16T09:41:42Z</time>
      </trkpt>
      <trkpt lat="45.89045" lon="4.66751">
        <ele>413</ele>
        <time>2018-06-16T09:41:45Z</time>
      </trkpt>
      <trkpt lat="45.89051" lon="4.66759">
        <ele>413</ele>
        <time>2018-06-16T09:41:46Z</time>
      </trkpt>
      <trkpt lat="45.89057" lon="4.66767">
        <ele>413</ele>
        <time>2018-06-16T09:41:48Z</time>
      </trkpt>
      <trkpt lat="45.89059" lon="4.66769">
        <ele>413</ele>
        <time>2018-06-16T09:41:49Z</time>
      </trkpt>
      <trkpt lat="45.89067" lon="4.66773">
        <ele>412</ele>
        <time>2018-06-16T09:41:55Z</time>
      </trkpt>
      <trkpt lat="45.89069" lon="4.66774">
        <ele>412</ele>
        <time>2018-06-16T09:41:56Z</time>
      </trkpt>
      <trkpt lat="45.89077" lon="4.66778">
        <ele>412</ele>
        <time>2018-06-16T09:41:59Z</time>
      </trkpt>
      <trkpt lat="45.89079" lon="4.66779">
        <ele>413</ele>
        <time>2018-06-16T09:42:00Z</time>
      </trkpt>
      <trkpt lat="45.89085" lon="4.66783">
        <ele>410</ele>
        <time>2018-06-16T09:42:02Z</time>
      </trkpt>
      <trkpt lat="45.89087" lon="4.66786">
        <ele>410</ele>
        <time>2018-06-16T09:42:03Z</time>
      </trkpt>
      <trkpt lat="45.89095" lon="4.66794">
        <ele>411</ele>
        <time>2018-06-16T09:42:04Z</time>
      </trkpt>
      <trkpt lat="45.89102" lon="4.66801">
        <ele>411</ele>
        <time>2018-06-16T09:42:07Z</time>
      </trkpt>
      <trkpt lat="45.89104" lon="4.66802">
        <ele>411</ele>
        <time>2018-06-16T09:42:08Z</time>
      </trkpt>
      <trkpt lat="45.89111" lon="4.66806">
        <ele>411</ele>
        <time>2018-06-16T09:42:11Z</time>
      </trkpt>
      <trkpt lat="45.89114" lon="4.66808">
        <ele>411</ele>
        <time>2018-06-16T09:42:12Z</time>
      </trkpt>
      <trkpt lat="45.89121" lon="4.66812">
        <ele>411</ele>
        <time>2018-06-16T09:42:15Z</time>
      </trkpt>
      <trkpt lat="45.89123" lon="4.66814">
        <ele>411</ele>
        <time>2018-06-16T09:42:16Z</time>
      </trkpt>
      <trkpt lat="45.89126" lon="4.66825">
        <ele>411</ele>
        <time>2018-06-16T09:42:21Z</time>
      </trkpt>
      <trkpt lat="45.89126" lon="4.66827">
        <ele>411</ele>
        <time>2018-06-16T09:42:22Z</time>
      </trkpt>
      <trkpt lat="45.89125" lon="4.66828">
        <ele>411</ele>
        <time>2018-06-16T09:42:28Z</time>
      </trkpt>
      <trkpt lat="45.89125" lon="4.66828">
        <ele>411</ele>
        <time>2018-06-16T09:42:29Z</time>
      </trkpt>
      <trkpt lat="45.89125" lon="4.66828">
        <ele>411</ele>
        <time>2018-06-16T09:42:30Z</time>
      </trkpt>
      <trkpt lat="45.89125" lon="4.66834">
        <ele>414</ele>
        <time>2018-06-16T09:42:55Z</time>
      </trkpt>
      <trkpt lat="45.89125" lon="4.66834">
        <ele>414</ele>
        <time>2018-06-16T09:42:56Z</time>
      </trkpt>
      <trkpt lat="45.89127" lon="4.66837">
        <ele>414</ele>
        <time>2018-06-16T09:43:29Z</time>
      </trkpt>
      <trkpt lat="45.89127" lon="4.66837">
        <ele>414</ele>
        <time>2018-06-16T09:43:30Z</time>
      </trkpt>
      <trkpt lat="45.89124" lon="4.66825">
        <ele>411</ele>
        <time>2018-06-16T09:43:45Z</time>
      </trkpt>
      <trkpt lat="45.89124" lon="4.66825">
        <ele>411</ele>
        <time>2018-06-16T09:43:46Z</time>
      </trkpt>
      <trkpt lat="45.89121" lon="4.66829">
        <ele>412</ele>
        <time>2018-06-16T09:53:45Z</time>
      </trkpt>
      <trkpt lat="45.89121" lon="4.66829">
        <ele>412</ele>
        <time>2018-06-16T09:53:46Z</time>
      </trkpt>
      <trkpt lat="45.89125" lon="4.6684">
        <ele>414</ele>
        <time>2018-06-16T09:54:01Z</time>
      </trkpt>
      <trkpt lat="45.89125" lon="4.66841">
        <ele>414</ele>
        <time>2018-06-16T09:54:02Z</time>
      </trkpt>
      <trkpt lat="45.89133" lon="4.66844">
        <ele>414</ele>
        <time>2018-06-16T09:54:17Z</time>
      </trkpt>
      <trkpt lat="45.89134" lon="4.66842">
        <ele>414</ele>
        <time>2018-06-16T09:54:18Z</time>
      </trkpt>
      <trkpt lat="45.89138" lon="4.66831">
        <ele>412</ele>
        <time>2018-06-16T09:54:22Z</time>
      </trkpt>
      <trkpt lat="45.89141" lon="4.66821">
        <ele>411</ele>
        <time>2018-06-16T09:54:23Z</time>
      </trkpt>
      <trkpt lat="45.89149" lon="4.66826">
        <ele>412</ele>
        <time>2018-06-16T09:54:26Z</time>
      </trkpt>
      <trkpt lat="45.8915" lon="4.66828">
        <ele>412</ele>
        <time>2018-06-16T09:54:27Z</time>
      </trkpt>
      <trkpt lat="45.89153" lon="4.6684">
        <ele>414</ele>
        <time>2018-06-16T09:54:32Z</time>
      </trkpt>
      <trkpt lat="45.89155" lon="4.66843">
        <ele>414</ele>
        <time>2018-06-16T09:54:33Z</time>
      </trkpt>
      <trkpt lat="45.89159" lon="4.66854">
        <ele>414</ele>
        <time>2018-06-16T09:54:36Z</time>
      </trkpt>
      <trkpt lat="45.89158" lon="4.66858">
        <ele>414</ele>
        <time>2018-06-16T09:54:37Z</time>
      </trkpt>
      <trkpt lat="45.89157" lon="4.66866">
        <ele>414</ele>
        <time>2018-06-16T09:54:39Z</time>
      </trkpt>
      <trkpt lat="45.89156" lon="4.66879">
        <ele>414</ele>
        <time>2018-06-16T09:54:40Z</time>
      </trkpt>
      <trkpt lat="45.89157" lon="4.66891">
        <ele>414</ele>
        <time>2018-06-16T09:54:43Z</time>
      </trkpt>
      <trkpt lat="45.89157" lon="4.66894">
        <ele>414</ele>
        <time>2018-06-16T09:54:44Z</time>
      </trkpt>
      <trkpt lat="45.8916" lon="4.66906">
        <ele>415</ele>
        <time>2018-06-16T09:54:47Z</time>
      </trkpt>
      <trkpt lat="45.89161" lon="4.6691">
        <ele>415</ele>
        <time>2018-06-16T09:54:48Z</time>
      </trkpt>
      <trkpt lat="45.89163" lon="4.6692">
        <ele>414</ele>
        <time>2018-06-16T09:54:50Z</time>
      </trkpt>
      <trkpt lat="45.89165" lon="4.66925">
        <ele>414</ele>
        <time>2018-06-16T09:54:51Z</time>
      </trkpt>
      <trkpt lat="45.89167" lon="4.66934">
        <ele>415</ele>
        <time>2018-06-16T09:54:53Z</time>
      </trkpt>
      <trkpt lat="45.89168" lon="4.66939">
        <ele>415</ele>
        <time>2018-06-16T09:54:54Z</time>
      </trkpt>
      <trkpt lat="45.8917" lon="4.66943">
        <ele>415</ele>
        <time>2018-06-16T09:54:55Z</time>
      </trkpt>
      <trkpt lat="45.89174" lon="4.66958">
        <ele>415</ele>
        <time>2018-06-16T09:54:56Z</time>
      </trkpt>
      <trkpt lat="45.89176" lon="4.66967">
        <ele>415</ele>
        <time>2018-06-16T09:54:59Z</time>
      </trkpt>
      <trkpt lat="45.89178" lon="4.6697">
        <ele>415</ele>
        <time>2018-06-16T09:55:00Z</time>
      </trkpt>
      <trkpt lat="45.89181" lon="4.66981">
        <ele>414</ele>
        <time>2018-06-16T09:55:01Z</time>
      </trkpt>
      <trkpt lat="45.89181" lon="4.66983">
        <ele>414</ele>
        <time>2018-06-16T09:55:02Z</time>
      </trkpt>
      <trkpt lat="45.89184" lon="4.66992">
        <ele>414</ele>
        <time>2018-06-16T09:55:05Z</time>
      </trkpt>
      <trkpt lat="45.89185" lon="4.66996">
        <ele>414</ele>
        <time>2018-06-16T09:55:06Z</time>
      </trkpt>
      <trkpt lat="45.89187" lon="4.67004">
        <ele>413</ele>
        <time>2018-06-16T09:55:08Z</time>
      </trkpt>
      <trkpt lat="45.89188" lon="4.67008">
        <ele>413</ele>
        <time>2018-06-16T09:55:09Z</time>
      </trkpt>
      <trkpt lat="45.8919" lon="4.67016">
        <ele>413</ele>
        <time>2018-06-16T09:55:11Z</time>
      </trkpt>
      <trkpt lat="45.89191" lon="4.67021">
        <ele>413</ele>
        <time>2018-06-16T09:55:12Z</time>
      </trkpt>
      <trkpt lat="45.89192" lon="4.67025">
        <ele>413</ele>
        <time>2018-06-16T09:55:13Z</time>
      </trkpt>
      <trkpt lat="45.89195" lon="4.67038">
        <ele>413</ele>
        <time>2018-06-16T09:55:14Z</time>
      </trkpt>
      <trkpt lat="45.89198" lon="4.67049">
        <ele>412</ele>
        <time>2018-06-16T09:55:18Z</time>
      </trkpt>
      <trkpt lat="45.892" lon="4.67053">
        <ele>412</ele>
        <time>2018-06-16T09:55:19Z</time>
      </trkpt>
      <trkpt lat="45.89204" lon="4.67064">
        <ele>412</ele>
        <time>2018-06-16T09:55:22Z</time>
      </trkpt>
      <trkpt lat="45.89205" lon="4.67068">
        <ele>412</ele>
        <time>2018-06-16T09:55:23Z</time>
      </trkpt>
      <trkpt lat="45.89208" lon="4.67077">
        <ele>412</ele>
        <time>2018-06-16T09:55:25Z</time>
      </trkpt>
      <trkpt lat="45.89212" lon="4.67088">
        <ele>410</ele>
        <time>2018-06-16T09:55:26Z</time>
      </trkpt>
      <trkpt lat="45.89215" lon="4.67098">
        <ele>411</ele>
        <time>2018-06-16T09:55:28Z</time>
      </trkpt>
      <trkpt lat="45.89217" lon="4.67103">
        <ele>411</ele>
        <time>2018-06-16T09:55:29Z</time>
      </trkpt>
      <trkpt lat="45.89221" lon="4.67113">
        <ele>411</ele>
        <time>2018-06-16T09:55:31Z</time>
      </trkpt>
      <trkpt lat="45.89225" lon="4.67118">
        <ele>411</ele>
        <time>2018-06-16T09:55:32Z</time>
      </trkpt>
      <trkpt lat="45.89228" lon="4.67123">
        <ele>411</ele>
        <time>2018-06-16T09:55:33Z</time>
      </trkpt>
      <trkpt lat="45.89231" lon="4.67128">
        <ele>411</ele>
        <time>2018-06-16T09:55:34Z</time>
      </trkpt>
      <trkpt lat="45.89237" lon="4.67137">
        <ele>411</ele>
        <time>2018-06-16T09:55:36Z</time>
      </trkpt>
      <trkpt lat="45.8924" lon="4.67143">
        <ele>411</ele>
        <time>2018-06-16T09:55:37Z</time>
      </trkpt>
      <trkpt lat="45.89247" lon="4.67148">
        <ele>411</ele>
        <time>2018-06-16T09:55:39Z</time>
      </trkpt>
      <trkpt lat="45.8925" lon="4.67154">
        <ele>412</ele>
        <time>2018-06-16T09:55:40Z</time>
      </trkpt>
      <trkpt lat="45.89255" lon="4.67162">
        <ele>414</ele>
        <time>2018-06-16T09:55:42Z</time>
      </trkpt>
      <trkpt lat="45.89255" lon="4.67167">
        <ele>413</ele>
        <time>2018-06-16T09:55:43Z</time>
      </trkpt>
      <trkpt lat="45.89261" lon="4.67175">
        <ele>412</ele>
        <time>2018-06-16T09:55:46Z</time>
      </trkpt>
      <trkpt lat="45.89269" lon="4.67181">
        <ele>412</ele>
        <time>2018-06-16T09:55:47Z</time>
      </trkpt>
      <trkpt lat="45.89274" lon="4.67184">
        <ele>412</ele>
        <time>2018-06-16T09:55:48Z</time>
      </trkpt>
      <trkpt lat="45.8928" lon="4.67187">
        <ele>412</ele>
        <time>2018-06-16T09:55:49Z</time>
      </trkpt>
      <trkpt lat="45.89286" lon="4.6719">
        <ele>412</ele>
        <time>2018-06-16T09:55:50Z</time>
      </trkpt>
      <trkpt lat="45.8929" lon="4.67193">
        <ele>412</ele>
        <time>2018-06-16T09:55:51Z</time>
      </trkpt>
      <trkpt lat="45.89295" lon="4.67195">
        <ele>412</ele>
        <time>2018-06-16T09:55:52Z</time>
      </trkpt>
      <trkpt lat="45.89301" lon="4.67197">
        <ele>412</ele>
        <time>2018-06-16T09:55:53Z</time>
      </trkpt>
      <trkpt lat="45.89305" lon="4.67198">
        <ele>412</ele>
        <time>2018-06-16T09:55:54Z</time>
      </trkpt>
      <trkpt lat="45.89309" lon="4.672">
        <ele>412</ele>
        <time>2018-06-16T09:55:55Z</time>
      </trkpt>
      <trkpt lat="45.89316" lon="4.67208">
        <ele>412</ele>
        <time>2018-06-16T09:56:02Z</time>
      </trkpt>
      <trkpt lat="45.89317" lon="4.67209">
        <ele>412</ele>
        <time>2018-06-16T09:56:05Z</time>
      </trkpt>
      <trkpt lat="45.89325" lon="4.6721">
        <ele>412</ele>
        <time>2018-06-16T09:57:45Z</time>
      </trkpt>
      <trkpt lat="45.89326" lon="4.67211">
        <ele>412</ele>
        <time>2018-06-16T09:57:46Z</time>
      </trkpt>
      <trkpt lat="45.89333" lon="4.67214">
        <ele>411</ele>
        <time>2018-06-16T09:57:49Z</time>
      </trkpt>
      <trkpt lat="45.89336" lon="4.67215">
        <ele>415</ele>
        <time>2018-06-16T09:57:50Z</time>
      </trkpt>
      <trkpt lat="45.89339" lon="4.67217">
        <ele>415</ele>
        <time>2018-06-16T09:57:51Z</time>
      </trkpt>
      <trkpt lat="45.89347" lon="4.67222">
        <ele>415</ele>
        <time>2018-06-16T09:57:52Z</time>
      </trkpt>
      <trkpt lat="45.89351" lon="4.67226">
        <ele>415</ele>
        <time>2018-06-16T09:57:53Z</time>
      </trkpt>
      <trkpt lat="45.89353" lon="4.67234">
        <ele>414</ele>
        <time>2018-06-16T09:57:54Z</time>
      </trkpt>
      <trkpt lat="45.89358" lon="4.67245">
        <ele>414</ele>
        <time>2018-06-16T09:57:56Z</time>
      </trkpt>
      <trkpt lat="45.89361" lon="4.67251">
        <ele>409</ele>
        <time>2018-06-16T09:57:57Z</time>
      </trkpt>
      <trkpt lat="45.89364" lon="4.67256">
        <ele>409</ele>
        <time>2018-06-16T09:57:58Z</time>
      </trkpt>
      <trkpt lat="45.89368" lon="4.67262">
        <ele>409</ele>
        <time>2018-06-16T09:57:59Z</time>
      </trkpt>
      <trkpt lat="45.89371" lon="4.67268">
        <ele>409</ele>
        <time>2018-06-16T09:58:00Z</time>
      </trkpt>
      <trkpt lat="45.89374" lon="4.67274">
        <ele>408</ele>
        <time>2018-06-16T09:58:01Z</time>
      </trkpt>
      <trkpt lat="45.89378" lon="4.6728">
        <ele>408</ele>
        <time>2018-06-16T09:58:02Z</time>
      </trkpt>
      <trkpt lat="45.89382" lon="4.67284">
        <ele>408</ele>
        <time>2018-06-16T09:58:03Z</time>
      </trkpt>
      <trkpt lat="45.89386" lon="4.67289">
        <ele>408</ele>
        <time>2018-06-16T09:58:04Z</time>
      </trkpt>
      <trkpt lat="45.8939" lon="4.67295">
        <ele>408</ele>
        <time>2018-06-16T09:58:05Z</time>
      </trkpt>
      <trkpt lat="45.89393" lon="4.67301">
        <ele>408</ele>
        <time>2018-06-16T09:58:06Z</time>
      </trkpt>
      <trkpt lat="45.89396" lon="4.67304">
        <ele>408</ele>
        <time>2018-06-16T09:58:07Z</time>
      </trkpt>
      <trkpt lat="45.894" lon="4.6731">
        <ele>408</ele>
        <time>2018-06-16T09:58:08Z</time>
      </trkpt>
      <trkpt lat="45.89404" lon="4.67316">
        <ele>407</ele>
        <time>2018-06-16T09:58:09Z</time>
      </trkpt>
      <trkpt lat="45.89408" lon="4.67321">
        <ele>407</ele>
        <time>2018-06-16T09:58:10Z</time>
      </trkpt>
      <trkpt lat="45.89412" lon="4.67326">
        <ele>407</ele>
        <time>2018-06-16T09:58:11Z</time>
      </trkpt>
      <trkpt lat="45.89418" lon="4.67332">
        <ele>408</ele>
        <time>2018-06-16T09:58:12Z</time>
      </trkpt>
      <trkpt lat="45.89422" lon="4.67338">
        <ele>407</ele>
        <time>2018-06-16T09:58:13Z</time>
      </trkpt>
      <trkpt lat="45.89428" lon="4.67341">
        <ele>407</ele>
        <time>2018-06-16T09:58:14Z</time>
      </trkpt>
      <trkpt lat="45.89433" lon="4.67347">
        <ele>407</ele>
        <time>2018-06-16T09:58:15Z</time>
      </trkpt>
      <trkpt lat="45.89438" lon="4.67353">
        <ele>407</ele>
        <time>2018-06-16T09:58:16Z</time>
      </trkpt>
      <trkpt lat="45.89443" lon="4.6736">
        <ele>407</ele>
        <time>2018-06-16T09:58:17Z</time>
      </trkpt>
      <trkpt lat="45.89447" lon="4.67365">
        <ele>407</ele>
        <time>2018-06-16T09:58:18Z</time>
      </trkpt>
      <trkpt lat="45.89452" lon="4.67371">
        <ele>407</ele>
        <time>2018-06-16T09:58:19Z</time>
      </trkpt>
      <trkpt lat="45.89459" lon="4.67376">
        <ele>407</ele>
        <time>2018-06-16T09:58:20Z</time>
      </trkpt>
      <trkpt lat="45.89464" lon="4.67381">
        <ele>407</ele>
        <time>2018-06-16T09:58:21Z</time>
      </trkpt>
      <trkpt lat="45.89469" lon="4.67385">
        <ele>407</ele>
        <time>2018-06-16T09:58:22Z</time>
      </trkpt>
      <trkpt lat="45.89476" lon="4.67389">
        <ele>407</ele>
        <time>2018-06-16T09:58:23Z</time>
      </trkpt>
      <trkpt lat="45.89483" lon="4.67393">
        <ele>407</ele>
        <time>2018-06-16T09:58:24Z</time>
      </trkpt>
      <trkpt lat="45.89487" lon="4.67399">
        <ele>406</ele>
        <time>2018-06-16T09:58:25Z</time>
      </trkpt>
      <trkpt lat="45.89492" lon="4.67404">
        <ele>406</ele>
        <time>2018-06-16T09:58:26Z</time>
      </trkpt>
      <trkpt lat="45.89499" lon="4.6741">
        <ele>405</ele>
        <time>2018-06-16T09:58:27Z</time>
      </trkpt>
      <trkpt lat="45.89505" lon="4.67413">
        <ele>406</ele>
        <time>2018-06-16T09:58:28Z</time>
      </trkpt>
      <trkpt lat="45.8951" lon="4.67419">
        <ele>403</ele>
        <time>2018-06-16T09:58:29Z</time>
      </trkpt>
      <trkpt lat="45.89518" lon="4.67421">
        <ele>402</ele>
        <time>2018-06-16T09:58:30Z</time>
      </trkpt>
      <trkpt lat="45.89524" lon="4.67425">
        <ele>402</ele>
        <time>2018-06-16T09:58:31Z</time>
      </trkpt>
      <trkpt lat="45.89532" lon="4.67429">
        <ele>402</ele>
        <time>2018-06-16T09:58:32Z</time>
      </trkpt>
      <trkpt lat="45.89538" lon="4.67432">
        <ele>402</ele>
        <time>2018-06-16T09:58:33Z</time>
      </trkpt>
      <trkpt lat="45.89546" lon="4.67435">
        <ele>402</ele>
        <time>2018-06-16T09:58:34Z</time>
      </trkpt>
      <trkpt lat="45.89553" lon="4.67437">
        <ele>402</ele>
        <time>2018-06-16T09:58:35Z</time>
      </trkpt>
      <trkpt lat="45.89561" lon="4.6744">
        <ele>402</ele>
        <time>2018-06-16T09:58:36Z</time>
      </trkpt>
      <trkpt lat="45.89568" lon="4.67441">
        <ele>403</ele>
        <time>2018-06-16T09:58:37Z</time>
      </trkpt>
      <trkpt lat="45.89575" lon="4.67443">
        <ele>403</ele>
        <time>2018-06-16T09:58:38Z</time>
      </trkpt>
      <trkpt lat="45.89581" lon="4.67446">
        <ele>402</ele>
        <time>2018-06-16T09:58:39Z</time>
      </trkpt>
      <trkpt lat="45.89586" lon="4.67448">
        <ele>404</ele>
        <time>2018-06-16T09:58:40Z</time>
      </trkpt>
      <trkpt lat="45.89594" lon="4.67449">
        <ele>404</ele>
        <time>2018-06-16T09:58:41Z</time>
      </trkpt>
      <trkpt lat="45.89601" lon="4.6745">
        <ele>404</ele>
        <time>2018-06-16T09:58:42Z</time>
      </trkpt>
      <trkpt lat="45.89607" lon="4.67453">
        <ele>404</ele>
        <time>2018-06-16T09:58:43Z</time>
      </trkpt>
      <trkpt lat="45.89614" lon="4.67455">
        <ele>403</ele>
        <time>2018-06-16T09:58:44Z</time>
      </trkpt>
      <trkpt lat="45.89623" lon="4.67458">
        <ele>403</ele>
        <time>2018-06-16T09:58:45Z</time>
      </trkpt>
      <trkpt lat="45.89629" lon="4.67459">
        <ele>403</ele>
        <time>2018-06-16T09:58:46Z</time>
      </trkpt>
      <trkpt lat="45.89636" lon="4.67462">
        <ele>403</ele>
        <time>2018-06-16T09:58:47Z</time>
      </trkpt>
      <trkpt lat="45.89643" lon="4.67465">
        <ele>403</ele>
        <time>2018-06-16T09:58:48Z</time>
      </trkpt>
      <trkpt lat="45.89649" lon="4.67469">
        <ele>403</ele>
        <time>2018-06-16T09:58:49Z</time>
      </trkpt>
      <trkpt lat="45.89656" lon="4.67471">
        <ele>402</ele>
        <time>2018-06-16T09:58:50Z</time>
      </trkpt>
      <trkpt lat="45.89664" lon="4.67474">
        <ele>402</ele>
        <time>2018-06-16T09:58:51Z</time>
      </trkpt>
      <trkpt lat="45.89671" lon="4.67477">
        <ele>402</ele>
        <time>2018-06-16T09:58:52Z</time>
      </trkpt>
      <trkpt lat="45.89678" lon="4.67481">
        <ele>402</ele>
        <time>2018-06-16T09:58:53Z</time>
      </trkpt>
      <trkpt lat="45.89685" lon="4.67484">
        <ele>402</ele>
        <time>2018-06-16T09:58:54Z</time>
      </trkpt>
      <trkpt lat="45.89692" lon="4.67486">
        <ele>402</ele>
        <time>2018-06-16T09:58:55Z</time>
      </trkpt>
      <trkpt lat="45.89701" lon="4.67487">
        <ele>402</ele>
        <time>2018-06-16T09:58:56Z</time>
      </trkpt>
      <trkpt lat="45.89711" lon="4.67489">
        <ele>402</ele>
        <time>2018-06-16T09:58:57Z</time>
      </trkpt>
      <trkpt lat="45.89718" lon="4.67492">
        <ele>402</ele>
        <time>2018-06-16T09:58:58Z</time>
      </trkpt>
      <trkpt lat="45.89726" lon="4.67494">
        <ele>402</ele>
        <time>2018-06-16T09:58:59Z</time>
      </trkpt>
      <trkpt lat="45.89736" lon="4.67495">
        <ele>401</ele>
        <time>2018-06-16T09:59:00Z</time>
      </trkpt>
      <trkpt lat="45.89739" lon="4.67497">
        <ele>401</ele>
        <time>2018-06-16T09:59:01Z</time>
      </trkpt>
      <trkpt lat="45.89747" lon="4.67498">
        <ele>400</ele>
        <time>2018-06-16T09:59:02Z</time>
      </trkpt>
      <trkpt lat="45.89754" lon="4.67498">
        <ele>399</ele>
        <time>2018-06-16T09:59:03Z</time>
      </trkpt>
      <trkpt lat="45.89761" lon="4.67496">
        <ele>399</ele>
        <time>2018-06-16T09:59:04Z</time>
      </trkpt>
      <trkpt lat="45.89769" lon="4.67494">
        <ele>399</ele>
        <time>2018-06-16T09:59:05Z</time>
      </trkpt>
      <trkpt lat="45.89776" lon="4.67492">
        <ele>399</ele>
        <time>2018-06-16T09:59:06Z</time>
      </trkpt>
      <trkpt lat="45.89783" lon="4.67491">
        <ele>399</ele>
        <time>2018-06-16T09:59:07Z</time>
      </trkpt>
      <trkpt lat="45.89791" lon="4.67486">
        <ele>399</ele>
        <time>2018-06-16T09:59:08Z</time>
      </trkpt>
      <trkpt lat="45.89799" lon="4.6748">
        <ele>399</ele>
        <time>2018-06-16T09:59:09Z</time>
      </trkpt>
      <trkpt lat="45.89804" lon="4.67472">
        <ele>399</ele>
        <time>2018-06-16T09:59:10Z</time>
      </trkpt>
      <trkpt lat="45.89809" lon="4.67464">
        <ele>399</ele>
        <time>2018-06-16T09:59:11Z</time>
      </trkpt>
      <trkpt lat="45.89812" lon="4.67455">
        <ele>399</ele>
        <time>2018-06-16T09:59:12Z</time>
      </trkpt>
      <trkpt lat="45.89816" lon="4.67444">
        <ele>399</ele>
        <time>2018-06-16T09:59:13Z</time>
      </trkpt>
      <trkpt lat="45.89818" lon="4.67434">
        <ele>399</ele>
        <time>2018-06-16T09:59:14Z</time>
      </trkpt>
      <trkpt lat="45.8982" lon="4.67425">
        <ele>398</ele>
        <time>2018-06-16T09:59:15Z</time>
      </trkpt>
      <trkpt lat="45.89823" lon="4.67414">
        <ele>400</ele>
        <time>2018-06-16T09:59:16Z</time>
      </trkpt>
      <trkpt lat="45.89825" lon="4.67404">
        <ele>401</ele>
        <time>2018-06-16T09:59:17Z</time>
      </trkpt>
      <trkpt lat="45.8983" lon="4.67393">
        <ele>403</ele>
        <time>2018-06-16T09:59:18Z</time>
      </trkpt>
      <trkpt lat="45.89834" lon="4.67384">
        <ele>398</ele>
        <time>2018-06-16T09:59:19Z</time>
      </trkpt>
      <trkpt lat="45.89838" lon="4.67374">
        <ele>398</ele>
        <time>2018-06-16T09:59:20Z</time>
      </trkpt>
      <trkpt lat="45.89845" lon="4.67367">
        <ele>399</ele>
        <time>2018-06-16T09:59:21Z</time>
      </trkpt>
      <trkpt lat="45.89851" lon="4.67362">
        <ele>399</ele>
        <time>2018-06-16T09:59:22Z</time>
      </trkpt>
      <trkpt lat="45.89858" lon="4.67355">
        <ele>399</ele>
        <time>2018-06-16T09:59:23Z</time>
      </trkpt>
      <trkpt lat="45.89864" lon="4.67353">
        <ele>399</ele>
        <time>2018-06-16T09:59:24Z</time>
      </trkpt>
      <trkpt lat="45.89871" lon="4.6735">
        <ele>399</ele>
        <time>2018-06-16T09:59:25Z</time>
      </trkpt>
      <trkpt lat="45.89878" lon="4.67349">
        <ele>398</ele>
        <time>2018-06-16T09:59:26Z</time>
      </trkpt>
      <trkpt lat="45.89885" lon="4.67348">
        <ele>398</ele>
        <time>2018-06-16T09:59:27Z</time>
      </trkpt>
      <trkpt lat="45.89893" lon="4.67349">
        <ele>398</ele>
        <time>2018-06-16T09:59:28Z</time>
      </trkpt>
      <trkpt lat="45.89901" lon="4.67351">
        <ele>398</ele>
        <time>2018-06-16T09:59:29Z</time>
      </trkpt>
      <trkpt lat="45.89908" lon="4.67352">
        <ele>398</ele>
        <time>2018-06-16T09:59:30Z</time>
      </trkpt>
      <trkpt lat="45.89915" lon="4.67355">
        <ele>398</ele>
        <time>2018-06-16T09:59:31Z</time>
      </trkpt>
      <trkpt lat="45.89923" lon="4.67357">
        <ele>396</ele>
        <time>2018-06-16T09:59:32Z</time>
      </trkpt>
      <trkpt lat="45.89931" lon="4.6736">
        <ele>395</ele>
        <time>2018-06-16T09:59:33Z</time>
      </trkpt>
      <trkpt lat="45.8994" lon="4.67361">
        <ele>395</ele>
        <time>2018-06-16T09:59:34Z</time>
      </trkpt>
      <trkpt lat="45.89949" lon="4.67363">
        <ele>395</ele>
        <time>2018-06-16T09:59:35Z</time>
      </trkpt>
      <trkpt lat="45.89957" lon="4.67366">
        <ele>394</ele>
        <time>2018-06-16T09:59:36Z</time>
      </trkpt>
      <trkpt lat="45.89965" lon="4.67368">
        <ele>394</ele>
        <time>2018-06-16T09:59:37Z</time>
      </trkpt>
      <trkpt lat="45.89973" lon="4.67373">
        <ele>394</ele>
        <time>2018-06-16T09:59:38Z</time>
      </trkpt>
      <trkpt lat="45.89982" lon="4.67374">
        <ele>394</ele>
        <time>2018-06-16T09:59:39Z</time>
      </trkpt>
      <trkpt lat="45.89989" lon="4.67381">
        <ele>393</ele>
        <time>2018-06-16T09:59:40Z</time>
      </trkpt>
      <trkpt lat="45.89996" lon="4.67388">
        <ele>392</ele>
        <time>2018-06-16T09:59:41Z</time>
      </trkpt>
      <trkpt lat="45.90005" lon="4.67396">
        <ele>393</ele>
        <time>2018-06-16T09:59:42Z</time>
      </trkpt>
      <trkpt lat="45.90013" lon="4.67401">
        <ele>392</ele>
        <time>2018-06-16T09:59:43Z</time>
      </trkpt>
      <trkpt lat="45.90022" lon="4.67404">
        <ele>393</ele>
        <time>2018-06-16T09:59:44Z</time>
      </trkpt>
      <trkpt lat="45.9003" lon="4.67411">
        <ele>394</ele>
        <time>2018-06-16T09:59:45Z</time>
      </trkpt>
      <trkpt lat="45.90037" lon="4.67418">
        <ele>384</ele>
        <time>2018-06-16T09:59:46Z</time>
      </trkpt>
      <trkpt lat="45.90044" lon="4.67426">
        <ele>385</ele>
        <time>2018-06-16T09:59:47Z</time>
      </trkpt>
      <trkpt lat="45.90051" lon="4.67435">
        <ele>385</ele>
        <time>2018-06-16T09:59:48Z</time>
      </trkpt>
      <trkpt lat="45.90058" lon="4.67443">
        <ele>384</ele>
        <time>2018-06-16T09:59:49Z</time>
      </trkpt>
      <trkpt lat="45.90065" lon="4.67452">
        <ele>384</ele>
        <time>2018-06-16T09:59:50Z</time>
      </trkpt>
      <trkpt lat="45.90074" lon="4.67458">
        <ele>383</ele>
        <time>2018-06-16T09:59:51Z</time>
      </trkpt>
      <trkpt lat="45.90081" lon="4.67465">
        <ele>382</ele>
        <time>2018-06-16T09:59:52Z</time>
      </trkpt>
      <trkpt lat="45.90088" lon="4.67475">
        <ele>385</ele>
        <time>2018-06-16T09:59:53Z</time>
      </trkpt>
      <trkpt lat="45.90095" lon="4.67482">
        <ele>384</ele>
        <time>2018-06-16T09:59:54Z</time>
      </trkpt>
      <trkpt lat="45.90102" lon="4.6749">
        <ele>384</ele>
        <time>2018-06-16T09:59:55Z</time>
      </trkpt>
      <trkpt lat="45.90108" lon="4.67499">
        <ele>384</ele>
        <time>2018-06-16T09:59:56Z</time>
      </trkpt>
      <trkpt lat="45.90113" lon="4.6751">
        <ele>377</ele>
        <time>2018-06-16T09:59:57Z</time>
      </trkpt>
      <trkpt lat="45.90119" lon="4.67519">
        <ele>377</ele>
        <time>2018-06-16T09:59:58Z</time>
      </trkpt>
      <trkpt lat="45.90124" lon="4.67529">
        <ele>377</ele>
        <time>2018-06-16T09:59:59Z</time>
      </trkpt>
      <trkpt lat="45.90129" lon="4.67537">
        <ele>377</ele>
        <time>2018-06-16T10:00:00Z</time>
      </trkpt>
      <trkpt lat="45.90134" lon="4.67549">
        <ele>377</ele>
        <time>2018-06-16T10:00:01Z</time>
      </trkpt>
      <trkpt lat="45.90139" lon="4.67557">
        <ele>376</ele>
        <time>2018-06-16T10:00:02Z</time>
      </trkpt>
      <trkpt lat="45.90143" lon="4.67566">
        <ele>376</ele>
        <time>2018-06-16T10:00:03Z</time>
      </trkpt>
      <trkpt lat="45.9015" lon="4.67575">
        <ele>376</ele>
        <time>2018-06-16T10:00:04Z</time>
      </trkpt>
      <trkpt lat="45.90155" lon="4.67583">
        <ele>376</ele>
        <time>2018-06-16T10:00:05Z</time>
      </trkpt>
      <trkpt lat="45.90161" lon="4.67591">
        <ele>373</ele>
        <time>2018-06-16T10:00:06Z</time>
      </trkpt>
      <trkpt lat="45.90167" lon="4.67598">
        <ele>376</ele>
        <time>2018-06-16T10:00:07Z</time>
      </trkpt>
      <trkpt lat="45.90173" lon="4.67606">
        <ele>376</ele>
        <time>2018-06-16T10:00:08Z</time>
      </trkpt>
      <trkpt lat="45.9018" lon="4.67613">
        <ele>376</ele>
        <time>2018-06-16T10:00:09Z</time>
      </trkpt>
      <trkpt lat="45.90187" lon="4.67619">
        <ele>375</ele>
        <time>2018-06-16T10:00:10Z</time>
      </trkpt>
      <trkpt lat="45.90194" lon="4.67625">
        <ele>375</ele>
        <time>2018-06-16T10:00:11Z</time>
      </trkpt>
      <trkpt lat="45.902" lon="4.67632">
        <ele>375</ele>
        <time>2018-06-16T10:00:12Z</time>
      </trkpt>
      <trkpt lat="45.90207" lon="4.6764">
        <ele>375</ele>
        <time>2018-06-16T10:00:13Z</time>
      </trkpt>
      <trkpt lat="45.90214" lon="4.67647">
        <ele>375</ele>
        <time>2018-06-16T10:00:14Z</time>
      </trkpt>
      <trkpt lat="45.90223" lon="4.67652">
        <ele>375</ele>
        <time>2018-06-16T10:00:15Z</time>
      </trkpt>
      <trkpt lat="45.90229" lon="4.6766">
        <ele>375</ele>
        <time>2018-06-16T10:00:16Z</time>
      </trkpt>
      <trkpt lat="45.90234" lon="4.67666">
        <ele>375</ele>
        <time>2018-06-16T10:00:17Z</time>
      </trkpt>
      <trkpt lat="45.90241" lon="4.67671">
        <ele>373</ele>
        <time>2018-06-16T10:00:18Z</time>
      </trkpt>
      <trkpt lat="45.90246" lon="4.67674">
        <ele>373</ele>
        <time>2018-06-16T10:00:19Z</time>
      </trkpt>
      <trkpt lat="45.90253" lon="4.67677">
        <ele>374</ele>
        <time>2018-06-16T10:00:20Z</time>
      </trkpt>
      <trkpt lat="45.9026" lon="4.67679">
        <ele>374</ele>
        <time>2018-06-16T10:00:21Z</time>
      </trkpt>
      <trkpt lat="45.90266" lon="4.67681">
        <ele>374</ele>
        <time>2018-06-16T10:00:22Z</time>
      </trkpt>
      <trkpt lat="45.90272" lon="4.67683">
        <ele>374</ele>
        <time>2018-06-16T10:00:23Z</time>
      </trkpt>
      <trkpt lat="45.90278" lon="4.67687">
        <ele>374</ele>
        <time>2018-06-16T10:00:24Z</time>
      </trkpt>
      <trkpt lat="45.90284" lon="4.6769">
        <ele>374</ele>
        <time>2018-06-16T10:00:25Z</time>
      </trkpt>
      <trkpt lat="45.90291" lon="4.6769">
        <ele>374</ele>
        <time>2018-06-16T10:00:26Z</time>
      </trkpt>
      <trkpt lat="45.90297" lon="4.67693">
        <ele>374</ele>
        <time>2018-06-16T10:00:27Z</time>
      </trkpt>
      <trkpt lat="45.90303" lon="4.67695">
        <ele>374</ele>
        <time>2018-06-16T10:00:28Z</time>
      </trkpt>
      <trkpt lat="45.90308" lon="4.67698">
        <ele>374</ele>
        <time>2018-06-16T10:00:29Z</time>
      </trkpt>
      <trkpt lat="45.90314" lon="4.677">
        <ele>374</ele>
        <time>2018-06-16T10:00:30Z</time>
      </trkpt>
      <trkpt lat="45.9032" lon="4.67702">
        <ele>374</ele>
        <time>2018-06-16T10:00:31Z</time>
      </trkpt>
      <trkpt lat="45.90327" lon="4.67705">
        <ele>374</ele>
        <time>2018-06-16T10:00:32Z</time>
      </trkpt>
      <trkpt lat="45.90334" lon="4.67707">
        <ele>372</ele>
        <time>2018-06-16T10:00:33Z</time>
      </trkpt>
      <trkpt lat="45.90341" lon="4.67709">
        <ele>372</ele>
        <time>2018-06-16T10:00:34Z</time>
      </trkpt>
      <trkpt lat="45.90348" lon="4.67712">
        <ele>372</ele>
        <time>2018-06-16T10:00:35Z</time>
      </trkpt>
      <trkpt lat="45.90355" lon="4.67714">
        <ele>371</ele>
        <time>2018-06-16T10:00:36Z</time>
      </trkpt>
      <trkpt lat="45.90362" lon="4.67717">
        <ele>371</ele>
        <time>2018-06-16T10:00:37Z</time>
      </trkpt>
      <trkpt lat="45.90369" lon="4.67721">
        <ele>371</ele>
        <time>2018-06-16T10:00:38Z</time>
      </trkpt>
      <trkpt lat="45.90376" lon="4.67723">
        <ele>370</ele>
        <time>2018-06-16T10:00:39Z</time>
      </trkpt>
      <trkpt lat="45.90384" lon="4.67725">
        <ele>370</ele>
        <time>2018-06-16T10:00:40Z</time>
      </trkpt>
      <trkpt lat="45.90392" lon="4.67728">
        <ele>370</ele>
        <time>2018-06-16T10:00:41Z</time>
      </trkpt>
      <trkpt lat="45.90399" lon="4.67731">
        <ele>369</ele>
        <time>2018-06-16T10:00:42Z</time>
      </trkpt>
      <trkpt lat="45.90408" lon="4.67733">
        <ele>368</ele>
        <time>2018-06-16T10:00:43Z</time>
      </trkpt>
      <trkpt lat="45.90415" lon="4.67734">
        <ele>368</ele>
        <time>2018-06-16T10:00:44Z</time>
      </trkpt>
      <trkpt lat="45.90423" lon="4.67737">
        <ele>366</ele>
        <time>2018-06-16T10:00:45Z</time>
      </trkpt>
      <trkpt lat="45.90431" lon="4.67741">
        <ele>366</ele>
        <time>2018-06-16T10:00:46Z</time>
      </trkpt>
      <trkpt lat="45.90438" lon="4.67744">
        <ele>366</ele>
        <time>2018-06-16T10:00:47Z</time>
      </trkpt>
      <trkpt lat="45.90445" lon="4.67746">
        <ele>367</ele>
        <time>2018-06-16T10:00:48Z</time>
      </trkpt>
      <trkpt lat="45.90452" lon="4.6775">
        <ele>367</ele>
        <time>2018-06-16T10:00:49Z</time>
      </trkpt>
      <trkpt lat="45.90459" lon="4.67753">
        <ele>364</ele>
        <time>2018-06-16T10:00:50Z</time>
      </trkpt>
      <trkpt lat="45.90467" lon="4.67755">
        <ele>364</ele>
        <time>2018-06-16T10:00:51Z</time>
      </trkpt>
      <trkpt lat="45.90474" lon="4.67759">
        <ele>364</ele>
        <time>2018-06-16T10:00:52Z</time>
      </trkpt>
      <trkpt lat="45.90482" lon="4.67761">
        <ele>364</ele>
        <time>2018-06-16T10:00:53Z</time>
      </trkpt>
      <trkpt lat="45.90489" lon="4.67764">
        <ele>364</ele>
        <time>2018-06-16T10:00:54Z</time>
      </trkpt>
      <trkpt lat="45.90495" lon="4.67767">
        <ele>364</ele>
        <time>2018-06-16T10:00:55Z</time>
      </trkpt>
      <trkpt lat="45.90502" lon="4.6777">
        <ele>364</ele>
        <time>2018-06-16T10:00:56Z</time>
      </trkpt>
      <trkpt lat="45.9051" lon="4.67772">
        <ele>365</ele>
        <time>2018-06-16T10:00:57Z</time>
      </trkpt>
      <trkpt lat="45.90516" lon="4.67775">
        <ele>365</ele>
        <time>2018-06-16T10:00:58Z</time>
      </trkpt>
      <trkpt lat="45.90524" lon="4.67774">
        <ele>365</ele>
        <time>2018-06-16T10:00:59Z</time>
      </trkpt>
      <trkpt lat="45.9053" lon="4.67776">
        <ele>365</ele>
        <time>2018-06-16T10:01:00Z</time>
      </trkpt>
      <trkpt lat="45.90536" lon="4.67778">
        <ele>365</ele>
        <time>2018-06-16T10:01:01Z</time>
      </trkpt>
      <trkpt lat="45.90541" lon="4.67781">
        <ele>365</ele>
        <time>2018-06-16T10:01:02Z</time>
      </trkpt>
      <trkpt lat="45.90547" lon="4.67783">
        <ele>365</ele>
        <time>2018-06-16T10:01:03Z</time>
      </trkpt>
      <trkpt lat="45.90552" lon="4.67786">
        <ele>365</ele>
        <time>2018-06-16T10:01:04Z</time>
      </trkpt>
      <trkpt lat="45.90558" lon="4.67788">
        <ele>365</ele>
        <time>2018-06-16T10:01:05Z</time>
      </trkpt>
      <trkpt lat="45.90564" lon="4.67789">
        <ele>365</ele>
        <time>2018-06-16T10:01:06Z</time>
      </trkpt>
      <trkpt lat="45.9057" lon="4.6779">
        <ele>365</ele>
        <time>2018-06-16T10:01:07Z</time>
      </trkpt>
      <trkpt lat="45.90577" lon="4.67794">
        <ele>366</ele>
        <time>2018-06-16T10:01:08Z</time>
      </trkpt>
      <trkpt lat="45.90582" lon="4.67796">
        <ele>366</ele>
        <time>2018-06-16T10:01:09Z</time>
      </trkpt>
      <trkpt lat="45.9059" lon="4.67797">
        <ele>367</ele>
        <time>2018-06-16T10:01:11Z</time>
      </trkpt>
      <trkpt lat="45.90596" lon="4.67797">
        <ele>367</ele>
        <time>2018-06-16T10:01:12Z</time>
      </trkpt>
      <trkpt lat="45.90601" lon="4.67797">
        <ele>367</ele>
        <time>2018-06-16T10:01:13Z</time>
      </trkpt>
      <trkpt lat="45.90607" lon="4.67796">
        <ele>367</ele>
        <time>2018-06-16T10:01:14Z</time>
      </trkpt>
      <trkpt lat="45.90611" lon="4.67796">
        <ele>367</ele>
        <time>2018-06-16T10:01:15Z</time>
      </trkpt>
      <trkpt lat="45.90618" lon="4.67795">
        <ele>367</ele>
        <time>2018-06-16T10:01:16Z</time>
      </trkpt>
      <trkpt lat="45.90626" lon="4.67798">
        <ele>367</ele>
        <time>2018-06-16T10:01:18Z</time>
      </trkpt>
      <trkpt lat="45.9063" lon="4.67797">
        <ele>367</ele>
        <time>2018-06-16T10:01:19Z</time>
      </trkpt>
      <trkpt lat="45.90634" lon="4.67796">
        <ele>367</ele>
        <time>2018-06-16T10:01:20Z</time>
      </trkpt>
      <trkpt lat="45.9064" lon="4.67797">
        <ele>367</ele>
        <time>2018-06-16T10:01:21Z</time>
      </trkpt>
      <trkpt lat="45.90648" lon="4.67799">
        <ele>368</ele>
        <time>2018-06-16T10:01:23Z</time>
      </trkpt>
      <trkpt lat="45.90653" lon="4.67799">
        <ele>368</ele>
        <time>2018-06-16T10:01:24Z</time>
      </trkpt>
      <trkpt lat="45.90661" lon="4.67798">
        <ele>368</ele>
        <time>2018-06-16T10:01:26Z</time>
      </trkpt>
      <trkpt lat="45.90666" lon="4.67799">
        <ele>368</ele>
        <time>2018-06-16T10:01:27Z</time>
      </trkpt>
      <trkpt lat="45.9067" lon="4.67801">
        <ele>368</ele>
        <time>2018-06-16T10:01:28Z</time>
      </trkpt>
      <trkpt lat="45.90676" lon="4.678">
        <ele>368</ele>
        <time>2018-06-16T10:01:29Z</time>
      </trkpt>
      <trkpt lat="45.90683" lon="4.67802">
        <ele>368</ele>
        <time>2018-06-16T10:01:31Z</time>
      </trkpt>
      <trkpt lat="45.90686" lon="4.67803">
        <ele>368</ele>
        <time>2018-06-16T10:01:32Z</time>
      </trkpt>
      <trkpt lat="45.90695" lon="4.67807">
        <ele>368</ele>
        <time>2018-06-16T10:01:35Z</time>
      </trkpt>
      <trkpt lat="45.90697" lon="4.67807">
        <ele>368</ele>
        <time>2018-06-16T10:01:36Z</time>
      </trkpt>
      <trkpt lat="45.90701" lon="4.67809">
        <ele>368</ele>
        <time>2018-06-16T10:01:38Z</time>
      </trkpt>
      <trkpt lat="45.90709" lon="4.67812">
        <ele>368</ele>
        <time>2018-06-16T10:01:39Z</time>
      </trkpt>
      <trkpt lat="45.90716" lon="4.67815">
        <ele>369</ele>
        <time>2018-06-16T10:01:41Z</time>
      </trkpt>
      <trkpt lat="45.9072" lon="4.67817">
        <ele>369</ele>
        <time>2018-06-16T10:01:42Z</time>
      </trkpt>
      <trkpt lat="45.90728" lon="4.67821">
        <ele>369</ele>
        <time>2018-06-16T10:01:45Z</time>
      </trkpt>
      <trkpt lat="45.90734" lon="4.67824">
        <ele>369</ele>
        <time>2018-06-16T10:01:46Z</time>
      </trkpt>
      <trkpt lat="45.90742" lon="4.67826">
        <ele>370</ele>
        <time>2018-06-16T10:01:48Z</time>
      </trkpt>
      <trkpt lat="45.90745" lon="4.67827">
        <ele>370</ele>
        <time>2018-06-16T10:01:49Z</time>
      </trkpt>
      <trkpt lat="45.90753" lon="4.6783">
        <ele>370</ele>
        <time>2018-06-16T10:01:51Z</time>
      </trkpt>
      <trkpt lat="45.90755" lon="4.6783">
        <ele>370</ele>
        <time>2018-06-16T10:01:52Z</time>
      </trkpt>
      <trkpt lat="45.90762" lon="4.67833">
        <ele>370</ele>
        <time>2018-06-16T10:01:55Z</time>
      </trkpt>
      <trkpt lat="45.90765" lon="4.67834">
        <ele>371</ele>
        <time>2018-06-16T10:01:56Z</time>
      </trkpt>
      <trkpt lat="45.90768" lon="4.67835">
        <ele>371</ele>
        <time>2018-06-16T10:01:57Z</time>
      </trkpt>
      <trkpt lat="45.90777" lon="4.67838">
        <ele>371</ele>
        <time>2018-06-16T10:01:58Z</time>
      </trkpt>
      <trkpt lat="45.90784" lon="4.67839">
        <ele>371</ele>
        <time>2018-06-16T10:02:00Z</time>
      </trkpt>
      <trkpt lat="45.90788" lon="4.6784">
        <ele>371</ele>
        <time>2018-06-16T10:02:01Z</time>
      </trkpt>
      <trkpt lat="45.90794" lon="4.67843">
        <ele>371</ele>
        <time>2018-06-16T10:02:03Z</time>
      </trkpt>
      <trkpt lat="45.90797" lon="4.67845">
        <ele>371</ele>
        <time>2018-06-16T10:02:04Z</time>
      </trkpt>
      <trkpt lat="45.90805" lon="4.67847">
        <ele>371</ele>
        <time>2018-06-16T10:02:06Z</time>
      </trkpt>
      <trkpt lat="45.90808" lon="4.67849">
        <ele>371</ele>
        <time>2018-06-16T10:02:07Z</time>
      </trkpt>
      <trkpt lat="45.90816" lon="4.6785">
        <ele>371</ele>
        <time>2018-06-16T10:02:09Z</time>
      </trkpt>
      <trkpt lat="45.9082" lon="4.67851">
        <ele>371</ele>
        <time>2018-06-16T10:02:10Z</time>
      </trkpt>
      <trkpt lat="45.90828" lon="4.67851">
        <ele>370</ele>
        <time>2018-06-16T10:02:12Z</time>
      </trkpt>
      <trkpt lat="45.90832" lon="4.67853">
        <ele>370</ele>
        <time>2018-06-16T10:02:13Z</time>
      </trkpt>
      <trkpt lat="45.9084" lon="4.67855">
        <ele>370</ele>
        <time>2018-06-16T10:02:15Z</time>
      </trkpt>
      <trkpt lat="45.90845" lon="4.67856">
        <ele>370</ele>
        <time>2018-06-16T10:02:16Z</time>
      </trkpt>
      <trkpt lat="45.90849" lon="4.67856">
        <ele>370</ele>
        <time>2018-06-16T10:02:17Z</time>
      </trkpt>
      <trkpt lat="45.90855" lon="4.67858">
        <ele>370</ele>
        <time>2018-06-16T10:02:18Z</time>
      </trkpt>
      <trkpt lat="45.90859" lon="4.6786">
        <ele>370</ele>
        <time>2018-06-16T10:02:19Z</time>
      </trkpt>
      <trkpt lat="45.90864" lon="4.67861">
        <ele>370</ele>
        <time>2018-06-16T10:02:20Z</time>
      </trkpt>
      <trkpt lat="45.90869" lon="4.67862">
        <ele>370</ele>
        <time>2018-06-16T10:02:21Z</time>
      </trkpt>
      <trkpt lat="45.90873" lon="4.67865">
        <ele>370</ele>
        <time>2018-06-16T10:02:22Z</time>
      </trkpt>
      <trkpt lat="45.90877" lon="4.67866">
        <ele>370</ele>
        <time>2018-06-16T10:02:23Z</time>
      </trkpt>
      <trkpt lat="45.90881" lon="4.6787">
        <ele>370</ele>
        <time>2018-06-16T10:02:24Z</time>
      </trkpt>
      <trkpt lat="45.9089" lon="4.67873">
        <ele>370</ele>
        <time>2018-06-16T10:02:26Z</time>
      </trkpt>
      <trkpt lat="45.90894" lon="4.67874">
        <ele>370</ele>
        <time>2018-06-16T10:02:27Z</time>
      </trkpt>
      <trkpt lat="45.90902" lon="4.67878">
        <ele>370</ele>
        <time>2018-06-16T10:02:29Z</time>
      </trkpt>
      <trkpt lat="45.90906" lon="4.67879">
        <ele>370</ele>
        <time>2018-06-16T10:02:30Z</time>
      </trkpt>
      <trkpt lat="45.9091" lon="4.67883">
        <ele>370</ele>
        <time>2018-06-16T10:02:31Z</time>
      </trkpt>
      <trkpt lat="45.90914" lon="4.67885">
        <ele>370</ele>
        <time>2018-06-16T10:02:32Z</time>
      </trkpt>
      <trkpt lat="45.90922" lon="4.67887">
        <ele>370</ele>
        <time>2018-06-16T10:02:34Z</time>
      </trkpt>
      <trkpt lat="45.90926" lon="4.6789">
        <ele>370</ele>
        <time>2018-06-16T10:02:35Z</time>
      </trkpt>
      <trkpt lat="45.90934" lon="4.67892">
        <ele>370</ele>
        <time>2018-06-16T10:02:37Z</time>
      </trkpt>
      <trkpt lat="45.90938" lon="4.67893">
        <ele>370</ele>
        <time>2018-06-16T10:02:38Z</time>
      </trkpt>
      <trkpt lat="45.90945" lon="4.67897">
        <ele>370</ele>
        <time>2018-06-16T10:02:41Z</time>
      </trkpt>
      <trkpt lat="45.90948" lon="4.67898">
        <ele>370</ele>
        <time>2018-06-16T10:02:42Z</time>
      </trkpt>
      <trkpt lat="45.90955" lon="4.67901">
        <ele>370</ele>
        <time>2018-06-16T10:02:43Z</time>
      </trkpt>
      <trkpt lat="45.90956" lon="4.67902">
        <ele>370</ele>
        <time>2018-06-16T10:02:44Z</time>
      </trkpt>
      <trkpt lat="45.90965" lon="4.67906">
        <ele>370</ele>
        <time>2018-06-16T10:02:48Z</time>
      </trkpt>
      <trkpt lat="45.90967" lon="4.67907">
        <ele>370</ele>
        <time>2018-06-16T10:02:49Z</time>
      </trkpt>
      <trkpt lat="45.90974" lon="4.67912">
        <ele>370</ele>
        <time>2018-06-16T10:02:53Z</time>
      </trkpt>
      <trkpt lat="45.90975" lon="4.67912">
        <ele>370</ele>
        <time>2018-06-16T10:02:54Z</time>
      </trkpt>
      <trkpt lat="45.90983" lon="4.67906">
        <ele>370</ele>
        <time>2018-06-16T10:03:59Z</time>
      </trkpt>
      <trkpt lat="45.90984" lon="4.67907">
        <ele>370</ele>
        <time>2018-06-16T10:04:00Z</time>
      </trkpt>
      <trkpt lat="45.90991" lon="4.67911">
        <ele>371</ele>
        <time>2018-06-16T10:04:05Z</time>
      </trkpt>
      <trkpt lat="45.90993" lon="4.67913">
        <ele>371</ele>
        <time>2018-06-16T10:04:06Z</time>
      </trkpt>
      <trkpt lat="45.91" lon="4.67917">
        <ele>372</ele>
        <time>2018-06-16T10:04:09Z</time>
      </trkpt>
      <trkpt lat="45.91003" lon="4.67919">
        <ele>372</ele>
        <time>2018-06-16T10:04:10Z</time>
      </trkpt>
      <trkpt lat="45.91009" lon="4.67923">
        <ele>373</ele>
        <time>2018-06-16T10:04:12Z</time>
      </trkpt>
      <trkpt lat="45.91013" lon="4.67925">
        <ele>373</ele>
        <time>2018-06-16T10:04:13Z</time>
      </trkpt>
      <trkpt lat="45.91019" lon="4.6793">
        <ele>374</ele>
        <time>2018-06-16T10:04:15Z</time>
      </trkpt>
      <trkpt lat="45.91022" lon="4.67932">
        <ele>374</ele>
        <time>2018-06-16T10:04:16Z</time>
      </trkpt>
      <trkpt lat="45.91028" lon="4.67935">
        <ele>374</ele>
        <time>2018-06-16T10:04:18Z</time>
      </trkpt>
      <trkpt lat="45.91031" lon="4.67937">
        <ele>374</ele>
        <time>2018-06-16T10:04:19Z</time>
      </trkpt>
      <trkpt lat="45.91037" lon="4.67941">
        <ele>374</ele>
        <time>2018-06-16T10:04:21Z</time>
      </trkpt>
      <trkpt lat="45.9104" lon="4.67943">
        <ele>374</ele>
        <time>2018-06-16T10:04:22Z</time>
      </trkpt>
      <trkpt lat="45.91046" lon="4.67945">
        <ele>374</ele>
        <time>2018-06-16T10:04:24Z</time>
      </trkpt>
      <trkpt lat="45.91049" lon="4.67946">
        <ele>374</ele>
        <time>2018-06-16T10:04:25Z</time>
      </trkpt>
      <trkpt lat="45.91055" lon="4.67948">
        <ele>375</ele>
        <time>2018-06-16T10:04:27Z</time>
      </trkpt>
      <trkpt lat="45.91058" lon="4.67948">
        <ele>375</ele>
        <time>2018-06-16T10:04:28Z</time>
      </trkpt>
      <trkpt lat="45.91064" lon="4.67949">
        <ele>375</ele>
        <time>2018-06-16T10:04:30Z</time>
      </trkpt>
      <trkpt lat="45.91067" lon="4.67949">
        <ele>375</ele>
        <time>2018-06-16T10:04:31Z</time>
      </trkpt>
      <trkpt lat="45.91073" lon="4.67951">
        <ele>375</ele>
        <time>2018-06-16T10:04:33Z</time>
      </trkpt>
      <trkpt lat="45.91076" lon="4.67952">
        <ele>375</ele>
        <time>2018-06-16T10:04:34Z</time>
      </trkpt>
      <trkpt lat="45.91083" lon="4.67954">
        <ele>375</ele>
        <time>2018-06-16T10:04:36Z</time>
      </trkpt>
      <trkpt lat="45.91086" lon="4.67954">
        <ele>376</ele>
        <time>2018-06-16T10:04:37Z</time>
      </trkpt>
      <trkpt lat="45.91092" lon="4.67956">
        <ele>376</ele>
        <time>2018-06-16T10:04:39Z</time>
      </trkpt>
      <trkpt lat="45.91095" lon="4.67958">
        <ele>376</ele>
        <time>2018-06-16T10:04:40Z</time>
      </trkpt>
      <trkpt lat="45.91102" lon="4.6796">
        <ele>377</ele>
        <time>2018-06-16T10:04:42Z</time>
      </trkpt>
      <trkpt lat="45.91105" lon="4.67961">
        <ele>377</ele>
        <time>2018-06-16T10:04:43Z</time>
      </trkpt>
      <trkpt lat="45.91113" lon="4.67964">
        <ele>377</ele>
        <time>2018-06-16T10:04:46Z</time>
      </trkpt>
      <trkpt lat="45.91116" lon="4.67965">
        <ele>377</ele>
        <time>2018-06-16T10:04:47Z</time>
      </trkpt>
      <trkpt lat="45.91122" lon="4.67968">
        <ele>377</ele>
        <time>2018-06-16T10:04:49Z</time>
      </trkpt>
      <trkpt lat="45.91125" lon="4.6797">
        <ele>377</ele>
        <time>2018-06-16T10:04:50Z</time>
      </trkpt>
      <trkpt lat="45.91131" lon="4.67972">
        <ele>377</ele>
        <time>2018-06-16T10:04:52Z</time>
      </trkpt>
      <trkpt lat="45.91134" lon="4.67973">
        <ele>377</ele>
        <time>2018-06-16T10:04:53Z</time>
      </trkpt>
      <trkpt lat="45.9114" lon="4.67976">
        <ele>378</ele>
        <time>2018-06-16T10:04:55Z</time>
      </trkpt>
      <trkpt lat="45.91143" lon="4.67977">
        <ele>378</ele>
        <time>2018-06-16T10:04:56Z</time>
      </trkpt>
      <trkpt lat="45.91149" lon="4.67979">
        <ele>378</ele>
        <time>2018-06-16T10:04:58Z</time>
      </trkpt>
      <trkpt lat="45.91152" lon="4.67981">
        <ele>378</ele>
        <time>2018-06-16T10:04:59Z</time>
      </trkpt>
      <trkpt lat="45.91157" lon="4.67984">
        <ele>379</ele>
        <time>2018-06-16T10:05:01Z</time>
      </trkpt>
      <trkpt lat="45.9116" lon="4.67985">
        <ele>379</ele>
        <time>2018-06-16T10:05:02Z</time>
      </trkpt>
      <trkpt lat="45.91166" lon="4.67989">
        <ele>379</ele>
        <time>2018-06-16T10:05:04Z</time>
      </trkpt>
      <trkpt lat="45.91169" lon="4.67991">
        <ele>380</ele>
        <time>2018-06-16T10:05:05Z</time>
      </trkpt>
      <trkpt lat="45.91177" lon="4.67995">
        <ele>380</ele>
        <time>2018-06-16T10:05:08Z</time>
      </trkpt>
      <trkpt lat="45.9118" lon="4.67997">
        <ele>380</ele>
        <time>2018-06-16T10:05:09Z</time>
      </trkpt>
      <trkpt lat="45.91185" lon="4.68001">
        <ele>382</ele>
        <time>2018-06-16T10:05:11Z</time>
      </trkpt>
      <trkpt lat="45.91188" lon="4.68002">
        <ele>382</ele>
        <time>2018-06-16T10:05:12Z</time>
      </trkpt>
      <trkpt lat="45.91194" lon="4.68006">
        <ele>383</ele>
        <time>2018-06-16T10:05:14Z</time>
      </trkpt>
      <trkpt lat="45.91197" lon="4.68007">
        <ele>383</ele>
        <time>2018-06-16T10:05:15Z</time>
      </trkpt>
      <trkpt lat="45.91203" lon="4.6801">
        <ele>383</ele>
        <time>2018-06-16T10:05:17Z</time>
      </trkpt>
      <trkpt lat="45.91206" lon="4.68011">
        <ele>383</ele>
        <time>2018-06-16T10:05:18Z</time>
      </trkpt>
      <trkpt lat="45.91212" lon="4.68014">
        <ele>383</ele>
        <time>2018-06-16T10:05:20Z</time>
      </trkpt>
      <trkpt lat="45.91215" lon="4.68015">
        <ele>383</ele>
        <time>2018-06-16T10:05:21Z</time>
      </trkpt>
      <trkpt lat="45.91221" lon="4.68018">
        <ele>384</ele>
        <time>2018-06-16T10:05:23Z</time>
      </trkpt>
      <trkpt lat="45.91224" lon="4.68019">
        <ele>384</ele>
        <time>2018-06-16T10:05:24Z</time>
      </trkpt>
      <trkpt lat="45.9123" lon="4.68022">
        <ele>384</ele>
        <time>2018-06-16T10:05:26Z</time>
      </trkpt>
      <trkpt lat="45.91233" lon="4.68024">
        <ele>384</ele>
        <time>2018-06-16T10:05:27Z</time>
      </trkpt>
      <trkpt lat="45.91239" lon="4.68028">
        <ele>384</ele>
        <time>2018-06-16T10:05:29Z</time>
      </trkpt>
      <trkpt lat="45.91242" lon="4.6803">
        <ele>384</ele>
        <time>2018-06-16T10:05:30Z</time>
      </trkpt>
      <trkpt lat="45.91251" lon="4.68036">
        <ele>385</ele>
        <time>2018-06-16T10:05:31Z</time>
      </trkpt>
      <trkpt lat="45.91257" lon="4.68039">
        <ele>385</ele>
        <time>2018-06-16T10:05:34Z</time>
      </trkpt>
      <trkpt lat="45.9126" lon="4.6804">
        <ele>385</ele>
        <time>2018-06-16T10:05:35Z</time>
      </trkpt>
      <trkpt lat="45.91266" lon="4.68043">
        <ele>385</ele>
        <time>2018-06-16T10:05:37Z</time>
      </trkpt>
      <trkpt lat="45.91269" lon="4.68044">
        <ele>385</ele>
        <time>2018-06-16T10:05:38Z</time>
      </trkpt>
      <trkpt lat="45.91275" lon="4.68046">
        <ele>385</ele>
        <time>2018-06-16T10:05:40Z</time>
      </trkpt>
      <trkpt lat="45.91278" lon="4.68048">
        <ele>385</ele>
        <time>2018-06-16T10:05:41Z</time>
      </trkpt>
      <trkpt lat="45.91284" lon="4.6805">
        <ele>385</ele>
        <time>2018-06-16T10:05:43Z</time>
      </trkpt>
      <trkpt lat="45.91287" lon="4.68052">
        <ele>385</ele>
        <time>2018-06-16T10:05:44Z</time>
      </trkpt>
      <trkpt lat="45.91294" lon="4.68055">
        <ele>385</ele>
        <time>2018-06-16T10:05:46Z</time>
      </trkpt>
      <trkpt lat="45.91297" lon="4.68056">
        <ele>385</ele>
        <time>2018-06-16T10:05:47Z</time>
      </trkpt>
      <trkpt lat="45.91303" lon="4.68059">
        <ele>385</ele>
        <time>2018-06-16T10:05:49Z</time>
      </trkpt>
      <trkpt lat="45.91306" lon="4.68061">
        <ele>385</ele>
        <time>2018-06-16T10:05:50Z</time>
      </trkpt>
      <trkpt lat="45.91309" lon="4.68063">
        <ele>385</ele>
        <time>2018-06-16T10:05:51Z</time>
      </trkpt>
      <trkpt lat="45.91318" lon="4.68069">
        <ele>385</ele>
        <time>2018-06-16T10:05:52Z</time>
      </trkpt>
      <trkpt lat="45.91322" lon="4.68071">
        <ele>385</ele>
        <time>2018-06-16T10:05:54Z</time>
      </trkpt>
      <trkpt lat="45.91328" lon="4.68074">
        <ele>385</ele>
        <time>2018-06-16T10:05:55Z</time>
      </trkpt>
      <trkpt lat="45.91335" lon="4.68078">
        <ele>385</ele>
        <time>2018-06-16T10:05:57Z</time>
      </trkpt>
      <trkpt lat="45.91339" lon="4.68079">
        <ele>385</ele>
        <time>2018-06-16T10:05:58Z</time>
      </trkpt>
      <trkpt lat="45.91347" lon="4.68082">
        <ele>385</ele>
        <time>2018-06-16T10:06:00Z</time>
      </trkpt>
      <trkpt lat="45.91351" lon="4.68083">
        <ele>385</ele>
        <time>2018-06-16T10:06:01Z</time>
      </trkpt>
      <trkpt lat="45.91357" lon="4.68087">
        <ele>386</ele>
        <time>2018-06-16T10:06:03Z</time>
      </trkpt>
      <trkpt lat="45.91361" lon="4.68089">
        <ele>386</ele>
        <time>2018-06-16T10:06:04Z</time>
      </trkpt>
      <trkpt lat="45.91369" lon="4.68091">
        <ele>386</ele>
        <time>2018-06-16T10:06:06Z</time>
      </trkpt>
      <trkpt lat="45.91373" lon="4.68092">
        <ele>386</ele>
        <time>2018-06-16T10:06:07Z</time>
      </trkpt>
      <trkpt lat="45.91381" lon="4.68093">
        <ele>386</ele>
        <time>2018-06-16T10:06:09Z</time>
      </trkpt>
      <trkpt lat="45.91383" lon="4.68093">
        <ele>386</ele>
        <time>2018-06-16T10:06:10Z</time>
      </trkpt>
      <trkpt lat="45.91385" lon="4.68094">
        <ele>386</ele>
        <time>2018-06-16T10:06:11Z</time>
      </trkpt>
      <trkpt lat="45.91392" lon="4.68096">
        <ele>386</ele>
        <time>2018-06-16T10:06:12Z</time>
      </trkpt>
      <trkpt lat="45.91398" lon="4.68094">
        <ele>386</ele>
        <time>2018-06-16T10:06:13Z</time>
      </trkpt>
      <trkpt lat="45.91402" lon="4.68094">
        <ele>386</ele>
        <time>2018-06-16T10:06:14Z</time>
      </trkpt>
      <trkpt lat="45.91409" lon="4.68091">
        <ele>386</ele>
        <time>2018-06-16T10:06:16Z</time>
      </trkpt>
      <trkpt lat="45.91414" lon="4.68092">
        <ele>386</ele>
        <time>2018-06-16T10:06:17Z</time>
      </trkpt>
      <trkpt lat="45.91419" lon="4.68092">
        <ele>385</ele>
        <time>2018-06-16T10:06:18Z</time>
      </trkpt>
      <trkpt lat="45.91424" lon="4.68091">
        <ele>385</ele>
        <time>2018-06-16T10:06:19Z</time>
      </trkpt>
      <trkpt lat="45.9143" lon="4.68091">
        <ele>385</ele>
        <time>2018-06-16T10:06:20Z</time>
      </trkpt>
      <trkpt lat="45.91435" lon="4.68092">
        <ele>385</ele>
        <time>2018-06-16T10:06:21Z</time>
      </trkpt>
      <trkpt lat="45.91444" lon="4.68095">
        <ele>384</ele>
        <time>2018-06-16T10:06:23Z</time>
      </trkpt>
      <trkpt lat="45.91451" lon="4.68097">
        <ele>384</ele>
        <time>2018-06-16T10:06:24Z</time>
      </trkpt>
      <trkpt lat="45.91454" lon="4.68098">
        <ele>384</ele>
        <time>2018-06-16T10:06:25Z</time>
      </trkpt>
      <trkpt lat="45.9146" lon="4.681">
        <ele>384</ele>
        <time>2018-06-16T10:06:26Z</time>
      </trkpt>
      <trkpt lat="45.91467" lon="4.68106">
        <ele>384</ele>
        <time>2018-06-16T10:06:28Z</time>
      </trkpt>
      <trkpt lat="45.91472" lon="4.68109">
        <ele>384</ele>
        <time>2018-06-16T10:06:29Z</time>
      </trkpt>
      <trkpt lat="45.9148" lon="4.68114">
        <ele>383</ele>
        <time>2018-06-16T10:06:30Z</time>
      </trkpt>
      <trkpt lat="45.91486" lon="4.68118">
        <ele>383</ele>
        <time>2018-06-16T10:06:31Z</time>
      </trkpt>
      <trkpt lat="45.91491" lon="4.68121">
        <ele>383</ele>
        <time>2018-06-16T10:06:32Z</time>
      </trkpt>
      <trkpt lat="45.91498" lon="4.68123">
        <ele>383</ele>
        <time>2018-06-16T10:06:33Z</time>
      </trkpt>
      <trkpt lat="45.91504" lon="4.68125">
        <ele>380</ele>
        <time>2018-06-16T10:06:34Z</time>
      </trkpt>
      <trkpt lat="45.91509" lon="4.6813">
        <ele>380</ele>
        <time>2018-06-16T10:06:35Z</time>
      </trkpt>
      <trkpt lat="45.91515" lon="4.68133">
        <ele>380</ele>
        <time>2018-06-16T10:06:36Z</time>
      </trkpt>
      <trkpt lat="45.91522" lon="4.68137">
        <ele>380</ele>
        <time>2018-06-16T10:06:37Z</time>
      </trkpt>
      <trkpt lat="45.91531" lon="4.68139">
        <ele>379</ele>
        <time>2018-06-16T10:06:38Z</time>
      </trkpt>
      <trkpt lat="45.91537" lon="4.68143">
        <ele>379</ele>
        <time>2018-06-16T10:06:39Z</time>
      </trkpt>
      <trkpt lat="45.91544" lon="4.68146">
        <ele>379</ele>
        <time>2018-06-16T10:06:40Z</time>
      </trkpt>
      <trkpt lat="45.91551" lon="4.68148">
        <ele>379</ele>
        <time>2018-06-16T10:06:41Z</time>
      </trkpt>
      <trkpt lat="45.9156" lon="4.68151">
        <ele>379</ele>
        <time>2018-06-16T10:06:42Z</time>
      </trkpt>
      <trkpt lat="45.91566" lon="4.68155">
        <ele>378</ele>
        <time>2018-06-16T10:06:43Z</time>
      </trkpt>
      <trkpt lat="45.91573" lon="4.68159">
        <ele>378</ele>
        <time>2018-06-16T10:06:44Z</time>
      </trkpt>
      <trkpt lat="45.91582" lon="4.68165">
        <ele>378</ele>
        <time>2018-06-16T10:06:45Z</time>
      </trkpt>
      <trkpt lat="45.91589" lon="4.6817">
        <ele>377</ele>
        <time>2018-06-16T10:06:46Z</time>
      </trkpt>
      <trkpt lat="45.91596" lon="4.68176">
        <ele>376</ele>
        <time>2018-06-16T10:06:47Z</time>
      </trkpt>
      <trkpt lat="45.91602" lon="4.68181">
        <ele>376</ele>
        <time>2018-06-16T10:06:48Z</time>
      </trkpt>
      <trkpt lat="45.91609" lon="4.68188">
        <ele>376</ele>
        <time>2018-06-16T10:06:49Z</time>
      </trkpt>
      <trkpt lat="45.91615" lon="4.68194">
        <ele>375</ele>
        <time>2018-06-16T10:06:50Z</time>
      </trkpt>
      <trkpt lat="45.91623" lon="4.68199">
        <ele>375</ele>
        <time>2018-06-16T10:06:51Z</time>
      </trkpt>
      <trkpt lat="45.91631" lon="4.68203">
        <ele>375</ele>
        <time>2018-06-16T10:06:52Z</time>
      </trkpt>
      <trkpt lat="45.91638" lon="4.68207">
        <ele>374</ele>
        <time>2018-06-16T10:06:53Z</time>
      </trkpt>
      <trkpt lat="45.91645" lon="4.68213">
        <ele>374</ele>
        <time>2018-06-16T10:06:54Z</time>
      </trkpt>
      <trkpt lat="45.91654" lon="4.68217">
        <ele>374</ele>
        <time>2018-06-16T10:06:55Z</time>
      </trkpt>
      <trkpt lat="45.91661" lon="4.68222">
        <ele>374</ele>
        <time>2018-06-16T10:06:56Z</time>
      </trkpt>
      <trkpt lat="45.91669" lon="4.68227">
        <ele>371</ele>
        <time>2018-06-16T10:06:57Z</time>
      </trkpt>
      <trkpt lat="45.91677" lon="4.68233">
        <ele>371</ele>
        <time>2018-06-16T10:06:58Z</time>
      </trkpt>
      <trkpt lat="45.91683" lon="4.68239">
        <ele>371</ele>
        <time>2018-06-16T10:06:59Z</time>
      </trkpt>
      <trkpt lat="45.9169" lon="4.68244">
        <ele>371</ele>
        <time>2018-06-16T10:07:00Z</time>
      </trkpt>
      <trkpt lat="45.91697" lon="4.68248">
        <ele>371</ele>
        <time>2018-06-16T10:07:01Z</time>
      </trkpt>
      <trkpt lat="45.91705" lon="4.68252">
        <ele>373</ele>
        <time>2018-06-16T10:07:02Z</time>
      </trkpt>
      <trkpt lat="45.91712" lon="4.68256">
        <ele>373</ele>
        <time>2018-06-16T10:07:03Z</time>
      </trkpt>
      <trkpt lat="45.9172" lon="4.68257">
        <ele>372</ele>
        <time>2018-06-16T10:07:04Z</time>
      </trkpt>
      <trkpt lat="45.91727" lon="4.6826">
        <ele>372</ele>
        <time>2018-06-16T10:07:05Z</time>
      </trkpt>
      <trkpt lat="45.91734" lon="4.68261">
        <ele>372</ele>
        <time>2018-06-16T10:07:06Z</time>
      </trkpt>
      <trkpt lat="45.91743" lon="4.68262">
        <ele>371</ele>
        <time>2018-06-16T10:07:07Z</time>
      </trkpt>
      <trkpt lat="45.91749" lon="4.68263">
        <ele>371</ele>
        <time>2018-06-16T10:07:08Z</time>
      </trkpt>
      <trkpt lat="45.91756" lon="4.68265">
        <ele>371</ele>
        <time>2018-06-16T10:07:09Z</time>
      </trkpt>
      <trkpt lat="45.91761" lon="4.68266">
        <ele>372</ele>
        <time>2018-06-16T10:07:10Z</time>
      </trkpt>
      <trkpt lat="45.91766" lon="4.68268">
        <ele>372</ele>
        <time>2018-06-16T10:07:11Z</time>
      </trkpt>
      <trkpt lat="45.91774" lon="4.68271">
        <ele>372</ele>
        <time>2018-06-16T10:07:13Z</time>
      </trkpt>
      <trkpt lat="45.91778" lon="4.68273">
        <ele>372</ele>
        <time>2018-06-16T10:07:14Z</time>
      </trkpt>
      <trkpt lat="45.91786" lon="4.68273">
        <ele>372</ele>
        <time>2018-06-16T10:07:15Z</time>
      </trkpt>
      <trkpt lat="45.9179" lon="4.68274">
        <ele>372</ele>
        <time>2018-06-16T10:07:16Z</time>
      </trkpt>
      <trkpt lat="45.91799" lon="4.68278">
        <ele>373</ele>
        <time>2018-06-16T10:07:20Z</time>
      </trkpt>
      <trkpt lat="45.91806" lon="4.68281">
        <ele>373</ele>
        <time>2018-06-16T10:07:21Z</time>
      </trkpt>
      <trkpt lat="45.91811" lon="4.68282">
        <ele>373</ele>
        <time>2018-06-16T10:07:22Z</time>
      </trkpt>
      <trkpt lat="45.91823" lon="4.68277">
        <ele>372</ele>
        <time>2018-06-16T10:07:23Z</time>
      </trkpt>
      <trkpt lat="45.91829" lon="4.68281">
        <ele>373</ele>
        <time>2018-06-16T10:07:25Z</time>
      </trkpt>
      <trkpt lat="45.91831" lon="4.68285">
        <ele>373</ele>
        <time>2018-06-16T10:07:26Z</time>
      </trkpt>
      <trkpt lat="45.9184" lon="4.68285">
        <ele>375</ele>
        <time>2018-06-16T10:07:28Z</time>
      </trkpt>
      <trkpt lat="45.91842" lon="4.68286">
        <ele>375</ele>
        <time>2018-06-16T10:07:29Z</time>
      </trkpt>
      <trkpt lat="45.91848" lon="4.68287">
        <ele>375</ele>
        <time>2018-06-16T10:07:30Z</time>
      </trkpt>
      <trkpt lat="45.91851" lon="4.68288">
        <ele>375</ele>
        <time>2018-06-16T10:07:31Z</time>
      </trkpt>
      <trkpt lat="45.91856" lon="4.68288">
        <ele>375</ele>
        <time>2018-06-16T10:07:32Z</time>
      </trkpt>
      <trkpt lat="45.9186" lon="4.68287">
        <ele>375</ele>
        <time>2018-06-16T10:07:33Z</time>
      </trkpt>
      <trkpt lat="45.91869" lon="4.68289">
        <ele>375</ele>
        <time>2018-06-16T10:07:37Z</time>
      </trkpt>
      <trkpt lat="45.91874" lon="4.68291">
        <ele>376</ele>
        <time>2018-06-16T10:07:38Z</time>
      </trkpt>
      <trkpt lat="45.91883" lon="4.68292">
        <ele>376</ele>
        <time>2018-06-16T10:07:41Z</time>
      </trkpt>
      <trkpt lat="45.91885" lon="4.68292">
        <ele>376</ele>
        <time>2018-06-16T10:07:42Z</time>
      </trkpt>
      <trkpt lat="45.91889" lon="4.68293">
        <ele>376</ele>
        <time>2018-06-16T10:07:44Z</time>
      </trkpt>
      <trkpt lat="45.91897" lon="4.68294">
        <ele>376</ele>
        <time>2018-06-16T10:07:45Z</time>
      </trkpt>
      <trkpt lat="45.91904" lon="4.68294">
        <ele>377</ele>
        <time>2018-06-16T10:07:48Z</time>
      </trkpt>
      <trkpt lat="45.91907" lon="4.68295">
        <ele>377</ele>
        <time>2018-06-16T10:07:49Z</time>
      </trkpt>
      <trkpt lat="45.91915" lon="4.68297">
        <ele>377</ele>
        <time>2018-06-16T10:07:50Z</time>
      </trkpt>
      <trkpt lat="45.91918" lon="4.68298">
        <ele>379</ele>
        <time>2018-06-16T10:07:51Z</time>
      </trkpt>
      <trkpt lat="45.91926" lon="4.68301">
        <ele>379</ele>
        <time>2018-06-16T10:07:53Z</time>
      </trkpt>
      <trkpt lat="45.91928" lon="4.68301">
        <ele>379</ele>
        <time>2018-06-16T10:07:54Z</time>
      </trkpt>
      <trkpt lat="45.91936" lon="4.68303">
        <ele>379</ele>
        <time>2018-06-16T10:07:57Z</time>
      </trkpt>
      <trkpt lat="45.91945" lon="4.68304">
        <ele>379</ele>
        <time>2018-06-16T10:07:58Z</time>
      </trkpt>
      <trkpt lat="45.91953" lon="4.68305">
        <ele>379</ele>
        <time>2018-06-16T10:08:00Z</time>
      </trkpt>
      <trkpt lat="45.91954" lon="4.68305">
        <ele>379</ele>
        <time>2018-06-16T10:08:01Z</time>
      </trkpt>
      <trkpt lat="45.91962" lon="4.68307">
        <ele>380</ele>
        <time>2018-06-16T10:08:04Z</time>
      </trkpt>
      <trkpt lat="45.91965" lon="4.68307">
        <ele>380</ele>
        <time>2018-06-16T10:08:05Z</time>
      </trkpt>
      <trkpt lat="45.9197" lon="4.68309">
        <ele>380</ele>
        <time>2018-06-16T10:08:07Z</time>
      </trkpt>
      <trkpt lat="45.91974" lon="4.68309">
        <ele>380</ele>
        <time>2018-06-16T10:08:08Z</time>
      </trkpt>
      <trkpt lat="45.91977" lon="4.6831">
        <ele>380</ele>
        <time>2018-06-16T10:08:09Z</time>
      </trkpt>
      <trkpt lat="45.91986" lon="4.68313">
        <ele>380</ele>
        <time>2018-06-16T10:08:10Z</time>
      </trkpt>
      <trkpt lat="45.91993" lon="4.68317">
        <ele>381</ele>
        <time>2018-06-16T10:08:14Z</time>
      </trkpt>
      <trkpt lat="45.91996" lon="4.68318">
        <ele>381</ele>
        <time>2018-06-16T10:08:15Z</time>
      </trkpt>
      <trkpt lat="45.92003" lon="4.68322">
        <ele>381</ele>
        <time>2018-06-16T10:08:16Z</time>
      </trkpt>
      <trkpt lat="45.92005" lon="4.68322">
        <ele>381</ele>
        <time>2018-06-16T10:08:17Z</time>
      </trkpt>
      <trkpt lat="45.92013" lon="4.68323">
        <ele>381</ele>
        <time>2018-06-16T10:08:19Z</time>
      </trkpt>
      <trkpt lat="45.92018" lon="4.68323">
        <ele>380</ele>
        <time>2018-06-16T10:08:20Z</time>
      </trkpt>
      <trkpt lat="45.92027" lon="4.68323">
        <ele>380</ele>
        <time>2018-06-16T10:08:22Z</time>
      </trkpt>
      <trkpt lat="45.92031" lon="4.68324">
        <ele>380</ele>
        <time>2018-06-16T10:08:23Z</time>
      </trkpt>
      <trkpt lat="45.9204" lon="4.68325">
        <ele>380</ele>
        <time>2018-06-16T10:08:25Z</time>
      </trkpt>
      <trkpt lat="45.92044" lon="4.68326">
        <ele>380</ele>
        <time>2018-06-16T10:08:26Z</time>
      </trkpt>
      <trkpt lat="45.92049" lon="4.68326">
        <ele>380</ele>
        <time>2018-06-16T10:08:27Z</time>
      </trkpt>
      <trkpt lat="45.92054" lon="4.68326">
        <ele>380</ele>
        <time>2018-06-16T10:08:28Z</time>
      </trkpt>
      <trkpt lat="45.9206" lon="4.68326">
        <ele>380</ele>
        <time>2018-06-16T10:08:29Z</time>
      </trkpt>
      <trkpt lat="45.92064" lon="4.68326">
        <ele>380</ele>
        <time>2018-06-16T10:08:30Z</time>
      </trkpt>
      <trkpt lat="45.92072" lon="4.68329">
        <ele>381</ele>
        <time>2018-06-16T10:08:32Z</time>
      </trkpt>
      <trkpt lat="45.92077" lon="4.68329">
        <ele>381</ele>
        <time>2018-06-16T10:08:33Z</time>
      </trkpt>
      <trkpt lat="45.92085" lon="4.68331">
        <ele>381</ele>
        <time>2018-06-16T10:08:35Z</time>
      </trkpt>
      <trkpt lat="45.92087" lon="4.68331">
        <ele>381</ele>
        <time>2018-06-16T10:08:36Z</time>
      </trkpt>
      <trkpt lat="45.92093" lon="4.68335">
        <ele>382</ele>
        <time>2018-06-16T10:08:38Z</time>
      </trkpt>
      <trkpt lat="45.92099" lon="4.68336">
        <ele>383</ele>
        <time>2018-06-16T10:08:39Z</time>
      </trkpt>
      <trkpt lat="45.92107" lon="4.6834">
        <ele>383</ele>
        <time>2018-06-16T10:08:41Z</time>
      </trkpt>
      <trkpt lat="45.92112" lon="4.68342">
        <ele>383</ele>
        <time>2018-06-16T10:08:42Z</time>
      </trkpt>
      <trkpt lat="45.92116" lon="4.68345">
        <ele>383</ele>
        <time>2018-06-16T10:08:43Z</time>
      </trkpt>
      <trkpt lat="45.9212" lon="4.68348">
        <ele>383</ele>
        <time>2018-06-16T10:08:44Z</time>
      </trkpt>
      <trkpt lat="45.92128" lon="4.68352">
        <ele>383</ele>
        <time>2018-06-16T10:08:46Z</time>
      </trkpt>
      <trkpt lat="45.92132" lon="4.68355">
        <ele>383</ele>
        <time>2018-06-16T10:08:47Z</time>
      </trkpt>
      <trkpt lat="45.92138" lon="4.68361">
        <ele>383</ele>
        <time>2018-06-16T10:08:49Z</time>
      </trkpt>
      <trkpt lat="45.9214" lon="4.68366">
        <ele>383</ele>
        <time>2018-06-16T10:08:50Z</time>
      </trkpt>
      <trkpt lat="45.92145" lon="4.6837">
        <ele>383</ele>
        <time>2018-06-16T10:08:51Z</time>
      </trkpt>
      <trkpt lat="45.92149" lon="4.68373">
        <ele>383</ele>
        <time>2018-06-16T10:08:52Z</time>
      </trkpt>
      <trkpt lat="45.92153" lon="4.68377">
        <ele>384</ele>
        <time>2018-06-16T10:08:53Z</time>
      </trkpt>
      <trkpt lat="45.92157" lon="4.68382">
        <ele>384</ele>
        <time>2018-06-16T10:08:54Z</time>
      </trkpt>
      <trkpt lat="45.92161" lon="4.68386">
        <ele>384</ele>
        <time>2018-06-16T10:08:55Z</time>
      </trkpt>
      <trkpt lat="45.92164" lon="4.6839">
        <ele>384</ele>
        <time>2018-06-16T10:08:56Z</time>
      </trkpt>
      <trkpt lat="45.9217" lon="4.68399">
        <ele>384</ele>
        <time>2018-06-16T10:08:58Z</time>
      </trkpt>
      <trkpt lat="45.92173" lon="4.68403">
        <ele>384</ele>
        <time>2018-06-16T10:08:59Z</time>
      </trkpt>
      <trkpt lat="45.92177" lon="4.68407">
        <ele>384</ele>
        <time>2018-06-16T10:09:00Z</time>
      </trkpt>
      <trkpt lat="45.9218" lon="4.68412">
        <ele>384</ele>
        <time>2018-06-16T10:09:01Z</time>
      </trkpt>
      <trkpt lat="45.92187" lon="4.68419">
        <ele>386</ele>
        <time>2018-06-16T10:09:03Z</time>
      </trkpt>
      <trkpt lat="45.92192" lon="4.68421">
        <ele>386</ele>
        <time>2018-06-16T10:09:04Z</time>
      </trkpt>
      <trkpt lat="45.92196" lon="4.68424">
        <ele>386</ele>
        <time>2018-06-16T10:09:05Z</time>
      </trkpt>
      <trkpt lat="45.922" lon="4.68425">
        <ele>386</ele>
        <time>2018-06-16T10:09:06Z</time>
      </trkpt>
      <trkpt lat="45.92206" lon="4.68428">
        <ele>386</ele>
        <time>2018-06-16T10:09:07Z</time>
      </trkpt>
      <trkpt lat="45.92209" lon="4.68432">
        <ele>386</ele>
        <time>2018-06-16T10:09:08Z</time>
      </trkpt>
      <trkpt lat="45.92213" lon="4.68435">
        <ele>386</ele>
        <time>2018-06-16T10:09:09Z</time>
      </trkpt>
      <trkpt lat="45.92219" lon="4.68436">
        <ele>386</ele>
        <time>2018-06-16T10:09:10Z</time>
      </trkpt>
      <trkpt lat="45.92225" lon="4.68442">
        <ele>385</ele>
        <time>2018-06-16T10:09:12Z</time>
      </trkpt>
      <trkpt lat="45.92229" lon="4.68445">
        <ele>386</ele>
        <time>2018-06-16T10:09:13Z</time>
      </trkpt>
      <trkpt lat="45.92235" lon="4.68453">
        <ele>386</ele>
        <time>2018-06-16T10:09:15Z</time>
      </trkpt>
      <trkpt lat="45.92238" lon="4.68457">
        <ele>386</ele>
        <time>2018-06-16T10:09:16Z</time>
      </trkpt>
      <trkpt lat="45.92243" lon="4.68461">
        <ele>386</ele>
        <time>2018-06-16T10:09:17Z</time>
      </trkpt>
      <trkpt lat="45.92245" lon="4.68466">
        <ele>386</ele>
        <time>2018-06-16T10:09:18Z</time>
      </trkpt>
      <trkpt lat="45.9225" lon="4.6847">
        <ele>386</ele>
        <time>2018-06-16T10:09:19Z</time>
      </trkpt>
      <trkpt lat="45.92253" lon="4.68475">
        <ele>384</ele>
        <time>2018-06-16T10:09:20Z</time>
      </trkpt>
      <trkpt lat="45.92257" lon="4.6848">
        <ele>384</ele>
        <time>2018-06-16T10:09:21Z</time>
      </trkpt>
      <trkpt lat="45.92262" lon="4.68481">
        <ele>384</ele>
        <time>2018-06-16T10:09:22Z</time>
      </trkpt>
      <trkpt lat="45.92266" lon="4.68484">
        <ele>384</ele>
        <time>2018-06-16T10:09:23Z</time>
      </trkpt>
      <trkpt lat="45.9227" lon="4.68488">
        <ele>384</ele>
        <time>2018-06-16T10:09:24Z</time>
      </trkpt>
      <trkpt lat="45.92275" lon="4.68498">
        <ele>384</ele>
        <time>2018-06-16T10:09:26Z</time>
      </trkpt>
      <trkpt lat="45.92277" lon="4.68502">
        <ele>387</ele>
        <time>2018-06-16T10:09:27Z</time>
      </trkpt>
      <trkpt lat="45.92285" lon="4.68507">
        <ele>387</ele>
        <time>2018-06-16T10:09:29Z</time>
      </trkpt>
      <trkpt lat="45.92287" lon="4.6851">
        <ele>387</ele>
        <time>2018-06-16T10:09:30Z</time>
      </trkpt>
      <trkpt lat="45.92291" lon="4.68513">
        <ele>387</ele>
        <time>2018-06-16T10:09:31Z</time>
      </trkpt>
      <trkpt lat="45.92296" lon="4.68516">
        <ele>387</ele>
        <time>2018-06-16T10:09:32Z</time>
      </trkpt>
      <trkpt lat="45.923" lon="4.6852">
        <ele>387</ele>
        <time>2018-06-16T10:09:33Z</time>
      </trkpt>
      <trkpt lat="45.92306" lon="4.68521">
        <ele>387</ele>
        <time>2018-06-16T10:09:34Z</time>
      </trkpt>
      <trkpt lat="45.9231" lon="4.68525">
        <ele>387</ele>
        <time>2018-06-16T10:09:35Z</time>
      </trkpt>
      <trkpt lat="45.92314" lon="4.68529">
        <ele>387</ele>
        <time>2018-06-16T10:09:36Z</time>
      </trkpt>
      <trkpt lat="45.92322" lon="4.68537">
        <ele>388</ele>
        <time>2018-06-16T10:09:38Z</time>
      </trkpt>
      <trkpt lat="45.92324" lon="4.68541">
        <ele>388</ele>
        <time>2018-06-16T10:09:39Z</time>
      </trkpt>
      <trkpt lat="45.92329" lon="4.68546">
        <ele>388</ele>
        <time>2018-06-16T10:09:41Z</time>
      </trkpt>
      <trkpt lat="45.92335" lon="4.6855">
        <ele>385</ele>
        <time>2018-06-16T10:09:42Z</time>
      </trkpt>
      <trkpt lat="45.92342" lon="4.68555">
        <ele>385</ele>
        <time>2018-06-16T10:09:44Z</time>
      </trkpt>
      <trkpt lat="45.92347" lon="4.68559">
        <ele>385</ele>
        <time>2018-06-16T10:09:45Z</time>
      </trkpt>
      <trkpt lat="45.92351" lon="4.68562">
        <ele>385</ele>
        <time>2018-06-16T10:09:46Z</time>
      </trkpt>
      <trkpt lat="45.92357" lon="4.68564">
        <ele>385</ele>
        <time>2018-06-16T10:09:47Z</time>
      </trkpt>
      <trkpt lat="45.92362" lon="4.68568">
        <ele>385</ele>
        <time>2018-06-16T10:09:48Z</time>
      </trkpt>
      <trkpt lat="45.92365" lon="4.6857">
        <ele>385</ele>
        <time>2018-06-16T10:09:49Z</time>
      </trkpt>
      <trkpt lat="45.9237" lon="4.68573">
        <ele>384</ele>
        <time>2018-06-16T10:09:50Z</time>
      </trkpt>
      <trkpt lat="45.92374" lon="4.68576">
        <ele>384</ele>
        <time>2018-06-16T10:09:51Z</time>
      </trkpt>
      <trkpt lat="45.92377" lon="4.68579">
        <ele>384</ele>
        <time>2018-06-16T10:09:52Z</time>
      </trkpt>
      <trkpt lat="45.92382" lon="4.68582">
        <ele>384</ele>
        <time>2018-06-16T10:09:53Z</time>
      </trkpt>
      <trkpt lat="45.92388" lon="4.68586">
        <ele>386</ele>
        <time>2018-06-16T10:09:54Z</time>
      </trkpt>
      <trkpt lat="45.92393" lon="4.6859">
        <ele>386</ele>
        <time>2018-06-16T10:09:55Z</time>
      </trkpt>
      <trkpt lat="45.92399" lon="4.68591">
        <ele>385</ele>
        <time>2018-06-16T10:09:56Z</time>
      </trkpt>
      <trkpt lat="45.92403" lon="4.68594">
        <ele>385</ele>
        <time>2018-06-16T10:09:57Z</time>
      </trkpt>
      <trkpt lat="45.92406" lon="4.68598">
        <ele>385</ele>
        <time>2018-06-16T10:09:58Z</time>
      </trkpt>
      <trkpt lat="45.92412" lon="4.68601">
        <ele>385</ele>
        <time>2018-06-16T10:09:59Z</time>
      </trkpt>
      <trkpt lat="45.92417" lon="4.68604">
        <ele>385</ele>
        <time>2018-06-16T10:10:00Z</time>
      </trkpt>
      <trkpt lat="45.92422" lon="4.68608">
        <ele>381</ele>
        <time>2018-06-16T10:10:01Z</time>
      </trkpt>
      <trkpt lat="45.92428" lon="4.68611">
        <ele>381</ele>
        <time>2018-06-16T10:10:02Z</time>
      </trkpt>
      <trkpt lat="45.92433" lon="4.68614">
        <ele>381</ele>
        <time>2018-06-16T10:10:03Z</time>
      </trkpt>
      <trkpt lat="45.92439" lon="4.68617">
        <ele>381</ele>
        <time>2018-06-16T10:10:04Z</time>
      </trkpt>
      <trkpt lat="45.92445" lon="4.6862">
        <ele>381</ele>
        <time>2018-06-16T10:10:05Z</time>
      </trkpt>
      <trkpt lat="45.9245" lon="4.68625">
        <ele>380</ele>
        <time>2018-06-16T10:10:06Z</time>
      </trkpt>
      <trkpt lat="45.92457" lon="4.68627">
        <ele>380</ele>
        <time>2018-06-16T10:10:07Z</time>
      </trkpt>
      <trkpt lat="45.92464" lon="4.68629">
        <ele>380</ele>
        <time>2018-06-16T10:10:08Z</time>
      </trkpt>
      <trkpt lat="45.92474" lon="4.68629">
        <ele>379</ele>
        <time>2018-06-16T10:10:09Z</time>
      </trkpt>
      <trkpt lat="45.92481" lon="4.68632">
        <ele>379</ele>
        <time>2018-06-16T10:10:10Z</time>
      </trkpt>
      <trkpt lat="45.92488" lon="4.68635">
        <ele>379</ele>
        <time>2018-06-16T10:10:11Z</time>
      </trkpt>
      <trkpt lat="45.92494" lon="4.68638">
        <ele>379</ele>
        <time>2018-06-16T10:10:12Z</time>
      </trkpt>
      <trkpt lat="45.92501" lon="4.68641">
        <ele>375</ele>
        <time>2018-06-16T10:10:13Z</time>
      </trkpt>
      <trkpt lat="45.92507" lon="4.68644">
        <ele>376</ele>
        <time>2018-06-16T10:10:14Z</time>
      </trkpt>
      <trkpt lat="45.92514" lon="4.68646">
        <ele>375</ele>
        <time>2018-06-16T10:10:15Z</time>
      </trkpt>
      <trkpt lat="45.92519" lon="4.68649">
        <ele>375</ele>
        <time>2018-06-16T10:10:16Z</time>
      </trkpt>
      <trkpt lat="45.92525" lon="4.68651">
        <ele>375</ele>
        <time>2018-06-16T10:10:17Z</time>
      </trkpt>
      <trkpt lat="45.92532" lon="4.68652">
        <ele>375</ele>
        <time>2018-06-16T10:10:18Z</time>
      </trkpt>
      <trkpt lat="45.92538" lon="4.68653">
        <ele>375</ele>
        <time>2018-06-16T10:10:19Z</time>
      </trkpt>
      <trkpt lat="45.92546" lon="4.68655">
        <ele>374</ele>
        <time>2018-06-16T10:10:20Z</time>
      </trkpt>
      <trkpt lat="45.92553" lon="4.68655">
        <ele>374</ele>
        <time>2018-06-16T10:10:21Z</time>
      </trkpt>
      <trkpt lat="45.92557" lon="4.68655">
        <ele>374</ele>
        <time>2018-06-16T10:10:22Z</time>
      </trkpt>
      <trkpt lat="45.92562" lon="4.68653">
        <ele>374</ele>
        <time>2018-06-16T10:10:23Z</time>
      </trkpt>
      <trkpt lat="45.92567" lon="4.6865">
        <ele>374</ele>
        <time>2018-06-16T10:10:24Z</time>
      </trkpt>
      <trkpt lat="45.92572" lon="4.68647">
        <ele>374</ele>
        <time>2018-06-16T10:10:25Z</time>
      </trkpt>
      <trkpt lat="45.92575" lon="4.68645">
        <ele>374</ele>
        <time>2018-06-16T10:10:26Z</time>
      </trkpt>
      <trkpt lat="45.92581" lon="4.68642">
        <ele>373</ele>
        <time>2018-06-16T10:10:27Z</time>
      </trkpt>
      <trkpt lat="45.92585" lon="4.68639">
        <ele>370</ele>
        <time>2018-06-16T10:10:28Z</time>
      </trkpt>
      <trkpt lat="45.9259" lon="4.68637">
        <ele>370</ele>
        <time>2018-06-16T10:10:29Z</time>
      </trkpt>
      <trkpt lat="45.92597" lon="4.68634">
        <ele>370</ele>
        <time>2018-06-16T10:10:32Z</time>
      </trkpt>
      <trkpt lat="45.92602" lon="4.68633">
        <ele>369</ele>
        <time>2018-06-16T10:10:33Z</time>
      </trkpt>
      <trkpt lat="45.92611" lon="4.68635">
        <ele>369</ele>
        <time>2018-06-16T10:10:39Z</time>
      </trkpt>
      <trkpt lat="45.92613" lon="4.68634">
        <ele>369</ele>
        <time>2018-06-16T10:10:40Z</time>
      </trkpt>
      <trkpt lat="45.92619" lon="4.68631">
        <ele>369</ele>
        <time>2018-06-16T10:10:42Z</time>
      </trkpt>
      <trkpt lat="45.92627" lon="4.68627">
        <ele>368</ele>
        <time>2018-06-16T10:10:43Z</time>
      </trkpt>
      <trkpt lat="45.92635" lon="4.68623">
        <ele>368</ele>
        <time>2018-06-16T10:10:45Z</time>
      </trkpt>
      <trkpt lat="45.92643" lon="4.68617">
        <ele>367</ele>
        <time>2018-06-16T10:10:46Z</time>
      </trkpt>
      <trkpt lat="45.92647" lon="4.68615">
        <ele>367</ele>
        <time>2018-06-16T10:10:47Z</time>
      </trkpt>
      <trkpt lat="45.92652" lon="4.68612">
        <ele>367</ele>
        <time>2018-06-16T10:10:48Z</time>
      </trkpt>
      <trkpt lat="45.92657" lon="4.68609">
        <ele>367</ele>
        <time>2018-06-16T10:10:49Z</time>
      </trkpt>
      <trkpt lat="45.92661" lon="4.68607">
        <ele>367</ele>
        <time>2018-06-16T10:10:50Z</time>
      </trkpt>
      <trkpt lat="45.92667" lon="4.68605">
        <ele>364</ele>
        <time>2018-06-16T10:10:51Z</time>
      </trkpt>
      <trkpt lat="45.92672" lon="4.68601">
        <ele>364</ele>
        <time>2018-06-16T10:10:52Z</time>
      </trkpt>
      <trkpt lat="45.92677" lon="4.68599">
        <ele>364</ele>
        <time>2018-06-16T10:10:53Z</time>
      </trkpt>
      <trkpt lat="45.92683" lon="4.68598">
        <ele>364</ele>
        <time>2018-06-16T10:10:54Z</time>
      </trkpt>
      <trkpt lat="45.92688" lon="4.68596">
        <ele>364</ele>
        <time>2018-06-16T10:10:55Z</time>
      </trkpt>
      <trkpt lat="45.92694" lon="4.68593">
        <ele>364</ele>
        <time>2018-06-16T10:10:56Z</time>
      </trkpt>
      <trkpt lat="45.92699" lon="4.68591">
        <ele>364</ele>
        <time>2018-06-16T10:10:57Z</time>
      </trkpt>
      <trkpt lat="45.92704" lon="4.68589">
        <ele>364</ele>
        <time>2018-06-16T10:10:58Z</time>
      </trkpt>
      <trkpt lat="45.92711" lon="4.68586">
        <ele>364</ele>
        <time>2018-06-16T10:10:59Z</time>
      </trkpt>
      <trkpt lat="45.92716" lon="4.68584">
        <ele>364</ele>
        <time>2018-06-16T10:11:00Z</time>
      </trkpt>
      <trkpt lat="45.92722" lon="4.68581">
        <ele>366</ele>
        <time>2018-06-16T10:11:01Z</time>
      </trkpt>
      <trkpt lat="45.92727" lon="4.68579">
        <ele>366</ele>
        <time>2018-06-16T10:11:02Z</time>
      </trkpt>
      <trkpt lat="45.92733" lon="4.68577">
        <ele>366</ele>
        <time>2018-06-16T10:11:03Z</time>
      </trkpt>
      <trkpt lat="45.92738" lon="4.68576">
        <ele>366</ele>
        <time>2018-06-16T10:11:04Z</time>
      </trkpt>
      <trkpt lat="45.92743" lon="4.68575">
        <ele>366</ele>
        <time>2018-06-16T10:11:05Z</time>
      </trkpt>
      <trkpt lat="45.92748" lon="4.68574">
        <ele>366</ele>
        <time>2018-06-16T10:11:06Z</time>
      </trkpt>
      <trkpt lat="45.92753" lon="4.68573">
        <ele>366</ele>
        <time>2018-06-16T10:11:07Z</time>
      </trkpt>
      <trkpt lat="45.92759" lon="4.68573">
        <ele>366</ele>
        <time>2018-06-16T10:11:08Z</time>
      </trkpt>
      <trkpt lat="45.92764" lon="4.68574">
        <ele>365</ele>
        <time>2018-06-16T10:11:09Z</time>
      </trkpt>
      <trkpt lat="45.9277" lon="4.68574">
        <ele>365</ele>
        <time>2018-06-16T10:11:10Z</time>
      </trkpt>
      <trkpt lat="45.9278" lon="4.68573">
        <ele>365</ele>
        <time>2018-06-16T10:11:11Z</time>
      </trkpt>
      <trkpt lat="45.92787" lon="4.68574">
        <ele>365</ele>
        <time>2018-06-16T10:11:12Z</time>
      </trkpt>
      <trkpt lat="45.92793" lon="4.68575">
        <ele>364</ele>
        <time>2018-06-16T10:11:13Z</time>
      </trkpt>
      <trkpt lat="45.928" lon="4.68576">
        <ele>364</ele>
        <time>2018-06-16T10:11:14Z</time>
      </trkpt>
      <trkpt lat="45.92807" lon="4.68577">
        <ele>364</ele>
        <time>2018-06-16T10:11:15Z</time>
      </trkpt>
      <trkpt lat="45.92812" lon="4.68578">
        <ele>363</ele>
        <time>2018-06-16T10:11:16Z</time>
      </trkpt>
      <trkpt lat="45.92819" lon="4.68579">
        <ele>363</ele>
        <time>2018-06-16T10:11:17Z</time>
      </trkpt>
      <trkpt lat="45.92827" lon="4.68579">
        <ele>362</ele>
        <time>2018-06-16T10:11:18Z</time>
      </trkpt>
      <trkpt lat="45.92834" lon="4.68581">
        <ele>361</ele>
        <time>2018-06-16T10:11:19Z</time>
      </trkpt>
      <trkpt lat="45.92841" lon="4.68582">
        <ele>361</ele>
        <time>2018-06-16T10:11:20Z</time>
      </trkpt>
      <trkpt lat="45.92847" lon="4.68584">
        <ele>360</ele>
        <time>2018-06-16T10:11:21Z</time>
      </trkpt>
      <trkpt lat="45.92852" lon="4.68589">
        <ele>359</ele>
        <time>2018-06-16T10:11:22Z</time>
      </trkpt>
      <trkpt lat="45.92859" lon="4.6859">
        <ele>359</ele>
        <time>2018-06-16T10:11:23Z</time>
      </trkpt>
      <trkpt lat="45.92865" lon="4.68591">
        <ele>359</ele>
        <time>2018-06-16T10:11:24Z</time>
      </trkpt>
      <trkpt lat="45.92872" lon="4.68592">
        <ele>359</ele>
        <time>2018-06-16T10:11:25Z</time>
      </trkpt>
      <trkpt lat="45.92879" lon="4.68591">
        <ele>358</ele>
        <time>2018-06-16T10:11:26Z</time>
      </trkpt>
      <trkpt lat="45.92886" lon="4.68592">
        <ele>358</ele>
        <time>2018-06-16T10:11:27Z</time>
      </trkpt>
      <trkpt lat="45.92892" lon="4.68593">
        <ele>358</ele>
        <time>2018-06-16T10:11:28Z</time>
      </trkpt>
      <trkpt lat="45.92899" lon="4.68594">
        <ele>358</ele>
        <time>2018-06-16T10:11:29Z</time>
      </trkpt>
      <trkpt lat="45.92906" lon="4.68596">
        <ele>358</ele>
        <time>2018-06-16T10:11:30Z</time>
      </trkpt>
      <trkpt lat="45.92913" lon="4.68597">
        <ele>358</ele>
        <time>2018-06-16T10:11:31Z</time>
      </trkpt>
      <trkpt lat="45.9292" lon="4.68598">
        <ele>359</ele>
        <time>2018-06-16T10:11:32Z</time>
      </trkpt>
      <trkpt lat="45.92928" lon="4.68599">
        <ele>359</ele>
        <time>2018-06-16T10:11:33Z</time>
      </trkpt>
      <trkpt lat="45.92936" lon="4.68601">
        <ele>358</ele>
        <time>2018-06-16T10:11:34Z</time>
      </trkpt>
      <trkpt lat="45.92943" lon="4.68603">
        <ele>358</ele>
        <time>2018-06-16T10:11:35Z</time>
      </trkpt>
      <trkpt lat="45.9295" lon="4.68604">
        <ele>358</ele>
        <time>2018-06-16T10:11:36Z</time>
      </trkpt>
      <trkpt lat="45.92956" lon="4.68604">
        <ele>358</ele>
        <time>2018-06-16T10:11:37Z</time>
      </trkpt>
      <trkpt lat="45.92963" lon="4.68608">
        <ele>358</ele>
        <time>2018-06-16T10:11:38Z</time>
      </trkpt>
      <trkpt lat="45.92974" lon="4.6861">
        <ele>358</ele>
        <time>2018-06-16T10:11:39Z</time>
      </trkpt>
      <trkpt lat="45.92987" lon="4.68608">
        <ele>358</ele>
        <time>2018-06-16T10:11:40Z</time>
      </trkpt>
      <trkpt lat="45.92994" lon="4.6861">
        <ele>358</ele>
        <time>2018-06-16T10:11:41Z</time>
      </trkpt>
      <trkpt lat="45.93002" lon="4.68612">
        <ele>356</ele>
        <time>2018-06-16T10:11:42Z</time>
      </trkpt>
      <trkpt lat="45.9301" lon="4.68613">
        <ele>356</ele>
        <time>2018-06-16T10:11:43Z</time>
      </trkpt>
      <trkpt lat="45.93014" lon="4.68616">
        <ele>356</ele>
        <time>2018-06-16T10:11:44Z</time>
      </trkpt>
      <trkpt lat="45.93021" lon="4.68616">
        <ele>356</ele>
        <time>2018-06-16T10:11:45Z</time>
      </trkpt>
      <trkpt lat="45.93028" lon="4.68617">
        <ele>355</ele>
        <time>2018-06-16T10:11:46Z</time>
      </trkpt>
      <trkpt lat="45.93036" lon="4.68618">
        <ele>355</ele>
        <time>2018-06-16T10:11:47Z</time>
      </trkpt>
      <trkpt lat="45.93045" lon="4.68619">
        <ele>355</ele>
        <time>2018-06-16T10:11:48Z</time>
      </trkpt>
      <trkpt lat="45.93053" lon="4.68619">
        <ele>354</ele>
        <time>2018-06-16T10:11:49Z</time>
      </trkpt>
      <trkpt lat="45.9306" lon="4.68621">
        <ele>354</ele>
        <time>2018-06-16T10:11:50Z</time>
      </trkpt>
      <trkpt lat="45.93067" lon="4.68623">
        <ele>354</ele>
        <time>2018-06-16T10:11:51Z</time>
      </trkpt>
      <trkpt lat="45.93075" lon="4.68625">
        <ele>353</ele>
        <time>2018-06-16T10:11:52Z</time>
      </trkpt>
      <trkpt lat="45.93081" lon="4.68627">
        <ele>353</ele>
        <time>2018-06-16T10:11:53Z</time>
      </trkpt>
      <trkpt lat="45.93089" lon="4.68629">
        <ele>349</ele>
        <time>2018-06-16T10:11:54Z</time>
      </trkpt>
      <trkpt lat="45.93096" lon="4.6863">
        <ele>349</ele>
        <time>2018-06-16T10:11:55Z</time>
      </trkpt>
      <trkpt lat="45.93101" lon="4.68633">
        <ele>349</ele>
        <time>2018-06-16T10:11:56Z</time>
      </trkpt>
      <trkpt lat="45.93112" lon="4.68632">
        <ele>348</ele>
        <time>2018-06-16T10:11:57Z</time>
      </trkpt>
      <trkpt lat="45.9312" lon="4.68634">
        <ele>348</ele>
        <time>2018-06-16T10:11:58Z</time>
      </trkpt>
      <trkpt lat="45.93126" lon="4.68636">
        <ele>348</ele>
        <time>2018-06-16T10:11:59Z</time>
      </trkpt>
      <trkpt lat="45.93134" lon="4.68637">
        <ele>347</ele>
        <time>2018-06-16T10:12:00Z</time>
      </trkpt>
      <trkpt lat="45.93141" lon="4.6864">
        <ele>347</ele>
        <time>2018-06-16T10:12:01Z</time>
      </trkpt>
      <trkpt lat="45.93149" lon="4.68642">
        <ele>347</ele>
        <time>2018-06-16T10:12:02Z</time>
      </trkpt>
      <trkpt lat="45.93157" lon="4.68645">
        <ele>347</ele>
        <time>2018-06-16T10:12:03Z</time>
      </trkpt>
      <trkpt lat="45.93167" lon="4.68648">
        <ele>347</ele>
        <time>2018-06-16T10:12:04Z</time>
      </trkpt>
      <trkpt lat="45.93175" lon="4.6865">
        <ele>345</ele>
        <time>2018-06-16T10:12:05Z</time>
      </trkpt>
      <trkpt lat="45.93183" lon="4.68654">
        <ele>345</ele>
        <time>2018-06-16T10:12:06Z</time>
      </trkpt>
      <trkpt lat="45.93191" lon="4.68657">
        <ele>345</ele>
        <time>2018-06-16T10:12:07Z</time>
      </trkpt>
      <trkpt lat="45.932" lon="4.68659">
        <ele>344</ele>
        <time>2018-06-16T10:12:08Z</time>
      </trkpt>
      <trkpt lat="45.93207" lon="4.68661">
        <ele>344</ele>
        <time>2018-06-16T10:12:09Z</time>
      </trkpt>
      <trkpt lat="45.93216" lon="4.68663">
        <ele>344</ele>
        <time>2018-06-16T10:12:10Z</time>
      </trkpt>
      <trkpt lat="45.93223" lon="4.68665">
        <ele>344</ele>
        <time>2018-06-16T10:12:11Z</time>
      </trkpt>
      <trkpt lat="45.93231" lon="4.68667">
        <ele>345</ele>
        <time>2018-06-16T10:12:12Z</time>
      </trkpt>
      <trkpt lat="45.93239" lon="4.68668">
        <ele>344</ele>
        <time>2018-06-16T10:12:13Z</time>
      </trkpt>
      <trkpt lat="45.93248" lon="4.68669">
        <ele>344</ele>
        <time>2018-06-16T10:12:14Z</time>
      </trkpt>
      <trkpt lat="45.93256" lon="4.68671">
        <ele>344</ele>
        <time>2018-06-16T10:12:15Z</time>
      </trkpt>
      <trkpt lat="45.93263" lon="4.68673">
        <ele>344</ele>
        <time>2018-06-16T10:12:16Z</time>
      </trkpt>
      <trkpt lat="45.93271" lon="4.68674">
        <ele>344</ele>
        <time>2018-06-16T10:12:17Z</time>
      </trkpt>
      <trkpt lat="45.93277" lon="4.68676">
        <ele>344</ele>
        <time>2018-06-16T10:12:18Z</time>
      </trkpt>
      <trkpt lat="45.93284" lon="4.68678">
        <ele>344</ele>
        <time>2018-06-16T10:12:19Z</time>
      </trkpt>
      <trkpt lat="45.93292" lon="4.68678">
        <ele>344</ele>
        <time>2018-06-16T10:12:20Z</time>
      </trkpt>
      <trkpt lat="45.93298" lon="4.68681">
        <ele>344</ele>
        <time>2018-06-16T10:12:21Z</time>
      </trkpt>
      <trkpt lat="45.93304" lon="4.68683">
        <ele>344</ele>
        <time>2018-06-16T10:12:22Z</time>
      </trkpt>
      <trkpt lat="45.9331" lon="4.68684">
        <ele>344</ele>
        <time>2018-06-16T10:12:23Z</time>
      </trkpt>
      <trkpt lat="45.93316" lon="4.68685">
        <ele>344</ele>
        <time>2018-06-16T10:12:24Z</time>
      </trkpt>
      <trkpt lat="45.93322" lon="4.68686">
        <ele>344</ele>
        <time>2018-06-16T10:12:25Z</time>
      </trkpt>
      <trkpt lat="45.93326" lon="4.68688">
        <ele>344</ele>
        <time>2018-06-16T10:12:26Z</time>
      </trkpt>
      <trkpt lat="45.93333" lon="4.6869">
        <ele>344</ele>
        <time>2018-06-16T10:12:27Z</time>
      </trkpt>
      <trkpt lat="45.93338" lon="4.6869">
        <ele>344</ele>
        <time>2018-06-16T10:12:28Z</time>
      </trkpt>
      <trkpt lat="45.93342" lon="4.68692">
        <ele>344</ele>
        <time>2018-06-16T10:12:29Z</time>
      </trkpt>
      <trkpt lat="45.93348" lon="4.68695">
        <ele>344</ele>
        <time>2018-06-16T10:12:30Z</time>
      </trkpt>
      <trkpt lat="45.93353" lon="4.68697">
        <ele>344</ele>
        <time>2018-06-16T10:12:31Z</time>
      </trkpt>
      <trkpt lat="45.93359" lon="4.68698">
        <ele>344</ele>
        <time>2018-06-16T10:12:32Z</time>
      </trkpt>
      <trkpt lat="45.93366" lon="4.68699">
        <ele>344</ele>
        <time>2018-06-16T10:12:33Z</time>
      </trkpt>
      <trkpt lat="45.93371" lon="4.687">
        <ele>344</ele>
        <time>2018-06-16T10:12:34Z</time>
      </trkpt>
      <trkpt lat="45.93378" lon="4.68702">
        <ele>344</ele>
        <time>2018-06-16T10:12:35Z</time>
      </trkpt>
      <trkpt lat="45.93383" lon="4.68703">
        <ele>344</ele>
        <time>2018-06-16T10:12:36Z</time>
      </trkpt>
      <trkpt lat="45.9339" lon="4.68704">
        <ele>344</ele>
        <time>2018-06-16T10:12:37Z</time>
      </trkpt>
      <trkpt lat="45.93394" lon="4.68706">
        <ele>344</ele>
        <time>2018-06-16T10:12:38Z</time>
      </trkpt>
      <trkpt lat="45.934" lon="4.68706">
        <ele>344</ele>
        <time>2018-06-16T10:12:39Z</time>
      </trkpt>
      <trkpt lat="45.93406" lon="4.68709">
        <ele>343</ele>
        <time>2018-06-16T10:12:40Z</time>
      </trkpt>
      <trkpt lat="45.93414" lon="4.6871">
        <ele>343</ele>
        <time>2018-06-16T10:12:42Z</time>
      </trkpt>
      <trkpt lat="45.93419" lon="4.68712">
        <ele>343</ele>
        <time>2018-06-16T10:12:43Z</time>
      </trkpt>
      <trkpt lat="45.93424" lon="4.68712">
        <ele>343</ele>
        <time>2018-06-16T10:12:44Z</time>
      </trkpt>
      <trkpt lat="45.93429" lon="4.68714">
        <ele>343</ele>
        <time>2018-06-16T10:12:45Z</time>
      </trkpt>
      <trkpt lat="45.93434" lon="4.68716">
        <ele>343</ele>
        <time>2018-06-16T10:12:46Z</time>
      </trkpt>
      <trkpt lat="45.93439" lon="4.68718">
        <ele>343</ele>
        <time>2018-06-16T10:12:47Z</time>
      </trkpt>
      <trkpt lat="45.93446" lon="4.68719">
        <ele>343</ele>
        <time>2018-06-16T10:12:48Z</time>
      </trkpt>
      <trkpt lat="45.93452" lon="4.6872">
        <ele>342</ele>
        <time>2018-06-16T10:12:49Z</time>
      </trkpt>
      <trkpt lat="45.93461" lon="4.68721">
        <ele>342</ele>
        <time>2018-06-16T10:12:50Z</time>
      </trkpt>
      <trkpt lat="45.93468" lon="4.68723">
        <ele>342</ele>
        <time>2018-06-16T10:12:51Z</time>
      </trkpt>
      <trkpt lat="45.93473" lon="4.68726">
        <ele>342</ele>
        <time>2018-06-16T10:12:52Z</time>
      </trkpt>
      <trkpt lat="45.93478" lon="4.68727">
        <ele>342</ele>
        <time>2018-06-16T10:12:53Z</time>
      </trkpt>
      <trkpt lat="45.93482" lon="4.68729">
        <ele>342</ele>
        <time>2018-06-16T10:12:54Z</time>
      </trkpt>
      <trkpt lat="45.93486" lon="4.68731">
        <ele>342</ele>
        <time>2018-06-16T10:12:55Z</time>
      </trkpt>
      <trkpt lat="45.93492" lon="4.68733">
        <ele>342</ele>
        <time>2018-06-16T10:12:56Z</time>
      </trkpt>
      <trkpt lat="45.93497" lon="4.68735">
        <ele>342</ele>
        <time>2018-06-16T10:12:57Z</time>
      </trkpt>
      <trkpt lat="45.93503" lon="4.68736">
        <ele>342</ele>
        <time>2018-06-16T10:12:58Z</time>
      </trkpt>
      <trkpt lat="45.93508" lon="4.68736">
        <ele>342</ele>
        <time>2018-06-16T10:12:59Z</time>
      </trkpt>
      <trkpt lat="45.93514" lon="4.68738">
        <ele>342</ele>
        <time>2018-06-16T10:13:00Z</time>
      </trkpt>
      <trkpt lat="45.93518" lon="4.6874">
        <ele>342</ele>
        <time>2018-06-16T10:13:01Z</time>
      </trkpt>
      <trkpt lat="45.93524" lon="4.68742">
        <ele>342</ele>
        <time>2018-06-16T10:13:02Z</time>
      </trkpt>
      <trkpt lat="45.93528" lon="4.68742">
        <ele>342</ele>
        <time>2018-06-16T10:13:03Z</time>
      </trkpt>
      <trkpt lat="45.93533" lon="4.68744">
        <ele>342</ele>
        <time>2018-06-16T10:13:04Z</time>
      </trkpt>
      <trkpt lat="45.93538" lon="4.68746">
        <ele>342</ele>
        <time>2018-06-16T10:13:05Z</time>
      </trkpt>
      <trkpt lat="45.93543" lon="4.68746">
        <ele>342</ele>
        <time>2018-06-16T10:13:06Z</time>
      </trkpt>
      <trkpt lat="45.9355" lon="4.68747">
        <ele>342</ele>
        <time>2018-06-16T10:13:07Z</time>
      </trkpt>
      <trkpt lat="45.93558" lon="4.68747">
        <ele>342</ele>
        <time>2018-06-16T10:13:08Z</time>
      </trkpt>
      <trkpt lat="45.93563" lon="4.68748">
        <ele>343</ele>
        <time>2018-06-16T10:13:09Z</time>
      </trkpt>
      <trkpt lat="45.9357" lon="4.68749">
        <ele>343</ele>
        <time>2018-06-16T10:13:10Z</time>
      </trkpt>
      <trkpt lat="45.93576" lon="4.68751">
        <ele>344</ele>
        <time>2018-06-16T10:13:11Z</time>
      </trkpt>
      <trkpt lat="45.93582" lon="4.68752">
        <ele>344</ele>
        <time>2018-06-16T10:13:12Z</time>
      </trkpt>
      <trkpt lat="45.93587" lon="4.68755">
        <ele>344</ele>
        <time>2018-06-16T10:13:13Z</time>
      </trkpt>
      <trkpt lat="45.93593" lon="4.68756">
        <ele>344</ele>
        <time>2018-06-16T10:13:14Z</time>
      </trkpt>
      <trkpt lat="45.93599" lon="4.68757">
        <ele>344</ele>
        <time>2018-06-16T10:13:15Z</time>
      </trkpt>
      <trkpt lat="45.93602" lon="4.68759">
        <ele>344</ele>
        <time>2018-06-16T10:13:16Z</time>
      </trkpt>
      <trkpt lat="45.93607" lon="4.6876">
        <ele>344</ele>
        <time>2018-06-16T10:13:17Z</time>
      </trkpt>
      <trkpt lat="45.93616" lon="4.68759">
        <ele>343</ele>
        <time>2018-06-16T10:13:18Z</time>
      </trkpt>
      <trkpt lat="45.93618" lon="4.68763">
        <ele>343</ele>
        <time>2018-06-16T10:13:19Z</time>
      </trkpt>
      <trkpt lat="45.93627" lon="4.68761">
        <ele>343</ele>
        <time>2018-06-16T10:13:20Z</time>
      </trkpt>
      <trkpt lat="45.93632" lon="4.68764">
        <ele>343</ele>
        <time>2018-06-16T10:13:21Z</time>
      </trkpt>
      <trkpt lat="45.93637" lon="4.68768">
        <ele>343</ele>
        <time>2018-06-16T10:13:22Z</time>
      </trkpt>
      <trkpt lat="45.93642" lon="4.6877">
        <ele>343</ele>
        <time>2018-06-16T10:13:23Z</time>
      </trkpt>
      <trkpt lat="45.93647" lon="4.68772">
        <ele>343</ele>
        <time>2018-06-16T10:13:24Z</time>
      </trkpt>
      <trkpt lat="45.93653" lon="4.68773">
        <ele>343</ele>
        <time>2018-06-16T10:13:25Z</time>
      </trkpt>
      <trkpt lat="45.93658" lon="4.68774">
        <ele>343</ele>
        <time>2018-06-16T10:13:26Z</time>
      </trkpt>
      <trkpt lat="45.93664" lon="4.68772">
        <ele>343</ele>
        <time>2018-06-16T10:13:27Z</time>
      </trkpt>
      <trkpt lat="45.9367" lon="4.68774">
        <ele>342</ele>
        <time>2018-06-16T10:13:28Z</time>
      </trkpt>
      <trkpt lat="45.93676" lon="4.68776">
        <ele>342</ele>
        <time>2018-06-16T10:13:29Z</time>
      </trkpt>
      <trkpt lat="45.93683" lon="4.68776">
        <ele>342</ele>
        <time>2018-06-16T10:13:30Z</time>
      </trkpt>
      <trkpt lat="45.93688" lon="4.68777">
        <ele>342</ele>
        <time>2018-06-16T10:13:31Z</time>
      </trkpt>
      <trkpt lat="45.93694" lon="4.6878">
        <ele>342</ele>
        <time>2018-06-16T10:13:32Z</time>
      </trkpt>
      <trkpt lat="45.93701" lon="4.68781">
        <ele>342</ele>
        <time>2018-06-16T10:13:33Z</time>
      </trkpt>
      <trkpt lat="45.93707" lon="4.68782">
        <ele>342</ele>
        <time>2018-06-16T10:13:34Z</time>
      </trkpt>
      <trkpt lat="45.93713" lon="4.68784">
        <ele>342</ele>
        <time>2018-06-16T10:13:35Z</time>
      </trkpt>
      <trkpt lat="45.93718" lon="4.68786">
        <ele>342</ele>
        <time>2018-06-16T10:13:36Z</time>
      </trkpt>
      <trkpt lat="45.93723" lon="4.68788">
        <ele>342</ele>
        <time>2018-06-16T10:13:37Z</time>
      </trkpt>
      <trkpt lat="45.93728" lon="4.6879">
        <ele>342</ele>
        <time>2018-06-16T10:13:38Z</time>
      </trkpt>
      <trkpt lat="45.93734" lon="4.68794">
        <ele>342</ele>
        <time>2018-06-16T10:13:39Z</time>
      </trkpt>
      <trkpt lat="45.93739" lon="4.68795">
        <ele>342</ele>
        <time>2018-06-16T10:13:40Z</time>
      </trkpt>
      <trkpt lat="45.93746" lon="4.68798">
        <ele>342</ele>
        <time>2018-06-16T10:13:41Z</time>
      </trkpt>
      <trkpt lat="45.93752" lon="4.688">
        <ele>341</ele>
        <time>2018-06-16T10:13:42Z</time>
      </trkpt>
      <trkpt lat="45.93758" lon="4.68802">
        <ele>341</ele>
        <time>2018-06-16T10:13:43Z</time>
      </trkpt>
      <trkpt lat="45.93763" lon="4.68803">
        <ele>341</ele>
        <time>2018-06-16T10:13:44Z</time>
      </trkpt>
      <trkpt lat="45.9377" lon="4.68804">
        <ele>341</ele>
        <time>2018-06-16T10:13:45Z</time>
      </trkpt>
      <trkpt lat="45.93775" lon="4.68806">
        <ele>341</ele>
        <time>2018-06-16T10:13:46Z</time>
      </trkpt>
      <trkpt lat="45.9378" lon="4.68809">
        <ele>341</ele>
        <time>2018-06-16T10:13:47Z</time>
      </trkpt>
      <trkpt lat="45.93787" lon="4.68811">
        <ele>341</ele>
        <time>2018-06-16T10:13:48Z</time>
      </trkpt>
      <trkpt lat="45.93793" lon="4.68814">
        <ele>341</ele>
        <time>2018-06-16T10:13:49Z</time>
      </trkpt>
      <trkpt lat="45.93798" lon="4.68818">
        <ele>341</ele>
        <time>2018-06-16T10:13:50Z</time>
      </trkpt>
      <trkpt lat="45.93804" lon="4.68822">
        <ele>341</ele>
        <time>2018-06-16T10:13:51Z</time>
      </trkpt>
      <trkpt lat="45.93809" lon="4.68825">
        <ele>341</ele>
        <time>2018-06-16T10:13:52Z</time>
      </trkpt>
      <trkpt lat="45.93814" lon="4.68827">
        <ele>341</ele>
        <time>2018-06-16T10:13:53Z</time>
      </trkpt>
      <trkpt lat="45.93819" lon="4.6883">
        <ele>341</ele>
        <time>2018-06-16T10:13:54Z</time>
      </trkpt>
      <trkpt lat="45.93824" lon="4.68833">
        <ele>342</ele>
        <time>2018-06-16T10:13:55Z</time>
      </trkpt>
      <trkpt lat="45.93828" lon="4.68837">
        <ele>342</ele>
        <time>2018-06-16T10:13:56Z</time>
      </trkpt>
      <trkpt lat="45.93833" lon="4.6884">
        <ele>342</ele>
        <time>2018-06-16T10:13:57Z</time>
      </trkpt>
      <trkpt lat="45.93838" lon="4.68844">
        <ele>342</ele>
        <time>2018-06-16T10:13:58Z</time>
      </trkpt>
      <trkpt lat="45.93842" lon="4.68847">
        <ele>342</ele>
        <time>2018-06-16T10:13:59Z</time>
      </trkpt>
      <trkpt lat="45.93847" lon="4.6885">
        <ele>342</ele>
        <time>2018-06-16T10:14:00Z</time>
      </trkpt>
      <trkpt lat="45.93852" lon="4.68854">
        <ele>342</ele>
        <time>2018-06-16T10:14:01Z</time>
      </trkpt>
      <trkpt lat="45.93856" lon="4.68857">
        <ele>342</ele>
        <time>2018-06-16T10:14:02Z</time>
      </trkpt>
      <trkpt lat="45.93863" lon="4.6886">
        <ele>342</ele>
        <time>2018-06-16T10:14:03Z</time>
      </trkpt>
      <trkpt lat="45.93867" lon="4.68865">
        <ele>342</ele>
        <time>2018-06-16T10:14:04Z</time>
      </trkpt>
      <trkpt lat="45.93873" lon="4.68868">
        <ele>342</ele>
        <time>2018-06-16T10:14:05Z</time>
      </trkpt>
      <trkpt lat="45.93876" lon="4.6887">
        <ele>343</ele>
        <time>2018-06-16T10:14:06Z</time>
      </trkpt>
      <trkpt lat="45.93882" lon="4.68873">
        <ele>343</ele>
        <time>2018-06-16T10:14:07Z</time>
      </trkpt>
      <trkpt lat="45.93886" lon="4.68876">
        <ele>342</ele>
        <time>2018-06-16T10:14:08Z</time>
      </trkpt>
      <trkpt lat="45.9389" lon="4.68879">
        <ele>342</ele>
        <time>2018-06-16T10:14:09Z</time>
      </trkpt>
      <trkpt lat="45.93893" lon="4.68883">
        <ele>342</ele>
        <time>2018-06-16T10:14:10Z</time>
      </trkpt>
      <trkpt lat="45.93898" lon="4.68885">
        <ele>342</ele>
        <time>2018-06-16T10:14:11Z</time>
      </trkpt>
      <trkpt lat="45.93903" lon="4.68888">
        <ele>342</ele>
        <time>2018-06-16T10:14:12Z</time>
      </trkpt>
      <trkpt lat="45.93911" lon="4.6889">
        <ele>342</ele>
        <time>2018-06-16T10:14:14Z</time>
      </trkpt>
      <trkpt lat="45.93914" lon="4.68892">
        <ele>342</ele>
        <time>2018-06-16T10:14:15Z</time>
      </trkpt>
      <trkpt lat="45.93921" lon="4.68896">
        <ele>342</ele>
        <time>2018-06-16T10:14:17Z</time>
      </trkpt>
      <trkpt lat="45.93927" lon="4.68898">
        <ele>342</ele>
        <time>2018-06-16T10:14:18Z</time>
      </trkpt>
      <trkpt lat="45.93932" lon="4.68898">
        <ele>342</ele>
        <time>2018-06-16T10:14:19Z</time>
      </trkpt>
      <trkpt lat="45.93938" lon="4.68899">
        <ele>342</ele>
        <time>2018-06-16T10:14:20Z</time>
      </trkpt>
      <trkpt lat="45.93943" lon="4.68901">
        <ele>342</ele>
        <time>2018-06-16T10:14:21Z</time>
      </trkpt>
      <trkpt lat="45.93948" lon="4.68903">
        <ele>342</ele>
        <time>2018-06-16T10:14:22Z</time>
      </trkpt>
      <trkpt lat="45.93953" lon="4.68906">
        <ele>342</ele>
        <time>2018-06-16T10:14:23Z</time>
      </trkpt>
      <trkpt lat="45.93959" lon="4.68905">
        <ele>342</ele>
        <time>2018-06-16T10:14:24Z</time>
      </trkpt>
      <trkpt lat="45.93965" lon="4.68906">
        <ele>342</ele>
        <time>2018-06-16T10:14:25Z</time>
      </trkpt>
      <trkpt lat="45.9397" lon="4.68907">
        <ele>342</ele>
        <time>2018-06-16T10:14:26Z</time>
      </trkpt>
      <trkpt lat="45.93975" lon="4.68907">
        <ele>342</ele>
        <time>2018-06-16T10:14:27Z</time>
      </trkpt>
      <trkpt lat="45.9398" lon="4.6891">
        <ele>342</ele>
        <time>2018-06-16T10:14:28Z</time>
      </trkpt>
      <trkpt lat="45.93986" lon="4.68912">
        <ele>342</ele>
        <time>2018-06-16T10:14:29Z</time>
      </trkpt>
      <trkpt lat="45.93991" lon="4.68913">
        <ele>342</ele>
        <time>2018-06-16T10:14:30Z</time>
      </trkpt>
      <trkpt lat="45.93997" lon="4.68916">
        <ele>342</ele>
        <time>2018-06-16T10:14:31Z</time>
      </trkpt>
      <trkpt lat="45.94003" lon="4.68918">
        <ele>342</ele>
        <time>2018-06-16T10:14:32Z</time>
      </trkpt>
      <trkpt lat="45.94009" lon="4.6892">
        <ele>342</ele>
        <time>2018-06-16T10:14:33Z</time>
      </trkpt>
      <trkpt lat="45.94015" lon="4.68922">
        <ele>342</ele>
        <time>2018-06-16T10:14:34Z</time>
      </trkpt>
      <trkpt lat="45.9402" lon="4.68924">
        <ele>341</ele>
        <time>2018-06-16T10:14:35Z</time>
      </trkpt>
      <trkpt lat="45.94025" lon="4.68927">
        <ele>341</ele>
        <time>2018-06-16T10:14:36Z</time>
      </trkpt>
      <trkpt lat="45.9403" lon="4.68929">
        <ele>341</ele>
        <time>2018-06-16T10:14:37Z</time>
      </trkpt>
      <trkpt lat="45.94036" lon="4.68931">
        <ele>341</ele>
        <time>2018-06-16T10:14:38Z</time>
      </trkpt>
      <trkpt lat="45.94042" lon="4.68933">
        <ele>341</ele>
        <time>2018-06-16T10:14:39Z</time>
      </trkpt>
      <trkpt lat="45.94047" lon="4.68936">
        <ele>341</ele>
        <time>2018-06-16T10:14:40Z</time>
      </trkpt>
      <trkpt lat="45.94052" lon="4.68941">
        <ele>341</ele>
        <time>2018-06-16T10:14:41Z</time>
      </trkpt>
      <trkpt lat="45.94057" lon="4.68944">
        <ele>341</ele>
        <time>2018-06-16T10:14:42Z</time>
      </trkpt>
      <trkpt lat="45.94062" lon="4.68947">
        <ele>341</ele>
        <time>2018-06-16T10:14:43Z</time>
      </trkpt>
      <trkpt lat="45.94067" lon="4.68949">
        <ele>341</ele>
        <time>2018-06-16T10:14:44Z</time>
      </trkpt>
      <trkpt lat="45.94072" lon="4.68951">
        <ele>341</ele>
        <time>2018-06-16T10:14:45Z</time>
      </trkpt>
      <trkpt lat="45.94077" lon="4.68951">
        <ele>341</ele>
        <time>2018-06-16T10:14:46Z</time>
      </trkpt>
      <trkpt lat="45.94082" lon="4.68952">
        <ele>341</ele>
        <time>2018-06-16T10:14:47Z</time>
      </trkpt>
      <trkpt lat="45.94087" lon="4.68953">
        <ele>340</ele>
        <time>2018-06-16T10:14:48Z</time>
      </trkpt>
      <trkpt lat="45.94092" lon="4.68955">
        <ele>340</ele>
        <time>2018-06-16T10:14:49Z</time>
      </trkpt>
      <trkpt lat="45.94099" lon="4.68956">
        <ele>340</ele>
        <time>2018-06-16T10:14:50Z</time>
      </trkpt>
      <trkpt lat="45.94104" lon="4.68957">
        <ele>340</ele>
        <time>2018-06-16T10:14:51Z</time>
      </trkpt>
      <trkpt lat="45.94109" lon="4.6896">
        <ele>340</ele>
        <time>2018-06-16T10:14:52Z</time>
      </trkpt>
      <trkpt lat="45.94114" lon="4.68961">
        <ele>340</ele>
        <time>2018-06-16T10:14:53Z</time>
      </trkpt>
      <trkpt lat="45.94121" lon="4.68964">
        <ele>340</ele>
        <time>2018-06-16T10:14:54Z</time>
      </trkpt>
      <trkpt lat="45.94126" lon="4.68966">
        <ele>340</ele>
        <time>2018-06-16T10:14:55Z</time>
      </trkpt>
      <trkpt lat="45.94131" lon="4.68966">
        <ele>340</ele>
        <time>2018-06-16T10:14:56Z</time>
      </trkpt>
      <trkpt lat="45.94137" lon="4.68968">
        <ele>340</ele>
        <time>2018-06-16T10:14:57Z</time>
      </trkpt>
      <trkpt lat="45.94142" lon="4.6897">
        <ele>340</ele>
        <time>2018-06-16T10:14:58Z</time>
      </trkpt>
      <trkpt lat="45.94148" lon="4.68971">
        <ele>340</ele>
        <time>2018-06-16T10:14:59Z</time>
      </trkpt>
      <trkpt lat="45.94153" lon="4.68973">
        <ele>340</ele>
        <time>2018-06-16T10:15:00Z</time>
      </trkpt>
      <trkpt lat="45.94159" lon="4.68974">
        <ele>340</ele>
        <time>2018-06-16T10:15:01Z</time>
      </trkpt>
      <trkpt lat="45.94166" lon="4.68975">
        <ele>340</ele>
        <time>2018-06-16T10:15:02Z</time>
      </trkpt>
      <trkpt lat="45.94172" lon="4.68978">
        <ele>339</ele>
        <time>2018-06-16T10:15:03Z</time>
      </trkpt>
      <trkpt lat="45.94177" lon="4.6898">
        <ele>339</ele>
        <time>2018-06-16T10:15:04Z</time>
      </trkpt>
      <trkpt lat="45.94181" lon="4.68979">
        <ele>339</ele>
        <time>2018-06-16T10:15:05Z</time>
      </trkpt>
      <trkpt lat="45.94188" lon="4.68982">
        <ele>338</ele>
        <time>2018-06-16T10:15:06Z</time>
      </trkpt>
      <trkpt lat="45.94194" lon="4.68984">
        <ele>338</ele>
        <time>2018-06-16T10:15:07Z</time>
      </trkpt>
      <trkpt lat="45.942" lon="4.68986">
        <ele>338</ele>
        <time>2018-06-16T10:15:08Z</time>
      </trkpt>
      <trkpt lat="45.94206" lon="4.68989">
        <ele>338</ele>
        <time>2018-06-16T10:15:09Z</time>
      </trkpt>
      <trkpt lat="45.94212" lon="4.6899">
        <ele>338</ele>
        <time>2018-06-16T10:15:10Z</time>
      </trkpt>
      <trkpt lat="45.94217" lon="4.68992">
        <ele>338</ele>
        <time>2018-06-16T10:15:11Z</time>
      </trkpt>
      <trkpt lat="45.94223" lon="4.68993">
        <ele>338</ele>
        <time>2018-06-16T10:15:12Z</time>
      </trkpt>
      <trkpt lat="45.94227" lon="4.68995">
        <ele>338</ele>
        <time>2018-06-16T10:15:13Z</time>
      </trkpt>
      <trkpt lat="45.94232" lon="4.68996">
        <ele>338</ele>
        <time>2018-06-16T10:15:14Z</time>
      </trkpt>
      <trkpt lat="45.9424" lon="4.69">
        <ele>338</ele>
        <time>2018-06-16T10:15:16Z</time>
      </trkpt>
      <trkpt lat="45.94245" lon="4.69">
        <ele>338</ele>
        <time>2018-06-16T10:15:17Z</time>
      </trkpt>
      <trkpt lat="45.9425" lon="4.69002">
        <ele>338</ele>
        <time>2018-06-16T10:15:18Z</time>
      </trkpt>
      <trkpt lat="45.94256" lon="4.69003">
        <ele>338</ele>
        <time>2018-06-16T10:15:19Z</time>
      </trkpt>
      <trkpt lat="45.9426" lon="4.69004">
        <ele>338</ele>
        <time>2018-06-16T10:15:20Z</time>
      </trkpt>
      <trkpt lat="45.94265" lon="4.69005">
        <ele>338</ele>
        <time>2018-06-16T10:15:21Z</time>
      </trkpt>
      <trkpt lat="45.9427" lon="4.69006">
        <ele>337</ele>
        <time>2018-06-16T10:15:22Z</time>
      </trkpt>
      <trkpt lat="45.94275" lon="4.69007">
        <ele>337</ele>
        <time>2018-06-16T10:15:23Z</time>
      </trkpt>
      <trkpt lat="45.9428" lon="4.69008">
        <ele>337</ele>
        <time>2018-06-16T10:15:24Z</time>
      </trkpt>
      <trkpt lat="45.94285" lon="4.69009">
        <ele>337</ele>
        <time>2018-06-16T10:15:25Z</time>
      </trkpt>
      <trkpt lat="45.94292" lon="4.69009">
        <ele>337</ele>
        <time>2018-06-16T10:15:26Z</time>
      </trkpt>
      <trkpt lat="45.94297" lon="4.6901">
        <ele>337</ele>
        <time>2018-06-16T10:15:27Z</time>
      </trkpt>
      <trkpt lat="45.94302" lon="4.69011">
        <ele>337</ele>
        <time>2018-06-16T10:15:28Z</time>
      </trkpt>
      <trkpt lat="45.94308" lon="4.69011">
        <ele>337</ele>
        <time>2018-06-16T10:15:29Z</time>
      </trkpt>
      <trkpt lat="45.94314" lon="4.69012">
        <ele>337</ele>
        <time>2018-06-16T10:15:30Z</time>
      </trkpt>
      <trkpt lat="45.94319" lon="4.6901">
        <ele>337</ele>
        <time>2018-06-16T10:15:31Z</time>
      </trkpt>
      <trkpt lat="45.94325" lon="4.69013">
        <ele>337</ele>
        <time>2018-06-16T10:15:33Z</time>
      </trkpt>
      <trkpt lat="45.9433" lon="4.69013">
        <ele>337</ele>
        <time>2018-06-16T10:15:34Z</time>
      </trkpt>
      <trkpt lat="45.94336" lon="4.69013">
        <ele>337</ele>
        <time>2018-06-16T10:15:35Z</time>
      </trkpt>
      <trkpt lat="45.94341" lon="4.69014">
        <ele>338</ele>
        <time>2018-06-16T10:15:36Z</time>
      </trkpt>
      <trkpt lat="45.9435" lon="4.69015">
        <ele>338</ele>
        <time>2018-06-16T10:15:38Z</time>
      </trkpt>
      <trkpt lat="45.94356" lon="4.69014">
        <ele>338</ele>
        <time>2018-06-16T10:15:39Z</time>
      </trkpt>
      <trkpt lat="45.94362" lon="4.69013">
        <ele>338</ele>
        <time>2018-06-16T10:15:40Z</time>
      </trkpt>
      <trkpt lat="45.94368" lon="4.69012">
        <ele>338</ele>
        <time>2018-06-16T10:15:41Z</time>
      </trkpt>
      <trkpt lat="45.94376" lon="4.69009">
        <ele>338</ele>
        <time>2018-06-16T10:15:43Z</time>
      </trkpt>
      <trkpt lat="45.9438" lon="4.6901">
        <ele>338</ele>
        <time>2018-06-16T10:15:44Z</time>
      </trkpt>
      <trkpt lat="45.94386" lon="4.69012">
        <ele>338</ele>
        <time>2018-06-16T10:15:45Z</time>
      </trkpt>
      <trkpt lat="45.94391" lon="4.69011">
        <ele>338</ele>
        <time>2018-06-16T10:15:46Z</time>
      </trkpt>
      <trkpt lat="45.94398" lon="4.69011">
        <ele>339</ele>
        <time>2018-06-16T10:15:47Z</time>
      </trkpt>
      <trkpt lat="45.94403" lon="4.69011">
        <ele>339</ele>
        <time>2018-06-16T10:15:48Z</time>
      </trkpt>
      <trkpt lat="45.94407" lon="4.69011">
        <ele>339</ele>
        <time>2018-06-16T10:15:49Z</time>
      </trkpt>
      <trkpt lat="45.94412" lon="4.69011">
        <ele>339</ele>
        <time>2018-06-16T10:15:50Z</time>
      </trkpt>
      <trkpt lat="45.9442" lon="4.69012">
        <ele>340</ele>
        <time>2018-06-16T10:15:52Z</time>
      </trkpt>
      <trkpt lat="45.94425" lon="4.69012">
        <ele>340</ele>
        <time>2018-06-16T10:15:53Z</time>
      </trkpt>
      <trkpt lat="45.94434" lon="4.6901">
        <ele>340</ele>
        <time>2018-06-16T10:15:55Z</time>
      </trkpt>
      <trkpt lat="45.94439" lon="4.69011">
        <ele>340</ele>
        <time>2018-06-16T10:15:56Z</time>
      </trkpt>
      <trkpt lat="45.94444" lon="4.69011">
        <ele>340</ele>
        <time>2018-06-16T10:15:57Z</time>
      </trkpt>
      <trkpt lat="45.94449" lon="4.69012">
        <ele>340</ele>
        <time>2018-06-16T10:15:58Z</time>
      </trkpt>
      <trkpt lat="45.94455" lon="4.69012">
        <ele>340</ele>
        <time>2018-06-16T10:15:59Z</time>
      </trkpt>
      <trkpt lat="45.9446" lon="4.69012">
        <ele>341</ele>
        <time>2018-06-16T10:16:00Z</time>
      </trkpt>
      <trkpt lat="45.94466" lon="4.69016">
        <ele>341</ele>
        <time>2018-06-16T10:16:02Z</time>
      </trkpt>
      <trkpt lat="45.94471" lon="4.69017">
        <ele>341</ele>
        <time>2018-06-16T10:16:03Z</time>
      </trkpt>
      <trkpt lat="45.94479" lon="4.6902">
        <ele>341</ele>
        <time>2018-06-16T10:16:05Z</time>
      </trkpt>
      <trkpt lat="45.94483" lon="4.69021">
        <ele>341</ele>
        <time>2018-06-16T10:16:06Z</time>
      </trkpt>
      <trkpt lat="45.94492" lon="4.69018">
        <ele>341</ele>
        <time>2018-06-16T10:16:07Z</time>
      </trkpt>
      <trkpt lat="45.94497" lon="4.69019">
        <ele>341</ele>
        <time>2018-06-16T10:16:08Z</time>
      </trkpt>
      <trkpt lat="45.94502" lon="4.6902">
        <ele>342</ele>
        <time>2018-06-16T10:16:09Z</time>
      </trkpt>
      <trkpt lat="45.94508" lon="4.69019">
        <ele>342</ele>
        <time>2018-06-16T10:16:10Z</time>
      </trkpt>
      <trkpt lat="45.94513" lon="4.69021">
        <ele>342</ele>
        <time>2018-06-16T10:16:11Z</time>
      </trkpt>
      <trkpt lat="45.94518" lon="4.69022">
        <ele>342</ele>
        <time>2018-06-16T10:16:12Z</time>
      </trkpt>
      <trkpt lat="45.94522" lon="4.69023">
        <ele>342</ele>
        <time>2018-06-16T10:16:13Z</time>
      </trkpt>
      <trkpt lat="45.94528" lon="4.69024">
        <ele>342</ele>
        <time>2018-06-16T10:16:14Z</time>
      </trkpt>
      <trkpt lat="45.94532" lon="4.69025">
        <ele>342</ele>
        <time>2018-06-16T10:16:15Z</time>
      </trkpt>
      <trkpt lat="45.9454" lon="4.69029">
        <ele>342</ele>
        <time>2018-06-16T10:16:17Z</time>
      </trkpt>
      <trkpt lat="45.94544" lon="4.69032">
        <ele>342</ele>
        <time>2018-06-16T10:16:18Z</time>
      </trkpt>
      <trkpt lat="45.94548" lon="4.69034">
        <ele>342</ele>
        <time>2018-06-16T10:16:19Z</time>
      </trkpt>
      <trkpt lat="45.94552" lon="4.69035">
        <ele>342</ele>
        <time>2018-06-16T10:16:20Z</time>
      </trkpt>
      <trkpt lat="45.94559" lon="4.6904">
        <ele>342</ele>
        <time>2018-06-16T10:16:22Z</time>
      </trkpt>
      <trkpt lat="45.94563" lon="4.69041">
        <ele>342</ele>
        <time>2018-06-16T10:16:23Z</time>
      </trkpt>
      <trkpt lat="45.94567" lon="4.69042">
        <ele>342</ele>
        <time>2018-06-16T10:16:24Z</time>
      </trkpt>
      <trkpt lat="45.94572" lon="4.69042">
        <ele>342</ele>
        <time>2018-06-16T10:16:25Z</time>
      </trkpt>
      <trkpt lat="45.94577" lon="4.69043">
        <ele>342</ele>
        <time>2018-06-16T10:16:26Z</time>
      </trkpt>
      <trkpt lat="45.94585" lon="4.6904">
        <ele>342</ele>
        <time>2018-06-16T10:16:27Z</time>
      </trkpt>
      <trkpt lat="45.94589" lon="4.69041">
        <ele>342</ele>
        <time>2018-06-16T10:16:28Z</time>
      </trkpt>
      <trkpt lat="45.94594" lon="4.69042">
        <ele>342</ele>
        <time>2018-06-16T10:16:29Z</time>
      </trkpt>
      <trkpt lat="45.94602" lon="4.69047">
        <ele>342</ele>
        <time>2018-06-16T10:16:31Z</time>
      </trkpt>
      <trkpt lat="45.94607" lon="4.69048">
        <ele>342</ele>
        <time>2018-06-16T10:16:32Z</time>
      </trkpt>
      <trkpt lat="45.94614" lon="4.69049">
        <ele>342</ele>
        <time>2018-06-16T10:16:33Z</time>
      </trkpt>
      <trkpt lat="45.94618" lon="4.6905">
        <ele>342</ele>
        <time>2018-06-16T10:16:34Z</time>
      </trkpt>
      <trkpt lat="45.94625" lon="4.69052">
        <ele>342</ele>
        <time>2018-06-16T10:16:36Z</time>
      </trkpt>
      <trkpt lat="45.94628" lon="4.69054">
        <ele>342</ele>
        <time>2018-06-16T10:16:37Z</time>
      </trkpt>
      <trkpt lat="45.94635" lon="4.69058">
        <ele>342</ele>
        <time>2018-06-16T10:16:39Z</time>
      </trkpt>
      <trkpt lat="45.9464" lon="4.69059">
        <ele>342</ele>
        <time>2018-06-16T10:16:40Z</time>
      </trkpt>
      <trkpt lat="45.94648" lon="4.69064">
        <ele>342</ele>
        <time>2018-06-16T10:16:42Z</time>
      </trkpt>
      <trkpt lat="45.94651" lon="4.69065">
        <ele>342</ele>
        <time>2018-06-16T10:16:43Z</time>
      </trkpt>
      <trkpt lat="45.94656" lon="4.69067">
        <ele>342</ele>
        <time>2018-06-16T10:16:44Z</time>
      </trkpt>
      <trkpt lat="45.94661" lon="4.69069">
        <ele>342</ele>
        <time>2018-06-16T10:16:45Z</time>
      </trkpt>
      <trkpt lat="45.94665" lon="4.69071">
        <ele>342</ele>
        <time>2018-06-16T10:16:46Z</time>
      </trkpt>
      <trkpt lat="45.9467" lon="4.69072">
        <ele>342</ele>
        <time>2018-06-16T10:16:47Z</time>
      </trkpt>
      <trkpt lat="45.94678" lon="4.69075">
        <ele>342</ele>
        <time>2018-06-16T10:16:49Z</time>
      </trkpt>
      <trkpt lat="45.94683" lon="4.69076">
        <ele>342</ele>
        <time>2018-06-16T10:16:50Z</time>
      </trkpt>
      <trkpt lat="45.94688" lon="4.69077">
        <ele>342</ele>
        <time>2018-06-16T10:16:51Z</time>
      </trkpt>
      <trkpt lat="45.94693" lon="4.69079">
        <ele>342</ele>
        <time>2018-06-16T10:16:52Z</time>
      </trkpt>
      <trkpt lat="45.94699" lon="4.69079">
        <ele>342</ele>
        <time>2018-06-16T10:16:53Z</time>
      </trkpt>
      <trkpt lat="45.94703" lon="4.69081">
        <ele>342</ele>
        <time>2018-06-16T10:16:54Z</time>
      </trkpt>
      <trkpt lat="45.94708" lon="4.69082">
        <ele>343</ele>
        <time>2018-06-16T10:16:55Z</time>
      </trkpt>
      <trkpt lat="45.94713" lon="4.69085">
        <ele>344</ele>
        <time>2018-06-16T10:16:56Z</time>
      </trkpt>
      <trkpt lat="45.94718" lon="4.69087">
        <ele>344</ele>
        <time>2018-06-16T10:16:57Z</time>
      </trkpt>
      <trkpt lat="45.94723" lon="4.69088">
        <ele>344</ele>
        <time>2018-06-16T10:16:58Z</time>
      </trkpt>
      <trkpt lat="45.94727" lon="4.6909">
        <ele>344</ele>
        <time>2018-06-16T10:16:59Z</time>
      </trkpt>
      <trkpt lat="45.94733" lon="4.69091">
        <ele>344</ele>
        <time>2018-06-16T10:17:00Z</time>
      </trkpt>
      <trkpt lat="45.94741" lon="4.69093">
        <ele>344</ele>
        <time>2018-06-16T10:17:02Z</time>
      </trkpt>
      <trkpt lat="45.94746" lon="4.69095">
        <ele>345</ele>
        <time>2018-06-16T10:17:03Z</time>
      </trkpt>
      <trkpt lat="45.94751" lon="4.69096">
        <ele>345</ele>
        <time>2018-06-16T10:17:04Z</time>
      </trkpt>
      <trkpt lat="45.94757" lon="4.69097">
        <ele>345</ele>
        <time>2018-06-16T10:17:05Z</time>
      </trkpt>
      <trkpt lat="45.94762" lon="4.69098">
        <ele>344</ele>
        <time>2018-06-16T10:17:06Z</time>
      </trkpt>
      <trkpt lat="45.94767" lon="4.69099">
        <ele>344</ele>
        <time>2018-06-16T10:17:07Z</time>
      </trkpt>
      <trkpt lat="45.94772" lon="4.69101">
        <ele>344</ele>
        <time>2018-06-16T10:17:08Z</time>
      </trkpt>
      <trkpt lat="45.94776" lon="4.69102">
        <ele>344</ele>
        <time>2018-06-16T10:17:09Z</time>
      </trkpt>
      <trkpt lat="45.9478" lon="4.69104">
        <ele>344</ele>
        <time>2018-06-16T10:17:10Z</time>
      </trkpt>
      <trkpt lat="45.94785" lon="4.69105">
        <ele>344</ele>
        <time>2018-06-16T10:17:11Z</time>
      </trkpt>
      <trkpt lat="45.94789" lon="4.69106">
        <ele>344</ele>
        <time>2018-06-16T10:17:12Z</time>
      </trkpt>
      <trkpt lat="45.94795" lon="4.69108">
        <ele>344</ele>
        <time>2018-06-16T10:17:13Z</time>
      </trkpt>
      <trkpt lat="45.948" lon="4.6911">
        <ele>344</ele>
        <time>2018-06-16T10:17:14Z</time>
      </trkpt>
      <trkpt lat="45.94805" lon="4.69112">
        <ele>344</ele>
        <time>2018-06-16T10:17:15Z</time>
      </trkpt>
      <trkpt lat="45.94809" lon="4.69112">
        <ele>344</ele>
        <time>2018-06-16T10:17:16Z</time>
      </trkpt>
      <trkpt lat="45.94814" lon="4.69115">
        <ele>344</ele>
        <time>2018-06-16T10:17:17Z</time>
      </trkpt>
      <trkpt lat="45.94819" lon="4.69117">
        <ele>344</ele>
        <time>2018-06-16T10:17:18Z</time>
      </trkpt>
      <trkpt lat="45.94824" lon="4.69119">
        <ele>344</ele>
        <time>2018-06-16T10:17:19Z</time>
      </trkpt>
      <trkpt lat="45.94831" lon="4.69123">
        <ele>344</ele>
        <time>2018-06-16T10:17:21Z</time>
      </trkpt>
      <trkpt lat="45.94836" lon="4.69126">
        <ele>342</ele>
        <time>2018-06-16T10:17:22Z</time>
      </trkpt>
      <trkpt lat="45.94841" lon="4.69128">
        <ele>342</ele>
        <time>2018-06-16T10:17:23Z</time>
      </trkpt>
      <trkpt lat="45.94847" lon="4.6913">
        <ele>342</ele>
        <time>2018-06-16T10:17:24Z</time>
      </trkpt>
      <trkpt lat="45.94854" lon="4.69135">
        <ele>342</ele>
        <time>2018-06-16T10:17:26Z</time>
      </trkpt>
      <trkpt lat="45.94859" lon="4.69137">
        <ele>342</ele>
        <time>2018-06-16T10:17:27Z</time>
      </trkpt>
      <trkpt lat="45.94867" lon="4.69139">
        <ele>342</ele>
        <time>2018-06-16T10:17:29Z</time>
      </trkpt>
      <trkpt lat="45.94872" lon="4.69141">
        <ele>342</ele>
        <time>2018-06-16T10:17:30Z</time>
      </trkpt>
      <trkpt lat="45.94877" lon="4.69144">
        <ele>342</ele>
        <time>2018-06-16T10:17:31Z</time>
      </trkpt>
      <trkpt lat="45.94881" lon="4.69147">
        <ele>342</ele>
        <time>2018-06-16T10:17:32Z</time>
      </trkpt>
      <trkpt lat="45.94886" lon="4.6915">
        <ele>342</ele>
        <time>2018-06-16T10:17:33Z</time>
      </trkpt>
      <trkpt lat="45.9489" lon="4.69152">
        <ele>342</ele>
        <time>2018-06-16T10:17:34Z</time>
      </trkpt>
      <trkpt lat="45.94897" lon="4.69154">
        <ele>342</ele>
        <time>2018-06-16T10:17:35Z</time>
      </trkpt>
      <trkpt lat="45.94902" lon="4.69157">
        <ele>342</ele>
        <time>2018-06-16T10:17:36Z</time>
      </trkpt>
      <trkpt lat="45.94907" lon="4.69161">
        <ele>342</ele>
        <time>2018-06-16T10:17:37Z</time>
      </trkpt>
      <trkpt lat="45.94913" lon="4.69164">
        <ele>342</ele>
        <time>2018-06-16T10:17:38Z</time>
      </trkpt>
      <trkpt lat="45.9492" lon="4.69167">
        <ele>341</ele>
        <time>2018-06-16T10:17:39Z</time>
      </trkpt>
      <trkpt lat="45.94926" lon="4.6917">
        <ele>341</ele>
        <time>2018-06-16T10:17:40Z</time>
      </trkpt>
      <trkpt lat="45.94932" lon="4.69172">
        <ele>341</ele>
        <time>2018-06-16T10:17:41Z</time>
      </trkpt>
      <trkpt lat="45.94938" lon="4.69176">
        <ele>341</ele>
        <time>2018-06-16T10:17:42Z</time>
      </trkpt>
      <trkpt lat="45.94944" lon="4.69179">
        <ele>341</ele>
        <time>2018-06-16T10:17:43Z</time>
      </trkpt>
      <trkpt lat="45.94949" lon="4.69184">
        <ele>340</ele>
        <time>2018-06-16T10:17:44Z</time>
      </trkpt>
      <trkpt lat="45.94956" lon="4.69189">
        <ele>340</ele>
        <time>2018-06-16T10:17:45Z</time>
      </trkpt>
      <trkpt lat="45.94962" lon="4.69194">
        <ele>340</ele>
        <time>2018-06-16T10:17:46Z</time>
      </trkpt>
      <trkpt lat="45.94968" lon="4.692">
        <ele>340</ele>
        <time>2018-06-16T10:17:47Z</time>
      </trkpt>
      <trkpt lat="45.94973" lon="4.69206">
        <ele>340</ele>
        <time>2018-06-16T10:17:48Z</time>
      </trkpt>
      <trkpt lat="45.94978" lon="4.69211">
        <ele>340</ele>
        <time>2018-06-16T10:17:49Z</time>
      </trkpt>
      <trkpt lat="45.94985" lon="4.69214">
        <ele>340</ele>
        <time>2018-06-16T10:17:50Z</time>
      </trkpt>
      <trkpt lat="45.94991" lon="4.69217">
        <ele>340</ele>
        <time>2018-06-16T10:17:51Z</time>
      </trkpt>
      <trkpt lat="45.94996" lon="4.69223">
        <ele>340</ele>
        <time>2018-06-16T10:17:52Z</time>
      </trkpt>
      <trkpt lat="45.95003" lon="4.69225">
        <ele>337</ele>
        <time>2018-06-16T10:17:53Z</time>
      </trkpt>
      <trkpt lat="45.9501" lon="4.69231">
        <ele>337</ele>
        <time>2018-06-16T10:17:54Z</time>
      </trkpt>
      <trkpt lat="45.95016" lon="4.69237">
        <ele>337</ele>
        <time>2018-06-16T10:17:55Z</time>
      </trkpt>
      <trkpt lat="45.95023" lon="4.69244">
        <ele>337</ele>
        <time>2018-06-16T10:17:56Z</time>
      </trkpt>
      <trkpt lat="45.9503" lon="4.69248">
        <ele>337</ele>
        <time>2018-06-16T10:17:57Z</time>
      </trkpt>
      <trkpt lat="45.95037" lon="4.69254">
        <ele>337</ele>
        <time>2018-06-16T10:17:58Z</time>
      </trkpt>
      <trkpt lat="45.95045" lon="4.6926">
        <ele>337</ele>
        <time>2018-06-16T10:17:59Z</time>
      </trkpt>
      <trkpt lat="45.95052" lon="4.69267">
        <ele>337</ele>
        <time>2018-06-16T10:18:00Z</time>
      </trkpt>
      <trkpt lat="45.95059" lon="4.69272">
        <ele>336</ele>
        <time>2018-06-16T10:18:01Z</time>
      </trkpt>
      <trkpt lat="45.95067" lon="4.69279">
        <ele>336</ele>
        <time>2018-06-16T10:18:02Z</time>
      </trkpt>
      <trkpt lat="45.95073" lon="4.69287">
        <ele>336</ele>
        <time>2018-06-16T10:18:03Z</time>
      </trkpt>
      <trkpt lat="45.95079" lon="4.69294">
        <ele>336</ele>
        <time>2018-06-16T10:18:04Z</time>
      </trkpt>
      <trkpt lat="45.95085" lon="4.69301">
        <ele>334</ele>
        <time>2018-06-16T10:18:05Z</time>
      </trkpt>
      <trkpt lat="45.9509" lon="4.69307">
        <ele>334</ele>
        <time>2018-06-16T10:18:06Z</time>
      </trkpt>
      <trkpt lat="45.95096" lon="4.69313">
        <ele>334</ele>
        <time>2018-06-16T10:18:07Z</time>
      </trkpt>
      <trkpt lat="45.95101" lon="4.69319">
        <ele>334</ele>
        <time>2018-06-16T10:18:08Z</time>
      </trkpt>
      <trkpt lat="45.95106" lon="4.69326">
        <ele>334</ele>
        <time>2018-06-16T10:18:09Z</time>
      </trkpt>
      <trkpt lat="45.95111" lon="4.69331">
        <ele>334</ele>
        <time>2018-06-16T10:18:10Z</time>
      </trkpt>
      <trkpt lat="45.95116" lon="4.69336">
        <ele>336</ele>
        <time>2018-06-16T10:18:11Z</time>
      </trkpt>
      <trkpt lat="45.95122" lon="4.69339">
        <ele>336</ele>
        <time>2018-06-16T10:18:12Z</time>
      </trkpt>
      <trkpt lat="45.95127" lon="4.69344">
        <ele>337</ele>
        <time>2018-06-16T10:18:13Z</time>
      </trkpt>
      <trkpt lat="45.95132" lon="4.69349">
        <ele>337</ele>
        <time>2018-06-16T10:18:14Z</time>
      </trkpt>
      <trkpt lat="45.95137" lon="4.69354">
        <ele>337</ele>
        <time>2018-06-16T10:18:15Z</time>
      </trkpt>
      <trkpt lat="45.95141" lon="4.69357">
        <ele>337</ele>
        <time>2018-06-16T10:18:16Z</time>
      </trkpt>
      <trkpt lat="45.95146" lon="4.69362">
        <ele>337</ele>
        <time>2018-06-16T10:18:17Z</time>
      </trkpt>
      <trkpt lat="45.95149" lon="4.69368">
        <ele>337</ele>
        <time>2018-06-16T10:18:18Z</time>
      </trkpt>
      <trkpt lat="45.95153" lon="4.69372">
        <ele>337</ele>
        <time>2018-06-16T10:18:19Z</time>
      </trkpt>
      <trkpt lat="45.95158" lon="4.69377">
        <ele>337</ele>
        <time>2018-06-16T10:18:20Z</time>
      </trkpt>
      <trkpt lat="45.95162" lon="4.69382">
        <ele>337</ele>
        <time>2018-06-16T10:18:21Z</time>
      </trkpt>
      <trkpt lat="45.95166" lon="4.69387">
        <ele>338</ele>
        <time>2018-06-16T10:18:22Z</time>
      </trkpt>
      <trkpt lat="45.95172" lon="4.69389">
        <ele>337</ele>
        <time>2018-06-16T10:18:23Z</time>
      </trkpt>
      <trkpt lat="45.95176" lon="4.69393">
        <ele>337</ele>
        <time>2018-06-16T10:18:24Z</time>
      </trkpt>
      <trkpt lat="45.95181" lon="4.69397">
        <ele>337</ele>
        <time>2018-06-16T10:18:25Z</time>
      </trkpt>
      <trkpt lat="45.95185" lon="4.694">
        <ele>337</ele>
        <time>2018-06-16T10:18:26Z</time>
      </trkpt>
      <trkpt lat="45.9519" lon="4.69402">
        <ele>337</ele>
        <time>2018-06-16T10:18:27Z</time>
      </trkpt>
      <trkpt lat="45.95194" lon="4.69406">
        <ele>337</ele>
        <time>2018-06-16T10:18:28Z</time>
      </trkpt>
      <trkpt lat="45.95199" lon="4.69409">
        <ele>337</ele>
        <time>2018-06-16T10:18:29Z</time>
      </trkpt>
      <trkpt lat="45.95204" lon="4.69412">
        <ele>337</ele>
        <time>2018-06-16T10:18:30Z</time>
      </trkpt>
      <trkpt lat="45.95208" lon="4.69415">
        <ele>337</ele>
        <time>2018-06-16T10:18:31Z</time>
      </trkpt>
      <trkpt lat="45.95214" lon="4.69415">
        <ele>337</ele>
        <time>2018-06-16T10:18:32Z</time>
      </trkpt>
      <trkpt lat="45.95219" lon="4.69417">
        <ele>340</ele>
        <time>2018-06-16T10:18:33Z</time>
      </trkpt>
      <trkpt lat="45.95226" lon="4.69419">
        <ele>340</ele>
        <time>2018-06-16T10:18:34Z</time>
      </trkpt>
      <trkpt lat="45.95232" lon="4.69422">
        <ele>340</ele>
        <time>2018-06-16T10:18:35Z</time>
      </trkpt>
      <trkpt lat="45.95237" lon="4.69425">
        <ele>339</ele>
        <time>2018-06-16T10:18:36Z</time>
      </trkpt>
      <trkpt lat="45.95242" lon="4.69427">
        <ele>339</ele>
        <time>2018-06-16T10:18:37Z</time>
      </trkpt>
      <trkpt lat="45.95247" lon="4.6943">
        <ele>339</ele>
        <time>2018-06-16T10:18:38Z</time>
      </trkpt>
      <trkpt lat="45.95252" lon="4.69432">
        <ele>338</ele>
        <time>2018-06-16T10:18:39Z</time>
      </trkpt>
      <trkpt lat="45.95258" lon="4.69434">
        <ele>338</ele>
        <time>2018-06-16T10:18:40Z</time>
      </trkpt>
      <trkpt lat="45.95263" lon="4.69437">
        <ele>338</ele>
        <time>2018-06-16T10:18:41Z</time>
      </trkpt>
      <trkpt lat="45.95269" lon="4.69439">
        <ele>339</ele>
        <time>2018-06-16T10:18:42Z</time>
      </trkpt>
      <trkpt lat="45.95273" lon="4.69441">
        <ele>339</ele>
        <time>2018-06-16T10:18:43Z</time>
      </trkpt>
      <trkpt lat="45.95278" lon="4.69443">
        <ele>339</ele>
        <time>2018-06-16T10:18:44Z</time>
      </trkpt>
      <trkpt lat="45.95284" lon="4.69444">
        <ele>338</ele>
        <time>2018-06-16T10:18:45Z</time>
      </trkpt>
      <trkpt lat="45.95289" lon="4.69446">
        <ele>338</ele>
        <time>2018-06-16T10:18:46Z</time>
      </trkpt>
      <trkpt lat="45.95295" lon="4.69449">
        <ele>338</ele>
        <time>2018-06-16T10:18:47Z</time>
      </trkpt>
      <trkpt lat="45.953" lon="4.69452">
        <ele>338</ele>
        <time>2018-06-16T10:18:48Z</time>
      </trkpt>
      <trkpt lat="45.95308" lon="4.69456">
        <ele>338</ele>
        <time>2018-06-16T10:18:50Z</time>
      </trkpt>
      <trkpt lat="45.95313" lon="4.69458">
        <ele>338</ele>
        <time>2018-06-16T10:18:51Z</time>
      </trkpt>
      <trkpt lat="45.95319" lon="4.69462">
        <ele>338</ele>
        <time>2018-06-16T10:18:52Z</time>
      </trkpt>
      <trkpt lat="45.95324" lon="4.69464">
        <ele>339</ele>
        <time>2018-06-16T10:18:53Z</time>
      </trkpt>
      <trkpt lat="45.95331" lon="4.69472">
        <ele>339</ele>
        <time>2018-06-16T10:18:55Z</time>
      </trkpt>
      <trkpt lat="45.95336" lon="4.69475">
        <ele>337</ele>
        <time>2018-06-16T10:18:56Z</time>
      </trkpt>
      <trkpt lat="45.95343" lon="4.69479">
        <ele>338</ele>
        <time>2018-06-16T10:18:57Z</time>
      </trkpt>
      <trkpt lat="45.95349" lon="4.69483">
        <ele>338</ele>
        <time>2018-06-16T10:18:58Z</time>
      </trkpt>
      <trkpt lat="45.95354" lon="4.69489">
        <ele>338</ele>
        <time>2018-06-16T10:18:59Z</time>
      </trkpt>
      <trkpt lat="45.9536" lon="4.69493">
        <ele>337</ele>
        <time>2018-06-16T10:19:00Z</time>
      </trkpt>
      <trkpt lat="45.95366" lon="4.69497">
        <ele>337</ele>
        <time>2018-06-16T10:19:01Z</time>
      </trkpt>
      <trkpt lat="45.95372" lon="4.695">
        <ele>337</ele>
        <time>2018-06-16T10:19:02Z</time>
      </trkpt>
      <trkpt lat="45.95377" lon="4.69503">
        <ele>340</ele>
        <time>2018-06-16T10:19:03Z</time>
      </trkpt>
      <trkpt lat="45.95383" lon="4.69506">
        <ele>340</ele>
        <time>2018-06-16T10:19:04Z</time>
      </trkpt>
      <trkpt lat="45.95388" lon="4.69509">
        <ele>340</ele>
        <time>2018-06-16T10:19:05Z</time>
      </trkpt>
      <trkpt lat="45.95392" lon="4.69513">
        <ele>340</ele>
        <time>2018-06-16T10:19:06Z</time>
      </trkpt>
      <trkpt lat="45.95399" lon="4.69517">
        <ele>339</ele>
        <time>2018-06-16T10:19:07Z</time>
      </trkpt>
      <trkpt lat="45.95403" lon="4.69522">
        <ele>339</ele>
        <time>2018-06-16T10:19:08Z</time>
      </trkpt>
      <trkpt lat="45.95408" lon="4.69526">
        <ele>339</ele>
        <time>2018-06-16T10:19:09Z</time>
      </trkpt>
      <trkpt lat="45.95414" lon="4.69528">
        <ele>339</ele>
        <time>2018-06-16T10:19:10Z</time>
      </trkpt>
      <trkpt lat="45.95421" lon="4.69531">
        <ele>337</ele>
        <time>2018-06-16T10:19:11Z</time>
      </trkpt>
      <trkpt lat="45.95426" lon="4.69536">
        <ele>337</ele>
        <time>2018-06-16T10:19:12Z</time>
      </trkpt>
      <trkpt lat="45.95432" lon="4.69539">
        <ele>337</ele>
        <time>2018-06-16T10:19:13Z</time>
      </trkpt>
      <trkpt lat="45.95437" lon="4.69543">
        <ele>337</ele>
        <time>2018-06-16T10:19:14Z</time>
      </trkpt>
      <trkpt lat="45.95442" lon="4.69546">
        <ele>337</ele>
        <time>2018-06-16T10:19:15Z</time>
      </trkpt>
      <trkpt lat="45.95449" lon="4.6955">
        <ele>337</ele>
        <time>2018-06-16T10:19:16Z</time>
      </trkpt>
      <trkpt lat="45.95456" lon="4.69553">
        <ele>337</ele>
        <time>2018-06-16T10:19:17Z</time>
      </trkpt>
      <trkpt lat="45.95463" lon="4.69557">
        <ele>337</ele>
        <time>2018-06-16T10:19:18Z</time>
      </trkpt>
      <trkpt lat="45.95471" lon="4.69557">
        <ele>337</ele>
        <time>2018-06-16T10:19:19Z</time>
      </trkpt>
      <trkpt lat="45.95479" lon="4.6956">
        <ele>337</ele>
        <time>2018-06-16T10:19:20Z</time>
      </trkpt>
      <trkpt lat="45.95486" lon="4.69564">
        <ele>337</ele>
        <time>2018-06-16T10:19:21Z</time>
      </trkpt>
      <trkpt lat="45.9549" lon="4.69568">
        <ele>337</ele>
        <time>2018-06-16T10:19:22Z</time>
      </trkpt>
      <trkpt lat="45.95495" lon="4.69572">
        <ele>337</ele>
        <time>2018-06-16T10:19:23Z</time>
      </trkpt>
      <trkpt lat="45.95505" lon="4.69575">
        <ele>335</ele>
        <time>2018-06-16T10:19:24Z</time>
      </trkpt>
      <trkpt lat="45.95512" lon="4.69578">
        <ele>334</ele>
        <time>2018-06-16T10:19:25Z</time>
      </trkpt>
      <trkpt lat="45.95521" lon="4.69579">
        <ele>333</ele>
        <time>2018-06-16T10:19:26Z</time>
      </trkpt>
      <trkpt lat="45.95527" lon="4.69583">
        <ele>333</ele>
        <time>2018-06-16T10:19:27Z</time>
      </trkpt>
      <trkpt lat="45.95535" lon="4.69586">
        <ele>332</ele>
        <time>2018-06-16T10:19:28Z</time>
      </trkpt>
      <trkpt lat="45.95544" lon="4.69587">
        <ele>331</ele>
        <time>2018-06-16T10:19:29Z</time>
      </trkpt>
      <trkpt lat="45.95551" lon="4.69589">
        <ele>331</ele>
        <time>2018-06-16T10:19:30Z</time>
      </trkpt>
      <trkpt lat="45.95557" lon="4.69595">
        <ele>330</ele>
        <time>2018-06-16T10:19:31Z</time>
      </trkpt>
      <trkpt lat="45.95564" lon="4.69598">
        <ele>330</ele>
        <time>2018-06-16T10:19:32Z</time>
      </trkpt>
      <trkpt lat="45.95572" lon="4.69601">
        <ele>330</ele>
        <time>2018-06-16T10:19:33Z</time>
      </trkpt>
      <trkpt lat="45.95579" lon="4.69604">
        <ele>330</ele>
        <time>2018-06-16T10:19:34Z</time>
      </trkpt>
      <trkpt lat="45.95585" lon="4.69608">
        <ele>328</ele>
        <time>2018-06-16T10:19:35Z</time>
      </trkpt>
      <trkpt lat="45.95592" lon="4.69612">
        <ele>328</ele>
        <time>2018-06-16T10:19:36Z</time>
      </trkpt>
      <trkpt lat="45.95599" lon="4.69616">
        <ele>328</ele>
        <time>2018-06-16T10:19:37Z</time>
      </trkpt>
      <trkpt lat="45.95604" lon="4.6962">
        <ele>328</ele>
        <time>2018-06-16T10:19:38Z</time>
      </trkpt>
      <trkpt lat="45.9561" lon="4.69625">
        <ele>328</ele>
        <time>2018-06-16T10:19:39Z</time>
      </trkpt>
      <trkpt lat="45.95617" lon="4.69628">
        <ele>328</ele>
        <time>2018-06-16T10:19:40Z</time>
      </trkpt>
      <trkpt lat="45.95626" lon="4.69631">
        <ele>328</ele>
        <time>2018-06-16T10:19:41Z</time>
      </trkpt>
      <trkpt lat="45.95636" lon="4.69632">
        <ele>328</ele>
        <time>2018-06-16T10:19:42Z</time>
      </trkpt>
      <trkpt lat="45.95644" lon="4.69635">
        <ele>328</ele>
        <time>2018-06-16T10:19:43Z</time>
      </trkpt>
      <trkpt lat="45.95653" lon="4.69639">
        <ele>328</ele>
        <time>2018-06-16T10:19:44Z</time>
      </trkpt>
      <trkpt lat="45.9566" lon="4.69642">
        <ele>327</ele>
        <time>2018-06-16T10:19:45Z</time>
      </trkpt>
      <trkpt lat="45.9567" lon="4.69645">
        <ele>326</ele>
        <time>2018-06-16T10:19:46Z</time>
      </trkpt>
      <trkpt lat="45.95678" lon="4.69648">
        <ele>326</ele>
        <time>2018-06-16T10:19:47Z</time>
      </trkpt>
      <trkpt lat="45.95685" lon="4.6965">
        <ele>326</ele>
        <time>2018-06-16T10:19:48Z</time>
      </trkpt>
      <trkpt lat="45.95693" lon="4.69653">
        <ele>326</ele>
        <time>2018-06-16T10:19:49Z</time>
      </trkpt>
      <trkpt lat="45.957" lon="4.69655">
        <ele>326</ele>
        <time>2018-06-16T10:19:50Z</time>
      </trkpt>
      <trkpt lat="45.95707" lon="4.69658">
        <ele>326</ele>
        <time>2018-06-16T10:19:51Z</time>
      </trkpt>
      <trkpt lat="45.95719" lon="4.6966">
        <ele>326</ele>
        <time>2018-06-16T10:19:52Z</time>
      </trkpt>
      <trkpt lat="45.95726" lon="4.69663">
        <ele>326</ele>
        <time>2018-06-16T10:19:53Z</time>
      </trkpt>
      <trkpt lat="45.95734" lon="4.69664">
        <ele>326</ele>
        <time>2018-06-16T10:19:54Z</time>
      </trkpt>
      <trkpt lat="45.95739" lon="4.69668">
        <ele>326</ele>
        <time>2018-06-16T10:19:55Z</time>
      </trkpt>
      <trkpt lat="45.95745" lon="4.69671">
        <ele>326</ele>
        <time>2018-06-16T10:19:56Z</time>
      </trkpt>
      <trkpt lat="45.95752" lon="4.69675">
        <ele>326</ele>
        <time>2018-06-16T10:19:57Z</time>
      </trkpt>
      <trkpt lat="45.95758" lon="4.69677">
        <ele>326</ele>
        <time>2018-06-16T10:19:58Z</time>
      </trkpt>
      <trkpt lat="45.95765" lon="4.69683">
        <ele>326</ele>
        <time>2018-06-16T10:20:00Z</time>
      </trkpt>
      <trkpt lat="45.95769" lon="4.69684">
        <ele>326</ele>
        <time>2018-06-16T10:20:01Z</time>
      </trkpt>
      <trkpt lat="45.95776" lon="4.69687">
        <ele>326</ele>
        <time>2018-06-16T10:20:02Z</time>
      </trkpt>
      <trkpt lat="45.9578" lon="4.6969">
        <ele>326</ele>
        <time>2018-06-16T10:20:03Z</time>
      </trkpt>
      <trkpt lat="45.95784" lon="4.69695">
        <ele>326</ele>
        <time>2018-06-16T10:20:04Z</time>
      </trkpt>
      <trkpt lat="45.95788" lon="4.69699">
        <ele>326</ele>
        <time>2018-06-16T10:20:05Z</time>
      </trkpt>
      <trkpt lat="45.95792" lon="4.69705">
        <ele>326</ele>
        <time>2018-06-16T10:20:06Z</time>
      </trkpt>
      <trkpt lat="45.95795" lon="4.69711">
        <ele>326</ele>
        <time>2018-06-16T10:20:07Z</time>
      </trkpt>
      <trkpt lat="45.95799" lon="4.69716">
        <ele>326</ele>
        <time>2018-06-16T10:20:08Z</time>
      </trkpt>
      <trkpt lat="45.95803" lon="4.69721">
        <ele>326</ele>
        <time>2018-06-16T10:20:09Z</time>
      </trkpt>
      <trkpt lat="45.95806" lon="4.69726">
        <ele>326</ele>
        <time>2018-06-16T10:20:10Z</time>
      </trkpt>
      <trkpt lat="45.95809" lon="4.69731">
        <ele>326</ele>
        <time>2018-06-16T10:20:11Z</time>
      </trkpt>
      <trkpt lat="45.95814" lon="4.69741">
        <ele>327</ele>
        <time>2018-06-16T10:20:13Z</time>
      </trkpt>
      <trkpt lat="45.95817" lon="4.69746">
        <ele>327</ele>
        <time>2018-06-16T10:20:14Z</time>
      </trkpt>
      <trkpt lat="45.95822" lon="4.69757">
        <ele>328</ele>
        <time>2018-06-16T10:20:16Z</time>
      </trkpt>
      <trkpt lat="45.95825" lon="4.69763">
        <ele>328</ele>
        <time>2018-06-16T10:20:17Z</time>
      </trkpt>
      <trkpt lat="45.95828" lon="4.69769">
        <ele>328</ele>
        <time>2018-06-16T10:20:18Z</time>
      </trkpt>
      <trkpt lat="45.95831" lon="4.69773">
        <ele>328</ele>
        <time>2018-06-16T10:20:19Z</time>
      </trkpt>
      <trkpt lat="45.95837" lon="4.69782">
        <ele>327</ele>
        <time>2018-06-16T10:20:21Z</time>
      </trkpt>
      <trkpt lat="45.9584" lon="4.69789">
        <ele>327</ele>
        <time>2018-06-16T10:20:22Z</time>
      </trkpt>
      <trkpt lat="45.95844" lon="4.69793">
        <ele>327</ele>
        <time>2018-06-16T10:20:23Z</time>
      </trkpt>
      <trkpt lat="45.95847" lon="4.69798">
        <ele>327</ele>
        <time>2018-06-16T10:20:24Z</time>
      </trkpt>
      <trkpt lat="45.9585" lon="4.69803">
        <ele>327</ele>
        <time>2018-06-16T10:20:25Z</time>
      </trkpt>
      <trkpt lat="45.95851" lon="4.69809">
        <ele>328</ele>
        <time>2018-06-16T10:20:26Z</time>
      </trkpt>
      <trkpt lat="45.95854" lon="4.69816">
        <ele>328</ele>
        <time>2018-06-16T10:20:27Z</time>
      </trkpt>
      <trkpt lat="45.95857" lon="4.69821">
        <ele>328</ele>
        <time>2018-06-16T10:20:28Z</time>
      </trkpt>
      <trkpt lat="45.95858" lon="4.69828">
        <ele>328</ele>
        <time>2018-06-16T10:20:29Z</time>
      </trkpt>
      <trkpt lat="45.95862" lon="4.69833">
        <ele>328</ele>
        <time>2018-06-16T10:20:30Z</time>
      </trkpt>
      <trkpt lat="45.95864" lon="4.6984">
        <ele>329</ele>
        <time>2018-06-16T10:20:31Z</time>
      </trkpt>
      <trkpt lat="45.95866" lon="4.69846">
        <ele>329</ele>
        <time>2018-06-16T10:20:32Z</time>
      </trkpt>
      <trkpt lat="45.95868" lon="4.69853">
        <ele>329</ele>
        <time>2018-06-16T10:20:33Z</time>
      </trkpt>
      <trkpt lat="45.9587" lon="4.69859">
        <ele>329</ele>
        <time>2018-06-16T10:20:34Z</time>
      </trkpt>
      <trkpt lat="45.95872" lon="4.69865">
        <ele>329</ele>
        <time>2018-06-16T10:20:35Z</time>
      </trkpt>
      <trkpt lat="45.95874" lon="4.69872">
        <ele>329</ele>
        <time>2018-06-16T10:20:36Z</time>
      </trkpt>
      <trkpt lat="45.95876" lon="4.69879">
        <ele>329</ele>
        <time>2018-06-16T10:20:37Z</time>
      </trkpt>
      <trkpt lat="45.95879" lon="4.69886">
        <ele>329</ele>
        <time>2018-06-16T10:20:38Z</time>
      </trkpt>
      <trkpt lat="45.95883" lon="4.69891">
        <ele>329</ele>
        <time>2018-06-16T10:20:39Z</time>
      </trkpt>
      <trkpt lat="45.95885" lon="4.69898">
        <ele>329</ele>
        <time>2018-06-16T10:20:40Z</time>
      </trkpt>
      <trkpt lat="45.95885" lon="4.69906">
        <ele>329</ele>
        <time>2018-06-16T10:20:41Z</time>
      </trkpt>
      <trkpt lat="45.95887" lon="4.69914">
        <ele>329</ele>
        <time>2018-06-16T10:20:42Z</time>
      </trkpt>
      <trkpt lat="45.95889" lon="4.69921">
        <ele>328</ele>
        <time>2018-06-16T10:20:43Z</time>
      </trkpt>
      <trkpt lat="45.95891" lon="4.69928">
        <ele>328</ele>
        <time>2018-06-16T10:20:44Z</time>
      </trkpt>
      <trkpt lat="45.95892" lon="4.69935">
        <ele>328</ele>
        <time>2018-06-16T10:20:45Z</time>
      </trkpt>
      <trkpt lat="45.95894" lon="4.69941">
        <ele>328</ele>
        <time>2018-06-16T10:20:46Z</time>
      </trkpt>
      <trkpt lat="45.95896" lon="4.6995">
        <ele>328</ele>
        <time>2018-06-16T10:20:47Z</time>
      </trkpt>
      <trkpt lat="45.95898" lon="4.69956">
        <ele>328</ele>
        <time>2018-06-16T10:20:48Z</time>
      </trkpt>
      <trkpt lat="45.959" lon="4.69962">
        <ele>328</ele>
        <time>2018-06-16T10:20:49Z</time>
      </trkpt>
      <trkpt lat="45.95902" lon="4.69968">
        <ele>328</ele>
        <time>2018-06-16T10:20:50Z</time>
      </trkpt>
      <trkpt lat="45.95904" lon="4.69975">
        <ele>328</ele>
        <time>2018-06-16T10:20:51Z</time>
      </trkpt>
      <trkpt lat="45.95906" lon="4.69982">
        <ele>328</ele>
        <time>2018-06-16T10:20:52Z</time>
      </trkpt>
      <trkpt lat="45.95909" lon="4.6999">
        <ele>328</ele>
        <time>2018-06-16T10:20:53Z</time>
      </trkpt>
      <trkpt lat="45.95913" lon="4.69997">
        <ele>328</ele>
        <time>2018-06-16T10:20:54Z</time>
      </trkpt>
      <trkpt lat="45.95914" lon="4.70004">
        <ele>328</ele>
        <time>2018-06-16T10:20:55Z</time>
      </trkpt>
      <trkpt lat="45.95917" lon="4.70011">
        <ele>328</ele>
        <time>2018-06-16T10:20:56Z</time>
      </trkpt>
      <trkpt lat="45.9592" lon="4.70017">
        <ele>328</ele>
        <time>2018-06-16T10:20:57Z</time>
      </trkpt>
      <trkpt lat="45.95923" lon="4.70023">
        <ele>328</ele>
        <time>2018-06-16T10:20:58Z</time>
      </trkpt>
      <trkpt lat="45.95926" lon="4.70029">
        <ele>328</ele>
        <time>2018-06-16T10:20:59Z</time>
      </trkpt>
      <trkpt lat="45.95929" lon="4.70036">
        <ele>328</ele>
        <time>2018-06-16T10:21:00Z</time>
      </trkpt>
      <trkpt lat="45.95932" lon="4.70043">
        <ele>328</ele>
        <time>2018-06-16T10:21:01Z</time>
      </trkpt>
      <trkpt lat="45.95936" lon="4.70048">
        <ele>328</ele>
        <time>2018-06-16T10:21:02Z</time>
      </trkpt>
      <trkpt lat="45.95941" lon="4.70053">
        <ele>328</ele>
        <time>2018-06-16T10:21:03Z</time>
      </trkpt>
      <trkpt lat="45.95946" lon="4.70058">
        <ele>328</ele>
        <time>2018-06-16T10:21:04Z</time>
      </trkpt>
      <trkpt lat="45.95949" lon="4.70064">
        <ele>328</ele>
        <time>2018-06-16T10:21:05Z</time>
      </trkpt>
      <trkpt lat="45.95953" lon="4.70069">
        <ele>328</ele>
        <time>2018-06-16T10:21:06Z</time>
      </trkpt>
      <trkpt lat="45.95957" lon="4.70074">
        <ele>328</ele>
        <time>2018-06-16T10:21:07Z</time>
      </trkpt>
      <trkpt lat="45.95961" lon="4.70078">
        <ele>327</ele>
        <time>2018-06-16T10:21:08Z</time>
      </trkpt>
      <trkpt lat="45.95965" lon="4.70082">
        <ele>327</ele>
        <time>2018-06-16T10:21:09Z</time>
      </trkpt>
      <trkpt lat="45.95969" lon="4.70086">
        <ele>328</ele>
        <time>2018-06-16T10:21:10Z</time>
      </trkpt>
      <trkpt lat="45.95973" lon="4.70091">
        <ele>328</ele>
        <time>2018-06-16T10:21:11Z</time>
      </trkpt>
      <trkpt lat="45.95977" lon="4.70095">
        <ele>328</ele>
        <time>2018-06-16T10:21:12Z</time>
      </trkpt>
      <trkpt lat="45.95981" lon="4.701">
        <ele>328</ele>
        <time>2018-06-16T10:21:13Z</time>
      </trkpt>
      <trkpt lat="45.95985" lon="4.70104">
        <ele>328</ele>
        <time>2018-06-16T10:21:14Z</time>
      </trkpt>
      <trkpt lat="45.95989" lon="4.70109">
        <ele>328</ele>
        <time>2018-06-16T10:21:15Z</time>
      </trkpt>
      <trkpt lat="45.95993" lon="4.70113">
        <ele>328</ele>
        <time>2018-06-16T10:21:16Z</time>
      </trkpt>
      <trkpt lat="45.95998" lon="4.70118">
        <ele>328</ele>
        <time>2018-06-16T10:21:17Z</time>
      </trkpt>
      <trkpt lat="45.96002" lon="4.70122">
        <ele>328</ele>
        <time>2018-06-16T10:21:18Z</time>
      </trkpt>
      <trkpt lat="45.96005" lon="4.70125">
        <ele>328</ele>
        <time>2018-06-16T10:21:19Z</time>
      </trkpt>
      <trkpt lat="45.9601" lon="4.70129">
        <ele>328</ele>
        <time>2018-06-16T10:21:20Z</time>
      </trkpt>
      <trkpt lat="45.96013" lon="4.70134">
        <ele>328</ele>
        <time>2018-06-16T10:21:21Z</time>
      </trkpt>
      <trkpt lat="45.96018" lon="4.70139">
        <ele>328</ele>
        <time>2018-06-16T10:21:22Z</time>
      </trkpt>
      <trkpt lat="45.96021" lon="4.70145">
        <ele>329</ele>
        <time>2018-06-16T10:21:23Z</time>
      </trkpt>
      <trkpt lat="45.96024" lon="4.7015">
        <ele>329</ele>
        <time>2018-06-16T10:21:24Z</time>
      </trkpt>
      <trkpt lat="45.96027" lon="4.70156">
        <ele>329</ele>
        <time>2018-06-16T10:21:25Z</time>
      </trkpt>
      <trkpt lat="45.96031" lon="4.70161">
        <ele>329</ele>
        <time>2018-06-16T10:21:26Z</time>
      </trkpt>
      <trkpt lat="45.96038" lon="4.70168">
        <ele>327</ele>
        <time>2018-06-16T10:21:28Z</time>
      </trkpt>
      <trkpt lat="45.96043" lon="4.70172">
        <ele>327</ele>
        <time>2018-06-16T10:21:29Z</time>
      </trkpt>
      <trkpt lat="45.96047" lon="4.70176">
        <ele>327</ele>
        <time>2018-06-16T10:21:30Z</time>
      </trkpt>
      <trkpt lat="45.96051" lon="4.7018">
        <ele>327</ele>
        <time>2018-06-16T10:21:31Z</time>
      </trkpt>
      <trkpt lat="45.96056" lon="4.70185">
        <ele>327</ele>
        <time>2018-06-16T10:21:32Z</time>
      </trkpt>
      <trkpt lat="45.96062" lon="4.7019">
        <ele>327</ele>
        <time>2018-06-16T10:21:33Z</time>
      </trkpt>
      <trkpt lat="45.96068" lon="4.70193">
        <ele>327</ele>
        <time>2018-06-16T10:21:34Z</time>
      </trkpt>
      <trkpt lat="45.96073" lon="4.70197">
        <ele>327</ele>
        <time>2018-06-16T10:21:35Z</time>
      </trkpt>
      <trkpt lat="45.96079" lon="4.70201">
        <ele>327</ele>
        <time>2018-06-16T10:21:36Z</time>
      </trkpt>
      <trkpt lat="45.96084" lon="4.70205">
        <ele>327</ele>
        <time>2018-06-16T10:21:37Z</time>
      </trkpt>
      <trkpt lat="45.96091" lon="4.70209">
        <ele>327</ele>
        <time>2018-06-16T10:21:38Z</time>
      </trkpt>
      <trkpt lat="45.96095" lon="4.70215">
        <ele>327</ele>
        <time>2018-06-16T10:21:39Z</time>
      </trkpt>
      <trkpt lat="45.96098" lon="4.70218">
        <ele>327</ele>
        <time>2018-06-16T10:21:40Z</time>
      </trkpt>
      <trkpt lat="45.96105" lon="4.70225">
        <ele>327</ele>
        <time>2018-06-16T10:21:41Z</time>
      </trkpt>
      <trkpt lat="45.9611" lon="4.70229">
        <ele>327</ele>
        <time>2018-06-16T10:21:42Z</time>
      </trkpt>
      <trkpt lat="45.96116" lon="4.70234">
        <ele>327</ele>
        <time>2018-06-16T10:21:43Z</time>
      </trkpt>
      <trkpt lat="45.96122" lon="4.70238">
        <ele>327</ele>
        <time>2018-06-16T10:21:44Z</time>
      </trkpt>
      <trkpt lat="45.96129" lon="4.70243">
        <ele>327</ele>
        <time>2018-06-16T10:21:45Z</time>
      </trkpt>
      <trkpt lat="45.96134" lon="4.70248">
        <ele>327</ele>
        <time>2018-06-16T10:21:46Z</time>
      </trkpt>
      <trkpt lat="45.9614" lon="4.70254">
        <ele>324</ele>
        <time>2018-06-16T10:21:47Z</time>
      </trkpt>
      <trkpt lat="45.96146" lon="4.70259">
        <ele>324</ele>
        <time>2018-06-16T10:21:48Z</time>
      </trkpt>
      <trkpt lat="45.96151" lon="4.70265">
        <ele>324</ele>
        <time>2018-06-16T10:21:49Z</time>
      </trkpt>
      <trkpt lat="45.96156" lon="4.70271">
        <ele>324</ele>
        <time>2018-06-16T10:21:50Z</time>
      </trkpt>
      <trkpt lat="45.96161" lon="4.70277">
        <ele>324</ele>
        <time>2018-06-16T10:21:51Z</time>
      </trkpt>
      <trkpt lat="45.96166" lon="4.70282">
        <ele>323</ele>
        <time>2018-06-16T10:21:52Z</time>
      </trkpt>
      <trkpt lat="45.96171" lon="4.70288">
        <ele>326</ele>
        <time>2018-06-16T10:21:53Z</time>
      </trkpt>
      <trkpt lat="45.96175" lon="4.70294">
        <ele>326</ele>
        <time>2018-06-16T10:21:54Z</time>
      </trkpt>
      <trkpt lat="45.96179" lon="4.70301">
        <ele>325</ele>
        <time>2018-06-16T10:21:55Z</time>
      </trkpt>
      <trkpt lat="45.96184" lon="4.70307">
        <ele>325</ele>
        <time>2018-06-16T10:21:56Z</time>
      </trkpt>
      <trkpt lat="45.96188" lon="4.70313">
        <ele>325</ele>
        <time>2018-06-16T10:21:57Z</time>
      </trkpt>
      <trkpt lat="45.96192" lon="4.7032">
        <ele>325</ele>
        <time>2018-06-16T10:21:58Z</time>
      </trkpt>
      <trkpt lat="45.96197" lon="4.70327">
        <ele>325</ele>
        <time>2018-06-16T10:21:59Z</time>
      </trkpt>
      <trkpt lat="45.96202" lon="4.70334">
        <ele>320</ele>
        <time>2018-06-16T10:22:00Z</time>
      </trkpt>
      <trkpt lat="45.96207" lon="4.70341">
        <ele>321</ele>
        <time>2018-06-16T10:22:01Z</time>
      </trkpt>
      <trkpt lat="45.96212" lon="4.70348">
        <ele>321</ele>
        <time>2018-06-16T10:22:02Z</time>
      </trkpt>
      <trkpt lat="45.96217" lon="4.70356">
        <ele>321</ele>
        <time>2018-06-16T10:22:03Z</time>
      </trkpt>
      <trkpt lat="45.96222" lon="4.70363">
        <ele>321</ele>
        <time>2018-06-16T10:22:04Z</time>
      </trkpt>
      <trkpt lat="45.96227" lon="4.70371">
        <ele>321</ele>
        <time>2018-06-16T10:22:05Z</time>
      </trkpt>
      <trkpt lat="45.96232" lon="4.70378">
        <ele>320</ele>
        <time>2018-06-16T10:22:06Z</time>
      </trkpt>
      <trkpt lat="45.96237" lon="4.70385">
        <ele>320</ele>
        <time>2018-06-16T10:22:07Z</time>
      </trkpt>
      <trkpt lat="45.96242" lon="4.70392">
        <ele>320</ele>
        <time>2018-06-16T10:22:08Z</time>
      </trkpt>
      <trkpt lat="45.96247" lon="4.704">
        <ele>320</ele>
        <time>2018-06-16T10:22:09Z</time>
      </trkpt>
      <trkpt lat="45.96253" lon="4.70407">
        <ele>323</ele>
        <time>2018-06-16T10:22:10Z</time>
      </trkpt>
      <trkpt lat="45.96258" lon="4.70415">
        <ele>322</ele>
        <time>2018-06-16T10:22:11Z</time>
      </trkpt>
      <trkpt lat="45.96264" lon="4.70422">
        <ele>321</ele>
        <time>2018-06-16T10:22:12Z</time>
      </trkpt>
      <trkpt lat="45.96269" lon="4.7043">
        <ele>321</ele>
        <time>2018-06-16T10:22:13Z</time>
      </trkpt>
      <trkpt lat="45.96273" lon="4.70438">
        <ele>321</ele>
        <time>2018-06-16T10:22:14Z</time>
      </trkpt>
      <trkpt lat="45.96278" lon="4.70445">
        <ele>321</ele>
        <time>2018-06-16T10:22:15Z</time>
      </trkpt>
      <trkpt lat="45.96283" lon="4.70454">
        <ele>321</ele>
        <time>2018-06-16T10:22:16Z</time>
      </trkpt>
      <trkpt lat="45.96287" lon="4.70463">
        <ele>320</ele>
        <time>2018-06-16T10:22:17Z</time>
      </trkpt>
      <trkpt lat="45.96293" lon="4.7047">
        <ele>320</ele>
        <time>2018-06-16T10:22:18Z</time>
      </trkpt>
      <trkpt lat="45.96297" lon="4.70477">
        <ele>320</ele>
        <time>2018-06-16T10:22:19Z</time>
      </trkpt>
      <trkpt lat="45.96302" lon="4.70484">
        <ele>320</ele>
        <time>2018-06-16T10:22:20Z</time>
      </trkpt>
      <trkpt lat="45.96307" lon="4.70491">
        <ele>320</ele>
        <time>2018-06-16T10:22:21Z</time>
      </trkpt>
      <trkpt lat="45.96314" lon="4.70499">
        <ele>320</ele>
        <time>2018-06-16T10:22:22Z</time>
      </trkpt>
      <trkpt lat="45.96319" lon="4.70506">
        <ele>317</ele>
        <time>2018-06-16T10:22:23Z</time>
      </trkpt>
      <trkpt lat="45.96323" lon="4.70514">
        <ele>316</ele>
        <time>2018-06-16T10:22:24Z</time>
      </trkpt>
      <trkpt lat="45.96329" lon="4.70521">
        <ele>316</ele>
        <time>2018-06-16T10:22:25Z</time>
      </trkpt>
      <trkpt lat="45.96336" lon="4.70528">
        <ele>319</ele>
        <time>2018-06-16T10:22:26Z</time>
      </trkpt>
      <trkpt lat="45.96341" lon="4.70536">
        <ele>319</ele>
        <time>2018-06-16T10:22:27Z</time>
      </trkpt>
      <trkpt lat="45.96347" lon="4.70543">
        <ele>318</ele>
        <time>2018-06-16T10:22:28Z</time>
      </trkpt>
      <trkpt lat="45.96353" lon="4.70551">
        <ele>318</ele>
        <time>2018-06-16T10:22:29Z</time>
      </trkpt>
      <trkpt lat="45.96362" lon="4.70558">
        <ele>318</ele>
        <time>2018-06-16T10:22:30Z</time>
      </trkpt>
      <trkpt lat="45.96368" lon="4.70565">
        <ele>318</ele>
        <time>2018-06-16T10:22:31Z</time>
      </trkpt>
      <trkpt lat="45.96373" lon="4.70573">
        <ele>318</ele>
        <time>2018-06-16T10:22:32Z</time>
      </trkpt>
      <trkpt lat="45.9638" lon="4.70581">
        <ele>318</ele>
        <time>2018-06-16T10:22:33Z</time>
      </trkpt>
      <trkpt lat="45.96385" lon="4.70589">
        <ele>312</ele>
        <time>2018-06-16T10:22:34Z</time>
      </trkpt>
      <trkpt lat="45.96391" lon="4.70596">
        <ele>312</ele>
        <time>2018-06-16T10:22:35Z</time>
      </trkpt>
      <trkpt lat="45.96398" lon="4.70604">
        <ele>312</ele>
        <time>2018-06-16T10:22:36Z</time>
      </trkpt>
      <trkpt lat="45.96404" lon="4.70612">
        <ele>312</ele>
        <time>2018-06-16T10:22:37Z</time>
      </trkpt>
      <trkpt lat="45.9641" lon="4.7062">
        <ele>311</ele>
        <time>2018-06-16T10:22:38Z</time>
      </trkpt>
      <trkpt lat="45.96416" lon="4.70628">
        <ele>311</ele>
        <time>2018-06-16T10:22:39Z</time>
      </trkpt>
      <trkpt lat="45.96422" lon="4.70635">
        <ele>313</ele>
        <time>2018-06-16T10:22:40Z</time>
      </trkpt>
      <trkpt lat="45.96429" lon="4.70642">
        <ele>312</ele>
        <time>2018-06-16T10:22:41Z</time>
      </trkpt>
      <trkpt lat="45.96437" lon="4.7065">
        <ele>312</ele>
        <time>2018-06-16T10:22:42Z</time>
      </trkpt>
      <trkpt lat="45.96444" lon="4.70657">
        <ele>312</ele>
        <time>2018-06-16T10:22:43Z</time>
      </trkpt>
      <trkpt lat="45.96451" lon="4.70664">
        <ele>312</ele>
        <time>2018-06-16T10:22:44Z</time>
      </trkpt>
      <trkpt lat="45.96458" lon="4.70672">
        <ele>305</ele>
        <time>2018-06-16T10:22:45Z</time>
      </trkpt>
      <trkpt lat="45.96466" lon="4.7068">
        <ele>305</ele>
        <time>2018-06-16T10:22:46Z</time>
      </trkpt>
      <trkpt lat="45.96473" lon="4.70687">
        <ele>305</ele>
        <time>2018-06-16T10:22:47Z</time>
      </trkpt>
      <trkpt lat="45.96481" lon="4.70695">
        <ele>305</ele>
        <time>2018-06-16T10:22:48Z</time>
      </trkpt>
      <trkpt lat="45.9649" lon="4.70702">
        <ele>304</ele>
        <time>2018-06-16T10:22:49Z</time>
      </trkpt>
      <trkpt lat="45.96499" lon="4.70708">
        <ele>304</ele>
        <time>2018-06-16T10:22:50Z</time>
      </trkpt>
      <trkpt lat="45.96507" lon="4.70715">
        <ele>305</ele>
        <time>2018-06-16T10:22:51Z</time>
      </trkpt>
      <trkpt lat="45.96516" lon="4.70722">
        <ele>305</ele>
        <time>2018-06-16T10:22:52Z</time>
      </trkpt>
      <trkpt lat="45.96525" lon="4.7073">
        <ele>305</ele>
        <time>2018-06-16T10:22:53Z</time>
      </trkpt>
      <trkpt lat="45.96534" lon="4.70736">
        <ele>305</ele>
        <time>2018-06-16T10:22:54Z</time>
      </trkpt>
      <trkpt lat="45.96543" lon="4.70743">
        <ele>305</ele>
        <time>2018-06-16T10:22:55Z</time>
      </trkpt>
      <trkpt lat="45.96552" lon="4.7075">
        <ele>305</ele>
        <time>2018-06-16T10:22:56Z</time>
      </trkpt>
      <trkpt lat="45.96563" lon="4.70756">
        <ele>299</ele>
        <time>2018-06-16T10:22:57Z</time>
      </trkpt>
      <trkpt lat="45.96572" lon="4.70762">
        <ele>299</ele>
        <time>2018-06-16T10:22:58Z</time>
      </trkpt>
      <trkpt lat="45.96581" lon="4.70769">
        <ele>299</ele>
        <time>2018-06-16T10:22:59Z</time>
      </trkpt>
      <trkpt lat="45.96588" lon="4.70776">
        <ele>300</ele>
        <time>2018-06-16T10:23:00Z</time>
      </trkpt>
      <trkpt lat="45.96596" lon="4.70783">
        <ele>299</ele>
        <time>2018-06-16T10:23:01Z</time>
      </trkpt>
      <trkpt lat="45.96605" lon="4.7079">
        <ele>298</ele>
        <time>2018-06-16T10:23:02Z</time>
      </trkpt>
      <trkpt lat="45.96614" lon="4.70795">
        <ele>298</ele>
        <time>2018-06-16T10:23:03Z</time>
      </trkpt>
      <trkpt lat="45.96623" lon="4.70801">
        <ele>298</ele>
        <time>2018-06-16T10:23:04Z</time>
      </trkpt>
      <trkpt lat="45.96633" lon="4.7081">
        <ele>298</ele>
        <time>2018-06-16T10:23:05Z</time>
      </trkpt>
      <trkpt lat="45.96642" lon="4.70817">
        <ele>297</ele>
        <time>2018-06-16T10:23:06Z</time>
      </trkpt>
      <trkpt lat="45.96651" lon="4.70823">
        <ele>297</ele>
        <time>2018-06-16T10:23:07Z</time>
      </trkpt>
      <trkpt lat="45.9666" lon="4.70831">
        <ele>296</ele>
        <time>2018-06-16T10:23:08Z</time>
      </trkpt>
      <trkpt lat="45.96669" lon="4.70837">
        <ele>294</ele>
        <time>2018-06-16T10:23:09Z</time>
      </trkpt>
      <trkpt lat="45.96679" lon="4.70843">
        <ele>292</ele>
        <time>2018-06-16T10:23:10Z</time>
      </trkpt>
      <trkpt lat="45.96688" lon="4.7085">
        <ele>291</ele>
        <time>2018-06-16T10:23:11Z</time>
      </trkpt>
      <trkpt lat="45.96697" lon="4.70856">
        <ele>290</ele>
        <time>2018-06-16T10:23:12Z</time>
      </trkpt>
      <trkpt lat="45.96707" lon="4.70861">
        <ele>289</ele>
        <time>2018-06-16T10:23:13Z</time>
      </trkpt>
      <trkpt lat="45.96716" lon="4.70868">
        <ele>289</ele>
        <time>2018-06-16T10:23:14Z</time>
      </trkpt>
      <trkpt lat="45.96725" lon="4.70873">
        <ele>288</ele>
        <time>2018-06-16T10:23:15Z</time>
      </trkpt>
      <trkpt lat="45.96737" lon="4.70879">
        <ele>288</ele>
        <time>2018-06-16T10:23:16Z</time>
      </trkpt>
      <trkpt lat="45.96747" lon="4.70885">
        <ele>287</ele>
        <time>2018-06-16T10:23:17Z</time>
      </trkpt>
      <trkpt lat="45.96756" lon="4.70891">
        <ele>288</ele>
        <time>2018-06-16T10:23:18Z</time>
      </trkpt>
      <trkpt lat="45.96767" lon="4.70895">
        <ele>288</ele>
        <time>2018-06-16T10:23:19Z</time>
      </trkpt>
      <trkpt lat="45.96776" lon="4.70902">
        <ele>288</ele>
        <time>2018-06-16T10:23:20Z</time>
      </trkpt>
      <trkpt lat="45.96787" lon="4.70908">
        <ele>288</ele>
        <time>2018-06-16T10:23:21Z</time>
      </trkpt>
      <trkpt lat="45.96798" lon="4.70914">
        <ele>288</ele>
        <time>2018-06-16T10:23:22Z</time>
      </trkpt>
      <trkpt lat="45.96805" lon="4.70919">
        <ele>281</ele>
        <time>2018-06-16T10:23:23Z</time>
      </trkpt>
      <trkpt lat="45.96813" lon="4.70926">
        <ele>281</ele>
        <time>2018-06-16T10:23:24Z</time>
      </trkpt>
      <trkpt lat="45.96821" lon="4.70933">
        <ele>281</ele>
        <time>2018-06-16T10:23:25Z</time>
      </trkpt>
      <trkpt lat="45.96831" lon="4.70938">
        <ele>281</ele>
        <time>2018-06-16T10:23:26Z</time>
      </trkpt>
      <trkpt lat="45.9684" lon="4.70945">
        <ele>281</ele>
        <time>2018-06-16T10:23:27Z</time>
      </trkpt>
      <trkpt lat="45.96848" lon="4.70951">
        <ele>280</ele>
        <time>2018-06-16T10:23:28Z</time>
      </trkpt>
      <trkpt lat="45.96858" lon="4.70956">
        <ele>279</ele>
        <time>2018-06-16T10:23:29Z</time>
      </trkpt>
      <trkpt lat="45.96867" lon="4.70961">
        <ele>279</ele>
        <time>2018-06-16T10:23:30Z</time>
      </trkpt>
      <trkpt lat="45.96876" lon="4.70966">
        <ele>279</ele>
        <time>2018-06-16T10:23:31Z</time>
      </trkpt>
      <trkpt lat="45.96886" lon="4.7097">
        <ele>278</ele>
        <time>2018-06-16T10:23:32Z</time>
      </trkpt>
      <trkpt lat="45.96896" lon="4.70974">
        <ele>278</ele>
        <time>2018-06-16T10:23:33Z</time>
      </trkpt>
      <trkpt lat="45.96906" lon="4.70975">
        <ele>277</ele>
        <time>2018-06-16T10:23:34Z</time>
      </trkpt>
      <trkpt lat="45.96916" lon="4.70977">
        <ele>277</ele>
        <time>2018-06-16T10:23:35Z</time>
      </trkpt>
      <trkpt lat="45.96926" lon="4.70979">
        <ele>275</ele>
        <time>2018-06-16T10:23:36Z</time>
      </trkpt>
      <trkpt lat="45.96936" lon="4.70982">
        <ele>275</ele>
        <time>2018-06-16T10:23:37Z</time>
      </trkpt>
      <trkpt lat="45.96943" lon="4.70983">
        <ele>275</ele>
        <time>2018-06-16T10:23:38Z</time>
      </trkpt>
      <trkpt lat="45.96951" lon="4.70984">
        <ele>275</ele>
        <time>2018-06-16T10:23:39Z</time>
      </trkpt>
      <trkpt lat="45.96959" lon="4.70987">
        <ele>274</ele>
        <time>2018-06-16T10:23:40Z</time>
      </trkpt>
      <trkpt lat="45.96968" lon="4.70988">
        <ele>274</ele>
        <time>2018-06-16T10:23:41Z</time>
      </trkpt>
      <trkpt lat="45.96979" lon="4.70989">
        <ele>273</ele>
        <time>2018-06-16T10:23:42Z</time>
      </trkpt>
      <trkpt lat="45.96989" lon="4.70989">
        <ele>272</ele>
        <time>2018-06-16T10:23:43Z</time>
      </trkpt>
      <trkpt lat="45.96998" lon="4.70989">
        <ele>271</ele>
        <time>2018-06-16T10:23:44Z</time>
      </trkpt>
      <trkpt lat="45.9701" lon="4.7099">
        <ele>269</ele>
        <time>2018-06-16T10:23:45Z</time>
      </trkpt>
      <trkpt lat="45.97021" lon="4.70989">
        <ele>269</ele>
        <time>2018-06-16T10:23:46Z</time>
      </trkpt>
      <trkpt lat="45.97033" lon="4.70989">
        <ele>269</ele>
        <time>2018-06-16T10:23:47Z</time>
      </trkpt>
      <trkpt lat="45.97044" lon="4.70989">
        <ele>269</ele>
        <time>2018-06-16T10:23:48Z</time>
      </trkpt>
      <trkpt lat="45.97054" lon="4.70989">
        <ele>268</ele>
        <time>2018-06-16T10:23:49Z</time>
      </trkpt>
      <trkpt lat="45.97064" lon="4.70987">
        <ele>268</ele>
        <time>2018-06-16T10:23:50Z</time>
      </trkpt>
      <trkpt lat="45.97076" lon="4.70983">
        <ele>267</ele>
        <time>2018-06-16T10:23:51Z</time>
      </trkpt>
      <trkpt lat="45.97087" lon="4.7098">
        <ele>264</ele>
        <time>2018-06-16T10:23:52Z</time>
      </trkpt>
      <trkpt lat="45.97097" lon="4.70976">
        <ele>264</ele>
        <time>2018-06-16T10:23:53Z</time>
      </trkpt>
      <trkpt lat="45.9711" lon="4.70972">
        <ele>264</ele>
        <time>2018-06-16T10:23:54Z</time>
      </trkpt>
      <trkpt lat="45.9712" lon="4.70968">
        <ele>264</ele>
        <time>2018-06-16T10:23:55Z</time>
      </trkpt>
      <trkpt lat="45.9713" lon="4.70964">
        <ele>263</ele>
        <time>2018-06-16T10:23:56Z</time>
      </trkpt>
      <trkpt lat="45.9714" lon="4.70959">
        <ele>263</ele>
        <time>2018-06-16T10:23:57Z</time>
      </trkpt>
      <trkpt lat="45.97149" lon="4.70955">
        <ele>263</ele>
        <time>2018-06-16T10:23:58Z</time>
      </trkpt>
      <trkpt lat="45.97161" lon="4.70949">
        <ele>263</ele>
        <time>2018-06-16T10:23:59Z</time>
      </trkpt>
      <trkpt lat="45.9717" lon="4.70943">
        <ele>258</ele>
        <time>2018-06-16T10:24:00Z</time>
      </trkpt>
      <trkpt lat="45.97179" lon="4.70937">
        <ele>258</ele>
        <time>2018-06-16T10:24:01Z</time>
      </trkpt>
      <trkpt lat="45.97187" lon="4.70933">
        <ele>258</ele>
        <time>2018-06-16T10:24:02Z</time>
      </trkpt>
      <trkpt lat="45.97196" lon="4.70927">
        <ele>257</ele>
        <time>2018-06-16T10:24:03Z</time>
      </trkpt>
      <trkpt lat="45.97206" lon="4.70918">
        <ele>256</ele>
        <time>2018-06-16T10:24:04Z</time>
      </trkpt>
      <trkpt lat="45.97213" lon="4.70911">
        <ele>260</ele>
        <time>2018-06-16T10:24:05Z</time>
      </trkpt>
      <trkpt lat="45.97221" lon="4.70902">
        <ele>259</ele>
        <time>2018-06-16T10:24:06Z</time>
      </trkpt>
      <trkpt lat="45.97228" lon="4.70894">
        <ele>259</ele>
        <time>2018-06-16T10:24:07Z</time>
      </trkpt>
      <trkpt lat="45.97237" lon="4.70884">
        <ele>259</ele>
        <time>2018-06-16T10:24:08Z</time>
      </trkpt>
      <trkpt lat="45.97244" lon="4.70874">
        <ele>259</ele>
        <time>2018-06-16T10:24:09Z</time>
      </trkpt>
      <trkpt lat="45.9725" lon="4.70865">
        <ele>259</ele>
        <time>2018-06-16T10:24:10Z</time>
      </trkpt>
      <trkpt lat="45.97257" lon="4.70855">
        <ele>253</ele>
        <time>2018-06-16T10:24:11Z</time>
      </trkpt>
      <trkpt lat="45.97263" lon="4.70846">
        <ele>254</ele>
        <time>2018-06-16T10:24:12Z</time>
      </trkpt>
      <trkpt lat="45.97269" lon="4.70837">
        <ele>253</ele>
        <time>2018-06-16T10:24:13Z</time>
      </trkpt>
      <trkpt lat="45.97275" lon="4.70826">
        <ele>255</ele>
        <time>2018-06-16T10:24:14Z</time>
      </trkpt>
      <trkpt lat="45.97282" lon="4.70817">
        <ele>254</ele>
        <time>2018-06-16T10:24:15Z</time>
      </trkpt>
      <trkpt lat="45.97289" lon="4.70809">
        <ele>254</ele>
        <time>2018-06-16T10:24:16Z</time>
      </trkpt>
      <trkpt lat="45.97295" lon="4.70802">
        <ele>253</ele>
        <time>2018-06-16T10:24:17Z</time>
      </trkpt>
      <trkpt lat="45.97301" lon="4.70795">
        <ele>253</ele>
        <time>2018-06-16T10:24:18Z</time>
      </trkpt>
      <trkpt lat="45.97308" lon="4.7079">
        <ele>253</ele>
        <time>2018-06-16T10:24:19Z</time>
      </trkpt>
      <trkpt lat="45.97312" lon="4.70785">
        <ele>252</ele>
        <time>2018-06-16T10:24:20Z</time>
      </trkpt>
      <trkpt lat="45.97316" lon="4.7078">
        <ele>252</ele>
        <time>2018-06-16T10:24:21Z</time>
      </trkpt>
      <trkpt lat="45.97321" lon="4.70776">
        <ele>252</ele>
        <time>2018-06-16T10:24:22Z</time>
      </trkpt>
      <trkpt lat="45.97327" lon="4.70773">
        <ele>252</ele>
        <time>2018-06-16T10:24:23Z</time>
      </trkpt>
      <trkpt lat="45.97332" lon="4.70767">
        <ele>251</ele>
        <time>2018-06-16T10:24:24Z</time>
      </trkpt>
      <trkpt lat="45.97339" lon="4.70763">
        <ele>247</ele>
        <time>2018-06-16T10:24:25Z</time>
      </trkpt>
      <trkpt lat="45.97344" lon="4.70759">
        <ele>247</ele>
        <time>2018-06-16T10:24:26Z</time>
      </trkpt>
      <trkpt lat="45.97352" lon="4.70755">
        <ele>246</ele>
        <time>2018-06-16T10:24:27Z</time>
      </trkpt>
      <trkpt lat="45.97359" lon="4.70752">
        <ele>245</ele>
        <time>2018-06-16T10:24:28Z</time>
      </trkpt>
      <trkpt lat="45.97367" lon="4.7075">
        <ele>245</ele>
        <time>2018-06-16T10:24:29Z</time>
      </trkpt>
      <trkpt lat="45.97374" lon="4.70746">
        <ele>244</ele>
        <time>2018-06-16T10:24:30Z</time>
      </trkpt>
      <trkpt lat="45.97382" lon="4.70744">
        <ele>244</ele>
        <time>2018-06-16T10:24:31Z</time>
      </trkpt>
      <trkpt lat="45.9739" lon="4.70743">
        <ele>243</ele>
        <time>2018-06-16T10:24:32Z</time>
      </trkpt>
      <trkpt lat="45.97397" lon="4.70743">
        <ele>242</ele>
        <time>2018-06-16T10:24:33Z</time>
      </trkpt>
      <trkpt lat="45.97405" lon="4.70744">
        <ele>242</ele>
        <time>2018-06-16T10:24:34Z</time>
      </trkpt>
      <trkpt lat="45.97413" lon="4.70745">
        <ele>241</ele>
        <time>2018-06-16T10:24:35Z</time>
      </trkpt>
      <trkpt lat="45.97421" lon="4.70747">
        <ele>240</ele>
        <time>2018-06-16T10:24:36Z</time>
      </trkpt>
      <trkpt lat="45.97429" lon="4.70747">
        <ele>239</ele>
        <time>2018-06-16T10:24:37Z</time>
      </trkpt>
      <trkpt lat="45.97436" lon="4.70748">
        <ele>239</ele>
        <time>2018-06-16T10:24:38Z</time>
      </trkpt>
      <trkpt lat="45.97445" lon="4.70747">
        <ele>238</ele>
        <time>2018-06-16T10:24:39Z</time>
      </trkpt>
      <trkpt lat="45.97453" lon="4.70748">
        <ele>238</ele>
        <time>2018-06-16T10:24:40Z</time>
      </trkpt>
      <trkpt lat="45.97462" lon="4.70748">
        <ele>238</ele>
        <time>2018-06-16T10:24:41Z</time>
      </trkpt>
      <trkpt lat="45.97469" lon="4.70746">
        <ele>238</ele>
        <time>2018-06-16T10:24:42Z</time>
      </trkpt>
      <trkpt lat="45.97475" lon="4.70746">
        <ele>237</ele>
        <time>2018-06-16T10:24:43Z</time>
      </trkpt>
      <trkpt lat="45.97482" lon="4.70744">
        <ele>237</ele>
        <time>2018-06-16T10:24:44Z</time>
      </trkpt>
      <trkpt lat="45.97487" lon="4.70744">
        <ele>237</ele>
        <time>2018-06-16T10:24:45Z</time>
      </trkpt>
      <trkpt lat="45.97494" lon="4.70743">
        <ele>237</ele>
        <time>2018-06-16T10:24:46Z</time>
      </trkpt>
      <trkpt lat="45.97502" lon="4.70743">
        <ele>235</ele>
        <time>2018-06-16T10:24:47Z</time>
      </trkpt>
      <trkpt lat="45.97509" lon="4.7074">
        <ele>235</ele>
        <time>2018-06-16T10:24:48Z</time>
      </trkpt>
      <trkpt lat="45.97517" lon="4.7074">
        <ele>235</ele>
        <time>2018-06-16T10:24:49Z</time>
      </trkpt>
      <trkpt lat="45.97522" lon="4.7074">
        <ele>234</ele>
        <time>2018-06-16T10:24:50Z</time>
      </trkpt>
      <trkpt lat="45.9753" lon="4.70737">
        <ele>234</ele>
        <time>2018-06-16T10:24:51Z</time>
      </trkpt>
      <trkpt lat="45.97536" lon="4.70736">
        <ele>234</ele>
        <time>2018-06-16T10:24:52Z</time>
      </trkpt>
      <trkpt lat="45.97543" lon="4.70735">
        <ele>233</ele>
        <time>2018-06-16T10:24:53Z</time>
      </trkpt>
      <trkpt lat="45.97547" lon="4.70739">
        <ele>233</ele>
        <time>2018-06-16T10:24:54Z</time>
      </trkpt>
      <trkpt lat="45.97555" lon="4.70737">
        <ele>233</ele>
        <time>2018-06-16T10:24:55Z</time>
      </trkpt>
      <trkpt lat="45.97563" lon="4.70734">
        <ele>233</ele>
        <time>2018-06-16T10:24:56Z</time>
      </trkpt>
      <trkpt lat="45.97572" lon="4.70731">
        <ele>232</ele>
        <time>2018-06-16T10:24:57Z</time>
      </trkpt>
      <trkpt lat="45.97581" lon="4.70728">
        <ele>232</ele>
        <time>2018-06-16T10:24:58Z</time>
      </trkpt>
      <trkpt lat="45.97589" lon="4.70728">
        <ele>229</ele>
        <time>2018-06-16T10:24:59Z</time>
      </trkpt>
      <trkpt lat="45.97597" lon="4.70729">
        <ele>229</ele>
        <time>2018-06-16T10:25:00Z</time>
      </trkpt>
      <trkpt lat="45.97605" lon="4.70731">
        <ele>229</ele>
        <time>2018-06-16T10:25:01Z</time>
      </trkpt>
      <trkpt lat="45.97615" lon="4.70732">
        <ele>228</ele>
        <time>2018-06-16T10:25:02Z</time>
      </trkpt>
      <trkpt lat="45.97623" lon="4.70735">
        <ele>228</ele>
        <time>2018-06-16T10:25:03Z</time>
      </trkpt>
      <trkpt lat="45.97627" lon="4.70742">
        <ele>228</ele>
        <time>2018-06-16T10:25:04Z</time>
      </trkpt>
      <trkpt lat="45.97634" lon="4.70744">
        <ele>227</ele>
        <time>2018-06-16T10:25:05Z</time>
      </trkpt>
      <trkpt lat="45.97642" lon="4.70748">
        <ele>227</ele>
        <time>2018-06-16T10:25:06Z</time>
      </trkpt>
      <trkpt lat="45.97651" lon="4.70751">
        <ele>226</ele>
        <time>2018-06-16T10:25:07Z</time>
      </trkpt>
      <trkpt lat="45.97658" lon="4.70754">
        <ele>225</ele>
        <time>2018-06-16T10:25:08Z</time>
      </trkpt>
      <trkpt lat="45.97667" lon="4.70757">
        <ele>225</ele>
        <time>2018-06-16T10:25:09Z</time>
      </trkpt>
      <trkpt lat="45.9767" lon="4.70763">
        <ele>223</ele>
        <time>2018-06-16T10:25:10Z</time>
      </trkpt>
      <trkpt lat="45.97678" lon="4.70766">
        <ele>223</ele>
        <time>2018-06-16T10:25:11Z</time>
      </trkpt>
      <trkpt lat="45.97686" lon="4.70769">
        <ele>223</ele>
        <time>2018-06-16T10:25:12Z</time>
      </trkpt>
      <trkpt lat="45.97695" lon="4.70771">
        <ele>223</ele>
        <time>2018-06-16T10:25:13Z</time>
      </trkpt>
      <trkpt lat="45.97704" lon="4.70772">
        <ele>223</ele>
        <time>2018-06-16T10:25:14Z</time>
      </trkpt>
      <trkpt lat="45.97713" lon="4.70774">
        <ele>223</ele>
        <time>2018-06-16T10:25:15Z</time>
      </trkpt>
      <trkpt lat="45.97721" lon="4.70777">
        <ele>222</ele>
        <time>2018-06-16T10:25:16Z</time>
      </trkpt>
      <trkpt lat="45.9773" lon="4.70778">
        <ele>222</ele>
        <time>2018-06-16T10:25:17Z</time>
      </trkpt>
      <trkpt lat="45.97738" lon="4.70782">
        <ele>222</ele>
        <time>2018-06-16T10:25:18Z</time>
      </trkpt>
      <trkpt lat="45.97745" lon="4.70785">
        <ele>222</ele>
        <time>2018-06-16T10:25:19Z</time>
      </trkpt>
      <trkpt lat="45.97751" lon="4.70787">
        <ele>221</ele>
        <time>2018-06-16T10:25:20Z</time>
      </trkpt>
      <trkpt lat="45.97756" lon="4.70788">
        <ele>221</ele>
        <time>2018-06-16T10:25:21Z</time>
      </trkpt>
      <trkpt lat="45.97761" lon="4.70789">
        <ele>221</ele>
        <time>2018-06-16T10:25:22Z</time>
      </trkpt>
      <trkpt lat="45.97767" lon="4.70789">
        <ele>221</ele>
        <time>2018-06-16T10:25:23Z</time>
      </trkpt>
      <trkpt lat="45.97772" lon="4.7079">
        <ele>221</ele>
        <time>2018-06-16T10:25:24Z</time>
      </trkpt>
      <trkpt lat="45.97777" lon="4.70799">
        <ele>221</ele>
        <time>2018-06-16T10:25:26Z</time>
      </trkpt>
      <trkpt lat="45.97783" lon="4.70802">
        <ele>221</ele>
        <time>2018-06-16T10:25:27Z</time>
      </trkpt>
      <trkpt lat="45.97788" lon="4.70806">
        <ele>221</ele>
        <time>2018-06-16T10:25:28Z</time>
      </trkpt>
      <trkpt lat="45.97793" lon="4.70813">
        <ele>221</ele>
        <time>2018-06-16T10:25:29Z</time>
      </trkpt>
      <trkpt lat="45.97796" lon="4.70819">
        <ele>221</ele>
        <time>2018-06-16T10:25:30Z</time>
      </trkpt>
      <trkpt lat="45.97799" lon="4.70826">
        <ele>221</ele>
        <time>2018-06-16T10:25:31Z</time>
      </trkpt>
      <trkpt lat="45.97805" lon="4.7083">
        <ele>221</ele>
        <time>2018-06-16T10:25:32Z</time>
      </trkpt>
      <trkpt lat="45.97808" lon="4.70838">
        <ele>220</ele>
        <time>2018-06-16T10:25:33Z</time>
      </trkpt>
      <trkpt lat="45.9781" lon="4.70846">
        <ele>220</ele>
        <time>2018-06-16T10:25:34Z</time>
      </trkpt>
      <trkpt lat="45.97812" lon="4.70854">
        <ele>220</ele>
        <time>2018-06-16T10:25:35Z</time>
      </trkpt>
      <trkpt lat="45.97813" lon="4.70862">
        <ele>220</ele>
        <time>2018-06-16T10:25:36Z</time>
      </trkpt>
      <trkpt lat="45.97816" lon="4.70871">
        <ele>220</ele>
        <time>2018-06-16T10:25:37Z</time>
      </trkpt>
      <trkpt lat="45.97817" lon="4.7088">
        <ele>220</ele>
        <time>2018-06-16T10:25:38Z</time>
      </trkpt>
      <trkpt lat="45.97819" lon="4.70888">
        <ele>220</ele>
        <time>2018-06-16T10:25:39Z</time>
      </trkpt>
      <trkpt lat="45.9782" lon="4.70896">
        <ele>220</ele>
        <time>2018-06-16T10:25:40Z</time>
      </trkpt>
      <trkpt lat="45.9782" lon="4.70905">
        <ele>220</ele>
        <time>2018-06-16T10:25:41Z</time>
      </trkpt>
      <trkpt lat="45.9782" lon="4.70914">
        <ele>219</ele>
        <time>2018-06-16T10:25:42Z</time>
      </trkpt>
      <trkpt lat="45.9782" lon="4.70922">
        <ele>219</ele>
        <time>2018-06-16T10:25:43Z</time>
      </trkpt>
      <trkpt lat="45.97822" lon="4.70932">
        <ele>219</ele>
        <time>2018-06-16T10:25:44Z</time>
      </trkpt>
      <trkpt lat="45.97824" lon="4.70941">
        <ele>218</ele>
        <time>2018-06-16T10:25:45Z</time>
      </trkpt>
      <trkpt lat="45.97827" lon="4.7095">
        <ele>218</ele>
        <time>2018-06-16T10:25:46Z</time>
      </trkpt>
      <trkpt lat="45.97828" lon="4.7096">
        <ele>218</ele>
        <time>2018-06-16T10:25:47Z</time>
      </trkpt>
      <trkpt lat="45.97829" lon="4.70971">
        <ele>218</ele>
        <time>2018-06-16T10:25:48Z</time>
      </trkpt>
      <trkpt lat="45.97831" lon="4.70982">
        <ele>217</ele>
        <time>2018-06-16T10:25:49Z</time>
      </trkpt>
      <trkpt lat="45.97832" lon="4.70993">
        <ele>217</ele>
        <time>2018-06-16T10:25:50Z</time>
      </trkpt>
      <trkpt lat="45.97833" lon="4.71004">
        <ele>216</ele>
        <time>2018-06-16T10:25:51Z</time>
      </trkpt>
      <trkpt lat="45.97834" lon="4.71016">
        <ele>216</ele>
        <time>2018-06-16T10:25:52Z</time>
      </trkpt>
      <trkpt lat="45.97835" lon="4.71027">
        <ele>216</ele>
        <time>2018-06-16T10:25:53Z</time>
      </trkpt>
      <trkpt lat="45.97836" lon="4.7104">
        <ele>215</ele>
        <time>2018-06-16T10:25:54Z</time>
      </trkpt>
      <trkpt lat="45.97838" lon="4.71053">
        <ele>215</ele>
        <time>2018-06-16T10:25:55Z</time>
      </trkpt>
      <trkpt lat="45.97839" lon="4.71065">
        <ele>215</ele>
        <time>2018-06-16T10:25:56Z</time>
      </trkpt>
      <trkpt lat="45.9784" lon="4.71076">
        <ele>215</ele>
        <time>2018-06-16T10:25:57Z</time>
      </trkpt>
      <trkpt lat="45.9784" lon="4.71087">
        <ele>214</ele>
        <time>2018-06-16T10:25:58Z</time>
      </trkpt>
      <trkpt lat="45.97841" lon="4.71097">
        <ele>213</ele>
        <time>2018-06-16T10:25:59Z</time>
      </trkpt>
      <trkpt lat="45.97843" lon="4.71108">
        <ele>213</ele>
        <time>2018-06-16T10:26:00Z</time>
      </trkpt>
      <trkpt lat="45.97843" lon="4.71117">
        <ele>213</ele>
        <time>2018-06-16T10:26:01Z</time>
      </trkpt>
      <trkpt lat="45.97844" lon="4.71125">
        <ele>212</ele>
        <time>2018-06-16T10:26:02Z</time>
      </trkpt>
      <trkpt lat="45.97844" lon="4.71135">
        <ele>212</ele>
        <time>2018-06-16T10:26:03Z</time>
      </trkpt>
      <trkpt lat="45.97845" lon="4.71143">
        <ele>212</ele>
        <time>2018-06-16T10:26:04Z</time>
      </trkpt>
      <trkpt lat="45.97846" lon="4.71153">
        <ele>212</ele>
        <time>2018-06-16T10:26:05Z</time>
      </trkpt>
      <trkpt lat="45.97847" lon="4.71161">
        <ele>212</ele>
        <time>2018-06-16T10:26:06Z</time>
      </trkpt>
      <trkpt lat="45.97848" lon="4.71169">
        <ele>210</ele>
        <time>2018-06-16T10:26:07Z</time>
      </trkpt>
      <trkpt lat="45.97848" lon="4.71178">
        <ele>210</ele>
        <time>2018-06-16T10:26:08Z</time>
      </trkpt>
      <trkpt lat="45.9785" lon="4.71185">
        <ele>209</ele>
        <time>2018-06-16T10:26:09Z</time>
      </trkpt>
      <trkpt lat="45.97851" lon="4.71193">
        <ele>209</ele>
        <time>2018-06-16T10:26:10Z</time>
      </trkpt>
      <trkpt lat="45.97851" lon="4.71201">
        <ele>209</ele>
        <time>2018-06-16T10:26:11Z</time>
      </trkpt>
      <trkpt lat="45.97851" lon="4.71209">
        <ele>209</ele>
        <time>2018-06-16T10:26:12Z</time>
      </trkpt>
      <trkpt lat="45.97851" lon="4.71217">
        <ele>208</ele>
        <time>2018-06-16T10:26:13Z</time>
      </trkpt>
      <trkpt lat="45.97851" lon="4.71231">
        <ele>208</ele>
        <time>2018-06-16T10:26:14Z</time>
      </trkpt>
      <trkpt lat="45.97851" lon="4.7124">
        <ele>208</ele>
        <time>2018-06-16T10:26:15Z</time>
      </trkpt>
      <trkpt lat="45.97851" lon="4.7125">
        <ele>207</ele>
        <time>2018-06-16T10:26:16Z</time>
      </trkpt>
      <trkpt lat="45.97851" lon="4.71261">
        <ele>207</ele>
        <time>2018-06-16T10:26:17Z</time>
      </trkpt>
      <trkpt lat="45.9785" lon="4.71273">
        <ele>206</ele>
        <time>2018-06-16T10:26:18Z</time>
      </trkpt>
      <trkpt lat="45.9785" lon="4.71284">
        <ele>206</ele>
        <time>2018-06-16T10:26:19Z</time>
      </trkpt>
      <trkpt lat="45.97851" lon="4.71294">
        <ele>206</ele>
        <time>2018-06-16T10:26:20Z</time>
      </trkpt>
      <trkpt lat="45.97852" lon="4.71305">
        <ele>206</ele>
        <time>2018-06-16T10:26:21Z</time>
      </trkpt>
      <trkpt lat="45.97851" lon="4.71321">
        <ele>205</ele>
        <time>2018-06-16T10:26:22Z</time>
      </trkpt>
      <trkpt lat="45.97851" lon="4.71332">
        <ele>205</ele>
        <time>2018-06-16T10:26:23Z</time>
      </trkpt>
      <trkpt lat="45.9785" lon="4.71342">
        <ele>204</ele>
        <time>2018-06-16T10:26:24Z</time>
      </trkpt>
      <trkpt lat="45.9785" lon="4.71353">
        <ele>204</ele>
        <time>2018-06-16T10:26:25Z</time>
      </trkpt>
      <trkpt lat="45.97849" lon="4.71364">
        <ele>204</ele>
        <time>2018-06-16T10:26:26Z</time>
      </trkpt>
      <trkpt lat="45.97849" lon="4.71375">
        <ele>203</ele>
        <time>2018-06-16T10:26:27Z</time>
      </trkpt>
      <trkpt lat="45.97849" lon="4.71385">
        <ele>203</ele>
        <time>2018-06-16T10:26:28Z</time>
      </trkpt>
      <trkpt lat="45.97849" lon="4.71397">
        <ele>203</ele>
        <time>2018-06-16T10:26:29Z</time>
      </trkpt>
      <trkpt lat="45.97851" lon="4.71408">
        <ele>203</ele>
        <time>2018-06-16T10:26:30Z</time>
      </trkpt>
      <trkpt lat="45.97853" lon="4.71419">
        <ele>202</ele>
        <time>2018-06-16T10:26:31Z</time>
      </trkpt>
      <trkpt lat="45.97855" lon="4.71429">
        <ele>201</ele>
        <time>2018-06-16T10:26:32Z</time>
      </trkpt>
      <trkpt lat="45.97858" lon="4.7144">
        <ele>201</ele>
        <time>2018-06-16T10:26:33Z</time>
      </trkpt>
      <trkpt lat="45.97859" lon="4.71452">
        <ele>201</ele>
        <time>2018-06-16T10:26:34Z</time>
      </trkpt>
      <trkpt lat="45.9786" lon="4.71462">
        <ele>201</ele>
        <time>2018-06-16T10:26:35Z</time>
      </trkpt>
      <trkpt lat="45.97862" lon="4.71473">
        <ele>201</ele>
        <time>2018-06-16T10:26:36Z</time>
      </trkpt>
      <trkpt lat="45.97864" lon="4.71484">
        <ele>201</ele>
        <time>2018-06-16T10:26:37Z</time>
      </trkpt>
      <trkpt lat="45.97867" lon="4.71493">
        <ele>201</ele>
        <time>2018-06-16T10:26:38Z</time>
      </trkpt>
      <trkpt lat="45.9787" lon="4.71504">
        <ele>199</ele>
        <time>2018-06-16T10:26:39Z</time>
      </trkpt>
      <trkpt lat="45.97872" lon="4.71515">
        <ele>199</ele>
        <time>2018-06-16T10:26:40Z</time>
      </trkpt>
      <trkpt lat="45.97875" lon="4.71527">
        <ele>199</ele>
        <time>2018-06-16T10:26:41Z</time>
      </trkpt>
      <trkpt lat="45.97875" lon="4.71538">
        <ele>199</ele>
        <time>2018-06-16T10:26:42Z</time>
      </trkpt>
      <trkpt lat="45.97877" lon="4.71549">
        <ele>199</ele>
        <time>2018-06-16T10:26:43Z</time>
      </trkpt>
      <trkpt lat="45.97877" lon="4.7156">
        <ele>198</ele>
        <time>2018-06-16T10:26:44Z</time>
      </trkpt>
      <trkpt lat="45.97878" lon="4.7157">
        <ele>198</ele>
        <time>2018-06-16T10:26:45Z</time>
      </trkpt>
      <trkpt lat="45.9788" lon="4.71581">
        <ele>198</ele>
        <time>2018-06-16T10:26:46Z</time>
      </trkpt>
      <trkpt lat="45.9788" lon="4.71592">
        <ele>197</ele>
        <time>2018-06-16T10:26:47Z</time>
      </trkpt>
      <trkpt lat="45.9788" lon="4.71602">
        <ele>197</ele>
        <time>2018-06-16T10:26:48Z</time>
      </trkpt>
      <trkpt lat="45.9788" lon="4.71612">
        <ele>197</ele>
        <time>2018-06-16T10:26:49Z</time>
      </trkpt>
      <trkpt lat="45.9788" lon="4.71622">
        <ele>197</ele>
        <time>2018-06-16T10:26:50Z</time>
      </trkpt>
      <trkpt lat="45.97879" lon="4.71635">
        <ele>197</ele>
        <time>2018-06-16T10:26:51Z</time>
      </trkpt>
      <trkpt lat="45.97879" lon="4.71645">
        <ele>197</ele>
        <time>2018-06-16T10:26:52Z</time>
      </trkpt>
      <trkpt lat="45.97878" lon="4.71656">
        <ele>197</ele>
        <time>2018-06-16T10:26:53Z</time>
      </trkpt>
      <trkpt lat="45.97875" lon="4.71665">
        <ele>197</ele>
        <time>2018-06-16T10:26:54Z</time>
      </trkpt>
      <trkpt lat="45.97874" lon="4.71673">
        <ele>196</ele>
        <time>2018-06-16T10:26:55Z</time>
      </trkpt>
      <trkpt lat="45.97871" lon="4.71682">
        <ele>196</ele>
        <time>2018-06-16T10:26:56Z</time>
      </trkpt>
      <trkpt lat="45.9787" lon="4.71691">
        <ele>196</ele>
        <time>2018-06-16T10:26:57Z</time>
      </trkpt>
      <trkpt lat="45.97868" lon="4.71699">
        <ele>196</ele>
        <time>2018-06-16T10:26:58Z</time>
      </trkpt>
      <trkpt lat="45.97864" lon="4.71711">
        <ele>196</ele>
        <time>2018-06-16T10:27:00Z</time>
      </trkpt>
      <trkpt lat="45.97862" lon="4.71716">
        <ele>196</ele>
        <time>2018-06-16T10:27:01Z</time>
      </trkpt>
      <trkpt lat="45.97857" lon="4.71727">
        <ele>196</ele>
        <time>2018-06-16T10:27:03Z</time>
      </trkpt>
      <trkpt lat="45.97854" lon="4.71733">
        <ele>196</ele>
        <time>2018-06-16T10:27:04Z</time>
      </trkpt>
      <trkpt lat="45.97851" lon="4.71739">
        <ele>196</ele>
        <time>2018-06-16T10:27:05Z</time>
      </trkpt>
      <trkpt lat="45.97847" lon="4.71743">
        <ele>195</ele>
        <time>2018-06-16T10:27:06Z</time>
      </trkpt>
      <trkpt lat="45.97839" lon="4.71747">
        <ele>195</ele>
        <time>2018-06-16T10:27:08Z</time>
      </trkpt>
      <trkpt lat="45.97833" lon="4.71746">
        <ele>195</ele>
        <time>2018-06-16T10:27:09Z</time>
      </trkpt>
      <trkpt lat="45.97828" lon="4.71746">
        <ele>195</ele>
        <time>2018-06-16T10:27:10Z</time>
      </trkpt>
      <trkpt lat="45.97823" lon="4.71745">
        <ele>196</ele>
        <time>2018-06-16T10:27:11Z</time>
      </trkpt>
      <trkpt lat="45.97817" lon="4.71744">
        <ele>196</ele>
        <time>2018-06-16T10:27:12Z</time>
      </trkpt>
      <trkpt lat="45.97811" lon="4.71744">
        <ele>196</ele>
        <time>2018-06-16T10:27:13Z</time>
      </trkpt>
      <trkpt lat="45.97807" lon="4.71744">
        <ele>196</ele>
        <time>2018-06-16T10:27:14Z</time>
      </trkpt>
      <trkpt lat="45.97802" lon="4.71743">
        <ele>196</ele>
        <time>2018-06-16T10:27:15Z</time>
      </trkpt>
      <trkpt lat="45.97793" lon="4.71744">
        <ele>196</ele>
        <time>2018-06-16T10:27:17Z</time>
      </trkpt>
      <trkpt lat="45.97788" lon="4.71742">
        <ele>196</ele>
        <time>2018-06-16T10:27:18Z</time>
      </trkpt>
      <trkpt lat="45.97782" lon="4.71741">
        <ele>196</ele>
        <time>2018-06-16T10:27:19Z</time>
      </trkpt>
      <trkpt lat="45.97776" lon="4.71741">
        <ele>196</ele>
        <time>2018-06-16T10:27:20Z</time>
      </trkpt>
      <trkpt lat="45.97771" lon="4.71739">
        <ele>196</ele>
        <time>2018-06-16T10:27:21Z</time>
      </trkpt>
      <trkpt lat="45.97765" lon="4.71738">
        <ele>196</ele>
        <time>2018-06-16T10:27:22Z</time>
      </trkpt>
      <trkpt lat="45.97759" lon="4.71738">
        <ele>196</ele>
        <time>2018-06-16T10:27:23Z</time>
      </trkpt>
      <trkpt lat="45.97753" lon="4.71738">
        <ele>196</ele>
        <time>2018-06-16T10:27:24Z</time>
      </trkpt>
      <trkpt lat="45.97746" lon="4.71737">
        <ele>196</ele>
        <time>2018-06-16T10:27:25Z</time>
      </trkpt>
      <trkpt lat="45.97741" lon="4.71736">
        <ele>196</ele>
        <time>2018-06-16T10:27:26Z</time>
      </trkpt>
      <trkpt lat="45.97735" lon="4.71736">
        <ele>196</ele>
        <time>2018-06-16T10:27:27Z</time>
      </trkpt>
      <trkpt lat="45.9773" lon="4.71734">
        <ele>196</ele>
        <time>2018-06-16T10:27:28Z</time>
      </trkpt>
      <trkpt lat="45.97724" lon="4.71735">
        <ele>196</ele>
        <time>2018-06-16T10:27:29Z</time>
      </trkpt>
      <trkpt lat="45.97717" lon="4.71733">
        <ele>196</ele>
        <time>2018-06-16T10:27:30Z</time>
      </trkpt>
      <trkpt lat="45.97712" lon="4.71732">
        <ele>196</ele>
        <time>2018-06-16T10:27:31Z</time>
      </trkpt>
      <trkpt lat="45.97707" lon="4.71732">
        <ele>196</ele>
        <time>2018-06-16T10:27:32Z</time>
      </trkpt>
      <trkpt lat="45.97702" lon="4.71731">
        <ele>196</ele>
        <time>2018-06-16T10:27:33Z</time>
      </trkpt>
      <trkpt lat="45.97697" lon="4.71731">
        <ele>196</ele>
        <time>2018-06-16T10:27:34Z</time>
      </trkpt>
      <trkpt lat="45.97692" lon="4.71729">
        <ele>196</ele>
        <time>2018-06-16T10:27:35Z</time>
      </trkpt>
      <trkpt lat="45.97687" lon="4.71729">
        <ele>196</ele>
        <time>2018-06-16T10:27:36Z</time>
      </trkpt>
      <trkpt lat="45.97681" lon="4.71727">
        <ele>196</ele>
        <time>2018-06-16T10:27:37Z</time>
      </trkpt>
      <trkpt lat="45.97675" lon="4.71726">
        <ele>196</ele>
        <time>2018-06-16T10:27:38Z</time>
      </trkpt>
      <trkpt lat="45.97671" lon="4.71727">
        <ele>196</ele>
        <time>2018-06-16T10:27:39Z</time>
      </trkpt>
      <trkpt lat="45.97664" lon="4.71727">
        <ele>196</ele>
        <time>2018-06-16T10:27:40Z</time>
      </trkpt>
      <trkpt lat="45.9766" lon="4.71725">
        <ele>196</ele>
        <time>2018-06-16T10:27:41Z</time>
      </trkpt>
      <trkpt lat="45.97654" lon="4.71725">
        <ele>196</ele>
        <time>2018-06-16T10:27:42Z</time>
      </trkpt>
      <trkpt lat="45.97648" lon="4.71725">
        <ele>196</ele>
        <time>2018-06-16T10:27:43Z</time>
      </trkpt>
      <trkpt lat="45.97643" lon="4.71722">
        <ele>196</ele>
        <time>2018-06-16T10:27:44Z</time>
      </trkpt>
      <trkpt lat="45.97636" lon="4.71714">
        <ele>197</ele>
        <time>2018-06-16T10:27:46Z</time>
      </trkpt>
      <trkpt lat="45.97632" lon="4.71711">
        <ele>197</ele>
        <time>2018-06-16T10:27:47Z</time>
      </trkpt>
      <trkpt lat="45.97626" lon="4.7171">
        <ele>197</ele>
        <time>2018-06-16T10:27:48Z</time>
      </trkpt>
      <trkpt lat="45.97621" lon="4.71709">
        <ele>197</ele>
        <time>2018-06-16T10:27:49Z</time>
      </trkpt>
      <trkpt lat="45.97617" lon="4.7171">
        <ele>197</ele>
        <time>2018-06-16T10:27:50Z</time>
      </trkpt>
      <trkpt lat="45.97612" lon="4.71713">
        <ele>197</ele>
        <time>2018-06-16T10:27:51Z</time>
      </trkpt>
      <trkpt lat="45.97606" lon="4.71715">
        <ele>197</ele>
        <time>2018-06-16T10:27:52Z</time>
      </trkpt>
      <trkpt lat="45.97601" lon="4.71718">
        <ele>197</ele>
        <time>2018-06-16T10:27:53Z</time>
      </trkpt>
      <trkpt lat="45.97595" lon="4.7172">
        <ele>197</ele>
        <time>2018-06-16T10:27:54Z</time>
      </trkpt>
      <trkpt lat="45.9759" lon="4.7172">
        <ele>197</ele>
        <time>2018-06-16T10:27:55Z</time>
      </trkpt>
      <trkpt lat="45.97584" lon="4.71719">
        <ele>197</ele>
        <time>2018-06-16T10:27:56Z</time>
      </trkpt>
      <trkpt lat="45.97575" lon="4.71719">
        <ele>198</ele>
        <time>2018-06-16T10:27:57Z</time>
      </trkpt>
      <trkpt lat="45.97569" lon="4.71719">
        <ele>198</ele>
        <time>2018-06-16T10:27:58Z</time>
      </trkpt>
      <trkpt lat="45.97563" lon="4.71717">
        <ele>198</ele>
        <time>2018-06-16T10:27:59Z</time>
      </trkpt>
      <trkpt lat="45.97558" lon="4.71716">
        <ele>198</ele>
        <time>2018-06-16T10:28:00Z</time>
      </trkpt>
      <trkpt lat="45.97552" lon="4.71715">
        <ele>198</ele>
        <time>2018-06-16T10:28:01Z</time>
      </trkpt>
      <trkpt lat="45.97546" lon="4.71714">
        <ele>198</ele>
        <time>2018-06-16T10:28:02Z</time>
      </trkpt>
      <trkpt lat="45.97541" lon="4.71714">
        <ele>198</ele>
        <time>2018-06-16T10:28:03Z</time>
      </trkpt>
      <trkpt lat="45.97534" lon="4.71713">
        <ele>198</ele>
        <time>2018-06-16T10:28:04Z</time>
      </trkpt>
      <trkpt lat="45.97529" lon="4.71713">
        <ele>198</ele>
        <time>2018-06-16T10:28:05Z</time>
      </trkpt>
      <trkpt lat="45.97524" lon="4.71712">
        <ele>199</ele>
        <time>2018-06-16T10:28:06Z</time>
      </trkpt>
      <trkpt lat="45.97518" lon="4.71712">
        <ele>199</ele>
        <time>2018-06-16T10:28:07Z</time>
      </trkpt>
      <trkpt lat="45.97512" lon="4.71711">
        <ele>199</ele>
        <time>2018-06-16T10:28:08Z</time>
      </trkpt>
      <trkpt lat="45.97506" lon="4.71711">
        <ele>199</ele>
        <time>2018-06-16T10:28:09Z</time>
      </trkpt>
      <trkpt lat="45.975" lon="4.71711">
        <ele>199</ele>
        <time>2018-06-16T10:28:10Z</time>
      </trkpt>
      <trkpt lat="45.97495" lon="4.7171">
        <ele>198</ele>
        <time>2018-06-16T10:28:11Z</time>
      </trkpt>
      <trkpt lat="45.97486" lon="4.7171">
        <ele>198</ele>
        <time>2018-06-16T10:28:12Z</time>
      </trkpt>
      <trkpt lat="45.9748" lon="4.7171">
        <ele>198</ele>
        <time>2018-06-16T10:28:13Z</time>
      </trkpt>
      <trkpt lat="45.97476" lon="4.71711">
        <ele>198</ele>
        <time>2018-06-16T10:28:14Z</time>
      </trkpt>
      <trkpt lat="45.9747" lon="4.71711">
        <ele>197</ele>
        <time>2018-06-16T10:28:15Z</time>
      </trkpt>
      <trkpt lat="45.97464" lon="4.71713">
        <ele>197</ele>
        <time>2018-06-16T10:28:16Z</time>
      </trkpt>
      <trkpt lat="45.97458" lon="4.71712">
        <ele>197</ele>
        <time>2018-06-16T10:28:17Z</time>
      </trkpt>
      <trkpt lat="45.97454" lon="4.71712">
        <ele>197</ele>
        <time>2018-06-16T10:28:18Z</time>
      </trkpt>
      <trkpt lat="45.97447" lon="4.71711">
        <ele>197</ele>
        <time>2018-06-16T10:28:19Z</time>
      </trkpt>
      <trkpt lat="45.97441" lon="4.7171">
        <ele>197</ele>
        <time>2018-06-16T10:28:20Z</time>
      </trkpt>
      <trkpt lat="45.97437" lon="4.71709">
        <ele>197</ele>
        <time>2018-06-16T10:28:21Z</time>
      </trkpt>
      <trkpt lat="45.97429" lon="4.71708">
        <ele>197</ele>
        <time>2018-06-16T10:28:22Z</time>
      </trkpt>
      <trkpt lat="45.97423" lon="4.71707">
        <ele>196</ele>
        <time>2018-06-16T10:28:23Z</time>
      </trkpt>
      <trkpt lat="45.97417" lon="4.71706">
        <ele>196</ele>
        <time>2018-06-16T10:28:24Z</time>
      </trkpt>
      <trkpt lat="45.97411" lon="4.71706">
        <ele>195</ele>
        <time>2018-06-16T10:28:25Z</time>
      </trkpt>
      <trkpt lat="45.97403" lon="4.71706">
        <ele>195</ele>
        <time>2018-06-16T10:28:26Z</time>
      </trkpt>
      <trkpt lat="45.97396" lon="4.71707">
        <ele>195</ele>
        <time>2018-06-16T10:28:27Z</time>
      </trkpt>
      <trkpt lat="45.9739" lon="4.71706">
        <ele>195</ele>
        <time>2018-06-16T10:28:28Z</time>
      </trkpt>
      <trkpt lat="45.97384" lon="4.71707">
        <ele>195</ele>
        <time>2018-06-16T10:28:29Z</time>
      </trkpt>
      <trkpt lat="45.97377" lon="4.71706">
        <ele>195</ele>
        <time>2018-06-16T10:28:30Z</time>
      </trkpt>
      <trkpt lat="45.9737" lon="4.71706">
        <ele>195</ele>
        <time>2018-06-16T10:28:31Z</time>
      </trkpt>
      <trkpt lat="45.97365" lon="4.71706">
        <ele>195</ele>
        <time>2018-06-16T10:28:32Z</time>
      </trkpt>
      <trkpt lat="45.97359" lon="4.71706">
        <ele>195</ele>
        <time>2018-06-16T10:28:33Z</time>
      </trkpt>
      <trkpt lat="45.97352" lon="4.71706">
        <ele>195</ele>
        <time>2018-06-16T10:28:34Z</time>
      </trkpt>
      <trkpt lat="45.97347" lon="4.71705">
        <ele>195</ele>
        <time>2018-06-16T10:28:35Z</time>
      </trkpt>
      <trkpt lat="45.9734" lon="4.71703">
        <ele>195</ele>
        <time>2018-06-16T10:28:36Z</time>
      </trkpt>
      <trkpt lat="45.97334" lon="4.71704">
        <ele>195</ele>
        <time>2018-06-16T10:28:37Z</time>
      </trkpt>
      <trkpt lat="45.97327" lon="4.71703">
        <ele>196</ele>
        <time>2018-06-16T10:28:39Z</time>
      </trkpt>
      <trkpt lat="45.97325" lon="4.71701">
        <ele>196</ele>
        <time>2018-06-16T10:28:40Z</time>
      </trkpt>
      <trkpt lat="45.97321" lon="4.71697">
        <ele>196</ele>
        <time>2018-06-16T10:28:42Z</time>
      </trkpt>
      <trkpt lat="45.97315" lon="4.71689">
        <ele>196</ele>
        <time>2018-06-16T10:28:43Z</time>
      </trkpt>
      <trkpt lat="45.97307" lon="4.71684">
        <ele>197</ele>
        <time>2018-06-16T10:28:45Z</time>
      </trkpt>
      <trkpt lat="45.97303" lon="4.71684">
        <ele>197</ele>
        <time>2018-06-16T10:28:46Z</time>
      </trkpt>
      <trkpt lat="45.97298" lon="4.71686">
        <ele>197</ele>
        <time>2018-06-16T10:28:47Z</time>
      </trkpt>
      <trkpt lat="45.97293" lon="4.7169">
        <ele>197</ele>
        <time>2018-06-16T10:28:48Z</time>
      </trkpt>
      <trkpt lat="45.97288" lon="4.71695">
        <ele>197</ele>
        <time>2018-06-16T10:28:49Z</time>
      </trkpt>
      <trkpt lat="45.97282" lon="4.71697">
        <ele>197</ele>
        <time>2018-06-16T10:28:50Z</time>
      </trkpt>
      <trkpt lat="45.97278" lon="4.71699">
        <ele>197</ele>
        <time>2018-06-16T10:28:51Z</time>
      </trkpt>
      <trkpt lat="45.97273" lon="4.71699">
        <ele>197</ele>
        <time>2018-06-16T10:28:52Z</time>
      </trkpt>
      <trkpt lat="45.97267" lon="4.71698">
        <ele>197</ele>
        <time>2018-06-16T10:28:53Z</time>
      </trkpt>
      <trkpt lat="45.97262" lon="4.71695">
        <ele>197</ele>
        <time>2018-06-16T10:28:54Z</time>
      </trkpt>
      <trkpt lat="45.97257" lon="4.71694">
        <ele>197</ele>
        <time>2018-06-16T10:28:55Z</time>
      </trkpt>
      <trkpt lat="45.9725" lon="4.71693">
        <ele>197</ele>
        <time>2018-06-16T10:28:56Z</time>
      </trkpt>
      <trkpt lat="45.97243" lon="4.71693">
        <ele>197</ele>
        <time>2018-06-16T10:28:57Z</time>
      </trkpt>
      <trkpt lat="45.97237" lon="4.71692">
        <ele>197</ele>
        <time>2018-06-16T10:28:58Z</time>
      </trkpt>
      <trkpt lat="45.97231" lon="4.71692">
        <ele>197</ele>
        <time>2018-06-16T10:28:59Z</time>
      </trkpt>
      <trkpt lat="45.97225" lon="4.71691">
        <ele>197</ele>
        <time>2018-06-16T10:29:00Z</time>
      </trkpt>
      <trkpt lat="45.97217" lon="4.7169">
        <ele>197</ele>
        <time>2018-06-16T10:29:01Z</time>
      </trkpt>
      <trkpt lat="45.9721" lon="4.71689">
        <ele>197</ele>
        <time>2018-06-16T10:29:02Z</time>
      </trkpt>
      <trkpt lat="45.97204" lon="4.71688">
        <ele>197</ele>
        <time>2018-06-16T10:29:03Z</time>
      </trkpt>
      <trkpt lat="45.97198" lon="4.71688">
        <ele>197</ele>
        <time>2018-06-16T10:29:04Z</time>
      </trkpt>
      <trkpt lat="45.97191" lon="4.71688">
        <ele>197</ele>
        <time>2018-06-16T10:29:05Z</time>
      </trkpt>
      <trkpt lat="45.97183" lon="4.71688">
        <ele>197</ele>
        <time>2018-06-16T10:29:06Z</time>
      </trkpt>
      <trkpt lat="45.97176" lon="4.71687">
        <ele>197</ele>
        <time>2018-06-16T10:29:07Z</time>
      </trkpt>
      <trkpt lat="45.9717" lon="4.71687">
        <ele>197</ele>
        <time>2018-06-16T10:29:08Z</time>
      </trkpt>
      <trkpt lat="45.97163" lon="4.71686">
        <ele>196</ele>
        <time>2018-06-16T10:29:09Z</time>
      </trkpt>
      <trkpt lat="45.97156" lon="4.71685">
        <ele>196</ele>
        <time>2018-06-16T10:29:10Z</time>
      </trkpt>
      <trkpt lat="45.97147" lon="4.71685">
        <ele>195</ele>
        <time>2018-06-16T10:29:11Z</time>
      </trkpt>
      <trkpt lat="45.9714" lon="4.71683">
        <ele>195</ele>
        <time>2018-06-16T10:29:12Z</time>
      </trkpt>
      <trkpt lat="45.97133" lon="4.71683">
        <ele>195</ele>
        <time>2018-06-16T10:29:13Z</time>
      </trkpt>
      <trkpt lat="45.97126" lon="4.71683">
        <ele>195</ele>
        <time>2018-06-16T10:29:14Z</time>
      </trkpt>
      <trkpt lat="45.9712" lon="4.71682">
        <ele>195</ele>
        <time>2018-06-16T10:29:15Z</time>
      </trkpt>
      <trkpt lat="45.97114" lon="4.7168">
        <ele>195</ele>
        <time>2018-06-16T10:29:16Z</time>
      </trkpt>
      <trkpt lat="45.97107" lon="4.7168">
        <ele>194</ele>
        <time>2018-06-16T10:29:17Z</time>
      </trkpt>
      <trkpt lat="45.971" lon="4.7168">
        <ele>194</ele>
        <time>2018-06-16T10:29:18Z</time>
      </trkpt>
      <trkpt lat="45.97093" lon="4.7168">
        <ele>194</ele>
        <time>2018-06-16T10:29:19Z</time>
      </trkpt>
      <trkpt lat="45.97087" lon="4.71678">
        <ele>195</ele>
        <time>2018-06-16T10:29:20Z</time>
      </trkpt>
      <trkpt lat="45.97081" lon="4.71677">
        <ele>194</ele>
        <time>2018-06-16T10:29:21Z</time>
      </trkpt>
      <trkpt lat="45.97073" lon="4.71676">
        <ele>194</ele>
        <time>2018-06-16T10:29:22Z</time>
      </trkpt>
      <trkpt lat="45.97065" lon="4.71675">
        <ele>193</ele>
        <time>2018-06-16T10:29:23Z</time>
      </trkpt>
      <trkpt lat="45.97056" lon="4.71674">
        <ele>193</ele>
        <time>2018-06-16T10:29:24Z</time>
      </trkpt>
      <trkpt lat="45.97048" lon="4.71672">
        <ele>193</ele>
        <time>2018-06-16T10:29:25Z</time>
      </trkpt>
      <trkpt lat="45.97041" lon="4.71672">
        <ele>193</ele>
        <time>2018-06-16T10:29:26Z</time>
      </trkpt>
      <trkpt lat="45.97033" lon="4.71672">
        <ele>193</ele>
        <time>2018-06-16T10:29:27Z</time>
      </trkpt>
      <trkpt lat="45.97025" lon="4.71672">
        <ele>193</ele>
        <time>2018-06-16T10:29:28Z</time>
      </trkpt>
      <trkpt lat="45.97017" lon="4.71672">
        <ele>193</ele>
        <time>2018-06-16T10:29:29Z</time>
      </trkpt>
      <trkpt lat="45.97009" lon="4.7167">
        <ele>193</ele>
        <time>2018-06-16T10:29:30Z</time>
      </trkpt>
      <trkpt lat="45.97001" lon="4.7167">
        <ele>194</ele>
        <time>2018-06-16T10:29:31Z</time>
      </trkpt>
      <trkpt lat="45.96994" lon="4.71671">
        <ele>193</ele>
        <time>2018-06-16T10:29:32Z</time>
      </trkpt>
      <trkpt lat="45.96987" lon="4.71671">
        <ele>193</ele>
        <time>2018-06-16T10:29:33Z</time>
      </trkpt>
      <trkpt lat="45.96979" lon="4.71671">
        <ele>192</ele>
        <time>2018-06-16T10:29:34Z</time>
      </trkpt>
      <trkpt lat="45.96971" lon="4.71671">
        <ele>192</ele>
        <time>2018-06-16T10:29:35Z</time>
      </trkpt>
      <trkpt lat="45.96964" lon="4.71671">
        <ele>192</ele>
        <time>2018-06-16T10:29:36Z</time>
      </trkpt>
      <trkpt lat="45.96957" lon="4.7167">
        <ele>192</ele>
        <time>2018-06-16T10:29:37Z</time>
      </trkpt>
      <trkpt lat="45.96948" lon="4.71669">
        <ele>192</ele>
        <time>2018-06-16T10:29:38Z</time>
      </trkpt>
      <trkpt lat="45.9694" lon="4.71668">
        <ele>192</ele>
        <time>2018-06-16T10:29:39Z</time>
      </trkpt>
      <trkpt lat="45.96933" lon="4.71667">
        <ele>193</ele>
        <time>2018-06-16T10:29:40Z</time>
      </trkpt>
      <trkpt lat="45.96927" lon="4.71667">
        <ele>193</ele>
        <time>2018-06-16T10:29:41Z</time>
      </trkpt>
      <trkpt lat="45.96921" lon="4.71665">
        <ele>195</ele>
        <time>2018-06-16T10:29:42Z</time>
      </trkpt>
      <trkpt lat="45.96914" lon="4.71665">
        <ele>195</ele>
        <time>2018-06-16T10:29:43Z</time>
      </trkpt>
      <trkpt lat="45.96906" lon="4.71664">
        <ele>195</ele>
        <time>2018-06-16T10:29:44Z</time>
      </trkpt>
      <trkpt lat="45.96899" lon="4.71664">
        <ele>195</ele>
        <time>2018-06-16T10:29:45Z</time>
      </trkpt>
      <trkpt lat="45.96892" lon="4.71663">
        <ele>195</ele>
        <time>2018-06-16T10:29:46Z</time>
      </trkpt>
      <trkpt lat="45.96884" lon="4.71661">
        <ele>195</ele>
        <time>2018-06-16T10:29:47Z</time>
      </trkpt>
      <trkpt lat="45.96877" lon="4.7166">
        <ele>195</ele>
        <time>2018-06-16T10:29:48Z</time>
      </trkpt>
      <trkpt lat="45.9687" lon="4.71659">
        <ele>195</ele>
        <time>2018-06-16T10:29:49Z</time>
      </trkpt>
      <trkpt lat="45.96863" lon="4.71657">
        <ele>195</ele>
        <time>2018-06-16T10:29:50Z</time>
      </trkpt>
      <trkpt lat="45.96856" lon="4.71656">
        <ele>194</ele>
        <time>2018-06-16T10:29:51Z</time>
      </trkpt>
      <trkpt lat="45.96848" lon="4.71654">
        <ele>194</ele>
        <time>2018-06-16T10:29:52Z</time>
      </trkpt>
      <trkpt lat="45.9684" lon="4.71653">
        <ele>194</ele>
        <time>2018-06-16T10:29:53Z</time>
      </trkpt>
      <trkpt lat="45.96833" lon="4.71652">
        <ele>193</ele>
        <time>2018-06-16T10:29:54Z</time>
      </trkpt>
      <trkpt lat="45.96826" lon="4.71651">
        <ele>193</ele>
        <time>2018-06-16T10:29:55Z</time>
      </trkpt>
      <trkpt lat="45.96819" lon="4.7165">
        <ele>193</ele>
        <time>2018-06-16T10:29:56Z</time>
      </trkpt>
      <trkpt lat="45.96811" lon="4.71649">
        <ele>193</ele>
        <time>2018-06-16T10:29:57Z</time>
      </trkpt>
      <trkpt lat="45.96805" lon="4.71648">
        <ele>193</ele>
        <time>2018-06-16T10:29:58Z</time>
      </trkpt>
      <trkpt lat="45.96797" lon="4.71647">
        <ele>193</ele>
        <time>2018-06-16T10:29:59Z</time>
      </trkpt>
      <trkpt lat="45.9679" lon="4.71647">
        <ele>193</ele>
        <time>2018-06-16T10:30:00Z</time>
      </trkpt>
      <trkpt lat="45.96783" lon="4.71646">
        <ele>192</ele>
        <time>2018-06-16T10:30:01Z</time>
      </trkpt>
      <trkpt lat="45.96776" lon="4.71645">
        <ele>192</ele>
        <time>2018-06-16T10:30:02Z</time>
      </trkpt>
      <trkpt lat="45.96768" lon="4.71645">
        <ele>192</ele>
        <time>2018-06-16T10:30:03Z</time>
      </trkpt>
      <trkpt lat="45.9676" lon="4.71644">
        <ele>192</ele>
        <time>2018-06-16T10:30:04Z</time>
      </trkpt>
      <trkpt lat="45.96753" lon="4.71643">
        <ele>192</ele>
        <time>2018-06-16T10:30:05Z</time>
      </trkpt>
      <trkpt lat="45.96745" lon="4.71642">
        <ele>190</ele>
        <time>2018-06-16T10:30:06Z</time>
      </trkpt>
      <trkpt lat="45.96738" lon="4.71641">
        <ele>190</ele>
        <time>2018-06-16T10:30:07Z</time>
      </trkpt>
      <trkpt lat="45.9673" lon="4.7164">
        <ele>190</ele>
        <time>2018-06-16T10:30:08Z</time>
      </trkpt>
      <trkpt lat="45.96723" lon="4.71638">
        <ele>190</ele>
        <time>2018-06-16T10:30:09Z</time>
      </trkpt>
      <trkpt lat="45.96718" lon="4.71638">
        <ele>190</ele>
        <time>2018-06-16T10:30:10Z</time>
      </trkpt>
      <trkpt lat="45.96711" lon="4.71636">
        <ele>190</ele>
        <time>2018-06-16T10:30:11Z</time>
      </trkpt>
      <trkpt lat="45.96704" lon="4.71635">
        <ele>190</ele>
        <time>2018-06-16T10:30:12Z</time>
      </trkpt>
      <trkpt lat="45.96697" lon="4.71634">
        <ele>190</ele>
        <time>2018-06-16T10:30:13Z</time>
      </trkpt>
      <trkpt lat="45.9669" lon="4.71634">
        <ele>190</ele>
        <time>2018-06-16T10:30:14Z</time>
      </trkpt>
      <trkpt lat="45.96684" lon="4.71632">
        <ele>190</ele>
        <time>2018-06-16T10:30:15Z</time>
      </trkpt>
      <trkpt lat="45.96676" lon="4.71634">
        <ele>190</ele>
        <time>2018-06-16T10:30:16Z</time>
      </trkpt>
      <trkpt lat="45.96669" lon="4.71633">
        <ele>190</ele>
        <time>2018-06-16T10:30:17Z</time>
      </trkpt>
      <trkpt lat="45.96663" lon="4.71634">
        <ele>188</ele>
        <time>2018-06-16T10:30:18Z</time>
      </trkpt>
      <trkpt lat="45.96659" lon="4.71632">
        <ele>188</ele>
        <time>2018-06-16T10:30:19Z</time>
      </trkpt>
      <trkpt lat="45.96652" lon="4.71631">
        <ele>188</ele>
        <time>2018-06-16T10:30:20Z</time>
      </trkpt>
      <trkpt lat="45.96645" lon="4.7163">
        <ele>188</ele>
        <time>2018-06-16T10:30:21Z</time>
      </trkpt>
      <trkpt lat="45.96638" lon="4.71628">
        <ele>188</ele>
        <time>2018-06-16T10:30:22Z</time>
      </trkpt>
      <trkpt lat="45.9663" lon="4.71626">
        <ele>188</ele>
        <time>2018-06-16T10:30:23Z</time>
      </trkpt>
      <trkpt lat="45.96622" lon="4.71625">
        <ele>188</ele>
        <time>2018-06-16T10:30:24Z</time>
      </trkpt>
      <trkpt lat="45.96615" lon="4.71624">
        <ele>188</ele>
        <time>2018-06-16T10:30:25Z</time>
      </trkpt>
      <trkpt lat="45.96607" lon="4.71623">
        <ele>187</ele>
        <time>2018-06-16T10:30:26Z</time>
      </trkpt>
      <trkpt lat="45.96599" lon="4.71621">
        <ele>187</ele>
        <time>2018-06-16T10:30:27Z</time>
      </trkpt>
      <trkpt lat="45.96592" lon="4.7162">
        <ele>187</ele>
        <time>2018-06-16T10:30:28Z</time>
      </trkpt>
      <trkpt lat="45.96584" lon="4.71618">
        <ele>187</ele>
        <time>2018-06-16T10:30:29Z</time>
      </trkpt>
      <trkpt lat="45.96577" lon="4.71617">
        <ele>185</ele>
        <time>2018-06-16T10:30:30Z</time>
      </trkpt>
      <trkpt lat="45.96569" lon="4.71616">
        <ele>185</ele>
        <time>2018-06-16T10:30:31Z</time>
      </trkpt>
      <trkpt lat="45.96562" lon="4.71615">
        <ele>185</ele>
        <time>2018-06-16T10:30:32Z</time>
      </trkpt>
      <trkpt lat="45.96556" lon="4.71612">
        <ele>185</ele>
        <time>2018-06-16T10:30:33Z</time>
      </trkpt>
      <trkpt lat="45.9655" lon="4.71607">
        <ele>185</ele>
        <time>2018-06-16T10:30:34Z</time>
      </trkpt>
      <trkpt lat="45.96543" lon="4.71606">
        <ele>185</ele>
        <time>2018-06-16T10:30:35Z</time>
      </trkpt>
      <trkpt lat="45.96536" lon="4.71603">
        <ele>185</ele>
        <time>2018-06-16T10:30:36Z</time>
      </trkpt>
      <trkpt lat="45.96529" lon="4.71602">
        <ele>185</ele>
        <time>2018-06-16T10:30:37Z</time>
      </trkpt>
      <trkpt lat="45.96522" lon="4.71603">
        <ele>185</ele>
        <time>2018-06-16T10:30:38Z</time>
      </trkpt>
      <trkpt lat="45.96515" lon="4.71606">
        <ele>184</ele>
        <time>2018-06-16T10:30:39Z</time>
      </trkpt>
      <trkpt lat="45.96508" lon="4.71608">
        <ele>184</ele>
        <time>2018-06-16T10:30:40Z</time>
      </trkpt>
      <trkpt lat="45.965" lon="4.71606">
        <ele>184</ele>
        <time>2018-06-16T10:30:41Z</time>
      </trkpt>
      <trkpt lat="45.96493" lon="4.71604">
        <ele>183</ele>
        <time>2018-06-16T10:30:42Z</time>
      </trkpt>
      <trkpt lat="45.96486" lon="4.71603">
        <ele>183</ele>
        <time>2018-06-16T10:30:43Z</time>
      </trkpt>
      <trkpt lat="45.96479" lon="4.71602">
        <ele>183</ele>
        <time>2018-06-16T10:30:44Z</time>
      </trkpt>
      <trkpt lat="45.96471" lon="4.716">
        <ele>183</ele>
        <time>2018-06-16T10:30:45Z</time>
      </trkpt>
      <trkpt lat="45.96463" lon="4.71599">
        <ele>183</ele>
        <time>2018-06-16T10:30:46Z</time>
      </trkpt>
      <trkpt lat="45.96454" lon="4.71598">
        <ele>183</ele>
        <time>2018-06-16T10:30:47Z</time>
      </trkpt>
      <trkpt lat="45.96446" lon="4.71596">
        <ele>183</ele>
        <time>2018-06-16T10:30:48Z</time>
      </trkpt>
      <trkpt lat="45.96438" lon="4.71595">
        <ele>184</ele>
        <time>2018-06-16T10:30:49Z</time>
      </trkpt>
      <trkpt lat="45.9643" lon="4.71594">
        <ele>184</ele>
        <time>2018-06-16T10:30:50Z</time>
      </trkpt>
      <trkpt lat="45.96425" lon="4.71592">
        <ele>184</ele>
        <time>2018-06-16T10:30:51Z</time>
      </trkpt>
      <trkpt lat="45.96418" lon="4.7159">
        <ele>184</ele>
        <time>2018-06-16T10:30:52Z</time>
      </trkpt>
      <trkpt lat="45.9641" lon="4.71589">
        <ele>184</ele>
        <time>2018-06-16T10:30:53Z</time>
      </trkpt>
      <trkpt lat="45.96402" lon="4.71588">
        <ele>183</ele>
        <time>2018-06-16T10:30:54Z</time>
      </trkpt>
      <trkpt lat="45.96395" lon="4.71585">
        <ele>183</ele>
        <time>2018-06-16T10:30:55Z</time>
      </trkpt>
      <trkpt lat="45.96388" lon="4.71586">
        <ele>183</ele>
        <time>2018-06-16T10:30:56Z</time>
      </trkpt>
      <trkpt lat="45.9638" lon="4.71586">
        <ele>183</ele>
        <time>2018-06-16T10:30:57Z</time>
      </trkpt>
      <trkpt lat="45.96372" lon="4.71584">
        <ele>182</ele>
        <time>2018-06-16T10:30:58Z</time>
      </trkpt>
      <trkpt lat="45.96365" lon="4.71583">
        <ele>185</ele>
        <time>2018-06-16T10:30:59Z</time>
      </trkpt>
      <trkpt lat="45.96358" lon="4.71581">
        <ele>185</ele>
        <time>2018-06-16T10:31:00Z</time>
      </trkpt>
      <trkpt lat="45.96351" lon="4.7158">
        <ele>185</ele>
        <time>2018-06-16T10:31:01Z</time>
      </trkpt>
      <trkpt lat="45.96345" lon="4.7158">
        <ele>184</ele>
        <time>2018-06-16T10:31:02Z</time>
      </trkpt>
      <trkpt lat="45.96338" lon="4.7158">
        <ele>184</ele>
        <time>2018-06-16T10:31:03Z</time>
      </trkpt>
      <trkpt lat="45.96331" lon="4.71578">
        <ele>183</ele>
        <time>2018-06-16T10:31:04Z</time>
      </trkpt>
      <trkpt lat="45.96322" lon="4.71578">
        <ele>184</ele>
        <time>2018-06-16T10:31:05Z</time>
      </trkpt>
      <trkpt lat="45.96315" lon="4.71576">
        <ele>184</ele>
        <time>2018-06-16T10:31:06Z</time>
      </trkpt>
      <trkpt lat="45.96307" lon="4.71575">
        <ele>184</ele>
        <time>2018-06-16T10:31:07Z</time>
      </trkpt>
      <trkpt lat="45.96298" lon="4.71573">
        <ele>184</ele>
        <time>2018-06-16T10:31:08Z</time>
      </trkpt>
      <trkpt lat="45.96291" lon="4.71572">
        <ele>184</ele>
        <time>2018-06-16T10:31:09Z</time>
      </trkpt>
      <trkpt lat="45.96283" lon="4.71571">
        <ele>184</ele>
        <time>2018-06-16T10:31:10Z</time>
      </trkpt>
      <trkpt lat="45.96274" lon="4.71569">
        <ele>184</ele>
        <time>2018-06-16T10:31:11Z</time>
      </trkpt>
      <trkpt lat="45.96267" lon="4.71568">
        <ele>184</ele>
        <time>2018-06-16T10:31:12Z</time>
      </trkpt>
      <trkpt lat="45.9626" lon="4.71568">
        <ele>183</ele>
        <time>2018-06-16T10:31:13Z</time>
      </trkpt>
      <trkpt lat="45.96253" lon="4.71566">
        <ele>183</ele>
        <time>2018-06-16T10:31:14Z</time>
      </trkpt>
      <trkpt lat="45.96246" lon="4.71564">
        <ele>183</ele>
        <time>2018-06-16T10:31:15Z</time>
      </trkpt>
      <trkpt lat="45.9624" lon="4.71563">
        <ele>183</ele>
        <time>2018-06-16T10:31:16Z</time>
      </trkpt>
      <trkpt lat="45.96233" lon="4.71563">
        <ele>183</ele>
        <time>2018-06-16T10:31:17Z</time>
      </trkpt>
      <trkpt lat="45.96226" lon="4.71561">
        <ele>183</ele>
        <time>2018-06-16T10:31:18Z</time>
      </trkpt>
      <trkpt lat="45.9622" lon="4.71561">
        <ele>183</ele>
        <time>2018-06-16T10:31:19Z</time>
      </trkpt>
      <trkpt lat="45.96214" lon="4.71559">
        <ele>184</ele>
        <time>2018-06-16T10:31:20Z</time>
      </trkpt>
      <trkpt lat="45.96207" lon="4.71558">
        <ele>184</ele>
        <time>2018-06-16T10:31:21Z</time>
      </trkpt>
      <trkpt lat="45.96201" lon="4.71557">
        <ele>184</ele>
        <time>2018-06-16T10:31:22Z</time>
      </trkpt>
      <trkpt lat="45.96194" lon="4.71556">
        <ele>183</ele>
        <time>2018-06-16T10:31:23Z</time>
      </trkpt>
      <trkpt lat="45.96188" lon="4.71555">
        <ele>183</ele>
        <time>2018-06-16T10:31:24Z</time>
      </trkpt>
      <trkpt lat="45.96181" lon="4.71553">
        <ele>183</ele>
        <time>2018-06-16T10:31:25Z</time>
      </trkpt>
      <trkpt lat="45.96175" lon="4.71551">
        <ele>184</ele>
        <time>2018-06-16T10:31:26Z</time>
      </trkpt>
      <trkpt lat="45.96168" lon="4.7155">
        <ele>184</ele>
        <time>2018-06-16T10:31:27Z</time>
      </trkpt>
      <trkpt lat="45.9616" lon="4.71549">
        <ele>184</ele>
        <time>2018-06-16T10:31:28Z</time>
      </trkpt>
      <trkpt lat="45.96154" lon="4.71548">
        <ele>184</ele>
        <time>2018-06-16T10:31:29Z</time>
      </trkpt>
      <trkpt lat="45.96147" lon="4.71545">
        <ele>184</ele>
        <time>2018-06-16T10:31:30Z</time>
      </trkpt>
      <trkpt lat="45.9614" lon="4.71543">
        <ele>185</ele>
        <time>2018-06-16T10:31:31Z</time>
      </trkpt>
      <trkpt lat="45.96134" lon="4.71543">
        <ele>185</ele>
        <time>2018-06-16T10:31:32Z</time>
      </trkpt>
      <trkpt lat="45.96127" lon="4.71541">
        <ele>185</ele>
        <time>2018-06-16T10:31:33Z</time>
      </trkpt>
      <trkpt lat="45.96121" lon="4.71539">
        <ele>185</ele>
        <time>2018-06-16T10:31:34Z</time>
      </trkpt>
      <trkpt lat="45.96115" lon="4.71538">
        <ele>185</ele>
        <time>2018-06-16T10:31:35Z</time>
      </trkpt>
      <trkpt lat="45.96107" lon="4.71537">
        <ele>185</ele>
        <time>2018-06-16T10:31:36Z</time>
      </trkpt>
      <trkpt lat="45.96101" lon="4.71535">
        <ele>185</ele>
        <time>2018-06-16T10:31:37Z</time>
      </trkpt>
      <trkpt lat="45.96095" lon="4.71535">
        <ele>185</ele>
        <time>2018-06-16T10:31:38Z</time>
      </trkpt>
      <trkpt lat="45.96088" lon="4.71534">
        <ele>185</ele>
        <time>2018-06-16T10:31:39Z</time>
      </trkpt>
      <trkpt lat="45.9608" lon="4.71533">
        <ele>186</ele>
        <time>2018-06-16T10:31:40Z</time>
      </trkpt>
      <trkpt lat="45.96073" lon="4.71532">
        <ele>186</ele>
        <time>2018-06-16T10:31:41Z</time>
      </trkpt>
      <trkpt lat="45.96066" lon="4.71531">
        <ele>186</ele>
        <time>2018-06-16T10:31:42Z</time>
      </trkpt>
      <trkpt lat="45.96059" lon="4.7153">
        <ele>186</ele>
        <time>2018-06-16T10:31:43Z</time>
      </trkpt>
      <trkpt lat="45.96052" lon="4.71529">
        <ele>186</ele>
        <time>2018-06-16T10:31:44Z</time>
      </trkpt>
      <trkpt lat="45.96045" lon="4.71528">
        <ele>186</ele>
        <time>2018-06-16T10:31:45Z</time>
      </trkpt>
      <trkpt lat="45.96039" lon="4.71526">
        <ele>186</ele>
        <time>2018-06-16T10:31:46Z</time>
      </trkpt>
      <trkpt lat="45.96033" lon="4.71525">
        <ele>186</ele>
        <time>2018-06-16T10:31:47Z</time>
      </trkpt>
      <trkpt lat="45.96026" lon="4.71524">
        <ele>186</ele>
        <time>2018-06-16T10:31:48Z</time>
      </trkpt>
      <trkpt lat="45.9602" lon="4.71524">
        <ele>186</ele>
        <time>2018-06-16T10:31:49Z</time>
      </trkpt>
      <trkpt lat="45.96015" lon="4.71523">
        <ele>186</ele>
        <time>2018-06-16T10:31:50Z</time>
      </trkpt>
      <trkpt lat="45.9601" lon="4.7152">
        <ele>186</ele>
        <time>2018-06-16T10:31:51Z</time>
      </trkpt>
      <trkpt lat="45.96005" lon="4.71518">
        <ele>186</ele>
        <time>2018-06-16T10:31:52Z</time>
      </trkpt>
      <trkpt lat="45.96" lon="4.71513">
        <ele>186</ele>
        <time>2018-06-16T10:31:53Z</time>
      </trkpt>
      <trkpt lat="45.95995" lon="4.7151">
        <ele>186</ele>
        <time>2018-06-16T10:31:54Z</time>
      </trkpt>
      <trkpt lat="45.95989" lon="4.71509">
        <ele>186</ele>
        <time>2018-06-16T10:31:55Z</time>
      </trkpt>
      <trkpt lat="45.95982" lon="4.7151">
        <ele>185</ele>
        <time>2018-06-16T10:31:56Z</time>
      </trkpt>
      <trkpt lat="45.95975" lon="4.71512">
        <ele>185</ele>
        <time>2018-06-16T10:31:57Z</time>
      </trkpt>
      <trkpt lat="45.95969" lon="4.71515">
        <ele>185</ele>
        <time>2018-06-16T10:31:58Z</time>
      </trkpt>
      <trkpt lat="45.95962" lon="4.71521">
        <ele>184</ele>
        <time>2018-06-16T10:31:59Z</time>
      </trkpt>
      <trkpt lat="45.95954" lon="4.71523">
        <ele>184</ele>
        <time>2018-06-16T10:32:00Z</time>
      </trkpt>
      <trkpt lat="45.95946" lon="4.71525">
        <ele>184</ele>
        <time>2018-06-16T10:32:01Z</time>
      </trkpt>
      <trkpt lat="45.95938" lon="4.71524">
        <ele>184</ele>
        <time>2018-06-16T10:32:02Z</time>
      </trkpt>
      <trkpt lat="45.9593" lon="4.71525">
        <ele>184</ele>
        <time>2018-06-16T10:32:03Z</time>
      </trkpt>
      <trkpt lat="45.95922" lon="4.71525">
        <ele>184</ele>
        <time>2018-06-16T10:32:04Z</time>
      </trkpt>
      <trkpt lat="45.95913" lon="4.71524">
        <ele>182</ele>
        <time>2018-06-16T10:32:05Z</time>
      </trkpt>
      <trkpt lat="45.95905" lon="4.71524">
        <ele>182</ele>
        <time>2018-06-16T10:32:06Z</time>
      </trkpt>
      <trkpt lat="45.95898" lon="4.71524">
        <ele>182</ele>
        <time>2018-06-16T10:32:07Z</time>
      </trkpt>
      <trkpt lat="45.95891" lon="4.71524">
        <ele>182</ele>
        <time>2018-06-16T10:32:08Z</time>
      </trkpt>
      <trkpt lat="45.95884" lon="4.71524">
        <ele>182</ele>
        <time>2018-06-16T10:32:09Z</time>
      </trkpt>
      <trkpt lat="45.95876" lon="4.71524">
        <ele>182</ele>
        <time>2018-06-16T10:32:10Z</time>
      </trkpt>
      <trkpt lat="45.95867" lon="4.71524">
        <ele>182</ele>
        <time>2018-06-16T10:32:11Z</time>
      </trkpt>
      <trkpt lat="45.95859" lon="4.71523">
        <ele>182</ele>
        <time>2018-06-16T10:32:12Z</time>
      </trkpt>
      <trkpt lat="45.95851" lon="4.71524">
        <ele>182</ele>
        <time>2018-06-16T10:32:13Z</time>
      </trkpt>
      <trkpt lat="45.95843" lon="4.71524">
        <ele>182</ele>
        <time>2018-06-16T10:32:14Z</time>
      </trkpt>
      <trkpt lat="45.95834" lon="4.71522">
        <ele>182</ele>
        <time>2018-06-16T10:32:15Z</time>
      </trkpt>
      <trkpt lat="45.95827" lon="4.71522">
        <ele>182</ele>
        <time>2018-06-16T10:32:16Z</time>
      </trkpt>
      <trkpt lat="45.95819" lon="4.71521">
        <ele>182</ele>
        <time>2018-06-16T10:32:17Z</time>
      </trkpt>
      <trkpt lat="45.9581" lon="4.7152">
        <ele>181</ele>
        <time>2018-06-16T10:32:18Z</time>
      </trkpt>
      <trkpt lat="45.95801" lon="4.7152">
        <ele>181</ele>
        <time>2018-06-16T10:32:19Z</time>
      </trkpt>
      <trkpt lat="45.95792" lon="4.71519">
        <ele>181</ele>
        <time>2018-06-16T10:32:20Z</time>
      </trkpt>
      <trkpt lat="45.95784" lon="4.71518">
        <ele>181</ele>
        <time>2018-06-16T10:32:21Z</time>
      </trkpt>
      <trkpt lat="45.95776" lon="4.71518">
        <ele>181</ele>
        <time>2018-06-16T10:32:22Z</time>
      </trkpt>
      <trkpt lat="45.95767" lon="4.71518">
        <ele>181</ele>
        <time>2018-06-16T10:32:23Z</time>
      </trkpt>
      <trkpt lat="45.95758" lon="4.71517">
        <ele>181</ele>
        <time>2018-06-16T10:32:24Z</time>
      </trkpt>
      <trkpt lat="45.9575" lon="4.71516">
        <ele>181</ele>
        <time>2018-06-16T10:32:25Z</time>
      </trkpt>
      <trkpt lat="45.95742" lon="4.71515">
        <ele>181</ele>
        <time>2018-06-16T10:32:26Z</time>
      </trkpt>
      <trkpt lat="45.95733" lon="4.71516">
        <ele>181</ele>
        <time>2018-06-16T10:32:27Z</time>
      </trkpt>
      <trkpt lat="45.95724" lon="4.71515">
        <ele>180</ele>
        <time>2018-06-16T10:32:28Z</time>
      </trkpt>
      <trkpt lat="45.95716" lon="4.71514">
        <ele>180</ele>
        <time>2018-06-16T10:32:29Z</time>
      </trkpt>
      <trkpt lat="45.95707" lon="4.71513">
        <ele>180</ele>
        <time>2018-06-16T10:32:30Z</time>
      </trkpt>
      <trkpt lat="45.95699" lon="4.71513">
        <ele>180</ele>
        <time>2018-06-16T10:32:31Z</time>
      </trkpt>
      <trkpt lat="45.9569" lon="4.71512">
        <ele>180</ele>
        <time>2018-06-16T10:32:32Z</time>
      </trkpt>
      <trkpt lat="45.95681" lon="4.71511">
        <ele>181</ele>
        <time>2018-06-16T10:32:33Z</time>
      </trkpt>
      <trkpt lat="45.95671" lon="4.71509">
        <ele>181</ele>
        <time>2018-06-16T10:32:34Z</time>
      </trkpt>
      <trkpt lat="45.95662" lon="4.71507">
        <ele>181</ele>
        <time>2018-06-16T10:32:35Z</time>
      </trkpt>
      <trkpt lat="45.95653" lon="4.71506">
        <ele>181</ele>
        <time>2018-06-16T10:32:36Z</time>
      </trkpt>
      <trkpt lat="45.95643" lon="4.71505">
        <ele>180</ele>
        <time>2018-06-16T10:32:37Z</time>
      </trkpt>
      <trkpt lat="45.95634" lon="4.71503">
        <ele>180</ele>
        <time>2018-06-16T10:32:38Z</time>
      </trkpt>
      <trkpt lat="45.95625" lon="4.71503">
        <ele>180</ele>
        <time>2018-06-16T10:32:39Z</time>
      </trkpt>
      <trkpt lat="45.95616" lon="4.71502">
        <ele>179</ele>
        <time>2018-06-16T10:32:40Z</time>
      </trkpt>
      <trkpt lat="45.95607" lon="4.71502">
        <ele>179</ele>
        <time>2018-06-16T10:32:41Z</time>
      </trkpt>
      <trkpt lat="45.95596" lon="4.71502">
        <ele>180</ele>
        <time>2018-06-16T10:32:42Z</time>
      </trkpt>
      <trkpt lat="45.95587" lon="4.71501">
        <ele>180</ele>
        <time>2018-06-16T10:32:43Z</time>
      </trkpt>
      <trkpt lat="45.95578" lon="4.715">
        <ele>179</ele>
        <time>2018-06-16T10:32:44Z</time>
      </trkpt>
      <trkpt lat="45.95569" lon="4.71501">
        <ele>179</ele>
        <time>2018-06-16T10:32:45Z</time>
      </trkpt>
      <trkpt lat="45.9556" lon="4.715">
        <ele>178</ele>
        <time>2018-06-16T10:32:46Z</time>
      </trkpt>
      <trkpt lat="45.95549" lon="4.71499">
        <ele>179</ele>
        <time>2018-06-16T10:32:47Z</time>
      </trkpt>
      <trkpt lat="45.95539" lon="4.71499">
        <ele>179</ele>
        <time>2018-06-16T10:32:48Z</time>
      </trkpt>
      <trkpt lat="45.95531" lon="4.715">
        <ele>177</ele>
        <time>2018-06-16T10:32:49Z</time>
      </trkpt>
      <trkpt lat="45.95521" lon="4.71499">
        <ele>178</ele>
        <time>2018-06-16T10:32:50Z</time>
      </trkpt>
      <trkpt lat="45.95512" lon="4.71498">
        <ele>178</ele>
        <time>2018-06-16T10:32:51Z</time>
      </trkpt>
      <trkpt lat="45.95503" lon="4.71497">
        <ele>177</ele>
        <time>2018-06-16T10:32:52Z</time>
      </trkpt>
      <trkpt lat="45.95495" lon="4.71497">
        <ele>177</ele>
        <time>2018-06-16T10:32:53Z</time>
      </trkpt>
      <trkpt lat="45.95485" lon="4.71497">
        <ele>177</ele>
        <time>2018-06-16T10:32:54Z</time>
      </trkpt>
      <trkpt lat="45.95476" lon="4.71496">
        <ele>176</ele>
        <time>2018-06-16T10:32:55Z</time>
      </trkpt>
      <trkpt lat="45.95467" lon="4.71495">
        <ele>176</ele>
        <time>2018-06-16T10:32:56Z</time>
      </trkpt>
      <trkpt lat="45.95458" lon="4.71493">
        <ele>176</ele>
        <time>2018-06-16T10:32:57Z</time>
      </trkpt>
      <trkpt lat="45.95448" lon="4.71493">
        <ele>176</ele>
        <time>2018-06-16T10:32:58Z</time>
      </trkpt>
      <trkpt lat="45.95439" lon="4.71492">
        <ele>175</ele>
        <time>2018-06-16T10:32:59Z</time>
      </trkpt>
      <trkpt lat="45.9543" lon="4.71493">
        <ele>175</ele>
        <time>2018-06-16T10:33:00Z</time>
      </trkpt>
      <trkpt lat="45.95422" lon="4.71492">
        <ele>175</ele>
        <time>2018-06-16T10:33:01Z</time>
      </trkpt>
      <trkpt lat="45.95413" lon="4.71491">
        <ele>174</ele>
        <time>2018-06-16T10:33:02Z</time>
      </trkpt>
      <trkpt lat="45.95404" lon="4.7149">
        <ele>175</ele>
        <time>2018-06-16T10:33:03Z</time>
      </trkpt>
      <trkpt lat="45.95395" lon="4.7149">
        <ele>175</ele>
        <time>2018-06-16T10:33:04Z</time>
      </trkpt>
      <trkpt lat="45.95386" lon="4.71489">
        <ele>175</ele>
        <time>2018-06-16T10:33:05Z</time>
      </trkpt>
      <trkpt lat="45.95378" lon="4.71488">
        <ele>175</ele>
        <time>2018-06-16T10:33:06Z</time>
      </trkpt>
      <trkpt lat="45.95372" lon="4.71489">
        <ele>175</ele>
        <time>2018-06-16T10:33:07Z</time>
      </trkpt>
      <trkpt lat="45.95363" lon="4.71488">
        <ele>175</ele>
        <time>2018-06-16T10:33:08Z</time>
      </trkpt>
      <trkpt lat="45.95355" lon="4.71488">
        <ele>175</ele>
        <time>2018-06-16T10:33:09Z</time>
      </trkpt>
      <trkpt lat="45.95347" lon="4.71486">
        <ele>175</ele>
        <time>2018-06-16T10:33:10Z</time>
      </trkpt>
      <trkpt lat="45.95339" lon="4.71485">
        <ele>175</ele>
        <time>2018-06-16T10:33:11Z</time>
      </trkpt>
      <trkpt lat="45.95331" lon="4.71484">
        <ele>175</ele>
        <time>2018-06-16T10:33:12Z</time>
      </trkpt>
      <trkpt lat="45.95323" lon="4.71484">
        <ele>175</ele>
        <time>2018-06-16T10:33:13Z</time>
      </trkpt>
      <trkpt lat="45.95314" lon="4.71484">
        <ele>175</ele>
        <time>2018-06-16T10:33:14Z</time>
      </trkpt>
      <trkpt lat="45.95305" lon="4.71483">
        <ele>175</ele>
        <time>2018-06-16T10:33:15Z</time>
      </trkpt>
      <trkpt lat="45.95299" lon="4.71483">
        <ele>176</ele>
        <time>2018-06-16T10:33:16Z</time>
      </trkpt>
      <trkpt lat="45.95291" lon="4.71482">
        <ele>176</ele>
        <time>2018-06-16T10:33:17Z</time>
      </trkpt>
      <trkpt lat="45.95284" lon="4.71481">
        <ele>176</ele>
        <time>2018-06-16T10:33:18Z</time>
      </trkpt>
      <trkpt lat="45.95277" lon="4.7148">
        <ele>176</ele>
        <time>2018-06-16T10:33:19Z</time>
      </trkpt>
      <trkpt lat="45.95269" lon="4.7148">
        <ele>176</ele>
        <time>2018-06-16T10:33:20Z</time>
      </trkpt>
      <trkpt lat="45.95262" lon="4.71479">
        <ele>176</ele>
        <time>2018-06-16T10:33:21Z</time>
      </trkpt>
      <trkpt lat="45.95255" lon="4.71479">
        <ele>176</ele>
        <time>2018-06-16T10:33:22Z</time>
      </trkpt>
      <trkpt lat="45.95248" lon="4.71478">
        <ele>177</ele>
        <time>2018-06-16T10:33:23Z</time>
      </trkpt>
      <trkpt lat="45.9524" lon="4.71479">
        <ele>177</ele>
        <time>2018-06-16T10:33:24Z</time>
      </trkpt>
      <trkpt lat="45.95232" lon="4.71478">
        <ele>177</ele>
        <time>2018-06-16T10:33:25Z</time>
      </trkpt>
      <trkpt lat="45.95225" lon="4.71478">
        <ele>177</ele>
        <time>2018-06-16T10:33:26Z</time>
      </trkpt>
      <trkpt lat="45.95218" lon="4.71478">
        <ele>177</ele>
        <time>2018-06-16T10:33:27Z</time>
      </trkpt>
      <trkpt lat="45.95211" lon="4.71478">
        <ele>177</ele>
        <time>2018-06-16T10:33:28Z</time>
      </trkpt>
      <trkpt lat="45.95203" lon="4.71478">
        <ele>177</ele>
        <time>2018-06-16T10:33:29Z</time>
      </trkpt>
      <trkpt lat="45.95197" lon="4.71476">
        <ele>177</ele>
        <time>2018-06-16T10:33:30Z</time>
      </trkpt>
      <trkpt lat="45.9519" lon="4.71476">
        <ele>177</ele>
        <time>2018-06-16T10:33:31Z</time>
      </trkpt>
      <trkpt lat="45.95183" lon="4.71476">
        <ele>177</ele>
        <time>2018-06-16T10:33:32Z</time>
      </trkpt>
      <trkpt lat="45.95176" lon="4.71476">
        <ele>177</ele>
        <time>2018-06-16T10:33:33Z</time>
      </trkpt>
      <trkpt lat="45.9517" lon="4.71473">
        <ele>177</ele>
        <time>2018-06-16T10:33:34Z</time>
      </trkpt>
      <trkpt lat="45.95164" lon="4.71472">
        <ele>178</ele>
        <time>2018-06-16T10:33:35Z</time>
      </trkpt>
      <trkpt lat="45.95158" lon="4.71473">
        <ele>178</ele>
        <time>2018-06-16T10:33:36Z</time>
      </trkpt>
      <trkpt lat="45.95152" lon="4.71472">
        <ele>178</ele>
        <time>2018-06-16T10:33:37Z</time>
      </trkpt>
      <trkpt lat="45.95146" lon="4.71472">
        <ele>178</ele>
        <time>2018-06-16T10:33:38Z</time>
      </trkpt>
      <trkpt lat="45.95139" lon="4.71471">
        <ele>178</ele>
        <time>2018-06-16T10:33:39Z</time>
      </trkpt>
      <trkpt lat="45.95133" lon="4.71472">
        <ele>178</ele>
        <time>2018-06-16T10:33:40Z</time>
      </trkpt>
      <trkpt lat="45.95127" lon="4.71469">
        <ele>178</ele>
        <time>2018-06-16T10:33:41Z</time>
      </trkpt>
      <trkpt lat="45.9512" lon="4.71468">
        <ele>179</ele>
        <time>2018-06-16T10:33:42Z</time>
      </trkpt>
      <trkpt lat="45.95113" lon="4.71468">
        <ele>179</ele>
        <time>2018-06-16T10:33:43Z</time>
      </trkpt>
      <trkpt lat="45.95107" lon="4.71467">
        <ele>179</ele>
        <time>2018-06-16T10:33:44Z</time>
      </trkpt>
      <trkpt lat="45.951" lon="4.71467">
        <ele>179</ele>
        <time>2018-06-16T10:33:45Z</time>
      </trkpt>
      <trkpt lat="45.95094" lon="4.71468">
        <ele>179</ele>
        <time>2018-06-16T10:33:46Z</time>
      </trkpt>
      <trkpt lat="45.95088" lon="4.71467">
        <ele>179</ele>
        <time>2018-06-16T10:33:47Z</time>
      </trkpt>
      <trkpt lat="45.95081" lon="4.71466">
        <ele>181</ele>
        <time>2018-06-16T10:33:48Z</time>
      </trkpt>
      <trkpt lat="45.95076" lon="4.71466">
        <ele>181</ele>
        <time>2018-06-16T10:33:49Z</time>
      </trkpt>
      <trkpt lat="45.95069" lon="4.71465">
        <ele>181</ele>
        <time>2018-06-16T10:33:50Z</time>
      </trkpt>
      <trkpt lat="45.95063" lon="4.71465">
        <ele>181</ele>
        <time>2018-06-16T10:33:51Z</time>
      </trkpt>
      <trkpt lat="45.95058" lon="4.71465">
        <ele>181</ele>
        <time>2018-06-16T10:33:52Z</time>
      </trkpt>
      <trkpt lat="45.95053" lon="4.71464">
        <ele>181</ele>
        <time>2018-06-16T10:33:53Z</time>
      </trkpt>
      <trkpt lat="45.95049" lon="4.71464">
        <ele>181</ele>
        <time>2018-06-16T10:33:54Z</time>
      </trkpt>
      <trkpt lat="45.95044" lon="4.71464">
        <ele>182</ele>
        <time>2018-06-16T10:33:55Z</time>
      </trkpt>
      <trkpt lat="45.9504" lon="4.71465">
        <ele>182</ele>
        <time>2018-06-16T10:33:56Z</time>
      </trkpt>
      <trkpt lat="45.95031" lon="4.71462">
        <ele>182</ele>
        <time>2018-06-16T10:33:58Z</time>
      </trkpt>
      <trkpt lat="45.95028" lon="4.71462">
        <ele>182</ele>
        <time>2018-06-16T10:33:59Z</time>
      </trkpt>
      <trkpt lat="45.95023" lon="4.71461">
        <ele>182</ele>
        <time>2018-06-16T10:34:01Z</time>
      </trkpt>
      <trkpt lat="45.95016" lon="4.7146">
        <ele>182</ele>
        <time>2018-06-16T10:34:02Z</time>
      </trkpt>
      <trkpt lat="45.95008" lon="4.71459">
        <ele>182</ele>
        <time>2018-06-16T10:34:04Z</time>
      </trkpt>
      <trkpt lat="45.95006" lon="4.71459">
        <ele>182</ele>
        <time>2018-06-16T10:34:05Z</time>
      </trkpt>
      <trkpt lat="45.95004" lon="4.71458">
        <ele>182</ele>
        <time>2018-06-16T10:34:06Z</time>
      </trkpt>
      <trkpt lat="45.94997" lon="4.71457">
        <ele>184</ele>
        <time>2018-06-16T10:34:07Z</time>
      </trkpt>
      <trkpt lat="45.9499" lon="4.71451">
        <ele>184</ele>
        <time>2018-06-16T10:34:09Z</time>
      </trkpt>
      <trkpt lat="45.94988" lon="4.71447">
        <ele>184</ele>
        <time>2018-06-16T10:34:10Z</time>
      </trkpt>
      <trkpt lat="45.94983" lon="4.71437">
        <ele>185</ele>
        <time>2018-06-16T10:34:12Z</time>
      </trkpt>
      <trkpt lat="45.94979" lon="4.71433">
        <ele>185</ele>
        <time>2018-06-16T10:34:13Z</time>
      </trkpt>
      <trkpt lat="45.94974" lon="4.71432">
        <ele>185</ele>
        <time>2018-06-16T10:34:14Z</time>
      </trkpt>
      <trkpt lat="45.94969" lon="4.71432">
        <ele>185</ele>
        <time>2018-06-16T10:34:15Z</time>
      </trkpt>
      <trkpt lat="45.94964" lon="4.71434">
        <ele>184</ele>
        <time>2018-06-16T10:34:16Z</time>
      </trkpt>
      <trkpt lat="45.94959" lon="4.71437">
        <ele>184</ele>
        <time>2018-06-16T10:34:17Z</time>
      </trkpt>
      <trkpt lat="45.94954" lon="4.71441">
        <ele>184</ele>
        <time>2018-06-16T10:34:18Z</time>
      </trkpt>
      <trkpt lat="45.94949" lon="4.71446">
        <ele>184</ele>
        <time>2018-06-16T10:34:19Z</time>
      </trkpt>
      <trkpt lat="45.94944" lon="4.71449">
        <ele>184</ele>
        <time>2018-06-16T10:34:20Z</time>
      </trkpt>
      <trkpt lat="45.94939" lon="4.71453">
        <ele>184</ele>
        <time>2018-06-16T10:34:21Z</time>
      </trkpt>
      <trkpt lat="45.94935" lon="4.71453">
        <ele>184</ele>
        <time>2018-06-16T10:34:22Z</time>
      </trkpt>
      <trkpt lat="45.9493" lon="4.71454">
        <ele>184</ele>
        <time>2018-06-16T10:34:23Z</time>
      </trkpt>
      <trkpt lat="45.94925" lon="4.71455">
        <ele>184</ele>
        <time>2018-06-16T10:34:24Z</time>
      </trkpt>
      <trkpt lat="45.94919" lon="4.71455">
        <ele>184</ele>
        <time>2018-06-16T10:34:25Z</time>
      </trkpt>
      <trkpt lat="45.94913" lon="4.71455">
        <ele>184</ele>
        <time>2018-06-16T10:34:26Z</time>
      </trkpt>
      <trkpt lat="45.94907" lon="4.71454">
        <ele>184</ele>
        <time>2018-06-16T10:34:27Z</time>
      </trkpt>
      <trkpt lat="45.94901" lon="4.71453">
        <ele>184</ele>
        <time>2018-06-16T10:34:28Z</time>
      </trkpt>
      <trkpt lat="45.94896" lon="4.71454">
        <ele>184</ele>
        <time>2018-06-16T10:34:29Z</time>
      </trkpt>
      <trkpt lat="45.9489" lon="4.71452">
        <ele>184</ele>
        <time>2018-06-16T10:34:30Z</time>
      </trkpt>
      <trkpt lat="45.94885" lon="4.71451">
        <ele>184</ele>
        <time>2018-06-16T10:34:31Z</time>
      </trkpt>
      <trkpt lat="45.94879" lon="4.71451">
        <ele>184</ele>
        <time>2018-06-16T10:34:32Z</time>
      </trkpt>
      <trkpt lat="45.94874" lon="4.7145">
        <ele>184</ele>
        <time>2018-06-16T10:34:33Z</time>
      </trkpt>
      <trkpt lat="45.94868" lon="4.7145">
        <ele>184</ele>
        <time>2018-06-16T10:34:34Z</time>
      </trkpt>
      <trkpt lat="45.94862" lon="4.7145">
        <ele>184</ele>
        <time>2018-06-16T10:34:35Z</time>
      </trkpt>
      <trkpt lat="45.94857" lon="4.71449">
        <ele>184</ele>
        <time>2018-06-16T10:34:36Z</time>
      </trkpt>
      <trkpt lat="45.94851" lon="4.71449">
        <ele>184</ele>
        <time>2018-06-16T10:34:37Z</time>
      </trkpt>
      <trkpt lat="45.94845" lon="4.71448">
        <ele>184</ele>
        <time>2018-06-16T10:34:38Z</time>
      </trkpt>
      <trkpt lat="45.94839" lon="4.71448">
        <ele>184</ele>
        <time>2018-06-16T10:34:39Z</time>
      </trkpt>
      <trkpt lat="45.94832" lon="4.71448">
        <ele>184</ele>
        <time>2018-06-16T10:34:40Z</time>
      </trkpt>
      <trkpt lat="45.94826" lon="4.71448">
        <ele>184</ele>
        <time>2018-06-16T10:34:41Z</time>
      </trkpt>
      <trkpt lat="45.9482" lon="4.71448">
        <ele>184</ele>
        <time>2018-06-16T10:34:42Z</time>
      </trkpt>
      <trkpt lat="45.94816" lon="4.71447">
        <ele>184</ele>
        <time>2018-06-16T10:34:43Z</time>
      </trkpt>
      <trkpt lat="45.9481" lon="4.71446">
        <ele>184</ele>
        <time>2018-06-16T10:34:44Z</time>
      </trkpt>
      <trkpt lat="45.94806" lon="4.71446">
        <ele>184</ele>
        <time>2018-06-16T10:34:45Z</time>
      </trkpt>
      <trkpt lat="45.94802" lon="4.71446">
        <ele>184</ele>
        <time>2018-06-16T10:34:46Z</time>
      </trkpt>
      <trkpt lat="45.94796" lon="4.71445">
        <ele>183</ele>
        <time>2018-06-16T10:34:47Z</time>
      </trkpt>
      <trkpt lat="45.9479" lon="4.71444">
        <ele>183</ele>
        <time>2018-06-16T10:34:48Z</time>
      </trkpt>
      <trkpt lat="45.94785" lon="4.71444">
        <ele>183</ele>
        <time>2018-06-16T10:34:49Z</time>
      </trkpt>
      <trkpt lat="45.94779" lon="4.71444">
        <ele>183</ele>
        <time>2018-06-16T10:34:50Z</time>
      </trkpt>
      <trkpt lat="45.94773" lon="4.71443">
        <ele>184</ele>
        <time>2018-06-16T10:34:51Z</time>
      </trkpt>
      <trkpt lat="45.94768" lon="4.71445">
        <ele>184</ele>
        <time>2018-06-16T10:34:52Z</time>
      </trkpt>
      <trkpt lat="45.94762" lon="4.71444">
        <ele>184</ele>
        <time>2018-06-16T10:34:53Z</time>
      </trkpt>
      <trkpt lat="45.94758" lon="4.71442">
        <ele>184</ele>
        <time>2018-06-16T10:34:54Z</time>
      </trkpt>
      <trkpt lat="45.9475" lon="4.71443">
        <ele>183</ele>
        <time>2018-06-16T10:34:55Z</time>
      </trkpt>
      <trkpt lat="45.94744" lon="4.71442">
        <ele>183</ele>
        <time>2018-06-16T10:34:56Z</time>
      </trkpt>
      <trkpt lat="45.94738" lon="4.7144">
        <ele>183</ele>
        <time>2018-06-16T10:34:57Z</time>
      </trkpt>
      <trkpt lat="45.94732" lon="4.7144">
        <ele>183</ele>
        <time>2018-06-16T10:34:58Z</time>
      </trkpt>
      <trkpt lat="45.94726" lon="4.71438">
        <ele>183</ele>
        <time>2018-06-16T10:34:59Z</time>
      </trkpt>
      <trkpt lat="45.94721" lon="4.71437">
        <ele>183</ele>
        <time>2018-06-16T10:35:00Z</time>
      </trkpt>
      <trkpt lat="45.94715" lon="4.71437">
        <ele>182</ele>
        <time>2018-06-16T10:35:01Z</time>
      </trkpt>
      <trkpt lat="45.94708" lon="4.71438">
        <ele>182</ele>
        <time>2018-06-16T10:35:02Z</time>
      </trkpt>
      <trkpt lat="45.94702" lon="4.71437">
        <ele>182</ele>
        <time>2018-06-16T10:35:03Z</time>
      </trkpt>
      <trkpt lat="45.94697" lon="4.71438">
        <ele>182</ele>
        <time>2018-06-16T10:35:04Z</time>
      </trkpt>
      <trkpt lat="45.94691" lon="4.71437">
        <ele>182</ele>
        <time>2018-06-16T10:35:05Z</time>
      </trkpt>
      <trkpt lat="45.94684" lon="4.71437">
        <ele>182</ele>
        <time>2018-06-16T10:35:06Z</time>
      </trkpt>
      <trkpt lat="45.94678" lon="4.71436">
        <ele>182</ele>
        <time>2018-06-16T10:35:07Z</time>
      </trkpt>
      <trkpt lat="45.94673" lon="4.71437">
        <ele>182</ele>
        <time>2018-06-16T10:35:08Z</time>
      </trkpt>
      <trkpt lat="45.94666" lon="4.71436">
        <ele>182</ele>
        <time>2018-06-16T10:35:09Z</time>
      </trkpt>
      <trkpt lat="45.9466" lon="4.71435">
        <ele>182</ele>
        <time>2018-06-16T10:35:10Z</time>
      </trkpt>
      <trkpt lat="45.94654" lon="4.71434">
        <ele>182</ele>
        <time>2018-06-16T10:35:11Z</time>
      </trkpt>
      <trkpt lat="45.94646" lon="4.71437">
        <ele>182</ele>
        <time>2018-06-16T10:35:12Z</time>
      </trkpt>
      <trkpt lat="45.94638" lon="4.71437">
        <ele>182</ele>
        <time>2018-06-16T10:35:13Z</time>
      </trkpt>
      <trkpt lat="45.94633" lon="4.71436">
        <ele>181</ele>
        <time>2018-06-16T10:35:14Z</time>
      </trkpt>
      <trkpt lat="45.94628" lon="4.71436">
        <ele>181</ele>
        <time>2018-06-16T10:35:15Z</time>
      </trkpt>
      <trkpt lat="45.94622" lon="4.71436">
        <ele>182</ele>
        <time>2018-06-16T10:35:16Z</time>
      </trkpt>
      <trkpt lat="45.94615" lon="4.71436">
        <ele>182</ele>
        <time>2018-06-16T10:35:17Z</time>
      </trkpt>
      <trkpt lat="45.9461" lon="4.71435">
        <ele>182</ele>
        <time>2018-06-16T10:35:18Z</time>
      </trkpt>
      <trkpt lat="45.94604" lon="4.71435">
        <ele>182</ele>
        <time>2018-06-16T10:35:19Z</time>
      </trkpt>
      <trkpt lat="45.94598" lon="4.71435">
        <ele>182</ele>
        <time>2018-06-16T10:35:20Z</time>
      </trkpt>
      <trkpt lat="45.94591" lon="4.71435">
        <ele>182</ele>
        <time>2018-06-16T10:35:21Z</time>
      </trkpt>
      <trkpt lat="45.94586" lon="4.71434">
        <ele>183</ele>
        <time>2018-06-16T10:35:22Z</time>
      </trkpt>
      <trkpt lat="45.9458" lon="4.71434">
        <ele>182</ele>
        <time>2018-06-16T10:35:23Z</time>
      </trkpt>
      <trkpt lat="45.94573" lon="4.71435">
        <ele>182</ele>
        <time>2018-06-16T10:35:24Z</time>
      </trkpt>
      <trkpt lat="45.94566" lon="4.71436">
        <ele>182</ele>
        <time>2018-06-16T10:35:25Z</time>
      </trkpt>
      <trkpt lat="45.94559" lon="4.71438">
        <ele>181</ele>
        <time>2018-06-16T10:35:26Z</time>
      </trkpt>
      <trkpt lat="45.94551" lon="4.71439">
        <ele>181</ele>
        <time>2018-06-16T10:35:27Z</time>
      </trkpt>
      <trkpt lat="45.94544" lon="4.71441">
        <ele>181</ele>
        <time>2018-06-16T10:35:28Z</time>
      </trkpt>
      <trkpt lat="45.94537" lon="4.71444">
        <ele>181</ele>
        <time>2018-06-16T10:35:29Z</time>
      </trkpt>
      <trkpt lat="45.9453" lon="4.71447">
        <ele>180</ele>
        <time>2018-06-16T10:35:30Z</time>
      </trkpt>
      <trkpt lat="45.94522" lon="4.71451">
        <ele>180</ele>
        <time>2018-06-16T10:35:31Z</time>
      </trkpt>
      <trkpt lat="45.94514" lon="4.71453">
        <ele>180</ele>
        <time>2018-06-16T10:35:32Z</time>
      </trkpt>
      <trkpt lat="45.94506" lon="4.71455">
        <ele>180</ele>
        <time>2018-06-16T10:35:33Z</time>
      </trkpt>
      <trkpt lat="45.94497" lon="4.71458">
        <ele>179</ele>
        <time>2018-06-16T10:35:34Z</time>
      </trkpt>
      <trkpt lat="45.94489" lon="4.71461">
        <ele>179</ele>
        <time>2018-06-16T10:35:35Z</time>
      </trkpt>
      <trkpt lat="45.94481" lon="4.71465">
        <ele>179</ele>
        <time>2018-06-16T10:35:36Z</time>
      </trkpt>
      <trkpt lat="45.94473" lon="4.71468">
        <ele>179</ele>
        <time>2018-06-16T10:35:37Z</time>
      </trkpt>
      <trkpt lat="45.94465" lon="4.71472">
        <ele>179</ele>
        <time>2018-06-16T10:35:38Z</time>
      </trkpt>
      <trkpt lat="45.94457" lon="4.71475">
        <ele>179</ele>
        <time>2018-06-16T10:35:39Z</time>
      </trkpt>
      <trkpt lat="45.94448" lon="4.71479">
        <ele>179</ele>
        <time>2018-06-16T10:35:40Z</time>
      </trkpt>
      <trkpt lat="45.9444" lon="4.71483">
        <ele>179</ele>
        <time>2018-06-16T10:35:41Z</time>
      </trkpt>
      <trkpt lat="45.94432" lon="4.71487">
        <ele>178</ele>
        <time>2018-06-16T10:35:42Z</time>
      </trkpt>
      <trkpt lat="45.94426" lon="4.71486">
        <ele>178</ele>
        <time>2018-06-16T10:35:43Z</time>
      </trkpt>
      <trkpt lat="45.94418" lon="4.71489">
        <ele>178</ele>
        <time>2018-06-16T10:35:44Z</time>
      </trkpt>
      <trkpt lat="45.9441" lon="4.71492">
        <ele>178</ele>
        <time>2018-06-16T10:35:45Z</time>
      </trkpt>
      <trkpt lat="45.94402" lon="4.71495">
        <ele>178</ele>
        <time>2018-06-16T10:35:46Z</time>
      </trkpt>
      <trkpt lat="45.94393" lon="4.71497">
        <ele>177</ele>
        <time>2018-06-16T10:35:47Z</time>
      </trkpt>
      <trkpt lat="45.94385" lon="4.71501">
        <ele>177</ele>
        <time>2018-06-16T10:35:48Z</time>
      </trkpt>
      <trkpt lat="45.94377" lon="4.71504">
        <ele>177</ele>
        <time>2018-06-16T10:35:49Z</time>
      </trkpt>
      <trkpt lat="45.94369" lon="4.7151">
        <ele>176</ele>
        <time>2018-06-16T10:35:50Z</time>
      </trkpt>
      <trkpt lat="45.94361" lon="4.71512">
        <ele>176</ele>
        <time>2018-06-16T10:35:51Z</time>
      </trkpt>
      <trkpt lat="45.94353" lon="4.71516">
        <ele>176</ele>
        <time>2018-06-16T10:35:52Z</time>
      </trkpt>
      <trkpt lat="45.94346" lon="4.71518">
        <ele>176</ele>
        <time>2018-06-16T10:35:53Z</time>
      </trkpt>
      <trkpt lat="45.94337" lon="4.71521">
        <ele>176</ele>
        <time>2018-06-16T10:35:54Z</time>
      </trkpt>
      <trkpt lat="45.94329" lon="4.71524">
        <ele>176</ele>
        <time>2018-06-16T10:35:55Z</time>
      </trkpt>
      <trkpt lat="45.94321" lon="4.71528">
        <ele>176</ele>
        <time>2018-06-16T10:35:56Z</time>
      </trkpt>
      <trkpt lat="45.94312" lon="4.71532">
        <ele>175</ele>
        <time>2018-06-16T10:35:57Z</time>
      </trkpt>
      <trkpt lat="45.94305" lon="4.71535">
        <ele>175</ele>
        <time>2018-06-16T10:35:58Z</time>
      </trkpt>
      <trkpt lat="45.94297" lon="4.71539">
        <ele>175</ele>
        <time>2018-06-16T10:35:59Z</time>
      </trkpt>
      <trkpt lat="45.94289" lon="4.71542">
        <ele>175</ele>
        <time>2018-06-16T10:36:00Z</time>
      </trkpt>
      <trkpt lat="45.94281" lon="4.71543">
        <ele>175</ele>
        <time>2018-06-16T10:36:01Z</time>
      </trkpt>
      <trkpt lat="45.94273" lon="4.71545">
        <ele>175</ele>
        <time>2018-06-16T10:36:02Z</time>
      </trkpt>
      <trkpt lat="45.94265" lon="4.7155">
        <ele>175</ele>
        <time>2018-06-16T10:36:03Z</time>
      </trkpt>
      <trkpt lat="45.94258" lon="4.71554">
        <ele>175</ele>
        <time>2018-06-16T10:36:04Z</time>
      </trkpt>
      <trkpt lat="45.9425" lon="4.71556">
        <ele>175</ele>
        <time>2018-06-16T10:36:05Z</time>
      </trkpt>
      <trkpt lat="45.9424" lon="4.71561">
        <ele>174</ele>
        <time>2018-06-16T10:36:06Z</time>
      </trkpt>
      <trkpt lat="45.94232" lon="4.71564">
        <ele>174</ele>
        <time>2018-06-16T10:36:07Z</time>
      </trkpt>
      <trkpt lat="45.94225" lon="4.71567">
        <ele>174</ele>
        <time>2018-06-16T10:36:08Z</time>
      </trkpt>
      <trkpt lat="45.94217" lon="4.71569">
        <ele>174</ele>
        <time>2018-06-16T10:36:09Z</time>
      </trkpt>
      <trkpt lat="45.9421" lon="4.71571">
        <ele>174</ele>
        <time>2018-06-16T10:36:10Z</time>
      </trkpt>
      <trkpt lat="45.94202" lon="4.71573">
        <ele>174</ele>
        <time>2018-06-16T10:36:11Z</time>
      </trkpt>
      <trkpt lat="45.94196" lon="4.71575">
        <ele>174</ele>
        <time>2018-06-16T10:36:12Z</time>
      </trkpt>
      <trkpt lat="45.94191" lon="4.71579">
        <ele>174</ele>
        <time>2018-06-16T10:36:13Z</time>
      </trkpt>
      <trkpt lat="45.94184" lon="4.71582">
        <ele>174</ele>
        <time>2018-06-16T10:36:14Z</time>
      </trkpt>
      <trkpt lat="45.94176" lon="4.71582">
        <ele>174</ele>
        <time>2018-06-16T10:36:15Z</time>
      </trkpt>
      <trkpt lat="45.9417" lon="4.71585">
        <ele>174</ele>
        <time>2018-06-16T10:36:16Z</time>
      </trkpt>
      <trkpt lat="45.94165" lon="4.71588">
        <ele>174</ele>
        <time>2018-06-16T10:36:17Z</time>
      </trkpt>
      <trkpt lat="45.94159" lon="4.7159">
        <ele>174</ele>
        <time>2018-06-16T10:36:18Z</time>
      </trkpt>
      <trkpt lat="45.94153" lon="4.71593">
        <ele>173</ele>
        <time>2018-06-16T10:36:19Z</time>
      </trkpt>
      <trkpt lat="45.94147" lon="4.71595">
        <ele>173</ele>
        <time>2018-06-16T10:36:20Z</time>
      </trkpt>
      <trkpt lat="45.94141" lon="4.71598">
        <ele>173</ele>
        <time>2018-06-16T10:36:21Z</time>
      </trkpt>
      <trkpt lat="45.94135" lon="4.716">
        <ele>173</ele>
        <time>2018-06-16T10:36:22Z</time>
      </trkpt>
      <trkpt lat="45.94128" lon="4.71602">
        <ele>173</ele>
        <time>2018-06-16T10:36:23Z</time>
      </trkpt>
      <trkpt lat="45.94121" lon="4.71604">
        <ele>173</ele>
        <time>2018-06-16T10:36:24Z</time>
      </trkpt>
      <trkpt lat="45.94118" lon="4.71606">
        <ele>173</ele>
        <time>2018-06-16T10:36:25Z</time>
      </trkpt>
      <trkpt lat="45.9411" lon="4.71608">
        <ele>173</ele>
        <time>2018-06-16T10:36:26Z</time>
      </trkpt>
      <trkpt lat="45.94103" lon="4.7161">
        <ele>173</ele>
        <time>2018-06-16T10:36:27Z</time>
      </trkpt>
      <trkpt lat="45.94097" lon="4.71613">
        <ele>173</ele>
        <time>2018-06-16T10:36:28Z</time>
      </trkpt>
      <trkpt lat="45.94088" lon="4.71618">
        <ele>173</ele>
        <time>2018-06-16T10:36:29Z</time>
      </trkpt>
      <trkpt lat="45.94081" lon="4.71622">
        <ele>174</ele>
        <time>2018-06-16T10:36:30Z</time>
      </trkpt>
      <trkpt lat="45.94074" lon="4.71625">
        <ele>174</ele>
        <time>2018-06-16T10:36:31Z</time>
      </trkpt>
      <trkpt lat="45.94067" lon="4.71627">
        <ele>174</ele>
        <time>2018-06-16T10:36:32Z</time>
      </trkpt>
      <trkpt lat="45.9406" lon="4.71629">
        <ele>174</ele>
        <time>2018-06-16T10:36:33Z</time>
      </trkpt>
      <trkpt lat="45.94054" lon="4.71631">
        <ele>174</ele>
        <time>2018-06-16T10:36:34Z</time>
      </trkpt>
      <trkpt lat="45.94048" lon="4.71633">
        <ele>175</ele>
        <time>2018-06-16T10:36:35Z</time>
      </trkpt>
      <trkpt lat="45.94043" lon="4.71634">
        <ele>175</ele>
        <time>2018-06-16T10:36:36Z</time>
      </trkpt>
      <trkpt lat="45.94037" lon="4.71635">
        <ele>175</ele>
        <time>2018-06-16T10:36:37Z</time>
      </trkpt>
      <trkpt lat="45.94032" lon="4.71638">
        <ele>175</ele>
        <time>2018-06-16T10:36:38Z</time>
      </trkpt>
      <trkpt lat="45.94027" lon="4.7164">
        <ele>175</ele>
        <time>2018-06-16T10:36:39Z</time>
      </trkpt>
      <trkpt lat="45.94022" lon="4.71642">
        <ele>175</ele>
        <time>2018-06-16T10:36:40Z</time>
      </trkpt>
      <trkpt lat="45.94017" lon="4.71645">
        <ele>175</ele>
        <time>2018-06-16T10:36:41Z</time>
      </trkpt>
      <trkpt lat="45.94009" lon="4.71651">
        <ele>176</ele>
        <time>2018-06-16T10:36:43Z</time>
      </trkpt>
      <trkpt lat="45.94008" lon="4.71653">
        <ele>176</ele>
        <time>2018-06-16T10:36:44Z</time>
      </trkpt>
      <trkpt lat="45.94" lon="4.71654">
        <ele>176</ele>
        <time>2018-06-16T10:36:46Z</time>
      </trkpt>
      <trkpt lat="45.93997" lon="4.71655">
        <ele>177</ele>
        <time>2018-06-16T10:36:47Z</time>
      </trkpt>
      <trkpt lat="45.93992" lon="4.71656">
        <ele>177</ele>
        <time>2018-06-16T10:36:48Z</time>
      </trkpt>
      <trkpt lat="45.93987" lon="4.71659">
        <ele>177</ele>
        <time>2018-06-16T10:36:49Z</time>
      </trkpt>
      <trkpt lat="45.93982" lon="4.71661">
        <ele>177</ele>
        <time>2018-06-16T10:36:50Z</time>
      </trkpt>
      <trkpt lat="45.93974" lon="4.71665">
        <ele>177</ele>
        <time>2018-06-16T10:36:51Z</time>
      </trkpt>
      <trkpt lat="45.93968" lon="4.71665">
        <ele>177</ele>
        <time>2018-06-16T10:36:52Z</time>
      </trkpt>
      <trkpt lat="45.93962" lon="4.71669">
        <ele>175</ele>
        <time>2018-06-16T10:36:53Z</time>
      </trkpt>
      <trkpt lat="45.93956" lon="4.71673">
        <ele>175</ele>
        <time>2018-06-16T10:36:54Z</time>
      </trkpt>
      <trkpt lat="45.93953" lon="4.71672">
        <ele>175</ele>
        <time>2018-06-16T10:36:55Z</time>
      </trkpt>
      <trkpt lat="45.93947" lon="4.71674">
        <ele>175</ele>
        <time>2018-06-16T10:36:56Z</time>
      </trkpt>
      <trkpt lat="45.93943" lon="4.71674">
        <ele>175</ele>
        <time>2018-06-16T10:36:57Z</time>
      </trkpt>
      <trkpt lat="45.93936" lon="4.71677">
        <ele>175</ele>
        <time>2018-06-16T10:36:58Z</time>
      </trkpt>
      <trkpt lat="45.93929" lon="4.71681">
        <ele>175</ele>
        <time>2018-06-16T10:36:59Z</time>
      </trkpt>
      <trkpt lat="45.93924" lon="4.71683">
        <ele>175</ele>
        <time>2018-06-16T10:37:00Z</time>
      </trkpt>
      <trkpt lat="45.93918" lon="4.71686">
        <ele>175</ele>
        <time>2018-06-16T10:37:01Z</time>
      </trkpt>
      <trkpt lat="45.93912" lon="4.71688">
        <ele>174</ele>
        <time>2018-06-16T10:37:02Z</time>
      </trkpt>
      <trkpt lat="45.93907" lon="4.71691">
        <ele>174</ele>
        <time>2018-06-16T10:37:03Z</time>
      </trkpt>
      <trkpt lat="45.93902" lon="4.71694">
        <ele>174</ele>
        <time>2018-06-16T10:37:04Z</time>
      </trkpt>
      <trkpt lat="45.93897" lon="4.71696">
        <ele>174</ele>
        <time>2018-06-16T10:37:05Z</time>
      </trkpt>
      <trkpt lat="45.93892" lon="4.71698">
        <ele>174</ele>
        <time>2018-06-16T10:37:06Z</time>
      </trkpt>
      <trkpt lat="45.93887" lon="4.717">
        <ele>174</ele>
        <time>2018-06-16T10:37:07Z</time>
      </trkpt>
      <trkpt lat="45.93882" lon="4.71702">
        <ele>174</ele>
        <time>2018-06-16T10:37:08Z</time>
      </trkpt>
      <trkpt lat="45.93878" lon="4.71703">
        <ele>174</ele>
        <time>2018-06-16T10:37:09Z</time>
      </trkpt>
      <trkpt lat="45.93873" lon="4.71704">
        <ele>174</ele>
        <time>2018-06-16T10:37:10Z</time>
      </trkpt>
      <trkpt lat="45.93867" lon="4.71708">
        <ele>174</ele>
        <time>2018-06-16T10:37:11Z</time>
      </trkpt>
      <trkpt lat="45.93863" lon="4.71711">
        <ele>174</ele>
        <time>2018-06-16T10:37:12Z</time>
      </trkpt>
      <trkpt lat="45.93857" lon="4.71712">
        <ele>174</ele>
        <time>2018-06-16T10:37:13Z</time>
      </trkpt>
      <trkpt lat="45.93851" lon="4.71714">
        <ele>174</ele>
        <time>2018-06-16T10:37:14Z</time>
      </trkpt>
      <trkpt lat="45.93846" lon="4.71717">
        <ele>174</ele>
        <time>2018-06-16T10:37:15Z</time>
      </trkpt>
      <trkpt lat="45.93839" lon="4.7172">
        <ele>175</ele>
        <time>2018-06-16T10:37:16Z</time>
      </trkpt>
      <trkpt lat="45.93829" lon="4.71723">
        <ele>175</ele>
        <time>2018-06-16T10:37:17Z</time>
      </trkpt>
      <trkpt lat="45.93824" lon="4.71724">
        <ele>175</ele>
        <time>2018-06-16T10:37:18Z</time>
      </trkpt>
      <trkpt lat="45.93816" lon="4.71726">
        <ele>175</ele>
        <time>2018-06-16T10:37:19Z</time>
      </trkpt>
      <trkpt lat="45.93811" lon="4.71729">
        <ele>175</ele>
        <time>2018-06-16T10:37:20Z</time>
      </trkpt>
      <trkpt lat="45.93804" lon="4.71732">
        <ele>175</ele>
        <time>2018-06-16T10:37:21Z</time>
      </trkpt>
      <trkpt lat="45.93798" lon="4.71735">
        <ele>175</ele>
        <time>2018-06-16T10:37:22Z</time>
      </trkpt>
      <trkpt lat="45.93792" lon="4.71737">
        <ele>175</ele>
        <time>2018-06-16T10:37:23Z</time>
      </trkpt>
      <trkpt lat="45.93785" lon="4.71738">
        <ele>175</ele>
        <time>2018-06-16T10:37:24Z</time>
      </trkpt>
      <trkpt lat="45.93779" lon="4.71739">
        <ele>175</ele>
        <time>2018-06-16T10:37:25Z</time>
      </trkpt>
      <trkpt lat="45.93773" lon="4.71742">
        <ele>175</ele>
        <time>2018-06-16T10:37:26Z</time>
      </trkpt>
      <trkpt lat="45.93766" lon="4.71745">
        <ele>175</ele>
        <time>2018-06-16T10:37:27Z</time>
      </trkpt>
      <trkpt lat="45.9376" lon="4.71746">
        <ele>175</ele>
        <time>2018-06-16T10:37:28Z</time>
      </trkpt>
      <trkpt lat="45.93754" lon="4.71749">
        <ele>175</ele>
        <time>2018-06-16T10:37:29Z</time>
      </trkpt>
      <trkpt lat="45.93747" lon="4.71752">
        <ele>175</ele>
        <time>2018-06-16T10:37:30Z</time>
      </trkpt>
      <trkpt lat="45.93742" lon="4.71754">
        <ele>175</ele>
        <time>2018-06-16T10:37:31Z</time>
      </trkpt>
      <trkpt lat="45.93736" lon="4.71756">
        <ele>176</ele>
        <time>2018-06-16T10:37:32Z</time>
      </trkpt>
      <trkpt lat="45.93731" lon="4.71759">
        <ele>176</ele>
        <time>2018-06-16T10:37:33Z</time>
      </trkpt>
      <trkpt lat="45.93723" lon="4.71764">
        <ele>176</ele>
        <time>2018-06-16T10:37:36Z</time>
      </trkpt>
      <trkpt lat="45.93722" lon="4.71766">
        <ele>176</ele>
        <time>2018-06-16T10:37:37Z</time>
      </trkpt>
      <trkpt lat="45.93713" lon="4.71765">
        <ele>176</ele>
        <time>2018-06-16T10:37:59Z</time>
      </trkpt>
      <trkpt lat="45.93711" lon="4.71766">
        <ele>176</ele>
        <time>2018-06-16T10:38:00Z</time>
      </trkpt>
      <trkpt lat="45.93709" lon="4.71768">
        <ele>176</ele>
        <time>2018-06-16T10:38:01Z</time>
      </trkpt>
      <trkpt lat="45.93704" lon="4.71776">
        <ele>177</ele>
        <time>2018-06-16T10:38:02Z</time>
      </trkpt>
      <trkpt lat="45.93704" lon="4.71787">
        <ele>176</ele>
        <time>2018-06-16T10:38:03Z</time>
      </trkpt>
      <trkpt lat="45.93702" lon="4.71795">
        <ele>176</ele>
        <time>2018-06-16T10:38:04Z</time>
      </trkpt>
      <trkpt lat="45.937" lon="4.71801">
        <ele>176</ele>
        <time>2018-06-16T10:38:05Z</time>
      </trkpt>
      <trkpt lat="45.93699" lon="4.71808">
        <ele>176</ele>
        <time>2018-06-16T10:38:06Z</time>
      </trkpt>
      <trkpt lat="45.93697" lon="4.71815">
        <ele>176</ele>
        <time>2018-06-16T10:38:07Z</time>
      </trkpt>
      <trkpt lat="45.93695" lon="4.71822">
        <ele>176</ele>
        <time>2018-06-16T10:38:08Z</time>
      </trkpt>
      <trkpt lat="45.93692" lon="4.71831">
        <ele>176</ele>
        <time>2018-06-16T10:38:09Z</time>
      </trkpt>
      <trkpt lat="45.93689" lon="4.71839">
        <ele>175</ele>
        <time>2018-06-16T10:38:10Z</time>
      </trkpt>
      <trkpt lat="45.93686" lon="4.71846">
        <ele>175</ele>
        <time>2018-06-16T10:38:11Z</time>
      </trkpt>
      <trkpt lat="45.93685" lon="4.71854">
        <ele>175</ele>
        <time>2018-06-16T10:38:12Z</time>
      </trkpt>
      <trkpt lat="45.93683" lon="4.71862">
        <ele>175</ele>
        <time>2018-06-16T10:38:13Z</time>
      </trkpt>
      <trkpt lat="45.9368" lon="4.7187">
        <ele>175</ele>
        <time>2018-06-16T10:38:14Z</time>
      </trkpt>
      <trkpt lat="45.93678" lon="4.71876">
        <ele>175</ele>
        <time>2018-06-16T10:38:15Z</time>
      </trkpt>
      <trkpt lat="45.93674" lon="4.71884">
        <ele>175</ele>
        <time>2018-06-16T10:38:16Z</time>
      </trkpt>
      <trkpt lat="45.93672" lon="4.71892">
        <ele>175</ele>
        <time>2018-06-16T10:38:17Z</time>
      </trkpt>
      <trkpt lat="45.93669" lon="4.71901">
        <ele>175</ele>
        <time>2018-06-16T10:38:18Z</time>
      </trkpt>
      <trkpt lat="45.93666" lon="4.71909">
        <ele>176</ele>
        <time>2018-06-16T10:38:19Z</time>
      </trkpt>
      <trkpt lat="45.9366" lon="4.71918">
        <ele>175</ele>
        <time>2018-06-16T10:38:20Z</time>
      </trkpt>
      <trkpt lat="45.93657" lon="4.71926">
        <ele>175</ele>
        <time>2018-06-16T10:38:21Z</time>
      </trkpt>
      <trkpt lat="45.93654" lon="4.71935">
        <ele>175</ele>
        <time>2018-06-16T10:38:22Z</time>
      </trkpt>
      <trkpt lat="45.93652" lon="4.71942">
        <ele>175</ele>
        <time>2018-06-16T10:38:23Z</time>
      </trkpt>
      <trkpt lat="45.93648" lon="4.7195">
        <ele>175</ele>
        <time>2018-06-16T10:38:24Z</time>
      </trkpt>
      <trkpt lat="45.93644" lon="4.71957">
        <ele>175</ele>
        <time>2018-06-16T10:38:25Z</time>
      </trkpt>
      <trkpt lat="45.93642" lon="4.71965">
        <ele>175</ele>
        <time>2018-06-16T10:38:26Z</time>
      </trkpt>
      <trkpt lat="45.9364" lon="4.71972">
        <ele>175</ele>
        <time>2018-06-16T10:38:27Z</time>
      </trkpt>
      <trkpt lat="45.93639" lon="4.71979">
        <ele>175</ele>
        <time>2018-06-16T10:38:28Z</time>
      </trkpt>
      <trkpt lat="45.93636" lon="4.71987">
        <ele>175</ele>
        <time>2018-06-16T10:38:29Z</time>
      </trkpt>
      <trkpt lat="45.93634" lon="4.71995">
        <ele>175</ele>
        <time>2018-06-16T10:38:30Z</time>
      </trkpt>
      <trkpt lat="45.93634" lon="4.72003">
        <ele>174</ele>
        <time>2018-06-16T10:38:31Z</time>
      </trkpt>
      <trkpt lat="45.93632" lon="4.72009">
        <ele>174</ele>
        <time>2018-06-16T10:38:32Z</time>
      </trkpt>
      <trkpt lat="45.9363" lon="4.72016">
        <ele>174</ele>
        <time>2018-06-16T10:38:33Z</time>
      </trkpt>
      <trkpt lat="45.93628" lon="4.72025">
        <ele>175</ele>
        <time>2018-06-16T10:38:34Z</time>
      </trkpt>
      <trkpt lat="45.93625" lon="4.72033">
        <ele>175</ele>
        <time>2018-06-16T10:38:35Z</time>
      </trkpt>
      <trkpt lat="45.9362" lon="4.72041">
        <ele>175</ele>
        <time>2018-06-16T10:38:36Z</time>
      </trkpt>
      <trkpt lat="45.93619" lon="4.72041">
        <ele>175</ele>
        <time>2018-06-16T10:38:37Z</time>
      </trkpt>
      <trkpt lat="45.9361" lon="4.72046">
        <ele>175</ele>
        <time>2018-06-16T10:38:38Z</time>
      </trkpt>
      <trkpt lat="45.93603" lon="4.7205">
        <ele>175</ele>
        <time>2018-06-16T10:38:39Z</time>
      </trkpt>
      <trkpt lat="45.93598" lon="4.72053">
        <ele>175</ele>
        <time>2018-06-16T10:38:40Z</time>
      </trkpt>
      <trkpt lat="45.93598" lon="4.72066">
        <ele>175</ele>
        <time>2018-06-16T10:38:41Z</time>
      </trkpt>
      <trkpt lat="45.93595" lon="4.72073">
        <ele>175</ele>
        <time>2018-06-16T10:38:42Z</time>
      </trkpt>
      <trkpt lat="45.93591" lon="4.7208">
        <ele>176</ele>
        <time>2018-06-16T10:38:43Z</time>
      </trkpt>
      <trkpt lat="45.93591" lon="4.72089">
        <ele>175</ele>
        <time>2018-06-16T10:38:44Z</time>
      </trkpt>
      <trkpt lat="45.93591" lon="4.72098">
        <ele>175</ele>
        <time>2018-06-16T10:38:45Z</time>
      </trkpt>
      <trkpt lat="45.93591" lon="4.72104">
        <ele>174</ele>
        <time>2018-06-16T10:38:46Z</time>
      </trkpt>
      <trkpt lat="45.93588" lon="4.72113">
        <ele>174</ele>
        <time>2018-06-16T10:38:47Z</time>
      </trkpt>
      <trkpt lat="45.93585" lon="4.7212">
        <ele>174</ele>
        <time>2018-06-16T10:38:48Z</time>
      </trkpt>
      <trkpt lat="45.93579" lon="4.72122">
        <ele>175</ele>
        <time>2018-06-16T10:38:49Z</time>
      </trkpt>
      <trkpt lat="45.93572" lon="4.72125">
        <ele>174</ele>
        <time>2018-06-16T10:38:50Z</time>
      </trkpt>
      <trkpt lat="45.93567" lon="4.72135">
        <ele>174</ele>
        <time>2018-06-16T10:38:51Z</time>
      </trkpt>
      <trkpt lat="45.93562" lon="4.72142">
        <ele>174</ele>
        <time>2018-06-16T10:38:52Z</time>
      </trkpt>
      <trkpt lat="45.93562" lon="4.72152">
        <ele>174</ele>
        <time>2018-06-16T10:38:53Z</time>
      </trkpt>
      <trkpt lat="45.93562" lon="4.72161">
        <ele>174</ele>
        <time>2018-06-16T10:38:54Z</time>
      </trkpt>
      <trkpt lat="45.93562" lon="4.72167">
        <ele>173</ele>
        <time>2018-06-16T10:38:55Z</time>
      </trkpt>
      <trkpt lat="45.93558" lon="4.72174">
        <ele>173</ele>
        <time>2018-06-16T10:38:56Z</time>
      </trkpt>
      <trkpt lat="45.93556" lon="4.72184">
        <ele>173</ele>
        <time>2018-06-16T10:38:57Z</time>
      </trkpt>
      <trkpt lat="45.93552" lon="4.72191">
        <ele>173</ele>
        <time>2018-06-16T10:38:58Z</time>
      </trkpt>
      <trkpt lat="45.93547" lon="4.72199">
        <ele>173</ele>
        <time>2018-06-16T10:38:59Z</time>
      </trkpt>
      <trkpt lat="45.93546" lon="4.72206">
        <ele>173</ele>
        <time>2018-06-16T10:39:00Z</time>
      </trkpt>
      <trkpt lat="45.93542" lon="4.72213">
        <ele>172</ele>
        <time>2018-06-16T10:39:01Z</time>
      </trkpt>
      <trkpt lat="45.93539" lon="4.72221">
        <ele>172</ele>
        <time>2018-06-16T10:39:02Z</time>
      </trkpt>
      <trkpt lat="45.93538" lon="4.72227">
        <ele>172</ele>
        <time>2018-06-16T10:39:03Z</time>
      </trkpt>
      <trkpt lat="45.93534" lon="4.72235">
        <ele>172</ele>
        <time>2018-06-16T10:39:04Z</time>
      </trkpt>
      <trkpt lat="45.93532" lon="4.72241">
        <ele>172</ele>
        <time>2018-06-16T10:39:05Z</time>
      </trkpt>
      <trkpt lat="45.93531" lon="4.72248">
        <ele>172</ele>
        <time>2018-06-16T10:39:06Z</time>
      </trkpt>
      <trkpt lat="45.93529" lon="4.72255">
        <ele>172</ele>
        <time>2018-06-16T10:39:07Z</time>
      </trkpt>
      <trkpt lat="45.93526" lon="4.72261">
        <ele>172</ele>
        <time>2018-06-16T10:39:08Z</time>
      </trkpt>
      <trkpt lat="45.93524" lon="4.72268">
        <ele>172</ele>
        <time>2018-06-16T10:39:09Z</time>
      </trkpt>
      <trkpt lat="45.93521" lon="4.72275">
        <ele>172</ele>
        <time>2018-06-16T10:39:10Z</time>
      </trkpt>
      <trkpt lat="45.93518" lon="4.72282">
        <ele>172</ele>
        <time>2018-06-16T10:39:11Z</time>
      </trkpt>
      <trkpt lat="45.93514" lon="4.72289">
        <ele>172</ele>
        <time>2018-06-16T10:39:12Z</time>
      </trkpt>
      <trkpt lat="45.93512" lon="4.72297">
        <ele>172</ele>
        <time>2018-06-16T10:39:13Z</time>
      </trkpt>
      <trkpt lat="45.93508" lon="4.72303">
        <ele>172</ele>
        <time>2018-06-16T10:39:14Z</time>
      </trkpt>
      <trkpt lat="45.93504" lon="4.72309">
        <ele>173</ele>
        <time>2018-06-16T10:39:15Z</time>
      </trkpt>
      <trkpt lat="45.93498" lon="4.72314">
        <ele>173</ele>
        <time>2018-06-16T10:39:16Z</time>
      </trkpt>
      <trkpt lat="45.93493" lon="4.72321">
        <ele>173</ele>
        <time>2018-06-16T10:39:17Z</time>
      </trkpt>
      <trkpt lat="45.93489" lon="4.72325">
        <ele>173</ele>
        <time>2018-06-16T10:39:18Z</time>
      </trkpt>
      <trkpt lat="45.93485" lon="4.72332">
        <ele>173</ele>
        <time>2018-06-16T10:39:19Z</time>
      </trkpt>
      <trkpt lat="45.93481" lon="4.72337">
        <ele>173</ele>
        <time>2018-06-16T10:39:20Z</time>
      </trkpt>
      <trkpt lat="45.93477" lon="4.72343">
        <ele>173</ele>
        <time>2018-06-16T10:39:21Z</time>
      </trkpt>
      <trkpt lat="45.93473" lon="4.72349">
        <ele>173</ele>
        <time>2018-06-16T10:39:22Z</time>
      </trkpt>
      <trkpt lat="45.93468" lon="4.72356">
        <ele>173</ele>
        <time>2018-06-16T10:39:23Z</time>
      </trkpt>
      <trkpt lat="45.93464" lon="4.72364">
        <ele>173</ele>
        <time>2018-06-16T10:39:24Z</time>
      </trkpt>
      <trkpt lat="45.9346" lon="4.72371">
        <ele>173</ele>
        <time>2018-06-16T10:39:25Z</time>
      </trkpt>
      <trkpt lat="45.93455" lon="4.72377">
        <ele>173</ele>
        <time>2018-06-16T10:39:26Z</time>
      </trkpt>
      <trkpt lat="45.9345" lon="4.72383">
        <ele>173</ele>
        <time>2018-06-16T10:39:27Z</time>
      </trkpt>
      <trkpt lat="45.93445" lon="4.72388">
        <ele>173</ele>
        <time>2018-06-16T10:39:28Z</time>
      </trkpt>
      <trkpt lat="45.93439" lon="4.72393">
        <ele>173</ele>
        <time>2018-06-16T10:39:29Z</time>
      </trkpt>
      <trkpt lat="45.93434" lon="4.72398">
        <ele>173</ele>
        <time>2018-06-16T10:39:30Z</time>
      </trkpt>
      <trkpt lat="45.93424" lon="4.72397">
        <ele>174</ele>
        <time>2018-06-16T10:39:31Z</time>
      </trkpt>
      <trkpt lat="45.93417" lon="4.72395">
        <ele>174</ele>
        <time>2018-06-16T10:39:32Z</time>
      </trkpt>
      <trkpt lat="45.93412" lon="4.724">
        <ele>174</ele>
        <time>2018-06-16T10:39:33Z</time>
      </trkpt>
      <trkpt lat="45.93407" lon="4.72402">
        <ele>174</ele>
        <time>2018-06-16T10:39:34Z</time>
      </trkpt>
      <trkpt lat="45.93402" lon="4.72403">
        <ele>174</ele>
        <time>2018-06-16T10:39:35Z</time>
      </trkpt>
      <trkpt lat="45.93397" lon="4.72403">
        <ele>174</ele>
        <time>2018-06-16T10:39:36Z</time>
      </trkpt>
      <trkpt lat="45.93391" lon="4.72404">
        <ele>174</ele>
        <time>2018-06-16T10:39:37Z</time>
      </trkpt>
      <trkpt lat="45.93385" lon="4.72405">
        <ele>174</ele>
        <time>2018-06-16T10:39:38Z</time>
      </trkpt>
      <trkpt lat="45.93381" lon="4.72408">
        <ele>174</ele>
        <time>2018-06-16T10:39:39Z</time>
      </trkpt>
      <trkpt lat="45.93378" lon="4.72414">
        <ele>174</ele>
        <time>2018-06-16T10:39:40Z</time>
      </trkpt>
      <trkpt lat="45.93376" lon="4.72421">
        <ele>173</ele>
        <time>2018-06-16T10:39:41Z</time>
      </trkpt>
      <trkpt lat="45.93378" lon="4.72429">
        <ele>173</ele>
        <time>2018-06-16T10:39:42Z</time>
      </trkpt>
      <trkpt lat="45.93381" lon="4.72437">
        <ele>173</ele>
        <time>2018-06-16T10:39:43Z</time>
      </trkpt>
      <trkpt lat="45.93384" lon="4.72444">
        <ele>173</ele>
        <time>2018-06-16T10:39:44Z</time>
      </trkpt>
      <trkpt lat="45.93386" lon="4.72451">
        <ele>173</ele>
        <time>2018-06-16T10:39:45Z</time>
      </trkpt>
      <trkpt lat="45.93385" lon="4.72459">
        <ele>173</ele>
        <time>2018-06-16T10:39:46Z</time>
      </trkpt>
      <trkpt lat="45.93383" lon="4.72466">
        <ele>173</ele>
        <time>2018-06-16T10:39:47Z</time>
      </trkpt>
      <trkpt lat="45.93379" lon="4.72473">
        <ele>173</ele>
        <time>2018-06-16T10:39:48Z</time>
      </trkpt>
      <trkpt lat="45.93375" lon="4.72477">
        <ele>173</ele>
        <time>2018-06-16T10:39:49Z</time>
      </trkpt>
      <trkpt lat="45.9337" lon="4.72482">
        <ele>173</ele>
        <time>2018-06-16T10:39:50Z</time>
      </trkpt>
      <trkpt lat="45.93365" lon="4.72487">
        <ele>173</ele>
        <time>2018-06-16T10:39:51Z</time>
      </trkpt>
      <trkpt lat="45.93361" lon="4.72492">
        <ele>173</ele>
        <time>2018-06-16T10:39:52Z</time>
      </trkpt>
      <trkpt lat="45.93357" lon="4.72497">
        <ele>173</ele>
        <time>2018-06-16T10:39:53Z</time>
      </trkpt>
      <trkpt lat="45.93353" lon="4.72502">
        <ele>172</ele>
        <time>2018-06-16T10:39:54Z</time>
      </trkpt>
      <trkpt lat="45.93348" lon="4.72508">
        <ele>172</ele>
        <time>2018-06-16T10:39:55Z</time>
      </trkpt>
      <trkpt lat="45.93344" lon="4.72513">
        <ele>172</ele>
        <time>2018-06-16T10:39:56Z</time>
      </trkpt>
      <trkpt lat="45.93339" lon="4.7252">
        <ele>172</ele>
        <time>2018-06-16T10:39:57Z</time>
      </trkpt>
      <trkpt lat="45.93334" lon="4.72525">
        <ele>172</ele>
        <time>2018-06-16T10:39:58Z</time>
      </trkpt>
      <trkpt lat="45.9333" lon="4.72531">
        <ele>172</ele>
        <time>2018-06-16T10:39:59Z</time>
      </trkpt>
      <trkpt lat="45.93326" lon="4.72535">
        <ele>172</ele>
        <time>2018-06-16T10:40:00Z</time>
      </trkpt>
      <trkpt lat="45.93322" lon="4.7254">
        <ele>172</ele>
        <time>2018-06-16T10:40:01Z</time>
      </trkpt>
      <trkpt lat="45.93315" lon="4.72546">
        <ele>172</ele>
        <time>2018-06-16T10:40:03Z</time>
      </trkpt>
      <trkpt lat="45.93311" lon="4.72551">
        <ele>172</ele>
        <time>2018-06-16T10:40:04Z</time>
      </trkpt>
      <trkpt lat="45.93306" lon="4.72557">
        <ele>172</ele>
        <time>2018-06-16T10:40:05Z</time>
      </trkpt>
      <trkpt lat="45.933" lon="4.72564">
        <ele>172</ele>
        <time>2018-06-16T10:40:06Z</time>
      </trkpt>
      <trkpt lat="45.93296" lon="4.7257">
        <ele>172</ele>
        <time>2018-06-16T10:40:07Z</time>
      </trkpt>
      <trkpt lat="45.93291" lon="4.72574">
        <ele>172</ele>
        <time>2018-06-16T10:40:08Z</time>
      </trkpt>
      <trkpt lat="45.93286" lon="4.7258">
        <ele>171</ele>
        <time>2018-06-16T10:40:09Z</time>
      </trkpt>
      <trkpt lat="45.93283" lon="4.72586">
        <ele>170</ele>
        <time>2018-06-16T10:40:10Z</time>
      </trkpt>
      <trkpt lat="45.93278" lon="4.72592">
        <ele>170</ele>
        <time>2018-06-16T10:40:11Z</time>
      </trkpt>
      <trkpt lat="45.93273" lon="4.72598">
        <ele>170</ele>
        <time>2018-06-16T10:40:12Z</time>
      </trkpt>
      <trkpt lat="45.9327" lon="4.72602">
        <ele>170</ele>
        <time>2018-06-16T10:40:13Z</time>
      </trkpt>
      <trkpt lat="45.93265" lon="4.72608">
        <ele>170</ele>
        <time>2018-06-16T10:40:14Z</time>
      </trkpt>
      <trkpt lat="45.93259" lon="4.72613">
        <ele>170</ele>
        <time>2018-06-16T10:40:15Z</time>
      </trkpt>
      <trkpt lat="45.93253" lon="4.72618">
        <ele>170</ele>
        <time>2018-06-16T10:40:16Z</time>
      </trkpt>
      <trkpt lat="45.9325" lon="4.72626">
        <ele>170</ele>
        <time>2018-06-16T10:40:17Z</time>
      </trkpt>
      <trkpt lat="45.93244" lon="4.72633">
        <ele>170</ele>
        <time>2018-06-16T10:40:18Z</time>
      </trkpt>
      <trkpt lat="45.93239" lon="4.72639">
        <ele>170</ele>
        <time>2018-06-16T10:40:19Z</time>
      </trkpt>
      <trkpt lat="45.93234" lon="4.72645">
        <ele>170</ele>
        <time>2018-06-16T10:40:20Z</time>
      </trkpt>
      <trkpt lat="45.93229" lon="4.7265">
        <ele>170</ele>
        <time>2018-06-16T10:40:21Z</time>
      </trkpt>
      <trkpt lat="45.93224" lon="4.72656">
        <ele>170</ele>
        <time>2018-06-16T10:40:22Z</time>
      </trkpt>
      <trkpt lat="45.93219" lon="4.72661">
        <ele>170</ele>
        <time>2018-06-16T10:40:23Z</time>
      </trkpt>
      <trkpt lat="45.93215" lon="4.72665">
        <ele>170</ele>
        <time>2018-06-16T10:40:24Z</time>
      </trkpt>
      <trkpt lat="45.93208" lon="4.72673">
        <ele>169</ele>
        <time>2018-06-16T10:40:26Z</time>
      </trkpt>
      <trkpt lat="45.93205" lon="4.72677">
        <ele>169</ele>
        <time>2018-06-16T10:40:27Z</time>
      </trkpt>
      <trkpt lat="45.93198" lon="4.72681">
        <ele>169</ele>
        <time>2018-06-16T10:40:28Z</time>
      </trkpt>
      <trkpt lat="45.93195" lon="4.72687">
        <ele>169</ele>
        <time>2018-06-16T10:40:29Z</time>
      </trkpt>
      <trkpt lat="45.93188" lon="4.72695">
        <ele>169</ele>
        <time>2018-06-16T10:40:30Z</time>
      </trkpt>
      <trkpt lat="45.9318" lon="4.72703">
        <ele>169</ele>
        <time>2018-06-16T10:40:31Z</time>
      </trkpt>
      <trkpt lat="45.93175" lon="4.72709">
        <ele>170</ele>
        <time>2018-06-16T10:40:32Z</time>
      </trkpt>
      <trkpt lat="45.9317" lon="4.72716">
        <ele>170</ele>
        <time>2018-06-16T10:40:33Z</time>
      </trkpt>
      <trkpt lat="45.93165" lon="4.72722">
        <ele>170</ele>
        <time>2018-06-16T10:40:34Z</time>
      </trkpt>
      <trkpt lat="45.9316" lon="4.72729">
        <ele>170</ele>
        <time>2018-06-16T10:40:35Z</time>
      </trkpt>
      <trkpt lat="45.93157" lon="4.72735">
        <ele>170</ele>
        <time>2018-06-16T10:40:36Z</time>
      </trkpt>
      <trkpt lat="45.93152" lon="4.72741">
        <ele>170</ele>
        <time>2018-06-16T10:40:37Z</time>
      </trkpt>
      <trkpt lat="45.93149" lon="4.72748">
        <ele>170</ele>
        <time>2018-06-16T10:40:38Z</time>
      </trkpt>
      <trkpt lat="45.93143" lon="4.72754">
        <ele>171</ele>
        <time>2018-06-16T10:40:39Z</time>
      </trkpt>
      <trkpt lat="45.93137" lon="4.7276">
        <ele>171</ele>
        <time>2018-06-16T10:40:40Z</time>
      </trkpt>
      <trkpt lat="45.93132" lon="4.72766">
        <ele>171</ele>
        <time>2018-06-16T10:40:41Z</time>
      </trkpt>
      <trkpt lat="45.93127" lon="4.72773">
        <ele>171</ele>
        <time>2018-06-16T10:40:42Z</time>
      </trkpt>
      <trkpt lat="45.93122" lon="4.7278">
        <ele>171</ele>
        <time>2018-06-16T10:40:43Z</time>
      </trkpt>
      <trkpt lat="45.93117" lon="4.72786">
        <ele>171</ele>
        <time>2018-06-16T10:40:44Z</time>
      </trkpt>
      <trkpt lat="45.93114" lon="4.72793">
        <ele>171</ele>
        <time>2018-06-16T10:40:45Z</time>
      </trkpt>
      <trkpt lat="45.93109" lon="4.728">
        <ele>171</ele>
        <time>2018-06-16T10:40:46Z</time>
      </trkpt>
      <trkpt lat="45.93104" lon="4.72807">
        <ele>171</ele>
        <time>2018-06-16T10:40:47Z</time>
      </trkpt>
      <trkpt lat="45.93099" lon="4.72813">
        <ele>172</ele>
        <time>2018-06-16T10:40:48Z</time>
      </trkpt>
      <trkpt lat="45.93094" lon="4.72819">
        <ele>172</ele>
        <time>2018-06-16T10:40:49Z</time>
      </trkpt>
      <trkpt lat="45.93088" lon="4.72825">
        <ele>172</ele>
        <time>2018-06-16T10:40:50Z</time>
      </trkpt>
      <trkpt lat="45.93067" lon="4.72856">
        <ele>172</ele>
        <time>2018-06-16T10:40:55Z</time>
      </trkpt>
      <trkpt lat="45.93063" lon="4.72862">
        <ele>172</ele>
        <time>2018-06-16T10:40:56Z</time>
      </trkpt>
      <trkpt lat="45.93053" lon="4.72856">
        <ele>172</ele>
        <time>2018-06-16T10:40:57Z</time>
      </trkpt>
      <trkpt lat="45.93049" lon="4.72859">
        <ele>172</ele>
        <time>2018-06-16T10:40:58Z</time>
      </trkpt>
      <trkpt lat="45.93038" lon="4.72866">
        <ele>172</ele>
        <time>2018-06-16T10:40:59Z</time>
      </trkpt>
      <trkpt lat="45.93033" lon="4.72874">
        <ele>172</ele>
        <time>2018-06-16T10:41:00Z</time>
      </trkpt>
      <trkpt lat="45.93029" lon="4.72879">
        <ele>172</ele>
        <time>2018-06-16T10:41:01Z</time>
      </trkpt>
      <trkpt lat="45.93024" lon="4.72886">
        <ele>172</ele>
        <time>2018-06-16T10:41:02Z</time>
      </trkpt>
      <trkpt lat="45.9302" lon="4.72894">
        <ele>172</ele>
        <time>2018-06-16T10:41:03Z</time>
      </trkpt>
      <trkpt lat="45.93015" lon="4.72901">
        <ele>172</ele>
        <time>2018-06-16T10:41:04Z</time>
      </trkpt>
      <trkpt lat="45.9301" lon="4.72906">
        <ele>171</ele>
        <time>2018-06-16T10:41:05Z</time>
      </trkpt>
      <trkpt lat="45.93005" lon="4.72912">
        <ele>171</ele>
        <time>2018-06-16T10:41:06Z</time>
      </trkpt>
      <trkpt lat="45.93001" lon="4.72918">
        <ele>171</ele>
        <time>2018-06-16T10:41:07Z</time>
      </trkpt>
      <trkpt lat="45.92997" lon="4.72924">
        <ele>171</ele>
        <time>2018-06-16T10:41:08Z</time>
      </trkpt>
      <trkpt lat="45.92991" lon="4.72929">
        <ele>171</ele>
        <time>2018-06-16T10:41:09Z</time>
      </trkpt>
      <trkpt lat="45.92987" lon="4.72936">
        <ele>171</ele>
        <time>2018-06-16T10:41:10Z</time>
      </trkpt>
      <trkpt lat="45.92982" lon="4.72941">
        <ele>171</ele>
        <time>2018-06-16T10:41:11Z</time>
      </trkpt>
      <trkpt lat="45.92978" lon="4.72946">
        <ele>171</ele>
        <time>2018-06-16T10:41:12Z</time>
      </trkpt>
      <trkpt lat="45.92973" lon="4.72952">
        <ele>171</ele>
        <time>2018-06-16T10:41:13Z</time>
      </trkpt>
      <trkpt lat="45.92967" lon="4.72959">
        <ele>171</ele>
        <time>2018-06-16T10:41:14Z</time>
      </trkpt>
      <trkpt lat="45.92963" lon="4.72964">
        <ele>171</ele>
        <time>2018-06-16T10:41:15Z</time>
      </trkpt>
      <trkpt lat="45.92958" lon="4.7297">
        <ele>171</ele>
        <time>2018-06-16T10:41:16Z</time>
      </trkpt>
      <trkpt lat="45.92954" lon="4.72976">
        <ele>171</ele>
        <time>2018-06-16T10:41:17Z</time>
      </trkpt>
      <trkpt lat="45.92948" lon="4.72982">
        <ele>171</ele>
        <time>2018-06-16T10:41:18Z</time>
      </trkpt>
      <trkpt lat="45.92942" lon="4.7299">
        <ele>171</ele>
        <time>2018-06-16T10:41:19Z</time>
      </trkpt>
      <trkpt lat="45.92937" lon="4.72996">
        <ele>171</ele>
        <time>2018-06-16T10:41:20Z</time>
      </trkpt>
      <trkpt lat="45.92932" lon="4.73002">
        <ele>172</ele>
        <time>2018-06-16T10:41:21Z</time>
      </trkpt>
      <trkpt lat="45.92927" lon="4.7301">
        <ele>172</ele>
        <time>2018-06-16T10:41:22Z</time>
      </trkpt>
      <trkpt lat="45.92922" lon="4.73016">
        <ele>172</ele>
        <time>2018-06-16T10:41:23Z</time>
      </trkpt>
      <trkpt lat="45.92917" lon="4.73022">
        <ele>172</ele>
        <time>2018-06-16T10:41:24Z</time>
      </trkpt>
      <trkpt lat="45.92912" lon="4.73028">
        <ele>172</ele>
        <time>2018-06-16T10:41:25Z</time>
      </trkpt>
      <trkpt lat="45.92906" lon="4.73035">
        <ele>172</ele>
        <time>2018-06-16T10:41:26Z</time>
      </trkpt>
      <trkpt lat="45.92903" lon="4.73043">
        <ele>172</ele>
        <time>2018-06-16T10:41:27Z</time>
      </trkpt>
      <trkpt lat="45.92899" lon="4.73051">
        <ele>172</ele>
        <time>2018-06-16T10:41:28Z</time>
      </trkpt>
      <trkpt lat="45.92895" lon="4.73059">
        <ele>172</ele>
        <time>2018-06-16T10:41:29Z</time>
      </trkpt>
      <trkpt lat="45.92891" lon="4.73066">
        <ele>172</ele>
        <time>2018-06-16T10:41:30Z</time>
      </trkpt>
      <trkpt lat="45.92887" lon="4.73073">
        <ele>172</ele>
        <time>2018-06-16T10:41:31Z</time>
      </trkpt>
      <trkpt lat="45.92884" lon="4.73076">
        <ele>172</ele>
        <time>2018-06-16T10:41:32Z</time>
      </trkpt>
      <trkpt lat="45.92878" lon="4.73082">
        <ele>172</ele>
        <time>2018-06-16T10:41:33Z</time>
      </trkpt>
      <trkpt lat="45.92873" lon="4.73089">
        <ele>172</ele>
        <time>2018-06-16T10:41:34Z</time>
      </trkpt>
      <trkpt lat="45.92869" lon="4.73095">
        <ele>172</ele>
        <time>2018-06-16T10:41:35Z</time>
      </trkpt>
      <trkpt lat="45.92865" lon="4.73101">
        <ele>171</ele>
        <time>2018-06-16T10:41:36Z</time>
      </trkpt>
      <trkpt lat="45.92861" lon="4.73108">
        <ele>171</ele>
        <time>2018-06-16T10:41:37Z</time>
      </trkpt>
      <trkpt lat="45.92857" lon="4.73112">
        <ele>171</ele>
        <time>2018-06-16T10:41:38Z</time>
      </trkpt>
      <trkpt lat="45.92853" lon="4.73112">
        <ele>171</ele>
        <time>2018-06-16T10:41:39Z</time>
      </trkpt>
      <trkpt lat="45.92845" lon="4.73106">
        <ele>171</ele>
        <time>2018-06-16T10:41:41Z</time>
      </trkpt>
      <trkpt lat="45.92845" lon="4.73098">
        <ele>171</ele>
        <time>2018-06-16T10:41:42Z</time>
      </trkpt>
      <trkpt lat="45.92844" lon="4.73086">
        <ele>171</ele>
        <time>2018-06-16T10:41:44Z</time>
      </trkpt>
      <trkpt lat="45.92843" lon="4.73077">
        <ele>171</ele>
        <time>2018-06-16T10:41:45Z</time>
      </trkpt>
      <trkpt lat="45.92842" lon="4.73068">
        <ele>171</ele>
        <time>2018-06-16T10:41:46Z</time>
      </trkpt>
      <trkpt lat="45.9284" lon="4.7306">
        <ele>171</ele>
        <time>2018-06-16T10:41:47Z</time>
      </trkpt>
      <trkpt lat="45.9284" lon="4.73051">
        <ele>171</ele>
        <time>2018-06-16T10:41:48Z</time>
      </trkpt>
      <trkpt lat="45.92841" lon="4.73043">
        <ele>171</ele>
        <time>2018-06-16T10:41:49Z</time>
      </trkpt>
      <trkpt lat="45.92838" lon="4.73035">
        <ele>171</ele>
        <time>2018-06-16T10:41:50Z</time>
      </trkpt>
      <trkpt lat="45.92836" lon="4.73028">
        <ele>171</ele>
        <time>2018-06-16T10:41:51Z</time>
      </trkpt>
      <trkpt lat="45.92835" lon="4.7302">
        <ele>171</ele>
        <time>2018-06-16T10:41:52Z</time>
      </trkpt>
      <trkpt lat="45.92833" lon="4.73013">
        <ele>170</ele>
        <time>2018-06-16T10:41:53Z</time>
      </trkpt>
      <trkpt lat="45.92831" lon="4.73006">
        <ele>170</ele>
        <time>2018-06-16T10:41:54Z</time>
      </trkpt>
      <trkpt lat="45.9283" lon="4.72997">
        <ele>170</ele>
        <time>2018-06-16T10:41:55Z</time>
      </trkpt>
      <trkpt lat="45.92829" lon="4.7299">
        <ele>170</ele>
        <time>2018-06-16T10:41:56Z</time>
      </trkpt>
      <trkpt lat="45.92828" lon="4.72982">
        <ele>170</ele>
        <time>2018-06-16T10:41:57Z</time>
      </trkpt>
      <trkpt lat="45.92829" lon="4.72974">
        <ele>170</ele>
        <time>2018-06-16T10:41:58Z</time>
      </trkpt>
      <trkpt lat="45.92827" lon="4.72966">
        <ele>170</ele>
        <time>2018-06-16T10:41:59Z</time>
      </trkpt>
      <trkpt lat="45.92826" lon="4.72958">
        <ele>170</ele>
        <time>2018-06-16T10:42:00Z</time>
      </trkpt>
      <trkpt lat="45.92825" lon="4.7295">
        <ele>170</ele>
        <time>2018-06-16T10:42:01Z</time>
      </trkpt>
      <trkpt lat="45.92824" lon="4.72942">
        <ele>170</ele>
        <time>2018-06-16T10:42:02Z</time>
      </trkpt>
      <trkpt lat="45.92823" lon="4.72934">
        <ele>170</ele>
        <time>2018-06-16T10:42:03Z</time>
      </trkpt>
      <trkpt lat="45.9282" lon="4.72925">
        <ele>170</ele>
        <time>2018-06-16T10:42:04Z</time>
      </trkpt>
      <trkpt lat="45.9282" lon="4.72917">
        <ele>170</ele>
        <time>2018-06-16T10:42:05Z</time>
      </trkpt>
      <trkpt lat="45.9282" lon="4.72909">
        <ele>170</ele>
        <time>2018-06-16T10:42:06Z</time>
      </trkpt>
      <trkpt lat="45.9282" lon="4.72902">
        <ele>170</ele>
        <time>2018-06-16T10:42:07Z</time>
      </trkpt>
      <trkpt lat="45.92818" lon="4.72893">
        <ele>170</ele>
        <time>2018-06-16T10:42:08Z</time>
      </trkpt>
      <trkpt lat="45.92817" lon="4.72887">
        <ele>170</ele>
        <time>2018-06-16T10:42:09Z</time>
      </trkpt>
      <trkpt lat="45.92816" lon="4.7288">
        <ele>170</ele>
        <time>2018-06-16T10:42:10Z</time>
      </trkpt>
      <trkpt lat="45.92815" lon="4.72873">
        <ele>170</ele>
        <time>2018-06-16T10:42:11Z</time>
      </trkpt>
      <trkpt lat="45.92814" lon="4.72866">
        <ele>170</ele>
        <time>2018-06-16T10:42:12Z</time>
      </trkpt>
      <trkpt lat="45.92812" lon="4.72858">
        <ele>170</ele>
        <time>2018-06-16T10:42:13Z</time>
      </trkpt>
      <trkpt lat="45.9281" lon="4.72851">
        <ele>170</ele>
        <time>2018-06-16T10:42:14Z</time>
      </trkpt>
      <trkpt lat="45.92809" lon="4.72843">
        <ele>170</ele>
        <time>2018-06-16T10:42:15Z</time>
      </trkpt>
      <trkpt lat="45.92808" lon="4.72837">
        <ele>170</ele>
        <time>2018-06-16T10:42:16Z</time>
      </trkpt>
      <trkpt lat="45.92809" lon="4.7283">
        <ele>171</ele>
        <time>2018-06-16T10:42:17Z</time>
      </trkpt>
      <trkpt lat="45.92807" lon="4.72823">
        <ele>171</ele>
        <time>2018-06-16T10:42:18Z</time>
      </trkpt>
      <trkpt lat="45.92808" lon="4.72816">
        <ele>171</ele>
        <time>2018-06-16T10:42:19Z</time>
      </trkpt>
      <trkpt lat="45.92807" lon="4.72809">
        <ele>171</ele>
        <time>2018-06-16T10:42:20Z</time>
      </trkpt>
      <trkpt lat="45.92806" lon="4.72803">
        <ele>171</ele>
        <time>2018-06-16T10:42:21Z</time>
      </trkpt>
      <trkpt lat="45.928" lon="4.72792">
        <ele>171</ele>
        <time>2018-06-16T10:42:23Z</time>
      </trkpt>
      <trkpt lat="45.92796" lon="4.72791">
        <ele>171</ele>
        <time>2018-06-16T10:42:24Z</time>
      </trkpt>
      <trkpt lat="45.9279" lon="4.72795">
        <ele>170</ele>
        <time>2018-06-16T10:42:26Z</time>
      </trkpt>
      <trkpt lat="45.92786" lon="4.72795">
        <ele>170</ele>
        <time>2018-06-16T10:42:27Z</time>
      </trkpt>
      <trkpt lat="45.92781" lon="4.72798">
        <ele>170</ele>
        <time>2018-06-16T10:42:28Z</time>
      </trkpt>
      <trkpt lat="45.92776" lon="4.72801">
        <ele>170</ele>
        <time>2018-06-16T10:42:29Z</time>
      </trkpt>
      <trkpt lat="45.92769" lon="4.72806">
        <ele>170</ele>
        <time>2018-06-16T10:42:31Z</time>
      </trkpt>
      <trkpt lat="45.92764" lon="4.72809">
        <ele>170</ele>
        <time>2018-06-16T10:42:32Z</time>
      </trkpt>
      <trkpt lat="45.9276" lon="4.72815">
        <ele>170</ele>
        <time>2018-06-16T10:42:33Z</time>
      </trkpt>
      <trkpt lat="45.92756" lon="4.72819">
        <ele>170</ele>
        <time>2018-06-16T10:42:34Z</time>
      </trkpt>
      <trkpt lat="45.9275" lon="4.72823">
        <ele>170</ele>
        <time>2018-06-16T10:42:35Z</time>
      </trkpt>
      <trkpt lat="45.92747" lon="4.72827">
        <ele>169</ele>
        <time>2018-06-16T10:42:36Z</time>
      </trkpt>
      <trkpt lat="45.92743" lon="4.72831">
        <ele>169</ele>
        <time>2018-06-16T10:42:37Z</time>
      </trkpt>
      <trkpt lat="45.92738" lon="4.72835">
        <ele>169</ele>
        <time>2018-06-16T10:42:38Z</time>
      </trkpt>
      <trkpt lat="45.92735" lon="4.72839">
        <ele>169</ele>
        <time>2018-06-16T10:42:39Z</time>
      </trkpt>
      <trkpt lat="45.9273" lon="4.72843">
        <ele>169</ele>
        <time>2018-06-16T10:42:40Z</time>
      </trkpt>
      <trkpt lat="45.92725" lon="4.72846">
        <ele>169</ele>
        <time>2018-06-16T10:42:41Z</time>
      </trkpt>
      <trkpt lat="45.92718" lon="4.72851">
        <ele>169</ele>
        <time>2018-06-16T10:42:42Z</time>
      </trkpt>
      <trkpt lat="45.92712" lon="4.72855">
        <ele>169</ele>
        <time>2018-06-16T10:42:43Z</time>
      </trkpt>
      <trkpt lat="45.92708" lon="4.72858">
        <ele>169</ele>
        <time>2018-06-16T10:42:44Z</time>
      </trkpt>
      <trkpt lat="45.92702" lon="4.72863">
        <ele>169</ele>
        <time>2018-06-16T10:42:45Z</time>
      </trkpt>
      <trkpt lat="45.92696" lon="4.72866">
        <ele>169</ele>
        <time>2018-06-16T10:42:46Z</time>
      </trkpt>
      <trkpt lat="45.92691" lon="4.72871">
        <ele>169</ele>
        <time>2018-06-16T10:42:47Z</time>
      </trkpt>
      <trkpt lat="45.92684" lon="4.72876">
        <ele>170</ele>
        <time>2018-06-16T10:42:48Z</time>
      </trkpt>
      <trkpt lat="45.92678" lon="4.7288">
        <ele>170</ele>
        <time>2018-06-16T10:42:49Z</time>
      </trkpt>
      <trkpt lat="45.92673" lon="4.72884">
        <ele>170</ele>
        <time>2018-06-16T10:42:50Z</time>
      </trkpt>
      <trkpt lat="45.92667" lon="4.72889">
        <ele>170</ele>
        <time>2018-06-16T10:42:51Z</time>
      </trkpt>
      <trkpt lat="45.92662" lon="4.72893">
        <ele>170</ele>
        <time>2018-06-16T10:42:52Z</time>
      </trkpt>
      <trkpt lat="45.92656" lon="4.72896">
        <ele>170</ele>
        <time>2018-06-16T10:42:53Z</time>
      </trkpt>
      <trkpt lat="45.92651" lon="4.72901">
        <ele>170</ele>
        <time>2018-06-16T10:42:54Z</time>
      </trkpt>
      <trkpt lat="45.92646" lon="4.72908">
        <ele>170</ele>
        <time>2018-06-16T10:42:55Z</time>
      </trkpt>
      <trkpt lat="45.9264" lon="4.72911">
        <ele>169</ele>
        <time>2018-06-16T10:42:56Z</time>
      </trkpt>
      <trkpt lat="45.92636" lon="4.72916">
        <ele>169</ele>
        <time>2018-06-16T10:42:57Z</time>
      </trkpt>
      <trkpt lat="45.9263" lon="4.72921">
        <ele>170</ele>
        <time>2018-06-16T10:42:58Z</time>
      </trkpt>
      <trkpt lat="45.92626" lon="4.72927">
        <ele>170</ele>
        <time>2018-06-16T10:42:59Z</time>
      </trkpt>
      <trkpt lat="45.92621" lon="4.72931">
        <ele>169</ele>
        <time>2018-06-16T10:43:00Z</time>
      </trkpt>
      <trkpt lat="45.92617" lon="4.72935">
        <ele>169</ele>
        <time>2018-06-16T10:43:01Z</time>
      </trkpt>
      <trkpt lat="45.92611" lon="4.72941">
        <ele>169</ele>
        <time>2018-06-16T10:43:02Z</time>
      </trkpt>
      <trkpt lat="45.92605" lon="4.72946">
        <ele>169</ele>
        <time>2018-06-16T10:43:03Z</time>
      </trkpt>
      <trkpt lat="45.926" lon="4.72951">
        <ele>169</ele>
        <time>2018-06-16T10:43:04Z</time>
      </trkpt>
      <trkpt lat="45.92595" lon="4.72956">
        <ele>169</ele>
        <time>2018-06-16T10:43:05Z</time>
      </trkpt>
      <trkpt lat="45.92591" lon="4.72962">
        <ele>169</ele>
        <time>2018-06-16T10:43:06Z</time>
      </trkpt>
      <trkpt lat="45.92588" lon="4.72968">
        <ele>169</ele>
        <time>2018-06-16T10:43:07Z</time>
      </trkpt>
      <trkpt lat="45.92582" lon="4.72975">
        <ele>169</ele>
        <time>2018-06-16T10:43:08Z</time>
      </trkpt>
      <trkpt lat="45.92577" lon="4.72981">
        <ele>169</ele>
        <time>2018-06-16T10:43:09Z</time>
      </trkpt>
      <trkpt lat="45.92571" lon="4.72986">
        <ele>169</ele>
        <time>2018-06-16T10:43:10Z</time>
      </trkpt>
      <trkpt lat="45.92567" lon="4.72992">
        <ele>169</ele>
        <time>2018-06-16T10:43:11Z</time>
      </trkpt>
      <trkpt lat="45.92562" lon="4.72997">
        <ele>169</ele>
        <time>2018-06-16T10:43:12Z</time>
      </trkpt>
      <trkpt lat="45.92558" lon="4.73003">
        <ele>169</ele>
        <time>2018-06-16T10:43:13Z</time>
      </trkpt>
      <trkpt lat="45.92552" lon="4.73009">
        <ele>169</ele>
        <time>2018-06-16T10:43:14Z</time>
      </trkpt>
      <trkpt lat="45.92546" lon="4.73014">
        <ele>169</ele>
        <time>2018-06-16T10:43:15Z</time>
      </trkpt>
      <trkpt lat="45.92541" lon="4.73019">
        <ele>169</ele>
        <time>2018-06-16T10:43:16Z</time>
      </trkpt>
      <trkpt lat="45.92535" lon="4.73023">
        <ele>169</ele>
        <time>2018-06-16T10:43:17Z</time>
      </trkpt>
      <trkpt lat="45.92529" lon="4.73028">
        <ele>169</ele>
        <time>2018-06-16T10:43:18Z</time>
      </trkpt>
      <trkpt lat="45.92524" lon="4.73033">
        <ele>169</ele>
        <time>2018-06-16T10:43:19Z</time>
      </trkpt>
      <trkpt lat="45.92519" lon="4.73038">
        <ele>169</ele>
        <time>2018-06-16T10:43:20Z</time>
      </trkpt>
      <trkpt lat="45.92514" lon="4.73042">
        <ele>169</ele>
        <time>2018-06-16T10:43:21Z</time>
      </trkpt>
      <trkpt lat="45.9251" lon="4.73045">
        <ele>170</ele>
        <time>2018-06-16T10:43:22Z</time>
      </trkpt>
      <trkpt lat="45.92506" lon="4.73048">
        <ele>170</ele>
        <time>2018-06-16T10:43:23Z</time>
      </trkpt>
      <trkpt lat="45.92502" lon="4.73053">
        <ele>170</ele>
        <time>2018-06-16T10:43:24Z</time>
      </trkpt>
      <trkpt lat="45.92497" lon="4.73058">
        <ele>170</ele>
        <time>2018-06-16T10:43:25Z</time>
      </trkpt>
      <trkpt lat="45.92493" lon="4.73063">
        <ele>170</ele>
        <time>2018-06-16T10:43:26Z</time>
      </trkpt>
      <trkpt lat="45.92488" lon="4.73068">
        <ele>170</ele>
        <time>2018-06-16T10:43:27Z</time>
      </trkpt>
      <trkpt lat="45.92483" lon="4.73073">
        <ele>170</ele>
        <time>2018-06-16T10:43:28Z</time>
      </trkpt>
      <trkpt lat="45.92478" lon="4.73078">
        <ele>170</ele>
        <time>2018-06-16T10:43:29Z</time>
      </trkpt>
      <trkpt lat="45.92473" lon="4.73082">
        <ele>170</ele>
        <time>2018-06-16T10:43:30Z</time>
      </trkpt>
      <trkpt lat="45.92468" lon="4.73086">
        <ele>170</ele>
        <time>2018-06-16T10:43:31Z</time>
      </trkpt>
      <trkpt lat="45.92463" lon="4.73089">
        <ele>170</ele>
        <time>2018-06-16T10:43:32Z</time>
      </trkpt>
      <trkpt lat="45.92458" lon="4.73093">
        <ele>170</ele>
        <time>2018-06-16T10:43:33Z</time>
      </trkpt>
      <trkpt lat="45.92453" lon="4.73096">
        <ele>170</ele>
        <time>2018-06-16T10:43:34Z</time>
      </trkpt>
      <trkpt lat="45.92448" lon="4.731">
        <ele>170</ele>
        <time>2018-06-16T10:43:35Z</time>
      </trkpt>
      <trkpt lat="45.92443" lon="4.73104">
        <ele>170</ele>
        <time>2018-06-16T10:43:36Z</time>
      </trkpt>
      <trkpt lat="45.92438" lon="4.73108">
        <ele>170</ele>
        <time>2018-06-16T10:43:37Z</time>
      </trkpt>
      <trkpt lat="45.92434" lon="4.73112">
        <ele>170</ele>
        <time>2018-06-16T10:43:38Z</time>
      </trkpt>
      <trkpt lat="45.9243" lon="4.73116">
        <ele>170</ele>
        <time>2018-06-16T10:43:39Z</time>
      </trkpt>
      <trkpt lat="45.92426" lon="4.73119">
        <ele>170</ele>
        <time>2018-06-16T10:43:40Z</time>
      </trkpt>
      <trkpt lat="45.92419" lon="4.73124">
        <ele>170</ele>
        <time>2018-06-16T10:43:42Z</time>
      </trkpt>
      <trkpt lat="45.92415" lon="4.73127">
        <ele>171</ele>
        <time>2018-06-16T10:43:43Z</time>
      </trkpt>
      <trkpt lat="45.92414" lon="4.73135">
        <ele>171</ele>
        <time>2018-06-16T10:43:44Z</time>
      </trkpt>
      <trkpt lat="45.92412" lon="4.73141">
        <ele>171</ele>
        <time>2018-06-16T10:43:45Z</time>
      </trkpt>
      <trkpt lat="45.9241" lon="4.73151">
        <ele>171</ele>
        <time>2018-06-16T10:43:46Z</time>
      </trkpt>
      <trkpt lat="45.92409" lon="4.73158">
        <ele>170</ele>
        <time>2018-06-16T10:43:47Z</time>
      </trkpt>
      <trkpt lat="45.92409" lon="4.73165">
        <ele>170</ele>
        <time>2018-06-16T10:43:48Z</time>
      </trkpt>
      <trkpt lat="45.9241" lon="4.73173">
        <ele>170</ele>
        <time>2018-06-16T10:43:49Z</time>
      </trkpt>
      <trkpt lat="45.9241" lon="4.7318">
        <ele>171</ele>
        <time>2018-06-16T10:43:50Z</time>
      </trkpt>
      <trkpt lat="45.9241" lon="4.73189">
        <ele>171</ele>
        <time>2018-06-16T10:43:51Z</time>
      </trkpt>
      <trkpt lat="45.9241" lon="4.73196">
        <ele>171</ele>
        <time>2018-06-16T10:43:52Z</time>
      </trkpt>
      <trkpt lat="45.9241" lon="4.73204">
        <ele>171</ele>
        <time>2018-06-16T10:43:53Z</time>
      </trkpt>
      <trkpt lat="45.92411" lon="4.73216">
        <ele>171</ele>
        <time>2018-06-16T10:43:55Z</time>
      </trkpt>
      <trkpt lat="45.92412" lon="4.73223">
        <ele>171</ele>
        <time>2018-06-16T10:43:56Z</time>
      </trkpt>
      <trkpt lat="45.92413" lon="4.7323">
        <ele>171</ele>
        <time>2018-06-16T10:43:57Z</time>
      </trkpt>
      <trkpt lat="45.92412" lon="4.73237">
        <ele>171</ele>
        <time>2018-06-16T10:43:58Z</time>
      </trkpt>
      <trkpt lat="45.92412" lon="4.73244">
        <ele>171</ele>
        <time>2018-06-16T10:43:59Z</time>
      </trkpt>
      <trkpt lat="45.92413" lon="4.73252">
        <ele>171</ele>
        <time>2018-06-16T10:44:00Z</time>
      </trkpt>
      <trkpt lat="45.92413" lon="4.73259">
        <ele>171</ele>
        <time>2018-06-16T10:44:01Z</time>
      </trkpt>
      <trkpt lat="45.92413" lon="4.73266">
        <ele>171</ele>
        <time>2018-06-16T10:44:02Z</time>
      </trkpt>
      <trkpt lat="45.92414" lon="4.73274">
        <ele>171</ele>
        <time>2018-06-16T10:44:03Z</time>
      </trkpt>
      <trkpt lat="45.92414" lon="4.73281">
        <ele>171</ele>
        <time>2018-06-16T10:44:04Z</time>
      </trkpt>
      <trkpt lat="45.92413" lon="4.73289">
        <ele>171</ele>
        <time>2018-06-16T10:44:05Z</time>
      </trkpt>
      <trkpt lat="45.92413" lon="4.73296">
        <ele>171</ele>
        <time>2018-06-16T10:44:06Z</time>
      </trkpt>
      <trkpt lat="45.92414" lon="4.73304">
        <ele>171</ele>
        <time>2018-06-16T10:44:07Z</time>
      </trkpt>
      <trkpt lat="45.92415" lon="4.73311">
        <ele>171</ele>
        <time>2018-06-16T10:44:08Z</time>
      </trkpt>
      <trkpt lat="45.92416" lon="4.73319">
        <ele>171</ele>
        <time>2018-06-16T10:44:09Z</time>
      </trkpt>
      <trkpt lat="45.92416" lon="4.73326">
        <ele>171</ele>
        <time>2018-06-16T10:44:10Z</time>
      </trkpt>
      <trkpt lat="45.92415" lon="4.73333">
        <ele>171</ele>
        <time>2018-06-16T10:44:11Z</time>
      </trkpt>
      <trkpt lat="45.92416" lon="4.73341">
        <ele>171</ele>
        <time>2018-06-16T10:44:12Z</time>
      </trkpt>
      <trkpt lat="45.92417" lon="4.73349">
        <ele>171</ele>
        <time>2018-06-16T10:44:13Z</time>
      </trkpt>
      <trkpt lat="45.92418" lon="4.73356">
        <ele>171</ele>
        <time>2018-06-16T10:44:14Z</time>
      </trkpt>
      <trkpt lat="45.92419" lon="4.73363">
        <ele>172</ele>
        <time>2018-06-16T10:44:15Z</time>
      </trkpt>
      <trkpt lat="45.9242" lon="4.73371">
        <ele>172</ele>
        <time>2018-06-16T10:44:16Z</time>
      </trkpt>
      <trkpt lat="45.92421" lon="4.73377">
        <ele>172</ele>
        <time>2018-06-16T10:44:17Z</time>
      </trkpt>
      <trkpt lat="45.92422" lon="4.73385">
        <ele>172</ele>
        <time>2018-06-16T10:44:18Z</time>
      </trkpt>
      <trkpt lat="45.92423" lon="4.73391">
        <ele>172</ele>
        <time>2018-06-16T10:44:19Z</time>
      </trkpt>
      <trkpt lat="45.92425" lon="4.73397">
        <ele>172</ele>
        <time>2018-06-16T10:44:20Z</time>
      </trkpt>
      <trkpt lat="45.92427" lon="4.73404">
        <ele>172</ele>
        <time>2018-06-16T10:44:21Z</time>
      </trkpt>
      <trkpt lat="45.9243" lon="4.73411">
        <ele>172</ele>
        <time>2018-06-16T10:44:22Z</time>
      </trkpt>
      <trkpt lat="45.92437" lon="4.73418">
        <ele>173</ele>
        <time>2018-06-16T10:44:24Z</time>
      </trkpt>
      <trkpt lat="45.92441" lon="4.73421">
        <ele>173</ele>
        <time>2018-06-16T10:44:25Z</time>
      </trkpt>
      <trkpt lat="45.92444" lon="4.73425">
        <ele>173</ele>
        <time>2018-06-16T10:44:26Z</time>
      </trkpt>
      <trkpt lat="45.92448" lon="4.73428">
        <ele>173</ele>
        <time>2018-06-16T10:44:27Z</time>
      </trkpt>
      <trkpt lat="45.92454" lon="4.73431">
        <ele>173</ele>
        <time>2018-06-16T10:44:28Z</time>
      </trkpt>
      <trkpt lat="45.92456" lon="4.73437">
        <ele>173</ele>
        <time>2018-06-16T10:44:29Z</time>
      </trkpt>
      <trkpt lat="45.92457" lon="4.73445">
        <ele>173</ele>
        <time>2018-06-16T10:44:30Z</time>
      </trkpt>
      <trkpt lat="45.9246" lon="4.73451">
        <ele>173</ele>
        <time>2018-06-16T10:44:31Z</time>
      </trkpt>
      <trkpt lat="45.92463" lon="4.73457">
        <ele>173</ele>
        <time>2018-06-16T10:44:32Z</time>
      </trkpt>
      <trkpt lat="45.92464" lon="4.73463">
        <ele>173</ele>
        <time>2018-06-16T10:44:33Z</time>
      </trkpt>
      <trkpt lat="45.92464" lon="4.7347">
        <ele>173</ele>
        <time>2018-06-16T10:44:34Z</time>
      </trkpt>
      <trkpt lat="45.92464" lon="4.73477">
        <ele>173</ele>
        <time>2018-06-16T10:44:35Z</time>
      </trkpt>
      <trkpt lat="45.92464" lon="4.73484">
        <ele>173</ele>
        <time>2018-06-16T10:44:36Z</time>
      </trkpt>
      <trkpt lat="45.92463" lon="4.73492">
        <ele>173</ele>
        <time>2018-06-16T10:44:37Z</time>
      </trkpt>
      <trkpt lat="45.92463" lon="4.73499">
        <ele>173</ele>
        <time>2018-06-16T10:44:38Z</time>
      </trkpt>
      <trkpt lat="45.92463" lon="4.73506">
        <ele>174</ele>
        <time>2018-06-16T10:44:39Z</time>
      </trkpt>
      <trkpt lat="45.92464" lon="4.73513">
        <ele>174</ele>
        <time>2018-06-16T10:44:40Z</time>
      </trkpt>
      <trkpt lat="45.92464" lon="4.7352">
        <ele>174</ele>
        <time>2018-06-16T10:44:41Z</time>
      </trkpt>
      <trkpt lat="45.92464" lon="4.73526">
        <ele>174</ele>
        <time>2018-06-16T10:44:42Z</time>
      </trkpt>
      <trkpt lat="45.92464" lon="4.73532">
        <ele>174</ele>
        <time>2018-06-16T10:44:43Z</time>
      </trkpt>
      <trkpt lat="45.92464" lon="4.73539">
        <ele>174</ele>
        <time>2018-06-16T10:44:44Z</time>
      </trkpt>
      <trkpt lat="45.92465" lon="4.73545">
        <ele>173</ele>
        <time>2018-06-16T10:44:45Z</time>
      </trkpt>
      <trkpt lat="45.92465" lon="4.73557">
        <ele>173</ele>
        <time>2018-06-16T10:44:47Z</time>
      </trkpt>
      <trkpt lat="45.92465" lon="4.73564">
        <ele>173</ele>
        <time>2018-06-16T10:44:48Z</time>
      </trkpt>
      <trkpt lat="45.92466" lon="4.73571">
        <ele>173</ele>
        <time>2018-06-16T10:44:49Z</time>
      </trkpt>
      <trkpt lat="45.92465" lon="4.73577">
        <ele>173</ele>
        <time>2018-06-16T10:44:50Z</time>
      </trkpt>
      <trkpt lat="45.92466" lon="4.73583">
        <ele>173</ele>
        <time>2018-06-16T10:44:51Z</time>
      </trkpt>
      <trkpt lat="45.92467" lon="4.7359">
        <ele>174</ele>
        <time>2018-06-16T10:44:52Z</time>
      </trkpt>
      <trkpt lat="45.92465" lon="4.73599">
        <ele>174</ele>
        <time>2018-06-16T10:44:53Z</time>
      </trkpt>
      <trkpt lat="45.92466" lon="4.73608">
        <ele>174</ele>
        <time>2018-06-16T10:44:54Z</time>
      </trkpt>
      <trkpt lat="45.92467" lon="4.73616">
        <ele>174</ele>
        <time>2018-06-16T10:44:55Z</time>
      </trkpt>
      <trkpt lat="45.92467" lon="4.73622">
        <ele>174</ele>
        <time>2018-06-16T10:44:56Z</time>
      </trkpt>
      <trkpt lat="45.92467" lon="4.7363">
        <ele>174</ele>
        <time>2018-06-16T10:44:57Z</time>
      </trkpt>
      <trkpt lat="45.92467" lon="4.73638">
        <ele>174</ele>
        <time>2018-06-16T10:44:58Z</time>
      </trkpt>
      <trkpt lat="45.92468" lon="4.73645">
        <ele>174</ele>
        <time>2018-06-16T10:44:59Z</time>
      </trkpt>
      <trkpt lat="45.92467" lon="4.73652">
        <ele>174</ele>
        <time>2018-06-16T10:45:00Z</time>
      </trkpt>
      <trkpt lat="45.92468" lon="4.73659">
        <ele>174</ele>
        <time>2018-06-16T10:45:01Z</time>
      </trkpt>
      <trkpt lat="45.92468" lon="4.73666">
        <ele>174</ele>
        <time>2018-06-16T10:45:02Z</time>
      </trkpt>
      <trkpt lat="45.92469" lon="4.73673">
        <ele>174</ele>
        <time>2018-06-16T10:45:03Z</time>
      </trkpt>
      <trkpt lat="45.92468" lon="4.7368">
        <ele>174</ele>
        <time>2018-06-16T10:45:04Z</time>
      </trkpt>
      <trkpt lat="45.92466" lon="4.73691">
        <ele>174</ele>
        <time>2018-06-16T10:45:06Z</time>
      </trkpt>
      <trkpt lat="45.92466" lon="4.73697">
        <ele>174</ele>
        <time>2018-06-16T10:45:07Z</time>
      </trkpt>
      <trkpt lat="45.92462" lon="4.73708">
        <ele>174</ele>
        <time>2018-06-16T10:45:28Z</time>
      </trkpt>
      <trkpt lat="45.92462" lon="4.73709">
        <ele>174</ele>
        <time>2018-06-16T10:45:29Z</time>
      </trkpt>
      <trkpt lat="45.92458" lon="4.73712">
        <ele>174</ele>
        <time>2018-06-16T10:46:00.235Z</time>
      </trkpt>
    </trkseg>
  </trk>
</gpx>